<?xml version='1.0' encoding='UTF-8'?><gpx version="1.1" creator="JPX - https://github.com/jenetics/jpx" xmlns="http://www.topografix.com/GPX/1/1"><trk><trkseg><trkpt lat="44.818155" lon="8.0647183"><ele>158.0</ele><time>2026-04-19T07:10:24.092Z</time></trkpt><trkpt lat="44.8182533" lon="8.0646968"><ele>158.0</ele><time>2026-04-19T07:10:25.093Z</time></trkpt><trkpt lat="44.8183518" lon="8.0646697"><ele>158.0</ele><time>2026-04-19T07:10:26.094Z</time></trkpt><trkpt lat="44.8184535" lon="8.0646399"><ele>158.0</ele><time>2026-04-19T07:10:27.097Z</time></trkpt><trkpt lat="44.8185593" lon="8.0646163"><ele>158.0</ele><time>2026-04-19T07:10:28.097Z</time></trkpt><trkpt lat="44.8186668" lon="8.064601"><ele>158.0</ele><time>2026-04-19T07:10:29.104Z</time></trkpt><trkpt lat="44.8187769" lon="8.064588"><ele>158.0</ele><time>2026-04-19T07:10:30.097Z</time></trkpt><trkpt lat="44.8188921" lon="8.0645779"><ele>158.0</ele><time>2026-04-19T07:10:31.102Z</time></trkpt><trkpt lat="44.8190068" lon="8.0645713"><ele>158.0</ele><time>2026-04-19T07:10:32.099Z</time></trkpt><trkpt lat="44.8191195" lon="8.0645654"><ele>158.0</ele><time>2026-04-19T07:10:33.101Z</time></trkpt><trkpt lat="44.8192244" lon="8.0645605"><ele>158.0</ele><time>2026-04-19T07:10:34.097Z</time></trkpt><trkpt lat="44.8193132" lon="8.0645536"><ele>158.0</ele><time>2026-04-19T07:10:35.104Z</time></trkpt><trkpt lat="44.8193893" lon="8.0645553"><ele>158.0</ele><time>2026-04-19T07:10:36.099Z</time></trkpt><trkpt lat="44.8194848" lon="8.0645899"><ele>158.0</ele><time>2026-04-19T07:10:38.098Z</time></trkpt><trkpt lat="44.8195183" lon="8.0646894"><ele>158.0</ele><time>2026-04-19T07:10:40.101Z</time></trkpt><trkpt lat="44.8194847" lon="8.0648536"><ele>158.20000000000002</ele><time>2026-04-19T07:10:42.104Z</time></trkpt><trkpt lat="44.8194418" lon="8.0649481"><ele>158.4</ele><time>2026-04-19T07:10:43.087Z</time></trkpt><trkpt lat="44.8193834" lon="8.0650675"><ele>158.60000000000002</ele><time>2026-04-19T07:10:44.098Z</time></trkpt><trkpt lat="44.8193187" lon="8.0652068"><ele>158.8</ele><time>2026-04-19T07:10:45.097Z</time></trkpt><trkpt lat="44.8192593" lon="8.0653418"><ele>159.0</ele><time>2026-04-19T07:10:46.093Z</time></trkpt><trkpt lat="44.8192061" lon="8.0654598"><ele>159.0</ele><time>2026-04-19T07:10:47.096Z</time></trkpt><trkpt lat="44.8191576" lon="8.0655504"><ele>159.0</ele><time>2026-04-19T07:10:48.099Z</time></trkpt><trkpt lat="44.819109" lon="8.0656142"><ele>159.0</ele><time>2026-04-19T07:10:49.104Z</time></trkpt><trkpt lat="44.8190545" lon="8.0656634"><ele>159.0</ele><time>2026-04-19T07:10:50.096Z</time></trkpt><trkpt lat="44.8189816" lon="8.065696"><ele>159.0</ele><time>2026-04-19T07:10:51.096Z</time></trkpt><trkpt lat="44.8188845" lon="8.0657265"><ele>159.0</ele><time>2026-04-19T07:10:52.096Z</time></trkpt><trkpt lat="44.818767" lon="8.0657596"><ele>160.2</ele><time>2026-04-19T07:10:53.091Z</time></trkpt><trkpt lat="44.8186539" lon="8.0658061"><ele>161.4</ele><time>2026-04-19T07:10:54.094Z</time></trkpt><trkpt lat="44.8185457" lon="8.0658529"><ele>162.6</ele><time>2026-04-19T07:10:55.099Z</time></trkpt><trkpt lat="44.818457" lon="8.0658905"><ele>163.8</ele><time>2026-04-19T07:10:56.095Z</time></trkpt><trkpt lat="44.8183822" lon="8.0659144"><ele>165.0</ele><time>2026-04-19T07:10:57.102Z</time></trkpt><trkpt lat="44.8182862" lon="8.0659674"><ele>165.0</ele><time>2026-04-19T07:10:59.095Z</time></trkpt><trkpt lat="44.8182836" lon="8.0660647"><ele>165.0</ele><time>2026-04-19T07:11:02.103Z</time></trkpt><trkpt lat="44.8183712" lon="8.0661984"><ele>165.0</ele><time>2026-04-19T07:11:04.097Z</time></trkpt><trkpt lat="44.8184266" lon="8.0662729"><ele>165.0</ele><time>2026-04-19T07:11:05.093Z</time></trkpt><trkpt lat="44.8184759" lon="8.0663343"><ele>165.0</ele><time>2026-04-19T07:11:06.089Z</time></trkpt><trkpt lat="44.8185476" lon="8.0664072"><ele>165.0</ele><time>2026-04-19T07:11:07.096Z</time></trkpt><trkpt lat="44.8186237" lon="8.0664795"><ele>165.0</ele><time>2026-04-19T07:11:08.102Z</time></trkpt><trkpt lat="44.8186935" lon="8.0665541"><ele>165.0</ele><time>2026-04-19T07:11:09.091Z</time></trkpt><trkpt lat="44.8187632" lon="8.0666395"><ele>165.0</ele><time>2026-04-19T07:11:10.096Z</time></trkpt><trkpt lat="44.8188238" lon="8.0667148"><ele>165.0</ele><time>2026-04-19T07:11:11.097Z</time></trkpt><trkpt lat="44.8188818" lon="8.0668015"><ele>165.0</ele><time>2026-04-19T07:11:12.101Z</time></trkpt><trkpt lat="44.818946" lon="8.0669101"><ele>165.0</ele><time>2026-04-19T07:11:13.097Z</time></trkpt><trkpt lat="44.8190086" lon="8.0670224"><ele>168.0</ele><time>2026-04-19T07:11:14.097Z</time></trkpt><trkpt lat="44.8190647" lon="8.0671387"><ele>171.0</ele><time>2026-04-19T07:11:15.102Z</time></trkpt><trkpt lat="44.819122" lon="8.067255"><ele>174.0</ele><time>2026-04-19T07:11:16.089Z</time></trkpt><trkpt lat="44.8191761" lon="8.0673672"><ele>177.0</ele><time>2026-04-19T07:11:17.101Z</time></trkpt><trkpt lat="44.8192223" lon="8.0674836"><ele>180.0</ele><time>2026-04-19T07:11:18.095Z</time></trkpt><trkpt lat="44.8192634" lon="8.0675902"><ele>179.83333333333334</ele><time>2026-04-19T07:11:19.099Z</time></trkpt><trkpt lat="44.8193031" lon="8.0676881"><ele>179.66666666666666</ele><time>2026-04-19T07:11:20.098Z</time></trkpt><trkpt lat="44.8193233" lon="8.0678183"><ele>179.5</ele><time>2026-04-19T07:11:22.102Z</time></trkpt><trkpt lat="44.8192833" lon="8.0679067"><ele>179.33333333333331</ele><time>2026-04-19T07:11:25.093Z</time></trkpt><trkpt lat="44.8192017" lon="8.0678933"><ele>179.16666666666666</ele><time>2026-04-19T07:11:27.094Z</time></trkpt><trkpt lat="44.81913" lon="8.0678867"><ele>179.0</ele><time>2026-04-19T07:11:28.1Z</time></trkpt><trkpt lat="44.8189983" lon="8.0678733"><ele>184.33333333333331</ele><time>2026-04-19T07:11:29.095Z</time></trkpt><trkpt lat="44.818855" lon="8.06786"><ele>189.66666666666666</ele><time>2026-04-19T07:11:30.095Z</time></trkpt><trkpt lat="44.8187" lon="8.067845"><ele>195.0</ele><time>2026-04-19T07:11:31.1Z</time></trkpt><trkpt lat="44.8185417" lon="8.0678267"><ele>198.5</ele><time>2026-04-19T07:11:32.09Z</time></trkpt><trkpt lat="44.818385" lon="8.067815"><ele>202.0</ele><time>2026-04-19T07:11:33.093Z</time></trkpt><trkpt lat="44.8182433" lon="8.0678233"><ele>205.5</ele><time>2026-04-19T07:11:34.097Z</time></trkpt><trkpt lat="44.8181133" lon="8.0678467"><ele>209.0</ele><time>2026-04-19T07:11:35.096Z</time></trkpt><trkpt lat="44.81799" lon="8.0678833"><ele>209.0</ele><time>2026-04-19T07:11:36.103Z</time></trkpt><trkpt lat="44.81787" lon="8.0679183"><ele>209.0</ele><time>2026-04-19T07:11:37.097Z</time></trkpt><trkpt lat="44.8177517" lon="8.06794"><ele>209.0</ele><time>2026-04-19T07:11:38.095Z</time></trkpt><trkpt lat="44.8176417" lon="8.06795"><ele>209.0</ele><time>2026-04-19T07:11:39.096Z</time></trkpt><trkpt lat="44.8175383" lon="8.0679683"><ele>209.66666666666669</ele><time>2026-04-19T07:11:40.095Z</time></trkpt><trkpt lat="44.8174433" lon="8.0680017"><ele>210.33333333333334</ele><time>2026-04-19T07:11:41.091Z</time></trkpt><trkpt lat="44.81736" lon="8.0680433"><ele>211.0</ele><time>2026-04-19T07:11:42.094Z</time></trkpt><trkpt lat="44.8172817" lon="8.06809"><ele>211.66666666666669</ele><time>2026-04-19T07:11:43.099Z</time></trkpt><trkpt lat="44.8172133" lon="8.0681483"><ele>212.33333333333334</ele><time>2026-04-19T07:11:44.106Z</time></trkpt><trkpt lat="44.8171567" lon="8.0682183"><ele>213.0</ele><time>2026-04-19T07:11:45.094Z</time></trkpt><trkpt lat="44.8171033" lon="8.068295"><ele>213.16666666666666</ele><time>2026-04-19T07:11:46.103Z</time></trkpt><trkpt lat="44.8170467" lon="8.0683717"><ele>213.33333333333331</ele><time>2026-04-19T07:11:47.109Z</time></trkpt><trkpt lat="44.8169883" lon="8.0684517"><ele>213.5</ele><time>2026-04-19T07:11:48.095Z</time></trkpt><trkpt lat="44.8169333" lon="8.06853"><ele>213.66666666666666</ele><time>2026-04-19T07:11:49.101Z</time></trkpt><trkpt lat="44.8168783" lon="8.0686033"><ele>213.83333333333331</ele><time>2026-04-19T07:11:50.099Z</time></trkpt><trkpt lat="44.8168217" lon="8.0686733"><ele>214.0</ele><time>2026-04-19T07:11:51.102Z</time></trkpt><trkpt lat="44.81677" lon="8.06874"><ele>214.99999999999997</ele><time>2026-04-19T07:11:52.102Z</time></trkpt><trkpt lat="44.8167217" lon="8.0688083"><ele>216.0</ele><time>2026-04-19T07:11:53.105Z</time></trkpt><trkpt lat="44.8166717" lon="8.06888"><ele>217.0</ele><time>2026-04-19T07:11:54.099Z</time></trkpt><trkpt lat="44.8166183" lon="8.068955"><ele>218.0</ele><time>2026-04-19T07:11:55.094Z</time></trkpt><trkpt lat="44.8165683" lon="8.0690317"><ele>218.99999999999997</ele><time>2026-04-19T07:11:56.097Z</time></trkpt><trkpt lat="44.81651" lon="8.06912"><ele>220.0</ele><time>2026-04-19T07:11:57.104Z</time></trkpt><trkpt lat="44.81645" lon="8.0692283"><ele>220.75</ele><time>2026-04-19T07:11:58.091Z</time></trkpt><trkpt lat="44.8163833" lon="8.069365"><ele>221.5</ele><time>2026-04-19T07:11:59.101Z</time></trkpt><trkpt lat="44.8163117" lon="8.0695267"><ele>222.25</ele><time>2026-04-19T07:12:00.099Z</time></trkpt><trkpt lat="44.8162433" lon="8.0697"><ele>223.0</ele><time>2026-04-19T07:12:01.102Z</time></trkpt><trkpt lat="44.8161783" lon="8.0698967"><ele>223.0</ele><time>2026-04-19T07:12:02.099Z</time></trkpt><trkpt lat="44.8161183" lon="8.0700983"><ele>223.0</ele><time>2026-04-19T07:12:03.098Z</time></trkpt><trkpt lat="44.8160583" lon="8.0702533"><ele>223.0</ele><time>2026-04-19T07:12:04.098Z</time></trkpt><trkpt lat="44.816" lon="8.070395"><ele>223.0</ele><time>2026-04-19T07:12:05.098Z</time></trkpt><trkpt lat="44.8159233" lon="8.0705267"><ele>225.0</ele><time>2026-04-19T07:12:06.102Z</time></trkpt><trkpt lat="44.8158317" lon="8.07065"><ele>227.0</ele><time>2026-04-19T07:12:07.094Z</time></trkpt><trkpt lat="44.8157417" lon="8.0707667"><ele>229.0</ele><time>2026-04-19T07:12:08.091Z</time></trkpt><trkpt lat="44.8156533" lon="8.0708983"><ele>231.0</ele><time>2026-04-19T07:12:09.097Z</time></trkpt><trkpt lat="44.8155667" lon="8.0710483"><ele>233.5</ele><time>2026-04-19T07:12:10.099Z</time></trkpt><trkpt lat="44.8154817" lon="8.0712133"><ele>236.0</ele><time>2026-04-19T07:12:11.106Z</time></trkpt><trkpt lat="44.81541" lon="8.071385"><ele>238.5</ele><time>2026-04-19T07:12:12.103Z</time></trkpt><trkpt lat="44.8153417" lon="8.0715383"><ele>241.0</ele><time>2026-04-19T07:12:13.101Z</time></trkpt><trkpt lat="44.8152683" lon="8.0716783"><ele>241.20000000000002</ele><time>2026-04-19T07:12:14.093Z</time></trkpt><trkpt lat="44.81519" lon="8.071795"><ele>241.40000000000003</ele><time>2026-04-19T07:12:15.096Z</time></trkpt><trkpt lat="44.8151133" lon="8.071895"><ele>241.6</ele><time>2026-04-19T07:12:16.1Z</time></trkpt><trkpt lat="44.815025" lon="8.0719683"><ele>241.8</ele><time>2026-04-19T07:12:17.093Z</time></trkpt><trkpt lat="44.8149267" lon="8.0720333"><ele>242.0</ele><time>2026-04-19T07:12:18.096Z</time></trkpt><trkpt lat="44.8148183" lon="8.0721117"><ele>240.75</ele><time>2026-04-19T07:12:19.097Z</time></trkpt><trkpt lat="44.8147017" lon="8.0722117"><ele>239.5</ele><time>2026-04-19T07:12:20.097Z</time></trkpt><trkpt lat="44.8145783" lon="8.07233"><ele>238.25</ele><time>2026-04-19T07:12:21.1Z</time></trkpt><trkpt lat="44.8144617" lon="8.0724533"><ele>237.0</ele><time>2026-04-19T07:12:22.103Z</time></trkpt><trkpt lat="44.8143483" lon="8.0725667"><ele>236.5</ele><time>2026-04-19T07:12:23.109Z</time></trkpt><trkpt lat="44.8142417" lon="8.0726717"><ele>236.0</ele><time>2026-04-19T07:12:24.097Z</time></trkpt><trkpt lat="44.8141317" lon="8.0727683"><ele>235.5</ele><time>2026-04-19T07:12:25.102Z</time></trkpt><trkpt lat="44.81402" lon="8.0728483"><ele>235.0</ele><time>2026-04-19T07:12:26.1Z</time></trkpt><trkpt lat="44.8139017" lon="8.07292"><ele>235.0</ele><time>2026-04-19T07:12:27.102Z</time></trkpt><trkpt lat="44.8137817" lon="8.0729833"><ele>235.0</ele><time>2026-04-19T07:12:28.095Z</time></trkpt><trkpt lat="44.8136617" lon="8.073045"><ele>235.0</ele><time>2026-04-19T07:12:29.101Z</time></trkpt><trkpt lat="44.8135467" lon="8.0731033"><ele>235.0</ele><time>2026-04-19T07:12:30.101Z</time></trkpt><trkpt lat="44.81343" lon="8.0731583"><ele>233.25</ele><time>2026-04-19T07:12:31.091Z</time></trkpt><trkpt lat="44.81331" lon="8.0732033"><ele>231.5</ele><time>2026-04-19T07:12:32.093Z</time></trkpt><trkpt lat="44.813185" lon="8.073245"><ele>229.75</ele><time>2026-04-19T07:12:33.095Z</time></trkpt><trkpt lat="44.8130517" lon="8.0732917"><ele>228.0</ele><time>2026-04-19T07:12:34.099Z</time></trkpt><trkpt lat="44.81292" lon="8.0733483"><ele>228.0</ele><time>2026-04-19T07:12:35.098Z</time></trkpt><trkpt lat="44.8127917" lon="8.07342"><ele>228.0</ele><time>2026-04-19T07:12:36.095Z</time></trkpt><trkpt lat="44.8126717" lon="8.0734917"><ele>228.0</ele><time>2026-04-19T07:12:37.093Z</time></trkpt><trkpt lat="44.8125617" lon="8.0735533"><ele>228.0</ele><time>2026-04-19T07:12:38.101Z</time></trkpt><trkpt lat="44.812455" lon="8.0735883"><ele>228.0</ele><time>2026-04-19T07:12:39.095Z</time></trkpt><trkpt lat="44.8123533" lon="8.0735983"><ele>228.0</ele><time>2026-04-19T07:12:40.094Z</time></trkpt><trkpt lat="44.812265" lon="8.0735933"><ele>228.0</ele><time>2026-04-19T07:12:41.103Z</time></trkpt><trkpt lat="44.812185" lon="8.0735833"><ele>228.0</ele><time>2026-04-19T07:12:42.1Z</time></trkpt><trkpt lat="44.8121083" lon="8.0735783"><ele>228.0</ele><time>2026-04-19T07:12:43.097Z</time></trkpt><trkpt lat="44.8120433" lon="8.073575"><ele>228.0</ele><time>2026-04-19T07:12:44.095Z</time></trkpt><trkpt lat="44.81198" lon="8.07357"><ele>228.0</ele><time>2026-04-19T07:12:45.104Z</time></trkpt><trkpt lat="44.811915" lon="8.0735633"><ele>227.99999999999997</ele><time>2026-04-19T07:12:46.105Z</time></trkpt><trkpt lat="44.8118467" lon="8.0735617"><ele>228.0</ele><time>2026-04-19T07:12:47.108Z</time></trkpt><trkpt lat="44.8117833" lon="8.0735617"><ele>228.0</ele><time>2026-04-19T07:12:48.095Z</time></trkpt><trkpt lat="44.811715" lon="8.0735633"><ele>227.99999999999997</ele><time>2026-04-19T07:12:49.099Z</time></trkpt><trkpt lat="44.81164" lon="8.07357"><ele>228.0</ele><time>2026-04-19T07:12:50.095Z</time></trkpt><trkpt lat="44.8115517" lon="8.0735817"><ele>228.0</ele><time>2026-04-19T07:12:51.093Z</time></trkpt><trkpt lat="44.811455" lon="8.0736033"><ele>229.25</ele><time>2026-04-19T07:12:52.104Z</time></trkpt><trkpt lat="44.8113517" lon="8.07364"><ele>230.5</ele><time>2026-04-19T07:12:53.106Z</time></trkpt><trkpt lat="44.8112383" lon="8.073685"><ele>231.75</ele><time>2026-04-19T07:12:54.1Z</time></trkpt><trkpt lat="44.8111133" lon="8.0737467"><ele>233.0</ele><time>2026-04-19T07:12:55.099Z</time></trkpt><trkpt lat="44.8109833" lon="8.0738117"><ele>234.75</ele><time>2026-04-19T07:12:56.1Z</time></trkpt><trkpt lat="44.810865" lon="8.0738683"><ele>236.5</ele><time>2026-04-19T07:12:57.104Z</time></trkpt><trkpt lat="44.8107483" lon="8.0739183"><ele>238.25</ele><time>2026-04-19T07:12:58.099Z</time></trkpt><trkpt lat="44.810625" lon="8.0739667"><ele>240.0</ele><time>2026-04-19T07:12:59.096Z</time></trkpt><trkpt lat="44.8105017" lon="8.0740067"><ele>240.0</ele><time>2026-04-19T07:13:00.104Z</time></trkpt><trkpt lat="44.8103883" lon="8.074035"><ele>240.0</ele><time>2026-04-19T07:13:01.097Z</time></trkpt><trkpt lat="44.8102883" lon="8.0740583"><ele>240.0</ele><time>2026-04-19T07:13:02.094Z</time></trkpt><trkpt lat="44.810195" lon="8.07407"><ele>240.0</ele><time>2026-04-19T07:13:03.103Z</time></trkpt><trkpt lat="44.8101067" lon="8.0740767"><ele>240.0</ele><time>2026-04-19T07:13:04.092Z</time></trkpt><trkpt lat="44.8100167" lon="8.0740767"><ele>240.6</ele><time>2026-04-19T07:13:05.093Z</time></trkpt><trkpt lat="44.8099283" lon="8.0740683"><ele>241.2</ele><time>2026-04-19T07:13:06.099Z</time></trkpt><trkpt lat="44.8098367" lon="8.0740483"><ele>241.8</ele><time>2026-04-19T07:13:07.099Z</time></trkpt><trkpt lat="44.8097433" lon="8.0740217"><ele>242.4</ele><time>2026-04-19T07:13:08.095Z</time></trkpt><trkpt lat="44.8096517" lon="8.0739983"><ele>243.0</ele><time>2026-04-19T07:13:09.097Z</time></trkpt><trkpt lat="44.809565" lon="8.0739883"><ele>243.0</ele><time>2026-04-19T07:13:10.092Z</time></trkpt><trkpt lat="44.809485" lon="8.0739917"><ele>243.0</ele><time>2026-04-19T07:13:11.104Z</time></trkpt><trkpt lat="44.8094067" lon="8.07401"><ele>243.0</ele><time>2026-04-19T07:13:12.097Z</time></trkpt><trkpt lat="44.8093417" lon="8.07406"><ele>243.0</ele><time>2026-04-19T07:13:13.094Z</time></trkpt><trkpt lat="44.809275" lon="8.07412"><ele>243.0</ele><time>2026-04-19T07:13:14.096Z</time></trkpt><trkpt lat="44.8092017" lon="8.0741983"><ele>243.0</ele><time>2026-04-19T07:13:15.094Z</time></trkpt><trkpt lat="44.8091183" lon="8.07429"><ele>243.0</ele><time>2026-04-19T07:13:16.105Z</time></trkpt><trkpt lat="44.8090367" lon="8.07439"><ele>243.0</ele><time>2026-04-19T07:13:17.098Z</time></trkpt><trkpt lat="44.8089567" lon="8.074495"><ele>243.0</ele><time>2026-04-19T07:13:18.094Z</time></trkpt><trkpt lat="44.8088817" lon="8.07461"><ele>243.0</ele><time>2026-04-19T07:13:19.092Z</time></trkpt><trkpt lat="44.8088083" lon="8.0747417"><ele>243.0</ele><time>2026-04-19T07:13:20.092Z</time></trkpt><trkpt lat="44.8087417" lon="8.0748883"><ele>243.5</ele><time>2026-04-19T07:13:21.098Z</time></trkpt><trkpt lat="44.8086767" lon="8.0750467"><ele>244.0</ele><time>2026-04-19T07:13:22.109Z</time></trkpt><trkpt lat="44.808615" lon="8.0752033"><ele>244.5</ele><time>2026-04-19T07:13:23.101Z</time></trkpt><trkpt lat="44.8085533" lon="8.0753433"><ele>245.0</ele><time>2026-04-19T07:13:24.098Z</time></trkpt><trkpt lat="44.808485" lon="8.0754783"><ele>245.0</ele><time>2026-04-19T07:13:25.098Z</time></trkpt><trkpt lat="44.80841" lon="8.0756217"><ele>245.0</ele><time>2026-04-19T07:13:26.092Z</time></trkpt><trkpt lat="44.8083317" lon="8.07577"><ele>245.0</ele><time>2026-04-19T07:13:27.101Z</time></trkpt><trkpt lat="44.8082567" lon="8.07594"><ele>245.0</ele><time>2026-04-19T07:13:28.1Z</time></trkpt><trkpt lat="44.80818" lon="8.0761433"><ele>246.0</ele><time>2026-04-19T07:13:29.101Z</time></trkpt><trkpt lat="44.8081033" lon="8.07635"><ele>247.0</ele><time>2026-04-19T07:13:30.105Z</time></trkpt><trkpt lat="44.8080267" lon="8.076555"><ele>248.0</ele><time>2026-04-19T07:13:31.097Z</time></trkpt><trkpt lat="44.8079483" lon="8.0767567"><ele>248.0</ele><time>2026-04-19T07:13:32.105Z</time></trkpt><trkpt lat="44.80787" lon="8.07695"><ele>248.0</ele><time>2026-04-19T07:13:33.103Z</time></trkpt><trkpt lat="44.8077933" lon="8.0771333"><ele>248.0</ele><time>2026-04-19T07:13:34.093Z</time></trkpt><trkpt lat="44.8077167" lon="8.07731"><ele>250.0</ele><time>2026-04-19T07:13:35.092Z</time></trkpt><trkpt lat="44.8076467" lon="8.07748"><ele>252.0</ele><time>2026-04-19T07:13:36.119Z</time></trkpt><trkpt lat="44.807585" lon="8.0776467"><ele>254.0</ele><time>2026-04-19T07:13:37.098Z</time></trkpt><trkpt lat="44.8075283" lon="8.0778117"><ele>256.0</ele><time>2026-04-19T07:13:38.102Z</time></trkpt><trkpt lat="44.8074817" lon="8.0779717"><ele>256.0</ele><time>2026-04-19T07:13:39.094Z</time></trkpt><trkpt lat="44.807435" lon="8.0781233"><ele>256.0</ele><time>2026-04-19T07:13:40.094Z</time></trkpt><trkpt lat="44.80739" lon="8.07827"><ele>256.0</ele><time>2026-04-19T07:13:41.096Z</time></trkpt><trkpt lat="44.807355" lon="8.0783983"><ele>256.0</ele><time>2026-04-19T07:13:42.095Z</time></trkpt><trkpt lat="44.807325" lon="8.0785167"><ele>256.0</ele><time>2026-04-19T07:13:43.094Z</time></trkpt><trkpt lat="44.8073067" lon="8.07862"><ele>256.2</ele><time>2026-04-19T07:13:44.091Z</time></trkpt><trkpt lat="44.8072983" lon="8.0787117"><ele>256.40000000000003</ele><time>2026-04-19T07:13:45.098Z</time></trkpt><trkpt lat="44.8073233" lon="8.0788083"><ele>256.6</ele><time>2026-04-19T07:13:47.101Z</time></trkpt><trkpt lat="44.8074033" lon="8.078785"><ele>256.8</ele><time>2026-04-19T07:13:49.095Z</time></trkpt><trkpt lat="44.8075367" lon="8.0787433"><ele>257.0</ele><time>2026-04-19T07:13:51.103Z</time></trkpt><trkpt lat="44.8076533" lon="8.078725"><ele>254.25</ele><time>2026-04-19T07:13:52.104Z</time></trkpt><trkpt lat="44.8077783" lon="8.078705"><ele>251.5</ele><time>2026-04-19T07:13:53.101Z</time></trkpt><trkpt lat="44.8079083" lon="8.0786833"><ele>248.75</ele><time>2026-04-19T07:13:54.094Z</time></trkpt><trkpt lat="44.808045" lon="8.0786633"><ele>246.0</ele><time>2026-04-19T07:13:55.096Z</time></trkpt><trkpt lat="44.808175" lon="8.0786583"><ele>246.0</ele><time>2026-04-19T07:13:56.101Z</time></trkpt><trkpt lat="44.8083017" lon="8.0786567"><ele>246.00000000000003</ele><time>2026-04-19T07:13:57.1Z</time></trkpt><trkpt lat="44.8084133" lon="8.0786533"><ele>246.00000000000003</ele><time>2026-04-19T07:13:58.094Z</time></trkpt><trkpt lat="44.8085167" lon="8.0786583"><ele>246.0</ele><time>2026-04-19T07:13:59.096Z</time></trkpt><trkpt lat="44.8086167" lon="8.0786883"><ele>246.0</ele><time>2026-04-19T07:14:00.104Z</time></trkpt><trkpt lat="44.8087117" lon="8.0787417"><ele>246.4</ele><time>2026-04-19T07:14:01.1Z</time></trkpt><trkpt lat="44.80881" lon="8.07882"><ele>246.8</ele><time>2026-04-19T07:14:02.101Z</time></trkpt><trkpt lat="44.8089017" lon="8.07891"><ele>247.20000000000002</ele><time>2026-04-19T07:14:03.099Z</time></trkpt><trkpt lat="44.8089817" lon="8.0790067"><ele>247.60000000000002</ele><time>2026-04-19T07:14:04.103Z</time></trkpt><trkpt lat="44.8090717" lon="8.0791133"><ele>248.0</ele><time>2026-04-19T07:14:05.097Z</time></trkpt><trkpt lat="44.8091733" lon="8.07922"><ele>246.5</ele><time>2026-04-19T07:14:06.092Z</time></trkpt><trkpt lat="44.80929" lon="8.07932"><ele>245.0</ele><time>2026-04-19T07:14:07.096Z</time></trkpt><trkpt lat="44.8094083" lon="8.0794083"><ele>243.5</ele><time>2026-04-19T07:14:08.1Z</time></trkpt><trkpt lat="44.8095167" lon="8.0794817"><ele>242.0</ele><time>2026-04-19T07:14:09.1Z</time></trkpt><trkpt lat="44.8096217" lon="8.079545"><ele>242.0</ele><time>2026-04-19T07:14:10.106Z</time></trkpt><trkpt lat="44.8097317" lon="8.07959"><ele>242.0</ele><time>2026-04-19T07:14:11.102Z</time></trkpt><trkpt lat="44.8098583" lon="8.0796333"><ele>242.0</ele><time>2026-04-19T07:14:12.092Z</time></trkpt><trkpt lat="44.80998" lon="8.0796767"><ele>242.0</ele><time>2026-04-19T07:14:13.099Z</time></trkpt><trkpt lat="44.81009" lon="8.0797267"><ele>239.00000000000003</ele><time>2026-04-19T07:14:14.094Z</time></trkpt><trkpt lat="44.8101833" lon="8.0797883"><ele>236.0</ele><time>2026-04-19T07:14:15.101Z</time></trkpt><trkpt lat="44.8102583" lon="8.0798533"><ele>233.0</ele><time>2026-04-19T07:14:16.094Z</time></trkpt><trkpt lat="44.81031" lon="8.079905"><ele>230.0</ele><time>2026-04-19T07:14:17.104Z</time></trkpt><trkpt lat="44.8103733" lon="8.07991"><ele>227.00000000000003</ele><time>2026-04-19T07:14:19.094Z</time></trkpt><trkpt lat="44.8103683" lon="8.079765"><ele>224.0</ele><time>2026-04-19T07:14:21.098Z</time></trkpt><trkpt lat="44.8103683" lon="8.0796533"><ele>224.0</ele><time>2026-04-19T07:14:22.09Z</time></trkpt><trkpt lat="44.8103683" lon="8.079515"><ele>223.99999999999997</ele><time>2026-04-19T07:14:23.104Z</time></trkpt><trkpt lat="44.8103683" lon="8.0793583"><ele>223.99999999999997</ele><time>2026-04-19T07:14:24.095Z</time></trkpt><trkpt lat="44.8103767" lon="8.079195"><ele>224.0</ele><time>2026-04-19T07:14:25.095Z</time></trkpt><trkpt lat="44.810395" lon="8.0790333"><ele>224.0</ele><time>2026-04-19T07:14:26.091Z</time></trkpt><trkpt lat="44.8104333" lon="8.0788767"><ele>224.6</ele><time>2026-04-19T07:14:27.091Z</time></trkpt><trkpt lat="44.810485" lon="8.0787383"><ele>225.2</ele><time>2026-04-19T07:14:28.092Z</time></trkpt><trkpt lat="44.810555" lon="8.0786117"><ele>225.79999999999998</ele><time>2026-04-19T07:14:29.097Z</time></trkpt><trkpt lat="44.81063" lon="8.0784933"><ele>226.39999999999998</ele><time>2026-04-19T07:14:30.103Z</time></trkpt><trkpt lat="44.8107033" lon="8.0783767"><ele>227.0</ele><time>2026-04-19T07:14:31.094Z</time></trkpt><trkpt lat="44.8107767" lon="8.0782617"><ele>227.0</ele><time>2026-04-19T07:14:32.102Z</time></trkpt><trkpt lat="44.8108517" lon="8.0781483"><ele>227.0</ele><time>2026-04-19T07:14:33.091Z</time></trkpt><trkpt lat="44.8109233" lon="8.0780433"><ele>227.0</ele><time>2026-04-19T07:14:34.1Z</time></trkpt><trkpt lat="44.8109917" lon="8.077955"><ele>227.0</ele><time>2026-04-19T07:14:35.097Z</time></trkpt><trkpt lat="44.811065" lon="8.077905"><ele>227.0</ele><time>2026-04-19T07:14:36.095Z</time></trkpt><trkpt lat="44.811145" lon="8.07788"><ele>226.66666666666669</ele><time>2026-04-19T07:14:37.1Z</time></trkpt><trkpt lat="44.8112267" lon="8.0778633"><ele>226.33333333333334</ele><time>2026-04-19T07:14:38.096Z</time></trkpt><trkpt lat="44.8113117" lon="8.0778467"><ele>226.0</ele><time>2026-04-19T07:14:39.092Z</time></trkpt><trkpt lat="44.8113967" lon="8.0778333"><ele>225.66666666666669</ele><time>2026-04-19T07:14:40.096Z</time></trkpt><trkpt lat="44.8114833" lon="8.0778233"><ele>225.33333333333334</ele><time>2026-04-19T07:14:41.101Z</time></trkpt><trkpt lat="44.8115717" lon="8.0778167"><ele>225.0</ele><time>2026-04-19T07:14:42.09Z</time></trkpt><trkpt lat="44.8116617" lon="8.07782"><ele>225.0</ele><time>2026-04-19T07:14:43.095Z</time></trkpt><trkpt lat="44.81175" lon="8.0778283"><ele>225.0</ele><time>2026-04-19T07:14:44.1Z</time></trkpt><trkpt lat="44.8118367" lon="8.077845"><ele>225.0</ele><time>2026-04-19T07:14:45.102Z</time></trkpt><trkpt lat="44.8119267" lon="8.0778617"><ele>225.0</ele><time>2026-04-19T07:14:46.096Z</time></trkpt><trkpt lat="44.8120183" lon="8.0778867"><ele>225.0</ele><time>2026-04-19T07:14:47.105Z</time></trkpt><trkpt lat="44.81211" lon="8.0779133"><ele>224.2</ele><time>2026-04-19T07:14:48.096Z</time></trkpt><trkpt lat="44.812205" lon="8.0779417"><ele>223.4</ele><time>2026-04-19T07:14:49.099Z</time></trkpt><trkpt lat="44.8123033" lon="8.0779717"><ele>222.60000000000002</ele><time>2026-04-19T07:14:50.102Z</time></trkpt><trkpt lat="44.8123983" lon="8.0779967"><ele>221.8</ele><time>2026-04-19T07:14:51.1Z</time></trkpt><trkpt lat="44.812495" lon="8.0780133"><ele>221.0</ele><time>2026-04-19T07:14:52.093Z</time></trkpt><trkpt lat="44.8125917" lon="8.0780283"><ele>221.0</ele><time>2026-04-19T07:14:53.1Z</time></trkpt><trkpt lat="44.8126933" lon="8.07804"><ele>221.0</ele><time>2026-04-19T07:14:54.1Z</time></trkpt><trkpt lat="44.8127983" lon="8.078055"><ele>221.0</ele><time>2026-04-19T07:14:55.091Z</time></trkpt><trkpt lat="44.812915" lon="8.078075"><ele>221.0</ele><time>2026-04-19T07:14:56.1Z</time></trkpt><trkpt lat="44.81304" lon="8.0781033"><ele>221.0</ele><time>2026-04-19T07:14:57.103Z</time></trkpt><trkpt lat="44.8131733" lon="8.0781333"><ele>221.0</ele><time>2026-04-19T07:14:58.097Z</time></trkpt><trkpt lat="44.8133133" lon="8.07816"><ele>221.0</ele><time>2026-04-19T07:14:59.102Z</time></trkpt><trkpt lat="44.8134583" lon="8.0781817"><ele>221.0</ele><time>2026-04-19T07:15:00.096Z</time></trkpt><trkpt lat="44.8136033" lon="8.0782"><ele>220.75</ele><time>2026-04-19T07:15:01.098Z</time></trkpt><trkpt lat="44.81375" lon="8.0782217"><ele>220.5</ele><time>2026-04-19T07:15:02.094Z</time></trkpt><trkpt lat="44.8138983" lon="8.0782483"><ele>220.25</ele><time>2026-04-19T07:15:03.1Z</time></trkpt><trkpt lat="44.81404" lon="8.0782883"><ele>220.0</ele><time>2026-04-19T07:15:04.099Z</time></trkpt><trkpt lat="44.8141767" lon="8.078345"><ele>223.0</ele><time>2026-04-19T07:15:05.106Z</time></trkpt><trkpt lat="44.814305" lon="8.0784167"><ele>226.0</ele><time>2026-04-19T07:15:06.103Z</time></trkpt><trkpt lat="44.8144217" lon="8.0785033"><ele>229.0</ele><time>2026-04-19T07:15:07.096Z</time></trkpt><trkpt lat="44.814525" lon="8.0786"><ele>232.0</ele><time>2026-04-19T07:15:08.096Z</time></trkpt><trkpt lat="44.8146167" lon="8.0786967"><ele>233.2</ele><time>2026-04-19T07:15:09.098Z</time></trkpt><trkpt lat="44.8147017" lon="8.07879"><ele>234.39999999999998</ele><time>2026-04-19T07:15:10.102Z</time></trkpt><trkpt lat="44.8147883" lon="8.0788817"><ele>235.60000000000002</ele><time>2026-04-19T07:15:11.109Z</time></trkpt><trkpt lat="44.814875" lon="8.0789733"><ele>236.8</ele><time>2026-04-19T07:15:12.095Z</time></trkpt><trkpt lat="44.8149667" lon="8.0790617"><ele>238.0</ele><time>2026-04-19T07:15:13.088Z</time></trkpt><trkpt lat="44.81506" lon="8.079145"><ele>235.75</ele><time>2026-04-19T07:15:14.098Z</time></trkpt><trkpt lat="44.8151617" lon="8.07922"><ele>233.5</ele><time>2026-04-19T07:15:15.1Z</time></trkpt><trkpt lat="44.815265" lon="8.0792817"><ele>231.25</ele><time>2026-04-19T07:15:16.099Z</time></trkpt><trkpt lat="44.81537" lon="8.0793417"><ele>229.0</ele><time>2026-04-19T07:15:17.111Z</time></trkpt><trkpt lat="44.81548" lon="8.0793967"><ele>229.0</ele><time>2026-04-19T07:15:18.101Z</time></trkpt><trkpt lat="44.8155917" lon="8.07946"><ele>229.0</ele><time>2026-04-19T07:15:19.106Z</time></trkpt><trkpt lat="44.815695" lon="8.0795433"><ele>229.0</ele><time>2026-04-19T07:15:20.093Z</time></trkpt><trkpt lat="44.8157833" lon="8.0796483"><ele>229.0</ele><time>2026-04-19T07:15:21.096Z</time></trkpt><trkpt lat="44.81586" lon="8.0797767"><ele>229.0</ele><time>2026-04-19T07:15:22.103Z</time></trkpt><trkpt lat="44.8159367" lon="8.079915"><ele>229.0</ele><time>2026-04-19T07:15:23.108Z</time></trkpt><trkpt lat="44.8160117" lon="8.0800567"><ele>229.0</ele><time>2026-04-19T07:15:24.094Z</time></trkpt><trkpt lat="44.8160917" lon="8.0801933"><ele>229.0</ele><time>2026-04-19T07:15:25.103Z</time></trkpt><trkpt lat="44.8161833" lon="8.08032"><ele>227.5</ele><time>2026-04-19T07:15:26.104Z</time></trkpt><trkpt lat="44.8162833" lon="8.0804283"><ele>226.0</ele><time>2026-04-19T07:15:27.103Z</time></trkpt><trkpt lat="44.81639" lon="8.0805117"><ele>224.5</ele><time>2026-04-19T07:15:28.095Z</time></trkpt><trkpt lat="44.8165" lon="8.0805717"><ele>223.0</ele><time>2026-04-19T07:15:29.101Z</time></trkpt><trkpt lat="44.8166083" lon="8.0806067"><ele>222.99999999999997</ele><time>2026-04-19T07:15:30.099Z</time></trkpt><trkpt lat="44.8167017" lon="8.08062"><ele>223.0</ele><time>2026-04-19T07:15:31.102Z</time></trkpt><trkpt lat="44.8167917" lon="8.080625"><ele>223.0</ele><time>2026-04-19T07:15:32.092Z</time></trkpt><trkpt lat="44.8168783" lon="8.0806283"><ele>223.0</ele><time>2026-04-19T07:15:33.102Z</time></trkpt><trkpt lat="44.8169683" lon="8.0806417"><ele>222.99999999999997</ele><time>2026-04-19T07:15:34.095Z</time></trkpt><trkpt lat="44.817055" lon="8.0806533"><ele>223.0</ele><time>2026-04-19T07:15:35.092Z</time></trkpt><trkpt lat="44.8171383" lon="8.0806617"><ele>223.49999999999997</ele><time>2026-04-19T07:15:36.099Z</time></trkpt><trkpt lat="44.817215" lon="8.0806583"><ele>224.0</ele><time>2026-04-19T07:15:37.097Z</time></trkpt><trkpt lat="44.8172883" lon="8.080655"><ele>224.5</ele><time>2026-04-19T07:15:38.101Z</time></trkpt><trkpt lat="44.8173683" lon="8.08067"><ele>225.0</ele><time>2026-04-19T07:15:39.106Z</time></trkpt><trkpt lat="44.81745" lon="8.0807217"><ele>225.49999999999997</ele><time>2026-04-19T07:15:40.094Z</time></trkpt><trkpt lat="44.8175483" lon="8.0807683"><ele>226.0</ele><time>2026-04-19T07:15:41.106Z</time></trkpt><trkpt lat="44.817655" lon="8.0807983"><ele>224.5</ele><time>2026-04-19T07:15:42.1Z</time></trkpt><trkpt lat="44.81777" lon="8.0808083"><ele>223.0</ele><time>2026-04-19T07:15:43.096Z</time></trkpt><trkpt lat="44.8178967" lon="8.0808033"><ele>221.5</ele><time>2026-04-19T07:15:44.093Z</time></trkpt><trkpt lat="44.8180267" lon="8.08078"><ele>220.0</ele><time>2026-04-19T07:15:45.093Z</time></trkpt><trkpt lat="44.8181533" lon="8.0807383"><ele>220.0</ele><time>2026-04-19T07:15:46.098Z</time></trkpt><trkpt lat="44.8182717" lon="8.0806867"><ele>220.0</ele><time>2026-04-19T07:15:47.109Z</time></trkpt><trkpt lat="44.81838" lon="8.0806233"><ele>220.0</ele><time>2026-04-19T07:15:48.095Z</time></trkpt><trkpt lat="44.818475" lon="8.08055"><ele>220.0</ele><time>2026-04-19T07:15:49.098Z</time></trkpt><trkpt lat="44.8185667" lon="8.0804583"><ele>222.8</ele><time>2026-04-19T07:15:50.101Z</time></trkpt><trkpt lat="44.8186517" lon="8.0803567"><ele>225.6</ele><time>2026-04-19T07:15:51.099Z</time></trkpt><trkpt lat="44.8187383" lon="8.0802517"><ele>228.39999999999998</ele><time>2026-04-19T07:15:52.101Z</time></trkpt><trkpt lat="44.8188233" lon="8.08015"><ele>231.2</ele><time>2026-04-19T07:15:53.104Z</time></trkpt><trkpt lat="44.8189117" lon="8.080055"><ele>234.0</ele><time>2026-04-19T07:15:54.101Z</time></trkpt><trkpt lat="44.8190083" lon="8.0799633"><ele>233.39999999999998</ele><time>2026-04-19T07:15:55.098Z</time></trkpt><trkpt lat="44.8191033" lon="8.0798783"><ele>232.79999999999998</ele><time>2026-04-19T07:15:56.103Z</time></trkpt><trkpt lat="44.8191933" lon="8.0798017"><ele>232.20000000000002</ele><time>2026-04-19T07:15:57.098Z</time></trkpt><trkpt lat="44.8192733" lon="8.0797367"><ele>231.60000000000002</ele><time>2026-04-19T07:15:58.099Z</time></trkpt><trkpt lat="44.8193467" lon="8.0796967"><ele>231.0</ele><time>2026-04-19T07:15:59.163Z</time></trkpt><trkpt lat="44.8194233" lon="8.079695"><ele>231.0</ele><time>2026-04-19T07:16:00.095Z</time></trkpt><trkpt lat="44.8195067" lon="8.0797083"><ele>231.00000000000003</ele><time>2026-04-19T07:16:01.099Z</time></trkpt><trkpt lat="44.8195983" lon="8.07972"><ele>231.00000000000003</ele><time>2026-04-19T07:16:02.1Z</time></trkpt><trkpt lat="44.8196867" lon="8.0796983"><ele>231.0</ele><time>2026-04-19T07:16:03.099Z</time></trkpt><trkpt lat="44.819775" lon="8.0796467"><ele>231.0</ele><time>2026-04-19T07:16:04.096Z</time></trkpt><trkpt lat="44.81986" lon="8.0795783"><ele>231.0</ele><time>2026-04-19T07:16:05.092Z</time></trkpt><trkpt lat="44.81994" lon="8.0795017"><ele>231.00000000000003</ele><time>2026-04-19T07:16:06.097Z</time></trkpt><trkpt lat="44.820015" lon="8.0794283"><ele>231.00000000000003</ele><time>2026-04-19T07:16:07.09Z</time></trkpt><trkpt lat="44.8200917" lon="8.0793617"><ele>231.0</ele><time>2026-04-19T07:16:08.101Z</time></trkpt><trkpt lat="44.8201733" lon="8.0793067"><ele>231.0</ele><time>2026-04-19T07:16:09.094Z</time></trkpt><trkpt lat="44.820265" lon="8.0792617"><ele>229.8</ele><time>2026-04-19T07:16:10.096Z</time></trkpt><trkpt lat="44.8203683" lon="8.0792283"><ele>228.60000000000002</ele><time>2026-04-19T07:16:11.104Z</time></trkpt><trkpt lat="44.8204767" lon="8.07921"><ele>227.4</ele><time>2026-04-19T07:16:12.089Z</time></trkpt><trkpt lat="44.8205767" lon="8.0792133"><ele>226.2</ele><time>2026-04-19T07:16:13.099Z</time></trkpt><trkpt lat="44.820675" lon="8.0792383"><ele>225.0</ele><time>2026-04-19T07:16:14.096Z</time></trkpt><trkpt lat="44.8207767" lon="8.079275"><ele>225.0</ele><time>2026-04-19T07:16:15.09Z</time></trkpt><trkpt lat="44.8208833" lon="8.0793083"><ele>225.0</ele><time>2026-04-19T07:16:16.097Z</time></trkpt><trkpt lat="44.8209917" lon="8.0793383"><ele>225.0</ele><time>2026-04-19T07:16:17.108Z</time></trkpt><trkpt lat="44.8211067" lon="8.0793633"><ele>225.0</ele><time>2026-04-19T07:16:18.093Z</time></trkpt><trkpt lat="44.82123" lon="8.079385"><ele>224.25</ele><time>2026-04-19T07:16:19.103Z</time></trkpt><trkpt lat="44.8213517" lon="8.079395"><ele>223.5</ele><time>2026-04-19T07:16:20.09Z</time></trkpt><trkpt lat="44.821475" lon="8.0793967"><ele>222.75</ele><time>2026-04-19T07:16:21.098Z</time></trkpt><trkpt lat="44.8215967" lon="8.0793883"><ele>222.0</ele><time>2026-04-19T07:16:22.098Z</time></trkpt><trkpt lat="44.8217217" lon="8.079375"><ele>222.25</ele><time>2026-04-19T07:16:23.107Z</time></trkpt><trkpt lat="44.8218467" lon="8.0793567"><ele>222.5</ele><time>2026-04-19T07:16:24.095Z</time></trkpt><trkpt lat="44.8219667" lon="8.0793217"><ele>222.75</ele><time>2026-04-19T07:16:25.101Z</time></trkpt><trkpt lat="44.8220817" lon="8.0792683"><ele>223.0</ele><time>2026-04-19T07:16:26.1Z</time></trkpt><trkpt lat="44.822195" lon="8.0792033"><ele>223.0</ele><time>2026-04-19T07:16:27.106Z</time></trkpt><trkpt lat="44.822315" lon="8.079135"><ele>223.0</ele><time>2026-04-19T07:16:28.107Z</time></trkpt><trkpt lat="44.8224333" lon="8.0790717"><ele>223.0</ele><time>2026-04-19T07:16:29.097Z</time></trkpt><trkpt lat="44.8225467" lon="8.0790117"><ele>223.0</ele><time>2026-04-19T07:16:30.104Z</time></trkpt><trkpt lat="44.82266" lon="8.078955"><ele>223.0</ele><time>2026-04-19T07:16:31.093Z</time></trkpt><trkpt lat="44.822775" lon="8.0789017"><ele>223.0</ele><time>2026-04-19T07:16:32.098Z</time></trkpt><trkpt lat="44.8228833" lon="8.0788583"><ele>223.0</ele><time>2026-04-19T07:16:33.103Z</time></trkpt><trkpt lat="44.8229933" lon="8.07882"><ele>223.0</ele><time>2026-04-19T07:16:34.102Z</time></trkpt><trkpt lat="44.8231033" lon="8.0787883"><ele>223.0</ele><time>2026-04-19T07:16:35.104Z</time></trkpt><trkpt lat="44.82321" lon="8.0787633"><ele>223.0</ele><time>2026-04-19T07:16:36.097Z</time></trkpt><trkpt lat="44.8233133" lon="8.0787367"><ele>223.0</ele><time>2026-04-19T07:16:37.097Z</time></trkpt><trkpt lat="44.82341" lon="8.0787083"><ele>223.0</ele><time>2026-04-19T07:16:38.093Z</time></trkpt><trkpt lat="44.8235017" lon="8.0786783"><ele>223.0</ele><time>2026-04-19T07:16:39.092Z</time></trkpt><trkpt lat="44.8235833" lon="8.078645"><ele>222.28571428571428</ele><time>2026-04-19T07:16:40.094Z</time></trkpt><trkpt lat="44.82365" lon="8.0786117"><ele>221.57142857142856</ele><time>2026-04-19T07:16:41.107Z</time></trkpt><trkpt lat="44.8237083" lon="8.0785683"><ele>220.85714285714286</ele><time>2026-04-19T07:16:42.097Z</time></trkpt><trkpt lat="44.8237633" lon="8.07851"><ele>220.14285714285714</ele><time>2026-04-19T07:16:43.103Z</time></trkpt><trkpt lat="44.8238117" lon="8.07844"><ele>219.42857142857144</ele><time>2026-04-19T07:16:44.103Z</time></trkpt><trkpt lat="44.8238517" lon="8.0783483"><ele>218.71428571428572</ele><time>2026-04-19T07:16:45.102Z</time></trkpt><trkpt lat="44.82388" lon="8.0782333"><ele>218.0</ele><time>2026-04-19T07:16:46.093Z</time></trkpt><trkpt lat="44.8238967" lon="8.0781"><ele>217.00000000000003</ele><time>2026-04-19T07:16:47.111Z</time></trkpt><trkpt lat="44.8239117" lon="8.0779617"><ele>216.0</ele><time>2026-04-19T07:16:48.102Z</time></trkpt><trkpt lat="44.8239217" lon="8.07783"><ele>215.0</ele><time>2026-04-19T07:16:49.095Z</time></trkpt><trkpt lat="44.8239333" lon="8.0777217"><ele>214.0</ele><time>2026-04-19T07:16:50.099Z</time></trkpt><trkpt lat="44.8239517" lon="8.077635"><ele>213.00000000000003</ele><time>2026-04-19T07:16:51.101Z</time></trkpt><trkpt lat="44.8240583" lon="8.0776283"><ele>212.0</ele><time>2026-04-19T07:16:53.114Z</time></trkpt><trkpt lat="44.82415" lon="8.0776867"><ele>212.0</ele><time>2026-04-19T07:16:54.098Z</time></trkpt><trkpt lat="44.8242667" lon="8.07776"><ele>212.0</ele><time>2026-04-19T07:16:55.098Z</time></trkpt><trkpt lat="44.8243967" lon="8.0778167"><ele>212.0</ele><time>2026-04-19T07:16:56.099Z</time></trkpt><trkpt lat="44.8245117" lon="8.0778617"><ele>212.0</ele><time>2026-04-19T07:16:57.093Z</time></trkpt><trkpt lat="44.82462" lon="8.0778933"><ele>209.39999999999998</ele><time>2026-04-19T07:16:58.104Z</time></trkpt><trkpt lat="44.8247233" lon="8.0779117"><ele>206.79999999999998</ele><time>2026-04-19T07:16:59.166Z</time></trkpt><trkpt lat="44.824815" lon="8.0779083"><ele>204.2</ele><time>2026-04-19T07:17:00.093Z</time></trkpt><trkpt lat="44.8248983" lon="8.0778767"><ele>201.6</ele><time>2026-04-19T07:17:01.098Z</time></trkpt><trkpt lat="44.8249833" lon="8.07782"><ele>199.0</ele><time>2026-04-19T07:17:02.101Z</time></trkpt><trkpt lat="44.8250717" lon="8.0777367"><ele>195.75</ele><time>2026-04-19T07:17:03.096Z</time></trkpt><trkpt lat="44.8251633" lon="8.0776383"><ele>192.5</ele><time>2026-04-19T07:17:04.098Z</time></trkpt><trkpt lat="44.8252567" lon="8.0775383"><ele>189.25</ele><time>2026-04-19T07:17:05.097Z</time></trkpt><trkpt lat="44.8253483" lon="8.077435"><ele>186.0</ele><time>2026-04-19T07:17:06.098Z</time></trkpt><trkpt lat="44.8254433" lon="8.0773333"><ele>185.0</ele><time>2026-04-19T07:17:07.099Z</time></trkpt><trkpt lat="44.82554" lon="8.0772517"><ele>184.0</ele><time>2026-04-19T07:17:08.093Z</time></trkpt><trkpt lat="44.8256383" lon="8.0771883"><ele>183.0</ele><time>2026-04-19T07:17:09.098Z</time></trkpt><trkpt lat="44.8257367" lon="8.0771417"><ele>182.0</ele><time>2026-04-19T07:17:10.1Z</time></trkpt><trkpt lat="44.825835" lon="8.07711"><ele>181.0</ele><time>2026-04-19T07:17:11.117Z</time></trkpt><trkpt lat="44.825935" lon="8.07709"><ele>178.60000000000002</ele><time>2026-04-19T07:17:12.097Z</time></trkpt><trkpt lat="44.8260367" lon="8.0770783"><ele>176.2</ele><time>2026-04-19T07:17:13.097Z</time></trkpt><trkpt lat="44.826145" lon="8.0770667"><ele>173.8</ele><time>2026-04-19T07:17:14.101Z</time></trkpt><trkpt lat="44.8262517" lon="8.0770533"><ele>171.39999999999998</ele><time>2026-04-19T07:17:15.101Z</time></trkpt><trkpt lat="44.8263583" lon="8.0770383"><ele>169.0</ele><time>2026-04-19T07:17:16.097Z</time></trkpt><trkpt lat="44.82646" lon="8.0770217"><ele>169.0</ele><time>2026-04-19T07:17:17.116Z</time></trkpt><trkpt lat="44.82656" lon="8.0769983"><ele>169.0</ele><time>2026-04-19T07:17:18.091Z</time></trkpt><trkpt lat="44.8266517" lon="8.0769783"><ele>169.0</ele><time>2026-04-19T07:17:19.101Z</time></trkpt><trkpt lat="44.8267433" lon="8.076965"><ele>169.0</ele><time>2026-04-19T07:17:20.1Z</time></trkpt><trkpt lat="44.82683" lon="8.076965"><ele>169.0</ele><time>2026-04-19T07:17:21.105Z</time></trkpt><trkpt lat="44.826915" lon="8.076975"><ele>168.33333333333334</ele><time>2026-04-19T07:17:22.094Z</time></trkpt><trkpt lat="44.8269917" lon="8.0769883"><ele>167.66666666666669</ele><time>2026-04-19T07:17:23.109Z</time></trkpt><trkpt lat="44.82707" lon="8.076995"><ele>167.0</ele><time>2026-04-19T07:17:24.095Z</time></trkpt><trkpt lat="44.8271533" lon="8.0769867"><ele>166.33333333333334</ele><time>2026-04-19T07:17:25.097Z</time></trkpt><trkpt lat="44.8272433" lon="8.07696"><ele>165.66666666666666</ele><time>2026-04-19T07:17:26.098Z</time></trkpt><trkpt lat="44.8273367" lon="8.0769333"><ele>165.0</ele><time>2026-04-19T07:17:27.1Z</time></trkpt><trkpt lat="44.8274233" lon="8.0769183"><ele>165.0</ele><time>2026-04-19T07:17:28.097Z</time></trkpt><trkpt lat="44.8275017" lon="8.0769133"><ele>165.0</ele><time>2026-04-19T07:17:29.096Z</time></trkpt><trkpt lat="44.8275717" lon="8.076915"><ele>165.0</ele><time>2026-04-19T07:17:30.096Z</time></trkpt><trkpt lat="44.8276717" lon="8.076915"><ele>165.0</ele><time>2026-04-19T07:17:32.098Z</time></trkpt><trkpt lat="44.8277267" lon="8.0769833"><ele>165.0</ele><time>2026-04-19T07:17:35.098Z</time></trkpt><trkpt lat="44.82776" lon="8.0770683"><ele>165.0</ele><time>2026-04-19T07:17:38.107Z</time></trkpt><trkpt lat="44.8278" lon="8.0771417"><ele>164.5</ele><time>2026-04-19T07:17:41.12Z</time></trkpt><trkpt lat="44.8278467" lon="8.0772883"><ele>164.0</ele><time>2026-04-19T07:17:43.101Z</time></trkpt><trkpt lat="44.827885" lon="8.07738"><ele>163.5</ele><time>2026-04-19T07:17:44.102Z</time></trkpt><trkpt lat="44.8279367" lon="8.0774783"><ele>163.0</ele><time>2026-04-19T07:17:46.095Z</time></trkpt><trkpt lat="44.828005" lon="8.077465"><ele>162.5</ele><time>2026-04-19T07:17:54.09Z</time></trkpt><trkpt lat="44.828055" lon="8.0774"><ele>162.0</ele><time>2026-04-19T07:17:55.091Z</time></trkpt><trkpt lat="44.8281283" lon="8.0773067"><ele>160.75</ele><time>2026-04-19T07:17:56.089Z</time></trkpt><trkpt lat="44.8282167" lon="8.0771967"><ele>159.5</ele><time>2026-04-19T07:17:57.09Z</time></trkpt><trkpt lat="44.8283267" lon="8.0770883"><ele>158.25</ele><time>2026-04-19T07:17:58.095Z</time></trkpt><trkpt lat="44.82845" lon="8.0769917"><ele>157.0</ele><time>2026-04-19T07:17:59.093Z</time></trkpt><trkpt lat="44.8285817" lon="8.0769017"><ele>156.0</ele><time>2026-04-19T07:18:00.105Z</time></trkpt><trkpt lat="44.8287233" lon="8.0768117"><ele>155.0</ele><time>2026-04-19T07:18:01.1Z</time></trkpt><trkpt lat="44.8288683" lon="8.0767217"><ele>154.0</ele><time>2026-04-19T07:18:02.097Z</time></trkpt><trkpt lat="44.8290133" lon="8.0766333"><ele>153.66666666666669</ele><time>2026-04-19T07:18:03.102Z</time></trkpt><trkpt lat="44.8291583" lon="8.076545"><ele>153.33333333333334</ele><time>2026-04-19T07:18:04.099Z</time></trkpt><trkpt lat="44.829305" lon="8.0764567"><ele>153.0</ele><time>2026-04-19T07:18:05.099Z</time></trkpt><trkpt lat="44.829455" lon="8.0763683"><ele>152.66666666666666</ele><time>2026-04-19T07:18:06.104Z</time></trkpt><trkpt lat="44.8296033" lon="8.07628"><ele>152.33333333333331</ele><time>2026-04-19T07:18:07.1Z</time></trkpt><trkpt lat="44.8297517" lon="8.0761917"><ele>152.0</ele><time>2026-04-19T07:18:08.095Z</time></trkpt><trkpt lat="44.8298983" lon="8.0761033"><ele>152.0</ele><time>2026-04-19T07:18:09.098Z</time></trkpt><trkpt lat="44.8300433" lon="8.0760167"><ele>152.0</ele><time>2026-04-19T07:18:10.093Z</time></trkpt><trkpt lat="44.8301833" lon="8.0759333"><ele>152.0</ele><time>2026-04-19T07:18:11.117Z</time></trkpt><trkpt lat="44.8303217" lon="8.07585"><ele>152.25</ele><time>2026-04-19T07:18:12.097Z</time></trkpt><trkpt lat="44.830455" lon="8.07577"><ele>152.5</ele><time>2026-04-19T07:18:13.094Z</time></trkpt><trkpt lat="44.830585" lon="8.075695"><ele>152.75</ele><time>2026-04-19T07:18:14.097Z</time></trkpt><trkpt lat="44.83071" lon="8.0756233"><ele>153.0</ele><time>2026-04-19T07:18:15.101Z</time></trkpt><trkpt lat="44.83083" lon="8.0755533"><ele>153.0</ele><time>2026-04-19T07:18:16.099Z</time></trkpt><trkpt lat="44.8309433" lon="8.0754867"><ele>153.0</ele><time>2026-04-19T07:18:17.132Z</time></trkpt><trkpt lat="44.831055" lon="8.0754217"><ele>153.0</ele><time>2026-04-19T07:18:18.093Z</time></trkpt><trkpt lat="44.8311617" lon="8.0753583"><ele>153.0</ele><time>2026-04-19T07:18:19.091Z</time></trkpt><trkpt lat="44.83126" lon="8.0753017"><ele>153.0</ele><time>2026-04-19T07:18:20.099Z</time></trkpt><trkpt lat="44.83135" lon="8.0752467"><ele>153.0</ele><time>2026-04-19T07:18:21.1Z</time></trkpt><trkpt lat="44.8314383" lon="8.0751933"><ele>153.0</ele><time>2026-04-19T07:18:22.099Z</time></trkpt><trkpt lat="44.8315217" lon="8.0751433"><ele>153.0</ele><time>2026-04-19T07:18:23.122Z</time></trkpt><trkpt lat="44.8315967" lon="8.0751017"><ele>153.0</ele><time>2026-04-19T07:18:24.088Z</time></trkpt><trkpt lat="44.831665" lon="8.0750633"><ele>153.0</ele><time>2026-04-19T07:18:25.092Z</time></trkpt><trkpt lat="44.8317267" lon="8.0750317"><ele>153.0</ele><time>2026-04-19T07:18:26.1Z</time></trkpt><trkpt lat="44.8318067" lon="8.0749867"><ele>153.0</ele><time>2026-04-19T07:18:28.1Z</time></trkpt><trkpt lat="44.8317483" lon="8.0751067"><ele>153.0</ele><time>2026-04-19T07:18:32.093Z</time></trkpt><trkpt lat="44.8316967" lon="8.0751783"><ele>153.0</ele><time>2026-04-19T07:18:33.104Z</time></trkpt><trkpt lat="44.8316567" lon="8.07527"><ele>153.0</ele><time>2026-04-19T07:18:34.101Z</time></trkpt><trkpt lat="44.8316317" lon="8.0753767"><ele>153.0</ele><time>2026-04-19T07:18:35.096Z</time></trkpt><trkpt lat="44.8316333" lon="8.07549"><ele>153.0</ele><time>2026-04-19T07:18:36.093Z</time></trkpt><trkpt lat="44.8316533" lon="8.075595"><ele>153.0</ele><time>2026-04-19T07:18:37.093Z</time></trkpt><trkpt lat="44.83173" lon="8.07569"><ele>153.0</ele><time>2026-04-19T07:18:38.093Z</time></trkpt><trkpt lat="44.8318433" lon="8.07578"><ele>153.0</ele><time>2026-04-19T07:18:39.095Z</time></trkpt><trkpt lat="44.8319717" lon="8.0758817"><ele>153.66666666666666</ele><time>2026-04-19T07:18:40.094Z</time></trkpt><trkpt lat="44.8321183" lon="8.0760083"><ele>154.33333333333331</ele><time>2026-04-19T07:18:41.135Z</time></trkpt><trkpt lat="44.832275" lon="8.0761433"><ele>155.0</ele><time>2026-04-19T07:18:42.098Z</time></trkpt><trkpt lat="44.8324283" lon="8.0762717"><ele>155.0</ele><time>2026-04-19T07:18:43.101Z</time></trkpt><trkpt lat="44.8325667" lon="8.0763933"><ele>155.0</ele><time>2026-04-19T07:18:44.1Z</time></trkpt><trkpt lat="44.8326767" lon="8.0765133"><ele>155.0</ele><time>2026-04-19T07:18:45.091Z</time></trkpt><trkpt lat="44.8327817" lon="8.0766233"><ele>155.0</ele><time>2026-04-19T07:18:46.099Z</time></trkpt><trkpt lat="44.832895" lon="8.07671"><ele>154.25</ele><time>2026-04-19T07:18:47.133Z</time></trkpt><trkpt lat="44.8330133" lon="8.0767867"><ele>153.5</ele><time>2026-04-19T07:18:48.094Z</time></trkpt><trkpt lat="44.8331483" lon="8.0768667"><ele>152.75</ele><time>2026-04-19T07:18:49.103Z</time></trkpt><trkpt lat="44.8332717" lon="8.0769367"><ele>152.0</ele><time>2026-04-19T07:18:50.093Z</time></trkpt><trkpt lat="44.8333717" lon="8.0769967"><ele>152.0</ele><time>2026-04-19T07:18:51.095Z</time></trkpt><trkpt lat="44.8334667" lon="8.0770433"><ele>152.0</ele><time>2026-04-19T07:18:52.092Z</time></trkpt><trkpt lat="44.833565" lon="8.0770733"><ele>152.0</ele><time>2026-04-19T07:18:53.134Z</time></trkpt><trkpt lat="44.8336567" lon="8.07709"><ele>152.0</ele><time>2026-04-19T07:18:54.101Z</time></trkpt><trkpt lat="44.83374" lon="8.0771"><ele>152.0</ele><time>2026-04-19T07:18:55.096Z</time></trkpt><trkpt lat="44.8338433" lon="8.0770933"><ele>151.66666666666666</ele><time>2026-04-19T07:18:57.095Z</time></trkpt><trkpt lat="44.83392" lon="8.0770833"><ele>151.33333333333331</ele><time>2026-04-19T07:19:14.092Z</time></trkpt><trkpt lat="44.8340117" lon="8.0770767"><ele>151.0</ele><time>2026-04-19T07:19:35.099Z</time></trkpt><trkpt lat="44.8340767" lon="8.0771133"><ele>150.66666666666666</ele><time>2026-04-19T07:19:39.092Z</time></trkpt><trkpt lat="44.8341383" lon="8.077145"><ele>150.33333333333334</ele><time>2026-04-19T07:19:42.099Z</time></trkpt><trkpt lat="44.834225" lon="8.0771683"><ele>150.0</ele><time>2026-04-19T07:19:45.094Z</time></trkpt><trkpt lat="44.8342833" lon="8.0771283"><ele>150.33333333333334</ele><time>2026-04-19T07:19:49.098Z</time></trkpt><trkpt lat="44.83434" lon="8.077065"><ele>150.66666666666666</ele><time>2026-04-19T07:20:04.099Z</time></trkpt><trkpt lat="44.8343967" lon="8.0769967"><ele>151.0</ele><time>2026-04-19T07:20:05.1Z</time></trkpt><trkpt lat="44.83447" lon="8.07692"><ele>151.33333333333331</ele><time>2026-04-19T07:20:06.099Z</time></trkpt><trkpt lat="44.8345433" lon="8.07685"><ele>151.66666666666666</ele><time>2026-04-19T07:20:07.103Z</time></trkpt><trkpt lat="44.8346217" lon="8.0767817"><ele>152.0</ele><time>2026-04-19T07:20:08.099Z</time></trkpt><trkpt lat="44.8347017" lon="8.0767283"><ele>152.0</ele><time>2026-04-19T07:20:09.1Z</time></trkpt><trkpt lat="44.8347767" lon="8.0766817"><ele>152.0</ele><time>2026-04-19T07:20:10.096Z</time></trkpt><trkpt lat="44.8348517" lon="8.0766467"><ele>152.0</ele><time>2026-04-19T07:20:11.147Z</time></trkpt><trkpt lat="44.8349333" lon="8.0766233"><ele>152.0</ele><time>2026-04-19T07:20:12.095Z</time></trkpt><trkpt lat="44.8350217" lon="8.0766067"><ele>152.0</ele><time>2026-04-19T07:20:13.091Z</time></trkpt><trkpt lat="44.8351133" lon="8.0765917"><ele>152.0</ele><time>2026-04-19T07:20:14.098Z</time></trkpt><trkpt lat="44.835205" lon="8.076575"><ele>151.83333333333331</ele><time>2026-04-19T07:20:15.098Z</time></trkpt><trkpt lat="44.8352933" lon="8.0765617"><ele>151.66666666666666</ele><time>2026-04-19T07:20:16.099Z</time></trkpt><trkpt lat="44.8353783" lon="8.07655"><ele>151.5</ele><time>2026-04-19T07:20:17.143Z</time></trkpt><trkpt lat="44.835455" lon="8.07654"><ele>151.33333333333334</ele><time>2026-04-19T07:20:18.1Z</time></trkpt><trkpt lat="44.835525" lon="8.0765383"><ele>151.16666666666669</ele><time>2026-04-19T07:20:19.096Z</time></trkpt><trkpt lat="44.8356433" lon="8.076555"><ele>151.0</ele><time>2026-04-19T07:20:21.099Z</time></trkpt><trkpt lat="44.8357067" lon="8.07656"><ele>151.0</ele><time>2026-04-19T07:20:22.098Z</time></trkpt><trkpt lat="44.83577" lon="8.0765517"><ele>151.0</ele><time>2026-04-19T07:20:23.137Z</time></trkpt><trkpt lat="44.8358467" lon="8.0765283"><ele>151.0</ele><time>2026-04-19T07:20:24.093Z</time></trkpt><trkpt lat="44.83594" lon="8.0764967"><ele>151.0</ele><time>2026-04-19T07:20:25.1Z</time></trkpt><trkpt lat="44.8360367" lon="8.0764717"><ele>151.0</ele><time>2026-04-19T07:20:26.1Z</time></trkpt><trkpt lat="44.8361217" lon="8.076465"><ele>151.0</ele><time>2026-04-19T07:20:27.105Z</time></trkpt><trkpt lat="44.836205" lon="8.0764833"><ele>150.8</ele><time>2026-04-19T07:20:28.1Z</time></trkpt><trkpt lat="44.836295" lon="8.0765183"><ele>150.6</ele><time>2026-04-19T07:20:29.1Z</time></trkpt><trkpt lat="44.836395" lon="8.0765617"><ele>150.4</ele><time>2026-04-19T07:20:30.1Z</time></trkpt><trkpt lat="44.8365017" lon="8.0766067"><ele>150.2</ele><time>2026-04-19T07:20:31.103Z</time></trkpt><trkpt lat="44.8366167" lon="8.0766467"><ele>150.0</ele><time>2026-04-19T07:20:32.105Z</time></trkpt><trkpt lat="44.8367367" lon="8.0766917"><ele>149.25</ele><time>2026-04-19T07:20:33.099Z</time></trkpt><trkpt lat="44.8368583" lon="8.0767483"><ele>148.5</ele><time>2026-04-19T07:20:34.103Z</time></trkpt><trkpt lat="44.8369783" lon="8.0768017"><ele>147.75</ele><time>2026-04-19T07:20:35.098Z</time></trkpt><trkpt lat="44.837095" lon="8.07685"><ele>147.0</ele><time>2026-04-19T07:20:36.095Z</time></trkpt><trkpt lat="44.83721" lon="8.0768917"><ele>147.0</ele><time>2026-04-19T07:20:37.107Z</time></trkpt><trkpt lat="44.83732" lon="8.0769233"><ele>147.0</ele><time>2026-04-19T07:20:38.101Z</time></trkpt><trkpt lat="44.8374367" lon="8.076945"><ele>147.0</ele><time>2026-04-19T07:20:39.1Z</time></trkpt><trkpt lat="44.837555" lon="8.0769583"><ele>147.0</ele><time>2026-04-19T07:20:40.096Z</time></trkpt><trkpt lat="44.8376767" lon="8.0769683"><ele>147.5</ele><time>2026-04-19T07:20:41.139Z</time></trkpt><trkpt lat="44.8378033" lon="8.07698"><ele>148.0</ele><time>2026-04-19T07:20:42.09Z</time></trkpt><trkpt lat="44.8379267" lon="8.077"><ele>148.5</ele><time>2026-04-19T07:20:43.101Z</time></trkpt><trkpt lat="44.838045" lon="8.0770283"><ele>149.0</ele><time>2026-04-19T07:20:44.1Z</time></trkpt><trkpt lat="44.8381633" lon="8.07707"><ele>149.0</ele><time>2026-04-19T07:20:45.098Z</time></trkpt><trkpt lat="44.838285" lon="8.0771267"><ele>149.0</ele><time>2026-04-19T07:20:46.098Z</time></trkpt><trkpt lat="44.8384083" lon="8.0771967"><ele>149.0</ele><time>2026-04-19T07:20:47.137Z</time></trkpt><trkpt lat="44.8385417" lon="8.077275"><ele>149.0</ele><time>2026-04-19T07:20:48.097Z</time></trkpt><trkpt lat="44.8386717" lon="8.07735"><ele>149.0</ele><time>2026-04-19T07:20:49.101Z</time></trkpt><trkpt lat="44.8388033" lon="8.0774167"><ele>149.0</ele><time>2026-04-19T07:20:50.1Z</time></trkpt><trkpt lat="44.8389383" lon="8.077475"><ele>149.0</ele><time>2026-04-19T07:20:51.101Z</time></trkpt><trkpt lat="44.8390683" lon="8.077535"><ele>149.0</ele><time>2026-04-19T07:20:52.105Z</time></trkpt><trkpt lat="44.8391983" lon="8.0776067"><ele>148.25</ele><time>2026-04-19T07:20:53.142Z</time></trkpt><trkpt lat="44.83933" lon="8.0776867"><ele>147.5</ele><time>2026-04-19T07:20:54.094Z</time></trkpt><trkpt lat="44.83946" lon="8.0777733"><ele>146.75</ele><time>2026-04-19T07:20:55.104Z</time></trkpt><trkpt lat="44.83959" lon="8.07787"><ele>146.0</ele><time>2026-04-19T07:20:56.094Z</time></trkpt><trkpt lat="44.8397183" lon="8.0779783"><ele>146.0</ele><time>2026-04-19T07:20:57.099Z</time></trkpt><trkpt lat="44.8398467" lon="8.07809"><ele>146.0</ele><time>2026-04-19T07:20:58.103Z</time></trkpt><trkpt lat="44.8399633" lon="8.0782033"><ele>146.0</ele><time>2026-04-19T07:20:59.098Z</time></trkpt><trkpt lat="44.8400667" lon="8.0783133"><ele>146.0</ele><time>2026-04-19T07:21:00.093Z</time></trkpt><trkpt lat="44.8401717" lon="8.07843"><ele>147.0</ele><time>2026-04-19T07:21:01.093Z</time></trkpt><trkpt lat="44.84028" lon="8.0785467"><ele>148.0</ele><time>2026-04-19T07:21:02.1Z</time></trkpt><trkpt lat="44.8403833" lon="8.07866"><ele>149.0</ele><time>2026-04-19T07:21:03.092Z</time></trkpt><trkpt lat="44.84048" lon="8.0787667"><ele>150.0</ele><time>2026-04-19T07:21:04.098Z</time></trkpt><trkpt lat="44.8405733" lon="8.0788567"><ele>150.0</ele><time>2026-04-19T07:21:05.105Z</time></trkpt><trkpt lat="44.84066" lon="8.07894"><ele>150.0</ele><time>2026-04-19T07:21:06.098Z</time></trkpt><trkpt lat="44.840735" lon="8.0790283"><ele>150.0</ele><time>2026-04-19T07:21:07.1Z</time></trkpt><trkpt lat="44.8407983" lon="8.079125"><ele>150.0</ele><time>2026-04-19T07:21:08.098Z</time></trkpt><trkpt lat="44.840855" lon="8.0792367"><ele>150.0</ele><time>2026-04-19T07:21:09.097Z</time></trkpt><trkpt lat="44.8409133" lon="8.0793467"><ele>151.0</ele><time>2026-04-19T07:21:10.097Z</time></trkpt><trkpt lat="44.8409817" lon="8.0794483"><ele>152.0</ele><time>2026-04-19T07:21:11.141Z</time></trkpt><trkpt lat="44.8410517" lon="8.0795383"><ele>153.0</ele><time>2026-04-19T07:21:12.096Z</time></trkpt><trkpt lat="44.8411183" lon="8.0796117"><ele>154.0</ele><time>2026-04-19T07:21:13.097Z</time></trkpt><trkpt lat="44.84118" lon="8.0796783"><ele>155.0</ele><time>2026-04-19T07:21:14.098Z</time></trkpt><trkpt lat="44.8412617" lon="8.0797783"><ele>155.0</ele><time>2026-04-19T07:21:16.097Z</time></trkpt><trkpt lat="44.8413233" lon="8.0799017"><ele>155.0</ele><time>2026-04-19T07:21:18.097Z</time></trkpt><trkpt lat="44.84138" lon="8.08006"><ele>155.0</ele><time>2026-04-19T07:21:20.097Z</time></trkpt><trkpt lat="44.841415" lon="8.08016"><ele>155.0</ele><time>2026-04-19T07:21:21.096Z</time></trkpt><trkpt lat="44.84146" lon="8.08028"><ele>155.0</ele><time>2026-04-19T07:21:22.102Z</time></trkpt><trkpt lat="44.8415183" lon="8.0804183"><ele>154.25</ele><time>2026-04-19T07:21:23.14Z</time></trkpt><trkpt lat="44.8415833" lon="8.0805617"><ele>153.5</ele><time>2026-04-19T07:21:24.094Z</time></trkpt><trkpt lat="44.84165" lon="8.0807083"><ele>152.75</ele><time>2026-04-19T07:21:25.094Z</time></trkpt><trkpt lat="44.8417133" lon="8.0808433"><ele>152.0</ele><time>2026-04-19T07:21:26.097Z</time></trkpt><trkpt lat="44.8417717" lon="8.08097"><ele>151.33333333333331</ele><time>2026-04-19T07:21:27.1Z</time></trkpt><trkpt lat="44.841825" lon="8.0810867"><ele>150.66666666666666</ele><time>2026-04-19T07:21:28.102Z</time></trkpt><trkpt lat="44.8418733" lon="8.081175"><ele>150.0</ele><time>2026-04-19T07:21:29.093Z</time></trkpt><trkpt lat="44.84191" lon="8.0812483"><ele>149.33333333333334</ele><time>2026-04-19T07:21:30.09Z</time></trkpt><trkpt lat="44.8419617" lon="8.08135"><ele>148.66666666666669</ele><time>2026-04-19T07:21:32.094Z</time></trkpt><trkpt lat="44.8419033" lon="8.0814417"><ele>148.0</ele><time>2026-04-19T07:21:36.098Z</time></trkpt><trkpt lat="44.8418083" lon="8.0814633"><ele>148.8</ele><time>2026-04-19T07:21:37.099Z</time></trkpt><trkpt lat="44.8417367" lon="8.0815217"><ele>149.60000000000002</ele><time>2026-04-19T07:21:38.101Z</time></trkpt><trkpt lat="44.8416617" lon="8.0816083"><ele>150.39999999999998</ele><time>2026-04-19T07:21:39.091Z</time></trkpt><trkpt lat="44.8416217" lon="8.081715"><ele>151.2</ele><time>2026-04-19T07:21:40.094Z</time></trkpt><trkpt lat="44.84163" lon="8.0818633"><ele>152.0</ele><time>2026-04-19T07:21:42.093Z</time></trkpt><trkpt lat="44.8417117" lon="8.081845"><ele>152.16666666666666</ele><time>2026-04-19T07:21:45.098Z</time></trkpt><trkpt lat="44.8417467" lon="8.0817633"><ele>152.33333333333331</ele><time>2026-04-19T07:21:46.095Z</time></trkpt><trkpt lat="44.8417967" lon="8.081675"><ele>152.5</ele><time>2026-04-19T07:21:47.138Z</time></trkpt><trkpt lat="44.8418583" lon="8.0815883"><ele>152.66666666666666</ele><time>2026-04-19T07:21:48.095Z</time></trkpt><trkpt lat="44.8419383" lon="8.0815067"><ele>152.83333333333334</ele><time>2026-04-19T07:21:49.095Z</time></trkpt><trkpt lat="44.8420233" lon="8.0814233"><ele>153.0</ele><time>2026-04-19T07:21:50.098Z</time></trkpt><trkpt lat="44.8421083" lon="8.0813367"><ele>152.0</ele><time>2026-04-19T07:21:51.103Z</time></trkpt><trkpt lat="44.8422017" lon="8.0812567"><ele>151.0</ele><time>2026-04-19T07:21:52.095Z</time></trkpt><trkpt lat="44.842295" lon="8.0811733"><ele>150.0</ele><time>2026-04-19T07:21:53.144Z</time></trkpt><trkpt lat="44.8423983" lon="8.0811017"><ele>149.0</ele><time>2026-04-19T07:21:54.087Z</time></trkpt><trkpt lat="44.8424967" lon="8.0810217"><ele>148.0</ele><time>2026-04-19T07:21:55.101Z</time></trkpt><trkpt lat="44.8425917" lon="8.080925"><ele>147.75</ele><time>2026-04-19T07:21:56.102Z</time></trkpt><trkpt lat="44.8426833" lon="8.08081"><ele>147.5</ele><time>2026-04-19T07:21:57.101Z</time></trkpt><trkpt lat="44.8427633" lon="8.080685"><ele>147.25</ele><time>2026-04-19T07:21:58.097Z</time></trkpt><trkpt lat="44.842835" lon="8.0805467"><ele>147.0</ele><time>2026-04-19T07:21:59.162Z</time></trkpt><trkpt lat="44.8428983" lon="8.0804"><ele>147.0</ele><time>2026-04-19T07:22:00.089Z</time></trkpt><trkpt lat="44.8429583" lon="8.08025"><ele>147.0</ele><time>2026-04-19T07:22:01.096Z</time></trkpt><trkpt lat="44.84302" lon="8.0800917"><ele>147.0</ele><time>2026-04-19T07:22:02.1Z</time></trkpt><trkpt lat="44.8430833" lon="8.079925"><ele>147.0</ele><time>2026-04-19T07:22:03.1Z</time></trkpt><trkpt lat="44.8431483" lon="8.0797467"><ele>148.0</ele><time>2026-04-19T07:22:04.103Z</time></trkpt><trkpt lat="44.8432133" lon="8.0795617"><ele>149.0</ele><time>2026-04-19T07:22:05.1Z</time></trkpt><trkpt lat="44.8432767" lon="8.079375"><ele>150.0</ele><time>2026-04-19T07:22:06.1Z</time></trkpt><trkpt lat="44.8433417" lon="8.0791817"><ele>151.0</ele><time>2026-04-19T07:22:07.099Z</time></trkpt><trkpt lat="44.8434033" lon="8.078995"><ele>151.5</ele><time>2026-04-19T07:22:08.1Z</time></trkpt><trkpt lat="44.8434633" lon="8.07881"><ele>152.0</ele><time>2026-04-19T07:22:09.09Z</time></trkpt><trkpt lat="44.843525" lon="8.0786267"><ele>152.5</ele><time>2026-04-19T07:22:10.133Z</time></trkpt><trkpt lat="44.843585" lon="8.0784467"><ele>153.0</ele><time>2026-04-19T07:22:11.13Z</time></trkpt><trkpt lat="44.8436367" lon="8.0782733"><ele>152.8</ele><time>2026-04-19T07:22:12.097Z</time></trkpt><trkpt lat="44.8436783" lon="8.0781167"><ele>152.60000000000002</ele><time>2026-04-19T07:22:13.093Z</time></trkpt><trkpt lat="44.8436867" lon="8.07798"><ele>152.39999999999998</ele><time>2026-04-19T07:22:14.093Z</time></trkpt><trkpt lat="44.843665" lon="8.0778383"><ele>152.2</ele><time>2026-04-19T07:22:15.096Z</time></trkpt><trkpt lat="44.8436383" lon="8.077695"><ele>152.0</ele><time>2026-04-19T07:22:16.099Z</time></trkpt><trkpt lat="44.843615" lon="8.0775667"><ele>152.0</ele><time>2026-04-19T07:22:17.141Z</time></trkpt><trkpt lat="44.8436267" lon="8.0774783"><ele>152.0</ele><time>2026-04-19T07:22:18.091Z</time></trkpt><trkpt lat="44.84372" lon="8.0773983"><ele>152.0</ele><time>2026-04-19T07:22:20.101Z</time></trkpt><trkpt lat="44.843795" lon="8.0774067"><ele>152.0</ele><time>2026-04-19T07:22:21.1Z</time></trkpt><trkpt lat="44.8438783" lon="8.0774317"><ele>152.0</ele><time>2026-04-19T07:22:22.096Z</time></trkpt><trkpt lat="44.8439633" lon="8.0774783"><ele>152.0</ele><time>2026-04-19T07:22:23.142Z</time></trkpt><trkpt lat="44.8440567" lon="8.077555"><ele>152.0</ele><time>2026-04-19T07:22:24.097Z</time></trkpt><trkpt lat="44.8441567" lon="8.0776617"><ele>152.0</ele><time>2026-04-19T07:22:25.096Z</time></trkpt><trkpt lat="44.8442583" lon="8.07778"><ele>152.0</ele><time>2026-04-19T07:22:26.098Z</time></trkpt><trkpt lat="44.8443617" lon="8.0779083"><ele>152.0</ele><time>2026-04-19T07:22:27.108Z</time></trkpt><trkpt lat="44.8444717" lon="8.0780417"><ele>151.5</ele><time>2026-04-19T07:22:28.105Z</time></trkpt><trkpt lat="44.84458" lon="8.0781783"><ele>151.0</ele><time>2026-04-19T07:22:29.166Z</time></trkpt><trkpt lat="44.8446883" lon="8.078315"><ele>150.5</ele><time>2026-04-19T07:22:30.099Z</time></trkpt><trkpt lat="44.8447983" lon="8.0784517"><ele>150.0</ele><time>2026-04-19T07:22:31.094Z</time></trkpt><trkpt lat="44.84491" lon="8.0785867"><ele>150.0</ele><time>2026-04-19T07:22:32.097Z</time></trkpt><trkpt lat="44.8450183" lon="8.0787183"><ele>150.0</ele><time>2026-04-19T07:22:33.096Z</time></trkpt><trkpt lat="44.84513" lon="8.07885"><ele>150.0</ele><time>2026-04-19T07:22:34.099Z</time></trkpt><trkpt lat="44.84524" lon="8.07898"><ele>150.0</ele><time>2026-04-19T07:22:35.162Z</time></trkpt><trkpt lat="44.84535" lon="8.07911"><ele>150.25</ele><time>2026-04-19T07:22:36.096Z</time></trkpt><trkpt lat="44.8454617" lon="8.07924"><ele>150.5</ele><time>2026-04-19T07:22:37.101Z</time></trkpt><trkpt lat="44.8455733" lon="8.07937"><ele>150.75</ele><time>2026-04-19T07:22:38.097Z</time></trkpt><trkpt lat="44.845685" lon="8.0795"><ele>151.0</ele><time>2026-04-19T07:22:39.103Z</time></trkpt><trkpt lat="44.8457983" lon="8.0796317"><ele>151.0</ele><time>2026-04-19T07:22:40.094Z</time></trkpt><trkpt lat="44.8459117" lon="8.0797633"><ele>151.0</ele><time>2026-04-19T07:22:41.138Z</time></trkpt><trkpt lat="44.8460283" lon="8.0798967"><ele>151.0</ele><time>2026-04-19T07:22:42.101Z</time></trkpt><trkpt lat="44.8461433" lon="8.0800317"><ele>151.0</ele><time>2026-04-19T07:22:43.1Z</time></trkpt><trkpt lat="44.8462583" lon="8.080165"><ele>151.0</ele><time>2026-04-19T07:22:44.091Z</time></trkpt><trkpt lat="44.8463733" lon="8.0803"><ele>151.0</ele><time>2026-04-19T07:22:45.099Z</time></trkpt><trkpt lat="44.84649" lon="8.0804367"><ele>151.0</ele><time>2026-04-19T07:22:46.099Z</time></trkpt><trkpt lat="44.8466083" lon="8.0805767"><ele>151.0</ele><time>2026-04-19T07:22:47.133Z</time></trkpt><trkpt lat="44.8467267" lon="8.0807217"><ele>151.0</ele><time>2026-04-19T07:22:48.095Z</time></trkpt><trkpt lat="44.846845" lon="8.080865"><ele>151.0</ele><time>2026-04-19T07:22:49.088Z</time></trkpt><trkpt lat="44.84696" lon="8.0810083"><ele>150.33333333333334</ele><time>2026-04-19T07:22:50.098Z</time></trkpt><trkpt lat="44.847075" lon="8.0811533"><ele>149.66666666666666</ele><time>2026-04-19T07:22:51.097Z</time></trkpt><trkpt lat="44.8471867" lon="8.0813033"><ele>149.0</ele><time>2026-04-19T07:22:52.101Z</time></trkpt><trkpt lat="44.8472967" lon="8.081455"><ele>148.33333333333331</ele><time>2026-04-19T07:22:53.138Z</time></trkpt><trkpt lat="44.847405" lon="8.0816117"><ele>147.66666666666666</ele><time>2026-04-19T07:22:54.096Z</time></trkpt><trkpt lat="44.84751" lon="8.08177"><ele>147.0</ele><time>2026-04-19T07:22:55.105Z</time></trkpt><trkpt lat="44.8476133" lon="8.081935"><ele>148.66666666666666</ele><time>2026-04-19T07:22:56.091Z</time></trkpt><trkpt lat="44.847715" lon="8.0821033"><ele>150.33333333333331</ele><time>2026-04-19T07:22:57.101Z</time></trkpt><trkpt lat="44.8478167" lon="8.0822767"><ele>152.0</ele><time>2026-04-19T07:22:58.094Z</time></trkpt><trkpt lat="44.8479167" lon="8.0824517"><ele>152.0</ele><time>2026-04-19T07:22:59.11Z</time></trkpt><trkpt lat="44.8480117" lon="8.0826333"><ele>152.0</ele><time>2026-04-19T07:23:00.098Z</time></trkpt><trkpt lat="44.8481017" lon="8.0828183"><ele>152.0</ele><time>2026-04-19T07:23:01.1Z</time></trkpt><trkpt lat="44.848195" lon="8.0830067"><ele>152.0</ele><time>2026-04-19T07:23:02.102Z</time></trkpt><trkpt lat="44.8482817" lon="8.0831983"><ele>152.0</ele><time>2026-04-19T07:23:03.103Z</time></trkpt><trkpt lat="44.848365" lon="8.08339"><ele>152.0</ele><time>2026-04-19T07:23:04.102Z</time></trkpt><trkpt lat="44.8484417" lon="8.0835833"><ele>152.33333333333331</ele><time>2026-04-19T07:23:05.103Z</time></trkpt><trkpt lat="44.848515" lon="8.083775"><ele>152.66666666666666</ele><time>2026-04-19T07:23:06.101Z</time></trkpt><trkpt lat="44.8485867" lon="8.08397"><ele>153.0</ele><time>2026-04-19T07:23:07.095Z</time></trkpt><trkpt lat="44.8486583" lon="8.0841617"><ele>153.0</ele><time>2026-04-19T07:23:08.105Z</time></trkpt><trkpt lat="44.8487283" lon="8.0843567"><ele>153.0</ele><time>2026-04-19T07:23:09.103Z</time></trkpt><trkpt lat="44.8487967" lon="8.08455"><ele>153.0</ele><time>2026-04-19T07:23:10.098Z</time></trkpt><trkpt lat="44.8488683" lon="8.0847417"><ele>152.33333333333334</ele><time>2026-04-19T07:23:11.142Z</time></trkpt><trkpt lat="44.8489367" lon="8.084935"><ele>151.66666666666669</ele><time>2026-04-19T07:23:12.092Z</time></trkpt><trkpt lat="44.8490075" lon="8.0851266"><ele>151.0</ele><time>2026-04-19T07:23:13.101Z</time></trkpt><trkpt lat="44.8490774" lon="8.0853162"><ele>151.0</ele><time>2026-04-19T07:23:14.101Z</time></trkpt><trkpt lat="44.8491504" lon="8.0855088"><ele>151.0</ele><time>2026-04-19T07:23:15.105Z</time></trkpt><trkpt lat="44.8492237" lon="8.085703"><ele>151.0</ele><time>2026-04-19T07:23:16.094Z</time></trkpt><trkpt lat="44.8492985" lon="8.085904"><ele>153.66666666666669</ele><time>2026-04-19T07:23:17.154Z</time></trkpt><trkpt lat="44.8493712" lon="8.0860912"><ele>156.33333333333334</ele><time>2026-04-19T07:23:18.097Z</time></trkpt><trkpt lat="44.8494441" lon="8.0862817"><ele>159.0</ele><time>2026-04-19T07:23:19.098Z</time></trkpt><trkpt lat="44.8495173" lon="8.0864743"><ele>158.0</ele><time>2026-04-19T07:23:20.101Z</time></trkpt><trkpt lat="44.849589" lon="8.086668"><ele>157.0</ele><time>2026-04-19T07:23:21.102Z</time></trkpt><trkpt lat="44.8496593" lon="8.0868575"><ele>156.0</ele><time>2026-04-19T07:23:22.104Z</time></trkpt><trkpt lat="44.8497293" lon="8.0870424"><ele>156.0</ele><time>2026-04-19T07:23:23.146Z</time></trkpt><trkpt lat="44.8497967" lon="8.0872159"><ele>156.0</ele><time>2026-04-19T07:23:24.093Z</time></trkpt><trkpt lat="44.8498634" lon="8.0873939"><ele>156.0</ele><time>2026-04-19T07:23:25.103Z</time></trkpt><trkpt lat="44.8499266" lon="8.087566"><ele>156.0</ele><time>2026-04-19T07:23:26.089Z</time></trkpt><trkpt lat="44.8499893" lon="8.0877354"><ele>155.25</ele><time>2026-04-19T07:23:27.094Z</time></trkpt><trkpt lat="44.8500513" lon="8.0878991"><ele>154.5</ele><time>2026-04-19T07:23:28.103Z</time></trkpt><trkpt lat="44.8501138" lon="8.0880618"><ele>153.75</ele><time>2026-04-19T07:23:29.103Z</time></trkpt><trkpt lat="44.8501752" lon="8.0882233"><ele>153.0</ele><time>2026-04-19T07:23:30.096Z</time></trkpt><trkpt lat="44.8502375" lon="8.0883829"><ele>153.0</ele><time>2026-04-19T07:23:31.094Z</time></trkpt><trkpt lat="44.8503005" lon="8.0885449"><ele>153.0</ele><time>2026-04-19T07:23:32.101Z</time></trkpt><trkpt lat="44.8503639" lon="8.088707"><ele>153.0</ele><time>2026-04-19T07:23:33.097Z</time></trkpt><trkpt lat="44.8504244" lon="8.0888667"><ele>153.0</ele><time>2026-04-19T07:23:34.097Z</time></trkpt><trkpt lat="44.8504834" lon="8.0890268"><ele>151.75</ele><time>2026-04-19T07:23:35.108Z</time></trkpt><trkpt lat="44.8505408" lon="8.0891843"><ele>150.5</ele><time>2026-04-19T07:23:36.094Z</time></trkpt><trkpt lat="44.850599" lon="8.0893417"><ele>149.25</ele><time>2026-04-19T07:23:37.102Z</time></trkpt><trkpt lat="44.8506586" lon="8.0894965"><ele>148.0</ele><time>2026-04-19T07:23:38.096Z</time></trkpt><trkpt lat="44.8507177" lon="8.0896508"><ele>148.0</ele><time>2026-04-19T07:23:39.101Z</time></trkpt><trkpt lat="44.8507745" lon="8.0897984"><ele>148.0</ele><time>2026-04-19T07:23:40.094Z</time></trkpt><trkpt lat="44.8508304" lon="8.0899416"><ele>148.0</ele><time>2026-04-19T07:23:41.141Z</time></trkpt><trkpt lat="44.8508775" lon="8.0900638"><ele>148.0</ele><time>2026-04-19T07:23:42.094Z</time></trkpt><trkpt lat="44.8509227" lon="8.0901759"><ele>148.0</ele><time>2026-04-19T07:23:43.09Z</time></trkpt><trkpt lat="44.8509619" lon="8.0902652"><ele>148.33333333333334</ele><time>2026-04-19T07:23:44.102Z</time></trkpt><trkpt lat="44.8510376" lon="8.0903532"><ele>148.66666666666669</ele><time>2026-04-19T07:23:46.105Z</time></trkpt><trkpt lat="44.8511054" lon="8.0903066"><ele>149.0</ele><time>2026-04-19T07:23:48.094Z</time></trkpt><trkpt lat="44.8511518" lon="8.0902329"><ele>149.33333333333334</ele><time>2026-04-19T07:23:49.102Z</time></trkpt><trkpt lat="44.8512057" lon="8.09013"><ele>149.66666666666666</ele><time>2026-04-19T07:23:50.104Z</time></trkpt><trkpt lat="44.8512652" lon="8.0900033"><ele>150.0</ele><time>2026-04-19T07:23:51.091Z</time></trkpt><trkpt lat="44.8513289" lon="8.0898517"><ele>150.5</ele><time>2026-04-19T07:23:52.09Z</time></trkpt><trkpt lat="44.8513922" lon="8.0896775"><ele>151.0</ele><time>2026-04-19T07:23:53.147Z</time></trkpt><trkpt lat="44.8514392" lon="8.0895157"><ele>151.5</ele><time>2026-04-19T07:23:54.09Z</time></trkpt><trkpt lat="44.8514713" lon="8.0893565"><ele>152.0</ele><time>2026-04-19T07:23:55.095Z</time></trkpt><trkpt lat="44.8514857" lon="8.0891901"><ele>153.0</ele><time>2026-04-19T07:23:56.099Z</time></trkpt><trkpt lat="44.8514893" lon="8.088986"><ele>154.0</ele><time>2026-04-19T07:23:57.091Z</time></trkpt><trkpt lat="44.8514905" lon="8.0887557"><ele>155.0</ele><time>2026-04-19T07:23:58.101Z</time></trkpt><trkpt lat="44.8514861" lon="8.0885275"><ele>155.0</ele><time>2026-04-19T07:23:59.098Z</time></trkpt><trkpt lat="44.8514771" lon="8.0883168"><ele>155.0</ele><time>2026-04-19T07:24:00.092Z</time></trkpt><trkpt lat="44.8514662" lon="8.0881214"><ele>155.0</ele><time>2026-04-19T07:24:01.094Z</time></trkpt><trkpt lat="44.8514473" lon="8.0879226"><ele>155.0</ele><time>2026-04-19T07:24:02.101Z</time></trkpt><trkpt lat="44.8514268" lon="8.087718"><ele>155.75</ele><time>2026-04-19T07:24:03.097Z</time></trkpt><trkpt lat="44.8514045" lon="8.0875207"><ele>156.5</ele><time>2026-04-19T07:24:04.104Z</time></trkpt><trkpt lat="44.8513794" lon="8.0873335"><ele>157.25</ele><time>2026-04-19T07:24:05.119Z</time></trkpt><trkpt lat="44.8513446" lon="8.087155"><ele>158.0</ele><time>2026-04-19T07:24:06.098Z</time></trkpt><trkpt lat="44.8512987" lon="8.086978"><ele>158.25</ele><time>2026-04-19T07:24:07.104Z</time></trkpt><trkpt lat="44.85124" lon="8.08681"><ele>158.5</ele><time>2026-04-19T07:24:08.091Z</time></trkpt><trkpt lat="44.8511817" lon="8.0866433"><ele>158.75</ele><time>2026-04-19T07:24:09.098Z</time></trkpt><trkpt lat="44.8511267" lon="8.0864833"><ele>159.0</ele><time>2026-04-19T07:24:10.097Z</time></trkpt><trkpt lat="44.85108" lon="8.0863317"><ele>158.5</ele><time>2026-04-19T07:24:11.147Z</time></trkpt><trkpt lat="44.85103" lon="8.08618"><ele>158.0</ele><time>2026-04-19T07:24:12.087Z</time></trkpt><trkpt lat="44.8509767" lon="8.0860333"><ele>157.5</ele><time>2026-04-19T07:24:13.098Z</time></trkpt><trkpt lat="44.85092" lon="8.0858967"><ele>157.0</ele><time>2026-04-19T07:24:14.098Z</time></trkpt><trkpt lat="44.8508583" lon="8.0857583"><ele>158.75</ele><time>2026-04-19T07:24:15.101Z</time></trkpt><trkpt lat="44.8507917" lon="8.08562"><ele>160.5</ele><time>2026-04-19T07:24:16.092Z</time></trkpt><trkpt lat="44.85072" lon="8.0854817"><ele>162.25</ele><time>2026-04-19T07:24:17.146Z</time></trkpt><trkpt lat="44.8506517" lon="8.0853483"><ele>164.0</ele><time>2026-04-19T07:24:18.102Z</time></trkpt><trkpt lat="44.8505883" lon="8.085215"><ele>164.0</ele><time>2026-04-19T07:24:19.097Z</time></trkpt><trkpt lat="44.8505367" lon="8.0850867"><ele>164.0</ele><time>2026-04-19T07:24:20.096Z</time></trkpt><trkpt lat="44.850485" lon="8.0849583"><ele>164.0</ele><time>2026-04-19T07:24:21.104Z</time></trkpt><trkpt lat="44.850425" lon="8.08482"><ele>164.0</ele><time>2026-04-19T07:24:22.103Z</time></trkpt><trkpt lat="44.8503583" lon="8.0846867"><ele>164.0</ele><time>2026-04-19T07:24:23.148Z</time></trkpt><trkpt lat="44.85029" lon="8.08455"><ele>164.0</ele><time>2026-04-19T07:24:24.09Z</time></trkpt><trkpt lat="44.85022" lon="8.0844083"><ele>164.0</ele><time>2026-04-19T07:24:25.096Z</time></trkpt><trkpt lat="44.8501533" lon="8.08426"><ele>164.0</ele><time>2026-04-19T07:24:26.098Z</time></trkpt><trkpt lat="44.850085" lon="8.0841017"><ele>164.0</ele><time>2026-04-19T07:24:27.101Z</time></trkpt><trkpt lat="44.85002" lon="8.0839417"><ele>164.25</ele><time>2026-04-19T07:24:28.095Z</time></trkpt><trkpt lat="44.8499617" lon="8.0837833"><ele>164.5</ele><time>2026-04-19T07:24:29.173Z</time></trkpt><trkpt lat="44.84991" lon="8.08363"><ele>164.75</ele><time>2026-04-19T07:24:30.098Z</time></trkpt><trkpt lat="44.8498733" lon="8.0834867"><ele>165.0</ele><time>2026-04-19T07:24:31.094Z</time></trkpt><trkpt lat="44.8498517" lon="8.0833567"><ele>165.6</ele><time>2026-04-19T07:24:32.102Z</time></trkpt><trkpt lat="44.8498417" lon="8.08323"><ele>166.2</ele><time>2026-04-19T07:24:33.095Z</time></trkpt><trkpt lat="44.8498367" lon="8.0830883"><ele>166.8</ele><time>2026-04-19T07:24:34.101Z</time></trkpt><trkpt lat="44.8498333" lon="8.08293"><ele>167.4</ele><time>2026-04-19T07:24:35.116Z</time></trkpt><trkpt lat="44.8498283" lon="8.0827617"><ele>168.0</ele><time>2026-04-19T07:24:36.095Z</time></trkpt><trkpt lat="44.8498233" lon="8.082585"><ele>168.25</ele><time>2026-04-19T07:24:37.103Z</time></trkpt><trkpt lat="44.8498133" lon="8.0823967"><ele>168.5</ele><time>2026-04-19T07:24:38.1Z</time></trkpt><trkpt lat="44.8497983" lon="8.0822083"><ele>168.75</ele><time>2026-04-19T07:24:39.095Z</time></trkpt><trkpt lat="44.8497783" lon="8.0820217"><ele>169.0</ele><time>2026-04-19T07:24:40.094Z</time></trkpt><trkpt lat="44.8497583" lon="8.0818417"><ele>169.0</ele><time>2026-04-19T07:24:41.144Z</time></trkpt><trkpt lat="44.8497383" lon="8.0816783"><ele>169.0</ele><time>2026-04-19T07:24:42.095Z</time></trkpt><trkpt lat="44.8497133" lon="8.0815333"><ele>169.0</ele><time>2026-04-19T07:24:43.096Z</time></trkpt><trkpt lat="44.849675" lon="8.0814067"><ele>169.0</ele><time>2026-04-19T07:24:44.102Z</time></trkpt><trkpt lat="44.84962" lon="8.0812833"><ele>169.0</ele><time>2026-04-19T07:24:45.1Z</time></trkpt><trkpt lat="44.8495517" lon="8.08116"><ele>169.0</ele><time>2026-04-19T07:24:46.101Z</time></trkpt><trkpt lat="44.84948" lon="8.0810317"><ele>169.0</ele><time>2026-04-19T07:24:47.145Z</time></trkpt><trkpt lat="44.84941" lon="8.0809017"><ele>169.0</ele><time>2026-04-19T07:24:48.094Z</time></trkpt><trkpt lat="44.84934" lon="8.080765"><ele>169.0</ele><time>2026-04-19T07:24:49.098Z</time></trkpt><trkpt lat="44.8492683" lon="8.0806233"><ele>170.0</ele><time>2026-04-19T07:24:50.097Z</time></trkpt><trkpt lat="44.8491967" lon="8.080485"><ele>171.0</ele><time>2026-04-19T07:24:51.101Z</time></trkpt><trkpt lat="44.84912" lon="8.08035"><ele>172.0</ele><time>2026-04-19T07:24:52.097Z</time></trkpt><trkpt lat="44.8490483" lon="8.080215"><ele>173.0</ele><time>2026-04-19T07:24:53.142Z</time></trkpt><trkpt lat="44.8489833" lon="8.0800783"><ele>172.75</ele><time>2026-04-19T07:24:54.1Z</time></trkpt><trkpt lat="44.8489233" lon="8.0799317"><ele>172.5</ele><time>2026-04-19T07:24:55.105Z</time></trkpt><trkpt lat="44.84886" lon="8.079775"><ele>172.25</ele><time>2026-04-19T07:24:56.099Z</time></trkpt><trkpt lat="44.8487967" lon="8.0796267"><ele>172.0</ele><time>2026-04-19T07:24:57.106Z</time></trkpt><trkpt lat="44.8487283" lon="8.0794883"><ele>172.0</ele><time>2026-04-19T07:24:58.097Z</time></trkpt><trkpt lat="44.848645" lon="8.0793567"><ele>172.0</ele><time>2026-04-19T07:24:59.162Z</time></trkpt><trkpt lat="44.8485583" lon="8.0792317"><ele>172.0</ele><time>2026-04-19T07:25:00.089Z</time></trkpt><trkpt lat="44.848475" lon="8.0791167"><ele>172.0</ele><time>2026-04-19T07:25:01.097Z</time></trkpt><trkpt lat="44.8484067" lon="8.0790017"><ele>171.66666666666669</ele><time>2026-04-19T07:25:02.098Z</time></trkpt><trkpt lat="44.8483567" lon="8.078885"><ele>171.33333333333334</ele><time>2026-04-19T07:25:03.092Z</time></trkpt><trkpt lat="44.848325" lon="8.0787683"><ele>171.0</ele><time>2026-04-19T07:25:04.101Z</time></trkpt><trkpt lat="44.8483183" lon="8.0786583"><ele>170.66666666666666</ele><time>2026-04-19T07:25:05.162Z</time></trkpt><trkpt lat="44.848335" lon="8.0785433"><ele>170.33333333333331</ele><time>2026-04-19T07:25:06.097Z</time></trkpt><trkpt lat="44.8483817" lon="8.078425"><ele>170.0</ele><time>2026-04-19T07:25:07.099Z</time></trkpt><trkpt lat="44.8484433" lon="8.0782933"><ele>170.5</ele><time>2026-04-19T07:25:08.103Z</time></trkpt><trkpt lat="44.8485317" lon="8.0781317"><ele>171.0</ele><time>2026-04-19T07:25:09.095Z</time></trkpt><trkpt lat="44.8486167" lon="8.0779617"><ele>171.5</ele><time>2026-04-19T07:25:10.091Z</time></trkpt><trkpt lat="44.8486933" lon="8.0777867"><ele>172.0</ele><time>2026-04-19T07:25:11.141Z</time></trkpt><trkpt lat="44.84876" lon="8.0776067"><ele>172.75</ele><time>2026-04-19T07:25:12.093Z</time></trkpt><trkpt lat="44.8488267" lon="8.0774267"><ele>173.5</ele><time>2026-04-19T07:25:13.095Z</time></trkpt><trkpt lat="44.8488883" lon="8.07725"><ele>174.25</ele><time>2026-04-19T07:25:14.098Z</time></trkpt><trkpt lat="44.8489417" lon="8.0770783"><ele>175.0</ele><time>2026-04-19T07:25:15.099Z</time></trkpt><trkpt lat="44.8489783" lon="8.07691"><ele>175.0</ele><time>2026-04-19T07:25:16.097Z</time></trkpt><trkpt lat="44.8490017" lon="8.0767367"><ele>175.0</ele><time>2026-04-19T07:25:17.147Z</time></trkpt><trkpt lat="44.8490033" lon="8.076565"><ele>175.0</ele><time>2026-04-19T07:25:18.096Z</time></trkpt><trkpt lat="44.8489883" lon="8.0763917"><ele>175.0</ele><time>2026-04-19T07:25:19.098Z</time></trkpt><trkpt lat="44.84896" lon="8.0762167"><ele>175.75</ele><time>2026-04-19T07:25:20.097Z</time></trkpt><trkpt lat="44.8489283" lon="8.076035"><ele>176.5</ele><time>2026-04-19T07:25:21.099Z</time></trkpt><trkpt lat="44.8488967" lon="8.075845"><ele>177.25</ele><time>2026-04-19T07:25:22.09Z</time></trkpt><trkpt lat="44.848865" lon="8.0756567"><ele>178.0</ele><time>2026-04-19T07:25:23.143Z</time></trkpt><trkpt lat="44.8488333" lon="8.07547"><ele>178.0</ele><time>2026-04-19T07:25:24.091Z</time></trkpt><trkpt lat="44.8488067" lon="8.0752867"><ele>178.0</ele><time>2026-04-19T07:25:25.1Z</time></trkpt><trkpt lat="44.8487867" lon="8.0751017"><ele>178.0</ele><time>2026-04-19T07:25:26.097Z</time></trkpt><trkpt lat="44.8487783" lon="8.0749233"><ele>178.0</ele><time>2026-04-19T07:25:27.098Z</time></trkpt><trkpt lat="44.8487783" lon="8.074745"><ele>177.5</ele><time>2026-04-19T07:25:28.099Z</time></trkpt><trkpt lat="44.8487867" lon="8.0745633"><ele>177.0</ele><time>2026-04-19T07:25:29.113Z</time></trkpt><trkpt lat="44.848805" lon="8.074385"><ele>176.5</ele><time>2026-04-19T07:25:30.099Z</time></trkpt><trkpt lat="44.8488283" lon="8.0742133"><ele>176.0</ele><time>2026-04-19T07:25:31.101Z</time></trkpt><trkpt lat="44.848855" lon="8.07406"><ele>176.0</ele><time>2026-04-19T07:25:32.096Z</time></trkpt><trkpt lat="44.8489" lon="8.073915"><ele>176.0</ele><time>2026-04-19T07:25:33.098Z</time></trkpt><trkpt lat="44.848965" lon="8.073765"><ele>176.0</ele><time>2026-04-19T07:25:34.096Z</time></trkpt><trkpt lat="44.8490433" lon="8.073605"><ele>176.0</ele><time>2026-04-19T07:25:35.119Z</time></trkpt><trkpt lat="44.8491267" lon="8.0734483"><ele>176.0</ele><time>2026-04-19T07:25:36.098Z</time></trkpt><trkpt lat="44.84921" lon="8.0733033"><ele>176.0</ele><time>2026-04-19T07:25:37.093Z</time></trkpt><trkpt lat="44.849285" lon="8.0731683"><ele>176.0</ele><time>2026-04-19T07:25:38.094Z</time></trkpt><trkpt lat="44.849345" lon="8.073045"><ele>176.0</ele><time>2026-04-19T07:25:39.097Z</time></trkpt><trkpt lat="44.84939" lon="8.0729317"><ele>175.8</ele><time>2026-04-19T07:25:40.098Z</time></trkpt><trkpt lat="44.849415" lon="8.072835"><ele>175.60000000000002</ele><time>2026-04-19T07:25:41.134Z</time></trkpt><trkpt lat="44.8494417" lon="8.072705"><ele>175.4</ele><time>2026-04-19T07:25:43.1Z</time></trkpt><trkpt lat="44.849505" lon="8.0726533"><ele>175.2</ele><time>2026-04-19T07:25:47.141Z</time></trkpt><trkpt lat="44.84962" lon="8.072705"><ele>175.0</ele><time>2026-04-19T07:25:49.091Z</time></trkpt><trkpt lat="44.8497117" lon="8.0727483"><ele>175.0</ele><time>2026-04-19T07:25:50.094Z</time></trkpt><trkpt lat="44.8498217" lon="8.072805"><ele>175.0</ele><time>2026-04-19T07:25:51.098Z</time></trkpt><trkpt lat="44.84995" lon="8.072875"><ele>175.0</ele><time>2026-04-19T07:25:52.095Z</time></trkpt><trkpt lat="44.8500933" lon="8.0729617"><ele>175.0</ele><time>2026-04-19T07:25:53.147Z</time></trkpt><trkpt lat="44.85024" lon="8.073055"><ele>175.66666666666669</ele><time>2026-04-19T07:25:54.099Z</time></trkpt><trkpt lat="44.8503833" lon="8.0731417"><ele>176.33333333333334</ele><time>2026-04-19T07:25:55.098Z</time></trkpt><trkpt lat="44.850525" lon="8.0732333"><ele>177.0</ele><time>2026-04-19T07:25:56.1Z</time></trkpt><trkpt lat="44.85067" lon="8.0733217"><ele>177.0</ele><time>2026-04-19T07:25:57.099Z</time></trkpt><trkpt lat="44.850815" lon="8.0734033"><ele>177.0</ele><time>2026-04-19T07:25:58.095Z</time></trkpt><trkpt lat="44.8509633" lon="8.073475"><ele>177.0</ele><time>2026-04-19T07:25:59.164Z</time></trkpt><trkpt lat="44.8511167" lon="8.0735317"><ele>177.0</ele><time>2026-04-19T07:26:00.095Z</time></trkpt><trkpt lat="44.8512683" lon="8.0735567"><ele>177.0</ele><time>2026-04-19T07:26:01.1Z</time></trkpt><trkpt lat="44.8514283" lon="8.07358"><ele>177.0</ele><time>2026-04-19T07:26:02.097Z</time></trkpt><trkpt lat="44.851585" lon="8.0735867"><ele>177.0</ele><time>2026-04-19T07:26:03.093Z</time></trkpt><trkpt lat="44.8517433" lon="8.0735883"><ele>177.0</ele><time>2026-04-19T07:26:04.105Z</time></trkpt><trkpt lat="44.8519033" lon="8.0735883"><ele>177.0</ele><time>2026-04-19T07:26:05.162Z</time></trkpt><trkpt lat="44.852065" lon="8.0735917"><ele>177.66666666666666</ele><time>2026-04-19T07:26:06.092Z</time></trkpt><trkpt lat="44.852225" lon="8.073595"><ele>178.33333333333331</ele><time>2026-04-19T07:26:07.1Z</time></trkpt><trkpt lat="44.8523867" lon="8.0735983"><ele>179.0</ele><time>2026-04-19T07:26:08.096Z</time></trkpt><trkpt lat="44.8525533" lon="8.0736033"><ele>179.33333333333331</ele><time>2026-04-19T07:26:09.099Z</time></trkpt><trkpt lat="44.852725" lon="8.07361"><ele>179.66666666666666</ele><time>2026-04-19T07:26:10.101Z</time></trkpt><trkpt lat="44.852895" lon="8.0736233"><ele>180.0</ele><time>2026-04-19T07:26:11.14Z</time></trkpt><trkpt lat="44.8530683" lon="8.073635"><ele>180.0</ele><time>2026-04-19T07:26:12.094Z</time></trkpt><trkpt lat="44.8532417" lon="8.0736433"><ele>180.0</ele><time>2026-04-19T07:26:13.091Z</time></trkpt><trkpt lat="44.853415" lon="8.07366"><ele>180.0</ele><time>2026-04-19T07:26:14.097Z</time></trkpt><trkpt lat="44.853585" lon="8.07367"><ele>181.66666666666666</ele><time>2026-04-19T07:26:15.093Z</time></trkpt><trkpt lat="44.853745" lon="8.07369"><ele>183.33333333333331</ele><time>2026-04-19T07:26:16.093Z</time></trkpt><trkpt lat="44.8539" lon="8.073725"><ele>185.0</ele><time>2026-04-19T07:26:17.154Z</time></trkpt><trkpt lat="44.85405" lon="8.0737833"><ele>185.0</ele><time>2026-04-19T07:26:18.093Z</time></trkpt><trkpt lat="44.8541983" lon="8.0738617"><ele>185.0</ele><time>2026-04-19T07:26:19.088Z</time></trkpt><trkpt lat="44.85434" lon="8.0739467"><ele>185.0</ele><time>2026-04-19T07:26:20.099Z</time></trkpt><trkpt lat="44.8544733" lon="8.074025"><ele>186.0</ele><time>2026-04-19T07:26:21.094Z</time></trkpt><trkpt lat="44.854605" lon="8.074085"><ele>187.0</ele><time>2026-04-19T07:26:22.097Z</time></trkpt><trkpt lat="44.8547283" lon="8.0740817"><ele>188.0</ele><time>2026-04-19T07:26:23.143Z</time></trkpt><trkpt lat="44.8548467" lon="8.074045"><ele>189.0</ele><time>2026-04-19T07:26:24.096Z</time></trkpt><trkpt lat="44.8549567" lon="8.0739717"><ele>189.0</ele><time>2026-04-19T07:26:25.101Z</time></trkpt><trkpt lat="44.8550667" lon="8.0738733"><ele>189.0</ele><time>2026-04-19T07:26:26.105Z</time></trkpt><trkpt lat="44.8551783" lon="8.0737333"><ele>189.0</ele><time>2026-04-19T07:26:27.098Z</time></trkpt><trkpt lat="44.85529" lon="8.0735917"><ele>189.0</ele><time>2026-04-19T07:26:28.103Z</time></trkpt><trkpt lat="44.855395" lon="8.0734617"><ele>189.2</ele><time>2026-04-19T07:26:29.088Z</time></trkpt><trkpt lat="44.8554917" lon="8.07335"><ele>189.39999999999998</ele><time>2026-04-19T07:26:30.096Z</time></trkpt><trkpt lat="44.855585" lon="8.0732667"><ele>189.6</ele><time>2026-04-19T07:26:31.096Z</time></trkpt><trkpt lat="44.8556783" lon="8.073195"><ele>189.8</ele><time>2026-04-19T07:26:32.091Z</time></trkpt><trkpt lat="44.8557783" lon="8.0731483"><ele>190.0</ele><time>2026-04-19T07:26:33.103Z</time></trkpt><trkpt lat="44.8558867" lon="8.0731283"><ele>189.5</ele><time>2026-04-19T07:26:34.097Z</time></trkpt><trkpt lat="44.856005" lon="8.0731467"><ele>189.0</ele><time>2026-04-19T07:26:35.164Z</time></trkpt><trkpt lat="44.856125" lon="8.073195"><ele>188.5</ele><time>2026-04-19T07:26:36.089Z</time></trkpt><trkpt lat="44.8562433" lon="8.0732617"><ele>188.0</ele><time>2026-04-19T07:26:37.096Z</time></trkpt><trkpt lat="44.8563633" lon="8.0733433"><ele>188.0</ele><time>2026-04-19T07:26:38.1Z</time></trkpt><trkpt lat="44.85648" lon="8.0734433"><ele>188.0</ele><time>2026-04-19T07:26:39.1Z</time></trkpt><trkpt lat="44.8565883" lon="8.0735617"><ele>188.0</ele><time>2026-04-19T07:26:40.103Z</time></trkpt><trkpt lat="44.856695" lon="8.0736833"><ele>188.0</ele><time>2026-04-19T07:26:41.147Z</time></trkpt><trkpt lat="44.8568033" lon="8.0738017"><ele>188.5</ele><time>2026-04-19T07:26:42.096Z</time></trkpt><trkpt lat="44.85692" lon="8.0739083"><ele>189.0</ele><time>2026-04-19T07:26:43.105Z</time></trkpt><trkpt lat="44.8570517" lon="8.0740083"><ele>189.5</ele><time>2026-04-19T07:26:44.094Z</time></trkpt><trkpt lat="44.857195" lon="8.0741017"><ele>190.0</ele><time>2026-04-19T07:26:45.094Z</time></trkpt><trkpt lat="44.85734" lon="8.074195"><ele>188.33333333333334</ele><time>2026-04-19T07:26:46.1Z</time></trkpt><trkpt lat="44.8574883" lon="8.07429"><ele>186.66666666666666</ele><time>2026-04-19T07:26:47.145Z</time></trkpt><trkpt lat="44.857635" lon="8.07438"><ele>185.0</ele><time>2026-04-19T07:26:48.094Z</time></trkpt><trkpt lat="44.8577817" lon="8.0744733"><ele>183.66666666666666</ele><time>2026-04-19T07:26:49.095Z</time></trkpt><trkpt lat="44.8579283" lon="8.0745667"><ele>182.33333333333334</ele><time>2026-04-19T07:26:50.098Z</time></trkpt><trkpt lat="44.8580767" lon="8.0746567"><ele>181.0</ele><time>2026-04-19T07:26:51.099Z</time></trkpt><trkpt lat="44.8582267" lon="8.074745"><ele>181.0</ele><time>2026-04-19T07:26:52.102Z</time></trkpt><trkpt lat="44.8583833" lon="8.0748267"><ele>181.0</ele><time>2026-04-19T07:26:53.146Z</time></trkpt><trkpt lat="44.8585433" lon="8.0749033"><ele>181.0</ele><time>2026-04-19T07:26:54.098Z</time></trkpt><trkpt lat="44.8587067" lon="8.0749567"><ele>178.33333333333334</ele><time>2026-04-19T07:26:55.093Z</time></trkpt><trkpt lat="44.8588667" lon="8.0749933"><ele>175.66666666666666</ele><time>2026-04-19T07:26:56.095Z</time></trkpt><trkpt lat="44.8590417" lon="8.075035"><ele>173.0</ele><time>2026-04-19T07:26:57.098Z</time></trkpt><trkpt lat="44.8592067" lon="8.075065"><ele>172.0</ele><time>2026-04-19T07:26:58.101Z</time></trkpt><trkpt lat="44.859375" lon="8.0750967"><ele>171.0</ele><time>2026-04-19T07:26:59.161Z</time></trkpt><trkpt lat="44.85954" lon="8.075125"><ele>170.0</ele><time>2026-04-19T07:27:00.097Z</time></trkpt><trkpt lat="44.8597017" lon="8.0751483"><ele>170.0</ele><time>2026-04-19T07:27:01.099Z</time></trkpt><trkpt lat="44.8598617" lon="8.0751733"><ele>170.0</ele><time>2026-04-19T07:27:02.093Z</time></trkpt><trkpt lat="44.8600167" lon="8.0752017"><ele>170.0</ele><time>2026-04-19T07:27:03.101Z</time></trkpt><trkpt lat="44.8601683" lon="8.075225"><ele>170.25</ele><time>2026-04-19T07:27:04.099Z</time></trkpt><trkpt lat="44.86031" lon="8.0752433"><ele>170.5</ele><time>2026-04-19T07:27:05.161Z</time></trkpt><trkpt lat="44.8604517" lon="8.0752517"><ele>170.75</ele><time>2026-04-19T07:27:06.089Z</time></trkpt><trkpt lat="44.8605917" lon="8.0752417"><ele>171.0</ele><time>2026-04-19T07:27:07.096Z</time></trkpt><trkpt lat="44.860725" lon="8.0752183"><ele>171.0</ele><time>2026-04-19T07:27:08.095Z</time></trkpt><trkpt lat="44.8608517" lon="8.0751733"><ele>171.0</ele><time>2026-04-19T07:27:09.104Z</time></trkpt><trkpt lat="44.8609783" lon="8.075135"><ele>171.0</ele><time>2026-04-19T07:27:10.098Z</time></trkpt><trkpt lat="44.8610933" lon="8.0750867"><ele>171.0</ele><time>2026-04-19T07:27:11.144Z</time></trkpt><trkpt lat="44.8612017" lon="8.0750367"><ele>172.20000000000002</ele><time>2026-04-19T07:27:12.092Z</time></trkpt><trkpt lat="44.8613017" lon="8.074985"><ele>173.4</ele><time>2026-04-19T07:27:13.095Z</time></trkpt><trkpt lat="44.861395" lon="8.0749317"><ele>174.6</ele><time>2026-04-19T07:27:14.094Z</time></trkpt><trkpt lat="44.8614817" lon="8.07488"><ele>175.8</ele><time>2026-04-19T07:27:15.088Z</time></trkpt><trkpt lat="44.8615617" lon="8.074825"><ele>177.0</ele><time>2026-04-19T07:27:16.103Z</time></trkpt><trkpt lat="44.8616383" lon="8.0747633"><ele>177.0</ele><time>2026-04-19T07:27:17.147Z</time></trkpt><trkpt lat="44.8617117" lon="8.0746983"><ele>177.0</ele><time>2026-04-19T07:27:18.099Z</time></trkpt><trkpt lat="44.8617767" lon="8.074635"><ele>177.0</ele><time>2026-04-19T07:27:19.098Z</time></trkpt><trkpt lat="44.8618283" lon="8.0745783"><ele>177.0</ele><time>2026-04-19T07:27:20.096Z</time></trkpt><trkpt lat="44.8619017" lon="8.0745467"><ele>177.0</ele><time>2026-04-19T07:27:22.102Z</time></trkpt><trkpt lat="44.8619633" lon="8.074645"><ele>177.0</ele><time>2026-04-19T07:27:24.095Z</time></trkpt><trkpt lat="44.8620267" lon="8.0747333"><ele>178.33333333333334</ele><time>2026-04-19T07:27:26.097Z</time></trkpt><trkpt lat="44.8620717" lon="8.0748483"><ele>179.66666666666666</ele><time>2026-04-19T07:27:28.095Z</time></trkpt><trkpt lat="44.86213" lon="8.074935"><ele>181.0</ele><time>2026-04-19T07:27:30.094Z</time></trkpt><trkpt lat="44.8622267" lon="8.07499"><ele>182.33333333333331</ele><time>2026-04-19T07:27:32.094Z</time></trkpt><trkpt lat="44.8622933" lon="8.0750067"><ele>183.66666666666666</ele><time>2026-04-19T07:27:33.097Z</time></trkpt><trkpt lat="44.8623683" lon="8.0750017"><ele>185.0</ele><time>2026-04-19T07:27:34.094Z</time></trkpt><trkpt lat="44.862455" lon="8.0749767"><ele>186.2</ele><time>2026-04-19T07:27:35.161Z</time></trkpt><trkpt lat="44.8625583" lon="8.0749667"><ele>187.4</ele><time>2026-04-19T07:27:36.091Z</time></trkpt><trkpt lat="44.86266" lon="8.0749567"><ele>188.60000000000002</ele><time>2026-04-19T07:27:37.094Z</time></trkpt><trkpt lat="44.8627633" lon="8.0749417"><ele>189.8</ele><time>2026-04-19T07:27:38.091Z</time></trkpt><trkpt lat="44.8628717" lon="8.0749433"><ele>191.0</ele><time>2026-04-19T07:27:39.101Z</time></trkpt><trkpt lat="44.8629833" lon="8.074955"><ele>191.8</ele><time>2026-04-19T07:27:40.094Z</time></trkpt><trkpt lat="44.8630817" lon="8.07498"><ele>192.60000000000002</ele><time>2026-04-19T07:27:41.145Z</time></trkpt><trkpt lat="44.8631833" lon="8.0750217"><ele>193.4</ele><time>2026-04-19T07:27:42.094Z</time></trkpt><trkpt lat="44.8632917" lon="8.0750733"><ele>194.2</ele><time>2026-04-19T07:27:43.1Z</time></trkpt><trkpt lat="44.863395" lon="8.0751333"><ele>195.0</ele><time>2026-04-19T07:27:44.093Z</time></trkpt><trkpt lat="44.863505" lon="8.0752"><ele>195.25</ele><time>2026-04-19T07:27:45.101Z</time></trkpt><trkpt lat="44.8636183" lon="8.0752683"><ele>195.5</ele><time>2026-04-19T07:27:46.095Z</time></trkpt><trkpt lat="44.8637333" lon="8.075335"><ele>195.75</ele><time>2026-04-19T07:27:47.131Z</time></trkpt><trkpt lat="44.8638517" lon="8.0754083"><ele>196.0</ele><time>2026-04-19T07:27:48.091Z</time></trkpt><trkpt lat="44.8639717" lon="8.0754883"><ele>196.0</ele><time>2026-04-19T07:27:49.099Z</time></trkpt><trkpt lat="44.86409" lon="8.07557"><ele>196.0</ele><time>2026-04-19T07:27:50.101Z</time></trkpt><trkpt lat="44.8642117" lon="8.0756533"><ele>196.0</ele><time>2026-04-19T07:27:51.097Z</time></trkpt><trkpt lat="44.8643333" lon="8.0757333"><ele>196.0</ele><time>2026-04-19T07:27:52.107Z</time></trkpt><trkpt lat="44.864445" lon="8.0758067"><ele>195.8</ele><time>2026-04-19T07:27:53.138Z</time></trkpt><trkpt lat="44.8645417" lon="8.0758733"><ele>195.60000000000002</ele><time>2026-04-19T07:27:54.094Z</time></trkpt><trkpt lat="44.8646217" lon="8.0759317"><ele>195.4</ele><time>2026-04-19T07:27:55.099Z</time></trkpt><trkpt lat="44.8646933" lon="8.075985"><ele>195.2</ele><time>2026-04-19T07:27:56.098Z</time></trkpt><trkpt lat="44.8647683" lon="8.0760367"><ele>195.0</ele><time>2026-04-19T07:27:57.093Z</time></trkpt><trkpt lat="44.8648483" lon="8.076095"><ele>195.0</ele><time>2026-04-19T07:27:58.102Z</time></trkpt><trkpt lat="44.8649283" lon="8.0761617"><ele>195.0</ele><time>2026-04-19T07:27:59.162Z</time></trkpt><trkpt lat="44.865" lon="8.0762333"><ele>195.0</ele><time>2026-04-19T07:28:00.091Z</time></trkpt><trkpt lat="44.865065" lon="8.0762983"><ele>195.0</ele><time>2026-04-19T07:28:01.093Z</time></trkpt><trkpt lat="44.86512" lon="8.0763533"><ele>195.0</ele><time>2026-04-19T07:28:02.098Z</time></trkpt><trkpt lat="44.8651817" lon="8.0764133"><ele>195.0</ele><time>2026-04-19T07:28:03.095Z</time></trkpt><trkpt lat="44.8652433" lon="8.0764733"><ele>194.5</ele><time>2026-04-19T07:28:04.098Z</time></trkpt><trkpt lat="44.8653017" lon="8.0765333"><ele>194.0</ele><time>2026-04-19T07:28:05.125Z</time></trkpt><trkpt lat="44.8653483" lon="8.076595"><ele>193.5</ele><time>2026-04-19T07:28:06.089Z</time></trkpt><trkpt lat="44.8654033" lon="8.0767417"><ele>193.0</ele><time>2026-04-19T07:28:08.095Z</time></trkpt><trkpt lat="44.8654133" lon="8.0768433"><ele>192.5</ele><time>2026-04-19T07:28:09.099Z</time></trkpt><trkpt lat="44.8654067" lon="8.076945"><ele>192.0</ele><time>2026-04-19T07:28:10.094Z</time></trkpt><trkpt lat="44.8653967" lon="8.0770417"><ele>190.0</ele><time>2026-04-19T07:28:11.142Z</time></trkpt><trkpt lat="44.8653883" lon="8.0772033"><ele>188.0</ele><time>2026-04-19T07:28:13.097Z</time></trkpt><trkpt lat="44.865435" lon="8.0772817"><ele>186.0</ele><time>2026-04-19T07:28:15.094Z</time></trkpt><trkpt lat="44.865525" lon="8.0773183"><ele>184.0</ele><time>2026-04-19T07:28:17.137Z</time></trkpt><trkpt lat="44.8656133" lon="8.0773683"><ele>182.0</ele><time>2026-04-19T07:28:19.087Z</time></trkpt><trkpt lat="44.865685" lon="8.07742"><ele>180.5</ele><time>2026-04-19T07:28:21.101Z</time></trkpt><trkpt lat="44.86576" lon="8.0774683"><ele>179.0</ele><time>2026-04-19T07:28:24.096Z</time></trkpt><trkpt lat="44.8657683" lon="8.0775667"><ele>177.5</ele><time>2026-04-19T07:28:34.114Z</time></trkpt><trkpt lat="44.8657367" lon="8.07771"><ele>176.0</ele><time>2026-04-19T07:28:41.137Z</time></trkpt><trkpt lat="44.8657333" lon="8.07781"><ele>174.5</ele><time>2026-04-19T07:28:44.096Z</time></trkpt><trkpt lat="44.8657767" lon="8.0778817"><ele>173.0</ele><time>2026-04-19T07:28:46.095Z</time></trkpt><trkpt lat="44.8658283" lon="8.0779533"><ele>173.0</ele><time>2026-04-19T07:28:48.089Z</time></trkpt><trkpt lat="44.8658733" lon="8.0780167"><ele>173.0</ele><time>2026-04-19T07:28:50.098Z</time></trkpt><trkpt lat="44.8658917" lon="8.0781333"><ele>173.0</ele><time>2026-04-19T07:28:53.137Z</time></trkpt><trkpt lat="44.8658933" lon="8.0782283"><ele>173.0</ele><time>2026-04-19T07:28:55.104Z</time></trkpt><trkpt lat="44.8659117" lon="8.0783133"><ele>173.0</ele><time>2026-04-19T07:28:57.102Z</time></trkpt><trkpt lat="44.8658983" lon="8.0784033"><ele>173.0</ele><time>2026-04-19T07:28:59.163Z</time></trkpt><trkpt lat="44.865885" lon="8.0784967"><ele>173.0</ele><time>2026-04-19T07:29:01.106Z</time></trkpt><trkpt lat="44.8658417" lon="8.0785767"><ele>173.0</ele><time>2026-04-19T07:29:04.097Z</time></trkpt><trkpt lat="44.8658117" lon="8.0786733"><ele>173.0</ele><time>2026-04-19T07:29:08.087Z</time></trkpt><trkpt lat="44.86582" lon="8.0787933"><ele>173.0</ele><time>2026-04-19T07:29:10.089Z</time></trkpt><trkpt lat="44.8658367" lon="8.0789"><ele>173.0</ele><time>2026-04-19T07:29:13.099Z</time></trkpt><trkpt lat="44.8658417" lon="8.0790067"><ele>173.0</ele><time>2026-04-19T07:29:15.099Z</time></trkpt><trkpt lat="44.865815" lon="8.0791233"><ele>173.0</ele><time>2026-04-19T07:29:17.139Z</time></trkpt><trkpt lat="44.8657767" lon="8.0792533"><ele>173.0</ele><time>2026-04-19T07:29:19.094Z</time></trkpt><trkpt lat="44.8657217" lon="8.07935"><ele>173.0</ele><time>2026-04-19T07:29:21.091Z</time></trkpt><trkpt lat="44.8656783" lon="8.0794983"><ele>173.0</ele><time>2026-04-19T07:29:48.095Z</time></trkpt><trkpt lat="44.8656483" lon="8.0796067"><ele>173.0</ele><time>2026-04-19T07:29:52.103Z</time></trkpt><trkpt lat="44.8655783" lon="8.0797233"><ele>173.0</ele><time>2026-04-19T07:29:55.087Z</time></trkpt><trkpt lat="44.8655383" lon="8.07986"><ele>172.66666666666666</ele><time>2026-04-19T07:30:23.13Z</time></trkpt><trkpt lat="44.8655533" lon="8.0800167"><ele>172.33333333333331</ele><time>2026-04-19T07:30:42.094Z</time></trkpt><trkpt lat="44.8654667" lon="8.08003"><ele>172.0</ele><time>2026-04-19T07:30:43.1Z</time></trkpt><trkpt lat="44.8655233" lon="8.080135"><ele>171.66666666666666</ele><time>2026-04-19T07:30:56.099Z</time></trkpt><trkpt lat="44.86544" lon="8.0800983"><ele>171.33333333333334</ele><time>2026-04-19T07:38:05.116Z</time></trkpt><trkpt lat="44.8655033" lon="8.0800883"><ele>171.0</ele><time>2026-04-19T07:48:04.099Z</time></trkpt><trkpt lat="44.865565" lon="8.080035"><ele>171.0</ele><time>2026-04-19T07:48:07.097Z</time></trkpt><trkpt lat="44.86559" lon="8.0799467"><ele>171.0</ele><time>2026-04-19T07:48:14.089Z</time></trkpt><trkpt lat="44.8656167" lon="8.079855"><ele>171.0</ele><time>2026-04-19T07:48:19.092Z</time></trkpt><trkpt lat="44.8656167" lon="8.0797633"><ele>171.0</ele><time>2026-04-19T07:48:23.147Z</time></trkpt><trkpt lat="44.8656417" lon="8.0796567"><ele>171.0</ele><time>2026-04-19T07:48:28.101Z</time></trkpt><trkpt lat="44.86567" lon="8.0795333"><ele>171.0</ele><time>2026-04-19T07:48:33.096Z</time></trkpt><trkpt lat="44.8657283" lon="8.0794433"><ele>170.99999999999997</ele><time>2026-04-19T07:48:36.088Z</time></trkpt><trkpt lat="44.8657583" lon="8.079345"><ele>171.0</ele><time>2026-04-19T07:48:39.096Z</time></trkpt><trkpt lat="44.8657833" lon="8.079255"><ele>171.0</ele><time>2026-04-19T07:48:42.095Z</time></trkpt><trkpt lat="44.865805" lon="8.079155"><ele>171.0</ele><time>2026-04-19T07:48:44.105Z</time></trkpt><trkpt lat="44.8658117" lon="8.0790417"><ele>171.0</ele><time>2026-04-19T07:48:46.094Z</time></trkpt><trkpt lat="44.865815" lon="8.0789483"><ele>170.99999999999997</ele><time>2026-04-19T07:48:49.095Z</time></trkpt><trkpt lat="44.865845" lon="8.0788383"><ele>171.0</ele><time>2026-04-19T07:48:53.154Z</time></trkpt><trkpt lat="44.865875" lon="8.07875"><ele>171.0</ele><time>2026-04-19T07:48:56.096Z</time></trkpt><trkpt lat="44.86589" lon="8.078625"><ele>171.0</ele><time>2026-04-19T07:48:59.156Z</time></trkpt><trkpt lat="44.8658917" lon="8.0784917"><ele>171.0</ele><time>2026-04-19T07:49:02.098Z</time></trkpt><trkpt lat="44.8659083" lon="8.0784"><ele>171.0</ele><time>2026-04-19T07:49:04.097Z</time></trkpt><trkpt lat="44.865905" lon="8.0782367"><ele>171.0</ele><time>2026-04-19T07:49:10.091Z</time></trkpt><trkpt lat="44.865845" lon="8.0781417"><ele>171.33333333333334</ele><time>2026-04-19T07:49:12.097Z</time></trkpt><trkpt lat="44.865785" lon="8.0780333"><ele>171.66666666666666</ele><time>2026-04-19T07:49:14.097Z</time></trkpt><trkpt lat="44.86575" lon="8.0779433"><ele>172.0</ele><time>2026-04-19T07:49:16.093Z</time></trkpt><trkpt lat="44.8657733" lon="8.0778567"><ele>172.33333333333331</ele><time>2026-04-19T07:49:19.101Z</time></trkpt><trkpt lat="44.8658" lon="8.0777383"><ele>172.66666666666666</ele><time>2026-04-19T07:49:26.094Z</time></trkpt><trkpt lat="44.86583" lon="8.0776433"><ele>173.0</ele><time>2026-04-19T07:49:30.093Z</time></trkpt><trkpt lat="44.8658" lon="8.0775367"><ele>173.0</ele><time>2026-04-19T07:49:49.099Z</time></trkpt><trkpt lat="44.8657233" lon="8.077505"><ele>173.0</ele><time>2026-04-19T07:49:52.088Z</time></trkpt><trkpt lat="44.8658133" lon="8.077525"><ele>173.0</ele><time>2026-04-19T07:50:01.09Z</time></trkpt><trkpt lat="44.8659117" lon="8.0776033"><ele>173.0</ele><time>2026-04-19T07:50:03.103Z</time></trkpt><trkpt lat="44.86602" lon="8.07766"><ele>173.0</ele><time>2026-04-19T07:50:05.151Z</time></trkpt><trkpt lat="44.8661083" lon="8.0777067"><ele>173.2</ele><time>2026-04-19T07:50:07.093Z</time></trkpt><trkpt lat="44.8661783" lon="8.0778033"><ele>173.4</ele><time>2026-04-19T07:50:09.097Z</time></trkpt><trkpt lat="44.86623" lon="8.07789"><ele>173.6</ele><time>2026-04-19T07:50:10.094Z</time></trkpt><trkpt lat="44.866295" lon="8.0779883"><ele>173.79999999999998</ele><time>2026-04-19T07:50:11.143Z</time></trkpt><trkpt lat="44.86637" lon="8.07809"><ele>174.0</ele><time>2026-04-19T07:50:12.096Z</time></trkpt><trkpt lat="44.86645" lon="8.078195"><ele>173.79999999999998</ele><time>2026-04-19T07:50:13.1Z</time></trkpt><trkpt lat="44.86653" lon="8.0783"><ele>173.6</ele><time>2026-04-19T07:50:14.097Z</time></trkpt><trkpt lat="44.8666067" lon="8.078395"><ele>173.4</ele><time>2026-04-19T07:50:15.098Z</time></trkpt><trkpt lat="44.86668" lon="8.0784717"><ele>173.2</ele><time>2026-04-19T07:50:16.096Z</time></trkpt><trkpt lat="44.8667433" lon="8.07853"><ele>173.0</ele><time>2026-04-19T07:50:17.146Z</time></trkpt><trkpt lat="44.8668167" lon="8.0786083"><ele>173.0</ele><time>2026-04-19T07:50:19.099Z</time></trkpt><trkpt lat="44.8668533" lon="8.07869"><ele>173.0</ele><time>2026-04-19T07:50:26.092Z</time></trkpt><trkpt lat="44.86689" lon="8.0788217"><ele>173.0</ele><time>2026-04-19T07:50:28.085Z</time></trkpt><trkpt lat="44.8669233" lon="8.0789367"><ele>173.0</ele><time>2026-04-19T07:50:30.096Z</time></trkpt><trkpt lat="44.8669133" lon="8.0790383"><ele>173.0</ele><time>2026-04-19T07:50:33.101Z</time></trkpt><trkpt lat="44.86683" lon="8.079065"><ele>173.0</ele><time>2026-04-19T07:50:35.125Z</time></trkpt><trkpt lat="44.8667633" lon="8.07908"><ele>173.0</ele><time>2026-04-19T07:50:36.093Z</time></trkpt><trkpt lat="44.866685" lon="8.079095"><ele>173.0</ele><time>2026-04-19T07:50:37.1Z</time></trkpt><trkpt lat="44.8666067" lon="8.0791067"><ele>173.0</ele><time>2026-04-19T07:50:38.097Z</time></trkpt><trkpt lat="44.86653" lon="8.0791183"><ele>173.0</ele><time>2026-04-19T07:50:39.101Z</time></trkpt><trkpt lat="44.8664667" lon="8.07913"><ele>173.0</ele><time>2026-04-19T07:50:40.1Z</time></trkpt><trkpt lat="44.8663617" lon="8.07916"><ele>173.0</ele><time>2026-04-19T07:50:42.093Z</time></trkpt><trkpt lat="44.8662733" lon="8.0792267"><ele>173.60000000000002</ele><time>2026-04-19T07:50:44.092Z</time></trkpt><trkpt lat="44.866195" lon="8.0793317"><ele>174.20000000000002</ele><time>2026-04-19T07:50:46.096Z</time></trkpt><trkpt lat="44.86613" lon="8.0794917"><ele>174.8</ele><time>2026-04-19T07:50:48.095Z</time></trkpt><trkpt lat="44.8660983" lon="8.0795883"><ele>175.4</ele><time>2026-04-19T07:50:49.104Z</time></trkpt><trkpt lat="44.8660667" lon="8.07969"><ele>176.0</ele><time>2026-04-19T07:50:50.089Z</time></trkpt><trkpt lat="44.8660417" lon="8.079785"><ele>176.0</ele><time>2026-04-19T07:50:51.099Z</time></trkpt><trkpt lat="44.8660183" lon="8.0798783"><ele>176.0</ele><time>2026-04-19T07:50:52.091Z</time></trkpt><trkpt lat="44.866" lon="8.0799783"><ele>176.0</ele><time>2026-04-19T07:50:53.146Z</time></trkpt><trkpt lat="44.8659833" lon="8.0800817"><ele>176.0</ele><time>2026-04-19T07:50:54.09Z</time></trkpt><trkpt lat="44.8659717" lon="8.0801817"><ele>176.0</ele><time>2026-04-19T07:50:55.093Z</time></trkpt><trkpt lat="44.865965" lon="8.080275"><ele>176.0</ele><time>2026-04-19T07:50:56.094Z</time></trkpt><trkpt lat="44.8659617" lon="8.080365"><ele>176.0</ele><time>2026-04-19T07:50:57.096Z</time></trkpt><trkpt lat="44.865955" lon="8.0804617"><ele>176.16666666666666</ele><time>2026-04-19T07:50:58.087Z</time></trkpt><trkpt lat="44.86595" lon="8.08056"><ele>176.33333333333331</ele><time>2026-04-19T07:50:59.157Z</time></trkpt><trkpt lat="44.8659483" lon="8.0806667"><ele>176.5</ele><time>2026-04-19T07:51:00.086Z</time></trkpt><trkpt lat="44.8659467" lon="8.0807733"><ele>176.66666666666666</ele><time>2026-04-19T07:51:01.095Z</time></trkpt><trkpt lat="44.8659467" lon="8.0808683"><ele>176.83333333333334</ele><time>2026-04-19T07:51:02.098Z</time></trkpt><trkpt lat="44.8659483" lon="8.081035"><ele>177.0</ele><time>2026-04-19T07:51:04.098Z</time></trkpt><trkpt lat="44.8659583" lon="8.0811633"><ele>177.0</ele><time>2026-04-19T07:51:06.091Z</time></trkpt><trkpt lat="44.8659783" lon="8.0813"><ele>177.0</ele><time>2026-04-19T07:51:09.095Z</time></trkpt><trkpt lat="44.865995" lon="8.0814333"><ele>177.0</ele><time>2026-04-19T07:51:11.149Z</time></trkpt><trkpt lat="44.8660017" lon="8.0815517"><ele>177.0</ele><time>2026-04-19T07:51:13.099Z</time></trkpt><trkpt lat="44.86599" lon="8.0816917"><ele>177.0</ele><time>2026-04-19T07:51:15.095Z</time></trkpt><trkpt lat="44.8659933" lon="8.08182"><ele>176.0</ele><time>2026-04-19T07:51:17.149Z</time></trkpt><trkpt lat="44.8660133" lon="8.0819367"><ele>175.0</ele><time>2026-04-19T07:51:19.098Z</time></trkpt><trkpt lat="44.8660567" lon="8.0820517"><ele>174.0</ele><time>2026-04-19T07:52:10.091Z</time></trkpt><trkpt lat="44.8660367" lon="8.0821367"><ele>173.0</ele><time>2026-04-19T07:52:13.103Z</time></trkpt><trkpt lat="44.865945" lon="8.082215"><ele>172.0</ele><time>2026-04-19T07:52:16.095Z</time></trkpt><trkpt lat="44.8658367" lon="8.0822633"><ele>171.16666666666669</ele><time>2026-04-19T07:52:18.094Z</time></trkpt><trkpt lat="44.86573" lon="8.08231"><ele>170.33333333333334</ele><time>2026-04-19T07:52:20.097Z</time></trkpt><trkpt lat="44.86566" lon="8.082355"><ele>169.5</ele><time>2026-04-19T07:52:22.093Z</time></trkpt><trkpt lat="44.8656433" lon="8.0824617"><ele>168.66666666666666</ele><time>2026-04-19T07:52:31.095Z</time></trkpt><trkpt lat="44.8656717" lon="8.082545"><ele>167.83333333333331</ele><time>2026-04-19T07:52:35.145Z</time></trkpt><trkpt lat="44.865625" lon="8.0826667"><ele>167.0</ele><time>2026-04-19T07:52:46.093Z</time></trkpt><trkpt lat="44.8655983" lon="8.0827483"><ele>167.0</ele><time>2026-04-19T07:52:48.089Z</time></trkpt><trkpt lat="44.865565" lon="8.0828583"><ele>167.0</ele><time>2026-04-19T07:52:51.097Z</time></trkpt><trkpt lat="44.8655417" lon="8.0829617"><ele>167.0</ele><time>2026-04-19T07:52:54.095Z</time></trkpt><trkpt lat="44.8655517" lon="8.08308"><ele>167.0</ele><time>2026-04-19T07:52:57.098Z</time></trkpt><trkpt lat="44.865535" lon="8.0831767"><ele>167.0</ele><time>2026-04-19T07:53:00.094Z</time></trkpt><trkpt lat="44.8654917" lon="8.08325"><ele>167.0</ele><time>2026-04-19T07:53:02.099Z</time></trkpt><trkpt lat="44.8654433" lon="8.0833883"><ele>167.0</ele><time>2026-04-19T07:53:48.092Z</time></trkpt><trkpt lat="44.865455" lon="8.08352"><ele>167.0</ele><time>2026-04-19T07:53:50.091Z</time></trkpt><trkpt lat="44.86547" lon="8.08361"><ele>167.0</ele><time>2026-04-19T07:53:51.088Z</time></trkpt><trkpt lat="44.8654933" lon="8.0837167"><ele>167.0</ele><time>2026-04-19T07:53:52.09Z</time></trkpt><trkpt lat="44.86553" lon="8.0838367"><ele>167.0</ele><time>2026-04-19T07:53:53.139Z</time></trkpt><trkpt lat="44.865575" lon="8.0839667"><ele>167.0</ele><time>2026-04-19T07:53:54.088Z</time></trkpt><trkpt lat="44.8656283" lon="8.0840983"><ele>168.0</ele><time>2026-04-19T07:53:55.091Z</time></trkpt><trkpt lat="44.8656817" lon="8.0842183"><ele>169.0</ele><time>2026-04-19T07:53:56.098Z</time></trkpt><trkpt lat="44.8657333" lon="8.0843483"><ele>170.0</ele><time>2026-04-19T07:53:57.095Z</time></trkpt><trkpt lat="44.865785" lon="8.0844867"><ele>171.0</ele><time>2026-04-19T07:53:58.096Z</time></trkpt><trkpt lat="44.86583" lon="8.0846183"><ele>172.0</ele><time>2026-04-19T07:53:59.162Z</time></trkpt><trkpt lat="44.8658767" lon="8.0847367"><ele>172.0</ele><time>2026-04-19T07:54:00.094Z</time></trkpt><trkpt lat="44.865915" lon="8.0848433"><ele>172.0</ele><time>2026-04-19T07:54:01.096Z</time></trkpt><trkpt lat="44.86595" lon="8.08493"><ele>172.0</ele><time>2026-04-19T07:54:02.096Z</time></trkpt><trkpt lat="44.86601" lon="8.085045"><ele>172.0</ele><time>2026-04-19T07:54:04.097Z</time></trkpt><trkpt lat="44.86608" lon="8.0850283"><ele>172.0</ele><time>2026-04-19T07:54:07.096Z</time></trkpt><trkpt lat="44.86616" lon="8.0849733"><ele>172.0</ele><time>2026-04-19T07:54:10.096Z</time></trkpt><trkpt lat="44.866255" lon="8.085045"><ele>171.16666666666669</ele><time>2026-04-19T07:54:21.089Z</time></trkpt><trkpt lat="44.8662917" lon="8.0851483"><ele>170.33333333333334</ele><time>2026-04-19T07:54:23.135Z</time></trkpt><trkpt lat="44.8663567" lon="8.085205"><ele>169.5</ele><time>2026-04-19T07:54:36.09Z</time></trkpt><trkpt lat="44.8664383" lon="8.0852733"><ele>168.66666666666666</ele><time>2026-04-19T07:54:39.091Z</time></trkpt><trkpt lat="44.8664717" lon="8.0853533"><ele>167.83333333333331</ele><time>2026-04-19T07:54:44.09Z</time></trkpt><trkpt lat="44.8665633" lon="8.085355"><ele>167.0</ele><time>2026-04-19T07:56:14.097Z</time></trkpt><trkpt lat="44.86649" lon="8.0854267"><ele>167.0</ele><time>2026-04-19T07:59:01.098Z</time></trkpt><trkpt lat="44.8665017" lon="8.08559"><ele>167.0</ele><time>2026-04-19T07:59:14.097Z</time></trkpt><trkpt lat="44.8665167" lon="8.0856867"><ele>167.0</ele><time>2026-04-19T07:59:17.091Z</time></trkpt><trkpt lat="44.86649" lon="8.0857933"><ele>167.0</ele><time>2026-04-19T07:59:24.092Z</time></trkpt><trkpt lat="44.8664567" lon="8.0858717"><ele>167.0</ele><time>2026-04-19T07:59:28.1Z</time></trkpt><trkpt lat="44.8664533" lon="8.0859783"><ele>167.0</ele><time>2026-04-19T07:59:31.092Z</time></trkpt><trkpt lat="44.8664033" lon="8.0860683"><ele>166.83333333333331</ele><time>2026-04-19T07:59:35.153Z</time></trkpt><trkpt lat="44.86636" lon="8.0862167"><ele>166.66666666666666</ele><time>2026-04-19T07:59:45.092Z</time></trkpt><trkpt lat="44.866325" lon="8.0863133"><ele>166.5</ele><time>2026-04-19T07:59:48.091Z</time></trkpt><trkpt lat="44.866335" lon="8.0864217"><ele>166.33333333333334</ele><time>2026-04-19T07:59:53.085Z</time></trkpt><trkpt lat="44.8663417" lon="8.086555"><ele>166.16666666666669</ele><time>2026-04-19T08:00:00.091Z</time></trkpt><trkpt lat="44.866405" lon="8.086635"><ele>166.0</ele><time>2026-04-19T08:00:07.098Z</time></trkpt><trkpt lat="44.8664583" lon="8.0867433"><ele>165.33333333333334</ele><time>2026-04-19T08:00:10.098Z</time></trkpt><trkpt lat="44.8665267" lon="8.0868283"><ele>164.66666666666669</ele><time>2026-04-19T08:00:13.091Z</time></trkpt><trkpt lat="44.8665667" lon="8.0869017"><ele>164.0</ele><time>2026-04-19T08:00:16.094Z</time></trkpt><trkpt lat="44.86662" lon="8.0869717"><ele>163.33333333333334</ele><time>2026-04-19T08:00:19.09Z</time></trkpt><trkpt lat="44.866665" lon="8.08705"><ele>162.66666666666666</ele><time>2026-04-19T08:00:22.095Z</time></trkpt><trkpt lat="44.8667117" lon="8.0871517"><ele>162.0</ele><time>2026-04-19T08:00:25.09Z</time></trkpt><trkpt lat="44.8667683" lon="8.0872133"><ele>162.83333333333334</ele><time>2026-04-19T08:00:27.102Z</time></trkpt><trkpt lat="44.8668233" lon="8.08728"><ele>163.66666666666666</ele><time>2026-04-19T08:00:29.119Z</time></trkpt><trkpt lat="44.8668667" lon="8.0874383"><ele>164.5</ele><time>2026-04-19T08:00:46.091Z</time></trkpt><trkpt lat="44.866895" lon="8.0875217"><ele>165.33333333333331</ele><time>2026-04-19T08:00:48.093Z</time></trkpt><trkpt lat="44.8669183" lon="8.0876317"><ele>166.16666666666666</ele><time>2026-04-19T08:00:51.091Z</time></trkpt><trkpt lat="44.86696" lon="8.08774"><ele>167.0</ele><time>2026-04-19T08:00:54.091Z</time></trkpt><trkpt lat="44.867055" lon="8.0879483"><ele>167.0</ele><time>2026-04-19T08:01:39.094Z</time></trkpt><trkpt lat="44.86711" lon="8.0880033"><ele>167.0</ele><time>2026-04-19T08:01:43.094Z</time></trkpt><trkpt lat="44.8672133" lon="8.0881333"><ele>167.0</ele><time>2026-04-19T08:01:56.095Z</time></trkpt><trkpt lat="44.8673083" lon="8.088195"><ele>167.0</ele><time>2026-04-19T08:02:05.158Z</time></trkpt><trkpt lat="44.8674083" lon="8.0883683"><ele>167.2</ele><time>2026-04-19T08:02:46.091Z</time></trkpt><trkpt lat="44.867445" lon="8.0884967"><ele>167.39999999999998</ele><time>2026-04-19T08:04:25.092Z</time></trkpt><trkpt lat="44.867515" lon="8.0886017"><ele>167.60000000000002</ele><time>2026-04-19T08:04:27.085Z</time></trkpt><trkpt lat="44.8675883" lon="8.088705"><ele>167.8</ele><time>2026-04-19T08:04:29.165Z</time></trkpt><trkpt lat="44.86765" lon="8.088795"><ele>168.0</ele><time>2026-04-19T08:04:31.091Z</time></trkpt><trkpt lat="44.867725" lon="8.0888683"><ele>168.0</ele><time>2026-04-19T08:04:33.099Z</time></trkpt><trkpt lat="44.8677833" lon="8.0889517"><ele>168.0</ele><time>2026-04-19T08:04:35.158Z</time></trkpt><trkpt lat="44.8678217" lon="8.0890283"><ele>168.0</ele><time>2026-04-19T08:04:37.091Z</time></trkpt><trkpt lat="44.867845" lon="8.0891167"><ele>168.0</ele><time>2026-04-19T08:04:39.09Z</time></trkpt><trkpt lat="44.8678633" lon="8.0892117"><ele>168.0</ele><time>2026-04-19T08:04:41.11Z</time></trkpt><trkpt lat="44.8679033" lon="8.0893033"><ele>168.0</ele><time>2026-04-19T08:04:43.097Z</time></trkpt><trkpt lat="44.8679733" lon="8.0893767"><ele>167.5</ele><time>2026-04-19T08:04:45.089Z</time></trkpt><trkpt lat="44.8680517" lon="8.089455"><ele>167.0</ele><time>2026-04-19T08:04:47.109Z</time></trkpt><trkpt lat="44.8681317" lon="8.0895633"><ele>166.5</ele><time>2026-04-19T08:04:49.088Z</time></trkpt><trkpt lat="44.8681917" lon="8.0896483"><ele>166.0</ele><time>2026-04-19T08:04:51.092Z</time></trkpt><trkpt lat="44.8682267" lon="8.0897267"><ele>165.5</ele><time>2026-04-19T08:04:53.106Z</time></trkpt><trkpt lat="44.8682683" lon="8.089805"><ele>165.0</ele><time>2026-04-19T08:04:55.096Z</time></trkpt><trkpt lat="44.8683" lon="8.0899033"><ele>164.5</ele><time>2026-04-19T08:04:57.095Z</time></trkpt><trkpt lat="44.8683417" lon="8.09"><ele>164.0</ele><time>2026-04-19T08:04:59.156Z</time></trkpt><trkpt lat="44.8683683" lon="8.0900933"><ele>163.5</ele><time>2026-04-19T08:05:01.09Z</time></trkpt><trkpt lat="44.86838" lon="8.0902083"><ele>163.0</ele><time>2026-04-19T08:05:03.087Z</time></trkpt><trkpt lat="44.8684067" lon="8.0903233"><ele>162.5</ele><time>2026-04-19T08:05:05.154Z</time></trkpt><trkpt lat="44.8684333" lon="8.0904367"><ele>162.0</ele><time>2026-04-19T08:05:07.097Z</time></trkpt><trkpt lat="44.868485" lon="8.0905667"><ele>162.0</ele><time>2026-04-19T08:05:09.091Z</time></trkpt><trkpt lat="44.8685367" lon="8.0906833"><ele>162.0</ele><time>2026-04-19T08:05:11.11Z</time></trkpt><trkpt lat="44.8685783" lon="8.0907767"><ele>162.0</ele><time>2026-04-19T08:05:14.095Z</time></trkpt><trkpt lat="44.8685933" lon="8.0908933"><ele>162.0</ele><time>2026-04-19T08:05:18.098Z</time></trkpt><trkpt lat="44.868635" lon="8.09098"><ele>162.0</ele><time>2026-04-19T08:05:20.094Z</time></trkpt><trkpt lat="44.8686783" lon="8.091065"><ele>162.0</ele><time>2026-04-19T08:05:22.097Z</time></trkpt><trkpt lat="44.86871" lon="8.0911667"><ele>161.57142857142858</ele><time>2026-04-19T08:05:24.088Z</time></trkpt><trkpt lat="44.8687383" lon="8.0912567"><ele>161.14285714285714</ele><time>2026-04-19T08:05:27.094Z</time></trkpt><trkpt lat="44.8687867" lon="8.09134"><ele>160.71428571428572</ele><time>2026-04-19T08:05:30.085Z</time></trkpt><trkpt lat="44.8687833" lon="8.09144"><ele>160.28571428571428</ele><time>2026-04-19T08:05:34.093Z</time></trkpt><trkpt lat="44.8688117" lon="8.0915583"><ele>159.85714285714286</ele><time>2026-04-19T08:05:37.096Z</time></trkpt><trkpt lat="44.8688333" lon="8.0916517"><ele>159.42857142857142</ele><time>2026-04-19T08:05:39.101Z</time></trkpt><trkpt lat="44.8688117" lon="8.0917467"><ele>159.0</ele><time>2026-04-19T08:05:42.096Z</time></trkpt><trkpt lat="44.8687633" lon="8.091805"><ele>159.0</ele><time>2026-04-19T08:05:44.1Z</time></trkpt><trkpt lat="44.8687317" lon="8.0919217"><ele>159.0</ele><time>2026-04-19T08:05:47.109Z</time></trkpt><trkpt lat="44.8687717" lon="8.092015"><ele>159.0</ele><time>2026-04-19T08:05:50.101Z</time></trkpt><trkpt lat="44.868825" lon="8.0920817"><ele>159.0</ele><time>2026-04-19T08:05:52.09Z</time></trkpt><trkpt lat="44.86888" lon="8.0921617"><ele>159.0</ele><time>2026-04-19T08:05:54.092Z</time></trkpt><trkpt lat="44.8689117" lon="8.0922667"><ele>159.0</ele><time>2026-04-19T08:05:56.094Z</time></trkpt><trkpt lat="44.8689733" lon="8.0923583"><ele>159.0</ele><time>2026-04-19T08:13:56.084Z</time></trkpt><trkpt lat="44.869045" lon="8.0923533"><ele>159.0</ele><time>2026-04-19T08:13:58.094Z</time></trkpt><trkpt lat="44.8691283" lon="8.0923"><ele>159.0</ele><time>2026-04-19T08:14:00.083Z</time></trkpt><trkpt lat="44.8691917" lon="8.0922667"><ele>159.0</ele><time>2026-04-19T08:14:01.097Z</time></trkpt><trkpt lat="44.8692667" lon="8.0922233"><ele>159.0</ele><time>2026-04-19T08:14:02.089Z</time></trkpt><trkpt lat="44.8693533" lon="8.0921733"><ele>159.0</ele><time>2026-04-19T08:14:03.094Z</time></trkpt><trkpt lat="44.869445" lon="8.0921233"><ele>159.0</ele><time>2026-04-19T08:14:04.085Z</time></trkpt><trkpt lat="44.8695417" lon="8.092075"><ele>159.0</ele><time>2026-04-19T08:14:05.151Z</time></trkpt><trkpt lat="44.8696467" lon="8.0920217"><ele>159.0</ele><time>2026-04-19T08:14:06.085Z</time></trkpt><trkpt lat="44.869765" lon="8.09197"><ele>159.0</ele><time>2026-04-19T08:14:07.091Z</time></trkpt><trkpt lat="44.8698867" lon="8.091915"><ele>159.0</ele><time>2026-04-19T08:14:08.091Z</time></trkpt><trkpt lat="44.8700167" lon="8.0918583"><ele>159.0</ele><time>2026-04-19T08:14:09.096Z</time></trkpt><trkpt lat="44.8701433" lon="8.091795"><ele>159.0</ele><time>2026-04-19T08:14:10.091Z</time></trkpt><trkpt lat="44.8702633" lon="8.091735"><ele>159.0</ele><time>2026-04-19T08:14:11.127Z</time></trkpt><trkpt lat="44.87039" lon="8.0916833"><ele>160.5</ele><time>2026-04-19T08:14:12.089Z</time></trkpt><trkpt lat="44.8705133" lon="8.0916383"><ele>162.0</ele><time>2026-04-19T08:14:13.09Z</time></trkpt><trkpt lat="44.8706333" lon="8.091595"><ele>163.5</ele><time>2026-04-19T08:14:14.098Z</time></trkpt><trkpt lat="44.87075" lon="8.09155"><ele>165.0</ele><time>2026-04-19T08:14:15.093Z</time></trkpt><trkpt lat="44.87086" lon="8.0915067"><ele>165.5</ele><time>2026-04-19T08:14:16.097Z</time></trkpt><trkpt lat="44.8709567" lon="8.09148"><ele>166.0</ele><time>2026-04-19T08:14:17.125Z</time></trkpt><trkpt lat="44.871045" lon="8.09147"><ele>166.5</ele><time>2026-04-19T08:14:18.086Z</time></trkpt><trkpt lat="44.8711167" lon="8.0914767"><ele>167.0</ele><time>2026-04-19T08:14:19.099Z</time></trkpt><trkpt lat="44.8712333" lon="8.0914933"><ele>167.5</ele><time>2026-04-19T08:14:21.095Z</time></trkpt><trkpt lat="44.8713033" lon="8.0914867"><ele>168.0</ele><time>2026-04-19T08:14:22.086Z</time></trkpt><trkpt lat="44.871375" lon="8.0914783"><ele>168.0</ele><time>2026-04-19T08:14:23.125Z</time></trkpt><trkpt lat="44.87144" lon="8.09147"><ele>168.0</ele><time>2026-04-19T08:14:24.092Z</time></trkpt><trkpt lat="44.8715417" lon="8.0914683"><ele>168.0</ele><time>2026-04-19T08:14:26.084Z</time></trkpt><trkpt lat="44.8716483" lon="8.091625"><ele>168.0</ele><time>2026-04-19T08:14:28.095Z</time></trkpt><trkpt lat="44.8717017" lon="8.0917467"><ele>168.0</ele><time>2026-04-19T08:14:29.154Z</time></trkpt><trkpt lat="44.8717583" lon="8.091875"><ele>167.8</ele><time>2026-04-19T08:14:30.095Z</time></trkpt><trkpt lat="44.8718217" lon="8.0920067"><ele>167.60000000000002</ele><time>2026-04-19T08:14:31.093Z</time></trkpt><trkpt lat="44.8718867" lon="8.0921233"><ele>167.39999999999998</ele><time>2026-04-19T08:14:32.093Z</time></trkpt><trkpt lat="44.8719633" lon="8.092215"><ele>167.2</ele><time>2026-04-19T08:14:33.092Z</time></trkpt><trkpt lat="44.8720617" lon="8.09226"><ele>167.0</ele><time>2026-04-19T08:14:34.094Z</time></trkpt><trkpt lat="44.872165" lon="8.0922867"><ele>167.0</ele><time>2026-04-19T08:14:35.162Z</time></trkpt><trkpt lat="44.8722733" lon="8.0922833"><ele>167.0</ele><time>2026-04-19T08:14:36.09Z</time></trkpt><trkpt lat="44.8724017" lon="8.0922333"><ele>167.0</ele><time>2026-04-19T08:14:37.093Z</time></trkpt><trkpt lat="44.8725283" lon="8.09219"><ele>167.0</ele><time>2026-04-19T08:14:38.082Z</time></trkpt><trkpt lat="44.872655" lon="8.0921467"><ele>166.75</ele><time>2026-04-19T08:14:39.093Z</time></trkpt><trkpt lat="44.872785" lon="8.092115"><ele>166.5</ele><time>2026-04-19T08:14:40.093Z</time></trkpt><trkpt lat="44.8729183" lon="8.09209"><ele>166.25</ele><time>2026-04-19T08:14:41.122Z</time></trkpt><trkpt lat="44.8730517" lon="8.0920683"><ele>166.0</ele><time>2026-04-19T08:14:42.084Z</time></trkpt><trkpt lat="44.8731833" lon="8.0920433"><ele>166.0</ele><time>2026-04-19T08:14:43.083Z</time></trkpt><trkpt lat="44.8733167" lon="8.0920133"><ele>166.0</ele><time>2026-04-19T08:14:44.086Z</time></trkpt><trkpt lat="44.8734483" lon="8.09199"><ele>166.0</ele><time>2026-04-19T08:14:45.095Z</time></trkpt><trkpt lat="44.8735767" lon="8.0919683"><ele>166.0</ele><time>2026-04-19T08:14:46.095Z</time></trkpt><trkpt lat="44.8737033" lon="8.0919483"><ele>166.0</ele><time>2026-04-19T08:14:47.127Z</time></trkpt><trkpt lat="44.87383" lon="8.0919267"><ele>166.0</ele><time>2026-04-19T08:14:48.085Z</time></trkpt><trkpt lat="44.8739517" lon="8.091905"><ele>166.0</ele><time>2026-04-19T08:14:49.087Z</time></trkpt><trkpt lat="44.8740667" lon="8.091885"><ele>166.0</ele><time>2026-04-19T08:14:50.092Z</time></trkpt><trkpt lat="44.8741683" lon="8.0918667"><ele>166.0</ele><time>2026-04-19T08:14:51.092Z</time></trkpt><trkpt lat="44.8742567" lon="8.0918517"><ele>166.0</ele><time>2026-04-19T08:14:52.089Z</time></trkpt><trkpt lat="44.8743383" lon="8.0918333"><ele>166.0</ele><time>2026-04-19T08:14:53.127Z</time></trkpt><trkpt lat="44.87442" lon="8.0918167"><ele>166.0</ele><time>2026-04-19T08:14:54.089Z</time></trkpt><trkpt lat="44.8745017" lon="8.0918033"><ele>166.0</ele><time>2026-04-19T08:14:55.097Z</time></trkpt><trkpt lat="44.8745817" lon="8.0917833"><ele>166.0</ele><time>2026-04-19T08:14:56.098Z</time></trkpt><trkpt lat="44.8746683" lon="8.091765"><ele>166.0</ele><time>2026-04-19T08:14:57.09Z</time></trkpt><trkpt lat="44.8747567" lon="8.091755"><ele>166.0</ele><time>2026-04-19T08:14:58.096Z</time></trkpt><trkpt lat="44.8748433" lon="8.0917467"><ele>166.0</ele><time>2026-04-19T08:14:59.153Z</time></trkpt><trkpt lat="44.8749233" lon="8.09174"><ele>166.0</ele><time>2026-04-19T08:15:00.089Z</time></trkpt><trkpt lat="44.875" lon="8.0917233"><ele>166.0</ele><time>2026-04-19T08:15:01.097Z</time></trkpt><trkpt lat="44.8750717" lon="8.0917017"><ele>166.0</ele><time>2026-04-19T08:15:02.098Z</time></trkpt><trkpt lat="44.875145" lon="8.0916633"><ele>166.0</ele><time>2026-04-19T08:15:03.1Z</time></trkpt><trkpt lat="44.87522" lon="8.0916067"><ele>166.0</ele><time>2026-04-19T08:15:04.09Z</time></trkpt><trkpt lat="44.875295" lon="8.091535"><ele>166.0</ele><time>2026-04-19T08:15:05.16Z</time></trkpt><trkpt lat="44.8753683" lon="8.0914483"><ele>166.0</ele><time>2026-04-19T08:15:06.083Z</time></trkpt><trkpt lat="44.8754383" lon="8.0913517"><ele>166.0</ele><time>2026-04-19T08:15:07.088Z</time></trkpt><trkpt lat="44.8754983" lon="8.091265"><ele>165.66666666666669</ele><time>2026-04-19T08:15:08.087Z</time></trkpt><trkpt lat="44.8755483" lon="8.0911967"><ele>165.33333333333334</ele><time>2026-04-19T08:15:09.09Z</time></trkpt><trkpt lat="44.8756083" lon="8.0911367"><ele>165.0</ele><time>2026-04-19T08:15:11.131Z</time></trkpt><trkpt lat="44.875705" lon="8.0911167"><ele>164.66666666666666</ele><time>2026-04-19T08:16:16.093Z</time></trkpt><trkpt lat="44.8757817" lon="8.090995"><ele>164.33333333333331</ele><time>2026-04-19T08:16:18.091Z</time></trkpt><trkpt lat="44.875815" lon="8.090895"><ele>164.0</ele><time>2026-04-19T08:16:19.093Z</time></trkpt><trkpt lat="44.875845" lon="8.09078"><ele>163.79999999999998</ele><time>2026-04-19T08:16:20.1Z</time></trkpt><trkpt lat="44.8758717" lon="8.090655"><ele>163.6</ele><time>2026-04-19T08:16:21.091Z</time></trkpt><trkpt lat="44.8758917" lon="8.0905217"><ele>163.4</ele><time>2026-04-19T08:16:22.089Z</time></trkpt><trkpt lat="44.8759083" lon="8.09038"><ele>163.2</ele><time>2026-04-19T08:16:23.137Z</time></trkpt><trkpt lat="44.8759283" lon="8.0902367"><ele>163.0</ele><time>2026-04-19T08:16:24.093Z</time></trkpt><trkpt lat="44.8759517" lon="8.0900917"><ele>165.75</ele><time>2026-04-19T08:16:25.092Z</time></trkpt><trkpt lat="44.87598" lon="8.089945"><ele>168.5</ele><time>2026-04-19T08:16:26.094Z</time></trkpt><trkpt lat="44.87601" lon="8.0897933"><ele>171.25</ele><time>2026-04-19T08:16:27.088Z</time></trkpt><trkpt lat="44.8760467" lon="8.0896383"><ele>174.0</ele><time>2026-04-19T08:16:28.096Z</time></trkpt><trkpt lat="44.8760867" lon="8.089485"><ele>174.75</ele><time>2026-04-19T08:16:29.158Z</time></trkpt><trkpt lat="44.8761283" lon="8.0893317"><ele>175.5</ele><time>2026-04-19T08:16:30.087Z</time></trkpt><trkpt lat="44.8761683" lon="8.0891767"><ele>176.25</ele><time>2026-04-19T08:16:31.091Z</time></trkpt><trkpt lat="44.8762033" lon="8.0890183"><ele>177.0</ele><time>2026-04-19T08:16:32.097Z</time></trkpt><trkpt lat="44.8762383" lon="8.0888667"><ele>175.6</ele><time>2026-04-19T08:16:33.099Z</time></trkpt><trkpt lat="44.87627" lon="8.08872"><ele>174.2</ele><time>2026-04-19T08:16:34.09Z</time></trkpt><trkpt lat="44.8763" lon="8.0885733"><ele>172.8</ele><time>2026-04-19T08:16:35.149Z</time></trkpt><trkpt lat="44.876325" lon="8.08842"><ele>171.4</ele><time>2026-04-19T08:16:36.09Z</time></trkpt><trkpt lat="44.8763433" lon="8.0882683"><ele>170.0</ele><time>2026-04-19T08:16:37.093Z</time></trkpt><trkpt lat="44.8763567" lon="8.0881167"><ele>170.0</ele><time>2026-04-19T08:16:38.091Z</time></trkpt><trkpt lat="44.8763633" lon="8.0879667"><ele>170.0</ele><time>2026-04-19T08:16:39.097Z</time></trkpt><trkpt lat="44.87637" lon="8.0878133"><ele>170.0</ele><time>2026-04-19T08:16:40.099Z</time></trkpt><trkpt lat="44.876375" lon="8.0876567"><ele>170.0</ele><time>2026-04-19T08:16:41.127Z</time></trkpt><trkpt lat="44.8763783" lon="8.0874967"><ele>170.0</ele><time>2026-04-19T08:16:42.094Z</time></trkpt><trkpt lat="44.8763783" lon="8.0873367"><ele>170.4</ele><time>2026-04-19T08:16:43.097Z</time></trkpt><trkpt lat="44.8763767" lon="8.0871833"><ele>170.8</ele><time>2026-04-19T08:16:44.085Z</time></trkpt><trkpt lat="44.8763733" lon="8.0870267"><ele>171.2</ele><time>2026-04-19T08:16:45.088Z</time></trkpt><trkpt lat="44.876365" lon="8.08687"><ele>171.6</ele><time>2026-04-19T08:16:46.092Z</time></trkpt><trkpt lat="44.8763583" lon="8.0867083"><ele>172.0</ele><time>2026-04-19T08:16:47.125Z</time></trkpt><trkpt lat="44.8763517" lon="8.08654"><ele>172.0</ele><time>2026-04-19T08:16:48.083Z</time></trkpt><trkpt lat="44.8763433" lon="8.0863667"><ele>172.0</ele><time>2026-04-19T08:16:49.085Z</time></trkpt><trkpt lat="44.87634" lon="8.0861917"><ele>172.0</ele><time>2026-04-19T08:16:50.09Z</time></trkpt><trkpt lat="44.8763383" lon="8.086015"><ele>172.0</ele><time>2026-04-19T08:16:51.093Z</time></trkpt><trkpt lat="44.876335" lon="8.0858367"><ele>172.0</ele><time>2026-04-19T08:16:52.094Z</time></trkpt><trkpt lat="44.8763333" lon="8.0856533"><ele>172.0</ele><time>2026-04-19T08:16:53.123Z</time></trkpt><trkpt lat="44.8763317" lon="8.0854683"><ele>172.0</ele><time>2026-04-19T08:16:54.092Z</time></trkpt><trkpt lat="44.8763233" lon="8.0852867"><ele>172.0</ele><time>2026-04-19T08:16:55.094Z</time></trkpt><trkpt lat="44.8763117" lon="8.0851083"><ele>172.0</ele><time>2026-04-19T08:16:56.09Z</time></trkpt><trkpt lat="44.8763017" lon="8.0849283"><ele>172.0</ele><time>2026-04-19T08:16:57.088Z</time></trkpt><trkpt lat="44.8763" lon="8.08475"><ele>172.0</ele><time>2026-04-19T08:16:58.087Z</time></trkpt><trkpt lat="44.87631" lon="8.0845783"><ele>172.0</ele><time>2026-04-19T08:16:59.151Z</time></trkpt><trkpt lat="44.8763333" lon="8.0844133"><ele>172.0</ele><time>2026-04-19T08:17:00.088Z</time></trkpt><trkpt lat="44.87637" lon="8.0842567"><ele>172.0</ele><time>2026-04-19T08:17:01.096Z</time></trkpt><trkpt lat="44.87641" lon="8.0840983"><ele>172.0</ele><time>2026-04-19T08:17:02.096Z</time></trkpt><trkpt lat="44.876445" lon="8.0839383"><ele>172.0</ele><time>2026-04-19T08:17:03.093Z</time></trkpt><trkpt lat="44.87648" lon="8.0837783"><ele>172.2</ele><time>2026-04-19T08:17:04.098Z</time></trkpt><trkpt lat="44.8765167" lon="8.083625"><ele>172.39999999999998</ele><time>2026-04-19T08:17:05.15Z</time></trkpt><trkpt lat="44.8765633" lon="8.083485"><ele>172.60000000000002</ele><time>2026-04-19T08:17:06.082Z</time></trkpt><trkpt lat="44.87661" lon="8.0833567"><ele>172.8</ele><time>2026-04-19T08:17:07.088Z</time></trkpt><trkpt lat="44.8766467" lon="8.0832367"><ele>173.0</ele><time>2026-04-19T08:17:08.091Z</time></trkpt><trkpt lat="44.8766683" lon="8.08311"><ele>173.60000000000002</ele><time>2026-04-19T08:17:09.087Z</time></trkpt><trkpt lat="44.8766767" lon="8.0829783"><ele>174.20000000000002</ele><time>2026-04-19T08:17:10.096Z</time></trkpt><trkpt lat="44.87668" lon="8.082845"><ele>174.8</ele><time>2026-04-19T08:17:11.128Z</time></trkpt><trkpt lat="44.8766883" lon="8.0827067"><ele>175.4</ele><time>2026-04-19T08:17:12.094Z</time></trkpt><trkpt lat="44.8767017" lon="8.0825717"><ele>176.0</ele><time>2026-04-19T08:17:13.094Z</time></trkpt><trkpt lat="44.87672" lon="8.0824367"><ele>177.4</ele><time>2026-04-19T08:17:14.094Z</time></trkpt><trkpt lat="44.8767367" lon="8.0823"><ele>178.8</ele><time>2026-04-19T08:17:15.095Z</time></trkpt><trkpt lat="44.876755" lon="8.0821717"><ele>180.20000000000002</ele><time>2026-04-19T08:17:16.092Z</time></trkpt><trkpt lat="44.8767733" lon="8.0820633"><ele>181.60000000000002</ele><time>2026-04-19T08:17:17.135Z</time></trkpt><trkpt lat="44.8767883" lon="8.0819233"><ele>183.0</ele><time>2026-04-19T08:17:19.102Z</time></trkpt><trkpt lat="44.8766683" lon="8.08186"><ele>183.0</ele><time>2026-04-19T08:17:21.092Z</time></trkpt><trkpt lat="44.8765817" lon="8.0818183"><ele>183.0</ele><time>2026-04-19T08:17:22.098Z</time></trkpt><trkpt lat="44.876505" lon="8.0817633"><ele>183.0</ele><time>2026-04-19T08:17:23.128Z</time></trkpt><trkpt lat="44.876435" lon="8.0816933"><ele>183.0</ele><time>2026-04-19T08:17:24.091Z</time></trkpt><trkpt lat="44.87637" lon="8.0816183"><ele>183.0</ele><time>2026-04-19T08:17:25.088Z</time></trkpt><trkpt lat="44.876315" lon="8.08154"><ele>183.0</ele><time>2026-04-19T08:17:26.091Z</time></trkpt><trkpt lat="44.8762733" lon="8.0814633"><ele>183.60000000000002</ele><time>2026-04-19T08:17:27.094Z</time></trkpt><trkpt lat="44.8762167" lon="8.0812933"><ele>184.20000000000002</ele><time>2026-04-19T08:17:29.158Z</time></trkpt><trkpt lat="44.8761933" lon="8.0811817"><ele>184.8</ele><time>2026-04-19T08:17:30.093Z</time></trkpt><trkpt lat="44.8761733" lon="8.0810483"><ele>185.4</ele><time>2026-04-19T08:17:31.096Z</time></trkpt><trkpt lat="44.87614" lon="8.080915"><ele>186.0</ele><time>2026-04-19T08:17:32.093Z</time></trkpt><trkpt lat="44.8761117" lon="8.0807783"><ele>186.20000000000002</ele><time>2026-04-19T08:17:33.101Z</time></trkpt><trkpt lat="44.8760767" lon="8.0806333"><ele>186.4</ele><time>2026-04-19T08:17:34.096Z</time></trkpt><trkpt lat="44.8760417" lon="8.080475"><ele>186.6</ele><time>2026-04-19T08:17:35.147Z</time></trkpt><trkpt lat="44.87601" lon="8.0803183"><ele>186.8</ele><time>2026-04-19T08:17:36.09Z</time></trkpt><trkpt lat="44.8759817" lon="8.08018"><ele>187.0</ele><time>2026-04-19T08:17:37.099Z</time></trkpt><trkpt lat="44.8759583" lon="8.0800567"><ele>187.0</ele><time>2026-04-19T08:17:38.095Z</time></trkpt><trkpt lat="44.8759517" lon="8.07995"><ele>187.0</ele><time>2026-04-19T08:17:39.093Z</time></trkpt><trkpt lat="44.875945" lon="8.079755"><ele>187.0</ele><time>2026-04-19T08:17:41.127Z</time></trkpt><trkpt lat="44.8759433" lon="8.079635"><ele>187.0</ele><time>2026-04-19T08:17:42.092Z</time></trkpt><trkpt lat="44.8759433" lon="8.0795067"><ele>187.0</ele><time>2026-04-19T08:17:43.084Z</time></trkpt><trkpt lat="44.8759433" lon="8.0793783"><ele>188.2</ele><time>2026-04-19T08:17:44.094Z</time></trkpt><trkpt lat="44.8759383" lon="8.0792517"><ele>189.39999999999998</ele><time>2026-04-19T08:17:45.093Z</time></trkpt><trkpt lat="44.8759333" lon="8.0791233"><ele>190.60000000000002</ele><time>2026-04-19T08:17:46.096Z</time></trkpt><trkpt lat="44.875925" lon="8.078985"><ele>191.8</ele><time>2026-04-19T08:17:47.128Z</time></trkpt><trkpt lat="44.8759183" lon="8.0788417"><ele>193.0</ele><time>2026-04-19T08:17:48.09Z</time></trkpt><trkpt lat="44.87592" lon="8.07869"><ele>197.0</ele><time>2026-04-19T08:17:49.087Z</time></trkpt><trkpt lat="44.875925" lon="8.078535"><ele>201.0</ele><time>2026-04-19T08:17:50.093Z</time></trkpt><trkpt lat="44.8759317" lon="8.078375"><ele>205.0</ele><time>2026-04-19T08:17:51.09Z</time></trkpt><trkpt lat="44.8759367" lon="8.0782067"><ele>209.0</ele><time>2026-04-19T08:17:52.089Z</time></trkpt><trkpt lat="44.8759333" lon="8.0780433"><ele>210.00000000000003</ele><time>2026-04-19T08:17:53.124Z</time></trkpt><trkpt lat="44.8759233" lon="8.0779033"><ele>211.0</ele><time>2026-04-19T08:17:54.089Z</time></trkpt><trkpt lat="44.8759" lon="8.07778"><ele>212.0</ele><time>2026-04-19T08:17:55.091Z</time></trkpt><trkpt lat="44.8758533" lon="8.077665"><ele>213.0</ele><time>2026-04-19T08:17:56.095Z</time></trkpt><trkpt lat="44.875795" lon="8.0775733"><ele>214.00000000000003</ele><time>2026-04-19T08:17:57.093Z</time></trkpt><trkpt lat="44.8757367" lon="8.07752"><ele>215.0</ele><time>2026-04-19T08:17:58.087Z</time></trkpt><trkpt lat="44.875635" lon="8.0774517"><ele>215.66666666666669</ele><time>2026-04-19T08:18:00.086Z</time></trkpt><trkpt lat="44.87564" lon="8.0773433"><ele>216.33333333333334</ele><time>2026-04-19T08:18:05.144Z</time></trkpt><trkpt lat="44.8756833" lon="8.077225"><ele>217.0</ele><time>2026-04-19T08:18:07.089Z</time></trkpt><trkpt lat="44.8757167" lon="8.0770883"><ele>217.66666666666669</ele><time>2026-04-19T08:18:09.095Z</time></trkpt><trkpt lat="44.8756467" lon="8.0771483"><ele>218.33333333333334</ele><time>2026-04-19T08:18:19.087Z</time></trkpt><trkpt lat="44.8755817" lon="8.0772383"><ele>219.0</ele><time>2026-04-19T08:18:21.086Z</time></trkpt><trkpt lat="44.8755167" lon="8.07727"><ele>219.0</ele><time>2026-04-19T08:18:23.123Z</time></trkpt><trkpt lat="44.875445" lon="8.07724"><ele>219.0</ele><time>2026-04-19T08:18:26.092Z</time></trkpt><trkpt lat="44.87539" lon="8.077195"><ele>219.0</ele><time>2026-04-19T08:18:28.099Z</time></trkpt><trkpt lat="44.875325" lon="8.07713"><ele>219.0</ele><time>2026-04-19T08:18:30.082Z</time></trkpt><trkpt lat="44.8752533" lon="8.0770617"><ele>219.0</ele><time>2026-04-19T08:18:32.095Z</time></trkpt><trkpt lat="44.8751867" lon="8.0769967"><ele>219.0</ele><time>2026-04-19T08:18:34.092Z</time></trkpt><trkpt lat="44.8751117" lon="8.0769033"><ele>217.42857142857144</ele><time>2026-04-19T08:18:36.088Z</time></trkpt><trkpt lat="44.87507" lon="8.0768367"><ele>215.85714285714283</ele><time>2026-04-19T08:18:37.092Z</time></trkpt><trkpt lat="44.8750317" lon="8.07675"><ele>214.28571428571428</ele><time>2026-04-19T08:18:38.086Z</time></trkpt><trkpt lat="44.8749867" lon="8.0766567"><ele>212.71428571428572</ele><time>2026-04-19T08:18:39.094Z</time></trkpt><trkpt lat="44.8749483" lon="8.076555"><ele>211.14285714285717</ele><time>2026-04-19T08:18:40.089Z</time></trkpt><trkpt lat="44.8749117" lon="8.076475"><ele>209.57142857142856</ele><time>2026-04-19T08:18:41.127Z</time></trkpt><trkpt lat="44.8748733" lon="8.076385"><ele>208.0</ele><time>2026-04-19T08:18:42.094Z</time></trkpt><trkpt lat="44.87484" lon="8.0762967"><ele>207.66666666666666</ele><time>2026-04-19T08:18:43.093Z</time></trkpt><trkpt lat="44.8748067" lon="8.0762083"><ele>207.33333333333331</ele><time>2026-04-19T08:18:44.088Z</time></trkpt><trkpt lat="44.874785" lon="8.0761167"><ele>207.0</ele><time>2026-04-19T08:18:45.088Z</time></trkpt><trkpt lat="44.87476" lon="8.076"><ele>206.66666666666669</ele><time>2026-04-19T08:18:46.098Z</time></trkpt><trkpt lat="44.8747383" lon="8.0758733"><ele>206.33333333333334</ele><time>2026-04-19T08:18:47.123Z</time></trkpt><trkpt lat="44.8747183" lon="8.075735"><ele>206.0</ele><time>2026-04-19T08:18:48.084Z</time></trkpt><trkpt lat="44.8746933" lon="8.0755883"><ele>204.60000000000002</ele><time>2026-04-19T08:18:49.095Z</time></trkpt><trkpt lat="44.8746683" lon="8.0754417"><ele>203.2</ele><time>2026-04-19T08:18:50.089Z</time></trkpt><trkpt lat="44.87464" lon="8.0752933"><ele>201.8</ele><time>2026-04-19T08:18:51.094Z</time></trkpt><trkpt lat="44.8746117" lon="8.0751533"><ele>200.39999999999998</ele><time>2026-04-19T08:18:52.098Z</time></trkpt><trkpt lat="44.8745817" lon="8.07504"><ele>199.0</ele><time>2026-04-19T08:18:53.126Z</time></trkpt><trkpt lat="44.8745533" lon="8.0749583"><ele>199.0</ele><time>2026-04-19T08:18:54.083Z</time></trkpt><trkpt lat="44.8744983" lon="8.0749117"><ele>199.0</ele><time>2026-04-19T08:18:56.093Z</time></trkpt><trkpt lat="44.8744317" lon="8.075035"><ele>199.0</ele><time>2026-04-19T08:18:59.148Z</time></trkpt><trkpt lat="44.8743667" lon="8.075195"><ele>199.0</ele><time>2026-04-19T08:19:00.089Z</time></trkpt><trkpt lat="44.874305" lon="8.075325"><ele>199.0</ele><time>2026-04-19T08:19:01.09Z</time></trkpt><trkpt lat="44.8742383" lon="8.0754417"><ele>199.0</ele><time>2026-04-19T08:19:02.092Z</time></trkpt><trkpt lat="44.8741583" lon="8.07556"><ele>199.0</ele><time>2026-04-19T08:19:03.089Z</time></trkpt><trkpt lat="44.8740783" lon="8.0756833"><ele>199.0</ele><time>2026-04-19T08:19:04.091Z</time></trkpt><trkpt lat="44.8740033" lon="8.0758217"><ele>199.0</ele><time>2026-04-19T08:19:05.148Z</time></trkpt><trkpt lat="44.8739267" lon="8.0759667"><ele>199.0</ele><time>2026-04-19T08:19:06.089Z</time></trkpt><trkpt lat="44.87385" lon="8.07609"><ele>199.0</ele><time>2026-04-19T08:19:07.092Z</time></trkpt><trkpt lat="44.873775" lon="8.0761833"><ele>199.0</ele><time>2026-04-19T08:19:08.094Z</time></trkpt><trkpt lat="44.873715" lon="8.07625"><ele>199.0</ele><time>2026-04-19T08:19:09.094Z</time></trkpt><trkpt lat="44.8736333" lon="8.07632"><ele>199.0</ele><time>2026-04-19T08:19:11.128Z</time></trkpt><trkpt lat="44.8735633" lon="8.0763467"><ele>199.0</ele><time>2026-04-19T08:19:14.092Z</time></trkpt><trkpt lat="44.8734883" lon="8.0763783"><ele>199.0</ele><time>2026-04-19T08:19:41.121Z</time></trkpt><trkpt lat="44.8733717" lon="8.0764533"><ele>199.0</ele><time>2026-04-19T08:19:43.092Z</time></trkpt><trkpt lat="44.87329" lon="8.076495"><ele>199.0</ele><time>2026-04-19T08:19:44.092Z</time></trkpt><trkpt lat="44.8731933" lon="8.076535"><ele>199.0</ele><time>2026-04-19T08:19:45.089Z</time></trkpt><trkpt lat="44.87308" lon="8.07657"><ele>198.49999999999997</ele><time>2026-04-19T08:19:46.091Z</time></trkpt><trkpt lat="44.8729733" lon="8.076595"><ele>198.0</ele><time>2026-04-19T08:19:47.127Z</time></trkpt><trkpt lat="44.872885" lon="8.0766317"><ele>197.5</ele><time>2026-04-19T08:19:48.097Z</time></trkpt><trkpt lat="44.87282" lon="8.0766567"><ele>197.0</ele><time>2026-04-19T08:19:49.094Z</time></trkpt><trkpt lat="44.872745" lon="8.0766717"><ele>196.49999999999997</ele><time>2026-04-19T08:19:51.081Z</time></trkpt><trkpt lat="44.8726517" lon="8.0766333"><ele>196.0</ele><time>2026-04-19T08:20:07.09Z</time></trkpt><trkpt lat="44.8725917" lon="8.076605"><ele>196.83333333333331</ele><time>2026-04-19T08:20:08.095Z</time></trkpt><trkpt lat="44.872525" lon="8.0765817"><ele>197.66666666666666</ele><time>2026-04-19T08:20:09.089Z</time></trkpt><trkpt lat="44.872455" lon="8.0765633"><ele>198.5</ele><time>2026-04-19T08:20:10.091Z</time></trkpt><trkpt lat="44.8723817" lon="8.0765517"><ele>199.33333333333331</ele><time>2026-04-19T08:20:11.128Z</time></trkpt><trkpt lat="44.8723033" lon="8.0765383"><ele>200.16666666666666</ele><time>2026-04-19T08:20:12.088Z</time></trkpt><trkpt lat="44.8722167" lon="8.0765233"><ele>201.0</ele><time>2026-04-19T08:20:13.094Z</time></trkpt><trkpt lat="44.8721267" lon="8.07651"><ele>201.0</ele><time>2026-04-19T08:20:14.094Z</time></trkpt><trkpt lat="44.8720333" lon="8.0764967"><ele>201.0</ele><time>2026-04-19T08:20:15.092Z</time></trkpt><trkpt lat="44.8719383" lon="8.076485"><ele>201.0</ele><time>2026-04-19T08:20:16.092Z</time></trkpt><trkpt lat="44.8718433" lon="8.0764867"><ele>201.0</ele><time>2026-04-19T08:20:17.125Z</time></trkpt><trkpt lat="44.8717567" lon="8.0765017"><ele>201.0</ele><time>2026-04-19T08:20:18.093Z</time></trkpt><trkpt lat="44.8716833" lon="8.0765333"><ele>201.0</ele><time>2026-04-19T08:20:19.089Z</time></trkpt><trkpt lat="44.8716117" lon="8.0765667"><ele>199.83333333333334</ele><time>2026-04-19T08:20:20.097Z</time></trkpt><trkpt lat="44.8715383" lon="8.076605"><ele>198.66666666666669</ele><time>2026-04-19T08:20:21.094Z</time></trkpt><trkpt lat="44.871465" lon="8.0766317"><ele>197.5</ele><time>2026-04-19T08:20:22.088Z</time></trkpt><trkpt lat="44.8713883" lon="8.0766483"><ele>196.33333333333334</ele><time>2026-04-19T08:20:23.13Z</time></trkpt><trkpt lat="44.8713133" lon="8.07666"><ele>195.16666666666669</ele><time>2026-04-19T08:20:24.085Z</time></trkpt><trkpt lat="44.8712367" lon="8.0766567"><ele>194.0</ele><time>2026-04-19T08:20:25.095Z</time></trkpt><trkpt lat="44.871155" lon="8.0766417"><ele>194.00000000000003</ele><time>2026-04-19T08:20:26.095Z</time></trkpt><trkpt lat="44.8710733" lon="8.07662"><ele>194.0</ele><time>2026-04-19T08:20:27.09Z</time></trkpt><trkpt lat="44.8709867" lon="8.0766017"><ele>194.0</ele><time>2026-04-19T08:20:28.092Z</time></trkpt><trkpt lat="44.8709017" lon="8.076585"><ele>194.0</ele><time>2026-04-19T08:20:29.151Z</time></trkpt><trkpt lat="44.8708167" lon="8.07657"><ele>194.00000000000003</ele><time>2026-04-19T08:20:30.091Z</time></trkpt><trkpt lat="44.870725" lon="8.0765567"><ele>194.0</ele><time>2026-04-19T08:20:31.087Z</time></trkpt><trkpt lat="44.8706283" lon="8.0765583"><ele>194.50000000000003</ele><time>2026-04-19T08:20:32.092Z</time></trkpt><trkpt lat="44.87053" lon="8.0765667"><ele>195.0</ele><time>2026-04-19T08:20:33.093Z</time></trkpt><trkpt lat="44.8704317" lon="8.0765833"><ele>195.5</ele><time>2026-04-19T08:20:34.091Z</time></trkpt><trkpt lat="44.870345" lon="8.0765967"><ele>196.0</ele><time>2026-04-19T08:20:35.149Z</time></trkpt><trkpt lat="44.8702783" lon="8.076605"><ele>196.50000000000003</ele><time>2026-04-19T08:20:36.088Z</time></trkpt><trkpt lat="44.8702033" lon="8.0766"><ele>197.0</ele><time>2026-04-19T08:20:38.095Z</time></trkpt><trkpt lat="44.87017" lon="8.0765167"><ele>197.0</ele><time>2026-04-19T08:20:40.097Z</time></trkpt><trkpt lat="44.8701617" lon="8.07642"><ele>197.0</ele><time>2026-04-19T08:20:41.126Z</time></trkpt><trkpt lat="44.87015" lon="8.0763017"><ele>197.0</ele><time>2026-04-19T08:20:42.092Z</time></trkpt><trkpt lat="44.87014" lon="8.0761617"><ele>197.0</ele><time>2026-04-19T08:20:43.088Z</time></trkpt><trkpt lat="44.8701333" lon="8.076015"><ele>197.0</ele><time>2026-04-19T08:20:44.094Z</time></trkpt><trkpt lat="44.8701317" lon="8.075875"><ele>197.39999999999998</ele><time>2026-04-19T08:20:45.09Z</time></trkpt><trkpt lat="44.8701317" lon="8.0757567"><ele>197.79999999999998</ele><time>2026-04-19T08:20:46.085Z</time></trkpt><trkpt lat="44.8701533" lon="8.0756067"><ele>198.2</ele><time>2026-04-19T08:20:48.087Z</time></trkpt><trkpt lat="44.8702367" lon="8.07552"><ele>198.6</ele><time>2026-04-19T08:20:50.089Z</time></trkpt><trkpt lat="44.8703317" lon="8.0754767"><ele>199.0</ele><time>2026-04-19T08:20:52.089Z</time></trkpt><trkpt lat="44.870455" lon="8.0754817"><ele>199.0</ele><time>2026-04-19T08:20:54.092Z</time></trkpt><trkpt lat="44.8705433" lon="8.07548"><ele>199.0</ele><time>2026-04-19T08:20:55.083Z</time></trkpt><trkpt lat="44.8706517" lon="8.0754783"><ele>199.0</ele><time>2026-04-19T08:20:56.092Z</time></trkpt><trkpt lat="44.8707633" lon="8.0754817"><ele>199.0</ele><time>2026-04-19T08:20:57.09Z</time></trkpt><trkpt lat="44.8708933" lon="8.07549"><ele>199.0</ele><time>2026-04-19T08:20:58.091Z</time></trkpt><trkpt lat="44.87101" lon="8.0755017"><ele>200.79999999999998</ele><time>2026-04-19T08:20:59.154Z</time></trkpt><trkpt lat="44.8711067" lon="8.07551"><ele>202.6</ele><time>2026-04-19T08:21:00.087Z</time></trkpt><trkpt lat="44.8711983" lon="8.0755017"><ele>204.4</ele><time>2026-04-19T08:21:01.086Z</time></trkpt><trkpt lat="44.8712917" lon="8.075475"><ele>206.2</ele><time>2026-04-19T08:21:02.085Z</time></trkpt><trkpt lat="44.87139" lon="8.0754417"><ele>208.0</ele><time>2026-04-19T08:21:03.091Z</time></trkpt><trkpt lat="44.8714867" lon="8.0754033"><ele>208.0</ele><time>2026-04-19T08:21:04.094Z</time></trkpt><trkpt lat="44.8715833" lon="8.0753617"><ele>208.0</ele><time>2026-04-19T08:21:05.144Z</time></trkpt><trkpt lat="44.8716633" lon="8.0753117"><ele>208.0</ele><time>2026-04-19T08:21:06.088Z</time></trkpt><trkpt lat="44.871745" lon="8.0752483"><ele>208.0</ele><time>2026-04-19T08:21:07.094Z</time></trkpt><trkpt lat="44.8718083" lon="8.0751683"><ele>208.0</ele><time>2026-04-19T08:21:08.094Z</time></trkpt><trkpt lat="44.8718767" lon="8.0750767"><ele>208.4</ele><time>2026-04-19T08:21:09.096Z</time></trkpt><trkpt lat="44.871955" lon="8.07499"><ele>208.8</ele><time>2026-04-19T08:21:10.1Z</time></trkpt><trkpt lat="44.87203" lon="8.0749033"><ele>209.2</ele><time>2026-04-19T08:21:11.129Z</time></trkpt><trkpt lat="44.8721017" lon="8.07483"><ele>209.6</ele><time>2026-04-19T08:21:12.085Z</time></trkpt><trkpt lat="44.8721767" lon="8.074765"><ele>210.0</ele><time>2026-04-19T08:21:13.092Z</time></trkpt><trkpt lat="44.8722633" lon="8.0747133"><ele>210.5</ele><time>2026-04-19T08:21:14.092Z</time></trkpt><trkpt lat="44.8723633" lon="8.0746633"><ele>211.0</ele><time>2026-04-19T08:21:15.089Z</time></trkpt><trkpt lat="44.8724483" lon="8.0746117"><ele>211.5</ele><time>2026-04-19T08:21:16.088Z</time></trkpt><trkpt lat="44.8725217" lon="8.0745533"><ele>212.0</ele><time>2026-04-19T08:21:17.124Z</time></trkpt><trkpt lat="44.8725833" lon="8.0744833"><ele>212.5</ele><time>2026-04-19T08:21:18.09Z</time></trkpt><trkpt lat="44.8726467" lon="8.0744033"><ele>213.0</ele><time>2026-04-19T08:21:19.087Z</time></trkpt><trkpt lat="44.8727183" lon="8.0743167"><ele>214.4</ele><time>2026-04-19T08:21:20.095Z</time></trkpt><trkpt lat="44.87279" lon="8.07422"><ele>215.8</ele><time>2026-04-19T08:21:21.093Z</time></trkpt><trkpt lat="44.872855" lon="8.0741217"><ele>217.2</ele><time>2026-04-19T08:21:22.097Z</time></trkpt><trkpt lat="44.8729133" lon="8.074015"><ele>218.6</ele><time>2026-04-19T08:21:23.129Z</time></trkpt><trkpt lat="44.872975" lon="8.0738983"><ele>220.0</ele><time>2026-04-19T08:21:24.095Z</time></trkpt><trkpt lat="44.87303" lon="8.0737717"><ele>220.33333333333331</ele><time>2026-04-19T08:21:25.088Z</time></trkpt><trkpt lat="44.8730783" lon="8.0736533"><ele>220.66666666666666</ele><time>2026-04-19T08:21:26.095Z</time></trkpt><trkpt lat="44.87312" lon="8.07355"><ele>221.0</ele><time>2026-04-19T08:21:27.087Z</time></trkpt><trkpt lat="44.8731667" lon="8.0734517"><ele>221.33333333333331</ele><time>2026-04-19T08:21:28.092Z</time></trkpt><trkpt lat="44.8732233" lon="8.0733617"><ele>221.66666666666666</ele><time>2026-04-19T08:21:29.147Z</time></trkpt><trkpt lat="44.8732817" lon="8.073285"><ele>222.0</ele><time>2026-04-19T08:21:30.092Z</time></trkpt><trkpt lat="44.8733433" lon="8.0732267"><ele>222.83333333333334</ele><time>2026-04-19T08:21:31.091Z</time></trkpt><trkpt lat="44.8734117" lon="8.073175"><ele>223.66666666666669</ele><time>2026-04-19T08:21:32.086Z</time></trkpt><trkpt lat="44.8734817" lon="8.0731367"><ele>224.5</ele><time>2026-04-19T08:21:33.09Z</time></trkpt><trkpt lat="44.87356" lon="8.0731017"><ele>225.33333333333334</ele><time>2026-04-19T08:21:34.092Z</time></trkpt><trkpt lat="44.8736433" lon="8.073065"><ele>226.16666666666669</ele><time>2026-04-19T08:21:35.141Z</time></trkpt><trkpt lat="44.87373" lon="8.0730217"><ele>227.0</ele><time>2026-04-19T08:21:36.083Z</time></trkpt><trkpt lat="44.87381" lon="8.0729733"><ele>227.0</ele><time>2026-04-19T08:21:37.093Z</time></trkpt><trkpt lat="44.8738917" lon="8.072905"><ele>227.0</ele><time>2026-04-19T08:21:38.091Z</time></trkpt><trkpt lat="44.8739733" lon="8.0728183"><ele>227.0</ele><time>2026-04-19T08:21:39.084Z</time></trkpt><trkpt lat="44.8740583" lon="8.0727233"><ele>227.0</ele><time>2026-04-19T08:21:40.087Z</time></trkpt><trkpt lat="44.8741583" lon="8.0726083"><ele>227.0</ele><time>2026-04-19T08:21:41.13Z</time></trkpt><trkpt lat="44.87425" lon="8.0724983"><ele>226.83333333333334</ele><time>2026-04-19T08:21:42.094Z</time></trkpt><trkpt lat="44.8743317" lon="8.0724"><ele>226.66666666666669</ele><time>2026-04-19T08:21:43.097Z</time></trkpt><trkpt lat="44.8744083" lon="8.0723333"><ele>226.5</ele><time>2026-04-19T08:21:44.091Z</time></trkpt><trkpt lat="44.87448" lon="8.0722917"><ele>226.33333333333331</ele><time>2026-04-19T08:21:45.087Z</time></trkpt><trkpt lat="44.8745483" lon="8.0722917"><ele>226.16666666666666</ele><time>2026-04-19T08:21:46.089Z</time></trkpt><trkpt lat="44.874625" lon="8.0722933"><ele>226.0</ele><time>2026-04-19T08:21:47.129Z</time></trkpt><trkpt lat="44.8747083" lon="8.0722983"><ele>225.99999999999997</ele><time>2026-04-19T08:21:48.091Z</time></trkpt><trkpt lat="44.8747883" lon="8.0723017"><ele>226.0</ele><time>2026-04-19T08:21:49.092Z</time></trkpt><trkpt lat="44.8748567" lon="8.0722867"><ele>226.0</ele><time>2026-04-19T08:21:50.094Z</time></trkpt><trkpt lat="44.8749183" lon="8.072255"><ele>226.0</ele><time>2026-04-19T08:21:51.089Z</time></trkpt><trkpt lat="44.8749817" lon="8.072195"><ele>225.99999999999997</ele><time>2026-04-19T08:21:52.096Z</time></trkpt><trkpt lat="44.8750483" lon="8.0721217"><ele>226.0</ele><time>2026-04-19T08:21:53.126Z</time></trkpt><trkpt lat="44.875115" lon="8.0720417"><ele>225.33333333333331</ele><time>2026-04-19T08:21:54.091Z</time></trkpt><trkpt lat="44.8751867" lon="8.0719517"><ele>224.66666666666666</ele><time>2026-04-19T08:21:55.094Z</time></trkpt><trkpt lat="44.8752583" lon="8.0718533"><ele>224.0</ele><time>2026-04-19T08:21:56.095Z</time></trkpt><trkpt lat="44.8753283" lon="8.0717633"><ele>223.33333333333331</ele><time>2026-04-19T08:21:57.096Z</time></trkpt><trkpt lat="44.8753883" lon="8.0716867"><ele>222.66666666666666</ele><time>2026-04-19T08:21:58.097Z</time></trkpt><trkpt lat="44.8754483" lon="8.0716233"><ele>222.0</ele><time>2026-04-19T08:21:59.15Z</time></trkpt><trkpt lat="44.875505" lon="8.071565"><ele>223.5</ele><time>2026-04-19T08:22:00.083Z</time></trkpt><trkpt lat="44.8755567" lon="8.0715133"><ele>225.0</ele><time>2026-04-19T08:22:01.091Z</time></trkpt><trkpt lat="44.875605" lon="8.07145"><ele>226.5</ele><time>2026-04-19T08:22:02.084Z</time></trkpt><trkpt lat="44.87565" lon="8.071375"><ele>228.0</ele><time>2026-04-19T08:22:03.093Z</time></trkpt><trkpt lat="44.8757033" lon="8.0712833"><ele>229.5</ele><time>2026-04-19T08:22:04.09Z</time></trkpt><trkpt lat="44.875765" lon="8.0711817"><ele>231.0</ele><time>2026-04-19T08:22:05.151Z</time></trkpt><trkpt lat="44.8758283" lon="8.0710767"><ele>231.0</ele><time>2026-04-19T08:22:06.095Z</time></trkpt><trkpt lat="44.8758933" lon="8.07097"><ele>231.00000000000003</ele><time>2026-04-19T08:22:07.086Z</time></trkpt><trkpt lat="44.875955" lon="8.0708567"><ele>231.00000000000003</ele><time>2026-04-19T08:22:08.096Z</time></trkpt><trkpt lat="44.8760133" lon="8.0707417"><ele>231.0</ele><time>2026-04-19T08:22:09.09Z</time></trkpt><trkpt lat="44.8760733" lon="8.0706183"><ele>231.0</ele><time>2026-04-19T08:22:10.093Z</time></trkpt><trkpt lat="44.87614" lon="8.0704983"><ele>230.25</ele><time>2026-04-19T08:22:11.125Z</time></trkpt><trkpt lat="44.8762167" lon="8.070375"><ele>229.5</ele><time>2026-04-19T08:22:12.096Z</time></trkpt><trkpt lat="44.8762933" lon="8.0702383"><ele>228.75</ele><time>2026-04-19T08:22:13.094Z</time></trkpt><trkpt lat="44.8763617" lon="8.0700983"><ele>228.0</ele><time>2026-04-19T08:22:14.092Z</time></trkpt><trkpt lat="44.8764217" lon="8.069955"><ele>229.0</ele><time>2026-04-19T08:22:15.088Z</time></trkpt><trkpt lat="44.876475" lon="8.06982"><ele>230.0</ele><time>2026-04-19T08:22:16.09Z</time></trkpt><trkpt lat="44.876525" lon="8.0697"><ele>231.0</ele><time>2026-04-19T08:22:17.127Z</time></trkpt><trkpt lat="44.8765783" lon="8.0695817"><ele>232.0</ele><time>2026-04-19T08:22:18.086Z</time></trkpt><trkpt lat="44.8766333" lon="8.0694533"><ele>233.0</ele><time>2026-04-19T08:22:19.087Z</time></trkpt><trkpt lat="44.8766883" lon="8.069325"><ele>233.0</ele><time>2026-04-19T08:22:20.095Z</time></trkpt><trkpt lat="44.8767383" lon="8.0691967"><ele>233.0</ele><time>2026-04-19T08:22:21.091Z</time></trkpt><trkpt lat="44.8767883" lon="8.0690583"><ele>233.0</ele><time>2026-04-19T08:22:22.097Z</time></trkpt><trkpt lat="44.876835" lon="8.0689183"><ele>233.0</ele><time>2026-04-19T08:22:23.125Z</time></trkpt><trkpt lat="44.876875" lon="8.0687717"><ele>233.0</ele><time>2026-04-19T08:22:24.092Z</time></trkpt><trkpt lat="44.8769167" lon="8.06862"><ele>233.75</ele><time>2026-04-19T08:22:25.1Z</time></trkpt><trkpt lat="44.8769533" lon="8.0684683"><ele>234.5</ele><time>2026-04-19T08:22:26.095Z</time></trkpt><trkpt lat="44.87699" lon="8.0683117"><ele>235.25</ele><time>2026-04-19T08:22:27.096Z</time></trkpt><trkpt lat="44.87703" lon="8.0681533"><ele>236.0</ele><time>2026-04-19T08:22:28.09Z</time></trkpt><trkpt lat="44.8770696" lon="8.0679856"><ele>236.0</ele><time>2026-04-19T08:22:29.151Z</time></trkpt><trkpt lat="44.8771086" lon="8.0678258"><ele>236.0</ele><time>2026-04-19T08:22:30.089Z</time></trkpt><trkpt lat="44.8771487" lon="8.0676542"><ele>236.0</ele><time>2026-04-19T08:22:31.092Z</time></trkpt><trkpt lat="44.8771856" lon="8.0674941"><ele>236.0</ele><time>2026-04-19T08:22:32.095Z</time></trkpt><trkpt lat="44.8772187" lon="8.0673441"><ele>238.0</ele><time>2026-04-19T08:22:33.089Z</time></trkpt><trkpt lat="44.8772434" lon="8.0672001"><ele>240.00000000000003</ele><time>2026-04-19T08:22:34.09Z</time></trkpt><trkpt lat="44.877265" lon="8.0670519"><ele>242.00000000000003</ele><time>2026-04-19T08:22:35.145Z</time></trkpt><trkpt lat="44.8772815" lon="8.066908"><ele>244.0</ele><time>2026-04-19T08:22:36.092Z</time></trkpt><trkpt lat="44.8772883" lon="8.0667467"><ele>246.0</ele><time>2026-04-19T08:22:37.09Z</time></trkpt><trkpt lat="44.8772804" lon="8.0665793"><ele>248.4</ele><time>2026-04-19T08:22:38.093Z</time></trkpt><trkpt lat="44.8772668" lon="8.0664163"><ele>250.8</ele><time>2026-04-19T08:22:39.096Z</time></trkpt><trkpt lat="44.877251" lon="8.066269"><ele>253.20000000000002</ele><time>2026-04-19T08:22:40.1Z</time></trkpt><trkpt lat="44.8772365" lon="8.0661422"><ele>255.60000000000002</ele><time>2026-04-19T08:22:41.122Z</time></trkpt><trkpt lat="44.8772297" lon="8.0660332"><ele>258.0</ele><time>2026-04-19T08:22:42.09Z</time></trkpt><trkpt lat="44.8772455" lon="8.0658656"><ele>258.8</ele><time>2026-04-19T08:22:44.089Z</time></trkpt><trkpt lat="44.8772645" lon="8.0657677"><ele>259.6</ele><time>2026-04-19T08:22:45.093Z</time></trkpt><trkpt lat="44.8772918" lon="8.065655"><ele>260.4</ele><time>2026-04-19T08:22:46.088Z</time></trkpt><trkpt lat="44.8773306" lon="8.065515"><ele>261.2</ele><time>2026-04-19T08:22:47.124Z</time></trkpt><trkpt lat="44.8773728" lon="8.0653663"><ele>262.0</ele><time>2026-04-19T08:22:48.089Z</time></trkpt><trkpt lat="44.8774198" lon="8.0652193"><ele>262.0</ele><time>2026-04-19T08:22:49.086Z</time></trkpt><trkpt lat="44.8774615" lon="8.065088"><ele>262.0</ele><time>2026-04-19T08:22:50.091Z</time></trkpt><trkpt lat="44.8775004" lon="8.0649539"><ele>262.0</ele><time>2026-04-19T08:22:52.088Z</time></trkpt><trkpt lat="44.8775217" lon="8.0648633"><ele>262.0</ele><time>2026-04-19T08:23:17.123Z</time></trkpt><trkpt lat="44.8775467" lon="8.064735"><ele>262.0</ele><time>2026-04-19T08:23:19.09Z</time></trkpt><trkpt lat="44.8775733" lon="8.0646333"><ele>262.0</ele><time>2026-04-19T08:23:20.084Z</time></trkpt><trkpt lat="44.8776367" lon="8.0645017"><ele>259.8</ele><time>2026-04-19T08:23:21.093Z</time></trkpt><trkpt lat="44.8777" lon="8.0643867"><ele>257.6</ele><time>2026-04-19T08:23:22.094Z</time></trkpt><trkpt lat="44.8777667" lon="8.0642783"><ele>255.40000000000003</ele><time>2026-04-19T08:23:23.127Z</time></trkpt><trkpt lat="44.8778267" lon="8.0641783"><ele>253.20000000000002</ele><time>2026-04-19T08:23:24.09Z</time></trkpt><trkpt lat="44.8778717" lon="8.064075"><ele>251.0</ele><time>2026-04-19T08:23:25.09Z</time></trkpt><trkpt lat="44.8779" lon="8.0639633"><ele>250.0</ele><time>2026-04-19T08:23:26.089Z</time></trkpt><trkpt lat="44.8779083" lon="8.0638383"><ele>249.00000000000003</ele><time>2026-04-19T08:23:27.086Z</time></trkpt><trkpt lat="44.8779167" lon="8.0637133"><ele>248.00000000000003</ele><time>2026-04-19T08:23:28.089Z</time></trkpt><trkpt lat="44.8779217" lon="8.0635817"><ele>247.0</ele><time>2026-04-19T08:23:29.151Z</time></trkpt><trkpt lat="44.8779267" lon="8.0634433"><ele>246.0</ele><time>2026-04-19T08:23:30.086Z</time></trkpt><trkpt lat="44.8779333" lon="8.06331"><ele>244.60000000000002</ele><time>2026-04-19T08:23:31.09Z</time></trkpt><trkpt lat="44.8779367" lon="8.0631617"><ele>243.20000000000002</ele><time>2026-04-19T08:23:32.09Z</time></trkpt><trkpt lat="44.8779233" lon="8.0630117"><ele>241.79999999999998</ele><time>2026-04-19T08:23:33.093Z</time></trkpt><trkpt lat="44.8779017" lon="8.0628683"><ele>240.39999999999998</ele><time>2026-04-19T08:23:34.094Z</time></trkpt><trkpt lat="44.8778717" lon="8.0627133"><ele>239.0</ele><time>2026-04-19T08:23:35.154Z</time></trkpt><trkpt lat="44.87783" lon="8.0625383"><ele>237.75</ele><time>2026-04-19T08:23:36.09Z</time></trkpt><trkpt lat="44.8777733" lon="8.0623567"><ele>236.5</ele><time>2026-04-19T08:23:37.094Z</time></trkpt><trkpt lat="44.8777067" lon="8.06217"><ele>235.25</ele><time>2026-04-19T08:23:38.095Z</time></trkpt><trkpt lat="44.8776317" lon="8.0619867"><ele>234.0</ele><time>2026-04-19T08:23:39.096Z</time></trkpt><trkpt lat="44.8775517" lon="8.0618033"><ele>239.75</ele><time>2026-04-19T08:23:40.092Z</time></trkpt><trkpt lat="44.8774733" lon="8.0616367"><ele>245.5</ele><time>2026-04-19T08:23:41.124Z</time></trkpt><trkpt lat="44.8774083" lon="8.0614783"><ele>251.25</ele><time>2026-04-19T08:23:42.086Z</time></trkpt><trkpt lat="44.877375" lon="8.0613317"><ele>257.0</ele><time>2026-04-19T08:23:43.095Z</time></trkpt><trkpt lat="44.8773583" lon="8.0611717"><ele>257.0</ele><time>2026-04-19T08:23:44.094Z</time></trkpt><trkpt lat="44.877355" lon="8.0609967"><ele>257.0</ele><time>2026-04-19T08:23:45.088Z</time></trkpt><trkpt lat="44.8773617" lon="8.0608"><ele>257.0</ele><time>2026-04-19T08:23:46.098Z</time></trkpt><trkpt lat="44.8773667" lon="8.0606067"><ele>257.0</ele><time>2026-04-19T08:23:47.128Z</time></trkpt><trkpt lat="44.8773767" lon="8.0604233"><ele>256.6</ele><time>2026-04-19T08:23:48.085Z</time></trkpt><trkpt lat="44.877395" lon="8.0602617"><ele>256.2</ele><time>2026-04-19T08:23:49.091Z</time></trkpt><trkpt lat="44.8774167" lon="8.0601183"><ele>255.8</ele><time>2026-04-19T08:23:50.09Z</time></trkpt><trkpt lat="44.8774433" lon="8.059995"><ele>255.4</ele><time>2026-04-19T08:23:51.092Z</time></trkpt><trkpt lat="44.8774733" lon="8.0598867"><ele>255.0</ele><time>2026-04-19T08:23:52.094Z</time></trkpt><trkpt lat="44.8775183" lon="8.05979"><ele>254.4</ele><time>2026-04-19T08:23:53.126Z</time></trkpt><trkpt lat="44.8775783" lon="8.0596917"><ele>253.8</ele><time>2026-04-19T08:23:54.097Z</time></trkpt><trkpt lat="44.8776533" lon="8.0595833"><ele>253.2</ele><time>2026-04-19T08:23:55.098Z</time></trkpt><trkpt lat="44.8777267" lon="8.0594733"><ele>252.6</ele><time>2026-04-19T08:23:56.091Z</time></trkpt><trkpt lat="44.8777883" lon="8.0593517"><ele>252.0</ele><time>2026-04-19T08:23:57.092Z</time></trkpt><trkpt lat="44.8778367" lon="8.0592133"><ele>252.25</ele><time>2026-04-19T08:23:58.088Z</time></trkpt><trkpt lat="44.8778783" lon="8.0590483"><ele>252.5</ele><time>2026-04-19T08:23:59.157Z</time></trkpt><trkpt lat="44.8779133" lon="8.0588567"><ele>252.75</ele><time>2026-04-19T08:24:00.087Z</time></trkpt><trkpt lat="44.8779517" lon="8.0586283"><ele>253.0</ele><time>2026-04-19T08:24:01.086Z</time></trkpt><trkpt lat="44.8779817" lon="8.05841"><ele>255.0</ele><time>2026-04-19T08:24:02.088Z</time></trkpt><trkpt lat="44.8780067" lon="8.05822"><ele>257.0</ele><time>2026-04-19T08:24:03.091Z</time></trkpt><trkpt lat="44.8780317" lon="8.0580433"><ele>259.0</ele><time>2026-04-19T08:24:04.086Z</time></trkpt><trkpt lat="44.8780683" lon="8.05788"><ele>261.0</ele><time>2026-04-19T08:24:05.152Z</time></trkpt><trkpt lat="44.87812" lon="8.0577133"><ele>261.0</ele><time>2026-04-19T08:24:06.089Z</time></trkpt><trkpt lat="44.878185" lon="8.057535"><ele>261.0</ele><time>2026-04-19T08:24:07.089Z</time></trkpt><trkpt lat="44.87826" lon="8.05735"><ele>261.0</ele><time>2026-04-19T08:24:08.09Z</time></trkpt><trkpt lat="44.878325" lon="8.057185"><ele>261.0</ele><time>2026-04-19T08:24:09.095Z</time></trkpt><trkpt lat="44.8783817" lon="8.0570433"><ele>261.0</ele><time>2026-04-19T08:24:10.092Z</time></trkpt><trkpt lat="44.87843" lon="8.0569067"><ele>261.0</ele><time>2026-04-19T08:24:11.131Z</time></trkpt><trkpt lat="44.8784767" lon="8.05675"><ele>261.0</ele><time>2026-04-19T08:24:12.09Z</time></trkpt><trkpt lat="44.8785267" lon="8.056585"><ele>261.0</ele><time>2026-04-19T08:24:13.102Z</time></trkpt><trkpt lat="44.8785767" lon="8.0564233"><ele>261.0</ele><time>2026-04-19T08:24:14.087Z</time></trkpt><trkpt lat="44.878625" lon="8.0562667"><ele>261.0</ele><time>2026-04-19T08:24:15.1Z</time></trkpt><trkpt lat="44.87868" lon="8.0561117"><ele>261.0</ele><time>2026-04-19T08:24:16.094Z</time></trkpt><trkpt lat="44.8787367" lon="8.0559583"><ele>261.0</ele><time>2026-04-19T08:24:17.126Z</time></trkpt><trkpt lat="44.8787933" lon="8.0558133"><ele>262.5</ele><time>2026-04-19T08:24:18.083Z</time></trkpt><trkpt lat="44.8788617" lon="8.0556683"><ele>264.0</ele><time>2026-04-19T08:24:19.089Z</time></trkpt><trkpt lat="44.8789483" lon="8.0555233"><ele>265.5</ele><time>2026-04-19T08:24:20.093Z</time></trkpt><trkpt lat="44.8790483" lon="8.0553717"><ele>267.0</ele><time>2026-04-19T08:24:21.086Z</time></trkpt><trkpt lat="44.8791467" lon="8.0552267"><ele>267.0</ele><time>2026-04-19T08:24:22.096Z</time></trkpt><trkpt lat="44.8792417" lon="8.0550867"><ele>267.0</ele><time>2026-04-19T08:24:23.125Z</time></trkpt><trkpt lat="44.87933" lon="8.0549583"><ele>267.0</ele><time>2026-04-19T08:24:24.087Z</time></trkpt><trkpt lat="44.8794083" lon="8.0548383"><ele>267.0</ele><time>2026-04-19T08:24:25.094Z</time></trkpt><trkpt lat="44.879475" lon="8.054735"><ele>267.8</ele><time>2026-04-19T08:24:26.092Z</time></trkpt><trkpt lat="44.8795367" lon="8.0546517"><ele>268.6</ele><time>2026-04-19T08:24:27.09Z</time></trkpt><trkpt lat="44.8795883" lon="8.0545883"><ele>269.40000000000003</ele><time>2026-04-19T08:24:28.093Z</time></trkpt><trkpt lat="44.879655" lon="8.05451"><ele>270.2</ele><time>2026-04-19T08:24:30.086Z</time></trkpt><trkpt lat="44.87973" lon="8.05452"><ele>271.0</ele><time>2026-04-19T08:24:44.097Z</time></trkpt><trkpt lat="44.8798633" lon="8.0545333"><ele>271.0</ele><time>2026-04-19T08:24:46.089Z</time></trkpt><trkpt lat="44.8799567" lon="8.0545183"><ele>271.0</ele><time>2026-04-19T08:24:47.123Z</time></trkpt><trkpt lat="44.8800367" lon="8.054495"><ele>271.0</ele><time>2026-04-19T08:24:48.086Z</time></trkpt><trkpt lat="44.8801067" lon="8.0544667"><ele>271.0</ele><time>2026-04-19T08:24:49.091Z</time></trkpt><trkpt lat="44.8802183" lon="8.0544367"><ele>271.0</ele><time>2026-04-19T08:24:51.096Z</time></trkpt><trkpt lat="44.8803417" lon="8.054485"><ele>270.16666666666663</ele><time>2026-04-19T08:24:53.122Z</time></trkpt><trkpt lat="44.8804" lon="8.054545"><ele>269.3333333333333</ele><time>2026-04-19T08:24:54.085Z</time></trkpt><trkpt lat="44.8804583" lon="8.05463"><ele>268.5</ele><time>2026-04-19T08:24:55.095Z</time></trkpt><trkpt lat="44.8805033" lon="8.0547333"><ele>267.6666666666667</ele><time>2026-04-19T08:24:56.091Z</time></trkpt><trkpt lat="44.88054" lon="8.054855"><ele>266.83333333333337</ele><time>2026-04-19T08:24:57.094Z</time></trkpt><trkpt lat="44.88057" lon="8.05499"><ele>266.0</ele><time>2026-04-19T08:24:58.091Z</time></trkpt><trkpt lat="44.880585" lon="8.05512"><ele>266.0</ele><time>2026-04-19T08:24:59.147Z</time></trkpt><trkpt lat="44.880595" lon="8.05524"><ele>266.0</ele><time>2026-04-19T08:25:00.087Z</time></trkpt><trkpt lat="44.8806033" lon="8.05536"><ele>266.0</ele><time>2026-04-19T08:25:01.088Z</time></trkpt><trkpt lat="44.8806117" lon="8.0554933"><ele>266.0</ele><time>2026-04-19T08:25:02.092Z</time></trkpt><trkpt lat="44.88062" lon="8.0556367"><ele>266.0</ele><time>2026-04-19T08:25:03.091Z</time></trkpt><trkpt lat="44.8806283" lon="8.055785"><ele>267.2</ele><time>2026-04-19T08:25:04.094Z</time></trkpt><trkpt lat="44.880635" lon="8.0559383"><ele>268.40000000000003</ele><time>2026-04-19T08:25:05.154Z</time></trkpt><trkpt lat="44.880645" lon="8.0560933"><ele>269.6</ele><time>2026-04-19T08:25:06.087Z</time></trkpt><trkpt lat="44.8806567" lon="8.0562517"><ele>270.8</ele><time>2026-04-19T08:25:07.09Z</time></trkpt><trkpt lat="44.8806733" lon="8.0563983"><ele>272.0</ele><time>2026-04-19T08:25:08.097Z</time></trkpt><trkpt lat="44.8806967" lon="8.05653"><ele>272.0</ele><time>2026-04-19T08:25:09.09Z</time></trkpt><trkpt lat="44.880725" lon="8.0566433"><ele>272.0</ele><time>2026-04-19T08:25:10.093Z</time></trkpt><trkpt lat="44.8807617" lon="8.05675"><ele>272.0</ele><time>2026-04-19T08:25:11.132Z</time></trkpt><trkpt lat="44.8807867" lon="8.056845"><ele>272.0</ele><time>2026-04-19T08:25:12.09Z</time></trkpt><trkpt lat="44.880805" lon="8.0569383"><ele>272.0</ele><time>2026-04-19T08:25:13.092Z</time></trkpt><trkpt lat="44.8808117" lon="8.0570417"><ele>272.0</ele><time>2026-04-19T08:25:14.093Z</time></trkpt><trkpt lat="44.8807967" lon="8.0571717"><ele>272.0</ele><time>2026-04-19T08:25:15.091Z</time></trkpt><trkpt lat="44.8807733" lon="8.057325"><ele>272.0</ele><time>2026-04-19T08:25:16.092Z</time></trkpt><trkpt lat="44.88075" lon="8.0574783"><ele>272.0</ele><time>2026-04-19T08:25:17.133Z</time></trkpt><trkpt lat="44.8807333" lon="8.0576333"><ele>272.0</ele><time>2026-04-19T08:25:18.087Z</time></trkpt><trkpt lat="44.8807233" lon="8.0577833"><ele>272.0</ele><time>2026-04-19T08:25:19.094Z</time></trkpt><trkpt lat="44.8807167" lon="8.0579183"><ele>271.4285714285714</ele><time>2026-04-19T08:25:20.092Z</time></trkpt><trkpt lat="44.8807083" lon="8.0580367"><ele>270.85714285714283</ele><time>2026-04-19T08:25:21.084Z</time></trkpt><trkpt lat="44.880705" lon="8.0581333"><ele>270.2857142857143</ele><time>2026-04-19T08:25:22.091Z</time></trkpt><trkpt lat="44.88068" lon="8.0582517"><ele>269.71428571428567</ele><time>2026-04-19T08:25:24.092Z</time></trkpt><trkpt lat="44.8806017" lon="8.05827"><ele>269.1428571428571</ele><time>2026-04-19T08:25:26.091Z</time></trkpt><trkpt lat="44.8805383" lon="8.0582467"><ele>268.57142857142856</ele><time>2026-04-19T08:25:27.087Z</time></trkpt><trkpt lat="44.8804767" lon="8.0582217"><ele>268.0</ele><time>2026-04-19T08:25:28.089Z</time></trkpt><trkpt lat="44.8803483" lon="8.0582067"><ele>268.0</ele><time>2026-04-19T08:25:30.089Z</time></trkpt><trkpt lat="44.88028" lon="8.0582117"><ele>268.0</ele><time>2026-04-19T08:25:31.091Z</time></trkpt><trkpt lat="44.8802117" lon="8.05823"><ele>268.0</ele><time>2026-04-19T08:25:32.09Z</time></trkpt><trkpt lat="44.8801467" lon="8.05826"><ele>268.0</ele><time>2026-04-19T08:25:33.091Z</time></trkpt><trkpt lat="44.8800817" lon="8.0583017"><ele>268.0</ele><time>2026-04-19T08:25:34.091Z</time></trkpt><trkpt lat="44.880015" lon="8.0583433"><ele>268.0</ele><time>2026-04-19T08:25:35.171Z</time></trkpt><trkpt lat="44.8799383" lon="8.0584017"><ele>268.0</ele><time>2026-04-19T08:25:36.084Z</time></trkpt><trkpt lat="44.8798667" lon="8.0584617"><ele>265.3333333333333</ele><time>2026-04-19T08:25:37.089Z</time></trkpt><trkpt lat="44.879805" lon="8.05851"><ele>262.66666666666663</ele><time>2026-04-19T08:25:38.093Z</time></trkpt><trkpt lat="44.8797467" lon="8.05856"><ele>260.0</ele><time>2026-04-19T08:25:39.093Z</time></trkpt><trkpt lat="44.879685" lon="8.0586267"><ele>257.3333333333333</ele><time>2026-04-19T08:25:40.095Z</time></trkpt><trkpt lat="44.8796117" lon="8.058705"><ele>254.66666666666666</ele><time>2026-04-19T08:25:41.136Z</time></trkpt><trkpt lat="44.87953" lon="8.0587883"><ele>252.0</ele><time>2026-04-19T08:25:42.095Z</time></trkpt><trkpt lat="44.879455" lon="8.058865"><ele>252.0</ele><time>2026-04-19T08:25:43.094Z</time></trkpt><trkpt lat="44.87939" lon="8.0589267"><ele>252.0</ele><time>2026-04-19T08:25:44.094Z</time></trkpt><trkpt lat="44.8793267" lon="8.058965"><ele>252.0</ele><time>2026-04-19T08:25:45.098Z</time></trkpt><trkpt lat="44.8792517" lon="8.0589533"><ele>252.0</ele><time>2026-04-19T08:25:47.136Z</time></trkpt><trkpt lat="44.8791983" lon="8.0588517"><ele>252.0</ele><time>2026-04-19T08:25:49.09Z</time></trkpt><trkpt lat="44.8792067" lon="8.0587367"><ele>252.0</ele><time>2026-04-19T08:25:50.092Z</time></trkpt><trkpt lat="44.8792117" lon="8.058605"><ele>249.5</ele><time>2026-04-19T08:25:51.087Z</time></trkpt><trkpt lat="44.8792167" lon="8.05848"><ele>247.0</ele><time>2026-04-19T08:25:52.091Z</time></trkpt><trkpt lat="44.8792267" lon="8.05836"><ele>244.5</ele><time>2026-04-19T08:25:53.136Z</time></trkpt><trkpt lat="44.8792317" lon="8.0582367"><ele>242.0</ele><time>2026-04-19T08:25:54.094Z</time></trkpt><trkpt lat="44.8792233" lon="8.0581267"><ele>239.5</ele><time>2026-04-19T08:25:55.092Z</time></trkpt><trkpt lat="44.879205" lon="8.0580233"><ele>237.0</ele><time>2026-04-19T08:25:56.087Z</time></trkpt><trkpt lat="44.8791933" lon="8.0579267"><ele>237.0</ele><time>2026-04-19T08:25:57.087Z</time></trkpt><trkpt lat="44.8791" lon="8.0579083"><ele>237.0</ele><time>2026-04-19T08:25:59.151Z</time></trkpt><trkpt lat="44.8790117" lon="8.057975"><ele>237.0</ele><time>2026-04-19T08:26:01.095Z</time></trkpt><trkpt lat="44.878965" lon="8.05805"><ele>237.0</ele><time>2026-04-19T08:26:02.092Z</time></trkpt><trkpt lat="44.8789233" lon="8.0581467"><ele>237.0</ele><time>2026-04-19T08:26:03.092Z</time></trkpt><trkpt lat="44.87888" lon="8.0582583"><ele>237.0</ele><time>2026-04-19T08:26:04.094Z</time></trkpt><trkpt lat="44.8788533" lon="8.0583833"><ele>236.5</ele><time>2026-04-19T08:26:05.152Z</time></trkpt><trkpt lat="44.8788383" lon="8.0585083"><ele>236.0</ele><time>2026-04-19T08:26:06.088Z</time></trkpt><trkpt lat="44.8788233" lon="8.058625"><ele>235.5</ele><time>2026-04-19T08:26:07.092Z</time></trkpt><trkpt lat="44.8788167" lon="8.058735"><ele>235.0</ele><time>2026-04-19T08:26:08.092Z</time></trkpt><trkpt lat="44.878815" lon="8.0588667"><ele>234.5</ele><time>2026-04-19T08:26:09.088Z</time></trkpt><trkpt lat="44.8788117" lon="8.058985"><ele>234.0</ele><time>2026-04-19T08:26:10.093Z</time></trkpt><trkpt lat="44.8788017" lon="8.0590883"><ele>233.0</ele><time>2026-04-19T08:26:11.132Z</time></trkpt><trkpt lat="44.8787617" lon="8.059175"><ele>232.0</ele><time>2026-04-19T08:26:12.087Z</time></trkpt><trkpt lat="44.87874" lon="8.0592767"><ele>231.0</ele><time>2026-04-19T08:26:13.09Z</time></trkpt><trkpt lat="44.8787233" lon="8.059385"><ele>230.0</ele><time>2026-04-19T08:26:14.092Z</time></trkpt><trkpt lat="44.8787133" lon="8.059495"><ele>229.0</ele><time>2026-04-19T08:26:15.09Z</time></trkpt><trkpt lat="44.8787017" lon="8.059595"><ele>228.0</ele><time>2026-04-19T08:26:16.084Z</time></trkpt><trkpt lat="44.878675" lon="8.05969"><ele>228.0</ele><time>2026-04-19T08:26:17.137Z</time></trkpt><trkpt lat="44.87865" lon="8.05979"><ele>228.0</ele><time>2026-04-19T08:26:18.09Z</time></trkpt><trkpt lat="44.8786183" lon="8.0599017"><ele>228.0</ele><time>2026-04-19T08:26:19.088Z</time></trkpt><trkpt lat="44.8785767" lon="8.0600217"><ele>228.0</ele><time>2026-04-19T08:26:20.095Z</time></trkpt><trkpt lat="44.8785467" lon="8.060165"><ele>228.0</ele><time>2026-04-19T08:26:21.096Z</time></trkpt><trkpt lat="44.8785167" lon="8.0603133"><ele>228.16666666666666</ele><time>2026-04-19T08:26:22.092Z</time></trkpt><trkpt lat="44.8784833" lon="8.060455"><ele>228.33333333333331</ele><time>2026-04-19T08:26:23.131Z</time></trkpt><trkpt lat="44.8784483" lon="8.06058"><ele>228.5</ele><time>2026-04-19T08:26:24.085Z</time></trkpt><trkpt lat="44.8784117" lon="8.0607033"><ele>228.66666666666666</ele><time>2026-04-19T08:26:25.094Z</time></trkpt><trkpt lat="44.8783883" lon="8.0608117"><ele>228.83333333333331</ele><time>2026-04-19T08:26:26.094Z</time></trkpt><trkpt lat="44.8783833" lon="8.0609133"><ele>229.0</ele><time>2026-04-19T08:26:27.087Z</time></trkpt><trkpt lat="44.8783917" lon="8.0610133"><ele>229.28571428571428</ele><time>2026-04-19T08:26:28.093Z</time></trkpt><trkpt lat="44.8784117" lon="8.0611017"><ele>229.57142857142858</ele><time>2026-04-19T08:26:29.147Z</time></trkpt><trkpt lat="44.878455" lon="8.0611817"><ele>229.85714285714286</ele><time>2026-04-19T08:26:30.088Z</time></trkpt><trkpt lat="44.8784833" lon="8.0612683"><ele>230.14285714285714</ele><time>2026-04-19T08:26:31.092Z</time></trkpt><trkpt lat="44.8785067" lon="8.06136"><ele>230.42857142857144</ele><time>2026-04-19T08:26:32.085Z</time></trkpt><trkpt lat="44.8785217" lon="8.0614717"><ele>230.71428571428572</ele><time>2026-04-19T08:26:33.092Z</time></trkpt><trkpt lat="44.8785383" lon="8.061585"><ele>231.0</ele><time>2026-04-19T08:26:34.091Z</time></trkpt><trkpt lat="44.8785717" lon="8.0617067"><ele>230.33333333333334</ele><time>2026-04-19T08:26:35.151Z</time></trkpt><trkpt lat="44.878605" lon="8.0618317"><ele>229.66666666666669</ele><time>2026-04-19T08:26:36.082Z</time></trkpt><trkpt lat="44.87865" lon="8.0619383"><ele>229.0</ele><time>2026-04-19T08:26:37.094Z</time></trkpt><trkpt lat="44.8786933" lon="8.0620317"><ele>228.33333333333334</ele><time>2026-04-19T08:26:38.09Z</time></trkpt><trkpt lat="44.8787367" lon="8.0621317"><ele>227.66666666666669</ele><time>2026-04-19T08:26:39.096Z</time></trkpt><trkpt lat="44.8787783" lon="8.0622417"><ele>227.0</ele><time>2026-04-19T08:26:40.089Z</time></trkpt><trkpt lat="44.87881" lon="8.0623533"><ele>226.16666666666669</ele><time>2026-04-19T08:26:41.136Z</time></trkpt><trkpt lat="44.8788333" lon="8.0624617"><ele>225.33333333333334</ele><time>2026-04-19T08:26:42.087Z</time></trkpt><trkpt lat="44.87884" lon="8.0625767"><ele>224.5</ele><time>2026-04-19T08:26:43.081Z</time></trkpt><trkpt lat="44.8788567" lon="8.06269"><ele>223.66666666666669</ele><time>2026-04-19T08:26:44.093Z</time></trkpt><trkpt lat="44.8788717" lon="8.0627967"><ele>222.83333333333334</ele><time>2026-04-19T08:26:45.09Z</time></trkpt><trkpt lat="44.87889" lon="8.0628917"><ele>222.0</ele><time>2026-04-19T08:26:46.094Z</time></trkpt><trkpt lat="44.8789183" lon="8.06299"><ele>222.0</ele><time>2026-04-19T08:26:47.14Z</time></trkpt><trkpt lat="44.8789583" lon="8.06309"><ele>222.0</ele><time>2026-04-19T08:26:48.092Z</time></trkpt><trkpt lat="44.8790067" lon="8.0631883"><ele>222.0</ele><time>2026-04-19T08:26:49.088Z</time></trkpt><trkpt lat="44.8790583" lon="8.0632967"><ele>222.0</ele><time>2026-04-19T08:26:50.095Z</time></trkpt><trkpt lat="44.8791033" lon="8.0634"><ele>222.0</ele><time>2026-04-19T08:26:51.089Z</time></trkpt><trkpt lat="44.879145" lon="8.0635"><ele>222.0</ele><time>2026-04-19T08:26:52.089Z</time></trkpt><trkpt lat="44.8791783" lon="8.063595"><ele>222.16666666666666</ele><time>2026-04-19T08:26:53.14Z</time></trkpt><trkpt lat="44.8791867" lon="8.0636833"><ele>222.33333333333331</ele><time>2026-04-19T08:26:54.09Z</time></trkpt><trkpt lat="44.87916" lon="8.06384"><ele>222.5</ele><time>2026-04-19T08:26:56.096Z</time></trkpt><trkpt lat="44.879115" lon="8.0640033"><ele>222.66666666666666</ele><time>2026-04-19T08:26:58.1Z</time></trkpt><trkpt lat="44.879115" lon="8.0640983"><ele>222.83333333333331</ele><time>2026-04-19T08:26:59.149Z</time></trkpt><trkpt lat="44.87913" lon="8.0642033"><ele>223.0</ele><time>2026-04-19T08:27:00.081Z</time></trkpt><trkpt lat="44.8791567" lon="8.0643067"><ele>223.0</ele><time>2026-04-19T08:27:01.087Z</time></trkpt><trkpt lat="44.879185" lon="8.0644167"><ele>223.0</ele><time>2026-04-19T08:27:02.09Z</time></trkpt><trkpt lat="44.8791967" lon="8.0645333"><ele>223.0</ele><time>2026-04-19T08:27:03.09Z</time></trkpt><trkpt lat="44.87921" lon="8.06467"><ele>223.0</ele><time>2026-04-19T08:27:04.098Z</time></trkpt><trkpt lat="44.8792217" lon="8.0648133"><ele>223.0</ele><time>2026-04-19T08:27:05.144Z</time></trkpt><trkpt lat="44.8792283" lon="8.06495"><ele>223.0</ele><time>2026-04-19T08:27:06.084Z</time></trkpt><trkpt lat="44.87923" lon="8.0650667"><ele>223.0</ele><time>2026-04-19T08:27:07.088Z</time></trkpt><trkpt lat="44.8792117" lon="8.0651733"><ele>223.0</ele><time>2026-04-19T08:27:08.085Z</time></trkpt><trkpt lat="44.8791717" lon="8.06526"><ele>223.0</ele><time>2026-04-19T08:27:09.094Z</time></trkpt><trkpt lat="44.8791283" lon="8.0653283"><ele>223.0</ele><time>2026-04-19T08:27:10.093Z</time></trkpt><trkpt lat="44.8790783" lon="8.065385"><ele>223.0</ele><time>2026-04-19T08:27:11.128Z</time></trkpt><trkpt lat="44.87903" lon="8.065445"><ele>223.0</ele><time>2026-04-19T08:27:12.089Z</time></trkpt><trkpt lat="44.8789817" lon="8.0655267"><ele>222.99999999999997</ele><time>2026-04-19T08:27:13.092Z</time></trkpt><trkpt lat="44.87894" lon="8.06561"><ele>223.0</ele><time>2026-04-19T08:27:14.092Z</time></trkpt><trkpt lat="44.8789083" lon="8.0657067"><ele>223.0</ele><time>2026-04-19T08:27:15.086Z</time></trkpt><trkpt lat="44.87888" lon="8.0658083"><ele>223.0</ele><time>2026-04-19T08:27:16.091Z</time></trkpt><trkpt lat="44.8788517" lon="8.06591"><ele>222.99999999999997</ele><time>2026-04-19T08:27:17.136Z</time></trkpt><trkpt lat="44.8788283" lon="8.0660183"><ele>223.0</ele><time>2026-04-19T08:27:18.084Z</time></trkpt><trkpt lat="44.8788083" lon="8.0661317"><ele>222.33333333333331</ele><time>2026-04-19T08:27:19.091Z</time></trkpt><trkpt lat="44.878785" lon="8.0662383"><ele>221.66666666666666</ele><time>2026-04-19T08:27:20.094Z</time></trkpt><trkpt lat="44.87876" lon="8.0663333"><ele>221.0</ele><time>2026-04-19T08:27:21.093Z</time></trkpt><trkpt lat="44.8787367" lon="8.0664633"><ele>220.33333333333331</ele><time>2026-04-19T08:27:23.136Z</time></trkpt><trkpt lat="44.8788" lon="8.0664733"><ele>219.66666666666666</ele><time>2026-04-19T08:27:26.093Z</time></trkpt><trkpt lat="44.878915" lon="8.0665083"><ele>219.0</ele><time>2026-04-19T08:27:28.098Z</time></trkpt><trkpt lat="44.8789917" lon="8.066535"><ele>219.0</ele><time>2026-04-19T08:27:29.148Z</time></trkpt><trkpt lat="44.87908" lon="8.06657"><ele>219.0</ele><time>2026-04-19T08:27:30.086Z</time></trkpt><trkpt lat="44.8791783" lon="8.0666067"><ele>219.0</ele><time>2026-04-19T08:27:31.09Z</time></trkpt><trkpt lat="44.8792683" lon="8.0666417"><ele>219.0</ele><time>2026-04-19T08:27:32.093Z</time></trkpt><trkpt lat="44.8793383" lon="8.06668"><ele>219.0</ele><time>2026-04-19T08:27:33.091Z</time></trkpt><trkpt lat="44.8794033" lon="8.0667283"><ele>219.0</ele><time>2026-04-19T08:27:34.097Z</time></trkpt><trkpt lat="44.8794833" lon="8.0667983"><ele>221.0</ele><time>2026-04-19T08:27:35.15Z</time></trkpt><trkpt lat="44.87957" lon="8.066875"><ele>222.99999999999997</ele><time>2026-04-19T08:27:36.093Z</time></trkpt><trkpt lat="44.8796533" lon="8.0669467"><ele>224.99999999999997</ele><time>2026-04-19T08:27:37.096Z</time></trkpt><trkpt lat="44.8797317" lon="8.0670083"><ele>227.0</ele><time>2026-04-19T08:27:38.085Z</time></trkpt><trkpt lat="44.8798033" lon="8.06705"><ele>229.0</ele><time>2026-04-19T08:27:39.093Z</time></trkpt><trkpt lat="44.8798917" lon="8.0670883"><ele>229.0</ele><time>2026-04-19T08:27:40.098Z</time></trkpt><trkpt lat="44.8799833" lon="8.067115"><ele>228.99999999999997</ele><time>2026-04-19T08:27:41.13Z</time></trkpt><trkpt lat="44.880075" lon="8.067135"><ele>228.99999999999997</ele><time>2026-04-19T08:27:42.086Z</time></trkpt><trkpt lat="44.8802233" lon="8.0671867"><ele>229.0</ele><time>2026-04-19T08:27:43.091Z</time></trkpt><trkpt lat="44.880325" lon="8.06721"><ele>229.0</ele><time>2026-04-19T08:27:44.086Z</time></trkpt><trkpt lat="44.8804233" lon="8.067235"><ele>229.2</ele><time>2026-04-19T08:27:45.099Z</time></trkpt><trkpt lat="44.8805067" lon="8.0672417"><ele>229.39999999999998</ele><time>2026-04-19T08:27:46.091Z</time></trkpt><trkpt lat="44.8805817" lon="8.067225"><ele>229.6</ele><time>2026-04-19T08:27:47.13Z</time></trkpt><trkpt lat="44.880655" lon="8.0671433"><ele>229.8</ele><time>2026-04-19T08:27:48.089Z</time></trkpt><trkpt lat="44.8807333" lon="8.06705"><ele>230.0</ele><time>2026-04-19T08:27:49.09Z</time></trkpt><trkpt lat="44.8808017" lon="8.06695"><ele>230.0</ele><time>2026-04-19T08:27:50.088Z</time></trkpt><trkpt lat="44.8808633" lon="8.066845"><ele>230.0</ele><time>2026-04-19T08:27:51.094Z</time></trkpt><trkpt lat="44.8809183" lon="8.066725"><ele>230.0</ele><time>2026-04-19T08:27:52.091Z</time></trkpt><trkpt lat="44.8809717" lon="8.0665967"><ele>230.0</ele><time>2026-04-19T08:27:53.132Z</time></trkpt><trkpt lat="44.8810083" lon="8.066465"><ele>230.0</ele><time>2026-04-19T08:27:54.089Z</time></trkpt><trkpt lat="44.88104" lon="8.0663283"><ele>232.83333333333334</ele><time>2026-04-19T08:27:55.093Z</time></trkpt><trkpt lat="44.8810483" lon="8.0661983"><ele>235.66666666666669</ele><time>2026-04-19T08:27:56.088Z</time></trkpt><trkpt lat="44.8810483" lon="8.0660667"><ele>238.5</ele><time>2026-04-19T08:27:57.09Z</time></trkpt><trkpt lat="44.8810367" lon="8.06595"><ele>241.33333333333331</ele><time>2026-04-19T08:27:58.09Z</time></trkpt><trkpt lat="44.8810217" lon="8.0658317"><ele>244.16666666666666</ele><time>2026-04-19T08:27:59.131Z</time></trkpt><trkpt lat="44.881005" lon="8.0657417"><ele>247.0</ele><time>2026-04-19T08:28:00.087Z</time></trkpt><trkpt lat="44.8810667" lon="8.0656717"><ele>247.0</ele><time>2026-04-19T08:28:03.09Z</time></trkpt><trkpt lat="44.8811783" lon="8.0658167"><ele>247.0</ele><time>2026-04-19T08:28:05.145Z</time></trkpt><trkpt lat="44.8812467" lon="8.0659283"><ele>247.0</ele><time>2026-04-19T08:28:06.088Z</time></trkpt><trkpt lat="44.8813" lon="8.06602"><ele>247.0</ele><time>2026-04-19T08:28:07.089Z</time></trkpt><trkpt lat="44.8813917" lon="8.066135"><ele>247.0</ele><time>2026-04-19T08:28:09.093Z</time></trkpt><trkpt lat="44.8814533" lon="8.06627"><ele>247.0</ele><time>2026-04-19T08:28:11.124Z</time></trkpt><trkpt lat="44.88149" lon="8.0664083"><ele>247.0</ele><time>2026-04-19T08:28:13.083Z</time></trkpt><trkpt lat="44.88151" lon="8.0665283"><ele>247.0</ele><time>2026-04-19T08:28:15.088Z</time></trkpt><trkpt lat="44.8815967" lon="8.0665883"><ele>247.0</ele><time>2026-04-19T08:28:17.135Z</time></trkpt><trkpt lat="44.8817" lon="8.06665"><ele>245.8</ele><time>2026-04-19T08:28:19.089Z</time></trkpt><trkpt lat="44.8818067" lon="8.06682"><ele>244.6</ele><time>2026-04-19T08:28:30.085Z</time></trkpt><trkpt lat="44.8818317" lon="8.0669033"><ele>243.40000000000003</ele><time>2026-04-19T08:28:31.086Z</time></trkpt><trkpt lat="44.8818683" lon="8.0670683"><ele>242.20000000000002</ele><time>2026-04-19T08:28:33.101Z</time></trkpt><trkpt lat="44.8818817" lon="8.06716"><ele>241.0</ele><time>2026-04-19T08:28:34.086Z</time></trkpt><trkpt lat="44.8818967" lon="8.067255"><ele>240.99999999999997</ele><time>2026-04-19T08:28:35.154Z</time></trkpt><trkpt lat="44.8819183" lon="8.0673483"><ele>241.0</ele><time>2026-04-19T08:28:36.091Z</time></trkpt><trkpt lat="44.881965" lon="8.067505"><ele>241.0</ele><time>2026-04-19T08:28:38.098Z</time></trkpt><trkpt lat="44.8819983" lon="8.0675867"><ele>241.0</ele><time>2026-04-19T08:28:39.097Z</time></trkpt><trkpt lat="44.88206" lon="8.0676833"><ele>240.99999999999997</ele><time>2026-04-19T08:28:40.092Z</time></trkpt><trkpt lat="44.8821233" lon="8.0677883"><ele>241.0</ele><time>2026-04-19T08:28:41.131Z</time></trkpt><trkpt lat="44.8821917" lon="8.0678867"><ele>239.83333333333331</ele><time>2026-04-19T08:28:42.09Z</time></trkpt><trkpt lat="44.8822533" lon="8.067975"><ele>238.66666666666666</ele><time>2026-04-19T08:28:43.09Z</time></trkpt><trkpt lat="44.8823" lon="8.0680667"><ele>237.5</ele><time>2026-04-19T08:28:44.095Z</time></trkpt><trkpt lat="44.882345" lon="8.0681567"><ele>236.33333333333331</ele><time>2026-04-19T08:28:45.094Z</time></trkpt><trkpt lat="44.8823833" lon="8.0682567"><ele>235.16666666666666</ele><time>2026-04-19T08:28:46.089Z</time></trkpt><trkpt lat="44.8824283" lon="8.068375"><ele>234.0</ele><time>2026-04-19T08:28:47.13Z</time></trkpt><trkpt lat="44.88245" lon="8.0685233"><ele>234.0</ele><time>2026-04-19T08:28:48.09Z</time></trkpt><trkpt lat="44.8824783" lon="8.06867"><ele>233.99999999999997</ele><time>2026-04-19T08:28:49.095Z</time></trkpt><trkpt lat="44.8825033" lon="8.06881"><ele>233.99999999999997</ele><time>2026-04-19T08:28:50.096Z</time></trkpt><trkpt lat="44.8825317" lon="8.0689417"><ele>234.0</ele><time>2026-04-19T08:28:51.095Z</time></trkpt><trkpt lat="44.8825617" lon="8.0690667"><ele>234.0</ele><time>2026-04-19T08:28:52.093Z</time></trkpt><trkpt lat="44.8825917" lon="8.0691817"><ele>234.0</ele><time>2026-04-19T08:28:53.126Z</time></trkpt><trkpt lat="44.8826033" lon="8.06929"><ele>234.0</ele><time>2026-04-19T08:28:54.084Z</time></trkpt><trkpt lat="44.8826033" lon="8.0694033"><ele>234.0</ele><time>2026-04-19T08:28:55.087Z</time></trkpt><trkpt lat="44.8826117" lon="8.0695117"><ele>234.0</ele><time>2026-04-19T08:28:56.088Z</time></trkpt><trkpt lat="44.8826033" lon="8.0696117"><ele>234.0</ele><time>2026-04-19T08:28:57.084Z</time></trkpt><trkpt lat="44.8825583" lon="8.06979"><ele>234.0</ele><time>2026-04-19T08:28:59.158Z</time></trkpt><trkpt lat="44.88253" lon="8.069875"><ele>233.79999999999998</ele><time>2026-04-19T08:29:00.085Z</time></trkpt><trkpt lat="44.8824817" lon="8.069955"><ele>233.59999999999997</ele><time>2026-04-19T08:29:01.092Z</time></trkpt><trkpt lat="44.88244" lon="8.0700317"><ele>233.4</ele><time>2026-04-19T08:29:02.094Z</time></trkpt><trkpt lat="44.8823967" lon="8.0701917"><ele>233.2</ele><time>2026-04-19T08:29:04.097Z</time></trkpt><trkpt lat="44.8824767" lon="8.070305"><ele>233.0</ele><time>2026-04-19T08:29:06.087Z</time></trkpt><trkpt lat="44.88254" lon="8.0703633"><ele>228.60000000000002</ele><time>2026-04-19T08:29:07.094Z</time></trkpt><trkpt lat="44.8826167" lon="8.070405"><ele>224.20000000000002</ele><time>2026-04-19T08:29:08.09Z</time></trkpt><trkpt lat="44.882705" lon="8.0704067"><ele>219.8</ele><time>2026-04-19T08:29:09.093Z</time></trkpt><trkpt lat="44.88279" lon="8.070385"><ele>215.4</ele><time>2026-04-19T08:29:10.091Z</time></trkpt><trkpt lat="44.882885" lon="8.070325"><ele>211.0</ele><time>2026-04-19T08:29:11.132Z</time></trkpt><trkpt lat="44.8829983" lon="8.07026"><ele>211.0</ele><time>2026-04-19T08:29:12.09Z</time></trkpt><trkpt lat="44.883105" lon="8.070205"><ele>211.0</ele><time>2026-04-19T08:29:13.09Z</time></trkpt><trkpt lat="44.88321" lon="8.070165"><ele>211.0</ele><time>2026-04-19T08:29:14.091Z</time></trkpt><trkpt lat="44.8832833" lon="8.0701617"><ele>211.0</ele><time>2026-04-19T08:29:15.095Z</time></trkpt><trkpt lat="44.8834083" lon="8.07022"><ele>211.0</ele><time>2026-04-19T08:29:17.131Z</time></trkpt><trkpt lat="44.88349" lon="8.0702983"><ele>211.5</ele><time>2026-04-19T08:29:18.089Z</time></trkpt><trkpt lat="44.883595" lon="8.0704067"><ele>212.0</ele><time>2026-04-19T08:29:19.09Z</time></trkpt><trkpt lat="44.8836967" lon="8.0705333"><ele>212.5</ele><time>2026-04-19T08:29:20.093Z</time></trkpt><trkpt lat="44.8837783" lon="8.0706367"><ele>213.0</ele><time>2026-04-19T08:29:21.09Z</time></trkpt><trkpt lat="44.8838517" lon="8.0707233"><ele>211.5</ele><time>2026-04-19T08:29:22.092Z</time></trkpt><trkpt lat="44.8839233" lon="8.070835"><ele>210.0</ele><time>2026-04-19T08:29:23.127Z</time></trkpt><trkpt lat="44.8840117" lon="8.070985"><ele>208.5</ele><time>2026-04-19T08:29:24.085Z</time></trkpt><trkpt lat="44.8841017" lon="8.0711467"><ele>207.0</ele><time>2026-04-19T08:29:25.095Z</time></trkpt><trkpt lat="44.8841933" lon="8.07131"><ele>209.0</ele><time>2026-04-19T08:29:26.094Z</time></trkpt><trkpt lat="44.88427" lon="8.0714667"><ele>211.0</ele><time>2026-04-19T08:29:27.102Z</time></trkpt><trkpt lat="44.8843483" lon="8.0716267"><ele>213.0</ele><time>2026-04-19T08:29:28.092Z</time></trkpt><trkpt lat="44.88443" lon="8.0717817"><ele>215.0</ele><time>2026-04-19T08:29:29.158Z</time></trkpt><trkpt lat="44.88451" lon="8.071915"><ele>215.0</ele><time>2026-04-19T08:29:30.092Z</time></trkpt><trkpt lat="44.8846083" lon="8.0720317"><ele>215.0</ele><time>2026-04-19T08:29:31.099Z</time></trkpt><trkpt lat="44.8846967" lon="8.072145"><ele>215.0</ele><time>2026-04-19T08:29:32.094Z</time></trkpt><trkpt lat="44.884775" lon="8.0722667"><ele>215.0</ele><time>2026-04-19T08:29:33.088Z</time></trkpt><trkpt lat="44.8848467" lon="8.072385"><ele>213.00000000000003</ele><time>2026-04-19T08:29:34.093Z</time></trkpt><trkpt lat="44.8849183" lon="8.0724917"><ele>211.0</ele><time>2026-04-19T08:29:35.151Z</time></trkpt><trkpt lat="44.8849867" lon="8.072575"><ele>209.0</ele><time>2026-04-19T08:29:36.091Z</time></trkpt><trkpt lat="44.885045" lon="8.0726417"><ele>207.0</ele><time>2026-04-19T08:29:37.094Z</time></trkpt><trkpt lat="44.88498" lon="8.072635"><ele>205.00000000000003</ele><time>2026-04-19T08:30:33.082Z</time></trkpt><trkpt lat="44.8848967" lon="8.0727317"><ele>203.0</ele><time>2026-04-19T08:30:35.142Z</time></trkpt><trkpt lat="44.8847883" lon="8.0728383"><ele>203.00000000000003</ele><time>2026-04-19T08:30:37.091Z</time></trkpt><trkpt lat="44.88471" lon="8.07292"><ele>203.0</ele><time>2026-04-19T08:30:39.085Z</time></trkpt><trkpt lat="44.8846917" lon="8.073025"><ele>203.0</ele><time>2026-04-19T08:30:42.087Z</time></trkpt><trkpt lat="44.8847317" lon="8.0731267"><ele>203.0</ele><time>2026-04-19T08:30:58.094Z</time></trkpt><trkpt lat="44.8847483" lon="8.0732633"><ele>203.00000000000003</ele><time>2026-04-19T08:31:04.093Z</time></trkpt><trkpt lat="44.8847733" lon="8.0733633"><ele>203.0</ele><time>2026-04-19T08:31:07.095Z</time></trkpt><trkpt lat="44.8848167" lon="8.0734467"><ele>202.50000000000003</ele><time>2026-04-19T08:31:10.091Z</time></trkpt><trkpt lat="44.8848517" lon="8.0735217"><ele>202.0</ele><time>2026-04-19T08:31:12.092Z</time></trkpt><trkpt lat="44.88489" lon="8.0736"><ele>201.5</ele><time>2026-04-19T08:31:15.086Z</time></trkpt><trkpt lat="44.8849467" lon="8.073685"><ele>201.0</ele><time>2026-04-19T08:31:19.095Z</time></trkpt><trkpt lat="44.8849883" lon="8.073765"><ele>200.50000000000003</ele><time>2026-04-19T08:31:22.088Z</time></trkpt><trkpt lat="44.8850217" lon="8.0738583"><ele>200.0</ele><time>2026-04-19T08:31:24.088Z</time></trkpt><trkpt lat="44.8850783" lon="8.0739783"><ele>199.33333333333334</ele><time>2026-04-19T08:31:26.096Z</time></trkpt><trkpt lat="44.8851483" lon="8.0741017"><ele>198.66666666666669</ele><time>2026-04-19T08:31:28.091Z</time></trkpt><trkpt lat="44.8851717" lon="8.0742167"><ele>198.0</ele><time>2026-04-19T08:31:30.089Z</time></trkpt><trkpt lat="44.8851967" lon="8.0743433"><ele>197.33333333333331</ele><time>2026-04-19T08:31:32.088Z</time></trkpt><trkpt lat="44.8851983" lon="8.0744583"><ele>196.66666666666666</ele><time>2026-04-19T08:31:35.151Z</time></trkpt><trkpt lat="44.8851417" lon="8.0745317"><ele>196.0</ele><time>2026-04-19T08:31:37.091Z</time></trkpt><trkpt lat="44.8850733" lon="8.0744533"><ele>196.0</ele><time>2026-04-19T08:31:41.129Z</time></trkpt><trkpt lat="44.8850517" lon="8.074325"><ele>196.0</ele><time>2026-04-19T08:31:43.096Z</time></trkpt><trkpt lat="44.8850017" lon="8.0742083"><ele>196.0</ele><time>2026-04-19T08:31:45.095Z</time></trkpt><trkpt lat="44.88496" lon="8.07407"><ele>196.0</ele><time>2026-04-19T08:31:47.126Z</time></trkpt><trkpt lat="44.8849267" lon="8.0739333"><ele>196.0</ele><time>2026-04-19T08:31:49.093Z</time></trkpt><trkpt lat="44.8849" lon="8.0737867"><ele>196.66666666666666</ele><time>2026-04-19T08:31:51.09Z</time></trkpt><trkpt lat="44.8848483" lon="8.0736583"><ele>197.33333333333331</ele><time>2026-04-19T08:31:53.129Z</time></trkpt><trkpt lat="44.8847883" lon="8.0736083"><ele>198.0</ele><time>2026-04-19T08:31:55.094Z</time></trkpt><trkpt lat="44.8847167" lon="8.0736133"><ele>198.66666666666669</ele><time>2026-04-19T08:31:58.097Z</time></trkpt><trkpt lat="44.8846767" lon="8.0736917"><ele>199.33333333333334</ele><time>2026-04-19T08:32:00.088Z</time></trkpt><trkpt lat="44.88465" lon="8.0737983"><ele>200.0</ele><time>2026-04-19T08:32:02.091Z</time></trkpt><trkpt lat="44.8846183" lon="8.0739233"><ele>200.00000000000003</ele><time>2026-04-19T08:32:04.092Z</time></trkpt><trkpt lat="44.8845733" lon="8.074035"><ele>200.0</ele><time>2026-04-19T08:32:06.087Z</time></trkpt><trkpt lat="44.8845167" lon="8.0740933"><ele>200.0</ele><time>2026-04-19T08:32:09.093Z</time></trkpt><trkpt lat="44.884455" lon="8.07405"><ele>200.0</ele><time>2026-04-19T08:32:12.095Z</time></trkpt><trkpt lat="44.8843583" lon="8.07406"><ele>200.00000000000003</ele><time>2026-04-19T08:32:23.123Z</time></trkpt><trkpt lat="44.884255" lon="8.07398"><ele>200.0</ele><time>2026-04-19T08:32:25.091Z</time></trkpt><trkpt lat="44.88419" lon="8.073905"><ele>204.33333333333334</ele><time>2026-04-19T08:32:27.09Z</time></trkpt><trkpt lat="44.8841167" lon="8.0739333"><ele>208.66666666666669</ele><time>2026-04-19T08:32:30.085Z</time></trkpt><trkpt lat="44.884055" lon="8.0739967"><ele>213.0</ele><time>2026-04-19T08:32:33.093Z</time></trkpt><trkpt lat="44.88397" lon="8.074"><ele>217.33333333333331</ele><time>2026-04-19T08:32:36.09Z</time></trkpt><trkpt lat="44.8838883" lon="8.0739883"><ele>221.66666666666666</ele><time>2026-04-19T08:32:39.09Z</time></trkpt><trkpt lat="44.8838183" lon="8.0739833"><ele>226.0</ele><time>2026-04-19T08:32:43.092Z</time></trkpt><trkpt lat="44.883755" lon="8.0739433"><ele>225.99999999999997</ele><time>2026-04-19T08:32:47.13Z</time></trkpt><trkpt lat="44.88363" lon="8.0738983"><ele>226.0</ele><time>2026-04-19T08:32:55.091Z</time></trkpt><trkpt lat="44.883545" lon="8.07389"><ele>226.0</ele><time>2026-04-19T08:32:58.085Z</time></trkpt><trkpt lat="44.8834817" lon="8.073895"><ele>226.0</ele><time>2026-04-19T08:33:00.084Z</time></trkpt><trkpt lat="44.883405" lon="8.0739067"><ele>225.99999999999997</ele><time>2026-04-19T08:33:02.087Z</time></trkpt><trkpt lat="44.88333" lon="8.0739133"><ele>226.0</ele><time>2026-04-19T08:33:04.091Z</time></trkpt><trkpt lat="44.8832533" lon="8.0739533"><ele>225.33333333333331</ele><time>2026-04-19T08:33:07.093Z</time></trkpt><trkpt lat="44.8832383" lon="8.0740633"><ele>224.66666666666666</ele><time>2026-04-19T08:33:13.093Z</time></trkpt><trkpt lat="44.8832483" lon="8.0741617"><ele>224.0</ele><time>2026-04-19T08:33:16.094Z</time></trkpt><trkpt lat="44.8831833" lon="8.0742233"><ele>223.33333333333331</ele><time>2026-04-19T08:33:23.132Z</time></trkpt><trkpt lat="44.88311" lon="8.07429"><ele>222.66666666666666</ele><time>2026-04-19T08:33:27.086Z</time></trkpt><trkpt lat="44.88305" lon="8.0743567"><ele>222.0</ele><time>2026-04-19T08:33:29.155Z</time></trkpt><trkpt lat="44.8830317" lon="8.074475"><ele>219.83333333333334</ele><time>2026-04-19T08:33:32.095Z</time></trkpt><trkpt lat="44.8830783" lon="8.0745467"><ele>217.66666666666669</ele><time>2026-04-19T08:33:34.086Z</time></trkpt><trkpt lat="44.8831183" lon="8.07464"><ele>215.5</ele><time>2026-04-19T08:33:36.093Z</time></trkpt><trkpt lat="44.88318" lon="8.07473"><ele>213.33333333333334</ele><time>2026-04-19T08:33:38.089Z</time></trkpt><trkpt lat="44.8832567" lon="8.07477"><ele>211.16666666666669</ele><time>2026-04-19T08:33:40.092Z</time></trkpt><trkpt lat="44.8833367" lon="8.07476"><ele>209.0</ele><time>2026-04-19T08:33:42.087Z</time></trkpt><trkpt lat="44.8834017" lon="8.07479"><ele>210.39999999999998</ele><time>2026-04-19T08:33:45.101Z</time></trkpt><trkpt lat="44.883465" lon="8.0748533"><ele>211.8</ele><time>2026-04-19T08:33:49.09Z</time></trkpt><trkpt lat="44.883555" lon="8.0748833"><ele>213.20000000000002</ele><time>2026-04-19T08:33:51.099Z</time></trkpt><trkpt lat="44.8836217" lon="8.074885"><ele>214.60000000000002</ele><time>2026-04-19T08:33:52.091Z</time></trkpt><trkpt lat="44.883735" lon="8.0749067"><ele>216.0</ele><time>2026-04-19T08:33:54.091Z</time></trkpt><trkpt lat="44.88383" lon="8.0749583"><ele>212.66666666666666</ele><time>2026-04-19T08:33:56.098Z</time></trkpt><trkpt lat="44.883895" lon="8.0749817"><ele>209.33333333333331</ele><time>2026-04-19T08:33:57.092Z</time></trkpt><trkpt lat="44.8839867" lon="8.074985"><ele>206.0</ele><time>2026-04-19T08:33:59.143Z</time></trkpt><trkpt lat="44.8840633" lon="8.0750117"><ele>202.66666666666666</ele><time>2026-04-19T08:34:01.087Z</time></trkpt><trkpt lat="44.8841533" lon="8.0750367"><ele>199.33333333333331</ele><time>2026-04-19T08:34:03.092Z</time></trkpt><trkpt lat="44.884225" lon="8.0750733"><ele>196.0</ele><time>2026-04-19T08:34:04.09Z</time></trkpt><trkpt lat="44.8842967" lon="8.0750833"><ele>194.4</ele><time>2026-04-19T08:34:05.15Z</time></trkpt><trkpt lat="44.8844333" lon="8.075085"><ele>192.8</ele><time>2026-04-19T08:34:07.097Z</time></trkpt><trkpt lat="44.8845233" lon="8.0750983"><ele>191.20000000000002</ele><time>2026-04-19T08:34:08.093Z</time></trkpt><trkpt lat="44.8846033" lon="8.0750933"><ele>189.60000000000002</ele><time>2026-04-19T08:34:09.095Z</time></trkpt><trkpt lat="44.8846717" lon="8.075095"><ele>188.0</ele><time>2026-04-19T08:34:10.091Z</time></trkpt><trkpt lat="44.8847583" lon="8.0751167"><ele>188.0</ele><time>2026-04-19T08:34:12.085Z</time></trkpt><trkpt lat="44.8848217" lon="8.0752033"><ele>188.0</ele><time>2026-04-19T08:34:15.085Z</time></trkpt><trkpt lat="44.8848267" lon="8.07537"><ele>188.0</ele><time>2026-04-19T08:34:17.134Z</time></trkpt><trkpt lat="44.8848317" lon="8.0754733"><ele>188.0</ele><time>2026-04-19T08:34:18.089Z</time></trkpt><trkpt lat="44.8848417" lon="8.0755617"><ele>188.0</ele><time>2026-04-19T08:34:19.098Z</time></trkpt><trkpt lat="44.884865" lon="8.0757017"><ele>188.0</ele><time>2026-04-19T08:34:21.097Z</time></trkpt><trkpt lat="44.8849083" lon="8.0758783"><ele>187.66666666666666</ele><time>2026-04-19T08:34:23.132Z</time></trkpt><trkpt lat="44.88493" lon="8.0759833"><ele>187.33333333333331</ele><time>2026-04-19T08:34:24.091Z</time></trkpt><trkpt lat="44.8849517" lon="8.0760917"><ele>187.0</ele><time>2026-04-19T08:34:25.09Z</time></trkpt><trkpt lat="44.8849783" lon="8.0762"><ele>186.66666666666666</ele><time>2026-04-19T08:34:26.088Z</time></trkpt><trkpt lat="44.8849967" lon="8.0763033"><ele>186.33333333333334</ele><time>2026-04-19T08:34:27.09Z</time></trkpt><trkpt lat="44.88501" lon="8.0764083"><ele>186.0</ele><time>2026-04-19T08:34:28.093Z</time></trkpt><trkpt lat="44.8850217" lon="8.07652"><ele>187.33333333333334</ele><time>2026-04-19T08:34:29.152Z</time></trkpt><trkpt lat="44.8850383" lon="8.0766417"><ele>188.66666666666669</ele><time>2026-04-19T08:34:30.085Z</time></trkpt><trkpt lat="44.8850533" lon="8.0767617"><ele>190.0</ele><time>2026-04-19T08:34:31.098Z</time></trkpt><trkpt lat="44.8850833" lon="8.0768683"><ele>191.33333333333334</ele><time>2026-04-19T08:34:32.089Z</time></trkpt><trkpt lat="44.8851283" lon="8.0770117"><ele>192.66666666666669</ele><time>2026-04-19T08:34:34.095Z</time></trkpt><trkpt lat="44.88516" lon="8.0770983"><ele>194.0</ele><time>2026-04-19T08:34:38.088Z</time></trkpt><trkpt lat="44.885165" lon="8.0772233"><ele>193.79999999999998</ele><time>2026-04-19T08:34:41.136Z</time></trkpt><trkpt lat="44.88521" lon="8.0773867"><ele>193.6</ele><time>2026-04-19T08:34:43.087Z</time></trkpt><trkpt lat="44.885235" lon="8.077505"><ele>193.4</ele><time>2026-04-19T08:34:44.087Z</time></trkpt><trkpt lat="44.8852633" lon="8.0776267"><ele>193.2</ele><time>2026-04-19T08:34:45.089Z</time></trkpt><trkpt lat="44.8852983" lon="8.0777517"><ele>193.0</ele><time>2026-04-19T08:34:46.088Z</time></trkpt><trkpt lat="44.8853433" lon="8.0778817"><ele>192.99999999999997</ele><time>2026-04-19T08:34:47.133Z</time></trkpt><trkpt lat="44.885385" lon="8.0780183"><ele>193.0</ele><time>2026-04-19T08:34:48.097Z</time></trkpt><trkpt lat="44.885415" lon="8.078145"><ele>193.0</ele><time>2026-04-19T08:34:49.097Z</time></trkpt><trkpt lat="44.8854433" lon="8.0782683"><ele>193.0</ele><time>2026-04-19T08:34:50.094Z</time></trkpt><trkpt lat="44.8854633" lon="8.0783767"><ele>192.99999999999997</ele><time>2026-04-19T08:34:51.093Z</time></trkpt><trkpt lat="44.8854833" lon="8.078465"><ele>193.0</ele><time>2026-04-19T08:34:52.091Z</time></trkpt><trkpt lat="44.8855067" lon="8.0785683"><ele>191.83333333333331</ele><time>2026-04-19T08:34:54.088Z</time></trkpt><trkpt lat="44.88557" lon="8.078515"><ele>190.66666666666666</ele><time>2026-04-19T08:35:42.085Z</time></trkpt><trkpt lat="44.8856417" lon="8.0784633"><ele>189.5</ele><time>2026-04-19T08:35:44.091Z</time></trkpt><trkpt lat="44.8857167" lon="8.078405"><ele>188.33333333333331</ele><time>2026-04-19T08:35:46.095Z</time></trkpt><trkpt lat="44.885795" lon="8.078375"><ele>187.16666666666666</ele><time>2026-04-19T08:37:33.088Z</time></trkpt><trkpt lat="44.885875" lon="8.0783467"><ele>186.0</ele><time>2026-04-19T08:37:35.152Z</time></trkpt><trkpt lat="44.885955" lon="8.0783333"><ele>190.4</ele><time>2026-04-19T08:37:37.095Z</time></trkpt><trkpt lat="44.8860067" lon="8.0784167"><ele>194.8</ele><time>2026-04-19T08:37:40.09Z</time></trkpt><trkpt lat="44.8860183" lon="8.0785317"><ele>199.20000000000002</ele><time>2026-04-19T08:37:42.088Z</time></trkpt><trkpt lat="44.8860533" lon="8.078695"><ele>203.60000000000002</ele><time>2026-04-19T08:37:44.092Z</time></trkpt><trkpt lat="44.88607" lon="8.0788117"><ele>208.0</ele><time>2026-04-19T08:37:45.095Z</time></trkpt><trkpt lat="44.8861033" lon="8.0789583"><ele>205.75</ele><time>2026-04-19T08:37:46.085Z</time></trkpt><trkpt lat="44.8861467" lon="8.07914"><ele>203.5</ele><time>2026-04-19T08:37:47.139Z</time></trkpt><trkpt lat="44.8862017" lon="8.0793383"><ele>201.25</ele><time>2026-04-19T08:37:48.092Z</time></trkpt><trkpt lat="44.886245" lon="8.0795267"><ele>199.0</ele><time>2026-04-19T08:37:49.1Z</time></trkpt><trkpt lat="44.8862767" lon="8.079705"><ele>199.0</ele><time>2026-04-19T08:37:50.097Z</time></trkpt><trkpt lat="44.88631" lon="8.07988"><ele>199.0</ele><time>2026-04-19T08:37:51.089Z</time></trkpt><trkpt lat="44.8863383" lon="8.0800467"><ele>199.0</ele><time>2026-04-19T08:37:52.092Z</time></trkpt><trkpt lat="44.8863733" lon="8.0801717"><ele>199.0</ele><time>2026-04-19T08:37:53.137Z</time></trkpt><trkpt lat="44.88641" lon="8.08028"><ele>199.0</ele><time>2026-04-19T08:37:54.088Z</time></trkpt><trkpt lat="44.8864483" lon="8.0803817"><ele>198.66666666666666</ele><time>2026-04-19T08:37:55.096Z</time></trkpt><trkpt lat="44.88648" lon="8.08048"><ele>198.33333333333331</ele><time>2026-04-19T08:37:56.098Z</time></trkpt><trkpt lat="44.88651" lon="8.0805783"><ele>198.0</ele><time>2026-04-19T08:37:57.091Z</time></trkpt><trkpt lat="44.8865783" lon="8.0807133"><ele>197.66666666666669</ele><time>2026-04-19T08:37:59.124Z</time></trkpt><trkpt lat="44.88668" lon="8.0807667"><ele>197.33333333333334</ele><time>2026-04-19T08:38:01.1Z</time></trkpt><trkpt lat="44.8867367" lon="8.08081"><ele>197.0</ele><time>2026-04-19T08:38:04.084Z</time></trkpt><trkpt lat="44.8867583" lon="8.0809133"><ele>196.66666666666669</ele><time>2026-04-19T08:38:09.087Z</time></trkpt><trkpt lat="44.88674" lon="8.0810283"><ele>196.33333333333334</ele><time>2026-04-19T08:38:13.088Z</time></trkpt><trkpt lat="44.8867217" lon="8.0811467"><ele>196.0</ele><time>2026-04-19T08:38:17.138Z</time></trkpt><trkpt lat="44.8866967" lon="8.0812733"><ele>195.66666666666669</ele><time>2026-04-19T08:38:19.09Z</time></trkpt><trkpt lat="44.8866817" lon="8.08136"><ele>195.33333333333334</ele><time>2026-04-19T08:38:20.082Z</time></trkpt><trkpt lat="44.8866617" lon="8.0814633"><ele>195.0</ele><time>2026-04-19T08:38:21.092Z</time></trkpt><trkpt lat="44.88665" lon="8.0815667"><ele>194.66666666666666</ele><time>2026-04-19T08:38:22.09Z</time></trkpt><trkpt lat="44.8866333" lon="8.0816733"><ele>194.33333333333331</ele><time>2026-04-19T08:38:23.14Z</time></trkpt><trkpt lat="44.8866267" lon="8.0817667"><ele>194.0</ele><time>2026-04-19T08:38:24.089Z</time></trkpt><trkpt lat="44.886635" lon="8.0819167"><ele>193.66666666666666</ele><time>2026-04-19T08:38:26.091Z</time></trkpt><trkpt lat="44.8866883" lon="8.0820117"><ele>193.33333333333331</ele><time>2026-04-19T08:38:28.095Z</time></trkpt><trkpt lat="44.8867217" lon="8.0821117"><ele>193.0</ele><time>2026-04-19T08:38:30.081Z</time></trkpt><trkpt lat="44.88672" lon="8.0822417"><ele>192.8</ele><time>2026-04-19T08:38:32.093Z</time></trkpt><trkpt lat="44.8866983" lon="8.0824417"><ele>192.60000000000002</ele><time>2026-04-19T08:38:34.099Z</time></trkpt><trkpt lat="44.8866733" lon="8.0825517"><ele>192.39999999999998</ele><time>2026-04-19T08:38:35.145Z</time></trkpt><trkpt lat="44.8866483" lon="8.082695"><ele>192.2</ele><time>2026-04-19T08:38:36.086Z</time></trkpt><trkpt lat="44.8866233" lon="8.0828533"><ele>192.0</ele><time>2026-04-19T08:38:37.092Z</time></trkpt><trkpt lat="44.8866133" lon="8.083015"><ele>192.0</ele><time>2026-04-19T08:38:38.09Z</time></trkpt><trkpt lat="44.88663" lon="8.0831633"><ele>192.0</ele><time>2026-04-19T08:38:39.086Z</time></trkpt><trkpt lat="44.88666" lon="8.0833083"><ele>192.0</ele><time>2026-04-19T08:38:40.09Z</time></trkpt><trkpt lat="44.8867183" lon="8.0834817"><ele>192.0</ele><time>2026-04-19T08:38:41.139Z</time></trkpt><trkpt lat="44.8867767" lon="8.0836517"><ele>185.25</ele><time>2026-04-19T08:38:42.088Z</time></trkpt><trkpt lat="44.8868233" lon="8.0838"><ele>178.5</ele><time>2026-04-19T08:38:43.097Z</time></trkpt><trkpt lat="44.88687" lon="8.0839517"><ele>171.75</ele><time>2026-04-19T08:38:44.095Z</time></trkpt><trkpt lat="44.886905" lon="8.0841067"><ele>165.0</ele><time>2026-04-19T08:38:45.093Z</time></trkpt><trkpt lat="44.8869383" lon="8.0842467"><ele>164.6</ele><time>2026-04-19T08:38:46.093Z</time></trkpt><trkpt lat="44.88697" lon="8.0843733"><ele>164.2</ele><time>2026-04-19T08:38:47.136Z</time></trkpt><trkpt lat="44.8869967" lon="8.0844983"><ele>163.8</ele><time>2026-04-19T08:38:48.094Z</time></trkpt><trkpt lat="44.8870067" lon="8.0846233"><ele>163.4</ele><time>2026-04-19T08:38:49.089Z</time></trkpt><trkpt lat="44.8869967" lon="8.0847567"><ele>163.0</ele><time>2026-04-19T08:38:50.091Z</time></trkpt><trkpt lat="44.8869667" lon="8.0849067"><ele>163.60000000000002</ele><time>2026-04-19T08:38:51.095Z</time></trkpt><trkpt lat="44.8869283" lon="8.0850633"><ele>164.20000000000002</ele><time>2026-04-19T08:38:52.086Z</time></trkpt><trkpt lat="44.886895" lon="8.08522"><ele>164.8</ele><time>2026-04-19T08:38:53.143Z</time></trkpt><trkpt lat="44.88689" lon="8.0853683"><ele>165.4</ele><time>2026-04-19T08:38:54.087Z</time></trkpt><trkpt lat="44.8868967" lon="8.0855217"><ele>166.0</ele><time>2026-04-19T08:38:55.099Z</time></trkpt><trkpt lat="44.8869067" lon="8.0856633"><ele>166.0</ele><time>2026-04-19T08:38:56.085Z</time></trkpt><trkpt lat="44.8869333" lon="8.0857917"><ele>166.0</ele><time>2026-04-19T08:38:57.093Z</time></trkpt><trkpt lat="44.8869567" lon="8.0859467"><ele>166.0</ele><time>2026-04-19T08:38:58.085Z</time></trkpt><trkpt lat="44.887005" lon="8.086095"><ele>166.0</ele><time>2026-04-19T08:38:59.154Z</time></trkpt><trkpt lat="44.887065" lon="8.0862467"><ele>166.0</ele><time>2026-04-19T08:39:00.08Z</time></trkpt><trkpt lat="44.88712" lon="8.0863833"><ele>166.0</ele><time>2026-04-19T08:39:01.086Z</time></trkpt><trkpt lat="44.88718" lon="8.0864867"><ele>166.0</ele><time>2026-04-19T08:39:02.088Z</time></trkpt><trkpt lat="44.88725" lon="8.0865783"><ele>166.0</ele><time>2026-04-19T08:39:03.093Z</time></trkpt><trkpt lat="44.88732" lon="8.08664"><ele>166.0</ele><time>2026-04-19T08:39:04.091Z</time></trkpt><trkpt lat="44.887405" lon="8.0866967"><ele>166.0</ele><time>2026-04-19T08:39:05.151Z</time></trkpt><trkpt lat="44.8874967" lon="8.0867483"><ele>165.0</ele><time>2026-04-19T08:39:06.09Z</time></trkpt><trkpt lat="44.8875817" lon="8.0868083"><ele>164.0</ele><time>2026-04-19T08:39:07.094Z</time></trkpt><trkpt lat="44.8876683" lon="8.08688"><ele>163.0</ele><time>2026-04-19T08:39:08.089Z</time></trkpt><trkpt lat="44.8877417" lon="8.0869683"><ele>162.0</ele><time>2026-04-19T08:39:09.088Z</time></trkpt><trkpt lat="44.887805" lon="8.0870767"><ele>161.0</ele><time>2026-04-19T08:39:10.089Z</time></trkpt><trkpt lat="44.8878067" lon="8.0872683"><ele>162.60000000000002</ele><time>2026-04-19T08:39:11.139Z</time></trkpt><trkpt lat="44.8878333" lon="8.0874233"><ele>164.2</ele><time>2026-04-19T08:39:12.087Z</time></trkpt><trkpt lat="44.8878717" lon="8.0875717"><ele>165.8</ele><time>2026-04-19T08:39:13.089Z</time></trkpt><trkpt lat="44.8879067" lon="8.08771"><ele>167.39999999999998</ele><time>2026-04-19T08:39:14.089Z</time></trkpt><trkpt lat="44.887955" lon="8.0878017"><ele>169.0</ele><time>2026-04-19T08:39:15.085Z</time></trkpt><trkpt lat="44.8880367" lon="8.0878067"><ele>169.0</ele><time>2026-04-19T08:39:16.086Z</time></trkpt><trkpt lat="44.8881233" lon="8.087815"><ele>169.0</ele><time>2026-04-19T08:39:17.13Z</time></trkpt><trkpt lat="44.8882267" lon="8.08783"><ele>169.0</ele><time>2026-04-19T08:39:18.089Z</time></trkpt><trkpt lat="44.8883417" lon="8.08784"><ele>169.0</ele><time>2026-04-19T08:39:19.089Z</time></trkpt><trkpt lat="44.8884717" lon="8.087855"><ele>169.0</ele><time>2026-04-19T08:39:20.087Z</time></trkpt><trkpt lat="44.888595" lon="8.0878783"><ele>172.2</ele><time>2026-04-19T08:39:21.092Z</time></trkpt><trkpt lat="44.8887117" lon="8.0879133"><ele>175.39999999999998</ele><time>2026-04-19T08:39:22.094Z</time></trkpt><trkpt lat="44.8888117" lon="8.0879367"><ele>178.6</ele><time>2026-04-19T08:39:23.132Z</time></trkpt><trkpt lat="44.8889133" lon="8.087945"><ele>181.8</ele><time>2026-04-19T08:39:24.084Z</time></trkpt><trkpt lat="44.8889967" lon="8.0879367"><ele>185.0</ele><time>2026-04-19T08:39:25.093Z</time></trkpt><trkpt lat="44.8890883" lon="8.087935"><ele>185.0</ele><time>2026-04-19T08:39:26.088Z</time></trkpt><trkpt lat="44.8891933" lon="8.0879383"><ele>185.0</ele><time>2026-04-19T08:39:27.098Z</time></trkpt><trkpt lat="44.8893117" lon="8.087935"><ele>185.0</ele><time>2026-04-19T08:39:28.084Z</time></trkpt><trkpt lat="44.8894383" lon="8.0879267"><ele>185.0</ele><time>2026-04-19T08:39:29.154Z</time></trkpt><trkpt lat="44.88957" lon="8.0879217"><ele>189.75</ele><time>2026-04-19T08:39:30.09Z</time></trkpt><trkpt lat="44.8896967" lon="8.0879"><ele>194.5</ele><time>2026-04-19T08:39:31.086Z</time></trkpt><trkpt lat="44.8898233" lon="8.0878717"><ele>199.25</ele><time>2026-04-19T08:39:32.087Z</time></trkpt><trkpt lat="44.8899317" lon="8.0878383"><ele>204.0</ele><time>2026-04-19T08:39:33.09Z</time></trkpt><trkpt lat="44.8900283" lon="8.0878083"><ele>206.5</ele><time>2026-04-19T08:39:34.092Z</time></trkpt><trkpt lat="44.8901183" lon="8.0877883"><ele>209.0</ele><time>2026-04-19T08:39:35.155Z</time></trkpt><trkpt lat="44.8902133" lon="8.087795"><ele>211.5</ele><time>2026-04-19T08:39:36.082Z</time></trkpt><trkpt lat="44.8903067" lon="8.0878267"><ele>214.0</ele><time>2026-04-19T08:39:37.091Z</time></trkpt><trkpt lat="44.8903917" lon="8.08784"><ele>216.5</ele><time>2026-04-19T08:39:38.089Z</time></trkpt><trkpt lat="44.8904667" lon="8.0878433"><ele>219.0</ele><time>2026-04-19T08:39:39.091Z</time></trkpt><trkpt lat="44.8905917" lon="8.087815"><ele>219.0</ele><time>2026-04-19T08:39:41.134Z</time></trkpt><trkpt lat="44.89066" lon="8.0878067"><ele>219.0</ele><time>2026-04-19T08:39:42.084Z</time></trkpt><trkpt lat="44.8907283" lon="8.0878383"><ele>219.0</ele><time>2026-04-19T08:39:43.091Z</time></trkpt><trkpt lat="44.8907983" lon="8.0878783"><ele>219.0</ele><time>2026-04-19T08:39:44.089Z</time></trkpt><trkpt lat="44.8908817" lon="8.0879217"><ele>219.0</ele><time>2026-04-19T08:39:45.091Z</time></trkpt><trkpt lat="44.8909567" lon="8.0879717"><ele>219.0</ele><time>2026-04-19T08:39:46.088Z</time></trkpt><trkpt lat="44.8910467" lon="8.08804"><ele>218.33333333333334</ele><time>2026-04-19T08:39:47.135Z</time></trkpt><trkpt lat="44.8911267" lon="8.0881117"><ele>217.66666666666669</ele><time>2026-04-19T08:39:48.087Z</time></trkpt><trkpt lat="44.891195" lon="8.088165"><ele>217.0</ele><time>2026-04-19T08:39:49.092Z</time></trkpt><trkpt lat="44.891245" lon="8.08823"><ele>216.33333333333334</ele><time>2026-04-19T08:39:50.091Z</time></trkpt><trkpt lat="44.8913083" lon="8.08822"><ele>215.66666666666669</ele><time>2026-04-19T08:39:51.092Z</time></trkpt><trkpt lat="44.89139" lon="8.0881783"><ele>215.0</ele><time>2026-04-19T08:39:53.132Z</time></trkpt><trkpt lat="44.891475" lon="8.088125"><ele>215.0</ele><time>2026-04-19T08:40:12.082Z</time></trkpt><trkpt lat="44.8915683" lon="8.08805"><ele>215.0</ele><time>2026-04-19T08:40:14.09Z</time></trkpt><trkpt lat="44.8916767" lon="8.0880367"><ele>215.0</ele><time>2026-04-19T08:40:16.09Z</time></trkpt><trkpt lat="44.8917117" lon="8.0881517"><ele>215.0</ele><time>2026-04-19T08:40:18.084Z</time></trkpt><trkpt lat="44.8916817" lon="8.0882317"><ele>215.0</ele><time>2026-04-19T08:40:19.087Z</time></trkpt><trkpt lat="44.8916317" lon="8.0883233"><ele>214.66666666666669</ele><time>2026-04-19T08:40:20.083Z</time></trkpt><trkpt lat="44.891575" lon="8.0884367"><ele>214.33333333333334</ele><time>2026-04-19T08:40:21.084Z</time></trkpt><trkpt lat="44.89152" lon="8.0885383"><ele>214.0</ele><time>2026-04-19T08:40:22.093Z</time></trkpt><trkpt lat="44.8914667" lon="8.088635"><ele>213.66666666666669</ele><time>2026-04-19T08:40:23.145Z</time></trkpt><trkpt lat="44.8914267" lon="8.0887367"><ele>213.33333333333334</ele><time>2026-04-19T08:40:24.091Z</time></trkpt><trkpt lat="44.8913983" lon="8.0888333"><ele>213.0</ele><time>2026-04-19T08:40:25.092Z</time></trkpt><trkpt lat="44.8913733" lon="8.0889167"><ele>213.0</ele><time>2026-04-19T08:40:26.093Z</time></trkpt><trkpt lat="44.89137" lon="8.0890183"><ele>213.0</ele><time>2026-04-19T08:40:28.092Z</time></trkpt><trkpt lat="44.8914567" lon="8.08893"><ele>213.0</ele><time>2026-04-19T08:40:32.094Z</time></trkpt><trkpt lat="44.8915267" lon="8.088855"><ele>213.0</ele><time>2026-04-19T08:40:34.091Z</time></trkpt><trkpt lat="44.8915933" lon="8.0888117"><ele>213.0</ele><time>2026-04-19T08:40:36.088Z</time></trkpt><trkpt lat="44.8916583" lon="8.08875"><ele>213.0</ele><time>2026-04-19T08:40:38.093Z</time></trkpt><trkpt lat="44.8917533" lon="8.08862"><ele>210.0</ele><time>2026-04-19T08:40:40.098Z</time></trkpt><trkpt lat="44.8918267" lon="8.0885417"><ele>207.0</ele><time>2026-04-19T08:40:41.135Z</time></trkpt><trkpt lat="44.8919167" lon="8.08848"><ele>204.0</ele><time>2026-04-19T08:40:42.088Z</time></trkpt><trkpt lat="44.8920067" lon="8.0884417"><ele>201.0</ele><time>2026-04-19T08:40:43.089Z</time></trkpt><trkpt lat="44.8921033" lon="8.088425"><ele>198.0</ele><time>2026-04-19T08:40:44.088Z</time></trkpt><trkpt lat="44.892205" lon="8.0884317"><ele>198.0</ele><time>2026-04-19T08:40:45.091Z</time></trkpt><trkpt lat="44.892335" lon="8.0884883"><ele>198.0</ele><time>2026-04-19T08:40:46.085Z</time></trkpt><trkpt lat="44.8924467" lon="8.0885033"><ele>198.0</ele><time>2026-04-19T08:40:47.138Z</time></trkpt><trkpt lat="44.89256" lon="8.0885217"><ele>198.0</ele><time>2026-04-19T08:40:48.083Z</time></trkpt><trkpt lat="44.8926717" lon="8.088555"><ele>194.75</ele><time>2026-04-19T08:40:49.082Z</time></trkpt><trkpt lat="44.8927733" lon="8.0886067"><ele>191.5</ele><time>2026-04-19T08:40:50.094Z</time></trkpt><trkpt lat="44.8928767" lon="8.08867"><ele>188.25</ele><time>2026-04-19T08:40:51.096Z</time></trkpt><trkpt lat="44.8929817" lon="8.0887517"><ele>185.0</ele><time>2026-04-19T08:40:52.093Z</time></trkpt><trkpt lat="44.8930867" lon="8.08884"><ele>185.0</ele><time>2026-04-19T08:40:53.138Z</time></trkpt><trkpt lat="44.893185" lon="8.08891"><ele>185.0</ele><time>2026-04-19T08:40:54.082Z</time></trkpt><trkpt lat="44.8932917" lon="8.0889567"><ele>185.0</ele><time>2026-04-19T08:40:55.086Z</time></trkpt><trkpt lat="44.8933967" lon="8.0889817"><ele>185.0</ele><time>2026-04-19T08:40:56.094Z</time></trkpt><trkpt lat="44.8935017" lon="8.0889667"><ele>185.0</ele><time>2026-04-19T08:40:57.091Z</time></trkpt><trkpt lat="44.893595" lon="8.0889133"><ele>182.4</ele><time>2026-04-19T08:40:58.086Z</time></trkpt><trkpt lat="44.89369" lon="8.0888517"><ele>179.8</ele><time>2026-04-19T08:40:59.164Z</time></trkpt><trkpt lat="44.8937817" lon="8.0887833"><ele>177.2</ele><time>2026-04-19T08:41:00.085Z</time></trkpt><trkpt lat="44.8938833" lon="8.088725"><ele>174.6</ele><time>2026-04-19T08:41:01.09Z</time></trkpt><trkpt lat="44.89399" lon="8.0886617"><ele>172.0</ele><time>2026-04-19T08:41:02.091Z</time></trkpt><trkpt lat="44.8941033" lon="8.08861"><ele>172.0</ele><time>2026-04-19T08:41:03.089Z</time></trkpt><trkpt lat="44.8942067" lon="8.0885867"><ele>172.0</ele><time>2026-04-19T08:41:04.095Z</time></trkpt><trkpt lat="44.894305" lon="8.0885917"><ele>172.0</ele><time>2026-04-19T08:41:05.149Z</time></trkpt><trkpt lat="44.8943917" lon="8.08861"><ele>172.0</ele><time>2026-04-19T08:41:06.087Z</time></trkpt><trkpt lat="44.8944717" lon="8.0886483"><ele>172.0</ele><time>2026-04-19T08:41:07.086Z</time></trkpt><trkpt lat="44.8945517" lon="8.0886633"><ele>172.0</ele><time>2026-04-19T08:41:08.094Z</time></trkpt><trkpt lat="44.8946267" lon="8.0886533"><ele>172.0</ele><time>2026-04-19T08:41:09.092Z</time></trkpt><trkpt lat="44.89471" lon="8.088585"><ele>172.0</ele><time>2026-04-19T08:41:10.099Z</time></trkpt><trkpt lat="44.8947983" lon="8.0885033"><ele>172.0</ele><time>2026-04-19T08:41:11.133Z</time></trkpt><trkpt lat="44.8948867" lon="8.0884267"><ele>172.0</ele><time>2026-04-19T08:41:12.092Z</time></trkpt><trkpt lat="44.89497" lon="8.0883783"><ele>172.0</ele><time>2026-04-19T08:41:13.092Z</time></trkpt><trkpt lat="44.895045" lon="8.0883517"><ele>172.0</ele><time>2026-04-19T08:41:14.09Z</time></trkpt><trkpt lat="44.895115" lon="8.0883433"><ele>172.0</ele><time>2026-04-19T08:41:15.092Z</time></trkpt><trkpt lat="44.8951933" lon="8.0883167"><ele>172.0</ele><time>2026-04-19T08:41:17.138Z</time></trkpt><trkpt lat="44.8952583" lon="8.08821"><ele>172.0</ele><time>2026-04-19T08:41:19.088Z</time></trkpt><trkpt lat="44.8953283" lon="8.0880817"><ele>172.0</ele><time>2026-04-19T08:41:21.095Z</time></trkpt><trkpt lat="44.8953683" lon="8.0880083"><ele>172.66666666666669</ele><time>2026-04-19T08:41:22.081Z</time></trkpt><trkpt lat="44.8954417" lon="8.087875"><ele>173.33333333333334</ele><time>2026-04-19T08:41:24.086Z</time></trkpt><trkpt lat="44.8954833" lon="8.0878083"><ele>174.0</ele><time>2026-04-19T08:41:25.093Z</time></trkpt><trkpt lat="44.8955283" lon="8.0877367"><ele>174.66666666666666</ele><time>2026-04-19T08:41:26.09Z</time></trkpt><trkpt lat="44.8955733" lon="8.0876567"><ele>175.33333333333331</ele><time>2026-04-19T08:41:27.088Z</time></trkpt><trkpt lat="44.8956267" lon="8.0875617"><ele>176.0</ele><time>2026-04-19T08:41:28.091Z</time></trkpt><trkpt lat="44.8956883" lon="8.087445"><ele>176.0</ele><time>2026-04-19T08:41:29.156Z</time></trkpt><trkpt lat="44.895755" lon="8.0873083"><ele>176.0</ele><time>2026-04-19T08:41:30.086Z</time></trkpt><trkpt lat="44.8958067" lon="8.0871717"><ele>176.0</ele><time>2026-04-19T08:41:31.093Z</time></trkpt><trkpt lat="44.8958467" lon="8.0870467"><ele>176.0</ele><time>2026-04-19T08:41:32.091Z</time></trkpt><trkpt lat="44.8958783" lon="8.0869433"><ele>176.0</ele><time>2026-04-19T08:41:33.09Z</time></trkpt><trkpt lat="44.8959067" lon="8.086855"><ele>177.66666666666666</ele><time>2026-04-19T08:41:34.093Z</time></trkpt><trkpt lat="44.8959383" lon="8.0867617"><ele>179.33333333333331</ele><time>2026-04-19T08:41:35.148Z</time></trkpt><trkpt lat="44.8959767" lon="8.0866683"><ele>181.0</ele><time>2026-04-19T08:41:36.083Z</time></trkpt><trkpt lat="44.8960217" lon="8.0865717"><ele>182.66666666666666</ele><time>2026-04-19T08:41:37.088Z</time></trkpt><trkpt lat="44.8960683" lon="8.086465"><ele>184.33333333333334</ele><time>2026-04-19T08:41:38.091Z</time></trkpt><trkpt lat="44.896125" lon="8.0863417"><ele>186.0</ele><time>2026-04-19T08:41:39.092Z</time></trkpt><trkpt lat="44.89618" lon="8.086215"><ele>186.0</ele><time>2026-04-19T08:41:40.094Z</time></trkpt><trkpt lat="44.896235" lon="8.086085"><ele>186.0</ele><time>2026-04-19T08:41:41.135Z</time></trkpt><trkpt lat="44.8962767" lon="8.0859617"><ele>186.0</ele><time>2026-04-19T08:41:42.091Z</time></trkpt><trkpt lat="44.8963017" lon="8.0858483"><ele>186.0</ele><time>2026-04-19T08:41:43.095Z</time></trkpt><trkpt lat="44.896315" lon="8.0857283"><ele>186.0</ele><time>2026-04-19T08:41:44.092Z</time></trkpt><trkpt lat="44.8963267" lon="8.085595"><ele>186.33333333333334</ele><time>2026-04-19T08:41:45.096Z</time></trkpt><trkpt lat="44.896305" lon="8.0853717"><ele>186.66666666666669</ele><time>2026-04-19T08:41:46.089Z</time></trkpt><trkpt lat="44.8962833" lon="8.085145"><ele>187.0</ele><time>2026-04-19T08:41:47.136Z</time></trkpt><trkpt lat="44.8962617" lon="8.0849167"><ele>185.75</ele><time>2026-04-19T08:41:48.089Z</time></trkpt><trkpt lat="44.8962467" lon="8.0846917"><ele>184.5</ele><time>2026-04-19T08:41:49.086Z</time></trkpt><trkpt lat="44.8962333" lon="8.0844767"><ele>183.25</ele><time>2026-04-19T08:41:50.088Z</time></trkpt><trkpt lat="44.8962283" lon="8.0842867"><ele>182.0</ele><time>2026-04-19T08:41:51.094Z</time></trkpt><trkpt lat="44.8962283" lon="8.0841183"><ele>182.33333333333331</ele><time>2026-04-19T08:41:52.096Z</time></trkpt><trkpt lat="44.8962267" lon="8.083975"><ele>182.66666666666666</ele><time>2026-04-19T08:41:53.144Z</time></trkpt><trkpt lat="44.8962317" lon="8.0838633"><ele>183.0</ele><time>2026-04-19T08:41:54.09Z</time></trkpt><trkpt lat="44.8962583" lon="8.0837733"><ele>183.33333333333334</ele><time>2026-04-19T08:41:56.089Z</time></trkpt><trkpt lat="44.896305" lon="8.08384"><ele>183.66666666666669</ele><time>2026-04-19T08:42:02.088Z</time></trkpt><trkpt lat="44.8964017" lon="8.0837317"><ele>184.0</ele><time>2026-04-19T08:42:04.094Z</time></trkpt><trkpt lat="44.896455" lon="8.0836683"><ele>184.0</ele><time>2026-04-19T08:42:05.146Z</time></trkpt><trkpt lat="44.8965433" lon="8.08359"><ele>184.0</ele><time>2026-04-19T08:42:07.089Z</time></trkpt><trkpt lat="44.8966417" lon="8.0835683"><ele>184.0</ele><time>2026-04-19T08:42:09.086Z</time></trkpt><trkpt lat="44.8967067" lon="8.0835783"><ele>184.0</ele><time>2026-04-19T08:42:10.095Z</time></trkpt><trkpt lat="44.896775" lon="8.0835883"><ele>184.0</ele><time>2026-04-19T08:42:11.134Z</time></trkpt><trkpt lat="44.8968617" lon="8.0836317"><ele>184.0</ele><time>2026-04-19T08:42:12.082Z</time></trkpt><trkpt lat="44.8969417" lon="8.0836917"><ele>179.6</ele><time>2026-04-19T08:42:13.09Z</time></trkpt><trkpt lat="44.89702" lon="8.0837533"><ele>175.2</ele><time>2026-04-19T08:42:14.091Z</time></trkpt><trkpt lat="44.8971033" lon="8.0838217"><ele>170.79999999999998</ele><time>2026-04-19T08:42:15.086Z</time></trkpt><trkpt lat="44.8971933" lon="8.0838867"><ele>166.39999999999998</ele><time>2026-04-19T08:42:16.086Z</time></trkpt><trkpt lat="44.8972783" lon="8.08396"><ele>162.0</ele><time>2026-04-19T08:42:17.136Z</time></trkpt><trkpt lat="44.8973583" lon="8.08404"><ele>163.39999999999998</ele><time>2026-04-19T08:42:18.088Z</time></trkpt><trkpt lat="44.8974317" lon="8.0841183"><ele>164.79999999999998</ele><time>2026-04-19T08:42:19.092Z</time></trkpt><trkpt lat="44.8974967" lon="8.0842183"><ele>166.2</ele><time>2026-04-19T08:42:20.097Z</time></trkpt><trkpt lat="44.897565" lon="8.084345"><ele>167.6</ele><time>2026-04-19T08:42:21.092Z</time></trkpt><trkpt lat="44.8976267" lon="8.0844583"><ele>169.0</ele><time>2026-04-19T08:42:22.091Z</time></trkpt><trkpt lat="44.8976833" lon="8.08456"><ele>166.16666666666669</ele><time>2026-04-19T08:42:23.134Z</time></trkpt><trkpt lat="44.89776" lon="8.0846367"><ele>163.33333333333334</ele><time>2026-04-19T08:42:24.085Z</time></trkpt><trkpt lat="44.8978333" lon="8.0846917"><ele>160.5</ele><time>2026-04-19T08:42:25.093Z</time></trkpt><trkpt lat="44.8979117" lon="8.0847017"><ele>157.66666666666666</ele><time>2026-04-19T08:42:26.091Z</time></trkpt><trkpt lat="44.89802" lon="8.084715"><ele>154.83333333333331</ele><time>2026-04-19T08:42:27.095Z</time></trkpt><trkpt lat="44.898095" lon="8.0846883"><ele>152.0</ele><time>2026-04-19T08:42:28.089Z</time></trkpt><trkpt lat="44.898185" lon="8.0846283"><ele>152.0</ele><time>2026-04-19T08:42:29.153Z</time></trkpt><trkpt lat="44.8982933" lon="8.0845533"><ele>152.0</ele><time>2026-04-19T08:42:30.082Z</time></trkpt><trkpt lat="44.8984217" lon="8.0844667"><ele>152.0</ele><time>2026-04-19T08:42:31.087Z</time></trkpt><trkpt lat="44.8985433" lon="8.0843733"><ele>152.0</ele><time>2026-04-19T08:42:32.086Z</time></trkpt><trkpt lat="44.898655" lon="8.0842767"><ele>151.33333333333331</ele><time>2026-04-19T08:42:33.093Z</time></trkpt><trkpt lat="44.8987517" lon="8.084185"><ele>150.66666666666666</ele><time>2026-04-19T08:42:34.093Z</time></trkpt><trkpt lat="44.89883" lon="8.08411"><ele>150.0</ele><time>2026-04-19T08:42:35.148Z</time></trkpt><trkpt lat="44.8988983" lon="8.0840333"><ele>149.33333333333334</ele><time>2026-04-19T08:42:36.093Z</time></trkpt><trkpt lat="44.8989433" lon="8.0839533"><ele>148.66666666666669</ele><time>2026-04-19T08:42:37.092Z</time></trkpt><trkpt lat="44.89897" lon="8.083865"><ele>148.0</ele><time>2026-04-19T08:42:38.09Z</time></trkpt><trkpt lat="44.898985" lon="8.0837633"><ele>148.0</ele><time>2026-04-19T08:42:39.097Z</time></trkpt><trkpt lat="44.8989817" lon="8.08363"><ele>148.0</ele><time>2026-04-19T08:42:40.085Z</time></trkpt><trkpt lat="44.8989467" lon="8.083465"><ele>148.0</ele><time>2026-04-19T08:42:41.137Z</time></trkpt><trkpt lat="44.898915" lon="8.0832933"><ele>148.0</ele><time>2026-04-19T08:42:42.084Z</time></trkpt><trkpt lat="44.89889" lon="8.0831283"><ele>147.75</ele><time>2026-04-19T08:42:43.095Z</time></trkpt><trkpt lat="44.8988667" lon="8.082965"><ele>147.5</ele><time>2026-04-19T08:42:44.091Z</time></trkpt><trkpt lat="44.8988317" lon="8.0828067"><ele>147.25</ele><time>2026-04-19T08:42:45.088Z</time></trkpt><trkpt lat="44.898785" lon="8.08266"><ele>147.0</ele><time>2026-04-19T08:42:46.097Z</time></trkpt><trkpt lat="44.8987333" lon="8.0825183"><ele>146.79999999999998</ele><time>2026-04-19T08:42:47.138Z</time></trkpt><trkpt lat="44.89868" lon="8.082385"><ele>146.6</ele><time>2026-04-19T08:42:48.078Z</time></trkpt><trkpt lat="44.8986267" lon="8.0822583"><ele>146.39999999999998</ele><time>2026-04-19T08:42:49.088Z</time></trkpt><trkpt lat="44.8985667" lon="8.0821433"><ele>146.2</ele><time>2026-04-19T08:42:50.09Z</time></trkpt><trkpt lat="44.8985017" lon="8.082055"><ele>146.0</ele><time>2026-04-19T08:42:51.095Z</time></trkpt><trkpt lat="44.8984283" lon="8.0820233"><ele>146.33333333333331</ele><time>2026-04-19T08:42:52.09Z</time></trkpt><trkpt lat="44.89835" lon="8.0820083"><ele>146.66666666666666</ele><time>2026-04-19T08:42:53.137Z</time></trkpt><trkpt lat="44.89826" lon="8.0819967"><ele>147.0</ele><time>2026-04-19T08:42:54.088Z</time></trkpt><trkpt lat="44.8981767" lon="8.0819667"><ele>147.33333333333334</ele><time>2026-04-19T08:42:55.09Z</time></trkpt><trkpt lat="44.8981" lon="8.0819233"><ele>147.66666666666669</ele><time>2026-04-19T08:42:56.097Z</time></trkpt><trkpt lat="44.898045" lon="8.0818367"><ele>148.0</ele><time>2026-04-19T08:42:57.09Z</time></trkpt><trkpt lat="44.898" lon="8.081735"><ele>148.0</ele><time>2026-04-19T08:42:58.096Z</time></trkpt><trkpt lat="44.8979617" lon="8.0816167"><ele>148.0</ele><time>2026-04-19T08:42:59.156Z</time></trkpt><trkpt lat="44.89793" lon="8.081495"><ele>148.0</ele><time>2026-04-19T08:43:00.082Z</time></trkpt><trkpt lat="44.8979117" lon="8.08137"><ele>148.0</ele><time>2026-04-19T08:43:01.089Z</time></trkpt><trkpt lat="44.89789" lon="8.0812517"><ele>148.0</ele><time>2026-04-19T08:43:02.09Z</time></trkpt><trkpt lat="44.89787" lon="8.0811283"><ele>148.0</ele><time>2026-04-19T08:43:03.088Z</time></trkpt><trkpt lat="44.89785" lon="8.080995"><ele>148.0</ele><time>2026-04-19T08:43:04.092Z</time></trkpt><trkpt lat="44.8978433" lon="8.080865"><ele>148.0</ele><time>2026-04-19T08:43:05.154Z</time></trkpt><trkpt lat="44.8978317" lon="8.08073"><ele>148.0</ele><time>2026-04-19T08:43:06.095Z</time></trkpt><trkpt lat="44.8978233" lon="8.0805817"><ele>148.0</ele><time>2026-04-19T08:43:07.094Z</time></trkpt><trkpt lat="44.8978133" lon="8.0804367"><ele>148.4</ele><time>2026-04-19T08:43:08.098Z</time></trkpt><trkpt lat="44.8978" lon="8.0802967"><ele>148.8</ele><time>2026-04-19T08:43:09.098Z</time></trkpt><trkpt lat="44.8977883" lon="8.08016"><ele>149.2</ele><time>2026-04-19T08:43:10.094Z</time></trkpt><trkpt lat="44.89778" lon="8.0800317"><ele>149.6</ele><time>2026-04-19T08:43:11.137Z</time></trkpt><trkpt lat="44.897765" lon="8.0799183"><ele>150.0</ele><time>2026-04-19T08:43:12.088Z</time></trkpt><trkpt lat="44.8977383" lon="8.0798017"><ele>150.0</ele><time>2026-04-19T08:43:13.092Z</time></trkpt><trkpt lat="44.8977167" lon="8.0796767"><ele>150.0</ele><time>2026-04-19T08:43:14.085Z</time></trkpt><trkpt lat="44.8977033" lon="8.0795467"><ele>150.0</ele><time>2026-04-19T08:43:15.089Z</time></trkpt><trkpt lat="44.89771" lon="8.0794233"><ele>150.0</ele><time>2026-04-19T08:43:16.094Z</time></trkpt><trkpt lat="44.8977367" lon="8.079305"><ele>150.0</ele><time>2026-04-19T08:43:17.14Z</time></trkpt><trkpt lat="44.897775" lon="8.0791833"><ele>150.2</ele><time>2026-04-19T08:43:18.085Z</time></trkpt><trkpt lat="44.8978017" lon="8.0790533"><ele>150.4</ele><time>2026-04-19T08:43:19.093Z</time></trkpt><trkpt lat="44.89783" lon="8.0789067"><ele>150.6</ele><time>2026-04-19T08:43:20.086Z</time></trkpt><trkpt lat="44.89784" lon="8.0787567"><ele>150.8</ele><time>2026-04-19T08:43:21.086Z</time></trkpt><trkpt lat="44.897855" lon="8.078605"><ele>151.0</ele><time>2026-04-19T08:43:22.085Z</time></trkpt><trkpt lat="44.89788" lon="8.07845"><ele>151.0</ele><time>2026-04-19T08:43:23.137Z</time></trkpt><trkpt lat="44.897905" lon="8.0782917"><ele>151.0</ele><time>2026-04-19T08:43:24.091Z</time></trkpt><trkpt lat="44.8979383" lon="8.0781317"><ele>151.0</ele><time>2026-04-19T08:43:25.096Z</time></trkpt><trkpt lat="44.8979783" lon="8.0779683"><ele>151.0</ele><time>2026-04-19T08:43:26.092Z</time></trkpt><trkpt lat="44.8980183" lon="8.0777917"><ele>151.0</ele><time>2026-04-19T08:43:27.094Z</time></trkpt><trkpt lat="44.8980467" lon="8.0776117"><ele>151.0</ele><time>2026-04-19T08:43:28.088Z</time></trkpt><trkpt lat="44.8980633" lon="8.0774183"><ele>151.0</ele><time>2026-04-19T08:43:29.157Z</time></trkpt><trkpt lat="44.89806" lon="8.0772183"><ele>151.0</ele><time>2026-04-19T08:43:30.097Z</time></trkpt><trkpt lat="44.8980467" lon="8.07701"><ele>151.0</ele><time>2026-04-19T08:43:31.087Z</time></trkpt><trkpt lat="44.8980333" lon="8.076795"><ele>151.0</ele><time>2026-04-19T08:43:32.086Z</time></trkpt><trkpt lat="44.8980233" lon="8.0765783"><ele>151.0</ele><time>2026-04-19T08:43:33.091Z</time></trkpt><trkpt lat="44.898015" lon="8.0763617"><ele>151.0</ele><time>2026-04-19T08:43:34.087Z</time></trkpt><trkpt lat="44.89801" lon="8.0761583"><ele>151.0</ele><time>2026-04-19T08:43:35.15Z</time></trkpt><trkpt lat="44.89801" lon="8.075965"><ele>151.0</ele><time>2026-04-19T08:43:36.081Z</time></trkpt><trkpt lat="44.8980233" lon="8.0757783"><ele>151.0</ele><time>2026-04-19T08:43:37.081Z</time></trkpt><trkpt lat="44.89805" lon="8.075605"><ele>151.0</ele><time>2026-04-19T08:43:38.085Z</time></trkpt><trkpt lat="44.898085" lon="8.0754417"><ele>151.0</ele><time>2026-04-19T08:43:39.089Z</time></trkpt><trkpt lat="44.8980983" lon="8.0753083"><ele>151.0</ele><time>2026-04-19T08:43:40.095Z</time></trkpt><trkpt lat="44.89809" lon="8.0752067"><ele>151.0</ele><time>2026-04-19T08:43:41.135Z</time></trkpt><trkpt lat="44.8980517" lon="8.07513"><ele>151.0</ele><time>2026-04-19T08:43:42.086Z</time></trkpt><trkpt lat="44.8979833" lon="8.0750533"><ele>151.0</ele><time>2026-04-19T08:43:43.094Z</time></trkpt><trkpt lat="44.897885" lon="8.074985"><ele>150.75</ele><time>2026-04-19T08:43:44.09Z</time></trkpt><trkpt lat="44.8977667" lon="8.074915"><ele>150.5</ele><time>2026-04-19T08:43:45.089Z</time></trkpt><trkpt lat="44.8976467" lon="8.0748433"><ele>150.25</ele><time>2026-04-19T08:43:46.09Z</time></trkpt><trkpt lat="44.8975333" lon="8.07477"><ele>150.0</ele><time>2026-04-19T08:43:47.131Z</time></trkpt><trkpt lat="44.8974383" lon="8.07471"><ele>151.0</ele><time>2026-04-19T08:43:48.083Z</time></trkpt><trkpt lat="44.89736" lon="8.0746633"><ele>152.0</ele><time>2026-04-19T08:43:49.086Z</time></trkpt><trkpt lat="44.8973167" lon="8.0745967"><ele>153.0</ele><time>2026-04-19T08:43:50.086Z</time></trkpt><trkpt lat="44.8972917" lon="8.07451"><ele>154.0</ele><time>2026-04-19T08:43:51.09Z</time></trkpt><trkpt lat="44.8972933" lon="8.07438"><ele>155.0</ele><time>2026-04-19T08:43:52.088Z</time></trkpt><trkpt lat="44.8973" lon="8.0742267"><ele>156.0</ele><time>2026-04-19T08:43:53.141Z</time></trkpt><trkpt lat="44.8973183" lon="8.0740517"><ele>156.0</ele><time>2026-04-19T08:43:54.089Z</time></trkpt><trkpt lat="44.897345" lon="8.073845"><ele>156.0</ele><time>2026-04-19T08:43:55.095Z</time></trkpt><trkpt lat="44.89736" lon="8.0736133"><ele>156.0</ele><time>2026-04-19T08:43:56.092Z</time></trkpt><trkpt lat="44.89737" lon="8.073375"><ele>157.75</ele><time>2026-04-19T08:43:57.092Z</time></trkpt><trkpt lat="44.897395" lon="8.07315"><ele>159.5</ele><time>2026-04-19T08:43:58.086Z</time></trkpt><trkpt lat="44.8974233" lon="8.0729533"><ele>161.25</ele><time>2026-04-19T08:43:59.161Z</time></trkpt><trkpt lat="44.8974517" lon="8.0727967"><ele>163.0</ele><time>2026-04-19T08:44:00.089Z</time></trkpt><trkpt lat="44.8974867" lon="8.0726483"><ele>163.0</ele><time>2026-04-19T08:44:01.092Z</time></trkpt><trkpt lat="44.8975283" lon="8.0725117"><ele>163.0</ele><time>2026-04-19T08:44:02.094Z</time></trkpt><trkpt lat="44.8975767" lon="8.0723833"><ele>163.0</ele><time>2026-04-19T08:44:03.095Z</time></trkpt><trkpt lat="44.89764" lon="8.07226"><ele>163.0</ele><time>2026-04-19T08:44:04.09Z</time></trkpt><trkpt lat="44.8977217" lon="8.072135"><ele>163.0</ele><time>2026-04-19T08:44:05.151Z</time></trkpt><trkpt lat="44.8978033" lon="8.0720117"><ele>159.75</ele><time>2026-04-19T08:44:06.088Z</time></trkpt><trkpt lat="44.8978983" lon="8.0718567"><ele>156.5</ele><time>2026-04-19T08:44:07.091Z</time></trkpt><trkpt lat="44.8979783" lon="8.07169"><ele>153.25</ele><time>2026-04-19T08:44:08.089Z</time></trkpt><trkpt lat="44.89804" lon="8.0715233"><ele>150.0</ele><time>2026-04-19T08:44:09.092Z</time></trkpt><trkpt lat="44.8981" lon="8.07135"><ele>150.0</ele><time>2026-04-19T08:44:10.092Z</time></trkpt><trkpt lat="44.8981317" lon="8.0711933"><ele>150.0</ele><time>2026-04-19T08:44:11.141Z</time></trkpt><trkpt lat="44.8981417" lon="8.0710383"><ele>150.0</ele><time>2026-04-19T08:44:12.089Z</time></trkpt><trkpt lat="44.8981333" lon="8.070875"><ele>150.0</ele><time>2026-04-19T08:44:13.092Z</time></trkpt><trkpt lat="44.8981083" lon="8.0707033"><ele>149.75</ele><time>2026-04-19T08:44:14.097Z</time></trkpt><trkpt lat="44.8980733" lon="8.0705233"><ele>149.5</ele><time>2026-04-19T08:44:15.085Z</time></trkpt><trkpt lat="44.8980283" lon="8.0703367"><ele>149.25</ele><time>2026-04-19T08:44:16.092Z</time></trkpt><trkpt lat="44.897975" lon="8.0701383"><ele>149.0</ele><time>2026-04-19T08:44:17.14Z</time></trkpt><trkpt lat="44.89794" lon="8.0699367"><ele>149.75</ele><time>2026-04-19T08:44:18.081Z</time></trkpt><trkpt lat="44.8978983" lon="8.06975"><ele>150.5</ele><time>2026-04-19T08:44:19.092Z</time></trkpt><trkpt lat="44.89786" lon="8.0695783"><ele>151.25</ele><time>2026-04-19T08:44:20.093Z</time></trkpt><trkpt lat="44.89782" lon="8.06943"><ele>152.0</ele><time>2026-04-19T08:44:21.096Z</time></trkpt><trkpt lat="44.8977867" lon="8.0693017"><ele>152.0</ele><time>2026-04-19T08:44:22.092Z</time></trkpt><trkpt lat="44.8977633" lon="8.0691767"><ele>152.0</ele><time>2026-04-19T08:44:23.142Z</time></trkpt><trkpt lat="44.8977367" lon="8.0690617"><ele>152.0</ele><time>2026-04-19T08:44:24.085Z</time></trkpt><trkpt lat="44.8977033" lon="8.0689383"><ele>152.0</ele><time>2026-04-19T08:44:25.082Z</time></trkpt><trkpt lat="44.8976783" lon="8.06882"><ele>152.0</ele><time>2026-04-19T08:44:26.088Z</time></trkpt><trkpt lat="44.89765" lon="8.068715"><ele>152.0</ele><time>2026-04-19T08:44:27.085Z</time></trkpt><trkpt lat="44.8976217" lon="8.0686117"><ele>152.16666666666666</ele><time>2026-04-19T08:44:28.093Z</time></trkpt><trkpt lat="44.897595" lon="8.0685033"><ele>152.33333333333331</ele><time>2026-04-19T08:44:29.156Z</time></trkpt><trkpt lat="44.8975633" lon="8.0683933"><ele>152.5</ele><time>2026-04-19T08:44:30.086Z</time></trkpt><trkpt lat="44.8975367" lon="8.068285"><ele>152.66666666666666</ele><time>2026-04-19T08:44:31.086Z</time></trkpt><trkpt lat="44.8975067" lon="8.0681433"><ele>152.83333333333334</ele><time>2026-04-19T08:44:33.091Z</time></trkpt><trkpt lat="44.8974417" lon="8.06812"><ele>153.0</ele><time>2026-04-19T08:44:36.091Z</time></trkpt><trkpt lat="44.8973767" lon="8.0681583"><ele>154.20000000000002</ele><time>2026-04-19T08:44:42.08Z</time></trkpt><trkpt lat="44.8972417" lon="8.0682083"><ele>155.4</ele><time>2026-04-19T08:44:44.088Z</time></trkpt><trkpt lat="44.89714" lon="8.0682317"><ele>156.60000000000002</ele><time>2026-04-19T08:44:45.081Z</time></trkpt><trkpt lat="44.8970483" lon="8.0682517"><ele>157.8</ele><time>2026-04-19T08:44:46.088Z</time></trkpt><trkpt lat="44.8969567" lon="8.0682567"><ele>159.0</ele><time>2026-04-19T08:44:47.135Z</time></trkpt><trkpt lat="44.8968667" lon="8.0682433"><ele>159.0</ele><time>2026-04-19T08:44:48.09Z</time></trkpt><trkpt lat="44.89679" lon="8.0682183"><ele>159.0</ele><time>2026-04-19T08:44:49.089Z</time></trkpt><trkpt lat="44.8967317" lon="8.0681833"><ele>159.0</ele><time>2026-04-19T08:44:50.086Z</time></trkpt><trkpt lat="44.8966633" lon="8.0680533"><ele>159.0</ele><time>2026-04-19T08:44:52.092Z</time></trkpt><trkpt lat="44.896645" lon="8.067955"><ele>159.0</ele><time>2026-04-19T08:44:53.137Z</time></trkpt><trkpt lat="44.8966267" lon="8.067835"><ele>159.0</ele><time>2026-04-19T08:44:54.088Z</time></trkpt><trkpt lat="44.8966217" lon="8.0677"><ele>164.0</ele><time>2026-04-19T08:44:55.093Z</time></trkpt><trkpt lat="44.896625" lon="8.0675617"><ele>169.0</ele><time>2026-04-19T08:44:56.093Z</time></trkpt><trkpt lat="44.89663" lon="8.0674267"><ele>174.0</ele><time>2026-04-19T08:44:57.089Z</time></trkpt><trkpt lat="44.8966367" lon="8.0672833"><ele>179.0</ele><time>2026-04-19T08:44:58.091Z</time></trkpt><trkpt lat="44.8966333" lon="8.0671567"><ele>184.0</ele><time>2026-04-19T08:44:59.141Z</time></trkpt><trkpt lat="44.8966233" lon="8.06704"><ele>184.5</ele><time>2026-04-19T08:45:00.083Z</time></trkpt><trkpt lat="44.8966117" lon="8.0669217"><ele>185.0</ele><time>2026-04-19T08:45:01.09Z</time></trkpt><trkpt lat="44.8965883" lon="8.0668067"><ele>185.5</ele><time>2026-04-19T08:45:02.094Z</time></trkpt><trkpt lat="44.8965567" lon="8.0666883"><ele>186.0</ele><time>2026-04-19T08:45:03.097Z</time></trkpt><trkpt lat="44.8965383" lon="8.06657"><ele>186.5</ele><time>2026-04-19T08:45:04.088Z</time></trkpt><trkpt lat="44.8965083" lon="8.06646"><ele>187.0</ele><time>2026-04-19T08:45:05.152Z</time></trkpt><trkpt lat="44.896485" lon="8.0663683"><ele>187.0</ele><time>2026-04-19T08:45:06.089Z</time></trkpt><trkpt lat="44.8964233" lon="8.0662833"><ele>187.0</ele><time>2026-04-19T08:45:08.092Z</time></trkpt><trkpt lat="44.89634" lon="8.0663383"><ele>187.0</ele><time>2026-04-19T08:45:10.085Z</time></trkpt><trkpt lat="44.8962683" lon="8.0664717"><ele>187.0</ele><time>2026-04-19T08:45:12.088Z</time></trkpt><trkpt lat="44.8962367" lon="8.06655"><ele>187.0</ele><time>2026-04-19T08:45:13.086Z</time></trkpt><trkpt lat="44.8962233" lon="8.06671"><ele>187.0</ele><time>2026-04-19T08:45:14.096Z</time></trkpt><trkpt lat="44.896205" lon="8.0668667"><ele>187.0</ele><time>2026-04-19T08:45:15.089Z</time></trkpt><trkpt lat="44.8961783" lon="8.0670083"><ele>187.0</ele><time>2026-04-19T08:45:16.09Z</time></trkpt><trkpt lat="44.896145" lon="8.0671183"><ele>187.0</ele><time>2026-04-19T08:45:17.13Z</time></trkpt><trkpt lat="44.8961" lon="8.067225"><ele>187.0</ele><time>2026-04-19T08:45:18.081Z</time></trkpt><trkpt lat="44.896045" lon="8.0673133"><ele>187.0</ele><time>2026-04-19T08:45:19.085Z</time></trkpt><trkpt lat="44.89599" lon="8.067385"><ele>187.0</ele><time>2026-04-19T08:45:20.092Z</time></trkpt><trkpt lat="44.89592" lon="8.0674433"><ele>187.0</ele><time>2026-04-19T08:45:21.085Z</time></trkpt><trkpt lat="44.8958333" lon="8.0674767"><ele>187.0</ele><time>2026-04-19T08:45:22.089Z</time></trkpt><trkpt lat="44.89572" lon="8.0674967"><ele>187.0</ele><time>2026-04-19T08:45:23.135Z</time></trkpt><trkpt lat="44.8956167" lon="8.06752"><ele>190.8</ele><time>2026-04-19T08:45:24.083Z</time></trkpt><trkpt lat="44.895525" lon="8.0675633"><ele>194.6</ele><time>2026-04-19T08:45:25.091Z</time></trkpt><trkpt lat="44.8954417" lon="8.0676183"><ele>198.4</ele><time>2026-04-19T08:45:26.086Z</time></trkpt><trkpt lat="44.8953667" lon="8.0676917"><ele>202.20000000000002</ele><time>2026-04-19T08:45:27.089Z</time></trkpt><trkpt lat="44.8952917" lon="8.0677817"><ele>206.0</ele><time>2026-04-19T08:45:28.092Z</time></trkpt><trkpt lat="44.8952167" lon="8.0678917"><ele>206.0</ele><time>2026-04-19T08:45:29.134Z</time></trkpt><trkpt lat="44.8951433" lon="8.0680133"><ele>206.0</ele><time>2026-04-19T08:45:30.086Z</time></trkpt><trkpt lat="44.8950733" lon="8.06815"><ele>206.0</ele><time>2026-04-19T08:45:31.087Z</time></trkpt><trkpt lat="44.895015" lon="8.0682883"><ele>206.0</ele><time>2026-04-19T08:45:32.088Z</time></trkpt><trkpt lat="44.8949633" lon="8.0684233"><ele>207.60000000000002</ele><time>2026-04-19T08:45:33.091Z</time></trkpt><trkpt lat="44.8949117" lon="8.0685367"><ele>209.2</ele><time>2026-04-19T08:45:34.087Z</time></trkpt><trkpt lat="44.8948533" lon="8.0686467"><ele>210.79999999999998</ele><time>2026-04-19T08:45:35.146Z</time></trkpt><trkpt lat="44.8947883" lon="8.0687517"><ele>212.39999999999998</ele><time>2026-04-19T08:45:36.09Z</time></trkpt><trkpt lat="44.89471" lon="8.0688283"><ele>214.0</ele><time>2026-04-19T08:45:37.088Z</time></trkpt><trkpt lat="44.8946117" lon="8.0688733"><ele>213.99999999999997</ele><time>2026-04-19T08:45:38.091Z</time></trkpt><trkpt lat="44.8945233" lon="8.068915"><ele>214.0</ele><time>2026-04-19T08:45:39.09Z</time></trkpt><trkpt lat="44.8944333" lon="8.0689533"><ele>214.0</ele><time>2026-04-19T08:45:40.096Z</time></trkpt><trkpt lat="44.894365" lon="8.06898"><ele>214.0</ele><time>2026-04-19T08:45:41.136Z</time></trkpt><trkpt lat="44.8943033" lon="8.0690133"><ele>213.99999999999997</ele><time>2026-04-19T08:45:42.089Z</time></trkpt><trkpt lat="44.894225" lon="8.069025"><ele>214.0</ele><time>2026-04-19T08:45:44.088Z</time></trkpt><trkpt lat="44.8941983" lon="8.0689433"><ele>214.0</ele><time>2026-04-19T08:45:48.079Z</time></trkpt><trkpt lat="44.8941467" lon="8.0688133"><ele>213.99999999999997</ele><time>2026-04-19T08:45:56.08Z</time></trkpt><trkpt lat="44.8940933" lon="8.06872"><ele>213.99999999999997</ele><time>2026-04-19T08:45:57.084Z</time></trkpt><trkpt lat="44.8940383" lon="8.0686267"><ele>214.0</ele><time>2026-04-19T08:45:58.086Z</time></trkpt><trkpt lat="44.893985" lon="8.0685283"><ele>214.0</ele><time>2026-04-19T08:45:59.15Z</time></trkpt><trkpt lat="44.8939417" lon="8.0684233"><ele>214.0</ele><time>2026-04-19T08:46:00.083Z</time></trkpt><trkpt lat="44.8939083" lon="8.0683183"><ele>213.99999999999997</ele><time>2026-04-19T08:46:01.085Z</time></trkpt><trkpt lat="44.89389" lon="8.0682"><ele>213.99999999999997</ele><time>2026-04-19T08:46:02.088Z</time></trkpt><trkpt lat="44.8938733" lon="8.0680733"><ele>214.0</ele><time>2026-04-19T08:46:03.083Z</time></trkpt><trkpt lat="44.8938483" lon="8.067935"><ele>214.0</ele><time>2026-04-19T08:46:04.093Z</time></trkpt><trkpt lat="44.89382" lon="8.0678017"><ele>213.33333333333331</ele><time>2026-04-19T08:46:05.144Z</time></trkpt><trkpt lat="44.8937917" lon="8.0676767"><ele>212.66666666666666</ele><time>2026-04-19T08:46:06.086Z</time></trkpt><trkpt lat="44.8937667" lon="8.0675617"><ele>212.0</ele><time>2026-04-19T08:46:07.093Z</time></trkpt><trkpt lat="44.8937467" lon="8.0674533"><ele>211.33333333333331</ele><time>2026-04-19T08:46:08.093Z</time></trkpt><trkpt lat="44.89373" lon="8.0673517"><ele>210.66666666666666</ele><time>2026-04-19T08:46:09.087Z</time></trkpt><trkpt lat="44.8937117" lon="8.0672567"><ele>210.0</ele><time>2026-04-19T08:46:10.093Z</time></trkpt><trkpt lat="44.89366" lon="8.06714"><ele>210.0</ele><time>2026-04-19T08:46:12.093Z</time></trkpt><trkpt lat="44.893645" lon="8.0672867"><ele>210.0</ele><time>2026-04-19T08:46:16.088Z</time></trkpt><trkpt lat="44.8936517" lon="8.0674933"><ele>210.0</ele><time>2026-04-19T08:46:18.079Z</time></trkpt><trkpt lat="44.89367" lon="8.0676483"><ele>210.0</ele><time>2026-04-19T08:46:19.092Z</time></trkpt><trkpt lat="44.8936933" lon="8.06782"><ele>210.0</ele><time>2026-04-19T08:46:20.086Z</time></trkpt><trkpt lat="44.8937283" lon="8.0680083"><ele>210.0</ele><time>2026-04-19T08:46:21.083Z</time></trkpt><trkpt lat="44.89376" lon="8.0681783"><ele>210.0</ele><time>2026-04-19T08:46:22.095Z</time></trkpt><trkpt lat="44.89379" lon="8.068325"><ele>210.0</ele><time>2026-04-19T08:46:23.137Z</time></trkpt><trkpt lat="44.8938283" lon="8.0684617"><ele>210.8</ele><time>2026-04-19T08:46:24.086Z</time></trkpt><trkpt lat="44.8938667" lon="8.0685817"><ele>211.6</ele><time>2026-04-19T08:46:25.095Z</time></trkpt><trkpt lat="44.8939233" lon="8.0686767"><ele>212.39999999999998</ele><time>2026-04-19T08:46:26.087Z</time></trkpt><trkpt lat="44.8939767" lon="8.0687617"><ele>213.2</ele><time>2026-04-19T08:46:27.091Z</time></trkpt><trkpt lat="44.8940283" lon="8.0689167"><ele>214.0</ele><time>2026-04-19T08:46:29.145Z</time></trkpt><trkpt lat="44.8939933" lon="8.0690817"><ele>214.16666666666666</ele><time>2026-04-19T08:46:31.091Z</time></trkpt><trkpt lat="44.893945" lon="8.0691683"><ele>214.33333333333331</ele><time>2026-04-19T08:46:32.088Z</time></trkpt><trkpt lat="44.8938883" lon="8.06926"><ele>214.5</ele><time>2026-04-19T08:46:33.081Z</time></trkpt><trkpt lat="44.893805" lon="8.06934"><ele>214.66666666666669</ele><time>2026-04-19T08:46:34.086Z</time></trkpt><trkpt lat="44.89373" lon="8.0694083"><ele>214.83333333333334</ele><time>2026-04-19T08:46:35.145Z</time></trkpt><trkpt lat="44.8936433" lon="8.0694633"><ele>215.0</ele><time>2026-04-19T08:46:36.088Z</time></trkpt><trkpt lat="44.89358" lon="8.0695233"><ele>215.0</ele><time>2026-04-19T08:46:37.089Z</time></trkpt><trkpt lat="44.8935233" lon="8.069605"><ele>215.0</ele><time>2026-04-19T08:46:38.09Z</time></trkpt><trkpt lat="44.8934783" lon="8.0697267"><ele>215.0</ele><time>2026-04-19T08:46:39.087Z</time></trkpt><trkpt lat="44.8934483" lon="8.0698833"><ele>215.0</ele><time>2026-04-19T08:46:40.092Z</time></trkpt><trkpt lat="44.89343" lon="8.0700267"><ele>215.0</ele><time>2026-04-19T08:46:41.142Z</time></trkpt><trkpt lat="44.8934217" lon="8.0701483"><ele>214.66666666666669</ele><time>2026-04-19T08:46:42.091Z</time></trkpt><trkpt lat="44.893425" lon="8.0702467"><ele>214.33333333333334</ele><time>2026-04-19T08:46:43.087Z</time></trkpt><trkpt lat="44.8934917" lon="8.0703367"><ele>214.0</ele><time>2026-04-19T08:46:45.087Z</time></trkpt><trkpt lat="44.8935567" lon="8.0703117"><ele>213.66666666666669</ele><time>2026-04-19T08:46:46.089Z</time></trkpt><trkpt lat="44.8936383" lon="8.0703"><ele>213.33333333333334</ele><time>2026-04-19T08:46:48.086Z</time></trkpt><trkpt lat="44.8936417" lon="8.07042"><ele>213.0</ele><time>2026-04-19T08:46:51.089Z</time></trkpt><trkpt lat="44.89359" lon="8.0705083"><ele>213.0</ele><time>2026-04-19T08:46:52.087Z</time></trkpt><trkpt lat="44.89352" lon="8.0706317"><ele>213.0</ele><time>2026-04-19T08:46:53.137Z</time></trkpt><trkpt lat="44.8934583" lon="8.070745"><ele>213.0</ele><time>2026-04-19T08:46:54.081Z</time></trkpt><trkpt lat="44.8934083" lon="8.0708483"><ele>213.0</ele><time>2026-04-19T08:46:55.087Z</time></trkpt><trkpt lat="44.8933483" lon="8.07091"><ele>213.0</ele><time>2026-04-19T08:46:57.093Z</time></trkpt><trkpt lat="44.8932683" lon="8.0708267"><ele>210.16666666666666</ele><time>2026-04-19T08:47:03.086Z</time></trkpt><trkpt lat="44.893225" lon="8.07075"><ele>207.33333333333331</ele><time>2026-04-19T08:47:04.081Z</time></trkpt><trkpt lat="44.8931883" lon="8.0706733"><ele>204.5</ele><time>2026-04-19T08:47:05.137Z</time></trkpt><trkpt lat="44.89314" lon="8.0705583"><ele>201.66666666666666</ele><time>2026-04-19T08:47:07.083Z</time></trkpt><trkpt lat="44.893075" lon="8.0704767"><ele>198.83333333333331</ele><time>2026-04-19T08:47:09.086Z</time></trkpt><trkpt lat="44.8929933" lon="8.07042"><ele>196.0</ele><time>2026-04-19T08:47:11.127Z</time></trkpt><trkpt lat="44.8929167" lon="8.070335"><ele>196.0</ele><time>2026-04-19T08:47:13.083Z</time></trkpt><trkpt lat="44.8928467" lon="8.0701983"><ele>196.0</ele><time>2026-04-19T08:47:15.089Z</time></trkpt><trkpt lat="44.8928133" lon="8.070115"><ele>196.0</ele><time>2026-04-19T08:47:16.085Z</time></trkpt><trkpt lat="44.8928267" lon="8.06992"><ele>196.0</ele><time>2026-04-19T08:47:18.088Z</time></trkpt><trkpt lat="44.8928383" lon="8.0698067"><ele>196.0</ele><time>2026-04-19T08:47:19.082Z</time></trkpt><trkpt lat="44.8928583" lon="8.0696783"><ele>195.66666666666666</ele><time>2026-04-19T08:47:20.081Z</time></trkpt><trkpt lat="44.892895" lon="8.0695217"><ele>195.33333333333331</ele><time>2026-04-19T08:47:21.088Z</time></trkpt><trkpt lat="44.8928867" lon="8.069425"><ele>195.0</ele><time>2026-04-19T08:47:22.087Z</time></trkpt><trkpt lat="44.8928867" lon="8.0693317"><ele>194.66666666666669</ele><time>2026-04-19T08:47:23.136Z</time></trkpt><trkpt lat="44.8928783" lon="8.0692433"><ele>194.33333333333334</ele><time>2026-04-19T08:47:24.087Z</time></trkpt><trkpt lat="44.89288" lon="8.0691533"><ele>194.0</ele><time>2026-04-19T08:47:25.087Z</time></trkpt><trkpt lat="44.8928767" lon="8.0690467"><ele>194.7142857142857</ele><time>2026-04-19T08:47:26.084Z</time></trkpt><trkpt lat="44.89287" lon="8.068945"><ele>195.42857142857144</ele><time>2026-04-19T08:47:27.083Z</time></trkpt><trkpt lat="44.892855" lon="8.068855"><ele>196.14285714285714</ele><time>2026-04-19T08:47:28.089Z</time></trkpt><trkpt lat="44.8928233" lon="8.0687683"><ele>196.85714285714283</ele><time>2026-04-19T08:47:29.136Z</time></trkpt><trkpt lat="44.8927733" lon="8.0686883"><ele>197.57142857142856</ele><time>2026-04-19T08:47:30.078Z</time></trkpt><trkpt lat="44.8927283" lon="8.068605"><ele>198.28571428571428</ele><time>2026-04-19T08:47:31.084Z</time></trkpt><trkpt lat="44.892665" lon="8.0685333"><ele>199.0</ele><time>2026-04-19T08:47:32.09Z</time></trkpt><trkpt lat="44.8926017" lon="8.068475"><ele>199.66666666666666</ele><time>2026-04-19T08:47:33.083Z</time></trkpt><trkpt lat="44.892545" lon="8.0684233"><ele>200.33333333333331</ele><time>2026-04-19T08:47:34.087Z</time></trkpt><trkpt lat="44.8924783" lon="8.0683317"><ele>201.0</ele><time>2026-04-19T08:47:36.078Z</time></trkpt><trkpt lat="44.8925383" lon="8.0682233"><ele>201.66666666666669</ele><time>2026-04-19T08:47:39.087Z</time></trkpt><trkpt lat="44.8925683" lon="8.0681083"><ele>202.33333333333334</ele><time>2026-04-19T08:47:41.135Z</time></trkpt><trkpt lat="44.8925683" lon="8.068015"><ele>203.0</ele><time>2026-04-19T08:47:42.081Z</time></trkpt><trkpt lat="44.8925667" lon="8.0678217"><ele>203.00000000000003</ele><time>2026-04-19T08:47:44.092Z</time></trkpt><trkpt lat="44.8925567" lon="8.0677017"><ele>203.0</ele><time>2026-04-19T08:47:45.081Z</time></trkpt><trkpt lat="44.8925433" lon="8.0675867"><ele>203.0</ele><time>2026-04-19T08:47:46.088Z</time></trkpt><trkpt lat="44.89255" lon="8.0674633"><ele>203.0</ele><time>2026-04-19T08:47:47.13Z</time></trkpt><trkpt lat="44.8925633" lon="8.0673333"><ele>203.00000000000003</ele><time>2026-04-19T08:47:48.083Z</time></trkpt><trkpt lat="44.8925367" lon="8.0672067"><ele>203.0</ele><time>2026-04-19T08:47:49.092Z</time></trkpt><trkpt lat="44.8925183" lon="8.0670967"><ele>202.83333333333334</ele><time>2026-04-19T08:47:50.091Z</time></trkpt><trkpt lat="44.8924933" lon="8.0670083"><ele>202.66666666666669</ele><time>2026-04-19T08:47:51.086Z</time></trkpt><trkpt lat="44.8924517" lon="8.06691"><ele>202.5</ele><time>2026-04-19T08:47:53.134Z</time></trkpt><trkpt lat="44.8924117" lon="8.06682"><ele>202.33333333333331</ele><time>2026-04-19T08:47:56.088Z</time></trkpt><trkpt lat="44.89241" lon="8.06673"><ele>202.16666666666666</ele><time>2026-04-19T08:47:59.141Z</time></trkpt><trkpt lat="44.8923517" lon="8.066605"><ele>202.0</ele><time>2026-04-19T08:48:01.085Z</time></trkpt><trkpt lat="44.8923267" lon="8.0665217"><ele>201.99999999999997</ele><time>2026-04-19T08:48:02.094Z</time></trkpt><trkpt lat="44.8922983" lon="8.0664283"><ele>202.0</ele><time>2026-04-19T08:48:03.093Z</time></trkpt><trkpt lat="44.8922717" lon="8.0663183"><ele>202.0</ele><time>2026-04-19T08:48:04.085Z</time></trkpt><trkpt lat="44.89224" lon="8.0661917"><ele>202.0</ele><time>2026-04-19T08:48:05.154Z</time></trkpt><trkpt lat="44.89219" lon="8.06607"><ele>201.99999999999997</ele><time>2026-04-19T08:48:06.09Z</time></trkpt><trkpt lat="44.89215" lon="8.065955"><ele>202.0</ele><time>2026-04-19T08:48:07.087Z</time></trkpt><trkpt lat="44.8921033" lon="8.0658467"><ele>203.33333333333331</ele><time>2026-04-19T08:48:08.095Z</time></trkpt><trkpt lat="44.89205" lon="8.0657633"><ele>204.66666666666666</ele><time>2026-04-19T08:48:09.09Z</time></trkpt><trkpt lat="44.8919983" lon="8.0657117"><ele>206.0</ele><time>2026-04-19T08:48:10.089Z</time></trkpt><trkpt lat="44.891925" lon="8.0656917"><ele>207.33333333333331</ele><time>2026-04-19T08:48:11.136Z</time></trkpt><trkpt lat="44.89184" lon="8.0657233"><ele>208.66666666666666</ele><time>2026-04-19T08:48:13.087Z</time></trkpt><trkpt lat="44.8917733" lon="8.0656617"><ele>210.0</ele><time>2026-04-19T08:48:16.085Z</time></trkpt><trkpt lat="44.8918317" lon="8.06552"><ele>210.0</ele><time>2026-04-19T08:48:18.081Z</time></trkpt><trkpt lat="44.8918567" lon="8.0653583"><ele>210.0</ele><time>2026-04-19T08:48:20.086Z</time></trkpt><trkpt lat="44.8918567" lon="8.0652483"><ele>210.0</ele><time>2026-04-19T08:48:21.086Z</time></trkpt><trkpt lat="44.89185" lon="8.06515"><ele>210.0</ele><time>2026-04-19T08:48:22.084Z</time></trkpt><trkpt lat="44.8918483" lon="8.0650383"><ele>210.0</ele><time>2026-04-19T08:48:23.134Z</time></trkpt><trkpt lat="44.891855" lon="8.0649117"><ele>210.0</ele><time>2026-04-19T08:48:24.076Z</time></trkpt><trkpt lat="44.8918583" lon="8.06478"><ele>210.2</ele><time>2026-04-19T08:48:25.092Z</time></trkpt><trkpt lat="44.8918533" lon="8.0646517"><ele>210.4</ele><time>2026-04-19T08:48:26.081Z</time></trkpt><trkpt lat="44.8918433" lon="8.064515"><ele>210.60000000000002</ele><time>2026-04-19T08:48:27.091Z</time></trkpt><trkpt lat="44.8918417" lon="8.0643517"><ele>210.8</ele><time>2026-04-19T08:48:28.081Z</time></trkpt><trkpt lat="44.8918417" lon="8.0642083"><ele>211.0</ele><time>2026-04-19T08:48:29.14Z</time></trkpt><trkpt lat="44.8918533" lon="8.0640733"><ele>211.0</ele><time>2026-04-19T08:48:30.087Z</time></trkpt><trkpt lat="44.891855" lon="8.0639217"><ele>211.0</ele><time>2026-04-19T08:48:31.09Z</time></trkpt><trkpt lat="44.891855" lon="8.0637783"><ele>211.0</ele><time>2026-04-19T08:48:32.084Z</time></trkpt><trkpt lat="44.8918267" lon="8.0636383"><ele>211.0</ele><time>2026-04-19T08:48:33.089Z</time></trkpt><trkpt lat="44.891795" lon="8.0635117"><ele>211.0</ele><time>2026-04-19T08:48:34.09Z</time></trkpt><trkpt lat="44.8917617" lon="8.0633983"><ele>210.49999999999997</ele><time>2026-04-19T08:48:35.141Z</time></trkpt><trkpt lat="44.8917267" lon="8.0632833"><ele>210.0</ele><time>2026-04-19T08:48:36.085Z</time></trkpt><trkpt lat="44.8916933" lon="8.06317"><ele>209.5</ele><time>2026-04-19T08:48:37.085Z</time></trkpt><trkpt lat="44.8916683" lon="8.06305"><ele>209.0</ele><time>2026-04-19T08:48:38.085Z</time></trkpt><trkpt lat="44.8916467" lon="8.06294"><ele>208.49999999999997</ele><time>2026-04-19T08:48:39.085Z</time></trkpt><trkpt lat="44.8916083" lon="8.0628417"><ele>208.0</ele><time>2026-04-19T08:48:40.089Z</time></trkpt><trkpt lat="44.8915833" lon="8.0627483"><ele>208.0</ele><time>2026-04-19T08:48:41.136Z</time></trkpt><trkpt lat="44.8915383" lon="8.062665"><ele>208.0</ele><time>2026-04-19T08:48:42.089Z</time></trkpt><trkpt lat="44.8914883" lon="8.06259"><ele>208.0</ele><time>2026-04-19T08:48:43.085Z</time></trkpt><trkpt lat="44.8914517" lon="8.0625033"><ele>208.0</ele><time>2026-04-19T08:48:44.087Z</time></trkpt><trkpt lat="44.8913983" lon="8.062315"><ele>208.0</ele><time>2026-04-19T08:48:46.088Z</time></trkpt><trkpt lat="44.891365" lon="8.0621933"><ele>209.0</ele><time>2026-04-19T08:48:47.131Z</time></trkpt><trkpt lat="44.89133" lon="8.06207"><ele>210.0</ele><time>2026-04-19T08:48:48.082Z</time></trkpt><trkpt lat="44.8913" lon="8.0619367"><ele>211.0</ele><time>2026-04-19T08:48:49.089Z</time></trkpt><trkpt lat="44.8912683" lon="8.061805"><ele>212.0</ele><time>2026-04-19T08:48:50.087Z</time></trkpt><trkpt lat="44.89124" lon="8.06169"><ele>213.0</ele><time>2026-04-19T08:48:51.089Z</time></trkpt><trkpt lat="44.891215" lon="8.0615733"><ele>214.83333333333334</ele><time>2026-04-19T08:48:52.09Z</time></trkpt><trkpt lat="44.891185" lon="8.061465"><ele>216.66666666666669</ele><time>2026-04-19T08:48:53.129Z</time></trkpt><trkpt lat="44.8911567" lon="8.0613517"><ele>218.5</ele><time>2026-04-19T08:48:54.085Z</time></trkpt><trkpt lat="44.89112" lon="8.0612533"><ele>220.33333333333334</ele><time>2026-04-19T08:48:55.085Z</time></trkpt><trkpt lat="44.8910533" lon="8.0611733"><ele>222.16666666666669</ele><time>2026-04-19T08:48:56.08Z</time></trkpt><trkpt lat="44.8910117" lon="8.0610767"><ele>224.0</ele><time>2026-04-19T08:48:57.088Z</time></trkpt><trkpt lat="44.8909767" lon="8.0609667"><ele>224.0</ele><time>2026-04-19T08:48:58.088Z</time></trkpt><trkpt lat="44.89095" lon="8.060835"><ele>223.99999999999997</ele><time>2026-04-19T08:48:59.138Z</time></trkpt><trkpt lat="44.8909233" lon="8.0607183"><ele>223.99999999999997</ele><time>2026-04-19T08:49:00.078Z</time></trkpt><trkpt lat="44.8908867" lon="8.0606017"><ele>224.0</ele><time>2026-04-19T08:49:01.086Z</time></trkpt><trkpt lat="44.890835" lon="8.0604983"><ele>224.0</ele><time>2026-04-19T08:49:02.091Z</time></trkpt><trkpt lat="44.89077" lon="8.0603983"><ele>223.66666666666669</ele><time>2026-04-19T08:49:03.089Z</time></trkpt><trkpt lat="44.8907067" lon="8.0603067"><ele>223.33333333333334</ele><time>2026-04-19T08:49:04.09Z</time></trkpt><trkpt lat="44.8906483" lon="8.0602167"><ele>223.0</ele><time>2026-04-19T08:49:05.137Z</time></trkpt><trkpt lat="44.8905967" lon="8.06014"><ele>222.66666666666669</ele><time>2026-04-19T08:49:06.079Z</time></trkpt><trkpt lat="44.8905617" lon="8.0600533"><ele>222.33333333333334</ele><time>2026-04-19T08:49:07.085Z</time></trkpt><trkpt lat="44.89053" lon="8.0599633"><ele>222.0</ele><time>2026-04-19T08:49:08.085Z</time></trkpt><trkpt lat="44.89051" lon="8.0598667"><ele>222.0</ele><time>2026-04-19T08:49:09.089Z</time></trkpt><trkpt lat="44.890495" lon="8.05976"><ele>222.0</ele><time>2026-04-19T08:49:10.09Z</time></trkpt><trkpt lat="44.89047" lon="8.0596567"><ele>222.0</ele><time>2026-04-19T08:49:11.134Z</time></trkpt><trkpt lat="44.8904383" lon="8.0595383"><ele>222.0</ele><time>2026-04-19T08:49:12.087Z</time></trkpt><trkpt lat="44.8903967" lon="8.0594217"><ele>222.0</ele><time>2026-04-19T08:49:13.087Z</time></trkpt><trkpt lat="44.89034" lon="8.0593017"><ele>222.0</ele><time>2026-04-19T08:49:14.087Z</time></trkpt><trkpt lat="44.8902817" lon="8.0591683"><ele>220.6</ele><time>2026-04-19T08:49:15.085Z</time></trkpt><trkpt lat="44.8902217" lon="8.059035"><ele>219.2</ele><time>2026-04-19T08:49:16.091Z</time></trkpt><trkpt lat="44.8901667" lon="8.0589033"><ele>217.8</ele><time>2026-04-19T08:49:17.128Z</time></trkpt><trkpt lat="44.8900983" lon="8.0587833"><ele>216.4</ele><time>2026-04-19T08:49:18.081Z</time></trkpt><trkpt lat="44.8900317" lon="8.0586717"><ele>215.0</ele><time>2026-04-19T08:49:19.087Z</time></trkpt><trkpt lat="44.8899617" lon="8.058555"><ele>215.0</ele><time>2026-04-19T08:49:20.091Z</time></trkpt><trkpt lat="44.889875" lon="8.0584567"><ele>215.0</ele><time>2026-04-19T08:49:21.085Z</time></trkpt><trkpt lat="44.8898" lon="8.05835"><ele>215.0</ele><time>2026-04-19T08:49:22.089Z</time></trkpt><trkpt lat="44.8897283" lon="8.0582533"><ele>215.0</ele><time>2026-04-19T08:49:23.13Z</time></trkpt><trkpt lat="44.889625" lon="8.0581633"><ele>215.0</ele><time>2026-04-19T08:49:25.086Z</time></trkpt><trkpt lat="44.889575" lon="8.0580617"><ele>216.8</ele><time>2026-04-19T08:49:45.083Z</time></trkpt><trkpt lat="44.8895517" lon="8.0578967"><ele>218.6</ele><time>2026-04-19T08:49:47.136Z</time></trkpt><trkpt lat="44.8895133" lon="8.0578017"><ele>220.39999999999998</ele><time>2026-04-19T08:49:48.08Z</time></trkpt><trkpt lat="44.88944" lon="8.057695"><ele>222.2</ele><time>2026-04-19T08:49:49.09Z</time></trkpt><trkpt lat="44.8893667" lon="8.0575833"><ele>224.0</ele><time>2026-04-19T08:49:50.09Z</time></trkpt><trkpt lat="44.8893067" lon="8.05749"><ele>224.2</ele><time>2026-04-19T08:49:51.097Z</time></trkpt><trkpt lat="44.8892467" lon="8.0574067"><ele>224.39999999999998</ele><time>2026-04-19T08:49:52.088Z</time></trkpt><trkpt lat="44.8891717" lon="8.0573333"><ele>224.6</ele><time>2026-04-19T08:49:53.138Z</time></trkpt><trkpt lat="44.8890817" lon="8.0572517"><ele>224.8</ele><time>2026-04-19T08:49:54.085Z</time></trkpt><trkpt lat="44.888985" lon="8.05717"><ele>225.0</ele><time>2026-04-19T08:49:55.094Z</time></trkpt><trkpt lat="44.888885" lon="8.0570833"><ele>225.0</ele><time>2026-04-19T08:49:56.092Z</time></trkpt><trkpt lat="44.8887933" lon="8.0569967"><ele>225.0</ele><time>2026-04-19T08:49:57.098Z</time></trkpt><trkpt lat="44.888685" lon="8.0569367"><ele>225.0</ele><time>2026-04-19T08:49:58.082Z</time></trkpt><trkpt lat="44.8885883" lon="8.0568767"><ele>225.0</ele><time>2026-04-19T08:49:59.155Z</time></trkpt><trkpt lat="44.8885183" lon="8.05679"><ele>225.0</ele><time>2026-04-19T08:50:00.085Z</time></trkpt><trkpt lat="44.8884383" lon="8.056695"><ele>224.83333333333334</ele><time>2026-04-19T08:50:01.088Z</time></trkpt><trkpt lat="44.8883667" lon="8.0566117"><ele>224.66666666666669</ele><time>2026-04-19T08:50:02.089Z</time></trkpt><trkpt lat="44.8883067" lon="8.05653"><ele>224.5</ele><time>2026-04-19T08:50:03.092Z</time></trkpt><trkpt lat="44.8882583" lon="8.0564583"><ele>224.33333333333334</ele><time>2026-04-19T08:50:04.089Z</time></trkpt><trkpt lat="44.888205" lon="8.0564017"><ele>224.16666666666669</ele><time>2026-04-19T08:50:05.142Z</time></trkpt><trkpt lat="44.8881067" lon="8.0563633"><ele>224.0</ele><time>2026-04-19T08:50:07.086Z</time></trkpt><trkpt lat="44.8880183" lon="8.0563267"><ele>224.0</ele><time>2026-04-19T08:50:09.088Z</time></trkpt><trkpt lat="44.88795" lon="8.0562033"><ele>223.99999999999997</ele><time>2026-04-19T08:50:11.13Z</time></trkpt><trkpt lat="44.8879117" lon="8.0561033"><ele>223.99999999999997</ele><time>2026-04-19T08:50:12.086Z</time></trkpt><trkpt lat="44.8878817" lon="8.0559783"><ele>224.0</ele><time>2026-04-19T08:50:13.089Z</time></trkpt><trkpt lat="44.8878583" lon="8.055845"><ele>224.0</ele><time>2026-04-19T08:50:14.09Z</time></trkpt><trkpt lat="44.88782" lon="8.0557267"><ele>224.0</ele><time>2026-04-19T08:50:15.082Z</time></trkpt><trkpt lat="44.8877767" lon="8.0556083"><ele>223.99999999999997</ele><time>2026-04-19T08:50:16.089Z</time></trkpt><trkpt lat="44.8877267" lon="8.0554883"><ele>223.99999999999997</ele><time>2026-04-19T08:50:17.135Z</time></trkpt><trkpt lat="44.8876733" lon="8.055375"><ele>224.0</ele><time>2026-04-19T08:50:18.085Z</time></trkpt><trkpt lat="44.8876083" lon="8.05528"><ele>224.0</ele><time>2026-04-19T08:50:19.089Z</time></trkpt><trkpt lat="44.8875383" lon="8.0551867"><ele>224.0</ele><time>2026-04-19T08:50:20.087Z</time></trkpt><trkpt lat="44.8874633" lon="8.0551033"><ele>223.99999999999997</ele><time>2026-04-19T08:50:21.089Z</time></trkpt><trkpt lat="44.88738" lon="8.0550333"><ele>223.99999999999997</ele><time>2026-04-19T08:50:22.09Z</time></trkpt><trkpt lat="44.8873017" lon="8.0549583"><ele>224.0</ele><time>2026-04-19T08:50:23.135Z</time></trkpt><trkpt lat="44.8872283" lon="8.0548883"><ele>224.0</ele><time>2026-04-19T08:50:24.086Z</time></trkpt><trkpt lat="44.887155" lon="8.0548167"><ele>227.2</ele><time>2026-04-19T08:50:25.087Z</time></trkpt><trkpt lat="44.887075" lon="8.0547333"><ele>230.39999999999998</ele><time>2026-04-19T08:50:26.089Z</time></trkpt><trkpt lat="44.886995" lon="8.0546567"><ele>233.6</ele><time>2026-04-19T08:50:27.09Z</time></trkpt><trkpt lat="44.8869217" lon="8.0545917"><ele>236.8</ele><time>2026-04-19T08:50:28.089Z</time></trkpt><trkpt lat="44.8868333" lon="8.054525"><ele>240.0</ele><time>2026-04-19T08:50:29.125Z</time></trkpt><trkpt lat="44.886775" lon="8.0544733"><ele>240.0</ele><time>2026-04-19T08:50:30.08Z</time></trkpt><trkpt lat="44.8867217" lon="8.0544033"><ele>240.0</ele><time>2026-04-19T08:50:31.083Z</time></trkpt><trkpt lat="44.8867033" lon="8.0543117"><ele>240.0</ele><time>2026-04-19T08:50:32.091Z</time></trkpt><trkpt lat="44.886695" lon="8.0542133"><ele>240.0</ele><time>2026-04-19T08:50:33.084Z</time></trkpt><trkpt lat="44.88668" lon="8.0541033"><ele>240.0</ele><time>2026-04-19T08:50:34.083Z</time></trkpt><trkpt lat="44.8866583" lon="8.053965"><ele>240.0</ele><time>2026-04-19T08:50:35.142Z</time></trkpt><trkpt lat="44.8866367" lon="8.0538333"><ele>240.0</ele><time>2026-04-19T08:50:36.095Z</time></trkpt><trkpt lat="44.8866067" lon="8.0537367"><ele>240.0</ele><time>2026-04-19T08:50:37.089Z</time></trkpt><trkpt lat="44.8865333" lon="8.0536933"><ele>240.0</ele><time>2026-04-19T08:50:38.089Z</time></trkpt><trkpt lat="44.8864833" lon="8.0536067"><ele>240.0</ele><time>2026-04-19T08:50:39.082Z</time></trkpt><trkpt lat="44.8864083" lon="8.0535483"><ele>240.0</ele><time>2026-04-19T08:50:40.089Z</time></trkpt><trkpt lat="44.88637" lon="8.0534683"><ele>240.0</ele><time>2026-04-19T08:50:41.137Z</time></trkpt><trkpt lat="44.8863033" lon="8.0533583"><ele>240.0</ele><time>2026-04-19T08:50:43.085Z</time></trkpt><trkpt lat="44.8862517" lon="8.0532933"><ele>240.0</ele><time>2026-04-19T08:50:45.087Z</time></trkpt><trkpt lat="44.8863117" lon="8.0532317"><ele>240.0</ele><time>2026-04-19T08:50:55.083Z</time></trkpt><trkpt lat="44.8864" lon="8.0532583"><ele>240.0</ele><time>2026-04-19T08:50:57.082Z</time></trkpt><trkpt lat="44.8865133" lon="8.053225"><ele>240.0</ele><time>2026-04-19T08:50:59.154Z</time></trkpt><trkpt lat="44.8866267" lon="8.0531517"><ele>240.2</ele><time>2026-04-19T08:51:01.092Z</time></trkpt><trkpt lat="44.8866883" lon="8.0530983"><ele>240.4</ele><time>2026-04-19T08:51:02.089Z</time></trkpt><trkpt lat="44.88678" lon="8.0529833"><ele>240.60000000000002</ele><time>2026-04-19T08:51:04.092Z</time></trkpt><trkpt lat="44.8868783" lon="8.0528633"><ele>240.8</ele><time>2026-04-19T08:51:06.09Z</time></trkpt><trkpt lat="44.8869333" lon="8.0527983"><ele>241.0</ele><time>2026-04-19T08:51:07.084Z</time></trkpt><trkpt lat="44.8869867" lon="8.0527233"><ele>240.99999999999997</ele><time>2026-04-19T08:51:08.088Z</time></trkpt><trkpt lat="44.88704" lon="8.0526433"><ele>241.0</ele><time>2026-04-19T08:51:09.087Z</time></trkpt><trkpt lat="44.887095" lon="8.05255"><ele>241.0</ele><time>2026-04-19T08:51:10.093Z</time></trkpt><trkpt lat="44.8871367" lon="8.052415"><ele>241.0</ele><time>2026-04-19T08:51:11.132Z</time></trkpt><trkpt lat="44.8871733" lon="8.052295"><ele>240.99999999999997</ele><time>2026-04-19T08:51:12.091Z</time></trkpt><trkpt lat="44.8872133" lon="8.05219"><ele>241.0</ele><time>2026-04-19T08:51:13.095Z</time></trkpt><trkpt lat="44.8872517" lon="8.0520633"><ele>239.0</ele><time>2026-04-19T08:51:14.091Z</time></trkpt><trkpt lat="44.8872717" lon="8.0519333"><ele>237.00000000000003</ele><time>2026-04-19T08:51:15.087Z</time></trkpt><trkpt lat="44.8872867" lon="8.0517917"><ele>235.00000000000003</ele><time>2026-04-19T08:51:16.088Z</time></trkpt><trkpt lat="44.887295" lon="8.0516433"><ele>233.0</ele><time>2026-04-19T08:51:17.133Z</time></trkpt><trkpt lat="44.887305" lon="8.0515067"><ele>231.0</ele><time>2026-04-19T08:51:18.081Z</time></trkpt><trkpt lat="44.8873017" lon="8.051395"><ele>229.0</ele><time>2026-04-19T08:51:19.083Z</time></trkpt><trkpt lat="44.8873133" lon="8.0512933"><ele>227.0</ele><time>2026-04-19T08:51:20.078Z</time></trkpt><trkpt lat="44.88734" lon="8.0511983"><ele>225.0</ele><time>2026-04-19T08:51:21.086Z</time></trkpt><trkpt lat="44.8873833" lon="8.05109"><ele>223.0</ele><time>2026-04-19T08:51:22.086Z</time></trkpt><trkpt lat="44.8874233" lon="8.0509767"><ele>221.0</ele><time>2026-04-19T08:51:23.133Z</time></trkpt><trkpt lat="44.8874617" lon="8.05084"><ele>219.0</ele><time>2026-04-19T08:51:24.081Z</time></trkpt><trkpt lat="44.8875083" lon="8.050705"><ele>218.2</ele><time>2026-04-19T08:51:25.089Z</time></trkpt><trkpt lat="44.8875533" lon="8.05058"><ele>217.39999999999998</ele><time>2026-04-19T08:51:26.085Z</time></trkpt><trkpt lat="44.8875983" lon="8.0504683"><ele>216.6</ele><time>2026-04-19T08:51:27.089Z</time></trkpt><trkpt lat="44.8876583" lon="8.0503483"><ele>215.8</ele><time>2026-04-19T08:51:28.083Z</time></trkpt><trkpt lat="44.88773" lon="8.05021"><ele>215.0</ele><time>2026-04-19T08:51:29.156Z</time></trkpt><trkpt lat="44.8877883" lon="8.0500767"><ele>214.4</ele><time>2026-04-19T08:51:30.083Z</time></trkpt><trkpt lat="44.8878483" lon="8.0499517"><ele>213.8</ele><time>2026-04-19T08:51:31.09Z</time></trkpt><trkpt lat="44.8879017" lon="8.0498317"><ele>213.2</ele><time>2026-04-19T08:51:32.084Z</time></trkpt><trkpt lat="44.8879533" lon="8.04972"><ele>212.6</ele><time>2026-04-19T08:51:33.09Z</time></trkpt><trkpt lat="44.8879933" lon="8.049615"><ele>212.0</ele><time>2026-04-19T08:51:34.09Z</time></trkpt><trkpt lat="44.8880267" lon="8.0494983"><ele>212.0</ele><time>2026-04-19T08:51:35.136Z</time></trkpt><trkpt lat="44.888055" lon="8.0493667"><ele>212.0</ele><time>2026-04-19T08:51:36.082Z</time></trkpt><trkpt lat="44.8880833" lon="8.04924"><ele>212.0</ele><time>2026-04-19T08:51:37.084Z</time></trkpt><trkpt lat="44.888115" lon="8.04911"><ele>212.0</ele><time>2026-04-19T08:51:38.087Z</time></trkpt><trkpt lat="44.8881533" lon="8.04896"><ele>212.0</ele><time>2026-04-19T08:51:39.087Z</time></trkpt><trkpt lat="44.8881833" lon="8.0488117"><ele>210.2</ele><time>2026-04-19T08:51:40.09Z</time></trkpt><trkpt lat="44.8882167" lon="8.0486683"><ele>208.39999999999998</ele><time>2026-04-19T08:51:41.13Z</time></trkpt><trkpt lat="44.8882517" lon="8.0485283"><ele>206.60000000000002</ele><time>2026-04-19T08:51:42.084Z</time></trkpt><trkpt lat="44.888285" lon="8.0484017"><ele>204.8</ele><time>2026-04-19T08:51:43.087Z</time></trkpt><trkpt lat="44.888345" lon="8.0482967"><ele>203.0</ele><time>2026-04-19T08:51:44.088Z</time></trkpt><trkpt lat="44.88841" lon="8.0482"><ele>201.00000000000003</ele><time>2026-04-19T08:51:45.09Z</time></trkpt><trkpt lat="44.8884767" lon="8.0481167"><ele>199.0</ele><time>2026-04-19T08:51:46.094Z</time></trkpt><trkpt lat="44.888545" lon="8.0480367"><ele>197.0</ele><time>2026-04-19T08:51:47.135Z</time></trkpt><trkpt lat="44.8886033" lon="8.04793"><ele>195.0</ele><time>2026-04-19T08:51:48.084Z</time></trkpt><trkpt lat="44.8886617" lon="8.0478217"><ele>193.0</ele><time>2026-04-19T08:51:49.088Z</time></trkpt><trkpt lat="44.888705" lon="8.0477333"><ele>191.0</ele><time>2026-04-19T08:51:50.088Z</time></trkpt><trkpt lat="44.8887517" lon="8.047615"><ele>191.0</ele><time>2026-04-19T08:51:52.089Z</time></trkpt><trkpt lat="44.8887667" lon="8.0475133"><ele>191.0</ele><time>2026-04-19T08:52:15.087Z</time></trkpt><trkpt lat="44.888725" lon="8.0474317"><ele>191.0</ele><time>2026-04-19T08:52:18.081Z</time></trkpt><trkpt lat="44.8886367" lon="8.0473483"><ele>191.0</ele><time>2026-04-19T08:52:20.083Z</time></trkpt><trkpt lat="44.8885583" lon="8.0472317"><ele>191.0</ele><time>2026-04-19T08:52:22.086Z</time></trkpt><trkpt lat="44.8885167" lon="8.04713"><ele>191.0</ele><time>2026-04-19T08:52:24.088Z</time></trkpt><trkpt lat="44.8884883" lon="8.04704"><ele>192.20000000000002</ele><time>2026-04-19T08:52:26.08Z</time></trkpt><trkpt lat="44.8884517" lon="8.0469217"><ele>193.4</ele><time>2026-04-19T08:52:28.091Z</time></trkpt><trkpt lat="44.888405" lon="8.0467783"><ele>194.6</ele><time>2026-04-19T08:52:30.079Z</time></trkpt><trkpt lat="44.8883667" lon="8.0466333"><ele>195.8</ele><time>2026-04-19T08:52:32.086Z</time></trkpt><trkpt lat="44.888315" lon="8.0465217"><ele>197.0</ele><time>2026-04-19T08:52:34.081Z</time></trkpt><trkpt lat="44.8882383" lon="8.0464633"><ele>200.39999999999998</ele><time>2026-04-19T08:52:36.082Z</time></trkpt><trkpt lat="44.8881567" lon="8.0464017"><ele>203.79999999999998</ele><time>2026-04-19T08:52:38.086Z</time></trkpt><trkpt lat="44.8880417" lon="8.0463117"><ele>207.2</ele><time>2026-04-19T08:52:40.086Z</time></trkpt><trkpt lat="44.887965" lon="8.0462567"><ele>210.6</ele><time>2026-04-19T08:52:41.127Z</time></trkpt><trkpt lat="44.8878867" lon="8.04621"><ele>214.0</ele><time>2026-04-19T08:52:42.084Z</time></trkpt><trkpt lat="44.8878117" lon="8.04617"><ele>214.00000000000003</ele><time>2026-04-19T08:52:43.094Z</time></trkpt><trkpt lat="44.88773" lon="8.0461483"><ele>214.0</ele><time>2026-04-19T08:52:44.091Z</time></trkpt><trkpt lat="44.8876583" lon="8.0461233"><ele>214.0</ele><time>2026-04-19T08:52:45.084Z</time></trkpt><trkpt lat="44.8875933" lon="8.0460967"><ele>214.0</ele><time>2026-04-19T08:52:46.081Z</time></trkpt><trkpt lat="44.887525" lon="8.0460617"><ele>214.0</ele><time>2026-04-19T08:52:47.125Z</time></trkpt><trkpt lat="44.887465" lon="8.0460217"><ele>214.00000000000003</ele><time>2026-04-19T08:52:48.082Z</time></trkpt><trkpt lat="44.8874017" lon="8.0459717"><ele>214.0</ele><time>2026-04-19T08:52:49.081Z</time></trkpt><trkpt lat="44.8873417" lon="8.045915"><ele>215.33333333333331</ele><time>2026-04-19T08:52:50.082Z</time></trkpt><trkpt lat="44.88729" lon="8.0458533"><ele>216.66666666666666</ele><time>2026-04-19T08:52:51.086Z</time></trkpt><trkpt lat="44.8872067" lon="8.0457333"><ele>218.0</ele><time>2026-04-19T08:52:53.129Z</time></trkpt><trkpt lat="44.887145" lon="8.04567"><ele>219.33333333333331</ele><time>2026-04-19T08:52:54.089Z</time></trkpt><trkpt lat="44.8870867" lon="8.0455933"><ele>220.66666666666666</ele><time>2026-04-19T08:52:55.085Z</time></trkpt><trkpt lat="44.887035" lon="8.0455217"><ele>222.0</ele><time>2026-04-19T08:52:56.087Z</time></trkpt><trkpt lat="44.886975" lon="8.0454467"><ele>222.0</ele><time>2026-04-19T08:52:57.087Z</time></trkpt><trkpt lat="44.8869267" lon="8.0453683"><ele>222.0</ele><time>2026-04-19T08:52:58.087Z</time></trkpt><trkpt lat="44.8868833" lon="8.0452883"><ele>222.0</ele><time>2026-04-19T08:52:59.12Z</time></trkpt><trkpt lat="44.88683" lon="8.045215"><ele>222.0</ele><time>2026-04-19T08:53:00.08Z</time></trkpt><trkpt lat="44.886775" lon="8.0451617"><ele>222.0</ele><time>2026-04-19T08:53:01.084Z</time></trkpt><trkpt lat="44.8866817" lon="8.0450733"><ele>222.0</ele><time>2026-04-19T08:53:03.079Z</time></trkpt><trkpt lat="44.8866217" lon="8.044985"><ele>220.66666666666666</ele><time>2026-04-19T08:53:05.139Z</time></trkpt><trkpt lat="44.88658" lon="8.0448517"><ele>219.33333333333331</ele><time>2026-04-19T08:53:07.084Z</time></trkpt><trkpt lat="44.88655" lon="8.0447717"><ele>218.0</ele><time>2026-04-19T08:53:08.082Z</time></trkpt><trkpt lat="44.8864767" lon="8.0446383"><ele>216.66666666666666</ele><time>2026-04-19T08:53:10.084Z</time></trkpt><trkpt lat="44.8864233" lon="8.0445783"><ele>215.33333333333331</ele><time>2026-04-19T08:53:11.127Z</time></trkpt><trkpt lat="44.8863583" lon="8.0445167"><ele>214.0</ele><time>2026-04-19T08:53:12.083Z</time></trkpt><trkpt lat="44.8862833" lon="8.0444517"><ele>214.0</ele><time>2026-04-19T08:53:13.083Z</time></trkpt><trkpt lat="44.8861983" lon="8.0443967"><ele>213.99999999999997</ele><time>2026-04-19T08:53:14.084Z</time></trkpt><trkpt lat="44.8861067" lon="8.0443583"><ele>213.99999999999997</ele><time>2026-04-19T08:53:15.087Z</time></trkpt><trkpt lat="44.88602" lon="8.04433"><ele>214.0</ele><time>2026-04-19T08:53:16.094Z</time></trkpt><trkpt lat="44.8859383" lon="8.044285"><ele>214.0</ele><time>2026-04-19T08:53:17.125Z</time></trkpt><trkpt lat="44.88585" lon="8.0442317"><ele>213.99999999999997</ele><time>2026-04-19T08:53:18.08Z</time></trkpt><trkpt lat="44.8857767" lon="8.04417"><ele>214.0</ele><time>2026-04-19T08:53:19.089Z</time></trkpt><trkpt lat="44.8857183" lon="8.0441067"><ele>214.0</ele><time>2026-04-19T08:53:20.086Z</time></trkpt><trkpt lat="44.885655" lon="8.0440033"><ele>214.0</ele><time>2026-04-19T08:53:22.089Z</time></trkpt><trkpt lat="44.8855933" lon="8.04408"><ele>213.99999999999997</ele><time>2026-04-19T09:03:16.082Z</time></trkpt><trkpt lat="44.8855583" lon="8.0441867"><ele>214.0</ele><time>2026-04-19T09:03:59.147Z</time></trkpt><trkpt lat="44.88561" lon="8.0442733"><ele>212.33333333333331</ele><time>2026-04-19T09:04:04.089Z</time></trkpt><trkpt lat="44.8856717" lon="8.0443567"><ele>210.66666666666666</ele><time>2026-04-19T09:04:07.087Z</time></trkpt><trkpt lat="44.8857233" lon="8.0444217"><ele>209.0</ele><time>2026-04-19T09:04:09.082Z</time></trkpt><trkpt lat="44.88578" lon="8.0444883"><ele>207.33333333333331</ele><time>2026-04-19T09:04:11.13Z</time></trkpt><trkpt lat="44.8858467" lon="8.044585"><ele>205.66666666666666</ele><time>2026-04-19T09:04:14.084Z</time></trkpt><trkpt lat="44.8858733" lon="8.0446667"><ele>204.0</ele><time>2026-04-19T09:04:16.084Z</time></trkpt><trkpt lat="44.8858867" lon="8.0447833"><ele>204.0</ele><time>2026-04-19T09:04:19.084Z</time></trkpt><trkpt lat="44.8859083" lon="8.0449083"><ele>204.0</ele><time>2026-04-19T09:04:22.08Z</time></trkpt><trkpt lat="44.8859133" lon="8.0450167"><ele>204.0</ele><time>2026-04-19T09:04:24.084Z</time></trkpt><trkpt lat="44.8858933" lon="8.045145"><ele>204.0</ele><time>2026-04-19T09:04:26.083Z</time></trkpt><trkpt lat="44.8858467" lon="8.04531"><ele>204.0</ele><time>2026-04-19T09:04:28.09Z</time></trkpt><trkpt lat="44.8858183" lon="8.0454"><ele>205.66666666666666</ele><time>2026-04-19T09:04:29.15Z</time></trkpt><trkpt lat="44.8857733" lon="8.045495"><ele>207.33333333333331</ele><time>2026-04-19T09:04:30.08Z</time></trkpt><trkpt lat="44.8857267" lon="8.04559"><ele>209.0</ele><time>2026-04-19T09:04:31.089Z</time></trkpt><trkpt lat="44.885675" lon="8.0456617"><ele>210.66666666666666</ele><time>2026-04-19T09:04:32.085Z</time></trkpt><trkpt lat="44.885625" lon="8.04574"><ele>212.33333333333331</ele><time>2026-04-19T09:04:33.085Z</time></trkpt><trkpt lat="44.88556" lon="8.045885"><ele>214.0</ele><time>2026-04-19T09:04:35.132Z</time></trkpt><trkpt lat="44.8855233" lon="8.045965"><ele>213.99999999999997</ele><time>2026-04-19T09:04:36.075Z</time></trkpt><trkpt lat="44.8854783" lon="8.0460283"><ele>214.0</ele><time>2026-04-19T09:04:37.085Z</time></trkpt><trkpt lat="44.8853867" lon="8.046085"><ele>214.0</ele><time>2026-04-19T09:04:39.082Z</time></trkpt><trkpt lat="44.88531" lon="8.046105"><ele>214.0</ele><time>2026-04-19T09:04:41.124Z</time></trkpt><trkpt lat="44.8852283" lon="8.0461533"><ele>213.99999999999997</ele><time>2026-04-19T09:04:43.087Z</time></trkpt><trkpt lat="44.8851667" lon="8.0462367"><ele>214.0</ele><time>2026-04-19T09:04:45.083Z</time></trkpt><trkpt lat="44.8850933" lon="8.0463333"><ele>217.33333333333331</ele><time>2026-04-19T09:04:47.127Z</time></trkpt><trkpt lat="44.8850283" lon="8.0463283"><ele>220.66666666666666</ele><time>2026-04-19T09:04:51.079Z</time></trkpt><trkpt lat="44.8850483" lon="8.0462383"><ele>224.0</ele><time>2026-04-19T09:04:54.074Z</time></trkpt><trkpt lat="44.88506" lon="8.0461217"><ele>227.33333333333331</ele><time>2026-04-19T09:04:56.085Z</time></trkpt><trkpt lat="44.88509" lon="8.0460283"><ele>230.66666666666666</ele><time>2026-04-19T09:04:58.083Z</time></trkpt><trkpt lat="44.8850883" lon="8.0459317"><ele>234.0</ele><time>2026-04-19T09:05:01.089Z</time></trkpt><trkpt lat="44.8849967" lon="8.0459033"><ele>234.0</ele><time>2026-04-19T09:05:05.134Z</time></trkpt><trkpt lat="44.8848983" lon="8.0459067"><ele>234.0</ele><time>2026-04-19T09:05:07.085Z</time></trkpt><trkpt lat="44.8848317" lon="8.0459233"><ele>234.0</ele><time>2026-04-19T09:05:09.076Z</time></trkpt><trkpt lat="44.88479" lon="8.0460517"><ele>234.0</ele><time>2026-04-19T09:05:38.084Z</time></trkpt><trkpt lat="44.8847267" lon="8.0460867"><ele>234.0</ele><time>2026-04-19T09:05:42.083Z</time></trkpt><trkpt lat="44.8846733" lon="8.0461517"><ele>234.0</ele><time>2026-04-19T09:05:46.082Z</time></trkpt><trkpt lat="44.8846333" lon="8.0462417"><ele>234.0</ele><time>2026-04-19T09:05:49.088Z</time></trkpt><trkpt lat="44.8845717" lon="8.0463"><ele>234.0</ele><time>2026-04-19T09:05:52.087Z</time></trkpt><trkpt lat="44.8844967" lon="8.046335"><ele>234.0</ele><time>2026-04-19T09:05:54.082Z</time></trkpt><trkpt lat="44.8844083" lon="8.046385"><ele>234.0</ele><time>2026-04-19T09:05:56.079Z</time></trkpt><trkpt lat="44.8843217" lon="8.0464367"><ele>234.0</ele><time>2026-04-19T09:05:58.086Z</time></trkpt><trkpt lat="44.884245" lon="8.046475"><ele>234.0</ele><time>2026-04-19T09:06:00.074Z</time></trkpt><trkpt lat="44.8841617" lon="8.0465517"><ele>238.16666666666666</ele><time>2026-04-19T09:06:49.076Z</time></trkpt><trkpt lat="44.884115" lon="8.04663"><ele>242.33333333333331</ele><time>2026-04-19T09:06:51.083Z</time></trkpt><trkpt lat="44.8840433" lon="8.0467517"><ele>246.5</ele><time>2026-04-19T09:06:53.133Z</time></trkpt><trkpt lat="44.8839967" lon="8.0468183"><ele>250.66666666666666</ele><time>2026-04-19T09:06:54.077Z</time></trkpt><trkpt lat="44.883945" lon="8.0468733"><ele>254.83333333333331</ele><time>2026-04-19T09:06:55.087Z</time></trkpt><trkpt lat="44.8838683" lon="8.04691"><ele>259.0</ele><time>2026-04-19T09:06:56.083Z</time></trkpt><trkpt lat="44.8837733" lon="8.0469967"><ele>259.0</ele><time>2026-04-19T09:06:58.086Z</time></trkpt><trkpt lat="44.8837133" lon="8.04708"><ele>259.0</ele><time>2026-04-19T09:07:00.075Z</time></trkpt><trkpt lat="44.88367" lon="8.0471733"><ele>259.0</ele><time>2026-04-19T09:07:03.084Z</time></trkpt><trkpt lat="44.8836517" lon="8.0472733"><ele>259.0</ele><time>2026-04-19T09:07:05.14Z</time></trkpt><trkpt lat="44.8836183" lon="8.047445"><ele>259.0</ele><time>2026-04-19T09:07:07.081Z</time></trkpt><trkpt lat="44.8836083" lon="8.04758"><ele>259.2</ele><time>2026-04-19T09:07:09.093Z</time></trkpt><trkpt lat="44.8835733" lon="8.0477"><ele>259.4</ele><time>2026-04-19T09:07:11.138Z</time></trkpt><trkpt lat="44.88351" lon="8.0478267"><ele>259.6</ele><time>2026-04-19T09:07:13.085Z</time></trkpt><trkpt lat="44.8834567" lon="8.047935"><ele>259.8</ele><time>2026-04-19T09:07:15.079Z</time></trkpt><trkpt lat="44.8833933" lon="8.048055"><ele>260.0</ele><time>2026-04-19T09:07:17.139Z</time></trkpt><trkpt lat="44.8833383" lon="8.04812"><ele>262.4</ele><time>2026-04-19T09:07:18.08Z</time></trkpt><trkpt lat="44.8832867" lon="8.04818"><ele>264.8</ele><time>2026-04-19T09:07:19.081Z</time></trkpt><trkpt lat="44.883195" lon="8.048295"><ele>267.2</ele><time>2026-04-19T09:07:21.08Z</time></trkpt><trkpt lat="44.88312" lon="8.04839"><ele>269.6</ele><time>2026-04-19T09:07:23.136Z</time></trkpt><trkpt lat="44.883055" lon="8.0484167"><ele>272.0</ele><time>2026-04-19T09:07:25.09Z</time></trkpt><trkpt lat="44.882935" lon="8.04844"><ele>272.0</ele><time>2026-04-19T09:07:27.079Z</time></trkpt><trkpt lat="44.8828483" lon="8.04847"><ele>272.0</ele><time>2026-04-19T09:07:28.085Z</time></trkpt><trkpt lat="44.8827617" lon="8.0485117"><ele>272.0</ele><time>2026-04-19T09:07:29.15Z</time></trkpt><trkpt lat="44.8826717" lon="8.048565"><ele>272.0</ele><time>2026-04-19T09:07:30.078Z</time></trkpt><trkpt lat="44.8825833" lon="8.0486367"><ele>272.0</ele><time>2026-04-19T09:07:31.08Z</time></trkpt><trkpt lat="44.8824983" lon="8.04872"><ele>271.8</ele><time>2026-04-19T09:07:32.085Z</time></trkpt><trkpt lat="44.8824183" lon="8.0488067"><ele>271.6</ele><time>2026-04-19T09:07:33.079Z</time></trkpt><trkpt lat="44.8823367" lon="8.0489"><ele>271.40000000000003</ele><time>2026-04-19T09:07:34.091Z</time></trkpt><trkpt lat="44.8822417" lon="8.0490017"><ele>271.2</ele><time>2026-04-19T09:07:35.136Z</time></trkpt><trkpt lat="44.8821567" lon="8.0490917"><ele>271.0</ele><time>2026-04-19T09:07:36.079Z</time></trkpt><trkpt lat="44.8820633" lon="8.049175"><ele>271.0</ele><time>2026-04-19T09:07:37.085Z</time></trkpt><trkpt lat="44.8819767" lon="8.0492567"><ele>271.0</ele><time>2026-04-19T09:07:38.084Z</time></trkpt><trkpt lat="44.8818917" lon="8.0493383"><ele>271.0</ele><time>2026-04-19T09:07:39.088Z</time></trkpt><trkpt lat="44.881815" lon="8.0494183"><ele>271.0</ele><time>2026-04-19T09:07:40.085Z</time></trkpt><trkpt lat="44.8817433" lon="8.0495083"><ele>271.0</ele><time>2026-04-19T09:07:41.135Z</time></trkpt><trkpt lat="44.88167" lon="8.0496"><ele>271.8</ele><time>2026-04-19T09:07:42.092Z</time></trkpt><trkpt lat="44.8816183" lon="8.049705"><ele>272.6</ele><time>2026-04-19T09:07:43.087Z</time></trkpt><trkpt lat="44.881575" lon="8.0498383"><ele>273.4</ele><time>2026-04-19T09:07:44.082Z</time></trkpt><trkpt lat="44.88155" lon="8.04998"><ele>274.2</ele><time>2026-04-19T09:07:45.074Z</time></trkpt><trkpt lat="44.8815117" lon="8.0501417"><ele>275.0</ele><time>2026-04-19T09:07:46.076Z</time></trkpt><trkpt lat="44.88147" lon="8.0502967"><ele>275.0</ele><time>2026-04-19T09:07:47.123Z</time></trkpt><trkpt lat="44.881435" lon="8.050455"><ele>275.0</ele><time>2026-04-19T09:07:48.079Z</time></trkpt><trkpt lat="44.88139" lon="8.0506117"><ele>275.0</ele><time>2026-04-19T09:07:49.082Z</time></trkpt><trkpt lat="44.88134" lon="8.0507517"><ele>275.0</ele><time>2026-04-19T09:07:50.081Z</time></trkpt><trkpt lat="44.8812933" lon="8.0508817"><ele>275.2</ele><time>2026-04-19T09:07:51.089Z</time></trkpt><trkpt lat="44.881245" lon="8.0509967"><ele>275.4</ele><time>2026-04-19T09:07:52.088Z</time></trkpt><trkpt lat="44.8811983" lon="8.051095"><ele>275.6</ele><time>2026-04-19T09:07:53.137Z</time></trkpt><trkpt lat="44.8811433" lon="8.05116"><ele>275.8</ele><time>2026-04-19T09:07:54.078Z</time></trkpt><trkpt lat="44.8810667" lon="8.0511933"><ele>276.0</ele><time>2026-04-19T09:07:55.083Z</time></trkpt><trkpt lat="44.8809467" lon="8.0511917"><ele>277.6666666666667</ele><time>2026-04-19T09:07:56.081Z</time></trkpt><trkpt lat="44.8808017" lon="8.0511633"><ele>279.33333333333337</ele><time>2026-04-19T09:07:57.083Z</time></trkpt><trkpt lat="44.8806383" lon="8.05113"><ele>281.0</ele><time>2026-04-19T09:07:58.087Z</time></trkpt><trkpt lat="44.8804883" lon="8.0511117"><ele>281.0</ele><time>2026-04-19T09:07:59.148Z</time></trkpt><trkpt lat="44.8803567" lon="8.0511067"><ele>281.0</ele><time>2026-04-19T09:08:00.074Z</time></trkpt><trkpt lat="44.8802483" lon="8.0511233"><ele>281.0</ele><time>2026-04-19T09:08:01.079Z</time></trkpt><trkpt lat="44.8801667" lon="8.0511167"><ele>281.0</ele><time>2026-04-19T09:08:02.08Z</time></trkpt><trkpt lat="44.88014" lon="8.051"><ele>281.0</ele><time>2026-04-19T09:08:05.133Z</time></trkpt><trkpt lat="44.8802017" lon="8.0508567"><ele>281.0</ele><time>2026-04-19T09:08:07.081Z</time></trkpt><trkpt lat="44.8802333" lon="8.0507667"><ele>281.0</ele><time>2026-04-19T09:08:08.084Z</time></trkpt><trkpt lat="44.8802833" lon="8.050655"><ele>281.0</ele><time>2026-04-19T09:08:09.085Z</time></trkpt><trkpt lat="44.880355" lon="8.0505267"><ele>281.0</ele><time>2026-04-19T09:08:10.086Z</time></trkpt><trkpt lat="44.8804267" lon="8.050385"><ele>281.0</ele><time>2026-04-19T09:08:11.128Z</time></trkpt><trkpt lat="44.8804983" lon="8.050245"><ele>281.0</ele><time>2026-04-19T09:08:12.082Z</time></trkpt><trkpt lat="44.8805633" lon="8.050115"><ele>281.0</ele><time>2026-04-19T09:08:13.084Z</time></trkpt><trkpt lat="44.88062" lon="8.0499833"><ele>281.0</ele><time>2026-04-19T09:08:14.085Z</time></trkpt><trkpt lat="44.8806783" lon="8.049845"><ele>281.0</ele><time>2026-04-19T09:08:15.087Z</time></trkpt><trkpt lat="44.880735" lon="8.049715"><ele>281.0</ele><time>2026-04-19T09:08:16.084Z</time></trkpt><trkpt lat="44.8808033" lon="8.0495917"><ele>281.0</ele><time>2026-04-19T09:08:17.127Z</time></trkpt><trkpt lat="44.8808783" lon="8.04948"><ele>281.0</ele><time>2026-04-19T09:08:18.083Z</time></trkpt><trkpt lat="44.88095" lon="8.0493883"><ele>281.0</ele><time>2026-04-19T09:08:19.086Z</time></trkpt><trkpt lat="44.88101" lon="8.0493133"><ele>281.0</ele><time>2026-04-19T09:08:20.087Z</time></trkpt><trkpt lat="44.8810717" lon="8.04921"><ele>281.0</ele><time>2026-04-19T09:08:22.086Z</time></trkpt><trkpt lat="44.8810967" lon="8.0491267"><ele>281.0</ele><time>2026-04-19T09:08:24.076Z</time></trkpt><trkpt lat="44.8810733" lon="8.0490067"><ele>281.8</ele><time>2026-04-19T09:08:27.08Z</time></trkpt><trkpt lat="44.88101" lon="8.0489467"><ele>282.6</ele><time>2026-04-19T09:08:28.085Z</time></trkpt><trkpt lat="44.880935" lon="8.0488833"><ele>283.4</ele><time>2026-04-19T09:08:29.15Z</time></trkpt><trkpt lat="44.8808533" lon="8.048815"><ele>284.2</ele><time>2026-04-19T09:08:30.074Z</time></trkpt><trkpt lat="44.8807633" lon="8.04875"><ele>285.0</ele><time>2026-04-19T09:08:31.083Z</time></trkpt><trkpt lat="44.8806733" lon="8.0486833"><ele>283.2</ele><time>2026-04-19T09:08:32.084Z</time></trkpt><trkpt lat="44.880595" lon="8.0486117"><ele>281.4</ele><time>2026-04-19T09:08:33.087Z</time></trkpt><trkpt lat="44.88052" lon="8.0485317"><ele>279.6</ele><time>2026-04-19T09:08:34.084Z</time></trkpt><trkpt lat="44.8804417" lon="8.04845"><ele>277.8</ele><time>2026-04-19T09:08:35.134Z</time></trkpt><trkpt lat="44.8803583" lon="8.0483633"><ele>276.0</ele><time>2026-04-19T09:08:36.082Z</time></trkpt><trkpt lat="44.8802717" lon="8.04827"><ele>273.2</ele><time>2026-04-19T09:08:37.085Z</time></trkpt><trkpt lat="44.8801767" lon="8.04818"><ele>270.40000000000003</ele><time>2026-04-19T09:08:38.088Z</time></trkpt><trkpt lat="44.8800817" lon="8.0480917"><ele>267.6</ele><time>2026-04-19T09:08:39.078Z</time></trkpt><trkpt lat="44.8799883" lon="8.048005"><ele>264.8</ele><time>2026-04-19T09:08:40.079Z</time></trkpt><trkpt lat="44.8799067" lon="8.0479283"><ele>262.0</ele><time>2026-04-19T09:08:41.133Z</time></trkpt><trkpt lat="44.87983" lon="8.0478567"><ele>262.0</ele><time>2026-04-19T09:08:42.08Z</time></trkpt><trkpt lat="44.87977" lon="8.0478067"><ele>262.0</ele><time>2026-04-19T09:08:43.075Z</time></trkpt><trkpt lat="44.8797367" lon="8.0478983"><ele>262.0</ele><time>2026-04-19T09:08:46.08Z</time></trkpt><trkpt lat="44.87968" lon="8.0480267"><ele>262.0</ele><time>2026-04-19T09:08:48.084Z</time></trkpt><trkpt lat="44.8796117" lon="8.04817"><ele>262.0</ele><time>2026-04-19T09:08:50.082Z</time></trkpt><trkpt lat="44.879505" lon="8.04822"><ele>262.0</ele><time>2026-04-19T09:08:52.086Z</time></trkpt><trkpt lat="44.879415" lon="8.0482333"><ele>262.0</ele><time>2026-04-19T09:08:53.146Z</time></trkpt><trkpt lat="44.879315" lon="8.04825"><ele>262.0</ele><time>2026-04-19T09:08:54.081Z</time></trkpt><trkpt lat="44.8792167" lon="8.0482667"><ele>262.0</ele><time>2026-04-19T09:08:55.078Z</time></trkpt><trkpt lat="44.8791267" lon="8.0482867"><ele>262.0</ele><time>2026-04-19T09:08:56.08Z</time></trkpt><trkpt lat="44.8790583" lon="8.0482983"><ele>262.5</ele><time>2026-04-19T09:08:57.084Z</time></trkpt><trkpt lat="44.87898" lon="8.0482433"><ele>263.0</ele><time>2026-04-19T09:08:59.144Z</time></trkpt><trkpt lat="44.8788867" lon="8.04816"><ele>263.5</ele><time>2026-04-19T09:09:01.077Z</time></trkpt><trkpt lat="44.8788267" lon="8.04811"><ele>264.0</ele><time>2026-04-19T09:09:02.083Z</time></trkpt><trkpt lat="44.8787667" lon="8.0480567"><ele>264.5</ele><time>2026-04-19T09:09:03.08Z</time></trkpt><trkpt lat="44.8787083" lon="8.048015"><ele>265.0</ele><time>2026-04-19T09:09:04.085Z</time></trkpt><trkpt lat="44.8786483" lon="8.0479633"><ele>265.0</ele><time>2026-04-19T09:09:05.149Z</time></trkpt><trkpt lat="44.878585" lon="8.0479167"><ele>265.0</ele><time>2026-04-19T09:09:06.08Z</time></trkpt><trkpt lat="44.8785267" lon="8.0478667"><ele>265.0</ele><time>2026-04-19T09:09:07.078Z</time></trkpt><trkpt lat="44.8784717" lon="8.0478133"><ele>265.0</ele><time>2026-04-19T09:09:08.078Z</time></trkpt><trkpt lat="44.87842" lon="8.0477617"><ele>265.0</ele><time>2026-04-19T09:09:09.084Z</time></trkpt><trkpt lat="44.8783183" lon="8.047675"><ele>265.0</ele><time>2026-04-19T09:09:11.129Z</time></trkpt><trkpt lat="44.878255" lon="8.04764"><ele>262.8</ele><time>2026-04-19T09:09:12.074Z</time></trkpt><trkpt lat="44.87818" lon="8.0476133"><ele>260.6</ele><time>2026-04-19T09:09:13.08Z</time></trkpt><trkpt lat="44.8780783" lon="8.04754"><ele>258.4</ele><time>2026-04-19T09:09:15.081Z</time></trkpt><trkpt lat="44.8780367" lon="8.0474367"><ele>256.2</ele><time>2026-04-19T09:09:17.122Z</time></trkpt><trkpt lat="44.8780183" lon="8.0472917"><ele>254.0</ele><time>2026-04-19T09:09:19.079Z</time></trkpt><trkpt lat="44.877985" lon="8.0471533"><ele>252.33333333333334</ele><time>2026-04-19T09:09:21.085Z</time></trkpt><trkpt lat="44.8779567" lon="8.0470283"><ele>250.66666666666669</ele><time>2026-04-19T09:09:23.13Z</time></trkpt><trkpt lat="44.877925" lon="8.0469217"><ele>249.0</ele><time>2026-04-19T09:09:25.081Z</time></trkpt><trkpt lat="44.87785" lon="8.046835"><ele>247.33333333333331</ele><time>2026-04-19T09:09:27.082Z</time></trkpt><trkpt lat="44.8777817" lon="8.046745"><ele>245.66666666666666</ele><time>2026-04-19T09:09:29.149Z</time></trkpt><trkpt lat="44.8777683" lon="8.0466433"><ele>244.0</ele><time>2026-04-19T09:09:31.08Z</time></trkpt><trkpt lat="44.8777867" lon="8.0465533"><ele>241.33333333333331</ele><time>2026-04-19T09:09:33.079Z</time></trkpt><trkpt lat="44.8777867" lon="8.046435"><ele>238.66666666666666</ele><time>2026-04-19T09:09:36.074Z</time></trkpt><trkpt lat="44.8777333" lon="8.0463833"><ele>236.0</ele><time>2026-04-19T09:09:39.081Z</time></trkpt><trkpt lat="44.877665" lon="8.046385"><ele>233.33333333333331</ele><time>2026-04-19T09:09:42.077Z</time></trkpt><trkpt lat="44.87756" lon="8.0464067"><ele>230.66666666666666</ele><time>2026-04-19T09:09:55.091Z</time></trkpt><trkpt lat="44.8774983" lon="8.0463867"><ele>228.0</ele><time>2026-04-19T09:09:57.075Z</time></trkpt><trkpt lat="44.8774083" lon="8.0464067"><ele>228.28571428571428</ele><time>2026-04-19T09:09:59.13Z</time></trkpt><trkpt lat="44.8773283" lon="8.0464333"><ele>228.57142857142856</ele><time>2026-04-19T09:10:01.081Z</time></trkpt><trkpt lat="44.87727" lon="8.0464883"><ele>228.85714285714283</ele><time>2026-04-19T09:10:03.085Z</time></trkpt><trkpt lat="44.8772133" lon="8.0465567"><ele>229.1428571428571</ele><time>2026-04-19T09:10:05.136Z</time></trkpt><trkpt lat="44.8771867" lon="8.0466383"><ele>229.42857142857142</ele><time>2026-04-19T09:10:07.09Z</time></trkpt><trkpt lat="44.8771733" lon="8.046745"><ele>229.71428571428567</ele><time>2026-04-19T09:10:09.08Z</time></trkpt><trkpt lat="44.87714" lon="8.0468483"><ele>229.99999999999997</ele><time>2026-04-19T09:10:11.13Z</time></trkpt><trkpt lat="44.8770817" lon="8.0469467"><ele>230.00000000000003</ele><time>2026-04-19T09:10:13.081Z</time></trkpt><trkpt lat="44.87704" lon="8.0470433"><ele>230.0</ele><time>2026-04-19T09:10:15.09Z</time></trkpt><trkpt lat="44.877005" lon="8.04714"><ele>230.0</ele><time>2026-04-19T09:10:17.13Z</time></trkpt><trkpt lat="44.8769633" lon="8.0472767"><ele>230.0</ele><time>2026-04-19T09:10:19.091Z</time></trkpt><trkpt lat="44.876935" lon="8.0474083"><ele>230.00000000000003</ele><time>2026-04-19T09:10:21.084Z</time></trkpt><trkpt lat="44.8769117" lon="8.0475217"><ele>230.0</ele><time>2026-04-19T09:10:23.132Z</time></trkpt><trkpt lat="44.8768867" lon="8.047635"><ele>230.50000000000003</ele><time>2026-04-19T09:10:25.079Z</time></trkpt><trkpt lat="44.8768233" lon="8.0476333"><ele>231.0</ele><time>2026-04-19T09:10:31.083Z</time></trkpt><trkpt lat="44.8767633" lon="8.0475483"><ele>231.5</ele><time>2026-04-19T09:10:44.078Z</time></trkpt><trkpt lat="44.87663" lon="8.0475067"><ele>232.0</ele><time>2026-04-19T09:10:46.084Z</time></trkpt><trkpt lat="44.876555" lon="8.0474917"><ele>232.50000000000003</ele><time>2026-04-19T09:10:47.132Z</time></trkpt><trkpt lat="44.8764817" lon="8.0474717"><ele>233.0</ele><time>2026-04-19T09:10:48.08Z</time></trkpt><trkpt lat="44.8764167" lon="8.0474367"><ele>229.66666666666669</ele><time>2026-04-19T09:10:49.085Z</time></trkpt><trkpt lat="44.876355" lon="8.047405"><ele>226.33333333333334</ele><time>2026-04-19T09:10:50.083Z</time></trkpt><trkpt lat="44.876355" lon="8.04727"><ele>223.0</ele><time>2026-04-19T09:10:52.078Z</time></trkpt><trkpt lat="44.876375" lon="8.047185"><ele>219.66666666666669</ele><time>2026-04-19T09:10:53.128Z</time></trkpt><trkpt lat="44.8763983" lon="8.0470783"><ele>216.33333333333334</ele><time>2026-04-19T09:10:54.076Z</time></trkpt><trkpt lat="44.8764267" lon="8.0469483"><ele>213.0</ele><time>2026-04-19T09:10:55.08Z</time></trkpt><trkpt lat="44.8764633" lon="8.0468083"><ele>213.0</ele><time>2026-04-19T09:10:56.082Z</time></trkpt><trkpt lat="44.8765117" lon="8.046665"><ele>213.0</ele><time>2026-04-19T09:10:57.082Z</time></trkpt><trkpt lat="44.8765567" lon="8.046525"><ele>213.0</ele><time>2026-04-19T09:10:58.083Z</time></trkpt><trkpt lat="44.8766117" lon="8.0463817"><ele>213.0</ele><time>2026-04-19T09:10:59.143Z</time></trkpt><trkpt lat="44.87667" lon="8.0462483"><ele>213.0</ele><time>2026-04-19T09:11:00.08Z</time></trkpt><trkpt lat="44.8767367" lon="8.04612"><ele>214.0</ele><time>2026-04-19T09:11:01.079Z</time></trkpt><trkpt lat="44.876805" lon="8.045995"><ele>215.0</ele><time>2026-04-19T09:11:02.078Z</time></trkpt><trkpt lat="44.8768683" lon="8.0458633"><ele>216.0</ele><time>2026-04-19T09:11:03.087Z</time></trkpt><trkpt lat="44.8769183" lon="8.045725"><ele>217.0</ele><time>2026-04-19T09:11:04.085Z</time></trkpt><trkpt lat="44.8769617" lon="8.0455767"><ele>218.0</ele><time>2026-04-19T09:11:05.139Z</time></trkpt><trkpt lat="44.8769983" lon="8.0454233"><ele>218.0</ele><time>2026-04-19T09:11:06.077Z</time></trkpt><trkpt lat="44.87703" lon="8.0452683"><ele>218.0</ele><time>2026-04-19T09:11:07.087Z</time></trkpt><trkpt lat="44.8770433" lon="8.0451217"><ele>218.0</ele><time>2026-04-19T09:11:08.086Z</time></trkpt><trkpt lat="44.8770367" lon="8.044985"><ele>218.0</ele><time>2026-04-19T09:11:09.086Z</time></trkpt><trkpt lat="44.877025" lon="8.0448483"><ele>218.0</ele><time>2026-04-19T09:11:10.082Z</time></trkpt><trkpt lat="44.877015" lon="8.044715"><ele>218.0</ele><time>2026-04-19T09:11:11.127Z</time></trkpt><trkpt lat="44.8770167" lon="8.0445733"><ele>218.0</ele><time>2026-04-19T09:11:12.078Z</time></trkpt><trkpt lat="44.8770283" lon="8.044425"><ele>218.0</ele><time>2026-04-19T09:11:13.08Z</time></trkpt><trkpt lat="44.8770483" lon="8.044265"><ele>218.0</ele><time>2026-04-19T09:11:14.084Z</time></trkpt><trkpt lat="44.877075" lon="8.0441067"><ele>218.0</ele><time>2026-04-19T09:11:15.077Z</time></trkpt><trkpt lat="44.8771067" lon="8.04395"><ele>218.0</ele><time>2026-04-19T09:11:16.083Z</time></trkpt><trkpt lat="44.8771567" lon="8.043785"><ele>218.0</ele><time>2026-04-19T09:11:17.126Z</time></trkpt><trkpt lat="44.8772167" lon="8.0436117"><ele>218.0</ele><time>2026-04-19T09:11:18.075Z</time></trkpt><trkpt lat="44.87727" lon="8.0434383"><ele>218.0</ele><time>2026-04-19T09:11:19.077Z</time></trkpt><trkpt lat="44.8773083" lon="8.0432517"><ele>218.33333333333334</ele><time>2026-04-19T09:11:20.083Z</time></trkpt><trkpt lat="44.8773383" lon="8.0430417"><ele>218.66666666666669</ele><time>2026-04-19T09:11:21.087Z</time></trkpt><trkpt lat="44.8773767" lon="8.0428267"><ele>219.0</ele><time>2026-04-19T09:11:22.082Z</time></trkpt><trkpt lat="44.8774117" lon="8.042615"><ele>220.0</ele><time>2026-04-19T09:11:23.122Z</time></trkpt><trkpt lat="44.8774433" lon="8.0424133"><ele>221.0</ele><time>2026-04-19T09:11:24.075Z</time></trkpt><trkpt lat="44.8774717" lon="8.0422117"><ele>222.0</ele><time>2026-04-19T09:11:25.08Z</time></trkpt><trkpt lat="44.8774883" lon="8.0420167"><ele>223.0</ele><time>2026-04-19T09:11:26.079Z</time></trkpt><trkpt lat="44.877505" lon="8.0418367"><ele>223.0</ele><time>2026-04-19T09:11:27.083Z</time></trkpt><trkpt lat="44.8775133" lon="8.0416783"><ele>223.0</ele><time>2026-04-19T09:11:28.081Z</time></trkpt><trkpt lat="44.8775083" lon="8.0415433"><ele>223.0</ele><time>2026-04-19T09:11:29.138Z</time></trkpt><trkpt lat="44.8774983" lon="8.04142"><ele>223.0</ele><time>2026-04-19T09:11:30.078Z</time></trkpt><trkpt lat="44.8774983" lon="8.0413133"><ele>223.0</ele><time>2026-04-19T09:11:31.08Z</time></trkpt><trkpt lat="44.8775133" lon="8.0411917"><ele>224.0</ele><time>2026-04-19T09:11:32.083Z</time></trkpt><trkpt lat="44.8775417" lon="8.0410567"><ele>225.0</ele><time>2026-04-19T09:11:33.086Z</time></trkpt><trkpt lat="44.8775683" lon="8.0409133"><ele>226.0</ele><time>2026-04-19T09:11:34.078Z</time></trkpt><trkpt lat="44.8775883" lon="8.0407583"><ele>227.0</ele><time>2026-04-19T09:11:35.139Z</time></trkpt><trkpt lat="44.8776" lon="8.04059"><ele>228.0</ele><time>2026-04-19T09:11:36.078Z</time></trkpt><trkpt lat="44.87762" lon="8.040415"><ele>228.5</ele><time>2026-04-19T09:11:37.075Z</time></trkpt><trkpt lat="44.877635" lon="8.0402333"><ele>229.0</ele><time>2026-04-19T09:11:38.079Z</time></trkpt><trkpt lat="44.8776433" lon="8.040055"><ele>229.5</ele><time>2026-04-19T09:11:39.083Z</time></trkpt><trkpt lat="44.8776483" lon="8.0398883"><ele>230.0</ele><time>2026-04-19T09:11:40.087Z</time></trkpt><trkpt lat="44.8776433" lon="8.0397317"><ele>229.8</ele><time>2026-04-19T09:11:41.133Z</time></trkpt><trkpt lat="44.8776167" lon="8.0396017"><ele>229.6</ele><time>2026-04-19T09:11:42.082Z</time></trkpt><trkpt lat="44.8775483" lon="8.0395017"><ele>229.39999999999998</ele><time>2026-04-19T09:11:43.084Z</time></trkpt><trkpt lat="44.8774583" lon="8.0394017"><ele>229.2</ele><time>2026-04-19T09:11:44.085Z</time></trkpt><trkpt lat="44.8773767" lon="8.03931"><ele>229.0</ele><time>2026-04-19T09:11:45.083Z</time></trkpt><trkpt lat="44.8772983" lon="8.039225"><ele>232.0</ele><time>2026-04-19T09:11:46.079Z</time></trkpt><trkpt lat="44.877245" lon="8.0391283"><ele>234.99999999999997</ele><time>2026-04-19T09:11:47.13Z</time></trkpt><trkpt lat="44.87718" lon="8.0390217"><ele>237.99999999999997</ele><time>2026-04-19T09:11:48.083Z</time></trkpt><trkpt lat="44.87712" lon="8.0388783"><ele>241.0</ele><time>2026-04-19T09:11:49.084Z</time></trkpt><trkpt lat="44.877065" lon="8.0387383"><ele>244.0</ele><time>2026-04-19T09:11:50.075Z</time></trkpt><trkpt lat="44.8769933" lon="8.0386083"><ele>244.0</ele><time>2026-04-19T09:11:51.075Z</time></trkpt><trkpt lat="44.8769083" lon="8.0384767"><ele>244.0</ele><time>2026-04-19T09:11:52.082Z</time></trkpt><trkpt lat="44.8768217" lon="8.03833"><ele>244.0</ele><time>2026-04-19T09:11:53.135Z</time></trkpt><trkpt lat="44.8767417" lon="8.0381883"><ele>244.0</ele><time>2026-04-19T09:11:54.077Z</time></trkpt><trkpt lat="44.87666" lon="8.038055"><ele>243.2</ele><time>2026-04-19T09:11:55.079Z</time></trkpt><trkpt lat="44.8765817" lon="8.0379367"><ele>242.39999999999998</ele><time>2026-04-19T09:11:56.078Z</time></trkpt><trkpt lat="44.8765067" lon="8.0378467"><ele>241.6</ele><time>2026-04-19T09:11:57.079Z</time></trkpt><trkpt lat="44.8764383" lon="8.0377717"><ele>240.8</ele><time>2026-04-19T09:11:58.076Z</time></trkpt><trkpt lat="44.8763817" lon="8.0376867"><ele>240.0</ele><time>2026-04-19T09:11:59.146Z</time></trkpt><trkpt lat="44.87633" lon="8.0375883"><ele>242.0</ele><time>2026-04-19T09:12:00.075Z</time></trkpt><trkpt lat="44.8763" lon="8.0374683"><ele>244.0</ele><time>2026-04-19T09:12:01.078Z</time></trkpt><trkpt lat="44.8762517" lon="8.03735"><ele>246.0</ele><time>2026-04-19T09:12:02.082Z</time></trkpt><trkpt lat="44.8762083" lon="8.0372167"><ele>248.0</ele><time>2026-04-19T09:12:03.084Z</time></trkpt><trkpt lat="44.8761583" lon="8.0370817"><ele>250.0</ele><time>2026-04-19T09:12:04.08Z</time></trkpt><trkpt lat="44.8761017" lon="8.036965"><ele>249.99999999999997</ele><time>2026-04-19T09:12:05.147Z</time></trkpt><trkpt lat="44.8760433" lon="8.0368717"><ele>250.0</ele><time>2026-04-19T09:12:06.082Z</time></trkpt><trkpt lat="44.8759833" lon="8.036785"><ele>250.0</ele><time>2026-04-19T09:12:07.084Z</time></trkpt><trkpt lat="44.875935" lon="8.036695"><ele>250.0</ele><time>2026-04-19T09:12:08.087Z</time></trkpt><trkpt lat="44.875905" lon="8.0366133"><ele>249.99999999999997</ele><time>2026-04-19T09:12:09.081Z</time></trkpt><trkpt lat="44.87589" lon="8.0365067"><ele>250.0</ele><time>2026-04-19T09:12:10.089Z</time></trkpt><trkpt lat="44.8758617" lon="8.036405"><ele>249.14285714285714</ele><time>2026-04-19T09:12:11.124Z</time></trkpt><trkpt lat="44.8758367" lon="8.0363083"><ele>248.28571428571428</ele><time>2026-04-19T09:12:12.074Z</time></trkpt><trkpt lat="44.8758167" lon="8.0362033"><ele>247.42857142857142</ele><time>2026-04-19T09:12:13.082Z</time></trkpt><trkpt lat="44.8758083" lon="8.0360983"><ele>246.57142857142856</ele><time>2026-04-19T09:12:14.079Z</time></trkpt><trkpt lat="44.875805" lon="8.0359933"><ele>245.71428571428572</ele><time>2026-04-19T09:12:15.083Z</time></trkpt><trkpt lat="44.8757933" lon="8.0358917"><ele>244.85714285714283</ele><time>2026-04-19T09:12:16.084Z</time></trkpt><trkpt lat="44.8757633" lon="8.0358"><ele>243.99999999999997</ele><time>2026-04-19T09:12:17.13Z</time></trkpt><trkpt lat="44.87573" lon="8.0357033"><ele>243.99999999999997</ele><time>2026-04-19T09:12:18.08Z</time></trkpt><trkpt lat="44.8756967" lon="8.0356117"><ele>244.0</ele><time>2026-04-19T09:12:19.083Z</time></trkpt><trkpt lat="44.8756617" lon="8.035535"><ele>244.0</ele><time>2026-04-19T09:12:20.085Z</time></trkpt><trkpt lat="44.8755917" lon="8.035425"><ele>244.0</ele><time>2026-04-19T09:12:22.077Z</time></trkpt><trkpt lat="44.8755383" lon="8.0353567"><ele>243.99999999999997</ele><time>2026-04-19T09:12:23.127Z</time></trkpt><trkpt lat="44.8754817" lon="8.0352933"><ele>244.0</ele><time>2026-04-19T09:12:24.079Z</time></trkpt><trkpt lat="44.875425" lon="8.03523"><ele>243.99999999999997</ele><time>2026-04-19T09:12:25.081Z</time></trkpt><trkpt lat="44.8753867" lon="8.035145"><ele>244.0</ele><time>2026-04-19T09:12:26.079Z</time></trkpt><trkpt lat="44.8753417" lon="8.03505"><ele>244.0</ele><time>2026-04-19T09:12:27.078Z</time></trkpt><trkpt lat="44.8752983" lon="8.0349683"><ele>244.0</ele><time>2026-04-19T09:12:28.077Z</time></trkpt><trkpt lat="44.875235" lon="8.0349017"><ele>243.99999999999997</ele><time>2026-04-19T09:12:29.143Z</time></trkpt><trkpt lat="44.87518" lon="8.034835"><ele>244.0</ele><time>2026-04-19T09:12:30.078Z</time></trkpt><trkpt lat="44.875115" lon="8.0347833"><ele>245.39999999999998</ele><time>2026-04-19T09:12:31.082Z</time></trkpt><trkpt lat="44.8750117" lon="8.0346967"><ele>246.79999999999998</ele><time>2026-04-19T09:12:33.084Z</time></trkpt><trkpt lat="44.87495" lon="8.034635"><ele>248.20000000000002</ele><time>2026-04-19T09:12:34.08Z</time></trkpt><trkpt lat="44.87488" lon="8.0345783"><ele>249.60000000000002</ele><time>2026-04-19T09:12:35.139Z</time></trkpt><trkpt lat="44.8747867" lon="8.0345333"><ele>251.0</ele><time>2026-04-19T09:12:36.078Z</time></trkpt><trkpt lat="44.8746983" lon="8.03448"><ele>251.00000000000003</ele><time>2026-04-19T09:12:37.082Z</time></trkpt><trkpt lat="44.874625" lon="8.0344317"><ele>251.0</ele><time>2026-04-19T09:12:38.08Z</time></trkpt><trkpt lat="44.8745633" lon="8.0343617"><ele>251.0</ele><time>2026-04-19T09:12:39.084Z</time></trkpt><trkpt lat="44.87453" lon="8.034255"><ele>251.0</ele><time>2026-04-19T09:12:40.081Z</time></trkpt><trkpt lat="44.8744917" lon="8.0341783"><ele>251.00000000000003</ele><time>2026-04-19T09:12:41.128Z</time></trkpt><trkpt lat="44.8744467" lon="8.0340583"><ele>251.0</ele><time>2026-04-19T09:12:43.084Z</time></trkpt><trkpt lat="44.874365" lon="8.03397"><ele>252.33333333333334</ele><time>2026-04-19T09:12:45.083Z</time></trkpt><trkpt lat="44.8743083" lon="8.0339167"><ele>253.66666666666669</ele><time>2026-04-19T09:12:46.08Z</time></trkpt><trkpt lat="44.8742417" lon="8.0338717"><ele>255.0</ele><time>2026-04-19T09:12:47.129Z</time></trkpt><trkpt lat="44.8741717" lon="8.03381"><ele>256.3333333333333</ele><time>2026-04-19T09:12:48.082Z</time></trkpt><trkpt lat="44.8740967" lon="8.0337567"><ele>257.66666666666663</ele><time>2026-04-19T09:12:49.079Z</time></trkpt><trkpt lat="44.87403" lon="8.0336983"><ele>259.0</ele><time>2026-04-19T09:12:50.079Z</time></trkpt><trkpt lat="44.87396" lon="8.0336517"><ele>257.0</ele><time>2026-04-19T09:12:51.083Z</time></trkpt><trkpt lat="44.87387" lon="8.0335817"><ele>254.99999999999997</ele><time>2026-04-19T09:12:53.134Z</time></trkpt><trkpt lat="44.87385" lon="8.033445"><ele>252.99999999999997</ele><time>2026-04-19T09:12:55.081Z</time></trkpt><trkpt lat="44.8738933" lon="8.0333017"><ele>251.0</ele><time>2026-04-19T09:12:57.078Z</time></trkpt><trkpt lat="44.8738833" lon="8.0331367"><ele>249.0</ele><time>2026-04-19T09:12:59.139Z</time></trkpt><trkpt lat="44.87386" lon="8.0330417"><ele>249.0</ele><time>2026-04-19T09:13:00.072Z</time></trkpt><trkpt lat="44.8738167" lon="8.03294"><ele>249.0</ele><time>2026-04-19T09:13:01.077Z</time></trkpt><trkpt lat="44.8737733" lon="8.032835"><ele>249.0</ele><time>2026-04-19T09:13:02.077Z</time></trkpt><trkpt lat="44.8737317" lon="8.0327383"><ele>249.0</ele><time>2026-04-19T09:13:03.079Z</time></trkpt><trkpt lat="44.87367" lon="8.0326433"><ele>249.0</ele><time>2026-04-19T09:13:04.085Z</time></trkpt><trkpt lat="44.8736167" lon="8.0325533"><ele>249.0</ele><time>2026-04-19T09:13:05.14Z</time></trkpt><trkpt lat="44.8735633" lon="8.0324667"><ele>248.66666666666666</ele><time>2026-04-19T09:13:06.081Z</time></trkpt><trkpt lat="44.8735017" lon="8.0324033"><ele>248.33333333333331</ele><time>2026-04-19T09:13:07.085Z</time></trkpt><trkpt lat="44.8734383" lon="8.0323433"><ele>248.0</ele><time>2026-04-19T09:13:08.077Z</time></trkpt><trkpt lat="44.8733633" lon="8.0322983"><ele>247.66666666666666</ele><time>2026-04-19T09:13:09.083Z</time></trkpt><trkpt lat="44.8733017" lon="8.0322483"><ele>247.33333333333331</ele><time>2026-04-19T09:13:10.082Z</time></trkpt><trkpt lat="44.873245" lon="8.032205"><ele>247.0</ele><time>2026-04-19T09:13:11.13Z</time></trkpt><trkpt lat="44.8731733" lon="8.032145"><ele>246.99999999999997</ele><time>2026-04-19T09:13:13.079Z</time></trkpt><trkpt lat="44.8731217" lon="8.032075"><ele>247.0</ele><time>2026-04-19T09:13:17.124Z</time></trkpt><trkpt lat="44.8730333" lon="8.03205"><ele>247.0</ele><time>2026-04-19T09:13:41.128Z</time></trkpt><trkpt lat="44.8729633" lon="8.0320933"><ele>247.0</ele><time>2026-04-19T09:14:19.087Z</time></trkpt><trkpt lat="44.8728767" lon="8.032055"><ele>246.99999999999997</ele><time>2026-04-19T09:14:21.083Z</time></trkpt><trkpt lat="44.872785" lon="8.032005"><ele>247.0</ele><time>2026-04-19T09:14:23.124Z</time></trkpt><trkpt lat="44.872705" lon="8.0319483"><ele>246.99999999999997</ele><time>2026-04-19T09:14:26.077Z</time></trkpt><trkpt lat="44.8727117" lon="8.0318567"><ele>247.0</ele><time>2026-04-19T09:14:28.079Z</time></trkpt><trkpt lat="44.8727067" lon="8.0317433"><ele>247.0</ele><time>2026-04-19T09:14:30.074Z</time></trkpt><trkpt lat="44.87274" lon="8.0316367"><ele>247.0</ele><time>2026-04-19T09:14:32.076Z</time></trkpt><trkpt lat="44.87278" lon="8.0315017"><ele>246.99999999999997</ele><time>2026-04-19T09:15:02.077Z</time></trkpt><trkpt lat="44.872795" lon="8.0313583"><ele>247.0</ele><time>2026-04-19T09:15:04.08Z</time></trkpt><trkpt lat="44.8727767" lon="8.0312017"><ele>249.75</ele><time>2026-04-19T09:15:06.074Z</time></trkpt><trkpt lat="44.8727683" lon="8.0310383"><ele>252.5</ele><time>2026-04-19T09:15:08.079Z</time></trkpt><trkpt lat="44.8727733" lon="8.0308917"><ele>255.25</ele><time>2026-04-19T09:15:10.079Z</time></trkpt><trkpt lat="44.87278" lon="8.0307117"><ele>258.0</ele><time>2026-04-19T09:15:12.08Z</time></trkpt><trkpt lat="44.8727967" lon="8.0305383"><ele>260.0</ele><time>2026-04-19T09:15:14.081Z</time></trkpt><trkpt lat="44.8727917" lon="8.030435"><ele>262.0</ele><time>2026-04-19T09:15:15.079Z</time></trkpt><trkpt lat="44.8728067" lon="8.0303217"><ele>264.0</ele><time>2026-04-19T09:15:16.077Z</time></trkpt><trkpt lat="44.872805" lon="8.0302183"><ele>266.0</ele><time>2026-04-19T09:15:17.125Z</time></trkpt><trkpt lat="44.8727833" lon="8.0301133"><ele>268.0</ele><time>2026-04-19T09:15:18.073Z</time></trkpt><trkpt lat="44.8727517" lon="8.0300267"><ele>270.0</ele><time>2026-04-19T09:15:19.082Z</time></trkpt><trkpt lat="44.87272" lon="8.0299083"><ele>270.8333333333333</ele><time>2026-04-19T09:15:21.078Z</time></trkpt><trkpt lat="44.8726733" lon="8.0298483"><ele>271.6666666666667</ele><time>2026-04-19T09:15:23.128Z</time></trkpt><trkpt lat="44.8726083" lon="8.0299"><ele>272.5</ele><time>2026-04-19T09:15:25.08Z</time></trkpt><trkpt lat="44.8725533" lon="8.0300217"><ele>273.33333333333337</ele><time>2026-04-19T09:15:27.083Z</time></trkpt><trkpt lat="44.8724867" lon="8.030095"><ele>274.1666666666667</ele><time>2026-04-19T09:15:29.132Z</time></trkpt><trkpt lat="44.8724217" lon="8.03009"><ele>275.0</ele><time>2026-04-19T09:15:31.077Z</time></trkpt><trkpt lat="44.8723433" lon="8.0300183"><ele>275.6</ele><time>2026-04-19T09:15:33.079Z</time></trkpt><trkpt lat="44.8722967" lon="8.0298883"><ele>276.2</ele><time>2026-04-19T09:15:35.138Z</time></trkpt><trkpt lat="44.8722433" lon="8.0297867"><ele>276.8</ele><time>2026-04-19T09:15:37.084Z</time></trkpt><trkpt lat="44.8721817" lon="8.0297267"><ele>277.4</ele><time>2026-04-19T09:15:39.086Z</time></trkpt><trkpt lat="44.872195" lon="8.0296083"><ele>278.0</ele><time>2026-04-19T09:16:06.078Z</time></trkpt><trkpt lat="44.8722317" lon="8.0294817"><ele>278.0</ele><time>2026-04-19T09:16:09.078Z</time></trkpt><trkpt lat="44.872295" lon="8.0293567"><ele>278.0</ele><time>2026-04-19T09:16:11.127Z</time></trkpt><trkpt lat="44.8723717" lon="8.02925"><ele>278.0</ele><time>2026-04-19T09:16:13.081Z</time></trkpt><trkpt lat="44.8724483" lon="8.0291683"><ele>278.0</ele><time>2026-04-19T09:16:15.083Z</time></trkpt><trkpt lat="44.8725483" lon="8.0291017"><ele>278.0</ele><time>2026-04-19T09:16:17.123Z</time></trkpt><trkpt lat="44.8726083" lon="8.0290717"><ele>277.33333333333337</ele><time>2026-04-19T09:16:18.081Z</time></trkpt><trkpt lat="44.8726717" lon="8.0290433"><ele>276.6666666666667</ele><time>2026-04-19T09:16:19.082Z</time></trkpt><trkpt lat="44.8727367" lon="8.0290167"><ele>276.0</ele><time>2026-04-19T09:16:20.078Z</time></trkpt><trkpt lat="44.8728033" lon="8.0289933"><ele>275.3333333333333</ele><time>2026-04-19T09:16:21.086Z</time></trkpt><trkpt lat="44.8728667" lon="8.0289717"><ele>274.66666666666663</ele><time>2026-04-19T09:16:22.083Z</time></trkpt><trkpt lat="44.87299" lon="8.02894"><ele>274.0</ele><time>2026-04-19T09:16:24.075Z</time></trkpt><trkpt lat="44.8731117" lon="8.0289267"><ele>274.0</ele><time>2026-04-19T09:16:26.082Z</time></trkpt><trkpt lat="44.8732317" lon="8.028935"><ele>274.0</ele><time>2026-04-19T09:16:28.085Z</time></trkpt><trkpt lat="44.873295" lon="8.02895"><ele>274.0</ele><time>2026-04-19T09:16:29.148Z</time></trkpt><trkpt lat="44.8733667" lon="8.0289667"><ele>274.0</ele><time>2026-04-19T09:16:30.073Z</time></trkpt><trkpt lat="44.8734483" lon="8.029"><ele>274.0</ele><time>2026-04-19T09:16:31.086Z</time></trkpt><trkpt lat="44.8735417" lon="8.029055"><ele>274.0</ele><time>2026-04-19T09:16:32.077Z</time></trkpt><trkpt lat="44.8736467" lon="8.0291283"><ele>276.75</ele><time>2026-04-19T09:16:33.081Z</time></trkpt><trkpt lat="44.8737633" lon="8.02922"><ele>279.5</ele><time>2026-04-19T09:16:34.084Z</time></trkpt><trkpt lat="44.8738817" lon="8.0293217"><ele>282.25</ele><time>2026-04-19T09:16:35.142Z</time></trkpt><trkpt lat="44.8739983" lon="8.0294233"><ele>285.0</ele><time>2026-04-19T09:16:36.075Z</time></trkpt><trkpt lat="44.8741083" lon="8.0295267"><ele>285.0</ele><time>2026-04-19T09:16:37.081Z</time></trkpt><trkpt lat="44.8742167" lon="8.0296217"><ele>285.0</ele><time>2026-04-19T09:16:38.075Z</time></trkpt><trkpt lat="44.87432" lon="8.0297"><ele>285.0</ele><time>2026-04-19T09:16:39.09Z</time></trkpt><trkpt lat="44.8744217" lon="8.0297667"><ele>285.0</ele><time>2026-04-19T09:16:40.084Z</time></trkpt><trkpt lat="44.8745183" lon="8.0298133"><ele>285.0</ele><time>2026-04-19T09:16:41.123Z</time></trkpt><trkpt lat="44.87462" lon="8.02985"><ele>285.0</ele><time>2026-04-19T09:16:42.084Z</time></trkpt><trkpt lat="44.87473" lon="8.0298733"><ele>285.0</ele><time>2026-04-19T09:16:43.081Z</time></trkpt><trkpt lat="44.8748433" lon="8.029885"><ele>285.0</ele><time>2026-04-19T09:16:44.078Z</time></trkpt><trkpt lat="44.87495" lon="8.0299083"><ele>285.0</ele><time>2026-04-19T09:16:45.082Z</time></trkpt><trkpt lat="44.8750567" lon="8.0299317"><ele>284.0</ele><time>2026-04-19T09:16:46.075Z</time></trkpt><trkpt lat="44.8751617" lon="8.02996"><ele>283.0</ele><time>2026-04-19T09:16:47.131Z</time></trkpt><trkpt lat="44.875265" lon="8.0299883"><ele>282.0</ele><time>2026-04-19T09:16:48.073Z</time></trkpt><trkpt lat="44.87537" lon="8.0300283"><ele>281.0</ele><time>2026-04-19T09:16:49.08Z</time></trkpt><trkpt lat="44.8754733" lon="8.030075"><ele>280.0</ele><time>2026-04-19T09:16:50.085Z</time></trkpt><trkpt lat="44.8755783" lon="8.0301333"><ele>282.25</ele><time>2026-04-19T09:16:51.079Z</time></trkpt><trkpt lat="44.8756817" lon="8.0302"><ele>284.5</ele><time>2026-04-19T09:16:52.081Z</time></trkpt><trkpt lat="44.875785" lon="8.0302717"><ele>286.75</ele><time>2026-04-19T09:16:53.135Z</time></trkpt><trkpt lat="44.8758867" lon="8.0303533"><ele>289.0</ele><time>2026-04-19T09:16:54.078Z</time></trkpt><trkpt lat="44.875985" lon="8.0304433"><ele>289.0</ele><time>2026-04-19T09:16:55.081Z</time></trkpt><trkpt lat="44.8760817" lon="8.0305233"><ele>289.0</ele><time>2026-04-19T09:16:56.083Z</time></trkpt><trkpt lat="44.8761717" lon="8.0305983"><ele>289.0</ele><time>2026-04-19T09:16:57.073Z</time></trkpt><trkpt lat="44.87625" lon="8.0306617"><ele>289.0</ele><time>2026-04-19T09:16:58.084Z</time></trkpt><trkpt lat="44.8763233" lon="8.0307117"><ele>289.0</ele><time>2026-04-19T09:16:59.146Z</time></trkpt><trkpt lat="44.8764033" lon="8.0307633"><ele>289.25</ele><time>2026-04-19T09:17:00.074Z</time></trkpt><trkpt lat="44.8764883" lon="8.0308117"><ele>289.5</ele><time>2026-04-19T09:17:01.078Z</time></trkpt><trkpt lat="44.876575" lon="8.03087"><ele>289.75</ele><time>2026-04-19T09:17:02.079Z</time></trkpt><trkpt lat="44.876685" lon="8.0309417"><ele>290.0</ele><time>2026-04-19T09:17:03.082Z</time></trkpt><trkpt lat="44.8768167" lon="8.0310533"><ele>286.0</ele><time>2026-04-19T09:17:04.078Z</time></trkpt><trkpt lat="44.87694" lon="8.03116"><ele>282.0</ele><time>2026-04-19T09:17:05.137Z</time></trkpt><trkpt lat="44.8770533" lon="8.03127"><ele>278.0</ele><time>2026-04-19T09:17:06.078Z</time></trkpt><trkpt lat="44.8771667" lon="8.0313833"><ele>274.0</ele><time>2026-04-19T09:17:07.073Z</time></trkpt><trkpt lat="44.87728" lon="8.0314967"><ele>274.0</ele><time>2026-04-19T09:17:08.083Z</time></trkpt><trkpt lat="44.8773833" lon="8.0316183"><ele>274.0</ele><time>2026-04-19T09:17:09.083Z</time></trkpt><trkpt lat="44.87748" lon="8.0317333"><ele>274.0</ele><time>2026-04-19T09:17:10.08Z</time></trkpt><trkpt lat="44.8775633" lon="8.0318383"><ele>274.0</ele><time>2026-04-19T09:17:11.126Z</time></trkpt><trkpt lat="44.8776317" lon="8.03193"><ele>273.8333333333333</ele><time>2026-04-19T09:17:12.08Z</time></trkpt><trkpt lat="44.87769" lon="8.031965"><ele>273.66666666666663</ele><time>2026-04-19T09:17:14.087Z</time></trkpt><trkpt lat="44.8777117" lon="8.0318667"><ele>273.5</ele><time>2026-04-19T09:17:17.131Z</time></trkpt><trkpt lat="44.8777633" lon="8.03177"><ele>273.3333333333333</ele><time>2026-04-19T09:17:19.084Z</time></trkpt><trkpt lat="44.8778367" lon="8.03174"><ele>273.1666666666667</ele><time>2026-04-19T09:17:21.082Z</time></trkpt><trkpt lat="44.8779283" lon="8.0317983"><ele>273.0</ele><time>2026-04-19T09:17:23.127Z</time></trkpt><trkpt lat="44.8779967" lon="8.031865"><ele>273.0</ele><time>2026-04-19T09:17:25.08Z</time></trkpt><trkpt lat="44.878065" lon="8.03185"><ele>273.0</ele><time>2026-04-19T09:17:29.147Z</time></trkpt><trkpt lat="44.8780983" lon="8.0317367"><ele>273.0</ele><time>2026-04-19T09:17:31.079Z</time></trkpt><trkpt lat="44.878125" lon="8.031645"><ele>273.0</ele><time>2026-04-19T09:17:32.074Z</time></trkpt><trkpt lat="44.878165" lon="8.031535"><ele>273.0</ele><time>2026-04-19T09:17:33.085Z</time></trkpt><trkpt lat="44.8782" lon="8.031435"><ele>273.0</ele><time>2026-04-19T09:17:34.083Z</time></trkpt><trkpt lat="44.87824" lon="8.0313483"><ele>270.6</ele><time>2026-04-19T09:17:35.156Z</time></trkpt><trkpt lat="44.8782917" lon="8.031225"><ele>268.20000000000005</ele><time>2026-04-19T09:17:37.078Z</time></trkpt><trkpt lat="44.8783167" lon="8.031105"><ele>265.8</ele><time>2026-04-19T09:17:39.082Z</time></trkpt><trkpt lat="44.87833" lon="8.0309483"><ele>263.40000000000003</ele><time>2026-04-19T09:17:41.129Z</time></trkpt><trkpt lat="44.8783033" lon="8.03082"><ele>261.0</ele><time>2026-04-19T09:17:43.08Z</time></trkpt><trkpt lat="44.878265" lon="8.03072"><ele>258.6666666666667</ele><time>2026-04-19T09:17:45.082Z</time></trkpt><trkpt lat="44.8782217" lon="8.0306333"><ele>256.3333333333333</ele><time>2026-04-19T09:17:48.072Z</time></trkpt><trkpt lat="44.8782383" lon="8.030545"><ele>254.0</ele><time>2026-04-19T09:17:51.085Z</time></trkpt><trkpt lat="44.8783067" lon="8.030395"><ele>251.66666666666666</ele><time>2026-04-19T09:17:53.13Z</time></trkpt><trkpt lat="44.8783333" lon="8.0303083"><ele>249.33333333333331</ele><time>2026-04-19T09:17:54.074Z</time></trkpt><trkpt lat="44.87836" lon="8.0302217"><ele>247.0</ele><time>2026-04-19T09:17:55.082Z</time></trkpt><trkpt lat="44.8783933" lon="8.03007"><ele>245.2</ele><time>2026-04-19T09:17:57.086Z</time></trkpt><trkpt lat="44.8784167" lon="8.0299367"><ele>243.39999999999998</ele><time>2026-04-19T09:17:59.111Z</time></trkpt><trkpt lat="44.87845" lon="8.0297717"><ele>241.60000000000002</ele><time>2026-04-19T09:18:01.079Z</time></trkpt><trkpt lat="44.8784967" lon="8.029625"><ele>239.8</ele><time>2026-04-19T09:18:03.077Z</time></trkpt><trkpt lat="44.878555" lon="8.0295"><ele>238.0</ele><time>2026-04-19T09:18:05.136Z</time></trkpt><trkpt lat="44.8785967" lon="8.0293817"><ele>236.4</ele><time>2026-04-19T09:18:07.081Z</time></trkpt><trkpt lat="44.8785933" lon="8.0292583"><ele>234.8</ele><time>2026-04-19T09:18:09.077Z</time></trkpt><trkpt lat="44.87858" lon="8.0291433"><ele>233.2</ele><time>2026-04-19T09:18:11.129Z</time></trkpt><trkpt lat="44.87859" lon="8.0290117"><ele>231.6</ele><time>2026-04-19T09:18:13.077Z</time></trkpt><trkpt lat="44.8786" lon="8.0288783"><ele>230.0</ele><time>2026-04-19T09:18:15.077Z</time></trkpt><trkpt lat="44.87864" lon="8.0287517"><ele>229.2</ele><time>2026-04-19T09:18:17.121Z</time></trkpt><trkpt lat="44.878695" lon="8.028605"><ele>228.4</ele><time>2026-04-19T09:18:19.08Z</time></trkpt><trkpt lat="44.8787367" lon="8.02846"><ele>227.60000000000002</ele><time>2026-04-19T09:18:21.077Z</time></trkpt><trkpt lat="44.878765" lon="8.0283783"><ele>226.8</ele><time>2026-04-19T09:18:22.076Z</time></trkpt><trkpt lat="44.8788133" lon="8.0282567"><ele>226.0</ele><time>2026-04-19T09:18:24.081Z</time></trkpt><trkpt lat="44.8789" lon="8.028155"><ele>227.60000000000002</ele><time>2026-04-19T09:18:26.078Z</time></trkpt><trkpt lat="44.8789917" lon="8.0280767"><ele>229.20000000000002</ele><time>2026-04-19T09:18:28.076Z</time></trkpt><trkpt lat="44.8790683" lon="8.0280533"><ele>230.79999999999998</ele><time>2026-04-19T09:18:30.076Z</time></trkpt><trkpt lat="44.8791567" lon="8.0281083"><ele>232.39999999999998</ele><time>2026-04-19T09:18:32.074Z</time></trkpt><trkpt lat="44.8792717" lon="8.028155"><ele>234.0</ele><time>2026-04-19T09:18:34.081Z</time></trkpt><trkpt lat="44.8793367" lon="8.028165"><ele>234.0</ele><time>2026-04-19T09:18:35.137Z</time></trkpt><trkpt lat="44.8794017" lon="8.02817"><ele>234.0</ele><time>2026-04-19T09:18:36.075Z</time></trkpt><trkpt lat="44.8794833" lon="8.0282017"><ele>234.0</ele><time>2026-04-19T09:18:38.077Z</time></trkpt><trkpt lat="44.8795817" lon="8.0282433"><ele>234.0</ele><time>2026-04-19T09:18:40.071Z</time></trkpt><trkpt lat="44.8796933" lon="8.02829"><ele>234.0</ele><time>2026-04-19T09:18:42.078Z</time></trkpt><trkpt lat="44.8797567" lon="8.028325"><ele>234.0</ele><time>2026-04-19T09:18:43.077Z</time></trkpt><trkpt lat="44.8798217" lon="8.0283267"><ele>234.0</ele><time>2026-04-19T09:18:44.08Z</time></trkpt><trkpt lat="44.8798933" lon="8.0283117"><ele>234.0</ele><time>2026-04-19T09:18:45.079Z</time></trkpt><trkpt lat="44.879985" lon="8.0282767"><ele>234.0</ele><time>2026-04-19T09:18:46.075Z</time></trkpt><trkpt lat="44.88006" lon="8.0282533"><ele>234.0</ele><time>2026-04-19T09:18:47.123Z</time></trkpt><trkpt lat="44.8801867" lon="8.0282517"><ele>234.0</ele><time>2026-04-19T09:18:49.089Z</time></trkpt><trkpt lat="44.8802567" lon="8.0282567"><ele>234.0</ele><time>2026-04-19T09:18:50.085Z</time></trkpt><trkpt lat="44.8803217" lon="8.0282667"><ele>231.66666666666666</ele><time>2026-04-19T09:18:51.078Z</time></trkpt><trkpt lat="44.880435" lon="8.02825"><ele>229.33333333333331</ele><time>2026-04-19T09:18:53.128Z</time></trkpt><trkpt lat="44.8804967" lon="8.028225"><ele>227.0</ele><time>2026-04-19T09:18:54.073Z</time></trkpt><trkpt lat="44.880565" lon="8.0281717"><ele>224.66666666666666</ele><time>2026-04-19T09:18:55.076Z</time></trkpt><trkpt lat="44.88063" lon="8.0281333"><ele>222.33333333333331</ele><time>2026-04-19T09:18:56.085Z</time></trkpt><trkpt lat="44.8807217" lon="8.0280317"><ele>220.0</ele><time>2026-04-19T09:18:58.078Z</time></trkpt><trkpt lat="44.8807967" lon="8.0279867"><ele>219.99999999999997</ele><time>2026-04-19T09:19:00.073Z</time></trkpt><trkpt lat="44.8808517" lon="8.0280367"><ele>220.0</ele><time>2026-04-19T09:19:03.082Z</time></trkpt><trkpt lat="44.8808833" lon="8.0281167"><ele>220.0</ele><time>2026-04-19T09:19:12.078Z</time></trkpt><trkpt lat="44.8809333" lon="8.0282133"><ele>220.0</ele><time>2026-04-19T09:19:14.075Z</time></trkpt><trkpt lat="44.8809817" lon="8.0282867"><ele>219.99999999999997</ele><time>2026-04-19T09:19:15.078Z</time></trkpt><trkpt lat="44.8810383" lon="8.028385"><ele>220.0</ele><time>2026-04-19T09:19:16.082Z</time></trkpt><trkpt lat="44.8810883" lon="8.0284667"><ele>222.33333333333331</ele><time>2026-04-19T09:19:17.127Z</time></trkpt><trkpt lat="44.88117" lon="8.0285933"><ele>224.66666666666666</ele><time>2026-04-19T09:19:19.087Z</time></trkpt><trkpt lat="44.8812283" lon="8.0286433"><ele>227.0</ele><time>2026-04-19T09:19:20.079Z</time></trkpt><trkpt lat="44.881285" lon="8.0286967"><ele>229.33333333333331</ele><time>2026-04-19T09:19:21.078Z</time></trkpt><trkpt lat="44.881345" lon="8.0287417"><ele>231.66666666666666</ele><time>2026-04-19T09:19:22.072Z</time></trkpt><trkpt lat="44.8813983" lon="8.02879"><ele>234.0</ele><time>2026-04-19T09:19:23.135Z</time></trkpt><trkpt lat="44.881455" lon="8.0288483"><ele>234.0</ele><time>2026-04-19T09:19:24.075Z</time></trkpt><trkpt lat="44.8815083" lon="8.0289"><ele>234.0</ele><time>2026-04-19T09:19:25.076Z</time></trkpt><trkpt lat="44.8815733" lon="8.028975"><ele>234.0</ele><time>2026-04-19T09:19:26.085Z</time></trkpt><trkpt lat="44.8816367" lon="8.0290567"><ele>234.0</ele><time>2026-04-19T09:19:27.08Z</time></trkpt><trkpt lat="44.8817" lon="8.0291333"><ele>234.0</ele><time>2026-04-19T09:19:28.083Z</time></trkpt><trkpt lat="44.8817833" lon="8.0292367"><ele>234.0</ele><time>2026-04-19T09:19:30.074Z</time></trkpt><trkpt lat="44.8818117" lon="8.02934"><ele>235.6</ele><time>2026-04-19T09:19:32.08Z</time></trkpt><trkpt lat="44.88182" lon="8.0294817"><ele>237.2</ele><time>2026-04-19T09:19:34.08Z</time></trkpt><trkpt lat="44.881795" lon="8.0296567"><ele>238.79999999999998</ele><time>2026-04-19T09:19:36.081Z</time></trkpt><trkpt lat="44.8817617" lon="8.0297333"><ele>240.39999999999998</ele><time>2026-04-19T09:19:37.08Z</time></trkpt><trkpt lat="44.8817317" lon="8.02986"><ele>242.0</ele><time>2026-04-19T09:19:39.075Z</time></trkpt><trkpt lat="44.88179" lon="8.02981"><ele>243.6</ele><time>2026-04-19T09:19:49.079Z</time></trkpt><trkpt lat="44.8818333" lon="8.02972"><ele>245.2</ele><time>2026-04-19T09:19:51.078Z</time></trkpt><trkpt lat="44.8818867" lon="8.029575"><ele>246.8</ele><time>2026-04-19T09:19:53.126Z</time></trkpt><trkpt lat="44.8819283" lon="8.0294817"><ele>248.4</ele><time>2026-04-19T09:19:54.077Z</time></trkpt><trkpt lat="44.8819783" lon="8.0293783"><ele>250.0</ele><time>2026-04-19T09:19:55.077Z</time></trkpt><trkpt lat="44.8820367" lon="8.0292683"><ele>249.99999999999997</ele><time>2026-04-19T09:19:56.08Z</time></trkpt><trkpt lat="44.8820917" lon="8.029165"><ele>250.0</ele><time>2026-04-19T09:19:57.076Z</time></trkpt><trkpt lat="44.8821383" lon="8.0290733"><ele>250.0</ele><time>2026-04-19T09:19:58.075Z</time></trkpt><trkpt lat="44.8821733" lon="8.0289817"><ele>250.0</ele><time>2026-04-19T09:19:59.144Z</time></trkpt><trkpt lat="44.882195" lon="8.0288933"><ele>249.99999999999997</ele><time>2026-04-19T09:20:00.081Z</time></trkpt><trkpt lat="44.8821883" lon="8.0287267"><ele>250.0</ele><time>2026-04-19T09:20:02.083Z</time></trkpt><trkpt lat="44.8821583" lon="8.0285883"><ele>250.85714285714283</ele><time>2026-04-19T09:20:04.074Z</time></trkpt><trkpt lat="44.8821833" lon="8.0285"><ele>251.71428571428572</ele><time>2026-04-19T09:20:06.075Z</time></trkpt><trkpt lat="44.8821133" lon="8.028455"><ele>252.57142857142856</ele><time>2026-04-19T09:20:30.08Z</time></trkpt><trkpt lat="44.8821117" lon="8.0283317"><ele>253.42857142857142</ele><time>2026-04-19T09:20:35.135Z</time></trkpt><trkpt lat="44.8821417" lon="8.0282467"><ele>254.28571428571428</ele><time>2026-04-19T09:20:37.079Z</time></trkpt><trkpt lat="44.8821683" lon="8.0281567"><ele>255.14285714285714</ele><time>2026-04-19T09:20:39.08Z</time></trkpt><trkpt lat="44.8821983" lon="8.02807"><ele>256.0</ele><time>2026-04-19T09:20:41.122Z</time></trkpt><trkpt lat="44.882235" lon="8.02797"><ele>254.33333333333331</ele><time>2026-04-19T09:20:43.08Z</time></trkpt><trkpt lat="44.8822933" lon="8.0278633"><ele>252.66666666666666</ele><time>2026-04-19T09:20:45.084Z</time></trkpt><trkpt lat="44.8823467" lon="8.0277983"><ele>251.0</ele><time>2026-04-19T09:20:47.13Z</time></trkpt><trkpt lat="44.8824133" lon="8.0277767"><ele>249.33333333333331</ele><time>2026-04-19T09:20:50.091Z</time></trkpt><trkpt lat="44.8824933" lon="8.0277567"><ele>247.66666666666666</ele><time>2026-04-19T09:20:53.128Z</time></trkpt><trkpt lat="44.8825683" lon="8.0277183"><ele>246.0</ele><time>2026-04-19T09:20:55.081Z</time></trkpt><trkpt lat="44.8826433" lon="8.027675"><ele>246.0</ele><time>2026-04-19T09:20:57.072Z</time></trkpt><trkpt lat="44.8827017" lon="8.0275933"><ele>246.00000000000003</ele><time>2026-04-19T09:21:00.078Z</time></trkpt><trkpt lat="44.88273" lon="8.0274817"><ele>246.00000000000003</ele><time>2026-04-19T09:21:02.073Z</time></trkpt><trkpt lat="44.88276" lon="8.0273617"><ele>246.0</ele><time>2026-04-19T09:21:04.083Z</time></trkpt><trkpt lat="44.88282" lon="8.0271683"><ele>246.0</ele><time>2026-04-19T09:21:18.072Z</time></trkpt><trkpt lat="44.8828433" lon="8.0270367"><ele>243.16666666666666</ele><time>2026-04-19T09:21:21.082Z</time></trkpt><trkpt lat="44.8828517" lon="8.0269233"><ele>240.33333333333331</ele><time>2026-04-19T09:21:23.127Z</time></trkpt><trkpt lat="44.8828533" lon="8.02681"><ele>237.5</ele><time>2026-04-19T09:21:25.082Z</time></trkpt><trkpt lat="44.882845" lon="8.0267083"><ele>234.66666666666666</ele><time>2026-04-19T09:21:27.082Z</time></trkpt><trkpt lat="44.882825" lon="8.0266017"><ele>231.83333333333331</ele><time>2026-04-19T09:21:29.143Z</time></trkpt><trkpt lat="44.8827883" lon="8.0264967"><ele>229.0</ele><time>2026-04-19T09:21:31.07Z</time></trkpt><trkpt lat="44.8827717" lon="8.0264083"><ele>226.49999999999997</ele><time>2026-04-19T09:21:33.08Z</time></trkpt><trkpt lat="44.8826917" lon="8.0263533"><ele>224.0</ele><time>2026-04-19T09:21:48.078Z</time></trkpt><trkpt lat="44.8826417" lon="8.026275"><ele>221.5</ele><time>2026-04-19T09:21:53.128Z</time></trkpt><trkpt lat="44.882605" lon="8.0261783"><ele>219.0</ele><time>2026-04-19T09:21:56.09Z</time></trkpt><trkpt lat="44.882545" lon="8.026085"><ele>216.49999999999997</ele><time>2026-04-19T09:21:59.146Z</time></trkpt><trkpt lat="44.8824917" lon="8.026025"><ele>214.0</ele><time>2026-04-19T09:22:02.081Z</time></trkpt><trkpt lat="44.88247" lon="8.02588"><ele>213.33333333333331</ele><time>2026-04-19T09:22:09.077Z</time></trkpt><trkpt lat="44.8824783" lon="8.0257733"><ele>212.66666666666666</ele><time>2026-04-19T09:22:11.121Z</time></trkpt><trkpt lat="44.882515" lon="8.0256683"><ele>212.0</ele><time>2026-04-19T09:22:14.085Z</time></trkpt><trkpt lat="44.88256" lon="8.0256033"><ele>211.33333333333331</ele><time>2026-04-19T09:22:16.076Z</time></trkpt><trkpt lat="44.8826267" lon="8.0255267"><ele>210.66666666666666</ele><time>2026-04-19T09:22:18.087Z</time></trkpt><trkpt lat="44.8827083" lon="8.0254383"><ele>210.0</ele><time>2026-04-19T09:22:20.078Z</time></trkpt><trkpt lat="44.8827833" lon="8.0253683"><ele>210.0</ele><time>2026-04-19T09:22:22.078Z</time></trkpt><trkpt lat="44.8828917" lon="8.0252883"><ele>210.0</ele><time>2026-04-19T09:22:24.082Z</time></trkpt><trkpt lat="44.8829717" lon="8.02524"><ele>210.0</ele><time>2026-04-19T09:22:25.08Z</time></trkpt><trkpt lat="44.8830667" lon="8.0251833"><ele>210.0</ele><time>2026-04-19T09:22:26.086Z</time></trkpt><trkpt lat="44.8832133" lon="8.0251317"><ele>210.0</ele><time>2026-04-19T09:22:27.086Z</time></trkpt><trkpt lat="44.88336" lon="8.025095"><ele>210.0</ele><time>2026-04-19T09:22:28.081Z</time></trkpt><trkpt lat="44.883495" lon="8.02506"><ele>210.0</ele><time>2026-04-19T09:22:29.14Z</time></trkpt><trkpt lat="44.883625" lon="8.0250383"><ele>210.0</ele><time>2026-04-19T09:22:30.072Z</time></trkpt><trkpt lat="44.88375" lon="8.0250333"><ele>210.25</ele><time>2026-04-19T09:22:31.082Z</time></trkpt><trkpt lat="44.883865" lon="8.0250183"><ele>210.5</ele><time>2026-04-19T09:22:32.08Z</time></trkpt><trkpt lat="44.8839767" lon="8.0249783"><ele>210.75</ele><time>2026-04-19T09:22:33.078Z</time></trkpt><trkpt lat="44.8841" lon="8.0249117"><ele>211.0</ele><time>2026-04-19T09:22:34.084Z</time></trkpt><trkpt lat="44.88423" lon="8.024815"><ele>209.0</ele><time>2026-04-19T09:22:35.142Z</time></trkpt><trkpt lat="44.8843467" lon="8.0247267"><ele>207.0</ele><time>2026-04-19T09:22:36.075Z</time></trkpt><trkpt lat="44.8844583" lon="8.0246233"><ele>205.0</ele><time>2026-04-19T09:22:37.079Z</time></trkpt><trkpt lat="44.8845483" lon="8.024505"><ele>203.0</ele><time>2026-04-19T09:22:38.081Z</time></trkpt><trkpt lat="44.8846483" lon="8.02436"><ele>203.0</ele><time>2026-04-19T09:22:39.081Z</time></trkpt><trkpt lat="44.8847517" lon="8.0241983"><ele>203.0</ele><time>2026-04-19T09:22:40.074Z</time></trkpt><trkpt lat="44.8848533" lon="8.0240383"><ele>203.0</ele><time>2026-04-19T09:22:41.128Z</time></trkpt><trkpt lat="44.88495" lon="8.0238867"><ele>203.75</ele><time>2026-04-19T09:22:42.079Z</time></trkpt><trkpt lat="44.8850333" lon="8.0237483"><ele>204.5</ele><time>2026-04-19T09:22:43.084Z</time></trkpt><trkpt lat="44.8851283" lon="8.0235933"><ele>205.25</ele><time>2026-04-19T09:22:44.08Z</time></trkpt><trkpt lat="44.8852217" lon="8.0234133"><ele>206.0</ele><time>2026-04-19T09:22:45.079Z</time></trkpt><trkpt lat="44.8853083" lon="8.023245"><ele>204.25</ele><time>2026-04-19T09:22:46.08Z</time></trkpt><trkpt lat="44.885395" lon="8.02309"><ele>202.5</ele><time>2026-04-19T09:22:47.124Z</time></trkpt><trkpt lat="44.885485" lon="8.0229333"><ele>200.75</ele><time>2026-04-19T09:22:48.08Z</time></trkpt><trkpt lat="44.8855683" lon="8.022775"><ele>199.0</ele><time>2026-04-19T09:22:49.077Z</time></trkpt><trkpt lat="44.885655" lon="8.022595"><ele>199.0</ele><time>2026-04-19T09:22:50.074Z</time></trkpt><trkpt lat="44.8857317" lon="8.0224283"><ele>199.0</ele><time>2026-04-19T09:22:51.085Z</time></trkpt><trkpt lat="44.885805" lon="8.02228"><ele>199.0</ele><time>2026-04-19T09:22:52.078Z</time></trkpt><trkpt lat="44.8858567" lon="8.022165"><ele>199.0</ele><time>2026-04-19T09:22:53.135Z</time></trkpt><trkpt lat="44.8859017" lon="8.0220717"><ele>199.0</ele><time>2026-04-19T09:22:54.079Z</time></trkpt><trkpt lat="44.8859483" lon="8.0219467"><ele>198.79999999999998</ele><time>2026-04-19T09:22:56.077Z</time></trkpt><trkpt lat="44.8858717" lon="8.0218833"><ele>198.6</ele><time>2026-04-19T09:22:58.076Z</time></trkpt><trkpt lat="44.8857833" lon="8.0218367"><ele>198.4</ele><time>2026-04-19T09:22:59.137Z</time></trkpt><trkpt lat="44.8856733" lon="8.02177"><ele>198.2</ele><time>2026-04-19T09:23:00.077Z</time></trkpt><trkpt lat="44.8855433" lon="8.0216833"><ele>198.0</ele><time>2026-04-19T09:23:01.078Z</time></trkpt><trkpt lat="44.8854" lon="8.021585"><ele>197.75</ele><time>2026-04-19T09:23:02.074Z</time></trkpt><trkpt lat="44.885265" lon="8.0214917"><ele>197.5</ele><time>2026-04-19T09:23:03.082Z</time></trkpt><trkpt lat="44.8851467" lon="8.021415"><ele>197.25</ele><time>2026-04-19T09:23:04.084Z</time></trkpt><trkpt lat="44.88504" lon="8.02135"><ele>197.0</ele><time>2026-04-19T09:23:05.146Z</time></trkpt><trkpt lat="44.8849383" lon="8.021305"><ele>199.00000000000003</ele><time>2026-04-19T09:23:06.077Z</time></trkpt><trkpt lat="44.8848533" lon="8.0212833"><ele>201.0</ele><time>2026-04-19T09:23:07.079Z</time></trkpt><trkpt lat="44.8847883" lon="8.0212733"><ele>203.0</ele><time>2026-04-19T09:23:08.077Z</time></trkpt><trkpt lat="44.884715" lon="8.0212683"><ele>205.0</ele><time>2026-04-19T09:23:10.077Z</time></trkpt><trkpt lat="44.8845967" lon="8.0212733"><ele>207.00000000000003</ele><time>2026-04-19T09:23:21.083Z</time></trkpt><trkpt lat="44.88451" lon="8.021265"><ele>209.0</ele><time>2026-04-19T09:23:22.086Z</time></trkpt><trkpt lat="44.8844133" lon="8.0212717"><ele>209.0</ele><time>2026-04-19T09:23:23.119Z</time></trkpt><trkpt lat="44.8843017" lon="8.0213033"><ele>209.0</ele><time>2026-04-19T09:23:24.077Z</time></trkpt><trkpt lat="44.8841483" lon="8.0213567"><ele>209.0</ele><time>2026-04-19T09:23:25.076Z</time></trkpt><trkpt lat="44.88403" lon="8.0213917"><ele>209.0</ele><time>2026-04-19T09:23:26.073Z</time></trkpt><trkpt lat="44.8839217" lon="8.021435"><ele>209.6</ele><time>2026-04-19T09:23:27.08Z</time></trkpt><trkpt lat="44.883825" lon="8.0214983"><ele>210.2</ele><time>2026-04-19T09:23:28.079Z</time></trkpt><trkpt lat="44.8837317" lon="8.02155"><ele>210.79999999999998</ele><time>2026-04-19T09:23:29.138Z</time></trkpt><trkpt lat="44.88362" lon="8.0216"><ele>211.39999999999998</ele><time>2026-04-19T09:23:30.075Z</time></trkpt><trkpt lat="44.8835017" lon="8.0216533"><ele>212.0</ele><time>2026-04-19T09:23:31.082Z</time></trkpt><trkpt lat="44.8833617" lon="8.021715"><ele>212.25</ele><time>2026-04-19T09:23:32.075Z</time></trkpt><trkpt lat="44.8832133" lon="8.0217733"><ele>212.5</ele><time>2026-04-19T09:23:33.074Z</time></trkpt><trkpt lat="44.8830783" lon="8.02183"><ele>212.75</ele><time>2026-04-19T09:23:34.082Z</time></trkpt><trkpt lat="44.88295" lon="8.02189"><ele>213.0</ele><time>2026-04-19T09:23:35.132Z</time></trkpt><trkpt lat="44.8828333" lon="8.0219433"><ele>213.0</ele><time>2026-04-19T09:23:36.073Z</time></trkpt><trkpt lat="44.8827383" lon="8.021985"><ele>213.0</ele><time>2026-04-19T09:23:37.077Z</time></trkpt><trkpt lat="44.8826433" lon="8.022025"><ele>213.0</ele><time>2026-04-19T09:23:38.075Z</time></trkpt><trkpt lat="44.8825567" lon="8.0220517"><ele>213.0</ele><time>2026-04-19T09:23:39.082Z</time></trkpt><trkpt lat="44.8824683" lon="8.0220567"><ele>213.0</ele><time>2026-04-19T09:23:40.079Z</time></trkpt><trkpt lat="44.8823883" lon="8.0220633"><ele>213.83333333333334</ele><time>2026-04-19T09:23:41.126Z</time></trkpt><trkpt lat="44.882325" lon="8.0220483"><ele>214.66666666666669</ele><time>2026-04-19T09:23:42.071Z</time></trkpt><trkpt lat="44.8822267" lon="8.0219583"><ele>215.5</ele><time>2026-04-19T09:23:44.079Z</time></trkpt><trkpt lat="44.8821583" lon="8.02191"><ele>216.33333333333334</ele><time>2026-04-19T09:23:45.078Z</time></trkpt><trkpt lat="44.8820817" lon="8.02187"><ele>217.16666666666669</ele><time>2026-04-19T09:23:46.075Z</time></trkpt><trkpt lat="44.88201" lon="8.0218367"><ele>218.0</ele><time>2026-04-19T09:23:47.123Z</time></trkpt><trkpt lat="44.8819017" lon="8.02176"><ele>218.0</ele><time>2026-04-19T09:23:49.081Z</time></trkpt><trkpt lat="44.8817883" lon="8.0216817"><ele>218.0</ele><time>2026-04-19T09:23:51.076Z</time></trkpt><trkpt lat="44.8817383" lon="8.0216183"><ele>218.0</ele><time>2026-04-19T09:23:52.073Z</time></trkpt><trkpt lat="44.8817" lon="8.0214867"><ele>218.0</ele><time>2026-04-19T09:23:54.079Z</time></trkpt><trkpt lat="44.881645" lon="8.021405"><ele>218.0</ele><time>2026-04-19T09:23:56.078Z</time></trkpt><trkpt lat="44.88156" lon="8.0213667"><ele>222.0</ele><time>2026-04-19T09:23:58.082Z</time></trkpt><trkpt lat="44.88148" lon="8.021335"><ele>226.0</ele><time>2026-04-19T09:24:00.075Z</time></trkpt><trkpt lat="44.881375" lon="8.0212733"><ele>230.0</ele><time>2026-04-19T09:24:02.08Z</time></trkpt><trkpt lat="44.8812917" lon="8.0212633"><ele>234.0</ele><time>2026-04-19T09:24:04.076Z</time></trkpt><trkpt lat="44.88121" lon="8.0212767"><ele>238.0</ele><time>2026-04-19T09:24:06.073Z</time></trkpt><trkpt lat="44.88108" lon="8.0213"><ele>237.99999999999997</ele><time>2026-04-19T09:24:08.074Z</time></trkpt><trkpt lat="44.8809933" lon="8.0213133"><ele>238.0</ele><time>2026-04-19T09:24:09.082Z</time></trkpt><trkpt lat="44.880915" lon="8.021335"><ele>238.0</ele><time>2026-04-19T09:24:10.077Z</time></trkpt><trkpt lat="44.8808333" lon="8.0213533"><ele>238.0</ele><time>2026-04-19T09:24:11.125Z</time></trkpt><trkpt lat="44.8807417" lon="8.0213683"><ele>237.99999999999997</ele><time>2026-04-19T09:24:12.074Z</time></trkpt><trkpt lat="44.88066" lon="8.02138"><ele>238.0</ele><time>2026-04-19T09:24:13.072Z</time></trkpt><trkpt lat="44.8805867" lon="8.0213833"><ele>239.85714285714286</ele><time>2026-04-19T09:24:14.08Z</time></trkpt><trkpt lat="44.880515" lon="8.02138"><ele>241.71428571428572</ele><time>2026-04-19T09:24:15.075Z</time></trkpt><trkpt lat="44.8804383" lon="8.0213767"><ele>243.57142857142856</ele><time>2026-04-19T09:24:16.077Z</time></trkpt><trkpt lat="44.8803733" lon="8.0213567"><ele>245.42857142857142</ele><time>2026-04-19T09:24:17.129Z</time></trkpt><trkpt lat="44.8803083" lon="8.02135"><ele>247.28571428571428</ele><time>2026-04-19T09:24:18.075Z</time></trkpt><trkpt lat="44.8802417" lon="8.0213517"><ele>249.1428571428571</ele><time>2026-04-19T09:24:19.082Z</time></trkpt><trkpt lat="44.8801683" lon="8.0213617"><ele>250.99999999999997</ele><time>2026-04-19T09:24:20.079Z</time></trkpt><trkpt lat="44.880105" lon="8.02138"><ele>253.4</ele><time>2026-04-19T09:24:21.082Z</time></trkpt><trkpt lat="44.8799983" lon="8.021375"><ele>255.8</ele><time>2026-04-19T09:24:23.122Z</time></trkpt><trkpt lat="44.8799033" lon="8.0213233"><ele>258.20000000000005</ele><time>2026-04-19T09:24:25.082Z</time></trkpt><trkpt lat="44.8798883" lon="8.0212217"><ele>260.6</ele><time>2026-04-19T09:24:27.08Z</time></trkpt><trkpt lat="44.8799283" lon="8.0210883"><ele>263.0</ele><time>2026-04-19T09:24:29.143Z</time></trkpt><trkpt lat="44.8799283" lon="8.0209867"><ele>263.0</ele><time>2026-04-19T09:24:31.071Z</time></trkpt><trkpt lat="44.8799233" lon="8.0208883"><ele>263.0</ele><time>2026-04-19T09:24:34.086Z</time></trkpt><trkpt lat="44.879965" lon="8.0208167"><ele>263.0</ele><time>2026-04-19T09:26:26.085Z</time></trkpt><trkpt lat="44.88002" lon="8.0207267"><ele>263.0</ele><time>2026-04-19T09:26:29.149Z</time></trkpt><trkpt lat="44.880075" lon="8.020645"><ele>263.0</ele><time>2026-04-19T09:26:32.08Z</time></trkpt><trkpt lat="44.88011" lon="8.0205567"><ele>263.0</ele><time>2026-04-19T09:26:39.079Z</time></trkpt><trkpt lat="44.8800933" lon="8.0204417"><ele>261.4</ele><time>2026-04-19T09:26:42.071Z</time></trkpt><trkpt lat="44.8800483" lon="8.0203233"><ele>259.8</ele><time>2026-04-19T09:26:45.086Z</time></trkpt><trkpt lat="44.8799967" lon="8.0202467"><ele>258.2</ele><time>2026-04-19T09:26:47.139Z</time></trkpt><trkpt lat="44.879925" lon="8.02017"><ele>256.6</ele><time>2026-04-19T09:26:50.077Z</time></trkpt><trkpt lat="44.87985" lon="8.0200933"><ele>255.0</ele><time>2026-04-19T09:26:53.135Z</time></trkpt><trkpt lat="44.879765" lon="8.0200183"><ele>252.66666666666666</ele><time>2026-04-19T09:26:55.08Z</time></trkpt><trkpt lat="44.8797033" lon="8.0199617"><ele>250.33333333333331</ele><time>2026-04-19T09:26:56.069Z</time></trkpt><trkpt lat="44.879635" lon="8.01988"><ele>248.0</ele><time>2026-04-19T09:26:57.074Z</time></trkpt><trkpt lat="44.87957" lon="8.01978"><ele>245.66666666666666</ele><time>2026-04-19T09:26:58.079Z</time></trkpt><trkpt lat="44.8795233" lon="8.01969"><ele>243.33333333333331</ele><time>2026-04-19T09:26:59.14Z</time></trkpt><trkpt lat="44.87949" lon="8.0196083"><ele>241.0</ele><time>2026-04-19T09:27:00.075Z</time></trkpt><trkpt lat="44.8794667" lon="8.0194717"><ele>240.99999999999997</ele><time>2026-04-19T09:27:02.074Z</time></trkpt><trkpt lat="44.87944" lon="8.01939"><ele>241.0</ele><time>2026-04-19T09:27:05.147Z</time></trkpt><trkpt lat="44.8793983" lon="8.0193117"><ele>241.0</ele><time>2026-04-19T09:27:08.083Z</time></trkpt><trkpt lat="44.879365" lon="8.0192217"><ele>241.0</ele><time>2026-04-19T09:27:10.077Z</time></trkpt><trkpt lat="44.8792733" lon="8.0191783"><ele>240.99999999999997</ele><time>2026-04-19T09:27:13.081Z</time></trkpt><trkpt lat="44.8792067" lon="8.0191833"><ele>241.0</ele><time>2026-04-19T09:27:15.077Z</time></trkpt><trkpt lat="44.8791083" lon="8.0191417"><ele>239.60000000000002</ele><time>2026-04-19T09:27:18.074Z</time></trkpt><trkpt lat="44.8790217" lon="8.019095"><ele>238.20000000000002</ele><time>2026-04-19T09:27:20.079Z</time></trkpt><trkpt lat="44.8789033" lon="8.0190783"><ele>236.79999999999998</ele><time>2026-04-19T09:27:22.07Z</time></trkpt><trkpt lat="44.8787833" lon="8.0191033"><ele>235.39999999999998</ele><time>2026-04-19T09:27:24.072Z</time></trkpt><trkpt lat="44.878715" lon="8.019105"><ele>234.0</ele><time>2026-04-19T09:27:25.077Z</time></trkpt><trkpt lat="44.8785833" lon="8.019105"><ele>234.0</ele><time>2026-04-19T09:27:27.076Z</time></trkpt><trkpt lat="44.8785183" lon="8.0191117"><ele>233.99999999999997</ele><time>2026-04-19T09:27:28.075Z</time></trkpt><trkpt lat="44.8784183" lon="8.019155"><ele>233.99999999999997</ele><time>2026-04-19T09:27:30.077Z</time></trkpt><trkpt lat="44.87834" lon="8.0192217"><ele>234.0</ele><time>2026-04-19T09:27:32.074Z</time></trkpt><trkpt lat="44.8782883" lon="8.019325"><ele>234.0</ele><time>2026-04-19T09:27:34.08Z</time></trkpt><trkpt lat="44.87829" lon="8.0194717"><ele>237.2</ele><time>2026-04-19T09:27:36.076Z</time></trkpt><trkpt lat="44.8783067" lon="8.01964"><ele>240.39999999999998</ele><time>2026-04-19T09:27:38.079Z</time></trkpt><trkpt lat="44.8783217" lon="8.019785"><ele>243.6</ele><time>2026-04-19T09:27:40.077Z</time></trkpt><trkpt lat="44.8783483" lon="8.0199283"><ele>246.8</ele><time>2026-04-19T09:27:42.074Z</time></trkpt><trkpt lat="44.8783833" lon="8.020085"><ele>250.0</ele><time>2026-04-19T09:27:44.076Z</time></trkpt><trkpt lat="44.8783933" lon="8.0202533"><ele>251.4</ele><time>2026-04-19T09:27:46.082Z</time></trkpt><trkpt lat="44.8784317" lon="8.0204083"><ele>252.8</ele><time>2026-04-19T09:27:48.076Z</time></trkpt><trkpt lat="44.8784817" lon="8.0205633"><ele>254.2</ele><time>2026-04-19T09:27:50.079Z</time></trkpt><trkpt lat="44.8785017" lon="8.0207267"><ele>255.6</ele><time>2026-04-19T09:27:52.075Z</time></trkpt><trkpt lat="44.8785017" lon="8.02083"><ele>257.0</ele><time>2026-04-19T09:27:53.143Z</time></trkpt><trkpt lat="44.87851" lon="8.020925"><ele>257.0</ele><time>2026-04-19T09:27:54.074Z</time></trkpt><trkpt lat="44.8785117" lon="8.021015"><ele>257.0</ele><time>2026-04-19T09:27:55.073Z</time></trkpt><trkpt lat="44.8784667" lon="8.021175"><ele>257.0</ele><time>2026-04-19T09:27:57.079Z</time></trkpt><trkpt lat="44.8784233" lon="8.0212433"><ele>257.0</ele><time>2026-04-19T09:27:58.081Z</time></trkpt><trkpt lat="44.87834" lon="8.0213617"><ele>257.0</ele><time>2026-04-19T09:28:00.074Z</time></trkpt><trkpt lat="44.8782583" lon="8.0214383"><ele>257.0</ele><time>2026-04-19T09:28:02.072Z</time></trkpt><trkpt lat="44.8781917" lon="8.0215267"><ele>257.0</ele><time>2026-04-19T09:28:04.078Z</time></trkpt><trkpt lat="44.8781717" lon="8.0216283"><ele>257.0</ele><time>2026-04-19T09:28:06.076Z</time></trkpt><trkpt lat="44.8782167" lon="8.0217417"><ele>257.0</ele><time>2026-04-19T09:28:08.078Z</time></trkpt><trkpt lat="44.878285" lon="8.021845"><ele>257.0</ele><time>2026-04-19T09:28:10.083Z</time></trkpt><trkpt lat="44.8783117" lon="8.021965"><ele>257.0</ele><time>2026-04-19T09:28:12.071Z</time></trkpt><trkpt lat="44.8783167" lon="8.0220767"><ele>258.33333333333337</ele><time>2026-04-19T09:28:14.076Z</time></trkpt><trkpt lat="44.8783317" lon="8.0222017"><ele>259.6666666666667</ele><time>2026-04-19T09:28:17.134Z</time></trkpt><trkpt lat="44.8783467" lon="8.0223117"><ele>261.0</ele><time>2026-04-19T09:28:19.08Z</time></trkpt><trkpt lat="44.8783383" lon="8.0224133"><ele>262.3333333333333</ele><time>2026-04-19T09:28:21.071Z</time></trkpt><trkpt lat="44.878285" lon="8.0224733"><ele>263.66666666666663</ele><time>2026-04-19T09:28:23.134Z</time></trkpt><trkpt lat="44.878245" lon="8.0225617"><ele>265.0</ele><time>2026-04-19T09:28:25.074Z</time></trkpt><trkpt lat="44.8782233" lon="8.0227033"><ele>265.0</ele><time>2026-04-19T09:28:27.078Z</time></trkpt><trkpt lat="44.878205" lon="8.0228567"><ele>265.0</ele><time>2026-04-19T09:28:29.145Z</time></trkpt><trkpt lat="44.8782083" lon="8.0229867"><ele>265.0</ele><time>2026-04-19T09:28:31.081Z</time></trkpt><trkpt lat="44.8782333" lon="8.0230733"><ele>265.0</ele><time>2026-04-19T09:28:33.079Z</time></trkpt><trkpt lat="44.8782167" lon="8.0231883"><ele>265.0</ele><time>2026-04-19T09:28:36.08Z</time></trkpt><trkpt lat="44.878175" lon="8.0233383"><ele>265.2</ele><time>2026-04-19T09:28:38.083Z</time></trkpt><trkpt lat="44.87815" lon="8.023435"><ele>265.4</ele><time>2026-04-19T09:28:39.082Z</time></trkpt><trkpt lat="44.878125" lon="8.0235283"><ele>265.6</ele><time>2026-04-19T09:28:40.077Z</time></trkpt><trkpt lat="44.8780633" lon="8.0236667"><ele>265.8</ele><time>2026-04-19T09:28:42.074Z</time></trkpt><trkpt lat="44.877965" lon="8.0237783"><ele>266.0</ele><time>2026-04-19T09:28:44.078Z</time></trkpt><trkpt lat="44.8779083" lon="8.0238233"><ele>266.0</ele><time>2026-04-19T09:28:45.075Z</time></trkpt><trkpt lat="44.8778033" lon="8.023905"><ele>266.0</ele><time>2026-04-19T09:28:47.138Z</time></trkpt><trkpt lat="44.8777217" lon="8.0239733"><ele>266.0</ele><time>2026-04-19T09:28:49.076Z</time></trkpt><trkpt lat="44.877625" lon="8.0240617"><ele>266.0</ele><time>2026-04-19T09:28:51.083Z</time></trkpt><trkpt lat="44.8775317" lon="8.0241567"><ele>266.0</ele><time>2026-04-19T09:28:53.145Z</time></trkpt><trkpt lat="44.87745" lon="8.0242867"><ele>267.6666666666667</ele><time>2026-04-19T09:28:55.078Z</time></trkpt><trkpt lat="44.8773867" lon="8.0244517"><ele>269.33333333333337</ele><time>2026-04-19T09:28:57.083Z</time></trkpt><trkpt lat="44.8773567" lon="8.0245483"><ele>271.0</ele><time>2026-04-19T09:28:58.08Z</time></trkpt><trkpt lat="44.8773283" lon="8.0246467"><ele>272.6666666666667</ele><time>2026-04-19T09:28:59.143Z</time></trkpt><trkpt lat="44.87731" lon="8.0247583"><ele>274.3333333333333</ele><time>2026-04-19T09:29:00.076Z</time></trkpt><trkpt lat="44.8772883" lon="8.0248583"><ele>276.0</ele><time>2026-04-19T09:29:01.083Z</time></trkpt><trkpt lat="44.87726" lon="8.0249517"><ele>277.2857142857143</ele><time>2026-04-19T09:29:02.078Z</time></trkpt><trkpt lat="44.8772333" lon="8.0250433"><ele>278.5714285714286</ele><time>2026-04-19T09:29:03.079Z</time></trkpt><trkpt lat="44.8772017" lon="8.0251367"><ele>279.8571428571429</ele><time>2026-04-19T09:29:04.077Z</time></trkpt><trkpt lat="44.8771633" lon="8.0252283"><ele>281.14285714285717</ele><time>2026-04-19T09:29:05.136Z</time></trkpt><trkpt lat="44.877125" lon="8.0253183"><ele>282.42857142857144</ele><time>2026-04-19T09:29:06.076Z</time></trkpt><trkpt lat="44.877085" lon="8.0254"><ele>283.7142857142857</ele><time>2026-04-19T09:29:07.078Z</time></trkpt><trkpt lat="44.8770383" lon="8.0254767"><ele>285.0</ele><time>2026-04-19T09:29:08.074Z</time></trkpt><trkpt lat="44.8769917" lon="8.02554"><ele>285.0</ele><time>2026-04-19T09:29:09.077Z</time></trkpt><trkpt lat="44.8768917" lon="8.0256467"><ele>285.0</ele><time>2026-04-19T09:29:11.135Z</time></trkpt><trkpt lat="44.87681" lon="8.0257467"><ele>285.0</ele><time>2026-04-19T09:29:13.081Z</time></trkpt><trkpt lat="44.8767533" lon="8.0258383"><ele>285.0</ele><time>2026-04-19T09:29:15.08Z</time></trkpt><trkpt lat="44.87669" lon="8.0259483"><ele>285.0</ele><time>2026-04-19T09:29:17.133Z</time></trkpt><trkpt lat="44.8766417" lon="8.0260833"><ele>283.0</ele><time>2026-04-19T09:29:19.083Z</time></trkpt><trkpt lat="44.8765883" lon="8.02623"><ele>281.0</ele><time>2026-04-19T09:29:21.071Z</time></trkpt><trkpt lat="44.876525" lon="8.0263817"><ele>279.0</ele><time>2026-04-19T09:29:23.127Z</time></trkpt><trkpt lat="44.8764667" lon="8.0265267"><ele>277.0</ele><time>2026-04-19T09:29:25.081Z</time></trkpt><trkpt lat="44.876425" lon="8.0266517"><ele>275.8333333333333</ele><time>2026-04-19T09:29:27.091Z</time></trkpt><trkpt lat="44.876415" lon="8.0267433"><ele>274.66666666666663</ele><time>2026-04-19T09:29:29.147Z</time></trkpt><trkpt lat="44.8764133" lon="8.0268883"><ele>273.5</ele><time>2026-04-19T09:29:32.077Z</time></trkpt><trkpt lat="44.87641" lon="8.027015"><ele>272.3333333333333</ele><time>2026-04-19T09:29:34.077Z</time></trkpt><trkpt lat="44.8764017" lon="8.0271817"><ele>271.1666666666667</ele><time>2026-04-19T09:29:36.074Z</time></trkpt><trkpt lat="44.8763967" lon="8.0272717"><ele>270.0</ele><time>2026-04-19T09:29:37.083Z</time></trkpt><trkpt lat="44.8763883" lon="8.0273633"><ele>270.0</ele><time>2026-04-19T09:29:38.083Z</time></trkpt><trkpt lat="44.8763867" lon="8.0274533"><ele>270.0</ele><time>2026-04-19T09:29:39.076Z</time></trkpt><trkpt lat="44.8763767" lon="8.027615"><ele>270.0</ele><time>2026-04-19T09:29:41.132Z</time></trkpt><trkpt lat="44.876345" lon="8.02776"><ele>270.0</ele><time>2026-04-19T09:29:43.075Z</time></trkpt><trkpt lat="44.87631" lon="8.027885"><ele>270.0</ele><time>2026-04-19T09:29:45.083Z</time></trkpt><trkpt lat="44.8762617" lon="8.0280383"><ele>268.6666666666667</ele><time>2026-04-19T09:29:47.131Z</time></trkpt><trkpt lat="44.8762467" lon="8.0281883"><ele>267.3333333333333</ele><time>2026-04-19T09:29:49.08Z</time></trkpt><trkpt lat="44.8762417" lon="8.02828"><ele>266.0</ele><time>2026-04-19T09:29:51.079Z</time></trkpt><trkpt lat="44.8762517" lon="8.0283833"><ele>264.66666666666663</ele><time>2026-04-19T09:30:15.069Z</time></trkpt><trkpt lat="44.8761683" lon="8.0284017"><ele>263.3333333333333</ele><time>2026-04-19T09:30:25.073Z</time></trkpt><trkpt lat="44.8761033" lon="8.0283567"><ele>262.0</ele><time>2026-04-19T09:30:28.08Z</time></trkpt><trkpt lat="44.87605" lon="8.028295"><ele>261.8333333333333</ele><time>2026-04-19T09:30:30.073Z</time></trkpt><trkpt lat="44.8759717" lon="8.0282583"><ele>261.66666666666663</ele><time>2026-04-19T09:30:33.077Z</time></trkpt><trkpt lat="44.8759117" lon="8.0283367"><ele>261.5</ele><time>2026-04-19T09:30:37.073Z</time></trkpt><trkpt lat="44.8758367" lon="8.0283267"><ele>261.3333333333333</ele><time>2026-04-19T09:30:42.072Z</time></trkpt><trkpt lat="44.875765" lon="8.028275"><ele>261.1666666666667</ele><time>2026-04-19T09:30:47.136Z</time></trkpt><trkpt lat="44.875715" lon="8.02818"><ele>261.0</ele><time>2026-04-19T09:30:50.08Z</time></trkpt><trkpt lat="44.875715" lon="8.0280833"><ele>260.0</ele><time>2026-04-19T09:30:52.083Z</time></trkpt><trkpt lat="44.8756617" lon="8.02797"><ele>259.0</ele><time>2026-04-19T09:30:54.078Z</time></trkpt><trkpt lat="44.8755883" lon="8.0278833"><ele>258.0</ele><time>2026-04-19T09:30:55.081Z</time></trkpt><trkpt lat="44.875555" lon="8.0277567"><ele>257.0</ele><time>2026-04-19T09:30:57.085Z</time></trkpt><trkpt lat="44.8755067" lon="8.027645"><ele>256.0</ele><time>2026-04-19T09:30:59.146Z</time></trkpt><trkpt lat="44.875455" lon="8.027555"><ele>255.99999999999997</ele><time>2026-04-19T09:31:01.073Z</time></trkpt><trkpt lat="44.8754067" lon="8.027495"><ele>256.0</ele><time>2026-04-19T09:31:03.08Z</time></trkpt><trkpt lat="44.87537" lon="8.0274083"><ele>256.0</ele><time>2026-04-19T09:31:06.076Z</time></trkpt><trkpt lat="44.875305" lon="8.0273067"><ele>256.0</ele><time>2026-04-19T09:31:08.078Z</time></trkpt><trkpt lat="44.875255" lon="8.0272"><ele>255.99999999999997</ele><time>2026-04-19T09:31:10.073Z</time></trkpt><trkpt lat="44.8752283" lon="8.0270967"><ele>256.0</ele><time>2026-04-19T09:31:13.074Z</time></trkpt><trkpt lat="44.8752367" lon="8.027"><ele>255.83333333333331</ele><time>2026-04-19T09:31:18.074Z</time></trkpt><trkpt lat="44.8752417" lon="8.0269083"><ele>255.66666666666666</ele><time>2026-04-19T09:31:21.075Z</time></trkpt><trkpt lat="44.8752933" lon="8.026795"><ele>255.5</ele><time>2026-04-19T09:31:23.125Z</time></trkpt><trkpt lat="44.8753317" lon="8.0266867"><ele>255.33333333333331</ele><time>2026-04-19T09:31:25.072Z</time></trkpt><trkpt lat="44.8753267" lon="8.0265633"><ele>255.16666666666666</ele><time>2026-04-19T09:31:27.081Z</time></trkpt><trkpt lat="44.875285" lon="8.02642"><ele>255.0</ele><time>2026-04-19T09:31:29.139Z</time></trkpt><trkpt lat="44.8752533" lon="8.0263267"><ele>254.66666666666666</ele><time>2026-04-19T09:31:31.077Z</time></trkpt><trkpt lat="44.8751733" lon="8.0263017"><ele>254.33333333333331</ele><time>2026-04-19T09:31:34.079Z</time></trkpt><trkpt lat="44.8751017" lon="8.0263"><ele>254.0</ele><time>2026-04-19T09:31:37.081Z</time></trkpt><trkpt lat="44.8750667" lon="8.0262083"><ele>253.66666666666666</ele><time>2026-04-19T09:31:39.078Z</time></trkpt><trkpt lat="44.87505" lon="8.0261133"><ele>253.33333333333331</ele><time>2026-04-19T09:31:40.083Z</time></trkpt><trkpt lat="44.87502" lon="8.0259917"><ele>253.0</ele><time>2026-04-19T09:31:41.129Z</time></trkpt><trkpt lat="44.8749733" lon="8.0258633"><ele>247.83333333333331</ele><time>2026-04-19T09:31:42.077Z</time></trkpt><trkpt lat="44.8749133" lon="8.025735"><ele>242.66666666666666</ele><time>2026-04-19T09:31:43.083Z</time></trkpt><trkpt lat="44.8748617" lon="8.0256417"><ele>237.5</ele><time>2026-04-19T09:31:44.08Z</time></trkpt><trkpt lat="44.8748133" lon="8.0255567"><ele>232.33333333333331</ele><time>2026-04-19T09:31:45.085Z</time></trkpt><trkpt lat="44.8747683" lon="8.0254633"><ele>227.16666666666666</ele><time>2026-04-19T09:31:46.071Z</time></trkpt><trkpt lat="44.8747317" lon="8.0253617"><ele>222.0</ele><time>2026-04-19T09:31:47.133Z</time></trkpt><trkpt lat="44.87471" lon="8.0252567"><ele>222.0</ele><time>2026-04-19T09:31:48.073Z</time></trkpt><trkpt lat="44.8747033" lon="8.0251483"><ele>222.0</ele><time>2026-04-19T09:31:49.071Z</time></trkpt><trkpt lat="44.8747067" lon="8.02504"><ele>222.0</ele><time>2026-04-19T09:31:50.077Z</time></trkpt><trkpt lat="44.8747167" lon="8.024935"><ele>222.0</ele><time>2026-04-19T09:31:51.075Z</time></trkpt><trkpt lat="44.87472" lon="8.02484"><ele>222.0</ele><time>2026-04-19T09:31:52.077Z</time></trkpt><trkpt lat="44.8747267" lon="8.024735"><ele>222.0</ele><time>2026-04-19T09:31:53.126Z</time></trkpt><trkpt lat="44.8747167" lon="8.0246217"><ele>221.2</ele><time>2026-04-19T09:31:54.073Z</time></trkpt><trkpt lat="44.874695" lon="8.024505"><ele>220.39999999999998</ele><time>2026-04-19T09:31:55.078Z</time></trkpt><trkpt lat="44.8746717" lon="8.0243917"><ele>219.60000000000002</ele><time>2026-04-19T09:31:56.072Z</time></trkpt><trkpt lat="44.87465" lon="8.024295"><ele>218.8</ele><time>2026-04-19T09:31:57.073Z</time></trkpt><trkpt lat="44.8746517" lon="8.02413"><ele>218.0</ele><time>2026-04-19T09:31:59.138Z</time></trkpt><trkpt lat="44.8746933" lon="8.0239867"><ele>218.00000000000003</ele><time>2026-04-19T09:32:01.075Z</time></trkpt><trkpt lat="44.874755" lon="8.0238317"><ele>218.0</ele><time>2026-04-19T09:32:03.073Z</time></trkpt><trkpt lat="44.8747883" lon="8.0237267"><ele>218.0</ele><time>2026-04-19T09:32:04.077Z</time></trkpt><trkpt lat="44.8748167" lon="8.02362"><ele>218.0</ele><time>2026-04-19T09:32:05.138Z</time></trkpt><trkpt lat="44.8748433" lon="8.0235217"><ele>218.00000000000003</ele><time>2026-04-19T09:32:06.073Z</time></trkpt><trkpt lat="44.8748683" lon="8.0234267"><ele>218.0</ele><time>2026-04-19T09:32:07.074Z</time></trkpt><trkpt lat="44.8749017" lon="8.023335"><ele>217.66666666666669</ele><time>2026-04-19T09:32:08.075Z</time></trkpt><trkpt lat="44.8749433" lon="8.0232333"><ele>217.33333333333334</ele><time>2026-04-19T09:32:09.073Z</time></trkpt><trkpt lat="44.8749917" lon="8.0231317"><ele>217.0</ele><time>2026-04-19T09:32:10.084Z</time></trkpt><trkpt lat="44.8750417" lon="8.02302"><ele>216.66666666666669</ele><time>2026-04-19T09:32:11.128Z</time></trkpt><trkpt lat="44.875085" lon="8.0229067"><ele>216.33333333333334</ele><time>2026-04-19T09:32:12.078Z</time></trkpt><trkpt lat="44.8751283" lon="8.0228033"><ele>216.0</ele><time>2026-04-19T09:32:13.077Z</time></trkpt><trkpt lat="44.875165" lon="8.0227033"><ele>216.0</ele><time>2026-04-19T09:32:14.072Z</time></trkpt><trkpt lat="44.8751933" lon="8.02261"><ele>216.0</ele><time>2026-04-19T09:32:15.078Z</time></trkpt><trkpt lat="44.8752533" lon="8.022455"><ele>216.0</ele><time>2026-04-19T09:32:17.142Z</time></trkpt><trkpt lat="44.875295" lon="8.022385"><ele>216.0</ele><time>2026-04-19T09:32:18.077Z</time></trkpt><trkpt lat="44.875355" lon="8.0223167"><ele>216.0</ele><time>2026-04-19T09:32:19.076Z</time></trkpt><trkpt lat="44.875415" lon="8.022215"><ele>216.0</ele><time>2026-04-19T09:32:21.081Z</time></trkpt><trkpt lat="44.8754367" lon="8.0221267"><ele>215.20000000000002</ele><time>2026-04-19T09:32:23.125Z</time></trkpt><trkpt lat="44.875465" lon="8.0219867"><ele>214.40000000000003</ele><time>2026-04-19T09:32:25.072Z</time></trkpt><trkpt lat="44.8754983" lon="8.0218383"><ele>213.6</ele><time>2026-04-19T09:32:27.075Z</time></trkpt><trkpt lat="44.87554" lon="8.02168"><ele>212.8</ele><time>2026-04-19T09:32:29.141Z</time></trkpt><trkpt lat="44.8755633" lon="8.021595"><ele>212.0</ele><time>2026-04-19T09:32:30.083Z</time></trkpt><trkpt lat="44.8756183" lon="8.0214483"><ele>211.6</ele><time>2026-04-19T09:32:32.074Z</time></trkpt><trkpt lat="44.8756667" lon="8.0212683"><ele>211.2</ele><time>2026-04-19T09:32:34.079Z</time></trkpt><trkpt lat="44.875675" lon="8.021135"><ele>210.8</ele><time>2026-04-19T09:32:35.137Z</time></trkpt><trkpt lat="44.8756733" lon="8.0209867"><ele>210.4</ele><time>2026-04-19T09:32:36.079Z</time></trkpt><trkpt lat="44.87566" lon="8.02083"><ele>210.0</ele><time>2026-04-19T09:32:37.076Z</time></trkpt><trkpt lat="44.8756467" lon="8.0206867"><ele>209.2</ele><time>2026-04-19T09:32:38.084Z</time></trkpt><trkpt lat="44.87564" lon="8.0205683"><ele>208.4</ele><time>2026-04-19T09:32:39.078Z</time></trkpt><trkpt lat="44.8756417" lon="8.0204583"><ele>207.60000000000002</ele><time>2026-04-19T09:32:40.081Z</time></trkpt><trkpt lat="44.8756433" lon="8.0202983"><ele>206.8</ele><time>2026-04-19T09:32:42.076Z</time></trkpt><trkpt lat="44.8756133" lon="8.0201467"><ele>206.0</ele><time>2026-04-19T09:32:44.077Z</time></trkpt><trkpt lat="44.8755967" lon="8.020005"><ele>206.0</ele><time>2026-04-19T09:32:46.078Z</time></trkpt><trkpt lat="44.8756417" lon="8.0198933"><ele>206.0</ele><time>2026-04-19T09:32:48.073Z</time></trkpt><trkpt lat="44.8757417" lon="8.0197717"><ele>206.0</ele><time>2026-04-19T09:32:50.079Z</time></trkpt><trkpt lat="44.875805" lon="8.0197"><ele>206.0</ele><time>2026-04-19T09:32:51.084Z</time></trkpt><trkpt lat="44.8758733" lon="8.0196033"><ele>206.0</ele><time>2026-04-19T09:32:52.078Z</time></trkpt><trkpt lat="44.8759417" lon="8.0194817"><ele>207.0</ele><time>2026-04-19T09:32:53.138Z</time></trkpt><trkpt lat="44.8760083" lon="8.0193417"><ele>208.0</ele><time>2026-04-19T09:32:54.075Z</time></trkpt><trkpt lat="44.8760683" lon="8.01919"><ele>209.0</ele><time>2026-04-19T09:32:55.078Z</time></trkpt><trkpt lat="44.876125" lon="8.0190383"><ele>210.0</ele><time>2026-04-19T09:32:56.078Z</time></trkpt><trkpt lat="44.8761733" lon="8.0188983"><ele>210.0</ele><time>2026-04-19T09:32:57.073Z</time></trkpt><trkpt lat="44.8762133" lon="8.0187733"><ele>210.0</ele><time>2026-04-19T09:32:58.074Z</time></trkpt><trkpt lat="44.8762517" lon="8.0186483"><ele>210.0</ele><time>2026-04-19T09:32:59.143Z</time></trkpt><trkpt lat="44.87629" lon="8.0185167"><ele>210.0</ele><time>2026-04-19T09:33:00.073Z</time></trkpt><trkpt lat="44.8763317" lon="8.0183767"><ele>210.0</ele><time>2026-04-19T09:33:01.073Z</time></trkpt><trkpt lat="44.876375" lon="8.01824"><ele>208.25</ele><time>2026-04-19T09:33:02.07Z</time></trkpt><trkpt lat="44.8764267" lon="8.0181033"><ele>206.5</ele><time>2026-04-19T09:33:03.078Z</time></trkpt><trkpt lat="44.876485" lon="8.0179667"><ele>204.75</ele><time>2026-04-19T09:33:04.081Z</time></trkpt><trkpt lat="44.8765517" lon="8.017835"><ele>203.0</ele><time>2026-04-19T09:33:05.138Z</time></trkpt><trkpt lat="44.876625" lon="8.0177117"><ele>203.0</ele><time>2026-04-19T09:33:06.073Z</time></trkpt><trkpt lat="44.8767033" lon="8.0175983"><ele>203.0</ele><time>2026-04-19T09:33:07.076Z</time></trkpt><trkpt lat="44.8767917" lon="8.0175"><ele>203.0</ele><time>2026-04-19T09:33:08.077Z</time></trkpt><trkpt lat="44.8768867" lon="8.0174167"><ele>203.0</ele><time>2026-04-19T09:33:09.083Z</time></trkpt><trkpt lat="44.8769917" lon="8.01735"><ele>201.75</ele><time>2026-04-19T09:33:10.076Z</time></trkpt><trkpt lat="44.8771017" lon="8.0173033"><ele>200.5</ele><time>2026-04-19T09:33:11.126Z</time></trkpt><trkpt lat="44.8772133" lon="8.0172733"><ele>199.25</ele><time>2026-04-19T09:33:12.081Z</time></trkpt><trkpt lat="44.87733" lon="8.0172517"><ele>198.0</ele><time>2026-04-19T09:33:13.08Z</time></trkpt><trkpt lat="44.8774467" lon="8.0172283"><ele>198.0</ele><time>2026-04-19T09:33:14.072Z</time></trkpt><trkpt lat="44.8775633" lon="8.0171917"><ele>198.0</ele><time>2026-04-19T09:33:15.079Z</time></trkpt><trkpt lat="44.8776817" lon="8.017145"><ele>198.0</ele><time>2026-04-19T09:33:16.079Z</time></trkpt><trkpt lat="44.8777967" lon="8.0170867"><ele>198.0</ele><time>2026-04-19T09:33:17.133Z</time></trkpt><trkpt lat="44.877895" lon="8.0170183"><ele>197.8</ele><time>2026-04-19T09:33:18.072Z</time></trkpt><trkpt lat="44.8779817" lon="8.0169317"><ele>197.60000000000002</ele><time>2026-04-19T09:33:19.081Z</time></trkpt><trkpt lat="44.8780667" lon="8.016835"><ele>197.39999999999998</ele><time>2026-04-19T09:33:20.075Z</time></trkpt><trkpt lat="44.8781517" lon="8.0167383"><ele>197.2</ele><time>2026-04-19T09:33:21.074Z</time></trkpt><trkpt lat="44.878235" lon="8.0166483"><ele>197.0</ele><time>2026-04-19T09:33:22.079Z</time></trkpt><trkpt lat="44.878315" lon="8.016565"><ele>197.0</ele><time>2026-04-19T09:33:23.132Z</time></trkpt><trkpt lat="44.8783983" lon="8.0164867"><ele>197.0</ele><time>2026-04-19T09:33:24.076Z</time></trkpt><trkpt lat="44.8784867" lon="8.0164167"><ele>197.0</ele><time>2026-04-19T09:33:25.082Z</time></trkpt><trkpt lat="44.8785833" lon="8.01637"><ele>197.0</ele><time>2026-04-19T09:33:26.077Z</time></trkpt><trkpt lat="44.8786883" lon="8.016335"><ele>197.0</ele><time>2026-04-19T09:33:27.073Z</time></trkpt><trkpt lat="44.8788017" lon="8.0163233"><ele>197.0</ele><time>2026-04-19T09:33:28.072Z</time></trkpt><trkpt lat="44.8789167" lon="8.01632"><ele>197.0</ele><time>2026-04-19T09:33:29.145Z</time></trkpt><trkpt lat="44.8790267" lon="8.0163217"><ele>197.0</ele><time>2026-04-19T09:33:30.076Z</time></trkpt><trkpt lat="44.8791433" lon="8.0163267"><ele>197.0</ele><time>2026-04-19T09:33:31.078Z</time></trkpt><trkpt lat="44.879255" lon="8.0163233"><ele>197.6</ele><time>2026-04-19T09:33:32.077Z</time></trkpt><trkpt lat="44.8793667" lon="8.0163117"><ele>198.2</ele><time>2026-04-19T09:33:33.078Z</time></trkpt><trkpt lat="44.8794767" lon="8.0162917"><ele>198.8</ele><time>2026-04-19T09:33:34.079Z</time></trkpt><trkpt lat="44.87958" lon="8.016265"><ele>199.4</ele><time>2026-04-19T09:33:35.135Z</time></trkpt><trkpt lat="44.87968" lon="8.0162433"><ele>200.0</ele><time>2026-04-19T09:33:36.073Z</time></trkpt><trkpt lat="44.8797733" lon="8.0162233"><ele>200.0</ele><time>2026-04-19T09:33:37.078Z</time></trkpt><trkpt lat="44.8798617" lon="8.0162117"><ele>200.0</ele><time>2026-04-19T09:33:38.076Z</time></trkpt><trkpt lat="44.8799533" lon="8.0162083"><ele>200.0</ele><time>2026-04-19T09:33:39.074Z</time></trkpt><trkpt lat="44.8800417" lon="8.0162117"><ele>200.0</ele><time>2026-04-19T09:33:40.078Z</time></trkpt><trkpt lat="44.8801333" lon="8.0162183"><ele>200.0</ele><time>2026-04-19T09:33:41.129Z</time></trkpt><trkpt lat="44.8802267" lon="8.016225"><ele>200.2857142857143</ele><time>2026-04-19T09:33:42.078Z</time></trkpt><trkpt lat="44.8803083" lon="8.0162367"><ele>200.57142857142858</ele><time>2026-04-19T09:33:43.079Z</time></trkpt><trkpt lat="44.88038" lon="8.0162567"><ele>200.85714285714286</ele><time>2026-04-19T09:33:44.069Z</time></trkpt><trkpt lat="44.8804467" lon="8.01629"><ele>201.14285714285717</ele><time>2026-04-19T09:33:45.077Z</time></trkpt><trkpt lat="44.880505" lon="8.0163383"><ele>201.42857142857142</ele><time>2026-04-19T09:33:46.08Z</time></trkpt><trkpt lat="44.880555" lon="8.016395"><ele>201.71428571428572</ele><time>2026-04-19T09:33:47.125Z</time></trkpt><trkpt lat="44.8805883" lon="8.01648"><ele>202.0</ele><time>2026-04-19T09:33:48.071Z</time></trkpt><trkpt lat="44.8805767" lon="8.0165917"><ele>203.99999999999997</ele><time>2026-04-19T09:33:49.079Z</time></trkpt><trkpt lat="44.8805767" lon="8.0167017"><ele>206.0</ele><time>2026-04-19T09:33:50.079Z</time></trkpt><trkpt lat="44.8805683" lon="8.0168117"><ele>208.0</ele><time>2026-04-19T09:33:51.075Z</time></trkpt><trkpt lat="44.880545" lon="8.01693"><ele>210.0</ele><time>2026-04-19T09:33:52.079Z</time></trkpt><trkpt lat="44.8805233" lon="8.0170583"><ele>211.99999999999997</ele><time>2026-04-19T09:33:53.131Z</time></trkpt><trkpt lat="44.8805133" lon="8.0171933"><ele>214.0</ele><time>2026-04-19T09:33:54.078Z</time></trkpt><trkpt lat="44.880505" lon="8.0173317"><ele>213.99999999999997</ele><time>2026-04-19T09:33:55.081Z</time></trkpt><trkpt lat="44.8805117" lon="8.0174733"><ele>214.0</ele><time>2026-04-19T09:33:56.081Z</time></trkpt><trkpt lat="44.8805317" lon="8.0175983"><ele>214.0</ele><time>2026-04-19T09:33:57.074Z</time></trkpt><trkpt lat="44.8805567" lon="8.0177083"><ele>214.0</ele><time>2026-04-19T09:33:58.079Z</time></trkpt><trkpt lat="44.8805967" lon="8.0177983"><ele>213.99999999999997</ele><time>2026-04-19T09:33:59.142Z</time></trkpt><trkpt lat="44.8806483" lon="8.0178783"><ele>214.0</ele><time>2026-04-19T09:34:00.074Z</time></trkpt><trkpt lat="44.8807117" lon="8.0179517"><ele>215.16666666666666</ele><time>2026-04-19T09:34:01.083Z</time></trkpt><trkpt lat="44.8807683" lon="8.0180067"><ele>216.33333333333331</ele><time>2026-04-19T09:34:02.079Z</time></trkpt><trkpt lat="44.8808733" lon="8.01806"><ele>217.5</ele><time>2026-04-19T09:34:04.074Z</time></trkpt><trkpt lat="44.8809733" lon="8.01804"><ele>218.66666666666669</ele><time>2026-04-19T09:34:06.073Z</time></trkpt><trkpt lat="44.88103" lon="8.018"><ele>219.83333333333334</ele><time>2026-04-19T09:34:07.082Z</time></trkpt><trkpt lat="44.8810933" lon="8.017955"><ele>221.0</ele><time>2026-04-19T09:34:08.069Z</time></trkpt><trkpt lat="44.8811567" lon="8.01791"><ele>221.00000000000003</ele><time>2026-04-19T09:34:09.081Z</time></trkpt><trkpt lat="44.8812183" lon="8.0178667"><ele>221.0</ele><time>2026-04-19T09:34:10.081Z</time></trkpt><trkpt lat="44.88128" lon="8.0178083"><ele>221.0</ele><time>2026-04-19T09:34:11.13Z</time></trkpt><trkpt lat="44.88134" lon="8.0177467"><ele>221.0</ele><time>2026-04-19T09:34:12.076Z</time></trkpt><trkpt lat="44.881405" lon="8.017675"><ele>221.0</ele><time>2026-04-19T09:34:13.076Z</time></trkpt><trkpt lat="44.88146" lon="8.0176117"><ele>221.00000000000003</ele><time>2026-04-19T09:34:14.082Z</time></trkpt><trkpt lat="44.88152" lon="8.0175567"><ele>221.0</ele><time>2026-04-19T09:34:15.082Z</time></trkpt><trkpt lat="44.881585" lon="8.0174883"><ele>221.33333333333334</ele><time>2026-04-19T09:34:16.081Z</time></trkpt><trkpt lat="44.88164" lon="8.0174333"><ele>221.66666666666669</ele><time>2026-04-19T09:34:17.129Z</time></trkpt><trkpt lat="44.8816983" lon="8.0173883"><ele>222.0</ele><time>2026-04-19T09:34:18.076Z</time></trkpt><trkpt lat="44.8817733" lon="8.0173367"><ele>222.33333333333331</ele><time>2026-04-19T09:34:19.078Z</time></trkpt><trkpt lat="44.8818583" lon="8.0172833"><ele>222.66666666666666</ele><time>2026-04-19T09:34:20.074Z</time></trkpt><trkpt lat="44.8819517" lon="8.017235"><ele>223.0</ele><time>2026-04-19T09:34:21.082Z</time></trkpt><trkpt lat="44.8820417" lon="8.017185"><ele>221.60000000000002</ele><time>2026-04-19T09:34:22.08Z</time></trkpt><trkpt lat="44.8821367" lon="8.017135"><ele>220.20000000000002</ele><time>2026-04-19T09:34:23.13Z</time></trkpt><trkpt lat="44.8822333" lon="8.0170867"><ele>218.8</ele><time>2026-04-19T09:34:24.075Z</time></trkpt><trkpt lat="44.8823283" lon="8.0170417"><ele>217.4</ele><time>2026-04-19T09:34:25.075Z</time></trkpt><trkpt lat="44.88242" lon="8.0169917"><ele>216.0</ele><time>2026-04-19T09:34:26.073Z</time></trkpt><trkpt lat="44.8824983" lon="8.0169517"><ele>216.0</ele><time>2026-04-19T09:34:27.077Z</time></trkpt><trkpt lat="44.8825683" lon="8.01691"><ele>216.0</ele><time>2026-04-19T09:34:28.069Z</time></trkpt><trkpt lat="44.8826283" lon="8.0168783"><ele>216.0</ele><time>2026-04-19T09:34:29.142Z</time></trkpt><trkpt lat="44.882745" lon="8.0168367"><ele>216.0</ele><time>2026-04-19T09:34:31.074Z</time></trkpt><trkpt lat="44.8828183" lon="8.0168133"><ele>216.0</ele><time>2026-04-19T09:34:32.076Z</time></trkpt><trkpt lat="44.882885" lon="8.0167783"><ele>216.0</ele><time>2026-04-19T09:34:33.081Z</time></trkpt><trkpt lat="44.8829517" lon="8.0167417"><ele>215.14285714285714</ele><time>2026-04-19T09:34:34.076Z</time></trkpt><trkpt lat="44.8830133" lon="8.0167017"><ele>214.28571428571428</ele><time>2026-04-19T09:34:35.132Z</time></trkpt><trkpt lat="44.883075" lon="8.0166683"><ele>213.42857142857144</ele><time>2026-04-19T09:34:36.071Z</time></trkpt><trkpt lat="44.883135" lon="8.0166367"><ele>212.57142857142856</ele><time>2026-04-19T09:34:37.076Z</time></trkpt><trkpt lat="44.8832" lon="8.0166183"><ele>211.71428571428572</ele><time>2026-04-19T09:34:38.079Z</time></trkpt><trkpt lat="44.88327" lon="8.0166"><ele>210.85714285714286</ele><time>2026-04-19T09:34:39.074Z</time></trkpt><trkpt lat="44.88334" lon="8.0165833"><ele>210.0</ele><time>2026-04-19T09:34:40.08Z</time></trkpt><trkpt lat="44.883415" lon="8.01657"><ele>209.0</ele><time>2026-04-19T09:34:41.129Z</time></trkpt><trkpt lat="44.8834867" lon="8.0165533"><ele>208.0</ele><time>2026-04-19T09:34:42.075Z</time></trkpt><trkpt lat="44.8836067" lon="8.016515"><ele>207.0</ele><time>2026-04-19T09:34:44.078Z</time></trkpt><trkpt lat="44.8836717" lon="8.0164817"><ele>206.0</ele><time>2026-04-19T09:34:45.078Z</time></trkpt><trkpt lat="44.8837333" lon="8.0164433"><ele>205.0</ele><time>2026-04-19T09:34:46.076Z</time></trkpt><trkpt lat="44.8837983" lon="8.0164117"><ele>204.0</ele><time>2026-04-19T09:34:47.136Z</time></trkpt><trkpt lat="44.8838633" lon="8.0163883"><ele>204.0</ele><time>2026-04-19T09:34:48.074Z</time></trkpt><trkpt lat="44.8839267" lon="8.0163783"><ele>204.0</ele><time>2026-04-19T09:34:49.081Z</time></trkpt><trkpt lat="44.8840033" lon="8.016365"><ele>204.0</ele><time>2026-04-19T09:34:50.078Z</time></trkpt><trkpt lat="44.88409" lon="8.0163367"><ele>204.0</ele><time>2026-04-19T09:34:51.081Z</time></trkpt><trkpt lat="44.884175" lon="8.01631"><ele>204.0</ele><time>2026-04-19T09:34:52.085Z</time></trkpt><trkpt lat="44.8842717" lon="8.0162733"><ele>204.0</ele><time>2026-04-19T09:34:53.136Z</time></trkpt><trkpt lat="44.8843667" lon="8.0162283"><ele>202.2</ele><time>2026-04-19T09:34:54.07Z</time></trkpt><trkpt lat="44.8844583" lon="8.01618"><ele>200.39999999999998</ele><time>2026-04-19T09:34:55.074Z</time></trkpt><trkpt lat="44.88454" lon="8.01612"><ele>198.6</ele><time>2026-04-19T09:34:56.076Z</time></trkpt><trkpt lat="44.8846133" lon="8.01606"><ele>196.8</ele><time>2026-04-19T09:34:57.078Z</time></trkpt><trkpt lat="44.8846867" lon="8.01597"><ele>195.0</ele><time>2026-04-19T09:34:58.084Z</time></trkpt><trkpt lat="44.88474" lon="8.0158833"><ele>195.0</ele><time>2026-04-19T09:34:59.134Z</time></trkpt><trkpt lat="44.88478" lon="8.0157933"><ele>195.0</ele><time>2026-04-19T09:35:00.071Z</time></trkpt><trkpt lat="44.8848133" lon="8.0157133"><ele>195.0</ele><time>2026-04-19T09:35:01.079Z</time></trkpt><trkpt lat="44.8848417" lon="8.0156133"><ele>195.0</ele><time>2026-04-19T09:35:02.077Z</time></trkpt><trkpt lat="44.8848667" lon="8.0155017"><ele>195.0</ele><time>2026-04-19T09:35:03.086Z</time></trkpt><trkpt lat="44.88489" lon="8.01539"><ele>195.0</ele><time>2026-04-19T09:35:04.072Z</time></trkpt><trkpt lat="44.8849083" lon="8.01529"><ele>195.0</ele><time>2026-04-19T09:35:05.137Z</time></trkpt><trkpt lat="44.8849183" lon="8.0151967"><ele>195.0</ele><time>2026-04-19T09:35:06.07Z</time></trkpt><trkpt lat="44.8849067" lon="8.0150567"><ele>195.0</ele><time>2026-04-19T09:35:08.076Z</time></trkpt><trkpt lat="44.8849433" lon="8.0149767"><ele>195.0</ele><time>2026-04-19T09:35:12.072Z</time></trkpt><trkpt lat="44.8850133" lon="8.0149967"><ele>195.0</ele><time>2026-04-19T09:35:13.079Z</time></trkpt><trkpt lat="44.885105" lon="8.0150267"><ele>195.0</ele><time>2026-04-19T09:35:14.078Z</time></trkpt><trkpt lat="44.885205" lon="8.0150767"><ele>194.2</ele><time>2026-04-19T09:35:15.074Z</time></trkpt><trkpt lat="44.885295" lon="8.0151417"><ele>193.4</ele><time>2026-04-19T09:35:16.077Z</time></trkpt><trkpt lat="44.8853733" lon="8.0152267"><ele>192.60000000000002</ele><time>2026-04-19T09:35:17.124Z</time></trkpt><trkpt lat="44.885445" lon="8.015325"><ele>191.8</ele><time>2026-04-19T09:35:18.075Z</time></trkpt><trkpt lat="44.8854967" lon="8.0154617"><ele>191.0</ele><time>2026-04-19T09:35:19.074Z</time></trkpt><trkpt lat="44.88555" lon="8.01558"><ele>191.0</ele><time>2026-04-19T09:35:20.073Z</time></trkpt><trkpt lat="44.8856017" lon="8.0156717"><ele>191.0</ele><time>2026-04-19T09:35:21.078Z</time></trkpt><trkpt lat="44.8856633" lon="8.0157383"><ele>191.0</ele><time>2026-04-19T09:35:22.073Z</time></trkpt><trkpt lat="44.885735" lon="8.015785"><ele>191.0</ele><time>2026-04-19T09:35:23.129Z</time></trkpt><trkpt lat="44.8858167" lon="8.01582"><ele>191.0</ele><time>2026-04-19T09:35:24.07Z</time></trkpt><trkpt lat="44.88591" lon="8.015845"><ele>191.0</ele><time>2026-04-19T09:35:25.076Z</time></trkpt><trkpt lat="44.886005" lon="8.0158683"><ele>190.60000000000002</ele><time>2026-04-19T09:35:26.074Z</time></trkpt><trkpt lat="44.8861017" lon="8.0158917"><ele>190.2</ele><time>2026-04-19T09:35:27.075Z</time></trkpt><trkpt lat="44.8861983" lon="8.0159183"><ele>189.8</ele><time>2026-04-19T09:35:28.076Z</time></trkpt><trkpt lat="44.886295" lon="8.015945"><ele>189.39999999999998</ele><time>2026-04-19T09:35:29.138Z</time></trkpt><trkpt lat="44.8863983" lon="8.0159717"><ele>189.0</ele><time>2026-04-19T09:35:30.072Z</time></trkpt><trkpt lat="44.8865067" lon="8.015995"><ele>189.0</ele><time>2026-04-19T09:35:31.078Z</time></trkpt><trkpt lat="44.8866133" lon="8.016015"><ele>189.0</ele><time>2026-04-19T09:35:32.075Z</time></trkpt><trkpt lat="44.88671" lon="8.0160317"><ele>189.0</ele><time>2026-04-19T09:35:33.083Z</time></trkpt><trkpt lat="44.88679" lon="8.0160433"><ele>189.0</ele><time>2026-04-19T09:35:34.076Z</time></trkpt><trkpt lat="44.8868983" lon="8.01608"><ele>189.0</ele><time>2026-04-19T09:35:36.067Z</time></trkpt><trkpt lat="44.886935" lon="8.0161583"><ele>189.2</ele><time>2026-04-19T09:35:38.069Z</time></trkpt><trkpt lat="44.8869317" lon="8.0162617"><ele>189.39999999999998</ele><time>2026-04-19T09:35:39.069Z</time></trkpt><trkpt lat="44.8869233" lon="8.0164033"><ele>189.6</ele><time>2026-04-19T09:35:40.072Z</time></trkpt><trkpt lat="44.88691" lon="8.0165783"><ele>189.8</ele><time>2026-04-19T09:35:41.127Z</time></trkpt><trkpt lat="44.8868983" lon="8.01678"><ele>190.0</ele><time>2026-04-19T09:35:42.075Z</time></trkpt><trkpt lat="44.88688" lon="8.0170183"><ele>190.0</ele><time>2026-04-19T09:35:43.078Z</time></trkpt><trkpt lat="44.8868583" lon="8.01727"><ele>190.0</ele><time>2026-04-19T09:35:44.078Z</time></trkpt><trkpt lat="44.88684" lon="8.0175267"><ele>190.0</ele><time>2026-04-19T09:35:45.072Z</time></trkpt><trkpt lat="44.886825" lon="8.0177833"><ele>192.0</ele><time>2026-04-19T09:35:46.073Z</time></trkpt><trkpt lat="44.886815" lon="8.01804"><ele>194.0</ele><time>2026-04-19T09:35:47.127Z</time></trkpt><trkpt lat="44.886815" lon="8.0182933"><ele>196.0</ele><time>2026-04-19T09:35:48.073Z</time></trkpt><trkpt lat="44.8868183" lon="8.0185267"><ele>197.0</ele><time>2026-04-19T09:35:49.076Z</time></trkpt><trkpt lat="44.8868217" lon="8.0187383"><ele>198.0</ele><time>2026-04-19T09:35:50.076Z</time></trkpt><trkpt lat="44.8868217" lon="8.01892"><ele>199.0</ele><time>2026-04-19T09:35:51.075Z</time></trkpt><trkpt lat="44.8868083" lon="8.019075"><ele>200.0</ele><time>2026-04-19T09:35:52.078Z</time></trkpt><trkpt lat="44.8867733" lon="8.0192167"><ele>198.25</ele><time>2026-04-19T09:35:53.126Z</time></trkpt><trkpt lat="44.8867283" lon="8.0193783"><ele>196.5</ele><time>2026-04-19T09:35:54.074Z</time></trkpt><trkpt lat="44.8866817" lon="8.0195683"><ele>194.75</ele><time>2026-04-19T09:35:55.073Z</time></trkpt><trkpt lat="44.886635" lon="8.019755"><ele>193.0</ele><time>2026-04-19T09:35:56.073Z</time></trkpt><trkpt lat="44.886595" lon="8.01993"><ele>193.0</ele><time>2026-04-19T09:35:57.075Z</time></trkpt><trkpt lat="44.8865617" lon="8.0200783"><ele>193.0</ele><time>2026-04-19T09:35:58.075Z</time></trkpt><trkpt lat="44.88653" lon="8.020195"><ele>193.0</ele><time>2026-04-19T09:35:59.135Z</time></trkpt><trkpt lat="44.886515" lon="8.0203217"><ele>193.0</ele><time>2026-04-19T09:36:01.078Z</time></trkpt><trkpt lat="44.8865883" lon="8.020405"><ele>193.0</ele><time>2026-04-19T09:36:03.079Z</time></trkpt><trkpt lat="44.88667" lon="8.020445"><ele>193.0</ele><time>2026-04-19T09:36:04.075Z</time></trkpt><trkpt lat="44.88676" lon="8.0205017"><ele>193.0</ele><time>2026-04-19T09:36:05.134Z</time></trkpt><trkpt lat="44.8868517" lon="8.02058"><ele>193.0</ele><time>2026-04-19T09:36:06.074Z</time></trkpt><trkpt lat="44.88694" lon="8.0206717"><ele>193.0</ele><time>2026-04-19T09:36:07.074Z</time></trkpt><trkpt lat="44.887015" lon="8.020765"><ele>193.0</ele><time>2026-04-19T09:36:08.073Z</time></trkpt><trkpt lat="44.8870783" lon="8.0208683"><ele>197.0</ele><time>2026-04-19T09:36:09.076Z</time></trkpt><trkpt lat="44.887135" lon="8.020985"><ele>201.0</ele><time>2026-04-19T09:36:10.079Z</time></trkpt><trkpt lat="44.8871883" lon="8.02111"><ele>205.0</ele><time>2026-04-19T09:36:11.143Z</time></trkpt><trkpt lat="44.8872383" lon="8.0212233"><ele>209.0</ele><time>2026-04-19T09:36:12.072Z</time></trkpt><trkpt lat="44.8872867" lon="8.0213233"><ele>213.0</ele><time>2026-04-19T09:36:13.075Z</time></trkpt><trkpt lat="44.8873467" lon="8.02147"><ele>213.0</ele><time>2026-04-19T09:36:15.08Z</time></trkpt><trkpt lat="44.88741" lon="8.0215867"><ele>213.0</ele><time>2026-04-19T09:36:17.134Z</time></trkpt><trkpt lat="44.8874417" lon="8.0216967"><ele>213.0</ele><time>2026-04-19T09:36:19.075Z</time></trkpt><trkpt lat="44.8873867" lon="8.0218333"><ele>213.0</ele><time>2026-04-19T09:36:21.077Z</time></trkpt><trkpt lat="44.8873417" lon="8.02191"><ele>213.0</ele><time>2026-04-19T09:36:22.071Z</time></trkpt><trkpt lat="44.8873167" lon="8.022"><ele>213.0</ele><time>2026-04-19T09:36:23.136Z</time></trkpt><trkpt lat="44.88727" lon="8.0221417"><ele>214.66666666666666</ele><time>2026-04-19T09:36:25.07Z</time></trkpt><trkpt lat="44.88724" lon="8.022225"><ele>216.33333333333331</ele><time>2026-04-19T09:36:26.074Z</time></trkpt><trkpt lat="44.8872" lon="8.0223133"><ele>218.0</ele><time>2026-04-19T09:36:27.08Z</time></trkpt><trkpt lat="44.8871717" lon="8.0224017"><ele>219.66666666666666</ele><time>2026-04-19T09:36:28.078Z</time></trkpt><trkpt lat="44.8871567" lon="8.0225017"><ele>221.33333333333331</ele><time>2026-04-19T09:36:29.142Z</time></trkpt><trkpt lat="44.8871617" lon="8.0226167"><ele>223.0</ele><time>2026-04-19T09:36:30.07Z</time></trkpt><trkpt lat="44.8871683" lon="8.0227433"><ele>224.66666666666666</ele><time>2026-04-19T09:36:31.077Z</time></trkpt><trkpt lat="44.8871817" lon="8.0228583"><ele>226.33333333333331</ele><time>2026-04-19T09:36:32.078Z</time></trkpt><trkpt lat="44.8872083" lon="8.022975"><ele>228.0</ele><time>2026-04-19T09:36:33.078Z</time></trkpt><trkpt lat="44.8872367" lon="8.023065"><ele>229.66666666666669</ele><time>2026-04-19T09:36:34.076Z</time></trkpt><trkpt lat="44.8872933" lon="8.0231267"><ele>231.33333333333334</ele><time>2026-04-19T09:36:36.072Z</time></trkpt><trkpt lat="44.887365" lon="8.0230583"><ele>233.0</ele><time>2026-04-19T09:36:38.07Z</time></trkpt><trkpt lat="44.8874283" lon="8.022935"><ele>233.00000000000003</ele><time>2026-04-19T09:36:40.074Z</time></trkpt><trkpt lat="44.8874567" lon="8.02285"><ele>233.0</ele><time>2026-04-19T09:36:41.136Z</time></trkpt><trkpt lat="44.8874867" lon="8.022735"><ele>233.0</ele><time>2026-04-19T09:36:42.071Z</time></trkpt><trkpt lat="44.88753" lon="8.0226017"><ele>233.0</ele><time>2026-04-19T09:36:43.07Z</time></trkpt><trkpt lat="44.8875733" lon="8.0224883"><ele>233.00000000000003</ele><time>2026-04-19T09:36:44.076Z</time></trkpt><trkpt lat="44.8876167" lon="8.022395"><ele>233.0</ele><time>2026-04-19T09:36:45.073Z</time></trkpt><trkpt lat="44.8876817" lon="8.02229"><ele>233.60000000000002</ele><time>2026-04-19T09:36:47.135Z</time></trkpt><trkpt lat="44.8877333" lon="8.0223433"><ele>234.20000000000002</ele><time>2026-04-19T09:36:55.073Z</time></trkpt><trkpt lat="44.8878367" lon="8.0224217"><ele>234.8</ele><time>2026-04-19T09:36:57.07Z</time></trkpt><trkpt lat="44.8879417" lon="8.022465"><ele>235.4</ele><time>2026-04-19T09:36:59.136Z</time></trkpt><trkpt lat="44.8880033" lon="8.02244"><ele>236.0</ele><time>2026-04-19T09:37:00.075Z</time></trkpt><trkpt lat="44.888115" lon="8.0223783"><ele>236.00000000000003</ele><time>2026-04-19T09:37:02.078Z</time></trkpt><trkpt lat="44.8881867" lon="8.022365"><ele>236.0</ele><time>2026-04-19T09:37:03.068Z</time></trkpt><trkpt lat="44.88827" lon="8.02237"><ele>236.0</ele><time>2026-04-19T09:37:04.075Z</time></trkpt><trkpt lat="44.8883367" lon="8.0223667"><ele>236.0</ele><time>2026-04-19T09:37:05.138Z</time></trkpt><trkpt lat="44.8884367" lon="8.0223"><ele>236.00000000000003</ele><time>2026-04-19T09:37:07.081Z</time></trkpt><trkpt lat="44.8884683" lon="8.022215"><ele>236.0</ele><time>2026-04-19T09:37:08.075Z</time></trkpt><trkpt lat="44.8884967" lon="8.0221083"><ele>233.50000000000003</ele><time>2026-04-19T09:37:09.079Z</time></trkpt><trkpt lat="44.8885267" lon="8.021985"><ele>231.0</ele><time>2026-04-19T09:37:10.076Z</time></trkpt><trkpt lat="44.88856" lon="8.0218583"><ele>228.5</ele><time>2026-04-19T09:37:11.137Z</time></trkpt><trkpt lat="44.8885933" lon="8.0217433"><ele>226.0</ele><time>2026-04-19T09:37:12.07Z</time></trkpt><trkpt lat="44.8886183" lon="8.0216467"><ele>223.50000000000003</ele><time>2026-04-19T09:37:13.073Z</time></trkpt><trkpt lat="44.8886417" lon="8.0215383"><ele>221.0</ele><time>2026-04-19T09:37:14.074Z</time></trkpt><trkpt lat="44.8886633" lon="8.0214133"><ele>220.83333333333334</ele><time>2026-04-19T09:37:15.082Z</time></trkpt><trkpt lat="44.8886817" lon="8.021285"><ele>220.66666666666669</ele><time>2026-04-19T09:37:16.074Z</time></trkpt><trkpt lat="44.8887" lon="8.0211817"><ele>220.5</ele><time>2026-04-19T09:37:17.145Z</time></trkpt><trkpt lat="44.8887067" lon="8.02108"><ele>220.33333333333331</ele><time>2026-04-19T09:37:19.07Z</time></trkpt><trkpt lat="44.8886533" lon="8.0210233"><ele>220.16666666666666</ele><time>2026-04-19T09:37:21.074Z</time></trkpt><trkpt lat="44.8885617" lon="8.0209867"><ele>220.0</ele><time>2026-04-19T09:37:23.135Z</time></trkpt><trkpt lat="44.888495" lon="8.02089"><ele>220.8</ele><time>2026-04-19T09:37:25.075Z</time></trkpt><trkpt lat="44.8884617" lon="8.0207567"><ele>221.6</ele><time>2026-04-19T09:37:27.081Z</time></trkpt><trkpt lat="44.8884133" lon="8.0206267"><ele>222.39999999999998</ele><time>2026-04-19T09:37:29.141Z</time></trkpt><trkpt lat="44.8883867" lon="8.0205167"><ele>223.2</ele><time>2026-04-19T09:37:31.076Z</time></trkpt><trkpt lat="44.88838" lon="8.02034"><ele>224.0</ele><time>2026-04-19T09:37:33.076Z</time></trkpt><trkpt lat="44.8883867" lon="8.020185"><ele>224.0</ele><time>2026-04-19T09:37:34.071Z</time></trkpt><trkpt lat="44.8883917" lon="8.0200233"><ele>223.99999999999997</ele><time>2026-04-19T09:37:35.133Z</time></trkpt><trkpt lat="44.8883817" lon="8.01988"><ele>223.99999999999997</ele><time>2026-04-19T09:37:36.073Z</time></trkpt><trkpt lat="44.8883733" lon="8.0197367"><ele>224.0</ele><time>2026-04-19T09:37:37.076Z</time></trkpt><trkpt lat="44.8883667" lon="8.0196067"><ele>224.0</ele><time>2026-04-19T09:37:38.082Z</time></trkpt><trkpt lat="44.88837" lon="8.0194833"><ele>223.50000000000003</ele><time>2026-04-19T09:37:39.079Z</time></trkpt><trkpt lat="44.8883883" lon="8.01937"><ele>223.0</ele><time>2026-04-19T09:37:40.074Z</time></trkpt><trkpt lat="44.8884183" lon="8.0192533"><ele>222.5</ele><time>2026-04-19T09:37:41.131Z</time></trkpt><trkpt lat="44.8884583" lon="8.019135"><ele>222.0</ele><time>2026-04-19T09:37:42.074Z</time></trkpt><trkpt lat="44.8885117" lon="8.0190217"><ele>221.50000000000003</ele><time>2026-04-19T09:37:43.076Z</time></trkpt><trkpt lat="44.8885683" lon="8.0189333"><ele>221.0</ele><time>2026-04-19T09:37:44.074Z</time></trkpt><trkpt lat="44.888645" lon="8.0188817"><ele>224.60000000000002</ele><time>2026-04-19T09:37:46.077Z</time></trkpt><trkpt lat="44.8887433" lon="8.0188567"><ele>228.20000000000002</ele><time>2026-04-19T09:37:51.074Z</time></trkpt><trkpt lat="44.8888583" lon="8.01884"><ele>231.79999999999998</ele><time>2026-04-19T09:37:53.139Z</time></trkpt><trkpt lat="44.8889283" lon="8.01883"><ele>235.39999999999998</ele><time>2026-04-19T09:37:54.086Z</time></trkpt><trkpt lat="44.8890467" lon="8.01881"><ele>239.0</ele><time>2026-04-19T09:37:56.078Z</time></trkpt><trkpt lat="44.8891683" lon="8.0188367"><ele>239.00000000000003</ele><time>2026-04-19T09:37:58.081Z</time></trkpt><trkpt lat="44.88924" lon="8.018875"><ele>239.0</ele><time>2026-04-19T09:37:59.135Z</time></trkpt><trkpt lat="44.8893217" lon="8.0189167"><ele>239.0</ele><time>2026-04-19T09:38:00.072Z</time></trkpt><trkpt lat="44.8894017" lon="8.0189617"><ele>239.0</ele><time>2026-04-19T09:38:01.078Z</time></trkpt><trkpt lat="44.88948" lon="8.0190283"><ele>239.00000000000003</ele><time>2026-04-19T09:38:02.075Z</time></trkpt><trkpt lat="44.8895567" lon="8.0191"><ele>239.0</ele><time>2026-04-19T09:38:03.075Z</time></trkpt><trkpt lat="44.8896333" lon="8.0191667"><ele>235.6</ele><time>2026-04-19T09:38:04.072Z</time></trkpt><trkpt lat="44.8897167" lon="8.0192467"><ele>232.2</ele><time>2026-04-19T09:38:05.133Z</time></trkpt><trkpt lat="44.8898" lon="8.019305"><ele>228.79999999999998</ele><time>2026-04-19T09:38:06.073Z</time></trkpt><trkpt lat="44.8898967" lon="8.01935"><ele>225.39999999999998</ele><time>2026-04-19T09:38:07.069Z</time></trkpt><trkpt lat="44.8899967" lon="8.0193883"><ele>222.0</ele><time>2026-04-19T09:38:08.08Z</time></trkpt><trkpt lat="44.8901033" lon="8.0193983"><ele>218.8</ele><time>2026-04-19T09:38:09.075Z</time></trkpt><trkpt lat="44.8902117" lon="8.0193967"><ele>215.6</ele><time>2026-04-19T09:38:10.073Z</time></trkpt><trkpt lat="44.8903017" lon="8.0193883"><ele>212.4</ele><time>2026-04-19T09:38:11.14Z</time></trkpt><trkpt lat="44.8903733" lon="8.01938"><ele>209.20000000000002</ele><time>2026-04-19T09:38:12.07Z</time></trkpt><trkpt lat="44.890475" lon="8.0193483"><ele>206.0</ele><time>2026-04-19T09:38:14.076Z</time></trkpt><trkpt lat="44.890495" lon="8.01924"><ele>205.99999999999997</ele><time>2026-04-19T09:38:18.073Z</time></trkpt><trkpt lat="44.8904483" lon="8.01916"><ele>206.0</ele><time>2026-04-19T09:38:20.072Z</time></trkpt><trkpt lat="44.8904117" lon="8.0190633"><ele>206.0</ele><time>2026-04-19T09:38:22.076Z</time></trkpt><trkpt lat="44.8903883" lon="8.01894"><ele>206.0</ele><time>2026-04-19T09:38:25.077Z</time></trkpt><trkpt lat="44.8903683" lon="8.0188483"><ele>206.0</ele><time>2026-04-19T09:38:27.074Z</time></trkpt><trkpt lat="44.890325" lon="8.01876"><ele>205.99999999999997</ele><time>2026-04-19T09:38:30.068Z</time></trkpt><trkpt lat="44.8902917" lon="8.0186833"><ele>206.0</ele><time>2026-04-19T09:38:32.08Z</time></trkpt><trkpt lat="44.890285" lon="8.018585"><ele>206.20000000000002</ele><time>2026-04-19T09:38:34.077Z</time></trkpt><trkpt lat="44.8902833" lon="8.0184367"><ele>206.4</ele><time>2026-04-19T09:38:36.076Z</time></trkpt><trkpt lat="44.890275" lon="8.01829"><ele>206.6</ele><time>2026-04-19T09:38:38.078Z</time></trkpt><trkpt lat="44.8902883" lon="8.0181417"><ele>206.8</ele><time>2026-04-19T09:38:41.134Z</time></trkpt><trkpt lat="44.8902917" lon="8.0180083"><ele>207.0</ele><time>2026-04-19T09:38:43.08Z</time></trkpt><trkpt lat="44.8902767" lon="8.0178667"><ele>207.0</ele><time>2026-04-19T09:38:45.084Z</time></trkpt><trkpt lat="44.8902617" lon="8.0177167"><ele>207.0</ele><time>2026-04-19T09:38:47.136Z</time></trkpt><trkpt lat="44.8902183" lon="8.0175267"><ele>207.0</ele><time>2026-04-19T09:38:49.082Z</time></trkpt><trkpt lat="44.8902017" lon="8.0174233"><ele>207.0</ele><time>2026-04-19T09:38:50.077Z</time></trkpt><trkpt lat="44.8901867" lon="8.017335"><ele>207.0</ele><time>2026-04-19T09:38:51.076Z</time></trkpt><trkpt lat="44.8901867" lon="8.017175"><ele>209.0</ele><time>2026-04-19T09:38:53.136Z</time></trkpt><trkpt lat="44.890225" lon="8.0170233"><ele>211.0</ele><time>2026-04-19T09:38:55.073Z</time></trkpt><trkpt lat="44.8902517" lon="8.0169383"><ele>213.0</ele><time>2026-04-19T09:38:56.069Z</time></trkpt><trkpt lat="44.8902767" lon="8.0168017"><ele>215.0</ele><time>2026-04-19T09:38:58.076Z</time></trkpt><trkpt lat="44.8903233" lon="8.016655"><ele>217.0</ele><time>2026-04-19T09:39:00.067Z</time></trkpt><trkpt lat="44.89037" lon="8.0165733"><ele>218.8</ele><time>2026-04-19T09:39:01.069Z</time></trkpt><trkpt lat="44.89045" lon="8.016455"><ele>220.6</ele><time>2026-04-19T09:39:03.074Z</time></trkpt><trkpt lat="44.8905533" lon="8.01638"><ele>222.40000000000003</ele><time>2026-04-19T09:39:05.137Z</time></trkpt><trkpt lat="44.8906583" lon="8.0162617"><ele>224.20000000000002</ele><time>2026-04-19T09:39:07.074Z</time></trkpt><trkpt lat="44.8907017" lon="8.0161933"><ele>226.0</ele><time>2026-04-19T09:39:08.073Z</time></trkpt><trkpt lat="44.890745" lon="8.0161133"><ele>225.99999999999997</ele><time>2026-04-19T09:39:09.077Z</time></trkpt><trkpt lat="44.8907917" lon="8.016015"><ele>226.0</ele><time>2026-04-19T09:39:10.076Z</time></trkpt><trkpt lat="44.8908317" lon="8.0159217"><ele>226.0</ele><time>2026-04-19T09:39:11.136Z</time></trkpt><trkpt lat="44.8908817" lon="8.015815"><ele>226.0</ele><time>2026-04-19T09:39:12.073Z</time></trkpt><trkpt lat="44.8909217" lon="8.0157167"><ele>225.99999999999997</ele><time>2026-04-19T09:39:13.079Z</time></trkpt><trkpt lat="44.89094" lon="8.015615"><ele>226.0</ele><time>2026-04-19T09:39:14.074Z</time></trkpt><trkpt lat="44.8909483" lon="8.0155233"><ele>225.66666666666666</ele><time>2026-04-19T09:39:15.079Z</time></trkpt><trkpt lat="44.890915" lon="8.0153717"><ele>225.33333333333331</ele><time>2026-04-19T09:39:17.138Z</time></trkpt><trkpt lat="44.89087" lon="8.0152817"><ele>225.0</ele><time>2026-04-19T09:39:19.08Z</time></trkpt><trkpt lat="44.89084" lon="8.0152"><ele>224.66666666666669</ele><time>2026-04-19T09:39:22.075Z</time></trkpt><trkpt lat="44.8908533" lon="8.01509"><ele>224.33333333333334</ele><time>2026-04-19T09:39:31.074Z</time></trkpt><trkpt lat="44.890865" lon="8.01499"><ele>224.0</ele><time>2026-04-19T09:39:33.071Z</time></trkpt><trkpt lat="44.8908633" lon="8.014865"><ele>222.2</ele><time>2026-04-19T09:39:35.137Z</time></trkpt><trkpt lat="44.8908583" lon="8.0147267"><ele>220.39999999999998</ele><time>2026-04-19T09:39:37.084Z</time></trkpt><trkpt lat="44.89085" lon="8.01457"><ele>218.6</ele><time>2026-04-19T09:39:39.079Z</time></trkpt><trkpt lat="44.890835" lon="8.01441"><ele>216.8</ele><time>2026-04-19T09:39:41.136Z</time></trkpt><trkpt lat="44.89083" lon="8.0142717"><ele>215.0</ele><time>2026-04-19T09:39:43.081Z</time></trkpt><trkpt lat="44.8908383" lon="8.014165"><ele>212.2</ele><time>2026-04-19T09:39:45.074Z</time></trkpt><trkpt lat="44.8908733" lon="8.0140467"><ele>209.4</ele><time>2026-04-19T09:39:48.072Z</time></trkpt><trkpt lat="44.8908983" lon="8.0139117"><ele>206.60000000000002</ele><time>2026-04-19T09:39:50.072Z</time></trkpt><trkpt lat="44.8909333" lon="8.0137567"><ele>203.8</ele><time>2026-04-19T09:39:52.078Z</time></trkpt><trkpt lat="44.8909583" lon="8.0135783"><ele>201.0</ele><time>2026-04-19T09:39:54.075Z</time></trkpt><trkpt lat="44.8909683" lon="8.0134183"><ele>201.0</ele><time>2026-04-19T09:39:56.07Z</time></trkpt><trkpt lat="44.8909533" lon="8.0133067"><ele>201.0</ele><time>2026-04-19T09:39:58.074Z</time></trkpt><trkpt lat="44.8909033" lon="8.0132333"><ele>201.0</ele><time>2026-04-19T09:40:00.069Z</time></trkpt><trkpt lat="44.8908117" lon="8.0131933"><ele>201.0</ele><time>2026-04-19T09:40:03.075Z</time></trkpt><trkpt lat="44.8907117" lon="8.0132483"><ele>201.0</ele><time>2026-04-19T09:40:05.127Z</time></trkpt><trkpt lat="44.8906483" lon="8.0132967"><ele>201.0</ele><time>2026-04-19T09:40:06.072Z</time></trkpt><trkpt lat="44.8905783" lon="8.0133467"><ele>201.0</ele><time>2026-04-19T09:40:07.086Z</time></trkpt><trkpt lat="44.890495" lon="8.0133933"><ele>201.0</ele><time>2026-04-19T09:40:08.081Z</time></trkpt><trkpt lat="44.8904067" lon="8.013435"><ele>201.0</ele><time>2026-04-19T09:40:09.08Z</time></trkpt><trkpt lat="44.890315" lon="8.013485"><ele>201.0</ele><time>2026-04-19T09:40:10.08Z</time></trkpt><trkpt lat="44.8902317" lon="8.01353"><ele>201.0</ele><time>2026-04-19T09:40:11.14Z</time></trkpt><trkpt lat="44.8901533" lon="8.01357"><ele>201.0</ele><time>2026-04-19T09:40:12.07Z</time></trkpt><trkpt lat="44.8900917" lon="8.0135917"><ele>201.0</ele><time>2026-04-19T09:40:13.078Z</time></trkpt><trkpt lat="44.8900283" lon="8.0136"><ele>201.0</ele><time>2026-04-19T09:40:14.069Z</time></trkpt><trkpt lat="44.8899633" lon="8.0135833"><ele>201.0</ele><time>2026-04-19T09:40:15.075Z</time></trkpt><trkpt lat="44.8899017" lon="8.0135367"><ele>201.0</ele><time>2026-04-19T09:40:16.068Z</time></trkpt><trkpt lat="44.8898433" lon="8.0134867"><ele>201.0</ele><time>2026-04-19T09:40:17.134Z</time></trkpt><trkpt lat="44.8898067" lon="8.0133967"><ele>201.0</ele><time>2026-04-19T09:40:19.078Z</time></trkpt><trkpt lat="44.889855" lon="8.0133017"><ele>198.33333333333334</ele><time>2026-04-19T09:40:21.081Z</time></trkpt><trkpt lat="44.8899283" lon="8.0131733"><ele>195.66666666666666</ele><time>2026-04-19T09:40:23.133Z</time></trkpt><trkpt lat="44.889975" lon="8.0130967"><ele>193.0</ele><time>2026-04-19T09:40:24.077Z</time></trkpt><trkpt lat="44.8900217" lon="8.0130183"><ele>190.33333333333331</ele><time>2026-04-19T09:40:25.078Z</time></trkpt><trkpt lat="44.8900733" lon="8.0129383"><ele>187.66666666666666</ele><time>2026-04-19T09:40:26.078Z</time></trkpt><trkpt lat="44.890125" lon="8.01286"><ele>185.0</ele><time>2026-04-19T09:40:27.077Z</time></trkpt><trkpt lat="44.89018" lon="8.01278"><ele>185.0</ele><time>2026-04-19T09:40:28.078Z</time></trkpt><trkpt lat="44.8902383" lon="8.012705"><ele>185.0</ele><time>2026-04-19T09:40:29.124Z</time></trkpt><trkpt lat="44.8902917" lon="8.012635"><ele>185.0</ele><time>2026-04-19T09:40:30.076Z</time></trkpt><trkpt lat="44.89034" lon="8.0125717"><ele>185.0</ele><time>2026-04-19T09:40:31.075Z</time></trkpt><trkpt lat="44.8904083" lon="8.0124217"><ele>185.0</ele><time>2026-04-19T09:40:33.079Z</time></trkpt><trkpt lat="44.8904467" lon="8.012325"><ele>185.0</ele><time>2026-04-19T09:40:34.072Z</time></trkpt><trkpt lat="44.89049" lon="8.0122233"><ele>184.0</ele><time>2026-04-19T09:40:35.134Z</time></trkpt><trkpt lat="44.8905367" lon="8.0121183"><ele>183.0</ele><time>2026-04-19T09:40:36.073Z</time></trkpt><trkpt lat="44.89059" lon="8.0120083"><ele>182.0</ele><time>2026-04-19T09:40:37.072Z</time></trkpt><trkpt lat="44.890645" lon="8.0118917"><ele>181.0</ele><time>2026-04-19T09:40:38.074Z</time></trkpt><trkpt lat="44.8906967" lon="8.011775"><ele>180.0</ele><time>2026-04-19T09:40:39.075Z</time></trkpt><trkpt lat="44.8907483" lon="8.0116567"><ele>179.4</ele><time>2026-04-19T09:40:40.076Z</time></trkpt><trkpt lat="44.890795" lon="8.0115383"><ele>178.8</ele><time>2026-04-19T09:40:41.136Z</time></trkpt><trkpt lat="44.8908483" lon="8.0114167"><ele>178.2</ele><time>2026-04-19T09:40:42.071Z</time></trkpt><trkpt lat="44.8909033" lon="8.01129"><ele>177.6</ele><time>2026-04-19T09:40:43.078Z</time></trkpt><trkpt lat="44.89096" lon="8.011165"><ele>177.0</ele><time>2026-04-19T09:40:44.075Z</time></trkpt><trkpt lat="44.891015" lon="8.0110383"><ele>176.8</ele><time>2026-04-19T09:40:45.081Z</time></trkpt><trkpt lat="44.89107" lon="8.0109117"><ele>176.6</ele><time>2026-04-19T09:40:46.07Z</time></trkpt><trkpt lat="44.8911233" lon="8.0107867"><ele>176.4</ele><time>2026-04-19T09:40:47.137Z</time></trkpt><trkpt lat="44.891175" lon="8.01066"><ele>176.20000000000002</ele><time>2026-04-19T09:40:48.074Z</time></trkpt><trkpt lat="44.8912283" lon="8.0105317"><ele>176.0</ele><time>2026-04-19T09:40:49.07Z</time></trkpt><trkpt lat="44.89128" lon="8.010405"><ele>176.0</ele><time>2026-04-19T09:40:50.076Z</time></trkpt><trkpt lat="44.8913333" lon="8.0102783"><ele>176.0</ele><time>2026-04-19T09:40:51.077Z</time></trkpt><trkpt lat="44.891385" lon="8.0101567"><ele>176.0</ele><time>2026-04-19T09:40:52.071Z</time></trkpt><trkpt lat="44.891435" lon="8.010035"><ele>176.0</ele><time>2026-04-19T09:40:53.134Z</time></trkpt><trkpt lat="44.8914833" lon="8.009915"><ele>176.0</ele><time>2026-04-19T09:40:54.073Z</time></trkpt><trkpt lat="44.89153" lon="8.0098033"><ele>176.16666666666666</ele><time>2026-04-19T09:40:55.074Z</time></trkpt><trkpt lat="44.891575" lon="8.0097017"><ele>176.33333333333331</ele><time>2026-04-19T09:40:56.076Z</time></trkpt><trkpt lat="44.891615" lon="8.0096133"><ele>176.5</ele><time>2026-04-19T09:40:57.074Z</time></trkpt><trkpt lat="44.891665" lon="8.0095117"><ele>176.66666666666666</ele><time>2026-04-19T09:40:59.146Z</time></trkpt><trkpt lat="44.8917017" lon="8.0094317"><ele>176.83333333333334</ele><time>2026-04-19T09:41:12.071Z</time></trkpt><trkpt lat="44.8917433" lon="8.0093317"><ele>177.0</ele><time>2026-04-19T09:41:14.067Z</time></trkpt><trkpt lat="44.8917567" lon="8.00916"><ele>177.83333333333334</ele><time>2026-04-19T09:41:16.077Z</time></trkpt><trkpt lat="44.8917517" lon="8.0090567"><ele>178.66666666666666</ele><time>2026-04-19T09:41:17.139Z</time></trkpt><trkpt lat="44.89175" lon="8.00895"><ele>179.5</ele><time>2026-04-19T09:41:18.077Z</time></trkpt><trkpt lat="44.8917533" lon="8.0088317"><ele>180.33333333333331</ele><time>2026-04-19T09:41:19.072Z</time></trkpt><trkpt lat="44.8917617" lon="8.0087083"><ele>181.16666666666666</ele><time>2026-04-19T09:41:20.077Z</time></trkpt><trkpt lat="44.891775" lon="8.0085817"><ele>182.0</ele><time>2026-04-19T09:41:21.071Z</time></trkpt><trkpt lat="44.8917933" lon="8.008455"><ele>182.0</ele><time>2026-04-19T09:41:22.078Z</time></trkpt><trkpt lat="44.8918117" lon="8.0083267"><ele>182.0</ele><time>2026-04-19T09:41:23.129Z</time></trkpt><trkpt lat="44.8918317" lon="8.0082017"><ele>182.0</ele><time>2026-04-19T09:41:24.072Z</time></trkpt><trkpt lat="44.8918517" lon="8.0080767"><ele>182.0</ele><time>2026-04-19T09:41:25.074Z</time></trkpt><trkpt lat="44.8918717" lon="8.0079567"><ele>182.0</ele><time>2026-04-19T09:41:26.074Z</time></trkpt><trkpt lat="44.8918883" lon="8.0078367"><ele>182.0</ele><time>2026-04-19T09:41:27.081Z</time></trkpt><trkpt lat="44.8919017" lon="8.007715"><ele>182.66666666666666</ele><time>2026-04-19T09:41:28.076Z</time></trkpt><trkpt lat="44.8919167" lon="8.00759"><ele>183.33333333333331</ele><time>2026-04-19T09:41:29.144Z</time></trkpt><trkpt lat="44.8919317" lon="8.0074617"><ele>184.0</ele><time>2026-04-19T09:41:30.078Z</time></trkpt><trkpt lat="44.8919467" lon="8.0073367"><ele>184.66666666666666</ele><time>2026-04-19T09:41:31.075Z</time></trkpt><trkpt lat="44.89196" lon="8.00723"><ele>185.33333333333334</ele><time>2026-04-19T09:41:32.074Z</time></trkpt><trkpt lat="44.89197" lon="8.0071083"><ele>186.0</ele><time>2026-04-19T09:41:34.075Z</time></trkpt><trkpt lat="44.8918883" lon="8.006995"><ele>186.0</ele><time>2026-04-19T09:41:39.076Z</time></trkpt><trkpt lat="44.8918117" lon="8.0069333"><ele>186.0</ele><time>2026-04-19T09:41:40.075Z</time></trkpt><trkpt lat="44.8917217" lon="8.0068667"><ele>186.0</ele><time>2026-04-19T09:41:41.137Z</time></trkpt><trkpt lat="44.8916183" lon="8.0067933"><ele>186.0</ele><time>2026-04-19T09:41:42.071Z</time></trkpt><trkpt lat="44.8915083" lon="8.0067133"><ele>186.0</ele><time>2026-04-19T09:41:43.082Z</time></trkpt><trkpt lat="44.891395" lon="8.0066267"><ele>186.5</ele><time>2026-04-19T09:41:44.08Z</time></trkpt><trkpt lat="44.891275" lon="8.0065367"><ele>187.0</ele><time>2026-04-19T09:41:45.07Z</time></trkpt><trkpt lat="44.891155" lon="8.006445"><ele>187.5</ele><time>2026-04-19T09:41:46.071Z</time></trkpt><trkpt lat="44.891035" lon="8.0063533"><ele>188.0</ele><time>2026-04-19T09:41:47.132Z</time></trkpt><trkpt lat="44.8909183" lon="8.0062633"><ele>189.25</ele><time>2026-04-19T09:41:48.07Z</time></trkpt><trkpt lat="44.8908" lon="8.0061783"><ele>190.5</ele><time>2026-04-19T09:41:49.073Z</time></trkpt><trkpt lat="44.89068" lon="8.006095"><ele>191.75</ele><time>2026-04-19T09:41:50.081Z</time></trkpt><trkpt lat="44.8905617" lon="8.0060083"><ele>193.0</ele><time>2026-04-19T09:41:51.072Z</time></trkpt><trkpt lat="44.890445" lon="8.0059217"><ele>193.0</ele><time>2026-04-19T09:41:52.081Z</time></trkpt><trkpt lat="44.8903317" lon="8.00583"><ele>193.0</ele><time>2026-04-19T09:41:53.136Z</time></trkpt><trkpt lat="44.8902167" lon="8.0057417"><ele>193.0</ele><time>2026-04-19T09:41:54.071Z</time></trkpt><trkpt lat="44.8901" lon="8.005655"><ele>193.0</ele><time>2026-04-19T09:41:55.073Z</time></trkpt><trkpt lat="44.889985" lon="8.0055667"><ele>193.8</ele><time>2026-04-19T09:41:56.076Z</time></trkpt><trkpt lat="44.8898717" lon="8.0054817"><ele>194.60000000000002</ele><time>2026-04-19T09:41:57.077Z</time></trkpt><trkpt lat="44.8897683" lon="8.005405"><ele>195.39999999999998</ele><time>2026-04-19T09:41:58.077Z</time></trkpt><trkpt lat="44.889675" lon="8.0053383"><ele>196.2</ele><time>2026-04-19T09:41:59.131Z</time></trkpt><trkpt lat="44.88959" lon="8.0052817"><ele>197.0</ele><time>2026-04-19T09:42:00.072Z</time></trkpt><trkpt lat="44.88951" lon="8.0052317"><ele>197.0</ele><time>2026-04-19T09:42:01.076Z</time></trkpt><trkpt lat="44.8894283" lon="8.0051883"><ele>197.0</ele><time>2026-04-19T09:42:02.078Z</time></trkpt><trkpt lat="44.8893383" lon="8.0051467"><ele>197.0</ele><time>2026-04-19T09:42:03.074Z</time></trkpt><trkpt lat="44.8892433" lon="8.005105"><ele>197.0</ele><time>2026-04-19T09:42:04.075Z</time></trkpt><trkpt lat="44.88914" lon="8.0050667"><ele>197.0</ele><time>2026-04-19T09:42:05.144Z</time></trkpt><trkpt lat="44.889035" lon="8.0050333"><ele>196.2</ele><time>2026-04-19T09:42:06.074Z</time></trkpt><trkpt lat="44.8889333" lon="8.0050067"><ele>195.39999999999998</ele><time>2026-04-19T09:42:07.071Z</time></trkpt><trkpt lat="44.8888367" lon="8.00499"><ele>194.60000000000002</ele><time>2026-04-19T09:42:08.078Z</time></trkpt><trkpt lat="44.8887433" lon="8.00498"><ele>193.8</ele><time>2026-04-19T09:42:09.068Z</time></trkpt><trkpt lat="44.8886483" lon="8.0049717"><ele>193.0</ele><time>2026-04-19T09:42:10.074Z</time></trkpt><trkpt lat="44.88855" lon="8.0049667"><ele>192.99999999999997</ele><time>2026-04-19T09:42:11.129Z</time></trkpt><trkpt lat="44.8884517" lon="8.004965"><ele>193.0</ele><time>2026-04-19T09:42:12.074Z</time></trkpt><trkpt lat="44.8883567" lon="8.004965"><ele>193.0</ele><time>2026-04-19T09:42:13.073Z</time></trkpt><trkpt lat="44.8882683" lon="8.0049717"><ele>193.0</ele><time>2026-04-19T09:42:14.067Z</time></trkpt><trkpt lat="44.8881833" lon="8.004985"><ele>192.99999999999997</ele><time>2026-04-19T09:42:15.077Z</time></trkpt><trkpt lat="44.8881033" lon="8.0049983"><ele>193.0</ele><time>2026-04-19T09:42:16.075Z</time></trkpt><trkpt lat="44.8880267" lon="8.0050117"><ele>193.66666666666666</ele><time>2026-04-19T09:42:17.137Z</time></trkpt><trkpt lat="44.887955" lon="8.0050267"><ele>194.33333333333331</ele><time>2026-04-19T09:42:18.073Z</time></trkpt><trkpt lat="44.88789" lon="8.0050417"><ele>195.0</ele><time>2026-04-19T09:42:19.069Z</time></trkpt><trkpt lat="44.887785" lon="8.005065"><ele>195.66666666666669</ele><time>2026-04-19T09:42:21.08Z</time></trkpt><trkpt lat="44.88768" lon="8.0050883"><ele>196.33333333333334</ele><time>2026-04-19T09:42:23.139Z</time></trkpt><trkpt lat="44.8876133" lon="8.005105"><ele>197.0</ele><time>2026-04-19T09:42:24.076Z</time></trkpt><trkpt lat="44.8875383" lon="8.0051233"><ele>197.2</ele><time>2026-04-19T09:42:25.077Z</time></trkpt><trkpt lat="44.8874567" lon="8.0051433"><ele>197.39999999999998</ele><time>2026-04-19T09:42:26.08Z</time></trkpt><trkpt lat="44.8873667" lon="8.0051667"><ele>197.60000000000002</ele><time>2026-04-19T09:42:27.078Z</time></trkpt><trkpt lat="44.8872683" lon="8.00519"><ele>197.8</ele><time>2026-04-19T09:42:28.084Z</time></trkpt><trkpt lat="44.88716" lon="8.0052183"><ele>198.0</ele><time>2026-04-19T09:42:29.142Z</time></trkpt><trkpt lat="44.8870433" lon="8.00525"><ele>198.0</ele><time>2026-04-19T09:42:30.074Z</time></trkpt><trkpt lat="44.8869217" lon="8.00528"><ele>198.0</ele><time>2026-04-19T09:42:31.072Z</time></trkpt><trkpt lat="44.8868017" lon="8.0053117"><ele>198.0</ele><time>2026-04-19T09:42:32.079Z</time></trkpt><trkpt lat="44.8866933" lon="8.00534"><ele>198.0</ele><time>2026-04-19T09:42:33.078Z</time></trkpt><trkpt lat="44.8865917" lon="8.0053667"><ele>198.4</ele><time>2026-04-19T09:42:34.072Z</time></trkpt><trkpt lat="44.8864883" lon="8.0053933"><ele>198.8</ele><time>2026-04-19T09:42:35.137Z</time></trkpt><trkpt lat="44.88638" lon="8.0054217"><ele>199.2</ele><time>2026-04-19T09:42:36.073Z</time></trkpt><trkpt lat="44.8862667" lon="8.00545"><ele>199.6</ele><time>2026-04-19T09:42:37.072Z</time></trkpt><trkpt lat="44.8861517" lon="8.0054817"><ele>200.0</ele><time>2026-04-19T09:42:38.078Z</time></trkpt><trkpt lat="44.8860367" lon="8.0055133"><ele>200.5</ele><time>2026-04-19T09:42:39.077Z</time></trkpt><trkpt lat="44.8859233" lon="8.0055433"><ele>201.0</ele><time>2026-04-19T09:42:40.072Z</time></trkpt><trkpt lat="44.8858067" lon="8.0055717"><ele>201.5</ele><time>2026-04-19T09:42:41.136Z</time></trkpt><trkpt lat="44.8856867" lon="8.0055983"><ele>202.0</ele><time>2026-04-19T09:42:42.079Z</time></trkpt><trkpt lat="44.8855583" lon="8.00563"><ele>202.0</ele><time>2026-04-19T09:42:43.071Z</time></trkpt><trkpt lat="44.885425" lon="8.005665"><ele>202.0</ele><time>2026-04-19T09:42:44.068Z</time></trkpt><trkpt lat="44.885285" lon="8.0057"><ele>202.0</ele><time>2026-04-19T09:42:45.075Z</time></trkpt><trkpt lat="44.8851433" lon="8.0057367"><ele>202.0</ele><time>2026-04-19T09:42:46.074Z</time></trkpt><trkpt lat="44.885" lon="8.005775"><ele>202.75</ele><time>2026-04-19T09:42:47.136Z</time></trkpt><trkpt lat="44.8848567" lon="8.0058117"><ele>203.5</ele><time>2026-04-19T09:42:48.071Z</time></trkpt><trkpt lat="44.8847117" lon="8.00585"><ele>204.25</ele><time>2026-04-19T09:42:49.076Z</time></trkpt><trkpt lat="44.884565" lon="8.0058883"><ele>205.0</ele><time>2026-04-19T09:42:50.075Z</time></trkpt><trkpt lat="44.8844183" lon="8.0059283"><ele>204.0</ele><time>2026-04-19T09:42:51.08Z</time></trkpt><trkpt lat="44.8842733" lon="8.0059683"><ele>203.0</ele><time>2026-04-19T09:42:52.079Z</time></trkpt><trkpt lat="44.88413" lon="8.006005"><ele>202.0</ele><time>2026-04-19T09:42:53.134Z</time></trkpt><trkpt lat="44.883985" lon="8.0060417"><ele>201.0</ele><time>2026-04-19T09:42:54.074Z</time></trkpt><trkpt lat="44.88384" lon="8.0060767"><ele>201.0</ele><time>2026-04-19T09:42:55.076Z</time></trkpt><trkpt lat="44.8836967" lon="8.0061117"><ele>201.0</ele><time>2026-04-19T09:42:56.075Z</time></trkpt><trkpt lat="44.8835517" lon="8.0061467"><ele>201.0</ele><time>2026-04-19T09:42:57.075Z</time></trkpt><trkpt lat="44.8834083" lon="8.0061833"><ele>201.0</ele><time>2026-04-19T09:42:58.077Z</time></trkpt><trkpt lat="44.883265" lon="8.00622"><ele>201.25</ele><time>2026-04-19T09:42:59.103Z</time></trkpt><trkpt lat="44.8831217" lon="8.0062583"><ele>201.5</ele><time>2026-04-19T09:43:00.071Z</time></trkpt><trkpt lat="44.88298" lon="8.0062917"><ele>201.75</ele><time>2026-04-19T09:43:01.068Z</time></trkpt><trkpt lat="44.8828367" lon="8.006325"><ele>202.0</ele><time>2026-04-19T09:43:02.078Z</time></trkpt><trkpt lat="44.8826917" lon="8.0063617"><ele>206.66666666666666</ele><time>2026-04-19T09:43:03.075Z</time></trkpt><trkpt lat="44.882545" lon="8.0063983"><ele>211.33333333333331</ele><time>2026-04-19T09:43:04.085Z</time></trkpt><trkpt lat="44.8823967" lon="8.0064383"><ele>216.0</ele><time>2026-04-19T09:43:05.139Z</time></trkpt><trkpt lat="44.8822433" lon="8.0064733"><ele>216.0</ele><time>2026-04-19T09:43:06.074Z</time></trkpt><trkpt lat="44.8820833" lon="8.0065083"><ele>216.0</ele><time>2026-04-19T09:43:07.075Z</time></trkpt><trkpt lat="44.8819167" lon="8.0065483"><ele>216.0</ele><time>2026-04-19T09:43:08.075Z</time></trkpt><trkpt lat="44.881755" lon="8.0065933"><ele>216.0</ele><time>2026-04-19T09:43:09.074Z</time></trkpt><trkpt lat="44.8816017" lon="8.0066333"><ele>216.0</ele><time>2026-04-19T09:43:10.071Z</time></trkpt><trkpt lat="44.8814567" lon="8.006675"><ele>216.0</ele><time>2026-04-19T09:43:11.131Z</time></trkpt><trkpt lat="44.881315" lon="8.0067117"><ele>216.0</ele><time>2026-04-19T09:43:12.078Z</time></trkpt><trkpt lat="44.8811683" lon="8.0067483"><ele>211.66666666666669</ele><time>2026-04-19T09:43:13.07Z</time></trkpt><trkpt lat="44.8810133" lon="8.006785"><ele>207.33333333333334</ele><time>2026-04-19T09:43:14.072Z</time></trkpt><trkpt lat="44.8808567" lon="8.0068267"><ele>203.0</ele><time>2026-04-19T09:43:15.073Z</time></trkpt><trkpt lat="44.8807017" lon="8.006865"><ele>202.66666666666669</ele><time>2026-04-19T09:43:16.077Z</time></trkpt><trkpt lat="44.8805483" lon="8.006905"><ele>202.33333333333331</ele><time>2026-04-19T09:43:17.137Z</time></trkpt><trkpt lat="44.8803967" lon="8.0069483"><ele>202.0</ele><time>2026-04-19T09:43:18.075Z</time></trkpt><trkpt lat="44.8802483" lon="8.007"><ele>202.0</ele><time>2026-04-19T09:43:19.075Z</time></trkpt><trkpt lat="44.880105" lon="8.0070667"><ele>202.0</ele><time>2026-04-19T09:43:20.077Z</time></trkpt><trkpt lat="44.8799717" lon="8.0071533"><ele>202.0</ele><time>2026-04-19T09:43:21.075Z</time></trkpt><trkpt lat="44.8798433" lon="8.0072633"><ele>202.0</ele><time>2026-04-19T09:43:22.075Z</time></trkpt><trkpt lat="44.87972" lon="8.0073883"><ele>201.66666666666666</ele><time>2026-04-19T09:43:23.132Z</time></trkpt><trkpt lat="44.8796017" lon="8.007525"><ele>201.33333333333331</ele><time>2026-04-19T09:43:24.072Z</time></trkpt><trkpt lat="44.8794883" lon="8.007675"><ele>201.0</ele><time>2026-04-19T09:43:25.071Z</time></trkpt><trkpt lat="44.8793833" lon="8.0078367"><ele>201.0</ele><time>2026-04-19T09:43:26.074Z</time></trkpt><trkpt lat="44.87929" lon="8.0080083"><ele>201.0</ele><time>2026-04-19T09:43:27.08Z</time></trkpt><trkpt lat="44.8792033" lon="8.008185"><ele>201.0</ele><time>2026-04-19T09:43:28.077Z</time></trkpt><trkpt lat="44.8791183" lon="8.0083633"><ele>201.66666666666669</ele><time>2026-04-19T09:43:29.142Z</time></trkpt><trkpt lat="44.8790267" lon="8.0085367"><ele>202.33333333333334</ele><time>2026-04-19T09:43:30.078Z</time></trkpt><trkpt lat="44.8789267" lon="8.0086983"><ele>203.0</ele><time>2026-04-19T09:43:31.075Z</time></trkpt><trkpt lat="44.87882" lon="8.008845"><ele>203.0</ele><time>2026-04-19T09:43:32.078Z</time></trkpt><trkpt lat="44.878705" lon="8.0089717"><ele>203.0</ele><time>2026-04-19T09:43:33.075Z</time></trkpt><trkpt lat="44.87858" lon="8.0090833"><ele>203.0</ele><time>2026-04-19T09:43:34.08Z</time></trkpt><trkpt lat="44.87845" lon="8.009175"><ele>203.0</ele><time>2026-04-19T09:43:35.14Z</time></trkpt><trkpt lat="44.8783117" lon="8.0092433"><ele>203.75</ele><time>2026-04-19T09:43:36.072Z</time></trkpt><trkpt lat="44.87817" lon="8.0092867"><ele>204.5</ele><time>2026-04-19T09:43:37.077Z</time></trkpt><trkpt lat="44.8780283" lon="8.0093083"><ele>205.25</ele><time>2026-04-19T09:43:38.074Z</time></trkpt><trkpt lat="44.87789" lon="8.0093033"><ele>206.0</ele><time>2026-04-19T09:43:39.075Z</time></trkpt><trkpt lat="44.8777533" lon="8.0092783"><ele>206.0</ele><time>2026-04-19T09:43:40.078Z</time></trkpt><trkpt lat="44.8776233" lon="8.0092317"><ele>206.0</ele><time>2026-04-19T09:43:41.132Z</time></trkpt><trkpt lat="44.8774933" lon="8.0091667"><ele>206.0</ele><time>2026-04-19T09:43:42.073Z</time></trkpt><trkpt lat="44.877365" lon="8.0090867"><ele>206.0</ele><time>2026-04-19T09:43:43.072Z</time></trkpt><trkpt lat="44.8772417" lon="8.0089917"><ele>207.75</ele><time>2026-04-19T09:43:44.07Z</time></trkpt><trkpt lat="44.8771183" lon="8.0088917"><ele>209.5</ele><time>2026-04-19T09:43:45.077Z</time></trkpt><trkpt lat="44.877" lon="8.008785"><ele>211.25</ele><time>2026-04-19T09:43:46.074Z</time></trkpt><trkpt lat="44.8768833" lon="8.0086783"><ele>213.0</ele><time>2026-04-19T09:43:47.133Z</time></trkpt><trkpt lat="44.8767633" lon="8.0085683"><ele>213.0</ele><time>2026-04-19T09:43:48.076Z</time></trkpt><trkpt lat="44.8766483" lon="8.0084617"><ele>213.0</ele><time>2026-04-19T09:43:49.076Z</time></trkpt><trkpt lat="44.8765433" lon="8.0083633"><ele>213.0</ele><time>2026-04-19T09:43:50.076Z</time></trkpt><trkpt lat="44.8764533" lon="8.00829"><ele>213.0</ele><time>2026-04-19T09:43:51.076Z</time></trkpt><trkpt lat="44.8763783" lon="8.0082367"><ele>213.0</ele><time>2026-04-19T09:43:52.072Z</time></trkpt><trkpt lat="44.8762717" lon="8.008195"><ele>213.0</ele><time>2026-04-19T09:43:54.078Z</time></trkpt><trkpt lat="44.8761917" lon="8.00827"><ele>213.0</ele><time>2026-04-19T09:44:03.075Z</time></trkpt><trkpt lat="44.87618" lon="8.0084067"><ele>213.0</ele><time>2026-04-19T09:44:05.142Z</time></trkpt><trkpt lat="44.876185" lon="8.0085083"><ele>213.0</ele><time>2026-04-19T09:44:06.073Z</time></trkpt><trkpt lat="44.8761917" lon="8.0086133"><ele>213.0</ele><time>2026-04-19T09:44:07.073Z</time></trkpt><trkpt lat="44.8762017" lon="8.0087217"><ele>213.0</ele><time>2026-04-19T09:44:08.075Z</time></trkpt><trkpt lat="44.876205" lon="8.008815"><ele>213.0</ele><time>2026-04-19T09:44:09.072Z</time></trkpt><trkpt lat="44.87618" lon="8.0089467"><ele>213.0</ele><time>2026-04-19T09:44:11.136Z</time></trkpt><trkpt lat="44.8761083" lon="8.009005"><ele>213.0</ele><time>2026-04-19T09:44:14.076Z</time></trkpt></trkseg><trkseg><trkpt lat="44.87613" lon="8.008975"><ele>213.0</ele><time>2026-04-19T10:13:13.08Z</time></trkpt><trkpt lat="44.8761983" lon="8.008965"><ele>213.0</ele><time>2026-04-19T10:13:16.071Z</time></trkpt><trkpt lat="44.876235" lon="8.0088917"><ele>213.0</ele><time>2026-04-19T10:13:19.076Z</time></trkpt><trkpt lat="44.8762483" lon="8.0087683"><ele>213.0</ele><time>2026-04-19T10:13:21.072Z</time></trkpt><trkpt lat="44.8762533" lon="8.0086267"><ele>213.0</ele><time>2026-04-19T10:13:23.109Z</time></trkpt><trkpt lat="44.8762617" lon="8.00849"><ele>213.0</ele><time>2026-04-19T10:13:25.073Z</time></trkpt><trkpt lat="44.8763" lon="8.0084"><ele>213.0</ele><time>2026-04-19T10:13:27.072Z</time></trkpt><trkpt lat="44.87637" lon="8.0083483"><ele>213.0</ele><time>2026-04-19T10:13:29.125Z</time></trkpt><trkpt lat="44.8764483" lon="8.008355"><ele>213.0</ele><time>2026-04-19T10:13:31.078Z</time></trkpt><trkpt lat="44.8765167" lon="8.00842"><ele>213.0</ele><time>2026-04-19T10:13:33.072Z</time></trkpt><trkpt lat="44.8765583" lon="8.008545"><ele>213.0</ele><time>2026-04-19T10:13:36.073Z</time></trkpt><trkpt lat="44.876595" lon="8.0086883"><ele>213.0</ele><time>2026-04-19T10:13:38.074Z</time></trkpt><trkpt lat="44.876625" lon="8.00877"><ele>213.0</ele><time>2026-04-19T10:13:39.076Z</time></trkpt><trkpt lat="44.8766517" lon="8.0088733"><ele>213.0</ele><time>2026-04-19T10:13:40.071Z</time></trkpt><trkpt lat="44.8766867" lon="8.0089917"><ele>213.0</ele><time>2026-04-19T10:13:41.107Z</time></trkpt><trkpt lat="44.8767217" lon="8.0091167"><ele>213.0</ele><time>2026-04-19T10:13:42.078Z</time></trkpt><trkpt lat="44.876755" lon="8.0092467"><ele>213.0</ele><time>2026-04-19T10:13:43.071Z</time></trkpt><trkpt lat="44.8767867" lon="8.0093817"><ele>212.60000000000002</ele><time>2026-04-19T10:13:44.068Z</time></trkpt><trkpt lat="44.8768267" lon="8.0095167"><ele>212.20000000000002</ele><time>2026-04-19T10:13:45.077Z</time></trkpt><trkpt lat="44.8768667" lon="8.0096467"><ele>211.8</ele><time>2026-04-19T10:13:46.075Z</time></trkpt><trkpt lat="44.87692" lon="8.00978"><ele>211.4</ele><time>2026-04-19T10:13:47.104Z</time></trkpt><trkpt lat="44.8769717" lon="8.0099133"><ele>211.0</ele><time>2026-04-19T10:13:48.08Z</time></trkpt><trkpt lat="44.8770283" lon="8.01004"><ele>209.60000000000002</ele><time>2026-04-19T10:13:49.076Z</time></trkpt><trkpt lat="44.877095" lon="8.01015"><ele>208.2</ele><time>2026-04-19T10:13:50.079Z</time></trkpt><trkpt lat="44.87716" lon="8.0102483"><ele>206.8</ele><time>2026-04-19T10:13:51.081Z</time></trkpt><trkpt lat="44.877225" lon="8.0103383"><ele>205.39999999999998</ele><time>2026-04-19T10:13:52.074Z</time></trkpt><trkpt lat="44.87729" lon="8.010425"><ele>204.0</ele><time>2026-04-19T10:13:53.117Z</time></trkpt><trkpt lat="44.8773433" lon="8.0105217"><ele>204.0</ele><time>2026-04-19T10:13:54.076Z</time></trkpt><trkpt lat="44.877395" lon="8.010635"><ele>204.0</ele><time>2026-04-19T10:13:55.075Z</time></trkpt><trkpt lat="44.877435" lon="8.010765"><ele>204.0</ele><time>2026-04-19T10:13:56.071Z</time></trkpt><trkpt lat="44.8774683" lon="8.0108867"><ele>204.0</ele><time>2026-04-19T10:13:57.074Z</time></trkpt><trkpt lat="44.8774983" lon="8.0109983"><ele>204.0</ele><time>2026-04-19T10:13:58.081Z</time></trkpt><trkpt lat="44.8775233" lon="8.01109"><ele>204.0</ele><time>2026-04-19T10:13:59.131Z</time></trkpt><trkpt lat="44.87756" lon="8.011205"><ele>203.0</ele><time>2026-04-19T10:14:01.075Z</time></trkpt><trkpt lat="44.87763" lon="8.0112217"><ele>202.0</ele><time>2026-04-19T10:14:03.071Z</time></trkpt><trkpt lat="44.8776967" lon="8.0112067"><ele>201.0</ele><time>2026-04-19T10:14:04.075Z</time></trkpt><trkpt lat="44.877785" lon="8.01118"><ele>200.0</ele><time>2026-04-19T10:14:05.125Z</time></trkpt><trkpt lat="44.877885" lon="8.0111517"><ele>199.0</ele><time>2026-04-19T10:14:06.074Z</time></trkpt><trkpt lat="44.8779917" lon="8.011115"><ele>198.0</ele><time>2026-04-19T10:14:07.069Z</time></trkpt><trkpt lat="44.8780967" lon="8.0110717"><ele>198.0</ele><time>2026-04-19T10:14:08.071Z</time></trkpt><trkpt lat="44.8782017" lon="8.0110183"><ele>198.0</ele><time>2026-04-19T10:14:09.078Z</time></trkpt><trkpt lat="44.8783033" lon="8.0109567"><ele>198.0</ele><time>2026-04-19T10:14:10.077Z</time></trkpt><trkpt lat="44.8784" lon="8.0109033"><ele>198.0</ele><time>2026-04-19T10:14:11.11Z</time></trkpt><trkpt lat="44.87849" lon="8.01087"><ele>198.0</ele><time>2026-04-19T10:14:12.074Z</time></trkpt><trkpt lat="44.8785817" lon="8.0108617"><ele>197.2</ele><time>2026-04-19T10:14:13.069Z</time></trkpt><trkpt lat="44.8786783" lon="8.0108667"><ele>196.4</ele><time>2026-04-19T10:14:14.076Z</time></trkpt><trkpt lat="44.87878" lon="8.0108767"><ele>195.6</ele><time>2026-04-19T10:14:15.076Z</time></trkpt><trkpt lat="44.87888" lon="8.01088"><ele>194.79999999999998</ele><time>2026-04-19T10:14:16.075Z</time></trkpt><trkpt lat="44.8789783" lon="8.0108733"><ele>194.0</ele><time>2026-04-19T10:14:17.108Z</time></trkpt><trkpt lat="44.8790733" lon="8.0108517"><ele>194.2</ele><time>2026-04-19T10:14:18.074Z</time></trkpt><trkpt lat="44.8791683" lon="8.01082"><ele>194.39999999999998</ele><time>2026-04-19T10:14:19.079Z</time></trkpt><trkpt lat="44.879265" lon="8.010785"><ele>194.6</ele><time>2026-04-19T10:14:20.082Z</time></trkpt><trkpt lat="44.8793633" lon="8.0107433"><ele>194.8</ele><time>2026-04-19T10:14:21.071Z</time></trkpt><trkpt lat="44.8794517" lon="8.0107017"><ele>195.0</ele><time>2026-04-19T10:14:22.073Z</time></trkpt><trkpt lat="44.879525" lon="8.0106667"><ele>195.0</ele><time>2026-04-19T10:14:23.112Z</time></trkpt><trkpt lat="44.8795917" lon="8.0106367"><ele>195.0</ele><time>2026-04-19T10:14:24.067Z</time></trkpt><trkpt lat="44.8796617" lon="8.0106033"><ele>195.0</ele><time>2026-04-19T10:14:25.071Z</time></trkpt><trkpt lat="44.8797367" lon="8.0105667"><ele>195.0</ele><time>2026-04-19T10:14:26.083Z</time></trkpt><trkpt lat="44.8798183" lon="8.0105183"><ele>195.0</ele><time>2026-04-19T10:14:27.071Z</time></trkpt><trkpt lat="44.879905" lon="8.0104667"><ele>195.0</ele><time>2026-04-19T10:14:28.075Z</time></trkpt><trkpt lat="44.8799933" lon="8.0104117"><ele>195.0</ele><time>2026-04-19T10:14:29.142Z</time></trkpt><trkpt lat="44.8800767" lon="8.0103583"><ele>195.0</ele><time>2026-04-19T10:14:30.072Z</time></trkpt><trkpt lat="44.8801517" lon="8.0103183"><ele>195.0</ele><time>2026-04-19T10:14:31.072Z</time></trkpt><trkpt lat="44.8802267" lon="8.010285"><ele>195.0</ele><time>2026-04-19T10:14:32.071Z</time></trkpt><trkpt lat="44.880305" lon="8.0102567"><ele>195.0</ele><time>2026-04-19T10:14:33.074Z</time></trkpt><trkpt lat="44.8803933" lon="8.01023"><ele>195.0</ele><time>2026-04-19T10:14:34.07Z</time></trkpt><trkpt lat="44.880485" lon="8.0102017"><ele>195.16666666666666</ele><time>2026-04-19T10:14:35.123Z</time></trkpt><trkpt lat="44.880575" lon="8.0101717"><ele>195.33333333333331</ele><time>2026-04-19T10:14:36.077Z</time></trkpt><trkpt lat="44.880655" lon="8.01014"><ele>195.5</ele><time>2026-04-19T10:14:37.079Z</time></trkpt><trkpt lat="44.8807317" lon="8.010105"><ele>195.66666666666666</ele><time>2026-04-19T10:14:38.078Z</time></trkpt><trkpt lat="44.8808" lon="8.0100667"><ele>195.83333333333331</ele><time>2026-04-19T10:14:39.075Z</time></trkpt><trkpt lat="44.8808567" lon="8.0100183"><ele>196.0</ele><time>2026-04-19T10:14:40.075Z</time></trkpt><trkpt lat="44.8809317" lon="8.009875"><ele>195.99999999999997</ele><time>2026-04-19T10:14:42.071Z</time></trkpt><trkpt lat="44.8809617" lon="8.0097733"><ele>196.0</ele><time>2026-04-19T10:14:43.074Z</time></trkpt><trkpt lat="44.881" lon="8.0096567"><ele>196.0</ele><time>2026-04-19T10:14:44.075Z</time></trkpt><trkpt lat="44.8810367" lon="8.00954"><ele>196.0</ele><time>2026-04-19T10:14:45.081Z</time></trkpt><trkpt lat="44.8810767" lon="8.0094283"><ele>195.99999999999997</ele><time>2026-04-19T10:14:46.076Z</time></trkpt><trkpt lat="44.8811117" lon="8.0093217"><ele>196.0</ele><time>2026-04-19T10:14:47.107Z</time></trkpt><trkpt lat="44.8811433" lon="8.009215"><ele>196.8</ele><time>2026-04-19T10:14:48.076Z</time></trkpt><trkpt lat="44.88117" lon="8.0091"><ele>197.60000000000002</ele><time>2026-04-19T10:14:49.084Z</time></trkpt><trkpt lat="44.881195" lon="8.0089817"><ele>198.4</ele><time>2026-04-19T10:14:50.075Z</time></trkpt><trkpt lat="44.8812217" lon="8.0088583"><ele>199.2</ele><time>2026-04-19T10:14:51.074Z</time></trkpt><trkpt lat="44.88125" lon="8.0087333"><ele>200.0</ele><time>2026-04-19T10:14:52.071Z</time></trkpt><trkpt lat="44.8812883" lon="8.0086033"><ele>200.0</ele><time>2026-04-19T10:14:53.114Z</time></trkpt><trkpt lat="44.8813317" lon="8.0084683"><ele>200.0</ele><time>2026-04-19T10:14:54.07Z</time></trkpt><trkpt lat="44.8813767" lon="8.00832"><ele>200.0</ele><time>2026-04-19T10:14:55.07Z</time></trkpt><trkpt lat="44.881425" lon="8.0081717"><ele>200.0</ele><time>2026-04-19T10:14:56.073Z</time></trkpt><trkpt lat="44.88147" lon="8.0080233"><ele>200.0</ele><time>2026-04-19T10:14:57.071Z</time></trkpt><trkpt lat="44.881515" lon="8.0078783"><ele>200.4</ele><time>2026-04-19T10:14:58.076Z</time></trkpt><trkpt lat="44.8815567" lon="8.0077383"><ele>200.8</ele><time>2026-04-19T10:14:59.13Z</time></trkpt><trkpt lat="44.8815917" lon="8.0076033"><ele>201.2</ele><time>2026-04-19T10:15:00.076Z</time></trkpt><trkpt lat="44.881625" lon="8.007485"><ele>201.6</ele><time>2026-04-19T10:15:01.075Z</time></trkpt><trkpt lat="44.8816533" lon="8.0073917"><ele>202.0</ele><time>2026-04-19T10:15:02.072Z</time></trkpt><trkpt lat="44.8817" lon="8.00729"><ele>202.0</ele><time>2026-04-19T10:15:04.078Z</time></trkpt><trkpt lat="44.8817833" lon="8.0073533"><ele>202.0</ele><time>2026-04-19T10:15:07.075Z</time></trkpt><trkpt lat="44.8819117" lon="8.0073767"><ele>202.0</ele><time>2026-04-19T10:15:09.07Z</time></trkpt><trkpt lat="44.881995" lon="8.00737"><ele>202.0</ele><time>2026-04-19T10:15:10.077Z</time></trkpt><trkpt lat="44.88209" lon="8.007365"><ele>202.0</ele><time>2026-04-19T10:15:11.104Z</time></trkpt><trkpt lat="44.8821967" lon="8.0073567"><ele>202.0</ele><time>2026-04-19T10:15:12.076Z</time></trkpt><trkpt lat="44.8823117" lon="8.0073433"><ele>202.0</ele><time>2026-04-19T10:15:13.074Z</time></trkpt><trkpt lat="44.8824333" lon="8.007325"><ele>202.0</ele><time>2026-04-19T10:15:14.076Z</time></trkpt><trkpt lat="44.8825617" lon="8.0073067"><ele>202.0</ele><time>2026-04-19T10:15:15.08Z</time></trkpt><trkpt lat="44.8826867" lon="8.00729"><ele>200.5</ele><time>2026-04-19T10:15:16.073Z</time></trkpt><trkpt lat="44.8828033" lon="8.0072733"><ele>199.0</ele><time>2026-04-19T10:15:17.112Z</time></trkpt><trkpt lat="44.8829217" lon="8.0072583"><ele>197.5</ele><time>2026-04-19T10:15:18.07Z</time></trkpt><trkpt lat="44.883035" lon="8.0072467"><ele>196.0</ele><time>2026-04-19T10:15:19.071Z</time></trkpt><trkpt lat="44.8831433" lon="8.0072383"><ele>196.0</ele><time>2026-04-19T10:15:20.079Z</time></trkpt><trkpt lat="44.88325" lon="8.0072317"><ele>196.0</ele><time>2026-04-19T10:15:21.076Z</time></trkpt><trkpt lat="44.8833567" lon="8.007225"><ele>196.0</ele><time>2026-04-19T10:15:22.074Z</time></trkpt><trkpt lat="44.8834633" lon="8.00722"><ele>196.0</ele><time>2026-04-19T10:15:23.108Z</time></trkpt><trkpt lat="44.8835767" lon="8.0072167"><ele>196.0</ele><time>2026-04-19T10:15:24.069Z</time></trkpt><trkpt lat="44.8836883" lon="8.0072167"><ele>196.0</ele><time>2026-04-19T10:15:25.079Z</time></trkpt><trkpt lat="44.8838017" lon="8.007215"><ele>196.0</ele><time>2026-04-19T10:15:26.073Z</time></trkpt><trkpt lat="44.88391" lon="8.0072167"><ele>196.0</ele><time>2026-04-19T10:15:27.071Z</time></trkpt><trkpt lat="44.8840067" lon="8.0072217"><ele>196.0</ele><time>2026-04-19T10:15:28.073Z</time></trkpt><trkpt lat="44.88409" lon="8.0072383"><ele>196.0</ele><time>2026-04-19T10:15:29.13Z</time></trkpt><trkpt lat="44.884165" lon="8.0072767"><ele>196.0</ele><time>2026-04-19T10:15:30.079Z</time></trkpt><trkpt lat="44.88424" lon="8.0073317"><ele>196.0</ele><time>2026-04-19T10:15:31.075Z</time></trkpt><trkpt lat="44.8843167" lon="8.0073967"><ele>196.0</ele><time>2026-04-19T10:15:32.07Z</time></trkpt><trkpt lat="44.8843983" lon="8.0074617"><ele>196.0</ele><time>2026-04-19T10:15:33.078Z</time></trkpt><trkpt lat="44.884485" lon="8.0075183"><ele>196.0</ele><time>2026-04-19T10:15:34.073Z</time></trkpt><trkpt lat="44.8845733" lon="8.0075617"><ele>196.20000000000002</ele><time>2026-04-19T10:15:35.128Z</time></trkpt><trkpt lat="44.88466" lon="8.0075817"><ele>196.4</ele><time>2026-04-19T10:15:36.073Z</time></trkpt><trkpt lat="44.88475" lon="8.0075783"><ele>196.6</ele><time>2026-04-19T10:15:37.071Z</time></trkpt><trkpt lat="44.884845" lon="8.0075517"><ele>196.8</ele><time>2026-04-19T10:15:38.066Z</time></trkpt><trkpt lat="44.884945" lon="8.0075083"><ele>197.0</ele><time>2026-04-19T10:15:39.071Z</time></trkpt><trkpt lat="44.885045" lon="8.0074533"><ele>196.2</ele><time>2026-04-19T10:15:40.075Z</time></trkpt><trkpt lat="44.8851467" lon="8.00739"><ele>195.39999999999998</ele><time>2026-04-19T10:15:41.111Z</time></trkpt><trkpt lat="44.8852483" lon="8.0073267"><ele>194.60000000000002</ele><time>2026-04-19T10:15:42.072Z</time></trkpt><trkpt lat="44.8853533" lon="8.0072683"><ele>193.8</ele><time>2026-04-19T10:15:43.072Z</time></trkpt><trkpt lat="44.8854533" lon="8.0072083"><ele>193.0</ele><time>2026-04-19T10:15:44.073Z</time></trkpt><trkpt lat="44.8855417" lon="8.007145"><ele>193.0</ele><time>2026-04-19T10:15:45.078Z</time></trkpt><trkpt lat="44.885615" lon="8.0070767"><ele>193.0</ele><time>2026-04-19T10:15:46.077Z</time></trkpt><trkpt lat="44.88568" lon="8.0069933"><ele>193.0</ele><time>2026-04-19T10:15:47.113Z</time></trkpt><trkpt lat="44.8857333" lon="8.0068917"><ele>193.0</ele><time>2026-04-19T10:15:48.076Z</time></trkpt><trkpt lat="44.8857833" lon="8.0067767"><ele>193.0</ele><time>2026-04-19T10:15:49.074Z</time></trkpt><trkpt lat="44.88583" lon="8.00667"><ele>193.8</ele><time>2026-04-19T10:15:50.07Z</time></trkpt><trkpt lat="44.8858817" lon="8.0065817"><ele>194.60000000000002</ele><time>2026-04-19T10:15:51.073Z</time></trkpt><trkpt lat="44.88594" lon="8.00651"><ele>195.39999999999998</ele><time>2026-04-19T10:15:52.076Z</time></trkpt><trkpt lat="44.8860167" lon="8.006455"><ele>196.2</ele><time>2026-04-19T10:15:53.11Z</time></trkpt><trkpt lat="44.8861067" lon="8.0064083"><ele>197.0</ele><time>2026-04-19T10:15:54.071Z</time></trkpt><trkpt lat="44.8862133" lon="8.0063617"><ele>197.0</ele><time>2026-04-19T10:15:55.081Z</time></trkpt><trkpt lat="44.88632" lon="8.0063217"><ele>197.0</ele><time>2026-04-19T10:15:56.075Z</time></trkpt><trkpt lat="44.8864367" lon="8.0062867"><ele>197.0</ele><time>2026-04-19T10:15:57.074Z</time></trkpt><trkpt lat="44.88655" lon="8.0062667"><ele>197.0</ele><time>2026-04-19T10:15:58.071Z</time></trkpt><trkpt lat="44.8866583" lon="8.0062617"><ele>196.39999999999998</ele><time>2026-04-19T10:15:59.122Z</time></trkpt><trkpt lat="44.8867617" lon="8.0062583"><ele>195.79999999999998</ele><time>2026-04-19T10:16:00.073Z</time></trkpt><trkpt lat="44.8868633" lon="8.0062433"><ele>195.2</ele><time>2026-04-19T10:16:01.074Z</time></trkpt><trkpt lat="44.8869633" lon="8.0062183"><ele>194.6</ele><time>2026-04-19T10:16:02.079Z</time></trkpt><trkpt lat="44.88706" lon="8.0061833"><ele>194.0</ele><time>2026-04-19T10:16:03.073Z</time></trkpt><trkpt lat="44.8871583" lon="8.0061383"><ele>194.0</ele><time>2026-04-19T10:16:04.073Z</time></trkpt><trkpt lat="44.8872517" lon="8.0060833"><ele>194.0</ele><time>2026-04-19T10:16:05.118Z</time></trkpt><trkpt lat="44.8873433" lon="8.0060217"><ele>194.0</ele><time>2026-04-19T10:16:06.073Z</time></trkpt><trkpt lat="44.8874333" lon="8.0059483"><ele>194.0</ele><time>2026-04-19T10:16:07.073Z</time></trkpt><trkpt lat="44.8875233" lon="8.0058733"><ele>194.0</ele><time>2026-04-19T10:16:08.08Z</time></trkpt><trkpt lat="44.8876167" lon="8.0058"><ele>194.6</ele><time>2026-04-19T10:16:09.076Z</time></trkpt><trkpt lat="44.8877117" lon="8.00573"><ele>195.2</ele><time>2026-04-19T10:16:10.073Z</time></trkpt><trkpt lat="44.8878117" lon="8.0056617"><ele>195.79999999999998</ele><time>2026-04-19T10:16:11.108Z</time></trkpt><trkpt lat="44.8879117" lon="8.0055983"><ele>196.39999999999998</ele><time>2026-04-19T10:16:12.069Z</time></trkpt><trkpt lat="44.88801" lon="8.0055483"><ele>197.0</ele><time>2026-04-19T10:16:13.074Z</time></trkpt><trkpt lat="44.8881" lon="8.0055017"><ele>197.0</ele><time>2026-04-19T10:16:14.072Z</time></trkpt><trkpt lat="44.8881833" lon="8.0054633"><ele>197.0</ele><time>2026-04-19T10:16:15.076Z</time></trkpt><trkpt lat="44.888255" lon="8.005435"><ele>197.0</ele><time>2026-04-19T10:16:16.067Z</time></trkpt><trkpt lat="44.8883183" lon="8.005425"><ele>197.0</ele><time>2026-04-19T10:16:17.111Z</time></trkpt><trkpt lat="44.888385" lon="8.0054383"><ele>197.0</ele><time>2026-04-19T10:16:18.069Z</time></trkpt><trkpt lat="44.888455" lon="8.0054717"><ele>197.0</ele><time>2026-04-19T10:16:19.071Z</time></trkpt><trkpt lat="44.88853" lon="8.0055183"><ele>197.0</ele><time>2026-04-19T10:16:20.072Z</time></trkpt><trkpt lat="44.8886133" lon="8.0055717"><ele>196.0</ele><time>2026-04-19T10:16:21.072Z</time></trkpt><trkpt lat="44.8887083" lon="8.0056183"><ele>195.0</ele><time>2026-04-19T10:16:22.075Z</time></trkpt><trkpt lat="44.8888117" lon="8.005655"><ele>194.0</ele><time>2026-04-19T10:16:23.105Z</time></trkpt><trkpt lat="44.8889167" lon="8.0056833"><ele>193.0</ele><time>2026-04-19T10:16:24.067Z</time></trkpt><trkpt lat="44.8890217" lon="8.005705"><ele>192.0</ele><time>2026-04-19T10:16:25.071Z</time></trkpt><trkpt lat="44.8891217" lon="8.0057183"><ele>192.0</ele><time>2026-04-19T10:16:26.073Z</time></trkpt><trkpt lat="44.8892233" lon="8.005725"><ele>192.0</ele><time>2026-04-19T10:16:27.071Z</time></trkpt><trkpt lat="44.8893283" lon="8.0057267"><ele>192.0</ele><time>2026-04-19T10:16:28.072Z</time></trkpt><trkpt lat="44.889435" lon="8.005725"><ele>192.0</ele><time>2026-04-19T10:16:29.139Z</time></trkpt><trkpt lat="44.8895383" lon="8.00572"><ele>192.0</ele><time>2026-04-19T10:16:30.074Z</time></trkpt><trkpt lat="44.8896317" lon="8.00571"><ele>192.83333333333334</ele><time>2026-04-19T10:16:31.067Z</time></trkpt><trkpt lat="44.8897267" lon="8.0057017"><ele>193.66666666666669</ele><time>2026-04-19T10:16:32.069Z</time></trkpt><trkpt lat="44.889815" lon="8.0056933"><ele>194.5</ele><time>2026-04-19T10:16:33.08Z</time></trkpt><trkpt lat="44.88989" lon="8.0056867"><ele>195.33333333333334</ele><time>2026-04-19T10:16:34.075Z</time></trkpt><trkpt lat="44.8899817" lon="8.005675"><ele>196.16666666666669</ele><time>2026-04-19T10:16:36.071Z</time></trkpt><trkpt lat="44.8900633" lon="8.0056983"><ele>197.0</ele><time>2026-04-19T10:16:43.077Z</time></trkpt><trkpt lat="44.8901333" lon="8.00575"><ele>197.25</ele><time>2026-04-19T10:16:44.078Z</time></trkpt><trkpt lat="44.89023" lon="8.0058233"><ele>197.5</ele><time>2026-04-19T10:16:45.075Z</time></trkpt><trkpt lat="44.89034" lon="8.0059083"><ele>197.75</ele><time>2026-04-19T10:16:46.077Z</time></trkpt><trkpt lat="44.8904567" lon="8.0059967"><ele>198.0</ele><time>2026-04-19T10:16:47.105Z</time></trkpt><trkpt lat="44.89058" lon="8.0060867"><ele>196.75</ele><time>2026-04-19T10:16:48.071Z</time></trkpt><trkpt lat="44.8907033" lon="8.00618"><ele>195.5</ele><time>2026-04-19T10:16:49.069Z</time></trkpt><trkpt lat="44.890825" lon="8.0062733"><ele>194.25</ele><time>2026-04-19T10:16:50.069Z</time></trkpt><trkpt lat="44.8909467" lon="8.0063683"><ele>193.0</ele><time>2026-04-19T10:16:51.075Z</time></trkpt><trkpt lat="44.8910683" lon="8.0064667"><ele>191.75</ele><time>2026-04-19T10:16:52.073Z</time></trkpt><trkpt lat="44.89119" lon="8.006565"><ele>190.5</ele><time>2026-04-19T10:16:53.108Z</time></trkpt><trkpt lat="44.8913167" lon="8.0066617"><ele>189.25</ele><time>2026-04-19T10:16:54.075Z</time></trkpt><trkpt lat="44.89144" lon="8.0067567"><ele>188.0</ele><time>2026-04-19T10:16:55.076Z</time></trkpt><trkpt lat="44.8915617" lon="8.0068483"><ele>188.0</ele><time>2026-04-19T10:16:56.07Z</time></trkpt><trkpt lat="44.8916767" lon="8.0069333"><ele>188.0</ele><time>2026-04-19T10:16:57.071Z</time></trkpt><trkpt lat="44.8917817" lon="8.007015"><ele>188.0</ele><time>2026-04-19T10:16:58.073Z</time></trkpt><trkpt lat="44.89189" lon="8.0071"><ele>188.0</ele><time>2026-04-19T10:16:59.141Z</time></trkpt><trkpt lat="44.8920017" lon="8.0071867"><ele>188.0</ele><time>2026-04-19T10:17:00.072Z</time></trkpt><trkpt lat="44.8921183" lon="8.0072767"><ele>188.0</ele><time>2026-04-19T10:17:01.069Z</time></trkpt><trkpt lat="44.892235" lon="8.0073633"><ele>188.0</ele><time>2026-04-19T10:17:02.069Z</time></trkpt><trkpt lat="44.8923533" lon="8.0074517"><ele>188.0</ele><time>2026-04-19T10:17:03.069Z</time></trkpt><trkpt lat="44.8924717" lon="8.00754"><ele>188.75</ele><time>2026-04-19T10:17:04.071Z</time></trkpt><trkpt lat="44.89259" lon="8.0076333"><ele>189.5</ele><time>2026-04-19T10:17:05.124Z</time></trkpt><trkpt lat="44.8927117" lon="8.0077283"><ele>190.25</ele><time>2026-04-19T10:17:06.074Z</time></trkpt><trkpt lat="44.892835" lon="8.0078267"><ele>191.0</ele><time>2026-04-19T10:17:07.075Z</time></trkpt><trkpt lat="44.8929567" lon="8.0079267"><ele>191.0</ele><time>2026-04-19T10:17:08.066Z</time></trkpt><trkpt lat="44.8930817" lon="8.00803"><ele>191.0</ele><time>2026-04-19T10:17:09.077Z</time></trkpt><trkpt lat="44.89321" lon="8.0081383"><ele>191.0</ele><time>2026-04-19T10:17:10.072Z</time></trkpt><trkpt lat="44.8933433" lon="8.0082517"><ele>191.0</ele><time>2026-04-19T10:17:11.109Z</time></trkpt><trkpt lat="44.8934783" lon="8.0083667"><ele>191.0</ele><time>2026-04-19T10:17:12.072Z</time></trkpt><trkpt lat="44.8936133" lon="8.0084817"><ele>191.0</ele><time>2026-04-19T10:17:13.07Z</time></trkpt><trkpt lat="44.89375" lon="8.008595"><ele>191.0</ele><time>2026-04-19T10:17:14.085Z</time></trkpt><trkpt lat="44.8938867" lon="8.00871"><ele>191.0</ele><time>2026-04-19T10:17:15.078Z</time></trkpt><trkpt lat="44.8940217" lon="8.008825"><ele>191.0</ele><time>2026-04-19T10:17:16.072Z</time></trkpt><trkpt lat="44.8941567" lon="8.00894"><ele>190.33333333333331</ele><time>2026-04-19T10:17:17.11Z</time></trkpt><trkpt lat="44.89429" lon="8.0090517"><ele>189.66666666666666</ele><time>2026-04-19T10:17:18.073Z</time></trkpt><trkpt lat="44.8944233" lon="8.009165"><ele>189.0</ele><time>2026-04-19T10:17:19.071Z</time></trkpt><trkpt lat="44.8945533" lon="8.009275"><ele>189.0</ele><time>2026-04-19T10:17:20.07Z</time></trkpt><trkpt lat="44.8946833" lon="8.009385"><ele>189.0</ele><time>2026-04-19T10:17:21.067Z</time></trkpt><trkpt lat="44.8948133" lon="8.009495"><ele>189.0</ele><time>2026-04-19T10:17:22.07Z</time></trkpt><trkpt lat="44.894945" lon="8.009605"><ele>189.0</ele><time>2026-04-19T10:17:23.108Z</time></trkpt><trkpt lat="44.895075" lon="8.009715"><ele>189.0</ele><time>2026-04-19T10:17:24.067Z</time></trkpt><trkpt lat="44.8952017" lon="8.00982"><ele>189.0</ele><time>2026-04-19T10:17:25.07Z</time></trkpt><trkpt lat="44.895325" lon="8.0099217"><ele>189.0</ele><time>2026-04-19T10:17:26.071Z</time></trkpt><trkpt lat="44.89544" lon="8.0100167"><ele>187.39999999999998</ele><time>2026-04-19T10:17:27.068Z</time></trkpt><trkpt lat="44.8955483" lon="8.0101083"><ele>185.8</ele><time>2026-04-19T10:17:28.073Z</time></trkpt><trkpt lat="44.8956467" lon="8.0101917"><ele>184.2</ele><time>2026-04-19T10:17:29.139Z</time></trkpt><trkpt lat="44.8957367" lon="8.01027"><ele>182.60000000000002</ele><time>2026-04-19T10:17:30.067Z</time></trkpt><trkpt lat="44.8958167" lon="8.01034"><ele>181.0</ele><time>2026-04-19T10:17:31.072Z</time></trkpt><trkpt lat="44.8958867" lon="8.0103983"><ele>181.0</ele><time>2026-04-19T10:17:32.071Z</time></trkpt><trkpt lat="44.8959583" lon="8.010495"><ele>181.0</ele><time>2026-04-19T10:17:34.069Z</time></trkpt><trkpt lat="44.8959183" lon="8.0105833"><ele>181.0</ele><time>2026-04-19T10:17:36.066Z</time></trkpt><trkpt lat="44.8958567" lon="8.0106433"><ele>181.0</ele><time>2026-04-19T10:17:37.064Z</time></trkpt><trkpt lat="44.8957883" lon="8.01071"><ele>181.0</ele><time>2026-04-19T10:17:38.072Z</time></trkpt><trkpt lat="44.895705" lon="8.010775"><ele>181.0</ele><time>2026-04-19T10:17:39.067Z</time></trkpt><trkpt lat="44.8956167" lon="8.0108283"><ele>180.4</ele><time>2026-04-19T10:17:40.065Z</time></trkpt><trkpt lat="44.8955233" lon="8.0108583"><ele>179.8</ele><time>2026-04-19T10:17:41.114Z</time></trkpt><trkpt lat="44.8954233" lon="8.01088"><ele>179.20000000000002</ele><time>2026-04-19T10:17:42.066Z</time></trkpt><trkpt lat="44.8953233" lon="8.010905"><ele>178.60000000000002</ele><time>2026-04-19T10:17:43.07Z</time></trkpt><trkpt lat="44.8952283" lon="8.0109367"><ele>178.0</ele><time>2026-04-19T10:17:44.073Z</time></trkpt><trkpt lat="44.8951467" lon="8.0109983"><ele>178.0</ele><time>2026-04-19T10:17:45.066Z</time></trkpt><trkpt lat="44.8950767" lon="8.0110667"><ele>178.0</ele><time>2026-04-19T10:17:46.071Z</time></trkpt><trkpt lat="44.8950067" lon="8.0111333"><ele>178.0</ele><time>2026-04-19T10:17:47.112Z</time></trkpt><trkpt lat="44.8949317" lon="8.0112017"><ele>178.0</ele><time>2026-04-19T10:17:48.071Z</time></trkpt><trkpt lat="44.8948583" lon="8.011275"><ele>178.0</ele><time>2026-04-19T10:17:49.074Z</time></trkpt><trkpt lat="44.8948" lon="8.0113467"><ele>178.0</ele><time>2026-04-19T10:17:50.07Z</time></trkpt><trkpt lat="44.8947317" lon="8.0114417"><ele>178.0</ele><time>2026-04-19T10:17:52.071Z</time></trkpt><trkpt lat="44.894805" lon="8.0115267"><ele>178.0</ele><time>2026-04-19T10:17:56.067Z</time></trkpt><trkpt lat="44.8948533" lon="8.0115983"><ele>178.0</ele><time>2026-04-19T10:17:58.075Z</time></trkpt><trkpt lat="44.8948967" lon="8.011675"><ele>178.0</ele><time>2026-04-19T10:18:00.064Z</time></trkpt><trkpt lat="44.89492" lon="8.0117767"><ele>178.0</ele><time>2026-04-19T10:18:03.071Z</time></trkpt><trkpt lat="44.8948683" lon="8.0118383"><ele>178.0</ele><time>2026-04-19T10:18:07.074Z</time></trkpt><trkpt lat="44.894775" lon="8.01191"><ele>178.0</ele><time>2026-04-19T10:18:16.078Z</time></trkpt><trkpt lat="44.8946967" lon="8.01195"><ele>178.0</ele><time>2026-04-19T10:18:19.073Z</time></trkpt><trkpt lat="44.8946133" lon="8.0119517"><ele>178.0</ele><time>2026-04-19T10:18:22.066Z</time></trkpt><trkpt lat="44.8946" lon="8.01205"><ele>178.0</ele><time>2026-04-19T10:18:26.066Z</time></trkpt><trkpt lat="44.8946683" lon="8.0120917"><ele>178.0</ele><time>2026-04-19T10:18:29.134Z</time></trkpt><trkpt lat="44.8947733" lon="8.0121067"><ele>178.0</ele><time>2026-04-19T10:18:35.123Z</time></trkpt><trkpt lat="44.8948467" lon="8.0121183"><ele>178.0</ele><time>2026-04-19T10:18:36.066Z</time></trkpt><trkpt lat="44.89493" lon="8.012125"><ele>178.0</ele><time>2026-04-19T10:18:37.072Z</time></trkpt><trkpt lat="44.8950183" lon="8.0121267"><ele>178.0</ele><time>2026-04-19T10:18:38.066Z</time></trkpt><trkpt lat="44.895105" lon="8.0121367"><ele>178.0</ele><time>2026-04-19T10:18:39.07Z</time></trkpt><trkpt lat="44.8951783" lon="8.0121517"><ele>178.0</ele><time>2026-04-19T10:18:40.07Z</time></trkpt><trkpt lat="44.895255" lon="8.01217"><ele>178.0</ele><time>2026-04-19T10:18:41.11Z</time></trkpt><trkpt lat="44.8953383" lon="8.0122017"><ele>177.60000000000002</ele><time>2026-04-19T10:18:42.064Z</time></trkpt><trkpt lat="44.8954333" lon="8.0122467"><ele>177.20000000000002</ele><time>2026-04-19T10:18:43.074Z</time></trkpt><trkpt lat="44.895525" lon="8.012295"><ele>176.8</ele><time>2026-04-19T10:18:44.075Z</time></trkpt><trkpt lat="44.895625" lon="8.0123467"><ele>176.4</ele><time>2026-04-19T10:18:45.071Z</time></trkpt><trkpt lat="44.8957233" lon="8.0123967"><ele>176.0</ele><time>2026-04-19T10:18:46.074Z</time></trkpt><trkpt lat="44.8958183" lon="8.0124417"><ele>176.0</ele><time>2026-04-19T10:18:47.108Z</time></trkpt><trkpt lat="44.89592" lon="8.012485"><ele>176.0</ele><time>2026-04-19T10:18:48.069Z</time></trkpt><trkpt lat="44.8960117" lon="8.012525"><ele>176.0</ele><time>2026-04-19T10:18:49.073Z</time></trkpt><trkpt lat="44.8961067" lon="8.0125733"><ele>176.0</ele><time>2026-04-19T10:18:50.069Z</time></trkpt><trkpt lat="44.89621" lon="8.0126517"><ele>176.0</ele><time>2026-04-19T10:18:51.069Z</time></trkpt><trkpt lat="44.8963117" lon="8.01273"><ele>176.60000000000002</ele><time>2026-04-19T10:18:52.071Z</time></trkpt><trkpt lat="44.8964083" lon="8.0128217"><ele>177.2</ele><time>2026-04-19T10:18:53.112Z</time></trkpt><trkpt lat="44.8964817" lon="8.012915"><ele>177.8</ele><time>2026-04-19T10:18:54.067Z</time></trkpt><trkpt lat="44.8965433" lon="8.013025"><ele>178.39999999999998</ele><time>2026-04-19T10:18:55.07Z</time></trkpt><trkpt lat="44.89659" lon="8.0131467"><ele>179.0</ele><time>2026-04-19T10:18:56.068Z</time></trkpt><trkpt lat="44.8966233" lon="8.013275"><ele>178.0</ele><time>2026-04-19T10:18:57.063Z</time></trkpt><trkpt lat="44.8966383" lon="8.013415"><ele>177.0</ele><time>2026-04-19T10:18:58.074Z</time></trkpt><trkpt lat="44.89665" lon="8.0135467"><ele>176.0</ele><time>2026-04-19T10:18:59.133Z</time></trkpt><trkpt lat="44.896665" lon="8.01369"><ele>175.0</ele><time>2026-04-19T10:19:00.067Z</time></trkpt><trkpt lat="44.8966967" lon="8.0138367"><ele>174.0</ele><time>2026-04-19T10:19:01.072Z</time></trkpt><trkpt lat="44.896735" lon="8.01399"><ele>174.25</ele><time>2026-04-19T10:19:02.072Z</time></trkpt><trkpt lat="44.8967783" lon="8.0141433"><ele>174.5</ele><time>2026-04-19T10:19:03.072Z</time></trkpt><trkpt lat="44.8968283" lon="8.0142967"><ele>174.75</ele><time>2026-04-19T10:19:04.073Z</time></trkpt><trkpt lat="44.89688" lon="8.0144317"><ele>175.0</ele><time>2026-04-19T10:19:05.118Z</time></trkpt><trkpt lat="44.89694" lon="8.0145567"><ele>175.0</ele><time>2026-04-19T10:19:06.067Z</time></trkpt><trkpt lat="44.8970067" lon="8.0146633"><ele>175.0</ele><time>2026-04-19T10:19:07.066Z</time></trkpt><trkpt lat="44.8970733" lon="8.0147633"><ele>175.0</ele><time>2026-04-19T10:19:08.067Z</time></trkpt><trkpt lat="44.89713" lon="8.0148533"><ele>175.0</ele><time>2026-04-19T10:19:09.073Z</time></trkpt><trkpt lat="44.8971783" lon="8.0149317"><ele>175.0</ele><time>2026-04-19T10:19:10.076Z</time></trkpt><trkpt lat="44.89725" lon="8.015045"><ele>174.5</ele><time>2026-04-19T10:19:12.065Z</time></trkpt><trkpt lat="44.8973017" lon="8.0151217"><ele>174.0</ele><time>2026-04-19T10:19:14.064Z</time></trkpt><trkpt lat="44.8973665" lon="8.0152064"><ele>173.5</ele><time>2026-04-19T10:19:16.068Z</time></trkpt><trkpt lat="44.8974143" lon="8.0152699"><ele>173.0</ele><time>2026-04-19T10:19:17.11Z</time></trkpt><trkpt lat="44.897467" lon="8.0153447"><ele>172.5</ele><time>2026-04-19T10:19:18.071Z</time></trkpt><trkpt lat="44.8975251" lon="8.0154338"><ele>172.0</ele><time>2026-04-19T10:19:19.07Z</time></trkpt><trkpt lat="44.8975897" lon="8.0155304"><ele>173.0</ele><time>2026-04-19T10:19:20.072Z</time></trkpt><trkpt lat="44.897661" lon="8.0156306"><ele>174.0</ele><time>2026-04-19T10:19:21.067Z</time></trkpt><trkpt lat="44.8977366" lon="8.0157388"><ele>175.0</ele><time>2026-04-19T10:19:22.071Z</time></trkpt><trkpt lat="44.8978133" lon="8.0158525"><ele>176.0</ele><time>2026-04-19T10:19:23.113Z</time></trkpt><trkpt lat="44.8978887" lon="8.0159665"><ele>177.0</ele><time>2026-04-19T10:19:24.07Z</time></trkpt><trkpt lat="44.8979687" lon="8.016085"><ele>177.0</ele><time>2026-04-19T10:19:25.077Z</time></trkpt><trkpt lat="44.8980509" lon="8.0161986"><ele>177.0</ele><time>2026-04-19T10:19:26.07Z</time></trkpt><trkpt lat="44.8981329" lon="8.0163149"><ele>177.0</ele><time>2026-04-19T10:19:27.075Z</time></trkpt><trkpt lat="44.8982112" lon="8.0164359"><ele>177.0</ele><time>2026-04-19T10:19:28.066Z</time></trkpt><trkpt lat="44.8982935" lon="8.0165626"><ele>176.25</ele><time>2026-04-19T10:19:29.138Z</time></trkpt><trkpt lat="44.8983697" lon="8.0166748"><ele>175.5</ele><time>2026-04-19T10:19:30.063Z</time></trkpt><trkpt lat="44.8984536" lon="8.0167919"><ele>174.75</ele><time>2026-04-19T10:19:31.07Z</time></trkpt><trkpt lat="44.8985417" lon="8.0169058"><ele>174.0</ele><time>2026-04-19T10:19:32.071Z</time></trkpt><trkpt lat="44.8986333" lon="8.0170204"><ele>174.0</ele><time>2026-04-19T10:19:33.067Z</time></trkpt><trkpt lat="44.8987233" lon="8.0171383"><ele>174.0</ele><time>2026-04-19T10:19:34.07Z</time></trkpt><trkpt lat="44.898805" lon="8.0172583"><ele>174.0</ele><time>2026-04-19T10:19:35.123Z</time></trkpt><trkpt lat="44.8988817" lon="8.01739"><ele>174.0</ele><time>2026-04-19T10:19:36.066Z</time></trkpt><trkpt lat="44.89896" lon="8.017525"><ele>174.0</ele><time>2026-04-19T10:19:37.07Z</time></trkpt><trkpt lat="44.8990367" lon="8.0176567"><ele>174.0</ele><time>2026-04-19T10:19:38.073Z</time></trkpt><trkpt lat="44.8991183" lon="8.01779"><ele>174.0</ele><time>2026-04-19T10:19:39.081Z</time></trkpt><trkpt lat="44.899195" lon="8.0179233"><ele>174.0</ele><time>2026-04-19T10:19:40.07Z</time></trkpt><trkpt lat="44.8992617" lon="8.0180617"><ele>174.0</ele><time>2026-04-19T10:19:41.108Z</time></trkpt><trkpt lat="44.899325" lon="8.0182"><ele>174.0</ele><time>2026-04-19T10:19:42.066Z</time></trkpt><trkpt lat="44.8993933" lon="8.0183317"><ele>174.0</ele><time>2026-04-19T10:19:43.072Z</time></trkpt><trkpt lat="44.8994683" lon="8.0184467"><ele>174.0</ele><time>2026-04-19T10:19:44.065Z</time></trkpt><trkpt lat="44.8995517" lon="8.01855"><ele>173.5</ele><time>2026-04-19T10:19:45.068Z</time></trkpt><trkpt lat="44.8996467" lon="8.0186367"><ele>173.0</ele><time>2026-04-19T10:19:46.071Z</time></trkpt><trkpt lat="44.8997433" lon="8.0187067"><ele>172.5</ele><time>2026-04-19T10:19:47.113Z</time></trkpt><trkpt lat="44.8998483" lon="8.01877"><ele>172.0</ele><time>2026-04-19T10:19:48.077Z</time></trkpt><trkpt lat="44.899955" lon="8.01883"><ele>172.0</ele><time>2026-04-19T10:19:49.066Z</time></trkpt><trkpt lat="44.9000617" lon="8.0188967"><ele>172.0</ele><time>2026-04-19T10:19:50.069Z</time></trkpt><trkpt lat="44.9001733" lon="8.018975"><ele>172.0</ele><time>2026-04-19T10:19:51.068Z</time></trkpt><trkpt lat="44.9002867" lon="8.0190583"><ele>172.0</ele><time>2026-04-19T10:19:52.072Z</time></trkpt><trkpt lat="44.9004017" lon="8.0191483"><ele>171.5</ele><time>2026-04-19T10:19:53.11Z</time></trkpt><trkpt lat="44.9005083" lon="8.0192433"><ele>171.0</ele><time>2026-04-19T10:19:54.066Z</time></trkpt><trkpt lat="44.9006133" lon="8.0193433"><ele>170.5</ele><time>2026-04-19T10:19:55.074Z</time></trkpt><trkpt lat="44.9007167" lon="8.019435"><ele>170.0</ele><time>2026-04-19T10:19:56.065Z</time></trkpt><trkpt lat="44.90082" lon="8.019515"><ele>170.25</ele><time>2026-04-19T10:19:57.073Z</time></trkpt><trkpt lat="44.9009267" lon="8.01959"><ele>170.5</ele><time>2026-04-19T10:19:58.066Z</time></trkpt><trkpt lat="44.9010333" lon="8.019675"><ele>170.75</ele><time>2026-04-19T10:19:59.137Z</time></trkpt><trkpt lat="44.90114" lon="8.0197633"><ele>171.0</ele><time>2026-04-19T10:20:00.066Z</time></trkpt><trkpt lat="44.9012483" lon="8.0198533"><ele>171.0</ele><time>2026-04-19T10:20:01.065Z</time></trkpt><trkpt lat="44.90135" lon="8.0199483"><ele>171.0</ele><time>2026-04-19T10:20:02.066Z</time></trkpt><trkpt lat="44.9014517" lon="8.0200483"><ele>171.0</ele><time>2026-04-19T10:20:03.072Z</time></trkpt><trkpt lat="44.90155" lon="8.0201517"><ele>171.0</ele><time>2026-04-19T10:20:04.069Z</time></trkpt><trkpt lat="44.9016433" lon="8.0202533"><ele>170.8</ele><time>2026-04-19T10:20:05.128Z</time></trkpt><trkpt lat="44.9017283" lon="8.0203433"><ele>170.60000000000002</ele><time>2026-04-19T10:20:06.066Z</time></trkpt><trkpt lat="44.9018017" lon="8.0204117"><ele>170.4</ele><time>2026-04-19T10:20:07.068Z</time></trkpt><trkpt lat="44.9019033" lon="8.02042"><ele>170.2</ele><time>2026-04-19T10:20:09.069Z</time></trkpt><trkpt lat="44.9019967" lon="8.02034"><ele>170.0</ele><time>2026-04-19T10:20:11.103Z</time></trkpt><trkpt lat="44.9020533" lon="8.0202767"><ele>170.8</ele><time>2026-04-19T10:20:12.066Z</time></trkpt><trkpt lat="44.90212" lon="8.0202083"><ele>171.6</ele><time>2026-04-19T10:20:13.072Z</time></trkpt><trkpt lat="44.9021933" lon="8.0201333"><ele>172.39999999999998</ele><time>2026-04-19T10:20:14.072Z</time></trkpt><trkpt lat="44.90227" lon="8.0200533"><ele>173.2</ele><time>2026-04-19T10:20:15.07Z</time></trkpt><trkpt lat="44.9023517" lon="8.0199733"><ele>174.0</ele><time>2026-04-19T10:20:16.075Z</time></trkpt><trkpt lat="44.902435" lon="8.0198933"><ele>174.39999999999998</ele><time>2026-04-19T10:20:17.108Z</time></trkpt><trkpt lat="44.9025117" lon="8.0198183"><ele>174.8</ele><time>2026-04-19T10:20:18.062Z</time></trkpt><trkpt lat="44.9025833" lon="8.0197533"><ele>175.2</ele><time>2026-04-19T10:20:19.069Z</time></trkpt><trkpt lat="44.9026383" lon="8.0197067"><ele>175.60000000000002</ele><time>2026-04-19T10:20:20.068Z</time></trkpt><trkpt lat="44.9027267" lon="8.0197017"><ele>176.0</ele><time>2026-04-19T10:20:22.072Z</time></trkpt><trkpt lat="44.902825" lon="8.0198367"><ele>176.20000000000002</ele><time>2026-04-19T10:20:24.068Z</time></trkpt><trkpt lat="44.9028883" lon="8.0199383"><ele>176.4</ele><time>2026-04-19T10:20:25.072Z</time></trkpt><trkpt lat="44.9029617" lon="8.0200483"><ele>176.6</ele><time>2026-04-19T10:20:26.072Z</time></trkpt><trkpt lat="44.903045" lon="8.020165"><ele>176.8</ele><time>2026-04-19T10:20:27.075Z</time></trkpt><trkpt lat="44.90313" lon="8.0202867"><ele>177.0</ele><time>2026-04-19T10:20:28.069Z</time></trkpt><trkpt lat="44.9032233" lon="8.0204167"><ele>177.0</ele><time>2026-04-19T10:20:29.107Z</time></trkpt><trkpt lat="44.9033217" lon="8.02055"><ele>177.0</ele><time>2026-04-19T10:20:30.07Z</time></trkpt><trkpt lat="44.9034283" lon="8.0206867"><ele>177.0</ele><time>2026-04-19T10:20:31.069Z</time></trkpt><trkpt lat="44.90354" lon="8.02082"><ele>177.0</ele><time>2026-04-19T10:20:32.07Z</time></trkpt><trkpt lat="44.9036583" lon="8.02095"><ele>175.33333333333334</ele><time>2026-04-19T10:20:33.07Z</time></trkpt><trkpt lat="44.9037783" lon="8.0210833"><ele>173.66666666666669</ele><time>2026-04-19T10:20:34.07Z</time></trkpt><trkpt lat="44.9039" lon="8.0212167"><ele>172.0</ele><time>2026-04-19T10:20:35.125Z</time></trkpt><trkpt lat="44.904025" lon="8.021355"><ele>172.0</ele><time>2026-04-19T10:20:36.07Z</time></trkpt><trkpt lat="44.9041517" lon="8.0214967"><ele>172.0</ele><time>2026-04-19T10:20:37.072Z</time></trkpt><trkpt lat="44.90428" lon="8.02164"><ele>172.0</ele><time>2026-04-19T10:20:38.073Z</time></trkpt><trkpt lat="44.9044067" lon="8.0217833"><ele>171.0</ele><time>2026-04-19T10:20:39.073Z</time></trkpt><trkpt lat="44.9045283" lon="8.021925"><ele>170.0</ele><time>2026-04-19T10:20:40.075Z</time></trkpt><trkpt lat="44.90465" lon="8.0220683"><ele>169.0</ele><time>2026-04-19T10:20:41.114Z</time></trkpt><trkpt lat="44.9047667" lon="8.0222117"><ele>169.0</ele><time>2026-04-19T10:20:42.07Z</time></trkpt><trkpt lat="44.9048783" lon="8.0223567"><ele>169.0</ele><time>2026-04-19T10:20:43.071Z</time></trkpt><trkpt lat="44.9049833" lon="8.0225017"><ele>169.0</ele><time>2026-04-19T10:20:44.065Z</time></trkpt><trkpt lat="44.905085" lon="8.0226467"><ele>169.0</ele><time>2026-04-19T10:20:45.075Z</time></trkpt><trkpt lat="44.9051817" lon="8.0227917"><ele>171.75</ele><time>2026-04-19T10:20:46.068Z</time></trkpt><trkpt lat="44.9052733" lon="8.0229317"><ele>174.5</ele><time>2026-04-19T10:20:47.112Z</time></trkpt><trkpt lat="44.9053533" lon="8.0230617"><ele>177.25</ele><time>2026-04-19T10:20:48.07Z</time></trkpt><trkpt lat="44.9054267" lon="8.0231783"><ele>180.0</ele><time>2026-04-19T10:20:49.072Z</time></trkpt><trkpt lat="44.9054883" lon="8.023275"><ele>180.0</ele><time>2026-04-19T10:20:50.072Z</time></trkpt><trkpt lat="44.9055433" lon="8.0233533"><ele>180.0</ele><time>2026-04-19T10:20:51.064Z</time></trkpt><trkpt lat="44.9055967" lon="8.023405"><ele>180.0</ele><time>2026-04-19T10:20:52.074Z</time></trkpt><trkpt lat="44.9056867" lon="8.02336"><ele>180.0</ele><time>2026-04-19T10:20:54.071Z</time></trkpt><trkpt lat="44.9057333" lon="8.0232833"><ele>180.0</ele><time>2026-04-19T10:20:55.076Z</time></trkpt><trkpt lat="44.9057817" lon="8.023185"><ele>180.0</ele><time>2026-04-19T10:20:56.068Z</time></trkpt><trkpt lat="44.90582" lon="8.02307"><ele>180.0</ele><time>2026-04-19T10:20:57.063Z</time></trkpt><trkpt lat="44.9058533" lon="8.0229433"><ele>180.0</ele><time>2026-04-19T10:20:58.073Z</time></trkpt><trkpt lat="44.90587" lon="8.022795"><ele>180.0</ele><time>2026-04-19T10:20:59.134Z</time></trkpt><trkpt lat="44.9058783" lon="8.0226333"><ele>180.0</ele><time>2026-04-19T10:21:00.07Z</time></trkpt><trkpt lat="44.9058783" lon="8.0224583"><ele>180.0</ele><time>2026-04-19T10:21:01.075Z</time></trkpt><trkpt lat="44.9058683" lon="8.0222867"><ele>180.0</ele><time>2026-04-19T10:21:02.072Z</time></trkpt><trkpt lat="44.9058567" lon="8.0221133"><ele>180.0</ele><time>2026-04-19T10:21:03.068Z</time></trkpt><trkpt lat="44.90584" lon="8.0219367"><ele>180.0</ele><time>2026-04-19T10:21:04.071Z</time></trkpt><trkpt lat="44.9058233" lon="8.0217567"><ele>180.0</ele><time>2026-04-19T10:21:05.13Z</time></trkpt><trkpt lat="44.9058083" lon="8.021575"><ele>180.0</ele><time>2026-04-19T10:21:06.065Z</time></trkpt><trkpt lat="44.905795" lon="8.0214"><ele>180.0</ele><time>2026-04-19T10:21:07.07Z</time></trkpt><trkpt lat="44.905785" lon="8.021235"><ele>180.0</ele><time>2026-04-19T10:21:08.062Z</time></trkpt><trkpt lat="44.9057783" lon="8.0210867"><ele>180.0</ele><time>2026-04-19T10:21:09.073Z</time></trkpt><trkpt lat="44.9057717" lon="8.0209567"><ele>180.0</ele><time>2026-04-19T10:21:10.065Z</time></trkpt><trkpt lat="44.9057617" lon="8.0208517"><ele>180.4</ele><time>2026-04-19T10:21:11.115Z</time></trkpt><trkpt lat="44.9057517" lon="8.0207367"><ele>180.8</ele><time>2026-04-19T10:21:12.063Z</time></trkpt><trkpt lat="44.90574" lon="8.0206083"><ele>181.2</ele><time>2026-04-19T10:21:13.066Z</time></trkpt><trkpt lat="44.90573" lon="8.020465"><ele>181.6</ele><time>2026-04-19T10:21:14.07Z</time></trkpt><trkpt lat="44.9057233" lon="8.0203133"><ele>182.0</ele><time>2026-04-19T10:21:15.072Z</time></trkpt><trkpt lat="44.9057133" lon="8.0201567"><ele>182.0</ele><time>2026-04-19T10:21:16.073Z</time></trkpt><trkpt lat="44.9057017" lon="8.0199967"><ele>182.0</ele><time>2026-04-19T10:21:17.111Z</time></trkpt><trkpt lat="44.9056883" lon="8.01985"><ele>182.0</ele><time>2026-04-19T10:21:18.064Z</time></trkpt><trkpt lat="44.9056867" lon="8.01971"><ele>182.0</ele><time>2026-04-19T10:21:19.071Z</time></trkpt><trkpt lat="44.9056967" lon="8.019575"><ele>182.0</ele><time>2026-04-19T10:21:20.069Z</time></trkpt><trkpt lat="44.9057183" lon="8.0194383"><ele>181.5</ele><time>2026-04-19T10:21:21.07Z</time></trkpt><trkpt lat="44.9057583" lon="8.0193017"><ele>181.0</ele><time>2026-04-19T10:21:22.073Z</time></trkpt><trkpt lat="44.9058067" lon="8.0191583"><ele>180.5</ele><time>2026-04-19T10:21:23.114Z</time></trkpt><trkpt lat="44.9058667" lon="8.0190133"><ele>180.0</ele><time>2026-04-19T10:21:24.064Z</time></trkpt><trkpt lat="44.905935" lon="8.0188817"><ele>183.75</ele><time>2026-04-19T10:21:25.073Z</time></trkpt><trkpt lat="44.9060083" lon="8.018755"><ele>187.5</ele><time>2026-04-19T10:21:26.067Z</time></trkpt><trkpt lat="44.906085" lon="8.01863"><ele>191.25</ele><time>2026-04-19T10:21:27.07Z</time></trkpt><trkpt lat="44.9061617" lon="8.018505"><ele>195.0</ele><time>2026-04-19T10:21:28.064Z</time></trkpt><trkpt lat="44.9062417" lon="8.01838"><ele>192.5</ele><time>2026-04-19T10:21:29.133Z</time></trkpt><trkpt lat="44.9063217" lon="8.0182583"><ele>190.0</ele><time>2026-04-19T10:21:30.065Z</time></trkpt><trkpt lat="44.906405" lon="8.01813"><ele>187.5</ele><time>2026-04-19T10:21:31.069Z</time></trkpt><trkpt lat="44.9064883" lon="8.0179983"><ele>185.0</ele><time>2026-04-19T10:21:32.07Z</time></trkpt><trkpt lat="44.906575" lon="8.0178783"><ele>185.0</ele><time>2026-04-19T10:21:33.073Z</time></trkpt><trkpt lat="44.9066633" lon="8.01776"><ele>185.0</ele><time>2026-04-19T10:21:34.066Z</time></trkpt><trkpt lat="44.90676" lon="8.0176533"><ele>185.0</ele><time>2026-04-19T10:21:35.128Z</time></trkpt><trkpt lat="44.9068433" lon="8.0175367"><ele>185.0</ele><time>2026-04-19T10:21:36.067Z</time></trkpt><trkpt lat="44.906935" lon="8.0174267"><ele>187.0</ele><time>2026-04-19T10:21:37.068Z</time></trkpt><trkpt lat="44.907025" lon="8.0173033"><ele>189.0</ele><time>2026-04-19T10:21:38.072Z</time></trkpt><trkpt lat="44.90711" lon="8.0171633"><ele>191.0</ele><time>2026-04-19T10:21:39.069Z</time></trkpt><trkpt lat="44.9071883" lon="8.0170183"><ele>193.0</ele><time>2026-04-19T10:21:40.069Z</time></trkpt><trkpt lat="44.9072633" lon="8.0168667"><ele>193.0</ele><time>2026-04-19T10:21:41.108Z</time></trkpt><trkpt lat="44.9073417" lon="8.0167233"><ele>193.0</ele><time>2026-04-19T10:21:42.072Z</time></trkpt><trkpt lat="44.9074267" lon="8.0165867"><ele>193.0</ele><time>2026-04-19T10:21:43.068Z</time></trkpt><trkpt lat="44.9075067" lon="8.0164483"><ele>193.0</ele><time>2026-04-19T10:21:44.069Z</time></trkpt><trkpt lat="44.9075817" lon="8.0163083"><ele>192.5</ele><time>2026-04-19T10:21:45.067Z</time></trkpt><trkpt lat="44.9076467" lon="8.0161683"><ele>192.0</ele><time>2026-04-19T10:21:46.073Z</time></trkpt><trkpt lat="44.907705" lon="8.0160267"><ele>191.5</ele><time>2026-04-19T10:21:47.11Z</time></trkpt><trkpt lat="44.9077617" lon="8.015885"><ele>191.0</ele><time>2026-04-19T10:21:48.075Z</time></trkpt><trkpt lat="44.9078217" lon="8.0157417"><ele>191.0</ele><time>2026-04-19T10:21:49.071Z</time></trkpt><trkpt lat="44.9078817" lon="8.01559"><ele>191.0</ele><time>2026-04-19T10:21:50.071Z</time></trkpt><trkpt lat="44.9079417" lon="8.01544"><ele>191.0</ele><time>2026-04-19T10:21:51.072Z</time></trkpt><trkpt lat="44.9080017" lon="8.0152933"><ele>191.0</ele><time>2026-04-19T10:21:52.075Z</time></trkpt><trkpt lat="44.90806" lon="8.0151417"><ele>191.0</ele><time>2026-04-19T10:21:53.118Z</time></trkpt><trkpt lat="44.9081183" lon="8.0149933"><ele>191.0</ele><time>2026-04-19T10:21:54.066Z</time></trkpt><trkpt lat="44.9081733" lon="8.0148467"><ele>191.0</ele><time>2026-04-19T10:21:55.073Z</time></trkpt><trkpt lat="44.9082233" lon="8.014705"><ele>191.0</ele><time>2026-04-19T10:21:56.066Z</time></trkpt><trkpt lat="44.9082733" lon="8.0145683"><ele>190.20000000000002</ele><time>2026-04-19T10:21:57.075Z</time></trkpt><trkpt lat="44.90832" lon="8.0144417"><ele>189.4</ele><time>2026-04-19T10:21:58.072Z</time></trkpt><trkpt lat="44.9083733" lon="8.0143333"><ele>188.6</ele><time>2026-04-19T10:21:59.136Z</time></trkpt><trkpt lat="44.90843" lon="8.0142367"><ele>187.8</ele><time>2026-04-19T10:22:00.063Z</time></trkpt><trkpt lat="44.9084933" lon="8.0141483"><ele>187.0</ele><time>2026-04-19T10:22:01.06Z</time></trkpt><trkpt lat="44.9085483" lon="8.0140533"><ele>189.6</ele><time>2026-04-19T10:22:02.066Z</time></trkpt><trkpt lat="44.9085917" lon="8.0139567"><ele>192.2</ele><time>2026-04-19T10:22:03.073Z</time></trkpt><trkpt lat="44.9086267" lon="8.0138483"><ele>194.8</ele><time>2026-04-19T10:22:04.067Z</time></trkpt><trkpt lat="44.90866" lon="8.0137233"><ele>197.4</ele><time>2026-04-19T10:22:05.128Z</time></trkpt><trkpt lat="44.9086917" lon="8.0135733"><ele>200.0</ele><time>2026-04-19T10:22:06.067Z</time></trkpt><trkpt lat="44.9087167" lon="8.0134117"><ele>199.0</ele><time>2026-04-19T10:22:07.066Z</time></trkpt><trkpt lat="44.908735" lon="8.01324"><ele>198.0</ele><time>2026-04-19T10:22:08.074Z</time></trkpt><trkpt lat="44.90875" lon="8.0130767"><ele>197.0</ele><time>2026-04-19T10:22:09.07Z</time></trkpt><trkpt lat="44.908755" lon="8.0129167"><ele>196.0</ele><time>2026-04-19T10:22:10.068Z</time></trkpt><trkpt lat="44.90876" lon="8.0127817"><ele>195.0</ele><time>2026-04-19T10:22:11.109Z</time></trkpt><trkpt lat="44.9087717" lon="8.01265"><ele>195.0</ele><time>2026-04-19T10:22:12.067Z</time></trkpt><trkpt lat="44.9087933" lon="8.012525"><ele>195.0</ele><time>2026-04-19T10:22:13.066Z</time></trkpt><trkpt lat="44.90881" lon="8.0124233"><ele>195.0</ele><time>2026-04-19T10:22:14.073Z</time></trkpt><trkpt lat="44.9088083" lon="8.01233"><ele>195.0</ele><time>2026-04-19T10:22:15.068Z</time></trkpt><trkpt lat="44.9087833" lon="8.0122283"><ele>195.0</ele><time>2026-04-19T10:22:16.073Z</time></trkpt><trkpt lat="44.90874" lon="8.012115"><ele>195.0</ele><time>2026-04-19T10:22:17.111Z</time></trkpt><trkpt lat="44.908685" lon="8.01199"><ele>196.75</ele><time>2026-04-19T10:22:18.068Z</time></trkpt><trkpt lat="44.9086183" lon="8.0118583"><ele>198.5</ele><time>2026-04-19T10:22:19.074Z</time></trkpt><trkpt lat="44.9085483" lon="8.0117217"><ele>200.25</ele><time>2026-04-19T10:22:20.068Z</time></trkpt><trkpt lat="44.908475" lon="8.0115817"><ele>202.0</ele><time>2026-04-19T10:22:21.075Z</time></trkpt><trkpt lat="44.9084033" lon="8.0114417"><ele>202.0</ele><time>2026-04-19T10:22:22.064Z</time></trkpt><trkpt lat="44.9083283" lon="8.0113017"><ele>202.0</ele><time>2026-04-19T10:22:23.111Z</time></trkpt><trkpt lat="44.9082533" lon="8.0111567"><ele>202.0</ele><time>2026-04-19T10:22:24.062Z</time></trkpt><trkpt lat="44.908175" lon="8.01102"><ele>202.0</ele><time>2026-04-19T10:22:25.067Z</time></trkpt><trkpt lat="44.9080983" lon="8.0108867"><ele>204.2</ele><time>2026-04-19T10:22:26.067Z</time></trkpt><trkpt lat="44.9080283" lon="8.0107667"><ele>206.39999999999998</ele><time>2026-04-19T10:22:27.072Z</time></trkpt><trkpt lat="44.9079783" lon="8.0106633"><ele>208.60000000000002</ele><time>2026-04-19T10:22:28.072Z</time></trkpt><trkpt lat="44.907935" lon="8.0105583"><ele>210.8</ele><time>2026-04-19T10:22:29.138Z</time></trkpt><trkpt lat="44.9079067" lon="8.01045"><ele>213.0</ele><time>2026-04-19T10:22:30.069Z</time></trkpt><trkpt lat="44.907885" lon="8.0103283"><ele>213.0</ele><time>2026-04-19T10:22:31.076Z</time></trkpt><trkpt lat="44.90786" lon="8.0102"><ele>213.0</ele><time>2026-04-19T10:22:32.071Z</time></trkpt><trkpt lat="44.9078267" lon="8.0100633"><ele>213.0</ele><time>2026-04-19T10:22:33.071Z</time></trkpt><trkpt lat="44.9077883" lon="8.0099267"><ele>213.0</ele><time>2026-04-19T10:22:34.071Z</time></trkpt><trkpt lat="44.9077483" lon="8.0097867"><ele>213.0</ele><time>2026-04-19T10:22:35.121Z</time></trkpt><trkpt lat="44.907705" lon="8.009645"><ele>214.60000000000002</ele><time>2026-04-19T10:22:36.064Z</time></trkpt><trkpt lat="44.9076483" lon="8.00951"><ele>216.20000000000002</ele><time>2026-04-19T10:22:37.072Z</time></trkpt><trkpt lat="44.9075967" lon="8.0093817"><ele>217.8</ele><time>2026-04-19T10:22:38.069Z</time></trkpt><trkpt lat="44.9075583" lon="8.0092683"><ele>219.4</ele><time>2026-04-19T10:22:39.079Z</time></trkpt><trkpt lat="44.90753" lon="8.0091617"><ele>221.0</ele><time>2026-04-19T10:22:40.077Z</time></trkpt><trkpt lat="44.9075133" lon="8.0090467"><ele>217.4</ele><time>2026-04-19T10:22:41.109Z</time></trkpt><trkpt lat="44.9074783" lon="8.008895"><ele>213.8</ele><time>2026-04-19T10:22:42.069Z</time></trkpt><trkpt lat="44.90746" lon="8.0087633"><ele>210.20000000000002</ele><time>2026-04-19T10:22:43.072Z</time></trkpt><trkpt lat="44.9074383" lon="8.0086283"><ele>206.60000000000002</ele><time>2026-04-19T10:22:44.074Z</time></trkpt><trkpt lat="44.907415" lon="8.0084767"><ele>203.0</ele><time>2026-04-19T10:22:45.068Z</time></trkpt><trkpt lat="44.9073883" lon="8.00832"><ele>203.0</ele><time>2026-04-19T10:22:46.063Z</time></trkpt><trkpt lat="44.9073567" lon="8.0081717"><ele>203.0</ele><time>2026-04-19T10:22:47.098Z</time></trkpt><trkpt lat="44.9073333" lon="8.008035"><ele>203.0</ele><time>2026-04-19T10:22:48.068Z</time></trkpt><trkpt lat="44.9073017" lon="8.007915"><ele>203.0</ele><time>2026-04-19T10:22:49.068Z</time></trkpt><trkpt lat="44.90734" lon="8.0077933"><ele>203.0</ele><time>2026-04-19T10:22:52.072Z</time></trkpt><trkpt lat="44.9073683" lon="8.0076633"><ele>203.00000000000003</ele><time>2026-04-19T10:22:54.065Z</time></trkpt><trkpt lat="44.907385" lon="8.0075683"><ele>203.0</ele><time>2026-04-19T10:22:55.069Z</time></trkpt><trkpt lat="44.9074083" lon="8.00747"><ele>203.0</ele><time>2026-04-19T10:22:56.074Z</time></trkpt><trkpt lat="44.9074383" lon="8.0073767"><ele>203.0</ele><time>2026-04-19T10:22:57.078Z</time></trkpt><trkpt lat="44.9074733" lon="8.0072817"><ele>203.00000000000003</ele><time>2026-04-19T10:22:58.067Z</time></trkpt><trkpt lat="44.9075133" lon="8.0071733"><ele>203.0</ele><time>2026-04-19T10:22:59.133Z</time></trkpt><trkpt lat="44.90756" lon="8.0070617"><ele>203.2</ele><time>2026-04-19T10:23:00.071Z</time></trkpt><trkpt lat="44.9076183" lon="8.0069467"><ele>203.4</ele><time>2026-04-19T10:23:01.07Z</time></trkpt><trkpt lat="44.90768" lon="8.0068283"><ele>203.6</ele><time>2026-04-19T10:23:02.065Z</time></trkpt><trkpt lat="44.9077467" lon="8.0067033"><ele>203.79999999999998</ele><time>2026-04-19T10:23:03.065Z</time></trkpt><trkpt lat="44.90782" lon="8.0065733"><ele>204.0</ele><time>2026-04-19T10:23:04.076Z</time></trkpt><trkpt lat="44.9078983" lon="8.006445"><ele>204.0</ele><time>2026-04-19T10:23:05.125Z</time></trkpt><trkpt lat="44.9079667" lon="8.006305"><ele>204.0</ele><time>2026-04-19T10:23:06.065Z</time></trkpt><trkpt lat="44.9080267" lon="8.0061633"><ele>204.0</ele><time>2026-04-19T10:23:07.067Z</time></trkpt><trkpt lat="44.908085" lon="8.0060283"><ele>204.0</ele><time>2026-04-19T10:23:08.064Z</time></trkpt><trkpt lat="44.9081417" lon="8.0058967"><ele>204.75</ele><time>2026-04-19T10:23:09.068Z</time></trkpt><trkpt lat="44.9081967" lon="8.0057567"><ele>205.5</ele><time>2026-04-19T10:23:10.072Z</time></trkpt><trkpt lat="44.9082567" lon="8.0056133"><ele>206.25</ele><time>2026-04-19T10:23:11.103Z</time></trkpt><trkpt lat="44.9083283" lon="8.0054967"><ele>207.0</ele><time>2026-04-19T10:23:12.07Z</time></trkpt><trkpt lat="44.908395" lon="8.0053717"><ele>207.75</ele><time>2026-04-19T10:23:13.075Z</time></trkpt><trkpt lat="44.9084633" lon="8.0052417"><ele>208.5</ele><time>2026-04-19T10:23:14.069Z</time></trkpt><trkpt lat="44.9085283" lon="8.00511"><ele>209.25</ele><time>2026-04-19T10:23:15.067Z</time></trkpt><trkpt lat="44.9085917" lon="8.0049667"><ele>210.0</ele><time>2026-04-19T10:23:16.07Z</time></trkpt><trkpt lat="44.9086533" lon="8.0048317"><ele>208.4</ele><time>2026-04-19T10:23:17.103Z</time></trkpt><trkpt lat="44.908715" lon="8.0047067"><ele>206.8</ele><time>2026-04-19T10:23:18.066Z</time></trkpt><trkpt lat="44.908785" lon="8.0045917"><ele>205.2</ele><time>2026-04-19T10:23:19.074Z</time></trkpt><trkpt lat="44.90886" lon="8.0044733"><ele>203.6</ele><time>2026-04-19T10:23:20.074Z</time></trkpt><trkpt lat="44.9089333" lon="8.004365"><ele>202.0</ele><time>2026-04-19T10:23:21.067Z</time></trkpt><trkpt lat="44.9089983" lon="8.004265"><ele>201.99999999999997</ele><time>2026-04-19T10:23:22.073Z</time></trkpt><trkpt lat="44.9090617" lon="8.00418"><ele>202.0</ele><time>2026-04-19T10:23:23.099Z</time></trkpt><trkpt lat="44.90912" lon="8.0041283"><ele>202.0</ele><time>2026-04-19T10:23:24.069Z</time></trkpt><trkpt lat="44.909205" lon="8.004185"><ele>202.0</ele><time>2026-04-19T10:23:26.071Z</time></trkpt><trkpt lat="44.9092717" lon="8.00425"><ele>201.99999999999997</ele><time>2026-04-19T10:23:27.068Z</time></trkpt><trkpt lat="44.9093533" lon="8.0043333"><ele>202.0</ele><time>2026-04-19T10:23:28.067Z</time></trkpt><trkpt lat="44.9094467" lon="8.0044167"><ele>204.8</ele><time>2026-04-19T10:23:29.132Z</time></trkpt><trkpt lat="44.909545" lon="8.0045033"><ele>207.6</ele><time>2026-04-19T10:23:30.065Z</time></trkpt><trkpt lat="44.9096367" lon="8.00459"><ele>210.40000000000003</ele><time>2026-04-19T10:23:31.071Z</time></trkpt><trkpt lat="44.90972" lon="8.0046667"><ele>213.20000000000002</ele><time>2026-04-19T10:23:32.071Z</time></trkpt><trkpt lat="44.9098033" lon="8.0047383"><ele>216.0</ele><time>2026-04-19T10:23:33.068Z</time></trkpt><trkpt lat="44.90988" lon="8.0048017"><ele>216.0</ele><time>2026-04-19T10:23:34.08Z</time></trkpt><trkpt lat="44.9099517" lon="8.0048617"><ele>216.0</ele><time>2026-04-19T10:23:35.126Z</time></trkpt><trkpt lat="44.9100167" lon="8.0049183"><ele>216.0</ele><time>2026-04-19T10:23:36.065Z</time></trkpt><trkpt lat="44.910085" lon="8.0049733"><ele>216.0</ele><time>2026-04-19T10:23:37.074Z</time></trkpt><trkpt lat="44.910155" lon="8.0050233"><ele>216.0</ele><time>2026-04-19T10:23:38.063Z</time></trkpt><trkpt lat="44.910225" lon="8.00507"><ele>216.0</ele><time>2026-04-19T10:23:39.07Z</time></trkpt><trkpt lat="44.91029" lon="8.005115"><ele>219.66666666666666</ele><time>2026-04-19T10:23:40.063Z</time></trkpt><trkpt lat="44.9103833" lon="8.005215"><ele>223.33333333333331</ele><time>2026-04-19T10:23:42.06Z</time></trkpt><trkpt lat="44.9104233" lon="8.005285"><ele>227.0</ele><time>2026-04-19T10:23:43.063Z</time></trkpt><trkpt lat="44.910465" lon="8.005365"><ele>230.66666666666666</ele><time>2026-04-19T10:23:44.07Z</time></trkpt><trkpt lat="44.91051" lon="8.00546"><ele>234.33333333333331</ele><time>2026-04-19T10:23:45.07Z</time></trkpt><trkpt lat="44.910555" lon="8.0055367"><ele>238.0</ele><time>2026-04-19T10:23:46.069Z</time></trkpt><trkpt lat="44.9106467" lon="8.00563"><ele>237.99999999999997</ele><time>2026-04-19T10:23:48.071Z</time></trkpt><trkpt lat="44.9107433" lon="8.0055817"><ele>238.0</ele><time>2026-04-19T10:23:50.068Z</time></trkpt><trkpt lat="44.91078" lon="8.0054933"><ele>238.0</ele><time>2026-04-19T10:23:51.068Z</time></trkpt><trkpt lat="44.910815" lon="8.0053983"><ele>238.0</ele><time>2026-04-19T10:23:52.067Z</time></trkpt><trkpt lat="44.910855" lon="8.0053283"><ele>237.99999999999997</ele><time>2026-04-19T10:23:53.105Z</time></trkpt><trkpt lat="44.9109083" lon="8.00522"><ele>238.0</ele><time>2026-04-19T10:23:55.075Z</time></trkpt><trkpt lat="44.9109783" lon="8.00511"><ele>238.60000000000002</ele><time>2026-04-19T10:23:57.062Z</time></trkpt><trkpt lat="44.911025" lon="8.0050433"><ele>239.20000000000002</ele><time>2026-04-19T10:23:58.069Z</time></trkpt><trkpt lat="44.9111017" lon="8.004915"><ele>239.8</ele><time>2026-04-19T10:24:00.068Z</time></trkpt><trkpt lat="44.9111733" lon="8.0048317"><ele>240.4</ele><time>2026-04-19T10:24:02.073Z</time></trkpt><trkpt lat="44.9112483" lon="8.0048017"><ele>241.0</ele><time>2026-04-19T10:24:04.068Z</time></trkpt><trkpt lat="44.9113517" lon="8.0049183"><ele>241.0</ele><time>2026-04-19T10:24:06.067Z</time></trkpt><trkpt lat="44.9114183" lon="8.0050233"><ele>241.00000000000003</ele><time>2026-04-19T10:24:07.064Z</time></trkpt><trkpt lat="44.911485" lon="8.005145"><ele>241.00000000000003</ele><time>2026-04-19T10:24:08.072Z</time></trkpt><trkpt lat="44.911555" lon="8.0052783"><ele>241.0</ele><time>2026-04-19T10:24:09.072Z</time></trkpt><trkpt lat="44.9116133" lon="8.0053983"><ele>241.0</ele><time>2026-04-19T10:24:10.078Z</time></trkpt><trkpt lat="44.9116833" lon="8.00553"><ele>242.5</ele><time>2026-04-19T10:24:11.104Z</time></trkpt><trkpt lat="44.9117583" lon="8.0056633"><ele>244.0</ele><time>2026-04-19T10:24:12.08Z</time></trkpt><trkpt lat="44.9118317" lon="8.0057983"><ele>245.5</ele><time>2026-04-19T10:24:13.074Z</time></trkpt><trkpt lat="44.91191" lon="8.0059267"><ele>247.0</ele><time>2026-04-19T10:24:14.071Z</time></trkpt><trkpt lat="44.9119917" lon="8.0060433"><ele>248.0</ele><time>2026-04-19T10:24:15.074Z</time></trkpt><trkpt lat="44.9120833" lon="8.0061367"><ele>249.0</ele><time>2026-04-19T10:24:16.071Z</time></trkpt><trkpt lat="44.91218" lon="8.0062"><ele>250.0</ele><time>2026-04-19T10:24:17.106Z</time></trkpt><trkpt lat="44.91228" lon="8.0062367"><ele>251.0</ele><time>2026-04-19T10:24:18.071Z</time></trkpt><trkpt lat="44.9123667" lon="8.0062567"><ele>252.0</ele><time>2026-04-19T10:24:19.065Z</time></trkpt><trkpt lat="44.9124433" lon="8.0062667"><ele>252.0</ele><time>2026-04-19T10:24:20.074Z</time></trkpt><trkpt lat="44.9125567" lon="8.0062233"><ele>252.0</ele><time>2026-04-19T10:24:22.073Z</time></trkpt><trkpt lat="44.912645" lon="8.006095"><ele>252.0</ele><time>2026-04-19T10:24:24.063Z</time></trkpt><trkpt lat="44.9126967" lon="8.00602"><ele>252.0</ele><time>2026-04-19T10:24:25.068Z</time></trkpt><trkpt lat="44.912755" lon="8.00594"><ele>252.0</ele><time>2026-04-19T10:24:26.069Z</time></trkpt><trkpt lat="44.912815" lon="8.0058617"><ele>250.83333333333334</ele><time>2026-04-19T10:24:27.074Z</time></trkpt><trkpt lat="44.9128717" lon="8.0057783"><ele>249.66666666666669</ele><time>2026-04-19T10:24:28.069Z</time></trkpt><trkpt lat="44.9129267" lon="8.0056933"><ele>248.5</ele><time>2026-04-19T10:24:29.134Z</time></trkpt><trkpt lat="44.9129817" lon="8.0056133"><ele>247.33333333333334</ele><time>2026-04-19T10:24:30.067Z</time></trkpt><trkpt lat="44.91303" lon="8.0055483"><ele>246.16666666666669</ele><time>2026-04-19T10:24:31.069Z</time></trkpt><trkpt lat="44.913085" lon="8.005425"><ele>245.0</ele><time>2026-04-19T10:24:33.068Z</time></trkpt><trkpt lat="44.9131383" lon="8.0053433"><ele>245.0</ele><time>2026-04-19T10:24:35.118Z</time></trkpt><trkpt lat="44.91322" lon="8.005325"><ele>245.0</ele><time>2026-04-19T10:24:37.069Z</time></trkpt><trkpt lat="44.9133567" lon="8.0053083"><ele>245.0</ele><time>2026-04-19T10:24:39.073Z</time></trkpt><trkpt lat="44.9134467" lon="8.0052917"><ele>245.0</ele><time>2026-04-19T10:24:40.067Z</time></trkpt><trkpt lat="44.9135467" lon="8.005285"><ele>245.0</ele><time>2026-04-19T10:24:41.113Z</time></trkpt><trkpt lat="44.9136417" lon="8.0052917"><ele>245.2</ele><time>2026-04-19T10:24:42.065Z</time></trkpt><trkpt lat="44.9137333" lon="8.00532"><ele>245.4</ele><time>2026-04-19T10:24:43.067Z</time></trkpt><trkpt lat="44.9138283" lon="8.0053667"><ele>245.60000000000002</ele><time>2026-04-19T10:24:44.066Z</time></trkpt><trkpt lat="44.913925" lon="8.0054133"><ele>245.8</ele><time>2026-04-19T10:24:45.07Z</time></trkpt><trkpt lat="44.9140317" lon="8.0054483"><ele>246.0</ele><time>2026-04-19T10:24:46.071Z</time></trkpt><trkpt lat="44.914145" lon="8.00547"><ele>245.20000000000002</ele><time>2026-04-19T10:24:47.101Z</time></trkpt><trkpt lat="44.9142533" lon="8.0054883"><ele>244.40000000000003</ele><time>2026-04-19T10:24:48.067Z</time></trkpt><trkpt lat="44.914355" lon="8.0055083"><ele>243.6</ele><time>2026-04-19T10:24:49.06Z</time></trkpt><trkpt lat="44.9144583" lon="8.005525"><ele>242.8</ele><time>2026-04-19T10:24:50.071Z</time></trkpt><trkpt lat="44.9145633" lon="8.0055433"><ele>242.0</ele><time>2026-04-19T10:24:51.071Z</time></trkpt><trkpt lat="44.9146583" lon="8.0055617"><ele>242.0</ele><time>2026-04-19T10:24:52.065Z</time></trkpt><trkpt lat="44.9147383" lon="8.0055733"><ele>241.99999999999997</ele><time>2026-04-19T10:24:53.101Z</time></trkpt><trkpt lat="44.9148117" lon="8.0055833"><ele>242.0</ele><time>2026-04-19T10:24:54.067Z</time></trkpt><trkpt lat="44.91488" lon="8.0055983"><ele>242.0</ele><time>2026-04-19T10:24:55.064Z</time></trkpt><trkpt lat="44.914945" lon="8.0056117"><ele>241.99999999999997</ele><time>2026-04-19T10:24:56.062Z</time></trkpt><trkpt lat="44.91501" lon="8.005625"><ele>242.0</ele><time>2026-04-19T10:24:57.067Z</time></trkpt><trkpt lat="44.9150767" lon="8.0056383"><ele>242.0</ele><time>2026-04-19T10:24:58.065Z</time></trkpt><trkpt lat="44.9151417" lon="8.0056483"><ele>239.50000000000003</ele><time>2026-04-19T10:24:59.13Z</time></trkpt><trkpt lat="44.9152083" lon="8.0056567"><ele>237.0</ele><time>2026-04-19T10:25:00.065Z</time></trkpt><trkpt lat="44.9152817" lon="8.0056567"><ele>234.5</ele><time>2026-04-19T10:25:01.062Z</time></trkpt><trkpt lat="44.91536" lon="8.0056617"><ele>232.0</ele><time>2026-04-19T10:25:02.066Z</time></trkpt><trkpt lat="44.9154483" lon="8.0056717"><ele>229.50000000000003</ele><time>2026-04-19T10:25:03.068Z</time></trkpt><trkpt lat="44.91554" lon="8.005685"><ele>227.0</ele><time>2026-04-19T10:25:04.07Z</time></trkpt><trkpt lat="44.91565" lon="8.0057017"><ele>227.0</ele><time>2026-04-19T10:25:05.137Z</time></trkpt><trkpt lat="44.9157633" lon="8.0057233"><ele>227.0</ele><time>2026-04-19T10:25:06.07Z</time></trkpt><trkpt lat="44.915885" lon="8.0057483"><ele>227.0</ele><time>2026-04-19T10:25:07.071Z</time></trkpt><trkpt lat="44.9159983" lon="8.005765"><ele>227.0</ele><time>2026-04-19T10:25:08.064Z</time></trkpt><trkpt lat="44.9161" lon="8.0057817"><ele>225.6</ele><time>2026-04-19T10:25:09.074Z</time></trkpt><trkpt lat="44.9161933" lon="8.0058017"><ele>224.2</ele><time>2026-04-19T10:25:10.072Z</time></trkpt><trkpt lat="44.9162883" lon="8.0058267"><ele>222.8</ele><time>2026-04-19T10:25:11.104Z</time></trkpt><trkpt lat="44.9163783" lon="8.0058483"><ele>221.4</ele><time>2026-04-19T10:25:12.064Z</time></trkpt><trkpt lat="44.91646" lon="8.0058733"><ele>220.0</ele><time>2026-04-19T10:25:13.07Z</time></trkpt><trkpt lat="44.9165417" lon="8.005905"><ele>219.99999999999997</ele><time>2026-04-19T10:25:14.071Z</time></trkpt><trkpt lat="44.9166183" lon="8.0059433"><ele>220.0</ele><time>2026-04-19T10:25:15.076Z</time></trkpt><trkpt lat="44.916685" lon="8.0059817"><ele>220.0</ele><time>2026-04-19T10:25:16.067Z</time></trkpt><trkpt lat="44.916745" lon="8.006025"><ele>220.0</ele><time>2026-04-19T10:25:17.106Z</time></trkpt><trkpt lat="44.9168467" lon="8.0060967"><ele>219.99999999999997</ele><time>2026-04-19T10:25:19.066Z</time></trkpt><trkpt lat="44.9169433" lon="8.006105"><ele>220.0</ele><time>2026-04-19T10:25:21.066Z</time></trkpt><trkpt lat="44.9170533" lon="8.0060183"><ele>219.49999999999997</ele><time>2026-04-19T10:25:23.109Z</time></trkpt><trkpt lat="44.9171033" lon="8.0059567"><ele>219.0</ele><time>2026-04-19T10:25:24.065Z</time></trkpt><trkpt lat="44.9171917" lon="8.00586"><ele>218.5</ele><time>2026-04-19T10:25:26.07Z</time></trkpt><trkpt lat="44.9172717" lon="8.0058433"><ele>218.0</ele><time>2026-04-19T10:25:28.068Z</time></trkpt><trkpt lat="44.9173383" lon="8.005915"><ele>217.49999999999997</ele><time>2026-04-19T10:25:30.064Z</time></trkpt><trkpt lat="44.9174017" lon="8.0059117"><ele>217.0</ele><time>2026-04-19T10:25:36.065Z</time></trkpt><trkpt lat="44.91746" lon="8.0058583"><ele>216.33333333333331</ele><time>2026-04-19T10:25:38.067Z</time></trkpt><trkpt lat="44.917545" lon="8.00582"><ele>215.66666666666666</ele><time>2026-04-19T10:25:40.065Z</time></trkpt><trkpt lat="44.9176367" lon="8.0057933"><ele>215.0</ele><time>2026-04-19T10:25:42.065Z</time></trkpt><trkpt lat="44.9177083" lon="8.0057617"><ele>214.33333333333331</ele><time>2026-04-19T10:25:44.066Z</time></trkpt><trkpt lat="44.91776" lon="8.0057"><ele>213.66666666666666</ele><time>2026-04-19T10:25:46.074Z</time></trkpt><trkpt lat="44.9178067" lon="8.0056333"><ele>213.0</ele><time>2026-04-19T10:25:48.062Z</time></trkpt><trkpt lat="44.9178617" lon="8.00558"><ele>209.66666666666666</ele><time>2026-04-19T10:25:50.065Z</time></trkpt><trkpt lat="44.917925" lon="8.0055067"><ele>206.33333333333331</ele><time>2026-04-19T10:25:53.103Z</time></trkpt><trkpt lat="44.9179217" lon="8.0053967"><ele>203.0</ele><time>2026-04-19T10:26:01.065Z</time></trkpt><trkpt lat="44.91797" lon="8.005325"><ele>199.66666666666666</ele><time>2026-04-19T10:26:07.061Z</time></trkpt><trkpt lat="44.9179817" lon="8.005235"><ele>196.33333333333331</ele><time>2026-04-19T10:26:11.098Z</time></trkpt><trkpt lat="44.918055" lon="8.005175"><ele>193.0</ele><time>2026-04-19T10:26:15.065Z</time></trkpt><trkpt lat="44.9181017" lon="8.0050883"><ele>191.49999999999997</ele><time>2026-04-19T10:26:19.065Z</time></trkpt><trkpt lat="44.9181533" lon="8.004995"><ele>190.0</ele><time>2026-04-19T10:26:23.099Z</time></trkpt><trkpt lat="44.918195" lon="8.0049167"><ele>188.5</ele><time>2026-04-19T10:26:26.065Z</time></trkpt><trkpt lat="44.9182367" lon="8.0048267"><ele>187.0</ele><time>2026-04-19T10:26:29.123Z</time></trkpt><trkpt lat="44.9182733" lon="8.0047333"><ele>185.5</ele><time>2026-04-19T10:26:32.068Z</time></trkpt><trkpt lat="44.9182633" lon="8.0046267"><ele>184.0</ele><time>2026-04-19T10:26:36.067Z</time></trkpt><trkpt lat="44.9182433" lon="8.0045233"><ele>184.0</ele><time>2026-04-19T10:26:39.065Z</time></trkpt><trkpt lat="44.918245" lon="8.004395"><ele>184.0</ele><time>2026-04-19T10:26:42.065Z</time></trkpt><trkpt lat="44.9182367" lon="8.00429"><ele>184.0</ele><time>2026-04-19T10:26:45.066Z</time></trkpt><trkpt lat="44.91822" lon="8.0041567"><ele>184.0</ele><time>2026-04-19T10:26:48.067Z</time></trkpt><trkpt lat="44.9182083" lon="8.004045"><ele>184.0</ele><time>2026-04-19T10:26:51.072Z</time></trkpt><trkpt lat="44.91822" lon="8.0039333"><ele>184.0</ele><time>2026-04-19T10:26:53.094Z</time></trkpt><trkpt lat="44.91822" lon="8.0038067"><ele>182.83333333333334</ele><time>2026-04-19T10:26:55.067Z</time></trkpt><trkpt lat="44.9182217" lon="8.003695"><ele>181.66666666666669</ele><time>2026-04-19T10:26:57.065Z</time></trkpt><trkpt lat="44.9182633" lon="8.003595"><ele>180.5</ele><time>2026-04-19T10:26:59.135Z</time></trkpt><trkpt lat="44.9183183" lon="8.0035167"><ele>179.33333333333334</ele><time>2026-04-19T10:27:01.065Z</time></trkpt><trkpt lat="44.9183417" lon="8.0034017"><ele>178.16666666666666</ele><time>2026-04-19T10:27:04.068Z</time></trkpt><trkpt lat="44.9183017" lon="8.0032883"><ele>177.0</ele><time>2026-04-19T10:27:06.066Z</time></trkpt><trkpt lat="44.9182467" lon="8.0031583"><ele>176.2</ele><time>2026-04-19T10:27:08.065Z</time></trkpt><trkpt lat="44.9182033" lon="8.003065"><ele>175.39999999999998</ele><time>2026-04-19T10:27:10.07Z</time></trkpt><trkpt lat="44.9181433" lon="8.0030033"><ele>174.60000000000002</ele><time>2026-04-19T10:27:12.064Z</time></trkpt><trkpt lat="44.9180267" lon="8.0029717"><ele>173.8</ele><time>2026-04-19T10:27:14.063Z</time></trkpt><trkpt lat="44.9179567" lon="8.002965"><ele>173.0</ele><time>2026-04-19T10:27:15.065Z</time></trkpt><trkpt lat="44.9178433" lon="8.0029367"><ele>173.0</ele><time>2026-04-19T10:27:17.107Z</time></trkpt><trkpt lat="44.9177433" lon="8.0028817"><ele>173.0</ele><time>2026-04-19T10:27:19.066Z</time></trkpt><trkpt lat="44.9176617" lon="8.00283"><ele>173.0</ele><time>2026-04-19T10:27:21.067Z</time></trkpt><trkpt lat="44.91758" lon="8.0028167"><ele>173.0</ele><time>2026-04-19T10:27:23.102Z</time></trkpt><trkpt lat="44.9174767" lon="8.0027767"><ele>173.0</ele><time>2026-04-19T10:27:25.062Z</time></trkpt><trkpt lat="44.9173817" lon="8.0027283"><ele>173.60000000000002</ele><time>2026-04-19T10:27:27.073Z</time></trkpt><trkpt lat="44.91732" lon="8.0027083"><ele>174.20000000000002</ele><time>2026-04-19T10:27:29.124Z</time></trkpt><trkpt lat="44.917245" lon="8.0025867"><ele>174.8</ele><time>2026-04-19T10:29:43.065Z</time></trkpt><trkpt lat="44.9170833" lon="8.0025333"><ele>175.4</ele><time>2026-04-19T10:29:58.068Z</time></trkpt><trkpt lat="44.91702" lon="8.0024783"><ele>176.0</ele><time>2026-04-19T10:30:24.063Z</time></trkpt><trkpt lat="44.91694" lon="8.0023667"><ele>175.66666666666666</ele><time>2026-04-19T10:30:46.069Z</time></trkpt><trkpt lat="44.916835" lon="8.00235"><ele>175.33333333333331</ele><time>2026-04-19T10:30:48.061Z</time></trkpt><trkpt lat="44.9167683" lon="8.0023317"><ele>175.0</ele><time>2026-04-19T10:30:49.069Z</time></trkpt><trkpt lat="44.9167" lon="8.0023067"><ele>174.66666666666666</ele><time>2026-04-19T10:30:50.068Z</time></trkpt><trkpt lat="44.9166383" lon="8.0022767"><ele>174.33333333333334</ele><time>2026-04-19T10:30:51.07Z</time></trkpt><trkpt lat="44.9165767" lon="8.00224"><ele>174.0</ele><time>2026-04-19T10:30:52.068Z</time></trkpt><trkpt lat="44.9164833" lon="8.0021417"><ele>174.0</ele><time>2026-04-19T10:30:54.065Z</time></trkpt><trkpt lat="44.91644" lon="8.002065"><ele>174.0</ele><time>2026-04-19T10:30:55.068Z</time></trkpt><trkpt lat="44.916395" lon="8.00198"><ele>174.0</ele><time>2026-04-19T10:30:56.064Z</time></trkpt><trkpt lat="44.91635" lon="8.0018983"><ele>174.0</ele><time>2026-04-19T10:30:57.065Z</time></trkpt><trkpt lat="44.9163167" lon="8.0018083"><ele>174.0</ele><time>2026-04-19T10:30:58.069Z</time></trkpt><trkpt lat="44.916285" lon="8.001725"><ele>174.0</ele><time>2026-04-19T10:30:59.132Z</time></trkpt><trkpt lat="44.91622" lon="8.001595"><ele>173.66666666666666</ele><time>2026-04-19T10:31:01.067Z</time></trkpt><trkpt lat="44.9161783" lon="8.001525"><ele>173.33333333333334</ele><time>2026-04-19T10:31:03.058Z</time></trkpt><trkpt lat="44.916115" lon="8.0014733"><ele>173.0</ele><time>2026-04-19T10:31:06.061Z</time></trkpt><trkpt lat="44.91605" lon="8.0014367"><ele>172.66666666666669</ele><time>2026-04-19T10:31:08.068Z</time></trkpt><trkpt lat="44.915955" lon="8.0013833"><ele>172.33333333333334</ele><time>2026-04-19T10:31:10.057Z</time></trkpt><trkpt lat="44.9158933" lon="8.0013517"><ele>172.0</ele><time>2026-04-19T10:31:11.107Z</time></trkpt><trkpt lat="44.915825" lon="8.0013083"><ele>172.66666666666669</ele><time>2026-04-19T10:31:12.06Z</time></trkpt><trkpt lat="44.9157683" lon="8.0012617"><ele>173.33333333333334</ele><time>2026-04-19T10:31:13.062Z</time></trkpt><trkpt lat="44.915715" lon="8.00121"><ele>174.0</ele><time>2026-04-19T10:31:14.063Z</time></trkpt><trkpt lat="44.915645" lon="8.001095"><ele>174.66666666666666</ele><time>2026-04-19T10:31:16.074Z</time></trkpt><trkpt lat="44.915575" lon="8.0010233"><ele>175.33333333333331</ele><time>2026-04-19T10:31:17.1Z</time></trkpt><trkpt lat="44.915515" lon="8.0009417"><ele>176.0</ele><time>2026-04-19T10:31:18.067Z</time></trkpt><trkpt lat="44.9154617" lon="8.0008483"><ele>175.16666666666666</ele><time>2026-04-19T10:31:19.067Z</time></trkpt><trkpt lat="44.9154267" lon="8.00076"><ele>174.33333333333331</ele><time>2026-04-19T10:31:20.066Z</time></trkpt><trkpt lat="44.9154033" lon="8.000675"><ele>173.5</ele><time>2026-04-19T10:31:21.066Z</time></trkpt><trkpt lat="44.9153967" lon="8.0005833"><ele>172.66666666666666</ele><time>2026-04-19T10:31:22.061Z</time></trkpt><trkpt lat="44.9153733" lon="8.000495"><ele>171.83333333333334</ele><time>2026-04-19T10:31:23.103Z</time></trkpt><trkpt lat="44.9152833" lon="8.000345"><ele>171.0</ele><time>2026-04-19T10:31:25.068Z</time></trkpt><trkpt lat="44.91522" lon="8.0002667"><ele>171.0</ele><time>2026-04-19T10:31:26.061Z</time></trkpt><trkpt lat="44.9151583" lon="8.00018"><ele>171.0</ele><time>2026-04-19T10:31:27.069Z</time></trkpt><trkpt lat="44.9150883" lon="8.0000783"><ele>171.0</ele><time>2026-04-19T10:31:28.068Z</time></trkpt><trkpt lat="44.9150233" lon="7.9999783"><ele>171.0</ele><time>2026-04-19T10:31:29.133Z</time></trkpt><trkpt lat="44.914965" lon="7.9998867"><ele>171.0</ele><time>2026-04-19T10:31:30.061Z</time></trkpt><trkpt lat="44.91492" lon="7.999795"><ele>172.42857142857142</ele><time>2026-04-19T10:31:31.061Z</time></trkpt><trkpt lat="44.9148967" lon="7.9996967"><ele>173.85714285714286</ele><time>2026-04-19T10:31:32.067Z</time></trkpt><trkpt lat="44.91487" lon="7.9995933"><ele>175.28571428571428</ele><time>2026-04-19T10:31:33.062Z</time></trkpt><trkpt lat="44.91484" lon="7.9995017"><ele>176.71428571428572</ele><time>2026-04-19T10:31:34.071Z</time></trkpt><trkpt lat="44.9147983" lon="7.9994183"><ele>178.14285714285714</ele><time>2026-04-19T10:31:35.127Z</time></trkpt><trkpt lat="44.914755" lon="7.9993433"><ele>179.57142857142856</ele><time>2026-04-19T10:31:36.059Z</time></trkpt><trkpt lat="44.9147083" lon="7.9992717"><ele>181.0</ele><time>2026-04-19T10:31:37.068Z</time></trkpt><trkpt lat="44.914655" lon="7.999135"><ele>181.0</ele><time>2026-04-19T10:31:39.068Z</time></trkpt><trkpt lat="44.9146333" lon="7.9989783"><ele>181.0</ele><time>2026-04-19T10:31:41.102Z</time></trkpt><trkpt lat="44.9145967" lon="7.9988283"><ele>181.0</ele><time>2026-04-19T10:31:43.071Z</time></trkpt><trkpt lat="44.914555" lon="7.9987467"><ele>181.0</ele><time>2026-04-19T10:31:44.063Z</time></trkpt><trkpt lat="44.914525" lon="7.9986583"><ele>181.0</ele><time>2026-04-19T10:31:45.065Z</time></trkpt><trkpt lat="44.9144983" lon="7.9985617"><ele>181.0</ele><time>2026-04-19T10:31:46.069Z</time></trkpt><trkpt lat="44.9144667" lon="7.99847"><ele>180.83333333333334</ele><time>2026-04-19T10:31:47.105Z</time></trkpt><trkpt lat="44.9144067" lon="7.99833"><ele>180.66666666666669</ele><time>2026-04-19T10:31:49.069Z</time></trkpt><trkpt lat="44.9143483" lon="7.998265"><ele>180.5</ele><time>2026-04-19T10:31:51.069Z</time></trkpt><trkpt lat="44.9142717" lon="7.9982483"><ele>180.33333333333334</ele><time>2026-04-19T10:31:53.101Z</time></trkpt><trkpt lat="44.9142117" lon="7.99821"><ele>180.16666666666666</ele><time>2026-04-19T10:31:55.066Z</time></trkpt><trkpt lat="44.9141367" lon="7.9982333"><ele>180.0</ele><time>2026-04-19T10:32:00.061Z</time></trkpt><trkpt lat="44.9140733" lon="7.99825"><ele>181.2</ele><time>2026-04-19T10:32:02.065Z</time></trkpt><trkpt lat="44.9139883" lon="7.9982383"><ele>182.4</ele><time>2026-04-19T10:32:04.07Z</time></trkpt><trkpt lat="44.9138883" lon="7.998215"><ele>183.60000000000002</ele><time>2026-04-19T10:32:06.07Z</time></trkpt><trkpt lat="44.91378" lon="7.998195"><ele>184.8</ele><time>2026-04-19T10:32:08.066Z</time></trkpt><trkpt lat="44.91366" lon="7.9981783"><ele>186.0</ele><time>2026-04-19T10:32:10.069Z</time></trkpt><trkpt lat="44.9135983" lon="7.9981583"><ele>186.0</ele><time>2026-04-19T10:32:11.102Z</time></trkpt><trkpt lat="44.9134983" lon="7.9980983"><ele>186.0</ele><time>2026-04-19T10:32:13.061Z</time></trkpt><trkpt lat="44.91344" lon="7.9980067"><ele>186.0</ele><time>2026-04-19T10:32:15.064Z</time></trkpt><trkpt lat="44.9134217" lon="7.997905"><ele>186.0</ele><time>2026-04-19T10:32:18.064Z</time></trkpt><trkpt lat="44.9134733" lon="7.9978083"><ele>186.0</ele><time>2026-04-19T10:32:21.068Z</time></trkpt><trkpt lat="44.9135183" lon="7.9977383"><ele>186.0</ele><time>2026-04-19T10:32:23.1Z</time></trkpt><trkpt lat="44.9135617" lon="7.9976417"><ele>186.0</ele><time>2026-04-19T10:32:26.07Z</time></trkpt><trkpt lat="44.913575" lon="7.9975217"><ele>186.0</ele><time>2026-04-19T10:32:30.066Z</time></trkpt><trkpt lat="44.9134933" lon="7.9974367"><ele>186.0</ele><time>2026-04-19T10:32:34.068Z</time></trkpt><trkpt lat="44.9134183" lon="7.9974267"><ele>186.0</ele><time>2026-04-19T10:32:35.128Z</time></trkpt><trkpt lat="44.913345" lon="7.9974133"><ele>186.0</ele><time>2026-04-19T10:32:36.058Z</time></trkpt><trkpt lat="44.9132417" lon="7.99735"><ele>186.0</ele><time>2026-04-19T10:32:38.067Z</time></trkpt><trkpt lat="44.9131833" lon="7.99725"><ele>186.66666666666666</ele><time>2026-04-19T10:32:40.069Z</time></trkpt><trkpt lat="44.9131533" lon="7.997165"><ele>187.33333333333334</ele><time>2026-04-19T10:32:42.062Z</time></trkpt><trkpt lat="44.9131283" lon="7.9970783"><ele>188.0</ele><time>2026-04-19T10:32:44.071Z</time></trkpt><trkpt lat="44.9131217" lon="7.9969533"><ele>188.66666666666669</ele><time>2026-04-19T10:32:47.103Z</time></trkpt><trkpt lat="44.9131067" lon="7.9968233"><ele>189.33333333333334</ele><time>2026-04-19T10:32:50.066Z</time></trkpt><trkpt lat="44.9130883" lon="7.99672"><ele>190.0</ele><time>2026-04-19T10:32:52.066Z</time></trkpt><trkpt lat="44.913085" lon="7.9965983"><ele>188.2</ele><time>2026-04-19T10:32:54.061Z</time></trkpt><trkpt lat="44.91307" lon="7.996465"><ele>186.4</ele><time>2026-04-19T10:32:56.069Z</time></trkpt><trkpt lat="44.9130483" lon="7.9963133"><ele>184.60000000000002</ele><time>2026-04-19T10:32:58.069Z</time></trkpt><trkpt lat="44.9130117" lon="7.9961867"><ele>182.8</ele><time>2026-04-19T10:33:00.064Z</time></trkpt><trkpt lat="44.9130183" lon="7.996065"><ele>181.0</ele><time>2026-04-19T10:33:02.065Z</time></trkpt><trkpt lat="44.9130533" lon="7.99591"><ele>180.66666666666669</ele><time>2026-04-19T10:33:04.068Z</time></trkpt><trkpt lat="44.9130733" lon="7.9958167"><ele>180.33333333333334</ele><time>2026-04-19T10:33:05.121Z</time></trkpt><trkpt lat="44.9130967" lon="7.9957183"><ele>180.0</ele><time>2026-04-19T10:33:06.061Z</time></trkpt><trkpt lat="44.9131217" lon="7.995625"><ele>179.66666666666666</ele><time>2026-04-19T10:33:07.068Z</time></trkpt><trkpt lat="44.9131433" lon="7.9955233"><ele>179.33333333333331</ele><time>2026-04-19T10:33:08.066Z</time></trkpt><trkpt lat="44.9131583" lon="7.995425"><ele>179.0</ele><time>2026-04-19T10:33:09.071Z</time></trkpt><trkpt lat="44.9131517" lon="7.9952617"><ele>179.0</ele><time>2026-04-19T10:33:11.099Z</time></trkpt><trkpt lat="44.9130983" lon="7.99515"><ele>179.0</ele><time>2026-04-19T10:33:13.07Z</time></trkpt><trkpt lat="44.91305" lon="7.995045"><ele>179.0</ele><time>2026-04-19T10:33:15.07Z</time></trkpt><trkpt lat="44.9130417" lon="7.9949533"><ele>179.0</ele><time>2026-04-19T10:33:17.099Z</time></trkpt><trkpt lat="44.9130617" lon="7.994815"><ele>179.0</ele><time>2026-04-19T10:33:25.067Z</time></trkpt><trkpt lat="44.9130867" lon="7.994715"><ele>179.0</ele><time>2026-04-19T10:33:28.069Z</time></trkpt><trkpt lat="44.913015" lon="7.994685"><ele>179.0</ele><time>2026-04-19T10:33:41.101Z</time></trkpt><trkpt lat="44.9129017" lon="7.9947"><ele>179.0</ele><time>2026-04-19T10:33:43.061Z</time></trkpt><trkpt lat="44.912825" lon="7.9947117"><ele>179.0</ele><time>2026-04-19T10:33:44.062Z</time></trkpt><trkpt lat="44.912745" lon="7.9947333"><ele>179.0</ele><time>2026-04-19T10:33:45.069Z</time></trkpt><trkpt lat="44.9126517" lon="7.9947683"><ele>179.0</ele><time>2026-04-19T10:33:46.066Z</time></trkpt><trkpt lat="44.9125633" lon="7.9948067"><ele>179.39999999999998</ele><time>2026-04-19T10:33:47.101Z</time></trkpt><trkpt lat="44.91248" lon="7.99485"><ele>179.8</ele><time>2026-04-19T10:33:48.065Z</time></trkpt><trkpt lat="44.9123917" lon="7.994895"><ele>180.2</ele><time>2026-04-19T10:33:49.059Z</time></trkpt><trkpt lat="44.9123" lon="7.9949433"><ele>180.60000000000002</ele><time>2026-04-19T10:33:50.068Z</time></trkpt><trkpt lat="44.9122133" lon="7.9949933"><ele>181.0</ele><time>2026-04-19T10:33:51.073Z</time></trkpt><trkpt lat="44.9121367" lon="7.995035"><ele>181.5</ele><time>2026-04-19T10:33:52.067Z</time></trkpt><trkpt lat="44.9120667" lon="7.9950683"><ele>182.0</ele><time>2026-04-19T10:33:53.108Z</time></trkpt><trkpt lat="44.9119967" lon="7.995085"><ele>182.5</ele><time>2026-04-19T10:33:54.063Z</time></trkpt><trkpt lat="44.91192" lon="7.9950983"><ele>183.0</ele><time>2026-04-19T10:33:55.063Z</time></trkpt><trkpt lat="44.9118267" lon="7.995115"><ele>183.5</ele><time>2026-04-19T10:33:56.064Z</time></trkpt><trkpt lat="44.91173" lon="7.995135"><ele>184.0</ele><time>2026-04-19T10:33:57.067Z</time></trkpt><trkpt lat="44.9116283" lon="7.99516"><ele>184.79999999999998</ele><time>2026-04-19T10:33:58.068Z</time></trkpt><trkpt lat="44.91153" lon="7.99519"><ele>185.6</ele><time>2026-04-19T10:33:59.128Z</time></trkpt><trkpt lat="44.9114467" lon="7.9952267"><ele>186.4</ele><time>2026-04-19T10:34:00.063Z</time></trkpt><trkpt lat="44.9113683" lon="7.99526"><ele>187.2</ele><time>2026-04-19T10:34:01.068Z</time></trkpt><trkpt lat="44.9113067" lon="7.9952817"><ele>188.0</ele><time>2026-04-19T10:34:02.069Z</time></trkpt><trkpt lat="44.9111817" lon="7.9952633"><ele>188.0</ele><time>2026-04-19T10:34:04.062Z</time></trkpt><trkpt lat="44.9111117" lon="7.99525"><ele>188.0</ele><time>2026-04-19T10:34:05.124Z</time></trkpt><trkpt lat="44.9110283" lon="7.9952267"><ele>188.0</ele><time>2026-04-19T10:34:06.062Z</time></trkpt><trkpt lat="44.910955" lon="7.9952083"><ele>188.0</ele><time>2026-04-19T10:34:07.064Z</time></trkpt><trkpt lat="44.9108883" lon="7.9951883"><ele>188.0</ele><time>2026-04-19T10:34:08.063Z</time></trkpt><trkpt lat="44.9108" lon="7.9951733"><ele>188.0</ele><time>2026-04-19T10:34:10.064Z</time></trkpt><trkpt lat="44.910725" lon="7.9951533"><ele>189.0</ele><time>2026-04-19T10:34:13.066Z</time></trkpt><trkpt lat="44.9106567" lon="7.9951117"><ele>190.0</ele><time>2026-04-19T10:34:21.063Z</time></trkpt><trkpt lat="44.9106183" lon="7.99503"><ele>191.0</ele><time>2026-04-19T10:34:23.098Z</time></trkpt><trkpt lat="44.91052" lon="7.9949183"><ele>192.0</ele><time>2026-04-19T10:34:25.07Z</time></trkpt><trkpt lat="44.9104333" lon="7.9948217"><ele>193.0</ele><time>2026-04-19T10:34:27.063Z</time></trkpt><trkpt lat="44.910385" lon="7.994745"><ele>191.0</ele><time>2026-04-19T10:34:30.059Z</time></trkpt><trkpt lat="44.9103567" lon="7.99465"><ele>189.0</ele><time>2026-04-19T10:34:34.061Z</time></trkpt><trkpt lat="44.9103617" lon="7.9945433"><ele>187.0</ele><time>2026-04-19T10:34:37.062Z</time></trkpt><trkpt lat="44.9102567" lon="7.9943683"><ele>185.0</ele><time>2026-04-19T10:34:46.063Z</time></trkpt><trkpt lat="44.91021" lon="7.9942983"><ele>183.0</ele><time>2026-04-19T10:34:49.066Z</time></trkpt><trkpt lat="44.9101917" lon="7.9941917"><ele>183.14285714285714</ele><time>2026-04-19T10:34:53.102Z</time></trkpt><trkpt lat="44.9101333" lon="7.9941583"><ele>183.28571428571428</ele><time>2026-04-19T10:34:58.068Z</time></trkpt><trkpt lat="44.91006" lon="7.9941483"><ele>183.42857142857144</ele><time>2026-04-19T10:35:02.07Z</time></trkpt><trkpt lat="44.9099967" lon="7.9941467"><ele>183.57142857142856</ele><time>2026-04-19T10:35:04.067Z</time></trkpt><trkpt lat="44.9099367" lon="7.994185"><ele>183.7142857142857</ele><time>2026-04-19T10:35:08.067Z</time></trkpt><trkpt lat="44.90985" lon="7.9941517"><ele>183.85714285714286</ele><time>2026-04-19T10:35:13.058Z</time></trkpt><trkpt lat="44.909785" lon="7.99417"><ele>184.0</ele><time>2026-04-19T10:35:15.065Z</time></trkpt><trkpt lat="44.9097" lon="7.99422"><ele>184.33333333333334</ele><time>2026-04-19T10:35:17.101Z</time></trkpt><trkpt lat="44.9096283" lon="7.9942483"><ele>184.66666666666669</ele><time>2026-04-19T10:35:19.068Z</time></trkpt><trkpt lat="44.9095483" lon="7.9942833"><ele>185.0</ele><time>2026-04-19T10:35:21.066Z</time></trkpt><trkpt lat="44.90948" lon="7.994305"><ele>185.33333333333334</ele><time>2026-04-19T10:35:23.098Z</time></trkpt><trkpt lat="44.9094" lon="7.9943133"><ele>185.66666666666666</ele><time>2026-04-19T10:35:35.122Z</time></trkpt><trkpt lat="44.9092917" lon="7.99425"><ele>186.0</ele><time>2026-04-19T10:35:38.066Z</time></trkpt><trkpt lat="44.9092" lon="7.9942517"><ele>186.16666666666666</ele><time>2026-04-19T10:36:14.062Z</time></trkpt><trkpt lat="44.909105" lon="7.9942117"><ele>186.33333333333334</ele><time>2026-04-19T10:43:52.063Z</time></trkpt><trkpt lat="44.9090633" lon="7.9943667"><ele>186.5</ele><time>2026-04-19T10:46:04.061Z</time></trkpt><trkpt lat="44.9089917" lon="7.9943883"><ele>186.66666666666669</ele><time>2026-04-19T10:46:09.06Z</time></trkpt><trkpt lat="44.9089283" lon="7.99446"><ele>186.83333333333334</ele><time>2026-04-19T10:47:00.062Z</time></trkpt><trkpt lat="44.9089033" lon="7.9945617"><ele>187.0</ele><time>2026-04-19T10:47:07.058Z</time></trkpt><trkpt lat="44.9087917" lon="7.9945983"><ele>187.0</ele><time>2026-04-19T10:47:22.064Z</time></trkpt><trkpt lat="44.9087133" lon="7.994565"><ele>187.0</ele><time>2026-04-19T10:47:26.066Z</time></trkpt><trkpt lat="44.9086443" lon="7.994526"><ele>187.0</ele><time>2026-04-19T10:47:29.005Z</time></trkpt><trkpt lat="44.9085827" lon="7.9945533"><ele>187.0</ele><time>2026-04-19T10:47:32.067Z</time></trkpt><trkpt lat="44.9085383" lon="7.9944542"><ele>187.0</ele><time>2026-04-19T10:47:42.059Z</time></trkpt><trkpt lat="44.9085133" lon="7.9943644"><ele>187.0</ele><time>2026-04-19T10:47:44.055Z</time></trkpt><trkpt lat="44.908512" lon="7.9941444"><ele>186.33333333333334</ele><time>2026-04-19T10:47:47.104Z</time></trkpt><trkpt lat="44.9085117" lon="7.9940544"><ele>185.66666666666669</ele><time>2026-04-19T10:47:48.059Z</time></trkpt><trkpt lat="44.9084891" lon="7.9939334"><ele>185.0</ele><time>2026-04-19T10:47:50.06Z</time></trkpt><trkpt lat="44.9084329" lon="7.9938544"><ele>184.33333333333334</ele><time>2026-04-19T10:47:52.061Z</time></trkpt><trkpt lat="44.9083417" lon="7.993805"><ele>183.66666666666666</ele><time>2026-04-19T10:47:54.062Z</time></trkpt><trkpt lat="44.908245" lon="7.99372"><ele>183.0</ele><time>2026-04-19T10:47:56.07Z</time></trkpt><trkpt lat="44.9081983" lon="7.9936517"><ele>184.0</ele><time>2026-04-19T10:47:57.068Z</time></trkpt><trkpt lat="44.9081667" lon="7.9935717"><ele>185.0</ele><time>2026-04-19T10:47:58.067Z</time></trkpt><trkpt lat="44.908125" lon="7.9934367"><ele>186.0</ele><time>2026-04-19T10:48:00.061Z</time></trkpt><trkpt lat="44.9080767" lon="7.9933317"><ele>187.0</ele><time>2026-04-19T10:48:02.063Z</time></trkpt><trkpt lat="44.908005" lon="7.9932083"><ele>188.0</ele><time>2026-04-19T10:48:04.068Z</time></trkpt><trkpt lat="44.9079717" lon="7.9931283"><ele>189.0</ele><time>2026-04-19T10:48:05.12Z</time></trkpt><trkpt lat="44.90794" lon="7.9930467"><ele>189.0</ele><time>2026-04-19T10:48:06.06Z</time></trkpt><trkpt lat="44.907905" lon="7.9929717"><ele>189.0</ele><time>2026-04-19T10:48:07.061Z</time></trkpt><trkpt lat="44.9078667" lon="7.9928917"><ele>189.0</ele><time>2026-04-19T10:48:08.064Z</time></trkpt><trkpt lat="44.90782" lon="7.9928133"><ele>189.0</ele><time>2026-04-19T10:48:09.061Z</time></trkpt><trkpt lat="44.9077683" lon="7.9927367"><ele>189.0</ele><time>2026-04-19T10:48:10.064Z</time></trkpt><trkpt lat="44.907715" lon="7.9926567"><ele>189.0</ele><time>2026-04-19T10:48:11.102Z</time></trkpt><trkpt lat="44.9076633" lon="7.992575"><ele>189.0</ele><time>2026-04-19T10:48:12.063Z</time></trkpt><trkpt lat="44.90761" lon="7.9924817"><ele>188.83333333333334</ele><time>2026-04-19T10:48:13.063Z</time></trkpt><trkpt lat="44.9075467" lon="7.992385"><ele>188.66666666666666</ele><time>2026-04-19T10:48:14.063Z</time></trkpt><trkpt lat="44.9074883" lon="7.9922833"><ele>188.5</ele><time>2026-04-19T10:48:15.067Z</time></trkpt><trkpt lat="44.9074317" lon="7.9921783"><ele>188.33333333333331</ele><time>2026-04-19T10:48:16.06Z</time></trkpt><trkpt lat="44.90738" lon="7.9920833"><ele>188.16666666666666</ele><time>2026-04-19T10:48:17.114Z</time></trkpt><trkpt lat="44.9073333" lon="7.9920067"><ele>188.0</ele><time>2026-04-19T10:48:18.067Z</time></trkpt><trkpt lat="44.9072917" lon="7.9919383"><ele>188.0</ele><time>2026-04-19T10:48:19.069Z</time></trkpt><trkpt lat="44.9071967" lon="7.991845"><ele>188.0</ele><time>2026-04-19T10:48:21.067Z</time></trkpt><trkpt lat="44.9070933" lon="7.9918333"><ele>188.0</ele><time>2026-04-19T10:48:23.11Z</time></trkpt><trkpt lat="44.9069717" lon="7.9918783"><ele>188.0</ele><time>2026-04-19T10:48:25.057Z</time></trkpt><trkpt lat="44.9068933" lon="7.9918983"><ele>188.0</ele><time>2026-04-19T10:48:26.065Z</time></trkpt><trkpt lat="44.90682" lon="7.9919017"><ele>188.66666666666666</ele><time>2026-04-19T10:48:27.059Z</time></trkpt><trkpt lat="44.90674" lon="7.9918917"><ele>189.33333333333331</ele><time>2026-04-19T10:48:28.069Z</time></trkpt><trkpt lat="44.906655" lon="7.9918817"><ele>190.0</ele><time>2026-04-19T10:48:29.129Z</time></trkpt><trkpt lat="44.906565" lon="7.9918683"><ele>190.66666666666666</ele><time>2026-04-19T10:48:30.054Z</time></trkpt><trkpt lat="44.9064867" lon="7.9918417"><ele>191.33333333333334</ele><time>2026-04-19T10:48:31.059Z</time></trkpt><trkpt lat="44.906425" lon="7.99181"><ele>192.0</ele><time>2026-04-19T10:48:32.056Z</time></trkpt><trkpt lat="44.9063533" lon="7.9917083"><ele>192.0</ele><time>2026-04-19T10:48:34.063Z</time></trkpt><trkpt lat="44.9062817" lon="7.991545"><ele>192.0</ele><time>2026-04-19T10:48:36.06Z</time></trkpt><trkpt lat="44.90625" lon="7.9914617"><ele>192.0</ele><time>2026-04-19T10:48:37.062Z</time></trkpt><trkpt lat="44.9061883" lon="7.9913617"><ele>192.0</ele><time>2026-04-19T10:48:39.067Z</time></trkpt><trkpt lat="44.9061533" lon="7.9914367"><ele>192.0</ele><time>2026-04-19T10:48:41.102Z</time></trkpt><trkpt lat="44.9061383" lon="7.99155"><ele>192.0</ele><time>2026-04-19T10:48:43.069Z</time></trkpt><trkpt lat="44.9061083" lon="7.991715"><ele>192.0</ele><time>2026-04-19T10:48:45.062Z</time></trkpt><trkpt lat="44.9060783" lon="7.99189"><ele>192.0</ele><time>2026-04-19T10:48:47.102Z</time></trkpt><trkpt lat="44.90607" lon="7.99199"><ele>192.0</ele><time>2026-04-19T10:48:48.054Z</time></trkpt><trkpt lat="44.9060583" lon="7.9921083"><ele>192.0</ele><time>2026-04-19T10:48:49.062Z</time></trkpt><trkpt lat="44.9060517" lon="7.9922367"><ele>192.0</ele><time>2026-04-19T10:48:50.068Z</time></trkpt><trkpt lat="44.9060483" lon="7.99238"><ele>195.8</ele><time>2026-04-19T10:48:51.066Z</time></trkpt><trkpt lat="44.9060517" lon="7.9925067"><ele>199.6</ele><time>2026-04-19T10:48:52.067Z</time></trkpt><trkpt lat="44.906065" lon="7.9926217"><ele>203.4</ele><time>2026-04-19T10:48:53.106Z</time></trkpt><trkpt lat="44.9060883" lon="7.9927233"><ele>207.20000000000002</ele><time>2026-04-19T10:48:54.065Z</time></trkpt><trkpt lat="44.9061317" lon="7.9928533"><ele>211.0</ele><time>2026-04-19T10:48:56.061Z</time></trkpt><trkpt lat="44.9062033" lon="7.9929567"><ele>211.0</ele><time>2026-04-19T10:49:12.058Z</time></trkpt><trkpt lat="44.906265" lon="7.9930183"><ele>211.0</ele><time>2026-04-19T10:49:15.059Z</time></trkpt><trkpt lat="44.9063267" lon="7.9930883"><ele>211.0</ele><time>2026-04-19T10:49:17.103Z</time></trkpt><trkpt lat="44.9064117" lon="7.9931683"><ele>211.0</ele><time>2026-04-19T10:49:19.063Z</time></trkpt><trkpt lat="44.9065083" lon="7.9932067"><ele>211.0</ele><time>2026-04-19T10:49:21.067Z</time></trkpt><trkpt lat="44.9066183" lon="7.9932533"><ele>210.99999999999997</ele><time>2026-04-19T10:49:23.104Z</time></trkpt><trkpt lat="44.9067067" lon="7.99332"><ele>211.0</ele><time>2026-04-19T10:49:25.064Z</time></trkpt><trkpt lat="44.9067767" lon="7.993405"><ele>211.0</ele><time>2026-04-19T10:49:27.066Z</time></trkpt><trkpt lat="44.9068667" lon="7.9934667"><ele>211.0</ele><time>2026-04-19T10:49:34.063Z</time></trkpt><trkpt lat="44.9069283" lon="7.9935"><ele>210.99999999999997</ele><time>2026-04-19T10:49:36.062Z</time></trkpt><trkpt lat="44.9070033" lon="7.993565"><ele>211.0</ele><time>2026-04-19T10:49:38.06Z</time></trkpt><trkpt lat="44.9070617" lon="7.9936517"><ele>211.20000000000002</ele><time>2026-04-19T10:49:40.063Z</time></trkpt><trkpt lat="44.9070817" lon="7.9937417"><ele>211.4</ele><time>2026-04-19T10:49:42.054Z</time></trkpt><trkpt lat="44.9070767" lon="7.99388"><ele>211.6</ele><time>2026-04-19T10:49:44.062Z</time></trkpt><trkpt lat="44.9070617" lon="7.9940167"><ele>211.8</ele><time>2026-04-19T10:49:46.065Z</time></trkpt><trkpt lat="44.90704" lon="7.9941483"><ele>212.0</ele><time>2026-04-19T10:49:48.06Z</time></trkpt><trkpt lat="44.9070267" lon="7.9942867"><ele>213.39999999999998</ele><time>2026-04-19T10:49:50.061Z</time></trkpt><trkpt lat="44.9070383" lon="7.99442"><ele>214.79999999999998</ele><time>2026-04-19T10:49:52.058Z</time></trkpt><trkpt lat="44.9070517" lon="7.9945117"><ele>216.2</ele><time>2026-04-19T10:49:53.101Z</time></trkpt><trkpt lat="44.90707" lon="7.99463"><ele>217.6</ele><time>2026-04-19T10:49:54.063Z</time></trkpt><trkpt lat="44.9071017" lon="7.9947933"><ele>219.0</ele><time>2026-04-19T10:49:55.059Z</time></trkpt><trkpt lat="44.907125" lon="7.9949567"><ele>219.79999999999998</ele><time>2026-04-19T10:49:56.057Z</time></trkpt><trkpt lat="44.9071417" lon="7.995115"><ele>220.59999999999997</ele><time>2026-04-19T10:49:57.06Z</time></trkpt><trkpt lat="44.90717" lon="7.9952633"><ele>221.4</ele><time>2026-04-19T10:49:58.063Z</time></trkpt><trkpt lat="44.9071983" lon="7.995385"><ele>222.2</ele><time>2026-04-19T10:49:59.12Z</time></trkpt><trkpt lat="44.90723" lon="7.9954983"><ele>223.0</ele><time>2026-04-19T10:50:00.058Z</time></trkpt><trkpt lat="44.9072483" lon="7.9955867"><ele>222.99999999999997</ele><time>2026-04-19T10:50:01.067Z</time></trkpt><trkpt lat="44.9072583" lon="7.995715"><ele>223.0</ele><time>2026-04-19T10:50:03.063Z</time></trkpt><trkpt lat="44.90718" lon="7.9957767"><ele>223.0</ele><time>2026-04-19T10:50:06.056Z</time></trkpt><trkpt lat="44.907115" lon="7.99571"><ele>223.0</ele><time>2026-04-19T10:50:07.061Z</time></trkpt><trkpt lat="44.9070483" lon="7.9956533"><ele>222.99999999999997</ele><time>2026-04-19T10:50:08.065Z</time></trkpt><trkpt lat="44.9069717" lon="7.9955833"><ele>223.0</ele><time>2026-04-19T10:50:09.062Z</time></trkpt><trkpt lat="44.906905" lon="7.9955083"><ele>222.99999999999997</ele><time>2026-04-19T10:50:10.067Z</time></trkpt><trkpt lat="44.9068517" lon="7.99543"><ele>223.0</ele><time>2026-04-19T10:50:11.102Z</time></trkpt><trkpt lat="44.9068133" lon="7.9953467"><ele>223.0</ele><time>2026-04-19T10:50:12.054Z</time></trkpt><trkpt lat="44.90679" lon="7.9952617"><ele>223.0</ele><time>2026-04-19T10:50:13.063Z</time></trkpt><trkpt lat="44.9067667" lon="7.9951733"><ele>222.99999999999997</ele><time>2026-04-19T10:50:14.067Z</time></trkpt><trkpt lat="44.9067383" lon="7.995085"><ele>223.0</ele><time>2026-04-19T10:50:15.065Z</time></trkpt><trkpt lat="44.9067017" lon="7.994915"><ele>225.83333333333331</ele><time>2026-04-19T10:50:17.104Z</time></trkpt><trkpt lat="44.9066583" lon="7.994795"><ele>228.66666666666666</ele><time>2026-04-19T10:50:19.07Z</time></trkpt><trkpt lat="44.906595" lon="7.9947333"><ele>231.5</ele><time>2026-04-19T10:50:21.063Z</time></trkpt><trkpt lat="44.906535" lon="7.99482"><ele>234.33333333333331</ele><time>2026-04-19T10:50:23.101Z</time></trkpt><trkpt lat="44.9065017" lon="7.9949183"><ele>237.16666666666666</ele><time>2026-04-19T10:50:24.062Z</time></trkpt><trkpt lat="44.9064617" lon="7.9950367"><ele>240.0</ele><time>2026-04-19T10:50:25.068Z</time></trkpt><trkpt lat="44.90643" lon="7.99517"><ele>241.16666666666666</ele><time>2026-04-19T10:50:26.064Z</time></trkpt><trkpt lat="44.9063917" lon="7.99529"><ele>242.33333333333331</ele><time>2026-04-19T10:50:27.056Z</time></trkpt><trkpt lat="44.906355" lon="7.9953833"><ele>243.5</ele><time>2026-04-19T10:50:28.065Z</time></trkpt><trkpt lat="44.9063167" lon="7.9954567"><ele>244.66666666666666</ele><time>2026-04-19T10:50:29.118Z</time></trkpt><trkpt lat="44.9062117" lon="7.9955517"><ele>245.83333333333331</ele><time>2026-04-19T10:50:31.062Z</time></trkpt><trkpt lat="44.9061383" lon="7.995585"><ele>247.0</ele><time>2026-04-19T10:50:32.066Z</time></trkpt><trkpt lat="44.90605" lon="7.9956167"><ele>246.99999999999997</ele><time>2026-04-19T10:50:33.068Z</time></trkpt><trkpt lat="44.90596" lon="7.99565"><ele>247.0</ele><time>2026-04-19T10:50:34.065Z</time></trkpt><trkpt lat="44.9058717" lon="7.9956883"><ele>247.0</ele><time>2026-04-19T10:50:35.115Z</time></trkpt><trkpt lat="44.9057983" lon="7.9957317"><ele>247.0</ele><time>2026-04-19T10:50:36.062Z</time></trkpt><trkpt lat="44.9057367" lon="7.99579"><ele>246.99999999999997</ele><time>2026-04-19T10:50:37.067Z</time></trkpt><trkpt lat="44.905675" lon="7.9958533"><ele>247.0</ele><time>2026-04-19T10:50:38.065Z</time></trkpt><trkpt lat="44.9056117" lon="7.995935"><ele>249.6</ele><time>2026-04-19T10:50:39.068Z</time></trkpt><trkpt lat="44.9055467" lon="7.9960517"><ele>252.2</ele><time>2026-04-19T10:50:40.065Z</time></trkpt><trkpt lat="44.9054867" lon="7.99618"><ele>254.8</ele><time>2026-04-19T10:50:41.102Z</time></trkpt><trkpt lat="44.9054283" lon="7.9962833"><ele>257.4</ele><time>2026-04-19T10:50:42.057Z</time></trkpt><trkpt lat="44.90537" lon="7.996365"><ele>260.0</ele><time>2026-04-19T10:50:43.063Z</time></trkpt><trkpt lat="44.90531" lon="7.996435"><ele>260.0</ele><time>2026-04-19T10:50:44.057Z</time></trkpt><trkpt lat="44.9052433" lon="7.9964883"><ele>260.0</ele><time>2026-04-19T10:50:45.063Z</time></trkpt><trkpt lat="44.905175" lon="7.99654"><ele>260.0</ele><time>2026-04-19T10:50:46.066Z</time></trkpt><trkpt lat="44.9050967" lon="7.996585"><ele>260.0</ele><time>2026-04-19T10:50:47.103Z</time></trkpt><trkpt lat="44.9050117" lon="7.99663"><ele>260.0</ele><time>2026-04-19T10:50:48.059Z</time></trkpt><trkpt lat="44.90492" lon="7.99667"><ele>260.0</ele><time>2026-04-19T10:50:49.062Z</time></trkpt><trkpt lat="44.9048317" lon="7.9967033"><ele>259.5</ele><time>2026-04-19T10:50:50.062Z</time></trkpt><trkpt lat="44.9047583" lon="7.99672"><ele>259.0</ele><time>2026-04-19T10:50:51.062Z</time></trkpt><trkpt lat="44.904695" lon="7.9967317"><ele>258.5</ele><time>2026-04-19T10:50:52.066Z</time></trkpt><trkpt lat="44.9046017" lon="7.9967017"><ele>258.0</ele><time>2026-04-19T10:50:54.058Z</time></trkpt><trkpt lat="44.9045383" lon="7.99666"><ele>257.5</ele><time>2026-04-19T10:50:55.06Z</time></trkpt><trkpt lat="44.904465" lon="7.9965983"><ele>257.0</ele><time>2026-04-19T10:50:56.054Z</time></trkpt><trkpt lat="44.904385" lon="7.9965267"><ele>256.0</ele><time>2026-04-19T10:50:57.067Z</time></trkpt><trkpt lat="44.9043" lon="7.9964483"><ele>255.0</ele><time>2026-04-19T10:50:58.063Z</time></trkpt><trkpt lat="44.9042083" lon="7.9963667"><ele>254.0</ele><time>2026-04-19T10:50:59.111Z</time></trkpt><trkpt lat="44.9041217" lon="7.9962883"><ele>253.0</ele><time>2026-04-19T10:51:00.06Z</time></trkpt><trkpt lat="44.9040383" lon="7.9962133"><ele>252.0</ele><time>2026-04-19T10:51:01.061Z</time></trkpt><trkpt lat="44.90396" lon="7.996135"><ele>251.83333333333334</ele><time>2026-04-19T10:51:02.069Z</time></trkpt><trkpt lat="44.9038833" lon="7.9960567"><ele>251.66666666666669</ele><time>2026-04-19T10:51:03.064Z</time></trkpt><trkpt lat="44.90382" lon="7.9959883"><ele>251.5</ele><time>2026-04-19T10:51:04.065Z</time></trkpt><trkpt lat="44.9037467" lon="7.9959083"><ele>251.33333333333334</ele><time>2026-04-19T10:51:06.061Z</time></trkpt><trkpt lat="44.9036583" lon="7.9958167"><ele>251.16666666666669</ele><time>2026-04-19T10:51:46.057Z</time></trkpt><trkpt lat="44.9036" lon="7.995765"><ele>251.0</ele><time>2026-04-19T10:51:47.098Z</time></trkpt><trkpt lat="44.9035283" lon="7.995715"><ele>251.0</ele><time>2026-04-19T10:51:48.059Z</time></trkpt><trkpt lat="44.90344" lon="7.995665"><ele>251.0</ele><time>2026-04-19T10:51:49.061Z</time></trkpt><trkpt lat="44.9033433" lon="7.99562"><ele>251.0</ele><time>2026-04-19T10:51:50.093Z</time></trkpt><trkpt lat="44.9031217" lon="7.9955483"><ele>251.0</ele><time>2026-04-19T10:51:52.062Z</time></trkpt><trkpt lat="44.9030067" lon="7.9955233"><ele>251.0</ele><time>2026-04-19T10:51:53.097Z</time></trkpt><trkpt lat="44.902895" lon="7.9955033"><ele>251.00000000000003</ele><time>2026-04-19T10:51:54.059Z</time></trkpt><trkpt lat="44.9027833" lon="7.9954917"><ele>251.00000000000003</ele><time>2026-04-19T10:51:55.066Z</time></trkpt><trkpt lat="44.90267" lon="7.9954867"><ele>251.0</ele><time>2026-04-19T10:51:56.061Z</time></trkpt><trkpt lat="44.902565" lon="7.995495"><ele>251.0</ele><time>2026-04-19T10:51:57.057Z</time></trkpt><trkpt lat="44.9024583" lon="7.9954983"><ele>251.66666666666669</ele><time>2026-04-19T10:51:58.065Z</time></trkpt><trkpt lat="44.9023617" lon="7.995485"><ele>252.33333333333334</ele><time>2026-04-19T10:51:59.13Z</time></trkpt><trkpt lat="44.90229" lon="7.9954433"><ele>253.0</ele><time>2026-04-19T10:52:00.058Z</time></trkpt><trkpt lat="44.90222" lon="7.9953767"><ele>253.66666666666669</ele><time>2026-04-19T10:52:01.068Z</time></trkpt><trkpt lat="44.9021617" lon="7.9952883"><ele>254.33333333333334</ele><time>2026-04-19T10:52:02.064Z</time></trkpt><trkpt lat="44.902095" lon="7.9952"><ele>255.0</ele><time>2026-04-19T10:52:03.066Z</time></trkpt><trkpt lat="44.90202" lon="7.99512"><ele>255.0</ele><time>2026-04-19T10:52:04.059Z</time></trkpt><trkpt lat="44.9019383" lon="7.9950467"><ele>255.0</ele><time>2026-04-19T10:52:05.119Z</time></trkpt><trkpt lat="44.9018533" lon="7.9949767"><ele>255.0</ele><time>2026-04-19T10:52:06.058Z</time></trkpt><trkpt lat="44.9017667" lon="7.9949067"><ele>255.0</ele><time>2026-04-19T10:52:07.059Z</time></trkpt><trkpt lat="44.9016767" lon="7.9948267"><ele>255.0</ele><time>2026-04-19T10:52:08.06Z</time></trkpt><trkpt lat="44.901595" lon="7.99473"><ele>256.0</ele><time>2026-04-19T10:52:09.06Z</time></trkpt><trkpt lat="44.9015167" lon="7.9946167"><ele>257.0</ele><time>2026-04-19T10:52:10.066Z</time></trkpt><trkpt lat="44.9014417" lon="7.9944933"><ele>258.0</ele><time>2026-04-19T10:52:11.1Z</time></trkpt><trkpt lat="44.9013783" lon="7.9943617"><ele>259.0</ele><time>2026-04-19T10:52:12.067Z</time></trkpt><trkpt lat="44.9013267" lon="7.994225"><ele>259.0</ele><time>2026-04-19T10:52:13.069Z</time></trkpt><trkpt lat="44.9012783" lon="7.9940783"><ele>259.0</ele><time>2026-04-19T10:52:14.06Z</time></trkpt><trkpt lat="44.90123" lon="7.9939317"><ele>259.0</ele><time>2026-04-19T10:52:15.063Z</time></trkpt><trkpt lat="44.9011817" lon="7.9937767"><ele>259.0</ele><time>2026-04-19T10:52:16.073Z</time></trkpt><trkpt lat="44.9011317" lon="7.99362"><ele>259.0</ele><time>2026-04-19T10:52:17.104Z</time></trkpt><trkpt lat="44.901075" lon="7.993465"><ele>259.0</ele><time>2026-04-19T10:52:18.056Z</time></trkpt><trkpt lat="44.90101" lon="7.9933167"><ele>259.0</ele><time>2026-04-19T10:52:19.068Z</time></trkpt><trkpt lat="44.9009367" lon="7.9931683"><ele>259.0</ele><time>2026-04-19T10:52:20.064Z</time></trkpt><trkpt lat="44.9008617" lon="7.9930233"><ele>259.25</ele><time>2026-04-19T10:52:21.064Z</time></trkpt><trkpt lat="44.9007933" lon="7.9928783"><ele>259.5</ele><time>2026-04-19T10:52:22.055Z</time></trkpt><trkpt lat="44.9007433" lon="7.9927133"><ele>259.75</ele><time>2026-04-19T10:52:23.104Z</time></trkpt><trkpt lat="44.9006783" lon="7.9925467"><ele>260.0</ele><time>2026-04-19T10:52:24.061Z</time></trkpt><trkpt lat="44.900615" lon="7.9923833"><ele>260.0</ele><time>2026-04-19T10:52:25.064Z</time></trkpt><trkpt lat="44.9005517" lon="7.992225"><ele>260.0</ele><time>2026-04-19T10:52:26.063Z</time></trkpt><trkpt lat="44.9004667" lon="7.9920783"><ele>260.0</ele><time>2026-04-19T10:52:27.058Z</time></trkpt><trkpt lat="44.9004" lon="7.9919283"><ele>260.0</ele><time>2026-04-19T10:52:28.067Z</time></trkpt><trkpt lat="44.9003467" lon="7.9917733"><ele>258.4</ele><time>2026-04-19T10:52:29.117Z</time></trkpt><trkpt lat="44.9003" lon="7.9916217"><ele>256.8</ele><time>2026-04-19T10:52:30.064Z</time></trkpt><trkpt lat="44.900255" lon="7.9914883"><ele>255.2</ele><time>2026-04-19T10:52:31.068Z</time></trkpt><trkpt lat="44.9002133" lon="7.9913767"><ele>253.6</ele><time>2026-04-19T10:52:32.059Z</time></trkpt><trkpt lat="44.9001817" lon="7.9912817"><ele>252.0</ele><time>2026-04-19T10:52:33.062Z</time></trkpt><trkpt lat="44.90021" lon="7.9911817"><ele>252.0</ele><time>2026-04-19T10:52:36.058Z</time></trkpt><trkpt lat="44.90028" lon="7.9911517"><ele>252.0</ele><time>2026-04-19T10:52:38.065Z</time></trkpt><trkpt lat="44.9004083" lon="7.9910367"><ele>252.0</ele><time>2026-04-19T10:52:40.068Z</time></trkpt><trkpt lat="44.900495" lon="7.9909333"><ele>252.0</ele><time>2026-04-19T10:52:41.104Z</time></trkpt><trkpt lat="44.90058" lon="7.9908267"><ele>251.25</ele><time>2026-04-19T10:52:42.062Z</time></trkpt><trkpt lat="44.90067" lon="7.99071"><ele>250.5</ele><time>2026-04-19T10:52:43.067Z</time></trkpt><trkpt lat="44.9007617" lon="7.9906"><ele>249.75</ele><time>2026-04-19T10:52:44.064Z</time></trkpt><trkpt lat="44.90085" lon="7.9904733"><ele>249.0</ele><time>2026-04-19T10:52:45.061Z</time></trkpt><trkpt lat="44.9009333" lon="7.9903467"><ele>246.79999999999998</ele><time>2026-04-19T10:52:46.066Z</time></trkpt><trkpt lat="44.9010067" lon="7.9902267"><ele>244.59999999999997</ele><time>2026-04-19T10:52:47.111Z</time></trkpt><trkpt lat="44.9010683" lon="7.990115"><ele>242.4</ele><time>2026-04-19T10:52:48.065Z</time></trkpt><trkpt lat="44.90112" lon="7.9900183"><ele>240.2</ele><time>2026-04-19T10:52:49.081Z</time></trkpt><trkpt lat="44.901165" lon="7.9899317"><ele>238.0</ele><time>2026-04-19T10:52:50.064Z</time></trkpt><trkpt lat="44.9012167" lon="7.9897967"><ele>237.99999999999997</ele><time>2026-04-19T10:52:52.062Z</time></trkpt><trkpt lat="44.90128" lon="7.9897883"><ele>238.0</ele><time>2026-04-19T10:52:56.064Z</time></trkpt><trkpt lat="44.9013117" lon="7.9899183"><ele>238.0</ele><time>2026-04-19T10:53:00.057Z</time></trkpt><trkpt lat="44.9013433" lon="7.9899967"><ele>238.0</ele><time>2026-04-19T10:53:03.07Z</time></trkpt><trkpt lat="44.9014217" lon="7.9900383"><ele>237.99999999999997</ele><time>2026-04-19T10:53:09.063Z</time></trkpt><trkpt lat="44.9014917" lon="7.9899833"><ele>238.0</ele><time>2026-04-19T10:53:15.063Z</time></trkpt><trkpt lat="44.9015417" lon="7.9899167"><ele>238.0</ele><time>2026-04-19T10:53:18.06Z</time></trkpt><trkpt lat="44.901565" lon="7.9898317"><ele>238.0</ele><time>2026-04-19T10:53:20.068Z</time></trkpt><trkpt lat="44.9015533" lon="7.9897317"><ele>238.0</ele><time>2026-04-19T10:53:23.095Z</time></trkpt><trkpt lat="44.9016817" lon="7.9895483"><ele>238.0</ele><time>2026-04-19T10:53:41.1Z</time></trkpt><trkpt lat="44.90176" lon="7.989505"><ele>238.0</ele><time>2026-04-19T10:53:43.066Z</time></trkpt><trkpt lat="44.9018417" lon="7.9894467"><ele>235.2</ele><time>2026-04-19T10:53:45.064Z</time></trkpt><trkpt lat="44.9019083" lon="7.9893833"><ele>232.4</ele><time>2026-04-19T10:53:47.102Z</time></trkpt><trkpt lat="44.90196" lon="7.98929"><ele>229.59999999999997</ele><time>2026-04-19T10:53:49.056Z</time></trkpt><trkpt lat="44.9020167" lon="7.98919"><ele>226.79999999999998</ele><time>2026-04-19T10:53:51.062Z</time></trkpt><trkpt lat="44.9020833" lon="7.98908"><ele>224.0</ele><time>2026-04-19T10:53:53.112Z</time></trkpt><trkpt lat="44.9021267" lon="7.988965"><ele>224.00000000000003</ele><time>2026-04-19T10:53:55.063Z</time></trkpt><trkpt lat="44.902175" lon="7.9888767"><ele>224.0</ele><time>2026-04-19T10:53:58.067Z</time></trkpt><trkpt lat="44.902195" lon="7.9887267"><ele>224.0</ele><time>2026-04-19T10:54:04.065Z</time></trkpt><trkpt lat="44.9021567" lon="7.9886233"><ele>224.0</ele><time>2026-04-19T10:54:07.068Z</time></trkpt><trkpt lat="44.9021517" lon="7.9885117"><ele>224.00000000000003</ele><time>2026-04-19T10:54:09.064Z</time></trkpt><trkpt lat="44.9021817" lon="7.98839"><ele>224.0</ele><time>2026-04-19T10:54:11.097Z</time></trkpt><trkpt lat="44.9022383" lon="7.98831"><ele>223.6</ele><time>2026-04-19T10:54:14.066Z</time></trkpt><trkpt lat="44.9023083" lon="7.98819"><ele>223.2</ele><time>2026-04-19T10:54:28.059Z</time></trkpt><trkpt lat="44.90242" lon="7.9882133"><ele>222.79999999999998</ele><time>2026-04-19T10:54:40.063Z</time></trkpt><trkpt lat="44.9025033" lon="7.9882017"><ele>222.39999999999998</ele><time>2026-04-19T10:54:43.07Z</time></trkpt><trkpt lat="44.9025733" lon="7.988195"><ele>222.0</ele><time>2026-04-19T10:54:46.059Z</time></trkpt><trkpt lat="44.9026583" lon="7.9881833"><ele>218.0</ele><time>2026-04-19T10:54:50.067Z</time></trkpt><trkpt lat="44.90272" lon="7.9882283"><ele>214.0</ele><time>2026-04-19T10:54:54.061Z</time></trkpt><trkpt lat="44.902775" lon="7.9883017"><ele>210.0</ele><time>2026-04-19T10:54:58.063Z</time></trkpt><trkpt lat="44.9028117" lon="7.988385"><ele>206.0</ele><time>2026-04-19T10:55:01.062Z</time></trkpt><trkpt lat="44.902855" lon="7.988455"><ele>202.0</ele><time>2026-04-19T10:55:04.063Z</time></trkpt><trkpt lat="44.9029333" lon="7.9884517"><ele>198.0</ele><time>2026-04-19T10:55:08.057Z</time></trkpt><trkpt lat="44.90297" lon="7.9883783"><ele>194.0</ele><time>2026-04-19T10:55:11.097Z</time></trkpt><trkpt lat="44.9030217" lon="7.9882933"><ele>194.00000000000003</ele><time>2026-04-19T10:55:16.067Z</time></trkpt><trkpt lat="44.903055" lon="7.9881317"><ele>194.0</ele><time>2026-04-19T10:55:28.057Z</time></trkpt><trkpt lat="44.9030633" lon="7.9880217"><ele>194.0</ele><time>2026-04-19T10:55:34.06Z</time></trkpt><trkpt lat="44.9030617" lon="7.9879083"><ele>194.0</ele><time>2026-04-19T10:55:38.066Z</time></trkpt><trkpt lat="44.9030767" lon="7.9877983"><ele>194.00000000000003</ele><time>2026-04-19T10:55:42.064Z</time></trkpt><trkpt lat="44.9030867" lon="7.9877033"><ele>194.0</ele><time>2026-04-19T10:55:45.065Z</time></trkpt><trkpt lat="44.9030767" lon="7.9875933"><ele>193.66666666666669</ele><time>2026-04-19T10:55:48.055Z</time></trkpt><trkpt lat="44.90303" lon="7.9874833"><ele>193.33333333333334</ele><time>2026-04-19T10:55:51.07Z</time></trkpt><trkpt lat="44.9029917" lon="7.9874117"><ele>193.0</ele><time>2026-04-19T10:55:53.104Z</time></trkpt><trkpt lat="44.90295" lon="7.987345"><ele>192.66666666666669</ele><time>2026-04-19T10:55:55.063Z</time></trkpt><trkpt lat="44.90289" lon="7.9872583"><ele>192.33333333333334</ele><time>2026-04-19T10:55:57.061Z</time></trkpt><trkpt lat="44.9028183" lon="7.9871567"><ele>192.0</ele><time>2026-04-19T10:55:59.134Z</time></trkpt><trkpt lat="44.902755" lon="7.9870717"><ele>191.99999999999997</ele><time>2026-04-19T10:56:01.064Z</time></trkpt><trkpt lat="44.9027017" lon="7.986965"><ele>192.0</ele><time>2026-04-19T10:56:03.056Z</time></trkpt><trkpt lat="44.9026583" lon="7.9868967"><ele>192.0</ele><time>2026-04-19T10:56:04.067Z</time></trkpt><trkpt lat="44.9026117" lon="7.9868317"><ele>192.0</ele><time>2026-04-19T10:56:05.117Z</time></trkpt><trkpt lat="44.9025617" lon="7.9867617"><ele>192.0</ele><time>2026-04-19T10:56:06.061Z</time></trkpt><trkpt lat="44.90251" lon="7.986705"><ele>191.99999999999997</ele><time>2026-04-19T10:56:07.068Z</time></trkpt><trkpt lat="44.9024567" lon="7.9866567"><ele>192.0</ele><time>2026-04-19T10:56:08.058Z</time></trkpt><trkpt lat="44.902345" lon="7.986575"><ele>192.6</ele><time>2026-04-19T10:56:10.059Z</time></trkpt><trkpt lat="44.902275" lon="7.9865333"><ele>193.2</ele><time>2026-04-19T10:56:11.097Z</time></trkpt><trkpt lat="44.902195" lon="7.98649"><ele>193.8</ele><time>2026-04-19T10:56:12.058Z</time></trkpt><trkpt lat="44.9021067" lon="7.98644"><ele>194.4</ele><time>2026-04-19T10:56:13.069Z</time></trkpt><trkpt lat="44.9020133" lon="7.9863833"><ele>195.0</ele><time>2026-04-19T10:56:14.06Z</time></trkpt><trkpt lat="44.901925" lon="7.986325"><ele>195.0</ele><time>2026-04-19T10:56:15.066Z</time></trkpt><trkpt lat="44.9018467" lon="7.9862683"><ele>195.0</ele><time>2026-04-19T10:56:16.065Z</time></trkpt><trkpt lat="44.901775" lon="7.986205"><ele>195.0</ele><time>2026-04-19T10:56:17.103Z</time></trkpt><trkpt lat="44.9017" lon="7.9861333"><ele>195.0</ele><time>2026-04-19T10:56:18.062Z</time></trkpt><trkpt lat="44.90162" lon="7.9860683"><ele>195.0</ele><time>2026-04-19T10:56:19.07Z</time></trkpt><trkpt lat="44.9015367" lon="7.9860067"><ele>195.0</ele><time>2026-04-19T10:56:20.06Z</time></trkpt><trkpt lat="44.9014483" lon="7.9859483"><ele>194.8</ele><time>2026-04-19T10:56:21.057Z</time></trkpt><trkpt lat="44.9013517" lon="7.9858917"><ele>194.6</ele><time>2026-04-19T10:56:22.064Z</time></trkpt><trkpt lat="44.901255" lon="7.9858467"><ele>194.39999999999998</ele><time>2026-04-19T10:56:23.096Z</time></trkpt><trkpt lat="44.901155" lon="7.9858"><ele>194.2</ele><time>2026-04-19T10:56:24.065Z</time></trkpt><trkpt lat="44.901055" lon="7.9857483"><ele>194.0</ele><time>2026-04-19T10:56:25.068Z</time></trkpt><trkpt lat="44.900955" lon="7.9856967"><ele>196.0</ele><time>2026-04-19T10:56:26.059Z</time></trkpt><trkpt lat="44.9008633" lon="7.9856417"><ele>198.0</ele><time>2026-04-19T10:56:27.068Z</time></trkpt><trkpt lat="44.9007683" lon="7.985585"><ele>200.0</ele><time>2026-04-19T10:56:28.065Z</time></trkpt><trkpt lat="44.9006683" lon="7.9855283"><ele>202.0</ele><time>2026-04-19T10:56:29.126Z</time></trkpt><trkpt lat="44.900575" lon="7.9854717"><ele>204.0</ele><time>2026-04-19T10:56:30.058Z</time></trkpt><trkpt lat="44.9004783" lon="7.9854167"><ele>204.0</ele><time>2026-04-19T10:56:31.066Z</time></trkpt><trkpt lat="44.9003817" lon="7.9853733"><ele>204.0</ele><time>2026-04-19T10:56:32.06Z</time></trkpt><trkpt lat="44.90028" lon="7.985345"><ele>204.0</ele><time>2026-04-19T10:56:33.061Z</time></trkpt><trkpt lat="44.9001767" lon="7.985335"><ele>204.0</ele><time>2026-04-19T10:56:34.068Z</time></trkpt><trkpt lat="44.90007" lon="7.98533"><ele>204.0</ele><time>2026-04-19T10:56:35.118Z</time></trkpt><trkpt lat="44.8999617" lon="7.985325"><ele>203.79999999999998</ele><time>2026-04-19T10:56:36.062Z</time></trkpt><trkpt lat="44.8998533" lon="7.9853183"><ele>203.6</ele><time>2026-04-19T10:56:37.067Z</time></trkpt><trkpt lat="44.8997567" lon="7.985305"><ele>203.4</ele><time>2026-04-19T10:56:38.065Z</time></trkpt><trkpt lat="44.8996817" lon="7.98529"><ele>203.2</ele><time>2026-04-19T10:56:39.063Z</time></trkpt><trkpt lat="44.8995667" lon="7.985235"><ele>203.0</ele><time>2026-04-19T10:56:41.098Z</time></trkpt><trkpt lat="44.8995083" lon="7.9851967"><ele>203.0</ele><time>2026-04-19T10:56:42.063Z</time></trkpt><trkpt lat="44.8994133" lon="7.9851383"><ele>203.0</ele><time>2026-04-19T10:56:43.066Z</time></trkpt><trkpt lat="44.89928" lon="7.9850633"><ele>203.0</ele><time>2026-04-19T10:56:44.066Z</time></trkpt><trkpt lat="44.8991333" lon="7.9849817"><ele>203.0</ele><time>2026-04-19T10:56:45.065Z</time></trkpt><trkpt lat="44.8989983" lon="7.9849067"><ele>202.4</ele><time>2026-04-19T10:56:46.065Z</time></trkpt><trkpt lat="44.8988817" lon="7.98484"><ele>201.8</ele><time>2026-04-19T10:56:47.095Z</time></trkpt><trkpt lat="44.8987833" lon="7.984785"><ele>201.2</ele><time>2026-04-19T10:56:48.062Z</time></trkpt><trkpt lat="44.8987033" lon="7.9847267"><ele>200.6</ele><time>2026-04-19T10:56:49.068Z</time></trkpt><trkpt lat="44.898625" lon="7.9846617"><ele>200.0</ele><time>2026-04-19T10:56:50.056Z</time></trkpt><trkpt lat="44.8985567" lon="7.984585"><ele>200.00000000000003</ele><time>2026-04-19T10:56:51.063Z</time></trkpt><trkpt lat="44.8984933" lon="7.9845017"><ele>200.0</ele><time>2026-04-19T10:56:52.065Z</time></trkpt><trkpt lat="44.8984267" lon="7.9844217"><ele>200.0</ele><time>2026-04-19T10:56:53.098Z</time></trkpt><trkpt lat="44.8983683" lon="7.9843517"><ele>200.0</ele><time>2026-04-19T10:56:54.066Z</time></trkpt><trkpt lat="44.8983067" lon="7.984295"><ele>200.00000000000003</ele><time>2026-04-19T10:56:55.067Z</time></trkpt><trkpt lat="44.89824" lon="7.9842467"><ele>200.0</ele><time>2026-04-19T10:56:56.061Z</time></trkpt><trkpt lat="44.8981817" lon="7.984205"><ele>200.4</ele><time>2026-04-19T10:56:57.068Z</time></trkpt><trkpt lat="44.8981083" lon="7.98412"><ele>200.8</ele><time>2026-04-19T10:56:59.133Z</time></trkpt><trkpt lat="44.898165" lon="7.984055"><ele>201.2</ele><time>2026-04-19T10:57:17.094Z</time></trkpt><trkpt lat="44.89829" lon="7.98399"><ele>201.6</ele><time>2026-04-19T10:57:19.063Z</time></trkpt><trkpt lat="44.898385" lon="7.9839267"><ele>202.0</ele><time>2026-04-19T10:57:20.076Z</time></trkpt><trkpt lat="44.8984917" lon="7.98384"><ele>200.25</ele><time>2026-04-19T10:57:21.067Z</time></trkpt><trkpt lat="44.8985883" lon="7.98374"><ele>198.5</ele><time>2026-04-19T10:57:22.065Z</time></trkpt><trkpt lat="44.8986717" lon="7.98363"><ele>196.75</ele><time>2026-04-19T10:57:23.094Z</time></trkpt><trkpt lat="44.8987483" lon="7.9835067"><ele>195.0</ele><time>2026-04-19T10:57:24.059Z</time></trkpt><trkpt lat="44.898815" lon="7.983375"><ele>194.6</ele><time>2026-04-19T10:57:25.067Z</time></trkpt><trkpt lat="44.8988767" lon="7.983245"><ele>194.2</ele><time>2026-04-19T10:57:26.057Z</time></trkpt><trkpt lat="44.8989333" lon="7.98312"><ele>193.8</ele><time>2026-04-19T10:57:27.067Z</time></trkpt><trkpt lat="44.89899" lon="7.982995"><ele>193.4</ele><time>2026-04-19T10:57:28.054Z</time></trkpt><trkpt lat="44.8990467" lon="7.9828683"><ele>193.0</ele><time>2026-04-19T10:57:29.131Z</time></trkpt><trkpt lat="44.8991017" lon="7.9827417"><ele>193.0</ele><time>2026-04-19T10:57:30.06Z</time></trkpt><trkpt lat="44.899155" lon="7.9826067"><ele>193.0</ele><time>2026-04-19T10:57:31.059Z</time></trkpt><trkpt lat="44.8992083" lon="7.982475"><ele>193.0</ele><time>2026-04-19T10:57:32.067Z</time></trkpt><trkpt lat="44.8992567" lon="7.9823417"><ele>193.0</ele><time>2026-04-19T10:57:33.069Z</time></trkpt><trkpt lat="44.8993067" lon="7.9822033"><ele>193.0</ele><time>2026-04-19T10:57:34.059Z</time></trkpt><trkpt lat="44.8993617" lon="7.98206"><ele>192.75</ele><time>2026-04-19T10:57:35.117Z</time></trkpt><trkpt lat="44.8994233" lon="7.9819133"><ele>192.5</ele><time>2026-04-19T10:57:36.058Z</time></trkpt><trkpt lat="44.89949" lon="7.981755"><ele>192.25</ele><time>2026-04-19T10:57:37.058Z</time></trkpt><trkpt lat="44.8995633" lon="7.981585"><ele>192.0</ele><time>2026-04-19T10:57:38.061Z</time></trkpt><trkpt lat="44.8996417" lon="7.9814017"><ele>193.5</ele><time>2026-04-19T10:57:39.06Z</time></trkpt><trkpt lat="44.8997183" lon="7.9812117"><ele>195.0</ele><time>2026-04-19T10:57:40.061Z</time></trkpt><trkpt lat="44.8997933" lon="7.98103"><ele>196.5</ele><time>2026-04-19T10:57:41.092Z</time></trkpt><trkpt lat="44.8998633" lon="7.98086"><ele>198.0</ele><time>2026-04-19T10:57:42.061Z</time></trkpt><trkpt lat="44.899925" lon="7.9807133"><ele>198.33333333333334</ele><time>2026-04-19T10:57:43.063Z</time></trkpt><trkpt lat="44.899975" lon="7.9805917"><ele>198.66666666666669</ele><time>2026-04-19T10:57:44.065Z</time></trkpt><trkpt lat="44.9000167" lon="7.9804967"><ele>199.0</ele><time>2026-04-19T10:57:45.068Z</time></trkpt><trkpt lat="44.9000467" lon="7.9804183"><ele>199.33333333333334</ele><time>2026-04-19T10:57:46.065Z</time></trkpt><trkpt lat="44.900075" lon="7.9803367"><ele>199.66666666666669</ele><time>2026-04-19T10:57:48.064Z</time></trkpt><trkpt lat="44.90004" lon="7.9801967"><ele>200.0</ele><time>2026-04-19T10:57:53.094Z</time></trkpt><trkpt lat="44.9000017" lon="7.9801233"><ele>200.00000000000003</ele><time>2026-04-19T10:57:54.059Z</time></trkpt><trkpt lat="44.89995" lon="7.98004"><ele>200.0</ele><time>2026-04-19T10:57:55.059Z</time></trkpt><trkpt lat="44.8998933" lon="7.979965"><ele>200.0</ele><time>2026-04-19T10:57:56.06Z</time></trkpt><trkpt lat="44.8998317" lon="7.9799067"><ele>200.0</ele><time>2026-04-19T10:57:57.058Z</time></trkpt><trkpt lat="44.8997667" lon="7.97986"><ele>200.00000000000003</ele><time>2026-04-19T10:57:58.062Z</time></trkpt><trkpt lat="44.8996967" lon="7.97982"><ele>200.0</ele><time>2026-04-19T10:57:59.092Z</time></trkpt><trkpt lat="44.89961" lon="7.9797783"><ele>199.6</ele><time>2026-04-19T10:58:00.059Z</time></trkpt><trkpt lat="44.8995133" lon="7.979735"><ele>199.2</ele><time>2026-04-19T10:58:01.065Z</time></trkpt><trkpt lat="44.8994083" lon="7.9796967"><ele>198.8</ele><time>2026-04-19T10:58:02.062Z</time></trkpt><trkpt lat="44.8993067" lon="7.979665"><ele>198.4</ele><time>2026-04-19T10:58:03.069Z</time></trkpt><trkpt lat="44.8992117" lon="7.9796417"><ele>198.0</ele><time>2026-04-19T10:58:04.057Z</time></trkpt><trkpt lat="44.8991217" lon="7.97963"><ele>198.0</ele><time>2026-04-19T10:58:05.119Z</time></trkpt><trkpt lat="44.899035" lon="7.9796333"><ele>198.0</ele><time>2026-04-19T10:58:06.056Z</time></trkpt><trkpt lat="44.898955" lon="7.9796583"><ele>198.0</ele><time>2026-04-19T10:58:07.056Z</time></trkpt><trkpt lat="44.898885" lon="7.9797"><ele>198.0</ele><time>2026-04-19T10:58:08.061Z</time></trkpt><trkpt lat="44.898825" lon="7.9797683"><ele>198.0</ele><time>2026-04-19T10:58:09.064Z</time></trkpt><trkpt lat="44.8987583" lon="7.9798417"><ele>198.0</ele><time>2026-04-19T10:58:10.055Z</time></trkpt><trkpt lat="44.898685" lon="7.9799067"><ele>198.0</ele><time>2026-04-19T10:58:11.105Z</time></trkpt><trkpt lat="44.8986017" lon="7.9799533"><ele>198.0</ele><time>2026-04-19T10:58:12.062Z</time></trkpt><trkpt lat="44.898515" lon="7.9799883"><ele>198.0</ele><time>2026-04-19T10:58:13.059Z</time></trkpt><trkpt lat="44.8984267" lon="7.98001"><ele>198.0</ele><time>2026-04-19T10:58:14.065Z</time></trkpt><trkpt lat="44.89834" lon="7.9800267"><ele>198.0</ele><time>2026-04-19T10:58:15.066Z</time></trkpt><trkpt lat="44.8982483" lon="7.9800333"><ele>198.0</ele><time>2026-04-19T10:58:16.063Z</time></trkpt><trkpt lat="44.898155" lon="7.980035"><ele>197.4</ele><time>2026-04-19T10:58:17.097Z</time></trkpt><trkpt lat="44.8980617" lon="7.9800367"><ele>196.8</ele><time>2026-04-19T10:58:18.067Z</time></trkpt><trkpt lat="44.8979633" lon="7.9800517"><ele>196.2</ele><time>2026-04-19T10:58:19.065Z</time></trkpt><trkpt lat="44.8978633" lon="7.98006"><ele>195.6</ele><time>2026-04-19T10:58:20.062Z</time></trkpt><trkpt lat="44.897765" lon="7.980075"><ele>195.0</ele><time>2026-04-19T10:58:21.06Z</time></trkpt><trkpt lat="44.8976667" lon="7.980085"><ele>195.2</ele><time>2026-04-19T10:58:22.057Z</time></trkpt><trkpt lat="44.89757" lon="7.9800967"><ele>195.4</ele><time>2026-04-19T10:58:23.093Z</time></trkpt><trkpt lat="44.8974733" lon="7.9801083"><ele>195.60000000000002</ele><time>2026-04-19T10:58:24.059Z</time></trkpt><trkpt lat="44.8973767" lon="7.9801233"><ele>195.8</ele><time>2026-04-19T10:58:25.061Z</time></trkpt><trkpt lat="44.8972817" lon="7.980135"><ele>196.0</ele><time>2026-04-19T10:58:26.056Z</time></trkpt><trkpt lat="44.8971817" lon="7.98015"><ele>196.0</ele><time>2026-04-19T10:58:27.06Z</time></trkpt><trkpt lat="44.8970833" lon="7.98017"><ele>196.0</ele><time>2026-04-19T10:58:28.067Z</time></trkpt><trkpt lat="44.896985" lon="7.98019"><ele>196.0</ele><time>2026-04-19T10:58:29.126Z</time></trkpt><trkpt lat="44.8968917" lon="7.980215"><ele>196.0</ele><time>2026-04-19T10:58:30.054Z</time></trkpt><trkpt lat="44.896805" lon="7.9802317"><ele>196.0</ele><time>2026-04-19T10:58:31.066Z</time></trkpt><trkpt lat="44.8967117" lon="7.9802283"><ele>196.0</ele><time>2026-04-19T10:58:32.055Z</time></trkpt><trkpt lat="44.8966267" lon="7.9802033"><ele>196.0</ele><time>2026-04-19T10:58:33.065Z</time></trkpt><trkpt lat="44.89655" lon="7.98016"><ele>196.0</ele><time>2026-04-19T10:58:34.053Z</time></trkpt><trkpt lat="44.8964867" lon="7.9801033"><ele>196.0</ele><time>2026-04-19T10:58:35.116Z</time></trkpt><trkpt lat="44.89644" lon="7.9800333"><ele>196.0</ele><time>2026-04-19T10:58:36.056Z</time></trkpt><trkpt lat="44.896405" lon="7.9799517"><ele>196.0</ele><time>2026-04-19T10:58:37.063Z</time></trkpt><trkpt lat="44.8963767" lon="7.9798667"><ele>196.0</ele><time>2026-04-19T10:58:38.064Z</time></trkpt><trkpt lat="44.8963467" lon="7.979775"><ele>197.28571428571428</ele><time>2026-04-19T10:58:39.063Z</time></trkpt><trkpt lat="44.89632" lon="7.9796817"><ele>198.57142857142856</ele><time>2026-04-19T10:58:40.068Z</time></trkpt><trkpt lat="44.89629" lon="7.9795867"><ele>199.85714285714286</ele><time>2026-04-19T10:58:41.098Z</time></trkpt><trkpt lat="44.8962567" lon="7.9794933"><ele>201.14285714285714</ele><time>2026-04-19T10:58:42.061Z</time></trkpt><trkpt lat="44.8962217" lon="7.9793983"><ele>202.42857142857142</ele><time>2026-04-19T10:58:43.066Z</time></trkpt><trkpt lat="44.896185" lon="7.9793117"><ele>203.71428571428572</ele><time>2026-04-19T10:58:44.064Z</time></trkpt><trkpt lat="44.896145" lon="7.97923"><ele>205.0</ele><time>2026-04-19T10:58:45.062Z</time></trkpt><trkpt lat="44.896105" lon="7.9791517"><ele>205.0</ele><time>2026-04-19T10:58:46.067Z</time></trkpt><trkpt lat="44.89606" lon="7.9790683"><ele>205.0</ele><time>2026-04-19T10:58:47.097Z</time></trkpt><trkpt lat="44.8960067" lon="7.9789733"><ele>205.0</ele><time>2026-04-19T10:58:48.064Z</time></trkpt><trkpt lat="44.8959533" lon="7.9788683"><ele>205.0</ele><time>2026-04-19T10:58:49.062Z</time></trkpt><trkpt lat="44.8958967" lon="7.9787517"><ele>205.0</ele><time>2026-04-19T10:58:50.055Z</time></trkpt><trkpt lat="44.8958417" lon="7.978625"><ele>205.0</ele><time>2026-04-19T10:58:51.062Z</time></trkpt><trkpt lat="44.8957867" lon="7.9784933"><ele>205.0</ele><time>2026-04-19T10:58:52.065Z</time></trkpt><trkpt lat="44.8957267" lon="7.9783567"><ele>205.0</ele><time>2026-04-19T10:58:53.092Z</time></trkpt><trkpt lat="44.8956633" lon="7.9782067"><ele>205.0</ele><time>2026-04-19T10:58:54.06Z</time></trkpt><trkpt lat="44.8955983" lon="7.9780483"><ele>205.75</ele><time>2026-04-19T10:58:55.064Z</time></trkpt><trkpt lat="44.8955317" lon="7.9778967"><ele>206.5</ele><time>2026-04-19T10:58:56.064Z</time></trkpt><trkpt lat="44.8954683" lon="7.97775"><ele>207.25</ele><time>2026-04-19T10:58:57.062Z</time></trkpt><trkpt lat="44.8954" lon="7.97761"><ele>208.0</ele><time>2026-04-19T10:58:58.055Z</time></trkpt><trkpt lat="44.89533" lon="7.9774767"><ele>207.60000000000002</ele><time>2026-04-19T10:58:59.122Z</time></trkpt><trkpt lat="44.895265" lon="7.9773467"><ele>207.20000000000002</ele><time>2026-04-19T10:59:00.058Z</time></trkpt><trkpt lat="44.895215" lon="7.977225"><ele>206.8</ele><time>2026-04-19T10:59:01.068Z</time></trkpt><trkpt lat="44.8951683" lon="7.9771017"><ele>206.4</ele><time>2026-04-19T10:59:02.057Z</time></trkpt><trkpt lat="44.8951267" lon="7.9769767"><ele>206.0</ele><time>2026-04-19T10:59:03.063Z</time></trkpt><trkpt lat="44.89508" lon="7.9768533"><ele>206.0</ele><time>2026-04-19T10:59:04.064Z</time></trkpt><trkpt lat="44.8950233" lon="7.9767433"><ele>206.0</ele><time>2026-04-19T10:59:05.115Z</time></trkpt><trkpt lat="44.8949517" lon="7.97665"><ele>206.0</ele><time>2026-04-19T10:59:06.06Z</time></trkpt><trkpt lat="44.8948717" lon="7.97657"><ele>206.0</ele><time>2026-04-19T10:59:07.064Z</time></trkpt><trkpt lat="44.894775" lon="7.9764917"><ele>206.0</ele><time>2026-04-19T10:59:08.064Z</time></trkpt><trkpt lat="44.894675" lon="7.9764183"><ele>205.0</ele><time>2026-04-19T10:59:09.057Z</time></trkpt><trkpt lat="44.8945683" lon="7.9763417"><ele>204.0</ele><time>2026-04-19T10:59:10.066Z</time></trkpt><trkpt lat="44.8944517" lon="7.97626"><ele>203.0</ele><time>2026-04-19T10:59:11.097Z</time></trkpt><trkpt lat="44.8943367" lon="7.9761783"><ele>202.0</ele><time>2026-04-19T10:59:12.058Z</time></trkpt><trkpt lat="44.8942317" lon="7.97611"><ele>202.0</ele><time>2026-04-19T10:59:13.064Z</time></trkpt><trkpt lat="44.89414" lon="7.9760583"><ele>202.0</ele><time>2026-04-19T10:59:14.057Z</time></trkpt><trkpt lat="44.8940667" lon="7.9760217"><ele>202.0</ele><time>2026-04-19T10:59:15.067Z</time></trkpt><trkpt lat="44.8939783" lon="7.9759867"><ele>202.0</ele><time>2026-04-19T10:59:17.1Z</time></trkpt><trkpt lat="44.893895" lon="7.975955"><ele>202.0</ele><time>2026-04-19T10:59:19.065Z</time></trkpt><trkpt lat="44.89378" lon="7.9759"><ele>201.99999999999997</ele><time>2026-04-19T10:59:21.063Z</time></trkpt><trkpt lat="44.8937167" lon="7.9758567"><ele>202.0</ele><time>2026-04-19T10:59:22.058Z</time></trkpt><trkpt lat="44.8936533" lon="7.9757967"><ele>202.0</ele><time>2026-04-19T10:59:23.096Z</time></trkpt><trkpt lat="44.8935817" lon="7.9757333"><ele>202.0</ele><time>2026-04-19T10:59:24.06Z</time></trkpt><trkpt lat="44.8935067" lon="7.97567"><ele>201.99999999999997</ele><time>2026-04-19T10:59:25.062Z</time></trkpt><trkpt lat="44.8934317" lon="7.9756017"><ele>202.0</ele><time>2026-04-19T10:59:26.062Z</time></trkpt><trkpt lat="44.893355" lon="7.975545"><ele>203.28571428571428</ele><time>2026-04-19T10:59:27.061Z</time></trkpt><trkpt lat="44.893285" lon="7.9754917"><ele>204.57142857142856</ele><time>2026-04-19T10:59:28.067Z</time></trkpt><trkpt lat="44.8932217" lon="7.97544"><ele>205.85714285714286</ele><time>2026-04-19T10:59:29.123Z</time></trkpt><trkpt lat="44.8931667" lon="7.97539"><ele>207.14285714285714</ele><time>2026-04-19T10:59:30.057Z</time></trkpt><trkpt lat="44.893105" lon="7.9753533"><ele>208.42857142857144</ele><time>2026-04-19T10:59:31.061Z</time></trkpt><trkpt lat="44.89304" lon="7.9753133"><ele>209.71428571428572</ele><time>2026-04-19T10:59:32.057Z</time></trkpt><trkpt lat="44.8929717" lon="7.9752683"><ele>211.0</ele><time>2026-04-19T10:59:33.066Z</time></trkpt><trkpt lat="44.8928933" lon="7.9752217"><ele>210.99999999999997</ele><time>2026-04-19T10:59:34.065Z</time></trkpt><trkpt lat="44.8928133" lon="7.9751683"><ele>211.0</ele><time>2026-04-19T10:59:35.113Z</time></trkpt><trkpt lat="44.8927283" lon="7.97511"><ele>211.0</ele><time>2026-04-19T10:59:36.06Z</time></trkpt><trkpt lat="44.8926433" lon="7.9750617"><ele>211.0</ele><time>2026-04-19T10:59:37.066Z</time></trkpt><trkpt lat="44.8925617" lon="7.97502"><ele>210.99999999999997</ele><time>2026-04-19T10:59:38.062Z</time></trkpt><trkpt lat="44.89249" lon="7.9749917"><ele>211.0</ele><time>2026-04-19T10:59:39.062Z</time></trkpt><trkpt lat="44.8924233" lon="7.9749767"><ele>213.16666666666666</ele><time>2026-04-19T10:59:40.066Z</time></trkpt><trkpt lat="44.89236" lon="7.9749467"><ele>215.33333333333331</ele><time>2026-04-19T10:59:41.095Z</time></trkpt><trkpt lat="44.8922933" lon="7.9749167"><ele>217.5</ele><time>2026-04-19T10:59:42.059Z</time></trkpt><trkpt lat="44.8922183" lon="7.97488"><ele>219.66666666666669</ele><time>2026-04-19T10:59:43.063Z</time></trkpt><trkpt lat="44.8921367" lon="7.97483"><ele>221.83333333333334</ele><time>2026-04-19T10:59:44.058Z</time></trkpt><trkpt lat="44.892055" lon="7.9747783"><ele>224.0</ele><time>2026-04-19T10:59:45.064Z</time></trkpt><trkpt lat="44.8919733" lon="7.97472"><ele>224.00000000000003</ele><time>2026-04-19T10:59:46.061Z</time></trkpt><trkpt lat="44.8918933" lon="7.974665"><ele>224.0</ele><time>2026-04-19T10:59:47.096Z</time></trkpt><trkpt lat="44.8918217" lon="7.9746083"><ele>224.0</ele><time>2026-04-19T10:59:48.06Z</time></trkpt><trkpt lat="44.89176" lon="7.9745617"><ele>224.0</ele><time>2026-04-19T10:59:49.061Z</time></trkpt><trkpt lat="44.8916667" lon="7.974475"><ele>224.00000000000003</ele><time>2026-04-19T10:59:51.057Z</time></trkpt><trkpt lat="44.8916217" lon="7.9743733"><ele>224.0</ele><time>2026-04-19T10:59:53.094Z</time></trkpt><trkpt lat="44.8916217" lon="7.9742667"><ele>224.39999999999998</ele><time>2026-04-19T10:59:55.058Z</time></trkpt><trkpt lat="44.8916667" lon="7.9741483"><ele>224.79999999999998</ele><time>2026-04-19T10:59:57.064Z</time></trkpt><trkpt lat="44.8917233" lon="7.974075"><ele>225.20000000000002</ele><time>2026-04-19T10:59:58.055Z</time></trkpt><trkpt lat="44.8918217" lon="7.9740083"><ele>225.60000000000002</ele><time>2026-04-19T10:59:59.122Z</time></trkpt><trkpt lat="44.891925" lon="7.9739383"><ele>226.0</ele><time>2026-04-19T11:00:00.059Z</time></trkpt><trkpt lat="44.892025" lon="7.97385"><ele>228.75</ele><time>2026-04-19T11:00:01.064Z</time></trkpt><trkpt lat="44.8921267" lon="7.97374"><ele>231.5</ele><time>2026-04-19T11:00:02.063Z</time></trkpt><trkpt lat="44.8922267" lon="7.97362"><ele>234.25</ele><time>2026-04-19T11:00:03.062Z</time></trkpt><trkpt lat="44.892325" lon="7.9735017"><ele>237.0</ele><time>2026-04-19T11:00:04.059Z</time></trkpt><trkpt lat="44.8924133" lon="7.9733817"><ele>239.16666666666666</ele><time>2026-04-19T11:00:05.112Z</time></trkpt><trkpt lat="44.8924883" lon="7.9732883"><ele>241.33333333333331</ele><time>2026-04-19T11:00:06.055Z</time></trkpt><trkpt lat="44.8925567" lon="7.9732083"><ele>243.5</ele><time>2026-04-19T11:00:07.063Z</time></trkpt><trkpt lat="44.8926133" lon="7.9731583"><ele>245.66666666666666</ele><time>2026-04-19T11:00:08.064Z</time></trkpt><trkpt lat="44.89269" lon="7.9731167"><ele>247.83333333333331</ele><time>2026-04-19T11:00:10.057Z</time></trkpt><trkpt lat="44.8927183" lon="7.9730033"><ele>250.0</ele><time>2026-04-19T11:00:13.057Z</time></trkpt><trkpt lat="44.8927483" lon="7.972915"><ele>251.0</ele><time>2026-04-19T11:00:15.064Z</time></trkpt><trkpt lat="44.8928367" lon="7.9728683"><ele>252.0</ele><time>2026-04-19T11:00:17.106Z</time></trkpt><trkpt lat="44.892935" lon="7.9728183"><ele>253.0</ele><time>2026-04-19T11:00:19.067Z</time></trkpt><trkpt lat="44.89299" lon="7.9727167"><ele>254.0</ele><time>2026-04-19T11:00:21.061Z</time></trkpt><trkpt lat="44.8929917" lon="7.9725833"><ele>255.0</ele><time>2026-04-19T11:00:23.101Z</time></trkpt><trkpt lat="44.8929733" lon="7.97241"><ele>255.5</ele><time>2026-04-19T11:00:25.065Z</time></trkpt><trkpt lat="44.8929617" lon="7.972305"><ele>256.0</ele><time>2026-04-19T11:00:26.061Z</time></trkpt><trkpt lat="44.8929517" lon="7.9721883"><ele>256.5</ele><time>2026-04-19T11:00:27.062Z</time></trkpt><trkpt lat="44.89295" lon="7.972065"><ele>257.0</ele><time>2026-04-19T11:00:28.057Z</time></trkpt><trkpt lat="44.8929567" lon="7.9719383"><ele>257.5</ele><time>2026-04-19T11:00:29.127Z</time></trkpt><trkpt lat="44.8929717" lon="7.97181"><ele>258.0</ele><time>2026-04-19T11:00:30.066Z</time></trkpt><trkpt lat="44.8929933" lon="7.9716833"><ele>258.6</ele><time>2026-04-19T11:00:31.065Z</time></trkpt><trkpt lat="44.8930117" lon="7.9715567"><ele>259.20000000000005</ele><time>2026-04-19T11:00:32.06Z</time></trkpt><trkpt lat="44.893025" lon="7.9714267"><ele>259.8</ele><time>2026-04-19T11:00:33.059Z</time></trkpt><trkpt lat="44.8930283" lon="7.9712983"><ele>260.40000000000003</ele><time>2026-04-19T11:00:34.057Z</time></trkpt><trkpt lat="44.8930267" lon="7.9711717"><ele>261.0</ele><time>2026-04-19T11:00:35.119Z</time></trkpt><trkpt lat="44.8930183" lon="7.971045"><ele>261.0</ele><time>2026-04-19T11:00:36.061Z</time></trkpt><trkpt lat="44.8930033" lon="7.9709167"><ele>261.0</ele><time>2026-04-19T11:00:37.064Z</time></trkpt><trkpt lat="44.8929783" lon="7.9707883"><ele>261.0</ele><time>2026-04-19T11:00:38.057Z</time></trkpt><trkpt lat="44.8929483" lon="7.9706583"><ele>261.0</ele><time>2026-04-19T11:00:39.066Z</time></trkpt><trkpt lat="44.8929183" lon="7.9705267"><ele>261.0</ele><time>2026-04-19T11:00:40.062Z</time></trkpt><trkpt lat="44.8928817" lon="7.9703917"><ele>261.1666666666667</ele><time>2026-04-19T11:00:41.093Z</time></trkpt><trkpt lat="44.89284" lon="7.97026"><ele>261.3333333333333</ele><time>2026-04-19T11:00:42.062Z</time></trkpt><trkpt lat="44.8927967" lon="7.9701333"><ele>261.5</ele><time>2026-04-19T11:00:43.059Z</time></trkpt><trkpt lat="44.8927533" lon="7.9700217"><ele>261.66666666666663</ele><time>2026-04-19T11:00:44.065Z</time></trkpt><trkpt lat="44.89271" lon="7.9699267"><ele>261.8333333333333</ele><time>2026-04-19T11:00:45.064Z</time></trkpt><trkpt lat="44.892665" lon="7.96986"><ele>262.0</ele><time>2026-04-19T11:00:46.066Z</time></trkpt><trkpt lat="44.89261" lon="7.9698167"><ele>263.0</ele><time>2026-04-19T11:00:47.097Z</time></trkpt><trkpt lat="44.8925433" lon="7.9697867"><ele>264.0</ele><time>2026-04-19T11:00:48.056Z</time></trkpt><trkpt lat="44.89246" lon="7.9697567"><ele>265.0</ele><time>2026-04-19T11:00:49.071Z</time></trkpt><trkpt lat="44.8923733" lon="7.9697233"><ele>266.0</ele><time>2026-04-19T11:00:50.064Z</time></trkpt><trkpt lat="44.8922933" lon="7.9696833"><ele>267.0</ele><time>2026-04-19T11:00:51.059Z</time></trkpt><trkpt lat="44.8922133" lon="7.9696367"><ele>268.0</ele><time>2026-04-19T11:00:52.06Z</time></trkpt><trkpt lat="44.8921317" lon="7.96958"><ele>268.0</ele><time>2026-04-19T11:00:53.096Z</time></trkpt><trkpt lat="44.8920533" lon="7.9695167"><ele>268.0</ele><time>2026-04-19T11:00:54.056Z</time></trkpt><trkpt lat="44.8919783" lon="7.969445"><ele>268.0</ele><time>2026-04-19T11:00:55.059Z</time></trkpt><trkpt lat="44.891905" lon="7.96937"><ele>268.0</ele><time>2026-04-19T11:00:56.064Z</time></trkpt><trkpt lat="44.8918367" lon="7.9692833"><ele>268.0</ele><time>2026-04-19T11:00:57.067Z</time></trkpt><trkpt lat="44.8917633" lon="7.9691933"><ele>267.8333333333333</ele><time>2026-04-19T11:00:58.062Z</time></trkpt><trkpt lat="44.8916967" lon="7.96913"><ele>267.66666666666663</ele><time>2026-04-19T11:00:59.133Z</time></trkpt><trkpt lat="44.8916267" lon="7.9690867"><ele>267.5</ele><time>2026-04-19T11:01:00.058Z</time></trkpt><trkpt lat="44.8915483" lon="7.9690617"><ele>267.3333333333333</ele><time>2026-04-19T11:01:01.063Z</time></trkpt><trkpt lat="44.891455" lon="7.9690717"><ele>267.1666666666667</ele><time>2026-04-19T11:01:02.063Z</time></trkpt><trkpt lat="44.8913433" lon="7.969115"><ele>267.0</ele><time>2026-04-19T11:01:03.062Z</time></trkpt><trkpt lat="44.89122" lon="7.9691667"><ele>266.25</ele><time>2026-04-19T11:01:04.069Z</time></trkpt><trkpt lat="44.8910983" lon="7.969215"><ele>265.5</ele><time>2026-04-19T11:01:05.117Z</time></trkpt><trkpt lat="44.8909733" lon="7.96927"><ele>264.75</ele><time>2026-04-19T11:01:06.059Z</time></trkpt><trkpt lat="44.8908417" lon="7.9693233"><ele>264.0</ele><time>2026-04-19T11:01:07.066Z</time></trkpt><trkpt lat="44.89072" lon="7.9693767"><ele>264.0</ele><time>2026-04-19T11:01:08.063Z</time></trkpt><trkpt lat="44.8906083" lon="7.9694383"><ele>264.0</ele><time>2026-04-19T11:01:09.074Z</time></trkpt><trkpt lat="44.89051" lon="7.9695117"><ele>264.0</ele><time>2026-04-19T11:01:10.062Z</time></trkpt><trkpt lat="44.8904133" lon="7.969585"><ele>264.0</ele><time>2026-04-19T11:01:11.093Z</time></trkpt><trkpt lat="44.8903133" lon="7.9696567"><ele>264.0</ele><time>2026-04-19T11:01:12.061Z</time></trkpt><trkpt lat="44.8902133" lon="7.969715"><ele>264.0</ele><time>2026-04-19T11:01:13.064Z</time></trkpt><trkpt lat="44.89011" lon="7.969775"><ele>264.0</ele><time>2026-04-19T11:01:14.056Z</time></trkpt><trkpt lat="44.8900067" lon="7.969835"><ele>264.0</ele><time>2026-04-19T11:01:15.061Z</time></trkpt><trkpt lat="44.8899" lon="7.96989"><ele>264.0</ele><time>2026-04-19T11:01:16.057Z</time></trkpt><trkpt lat="44.8897967" lon="7.969945"><ele>263.4</ele><time>2026-04-19T11:01:17.104Z</time></trkpt><trkpt lat="44.889695" lon="7.9699917"><ele>262.79999999999995</ele><time>2026-04-19T11:01:18.056Z</time></trkpt><trkpt lat="44.889595" lon="7.9700267"><ele>262.20000000000005</ele><time>2026-04-19T11:01:19.064Z</time></trkpt><trkpt lat="44.88949" lon="7.9700683"><ele>261.6</ele><time>2026-04-19T11:01:20.059Z</time></trkpt><trkpt lat="44.8893883" lon="7.970105"><ele>261.0</ele><time>2026-04-19T11:01:21.063Z</time></trkpt><trkpt lat="44.8892983" lon="7.9701383"><ele>263.5</ele><time>2026-04-19T11:01:22.059Z</time></trkpt><trkpt lat="44.8892283" lon="7.9701633"><ele>266.0</ele><time>2026-04-19T11:01:23.097Z</time></trkpt><trkpt lat="44.8891617" lon="7.9701917"><ele>268.5</ele><time>2026-04-19T11:01:25.066Z</time></trkpt><trkpt lat="44.88907" lon="7.9702783"><ele>271.0</ele><time>2026-04-19T11:01:28.058Z</time></trkpt><trkpt lat="44.8889717" lon="7.9703767"><ele>273.5</ele><time>2026-04-19T11:01:30.064Z</time></trkpt><trkpt lat="44.88891" lon="7.9704233"><ele>276.0</ele><time>2026-04-19T11:01:31.064Z</time></trkpt><trkpt lat="44.8888417" lon="7.97047"><ele>276.0</ele><time>2026-04-19T11:01:32.064Z</time></trkpt><trkpt lat="44.88877" lon="7.9705183"><ele>276.0</ele><time>2026-04-19T11:01:33.055Z</time></trkpt><trkpt lat="44.8887033" lon="7.9705767"><ele>276.0</ele><time>2026-04-19T11:01:34.064Z</time></trkpt><trkpt lat="44.8886317" lon="7.9706283"><ele>276.0</ele><time>2026-04-19T11:01:35.124Z</time></trkpt><trkpt lat="44.8885617" lon="7.9706783"><ele>276.0</ele><time>2026-04-19T11:01:36.062Z</time></trkpt><trkpt lat="44.8884983" lon="7.9707317"><ele>276.0</ele><time>2026-04-19T11:01:37.066Z</time></trkpt><trkpt lat="44.88844" lon="7.9707717"><ele>277.5</ele><time>2026-04-19T11:01:38.064Z</time></trkpt><trkpt lat="44.8883617" lon="7.970775"><ele>279.0</ele><time>2026-04-19T11:01:40.058Z</time></trkpt><trkpt lat="44.8883083" lon="7.97065"><ele>280.5</ele><time>2026-04-19T11:01:42.061Z</time></trkpt><trkpt lat="44.8882783" lon="7.97055"><ele>282.0</ele><time>2026-04-19T11:01:43.068Z</time></trkpt><trkpt lat="44.88826" lon="7.97043"><ele>283.5</ele><time>2026-04-19T11:01:44.061Z</time></trkpt><trkpt lat="44.8882367" lon="7.9702983"><ele>285.0</ele><time>2026-04-19T11:01:45.062Z</time></trkpt><trkpt lat="44.888215" lon="7.9701517"><ele>285.2</ele><time>2026-04-19T11:01:46.06Z</time></trkpt><trkpt lat="44.8881883" lon="7.9700033"><ele>285.4</ele><time>2026-04-19T11:01:47.093Z</time></trkpt><trkpt lat="44.888155" lon="7.9698567"><ele>285.6</ele><time>2026-04-19T11:01:48.063Z</time></trkpt><trkpt lat="44.8881117" lon="7.9697083"><ele>285.8</ele><time>2026-04-19T11:01:49.073Z</time></trkpt><trkpt lat="44.88806" lon="7.9695667"><ele>286.0</ele><time>2026-04-19T11:01:50.062Z</time></trkpt><trkpt lat="44.887995" lon="7.9694267"><ele>286.0</ele><time>2026-04-19T11:01:51.058Z</time></trkpt><trkpt lat="44.8879217" lon="7.9692917"><ele>286.0</ele><time>2026-04-19T11:01:52.065Z</time></trkpt><trkpt lat="44.8878367" lon="7.96916"><ele>286.0</ele><time>2026-04-19T11:01:53.103Z</time></trkpt><trkpt lat="44.8877417" lon="7.9690317"><ele>286.0</ele><time>2026-04-19T11:01:54.059Z</time></trkpt><trkpt lat="44.887635" lon="7.9689167"><ele>284.5</ele><time>2026-04-19T11:01:55.063Z</time></trkpt><trkpt lat="44.887525" lon="7.968815"><ele>283.0</ele><time>2026-04-19T11:01:56.063Z</time></trkpt><trkpt lat="44.88742" lon="7.9687133"><ele>281.5</ele><time>2026-04-19T11:01:57.067Z</time></trkpt><trkpt lat="44.88732" lon="7.9686117"><ele>280.0</ele><time>2026-04-19T11:01:58.058Z</time></trkpt><trkpt lat="44.887215" lon="7.968505"><ele>280.0</ele><time>2026-04-19T11:01:59.127Z</time></trkpt><trkpt lat="44.8871067" lon="7.9684133"><ele>280.0</ele><time>2026-04-19T11:02:00.058Z</time></trkpt><trkpt lat="44.8869867" lon="7.9683383"><ele>280.0</ele><time>2026-04-19T11:02:01.067Z</time></trkpt><trkpt lat="44.8868683" lon="7.9682817"><ele>280.0</ele><time>2026-04-19T11:02:02.063Z</time></trkpt><trkpt lat="44.886765" lon="7.9682367"><ele>281.4</ele><time>2026-04-19T11:02:03.059Z</time></trkpt><trkpt lat="44.8866867" lon="7.9682"><ele>282.8</ele><time>2026-04-19T11:02:04.06Z</time></trkpt><trkpt lat="44.8866217" lon="7.9681667"><ele>284.2</ele><time>2026-04-19T11:02:05.117Z</time></trkpt><trkpt lat="44.8865283" lon="7.968125"><ele>285.6</ele><time>2026-04-19T11:02:07.063Z</time></trkpt><trkpt lat="44.8864367" lon="7.9680833"><ele>287.0</ele><time>2026-04-19T11:02:09.063Z</time></trkpt><trkpt lat="44.88633" lon="7.9680333"><ele>287.0</ele><time>2026-04-19T11:02:11.097Z</time></trkpt><trkpt lat="44.886265" lon="7.967995"><ele>287.0</ele><time>2026-04-19T11:02:12.06Z</time></trkpt><trkpt lat="44.88619" lon="7.9679467"><ele>287.0</ele><time>2026-04-19T11:02:13.057Z</time></trkpt><trkpt lat="44.8861217" lon="7.9678917"><ele>287.0</ele><time>2026-04-19T11:02:14.066Z</time></trkpt><trkpt lat="44.88606" lon="7.9678267"><ele>287.0</ele><time>2026-04-19T11:02:15.076Z</time></trkpt><trkpt lat="44.8860067" lon="7.9677517"><ele>287.0</ele><time>2026-04-19T11:02:16.065Z</time></trkpt><trkpt lat="44.8859633" lon="7.9676617"><ele>287.0</ele><time>2026-04-19T11:02:17.097Z</time></trkpt><trkpt lat="44.8859317" lon="7.9675517"><ele>287.0</ele><time>2026-04-19T11:02:18.06Z</time></trkpt><trkpt lat="44.8859133" lon="7.9674283"><ele>287.0</ele><time>2026-04-19T11:02:19.057Z</time></trkpt><trkpt lat="44.8858933" lon="7.9672883"><ele>287.0</ele><time>2026-04-19T11:02:20.063Z</time></trkpt><trkpt lat="44.8858633" lon="7.96714"><ele>287.0</ele><time>2026-04-19T11:02:21.056Z</time></trkpt><trkpt lat="44.8858217" lon="7.9669867"><ele>286.8</ele><time>2026-04-19T11:02:22.059Z</time></trkpt><trkpt lat="44.885765" lon="7.96686"><ele>286.6</ele><time>2026-04-19T11:02:23.088Z</time></trkpt><trkpt lat="44.8856967" lon="7.9667433"><ele>286.40000000000003</ele><time>2026-04-19T11:02:24.058Z</time></trkpt><trkpt lat="44.8856283" lon="7.96663"><ele>286.2</ele><time>2026-04-19T11:02:25.063Z</time></trkpt><trkpt lat="44.8855683" lon="7.9665217"><ele>286.0</ele><time>2026-04-19T11:02:26.06Z</time></trkpt><trkpt lat="44.885525" lon="7.9663867"><ele>286.0</ele><time>2026-04-19T11:02:27.063Z</time></trkpt><trkpt lat="44.885505" lon="7.96626"><ele>286.0</ele><time>2026-04-19T11:02:28.061Z</time></trkpt><trkpt lat="44.885505" lon="7.9661333"><ele>286.0</ele><time>2026-04-19T11:02:29.122Z</time></trkpt><trkpt lat="44.8855033" lon="7.9660117"><ele>286.0</ele><time>2026-04-19T11:02:30.058Z</time></trkpt><trkpt lat="44.8854933" lon="7.9659067"><ele>286.0</ele><time>2026-04-19T11:02:31.057Z</time></trkpt><trkpt lat="44.8854467" lon="7.965755"><ele>284.40000000000003</ele><time>2026-04-19T11:02:33.056Z</time></trkpt><trkpt lat="44.885395" lon="7.965685"><ele>282.8</ele><time>2026-04-19T11:02:34.06Z</time></trkpt><trkpt lat="44.8853283" lon="7.9656133"><ele>281.20000000000005</ele><time>2026-04-19T11:02:35.114Z</time></trkpt><trkpt lat="44.88525" lon="7.965525"><ele>279.6</ele><time>2026-04-19T11:02:36.063Z</time></trkpt><trkpt lat="44.8851667" lon="7.965455"><ele>278.0</ele><time>2026-04-19T11:02:37.065Z</time></trkpt><trkpt lat="44.88507" lon="7.9654067"><ele>278.0</ele><time>2026-04-19T11:02:38.065Z</time></trkpt><trkpt lat="44.884965" lon="7.965375"><ele>278.0</ele><time>2026-04-19T11:02:39.061Z</time></trkpt><trkpt lat="44.8848567" lon="7.9653483"><ele>278.0</ele><time>2026-04-19T11:02:40.063Z</time></trkpt><trkpt lat="44.88475" lon="7.965345"><ele>278.0</ele><time>2026-04-19T11:02:41.099Z</time></trkpt><trkpt lat="44.8846417" lon="7.9653883"><ele>278.0</ele><time>2026-04-19T11:02:42.055Z</time></trkpt><trkpt lat="44.884525" lon="7.9654383"><ele>278.0</ele><time>2026-04-19T11:02:43.066Z</time></trkpt><trkpt lat="44.8844033" lon="7.965485"><ele>278.0</ele><time>2026-04-19T11:02:44.053Z</time></trkpt><trkpt lat="44.8842817" lon="7.9655167"><ele>278.0</ele><time>2026-04-19T11:02:45.069Z</time></trkpt><trkpt lat="44.884155" lon="7.9655267"><ele>278.0</ele><time>2026-04-19T11:02:46.057Z</time></trkpt><trkpt lat="44.8840333" lon="7.9655167"><ele>277.0</ele><time>2026-04-19T11:02:47.099Z</time></trkpt><trkpt lat="44.88391" lon="7.9655"><ele>276.0</ele><time>2026-04-19T11:02:48.057Z</time></trkpt><trkpt lat="44.88379" lon="7.96548"><ele>275.0</ele><time>2026-04-19T11:02:49.059Z</time></trkpt><trkpt lat="44.8836683" lon="7.96546"><ele>274.0</ele><time>2026-04-19T11:02:50.06Z</time></trkpt><trkpt lat="44.8835517" lon="7.9654333"><ele>277.0</ele><time>2026-04-19T11:02:51.062Z</time></trkpt><trkpt lat="44.8834283" lon="7.965405"><ele>280.0</ele><time>2026-04-19T11:02:52.065Z</time></trkpt><trkpt lat="44.883305" lon="7.965375"><ele>283.0</ele><time>2026-04-19T11:02:53.09Z</time></trkpt><trkpt lat="44.8831883" lon="7.9653567"><ele>286.0</ele><time>2026-04-19T11:02:54.066Z</time></trkpt><trkpt lat="44.8830667" lon="7.9653517"><ele>286.0</ele><time>2026-04-19T11:02:55.065Z</time></trkpt><trkpt lat="44.8829433" lon="7.9653567"><ele>286.0</ele><time>2026-04-19T11:02:56.063Z</time></trkpt><trkpt lat="44.8828217" lon="7.9653667"><ele>286.0</ele><time>2026-04-19T11:02:57.066Z</time></trkpt><trkpt lat="44.882695" lon="7.9653733"><ele>286.0</ele><time>2026-04-19T11:02:58.065Z</time></trkpt><trkpt lat="44.8825667" lon="7.9653833"><ele>287.5</ele><time>2026-04-19T11:02:59.117Z</time></trkpt><trkpt lat="44.8824317" lon="7.9653983"><ele>289.0</ele><time>2026-04-19T11:03:00.059Z</time></trkpt><trkpt lat="44.8822967" lon="7.9654233"><ele>290.5</ele><time>2026-04-19T11:03:01.06Z</time></trkpt><trkpt lat="44.8821617" lon="7.965455"><ele>292.0</ele><time>2026-04-19T11:03:02.064Z</time></trkpt><trkpt lat="44.8820333" lon="7.9654967"><ele>292.0</ele><time>2026-04-19T11:03:03.065Z</time></trkpt><trkpt lat="44.88192" lon="7.965535"><ele>292.0</ele><time>2026-04-19T11:03:04.059Z</time></trkpt><trkpt lat="44.8818133" lon="7.9655667"><ele>292.0</ele><time>2026-04-19T11:03:05.113Z</time></trkpt><trkpt lat="44.8817067" lon="7.9655867"><ele>292.0</ele><time>2026-04-19T11:03:06.061Z</time></trkpt><trkpt lat="44.88159" lon="7.9655967"><ele>291.5</ele><time>2026-04-19T11:03:07.059Z</time></trkpt><trkpt lat="44.881465" lon="7.9656"><ele>291.0</ele><time>2026-04-19T11:03:08.057Z</time></trkpt><trkpt lat="44.8813283" lon="7.965605"><ele>290.5</ele><time>2026-04-19T11:03:09.068Z</time></trkpt><trkpt lat="44.8811883" lon="7.9656133"><ele>290.0</ele><time>2026-04-19T11:03:10.061Z</time></trkpt><trkpt lat="44.8810533" lon="7.96563"><ele>289.5</ele><time>2026-04-19T11:03:11.1Z</time></trkpt><trkpt lat="44.8809183" lon="7.96565"><ele>289.0</ele><time>2026-04-19T11:03:12.063Z</time></trkpt><trkpt lat="44.8807883" lon="7.9656717"><ele>288.5</ele><time>2026-04-19T11:03:13.063Z</time></trkpt><trkpt lat="44.880655" lon="7.9656917"><ele>288.0</ele><time>2026-04-19T11:03:14.057Z</time></trkpt><trkpt lat="44.8805213" lon="7.965712"><ele>288.0</ele><time>2026-04-19T11:03:15.061Z</time></trkpt><trkpt lat="44.8803931" lon="7.9657392"><ele>288.0</ele><time>2026-04-19T11:03:16.064Z</time></trkpt><trkpt lat="44.8802677" lon="7.9657828"><ele>288.0</ele><time>2026-04-19T11:03:17.099Z</time></trkpt><trkpt lat="44.8801446" lon="7.9658412"><ele>288.0</ele><time>2026-04-19T11:03:18.057Z</time></trkpt><trkpt lat="44.8800137" lon="7.9659122"><ele>288.0</ele><time>2026-04-19T11:03:19.065Z</time></trkpt><trkpt lat="44.879883" lon="7.9659875"><ele>288.0</ele><time>2026-04-19T11:03:20.06Z</time></trkpt><trkpt lat="44.8797547" lon="7.9660551"><ele>288.0</ele><time>2026-04-19T11:03:21.061Z</time></trkpt><trkpt lat="44.8796365" lon="7.9661066"><ele>288.0</ele><time>2026-04-19T11:03:22.063Z</time></trkpt><trkpt lat="44.879523" lon="7.9661467"><ele>288.0</ele><time>2026-04-19T11:03:23.095Z</time></trkpt><trkpt lat="44.8794166" lon="7.9661875"><ele>288.0</ele><time>2026-04-19T11:03:24.058Z</time></trkpt><trkpt lat="44.8793101" lon="7.9662503"><ele>288.0</ele><time>2026-04-19T11:03:25.069Z</time></trkpt><trkpt lat="44.8792118" lon="7.9663377"><ele>288.0</ele><time>2026-04-19T11:03:26.064Z</time></trkpt><trkpt lat="44.8791134" lon="7.9664282"><ele>289.25</ele><time>2026-04-19T11:03:27.076Z</time></trkpt><trkpt lat="44.8790168" lon="7.966511"><ele>290.5</ele><time>2026-04-19T11:03:28.068Z</time></trkpt><trkpt lat="44.8789151" lon="7.9665763"><ele>291.75</ele><time>2026-04-19T11:03:29.109Z</time></trkpt><trkpt lat="44.8788061" lon="7.9666196"><ele>293.0</ele><time>2026-04-19T11:03:30.058Z</time></trkpt><trkpt lat="44.8786836" lon="7.9666524"><ele>293.0</ele><time>2026-04-19T11:03:31.064Z</time></trkpt><trkpt lat="44.8785565" lon="7.9666826"><ele>293.0</ele><time>2026-04-19T11:03:32.061Z</time></trkpt><trkpt lat="44.8784308" lon="7.9667132"><ele>293.0</ele><time>2026-04-19T11:03:33.061Z</time></trkpt><trkpt lat="44.8783051" lon="7.9667449"><ele>293.0</ele><time>2026-04-19T11:03:34.063Z</time></trkpt><trkpt lat="44.8781781" lon="7.9667791"><ele>292.75</ele><time>2026-04-19T11:03:35.115Z</time></trkpt><trkpt lat="44.8780546" lon="7.9668181"><ele>292.5</ele><time>2026-04-19T11:03:36.055Z</time></trkpt><trkpt lat="44.8779272" lon="7.9668627"><ele>292.25</ele><time>2026-04-19T11:03:37.064Z</time></trkpt><trkpt lat="44.8778004" lon="7.9669053"><ele>292.0</ele><time>2026-04-19T11:03:38.059Z</time></trkpt><trkpt lat="44.8776705" lon="7.96694"><ele>293.5</ele><time>2026-04-19T11:03:39.062Z</time></trkpt><trkpt lat="44.8775392" lon="7.966962"><ele>295.0</ele><time>2026-04-19T11:03:40.064Z</time></trkpt><trkpt lat="44.87741" lon="7.9669771"><ele>296.5</ele><time>2026-04-19T11:03:41.096Z</time></trkpt><trkpt lat="44.877284" lon="7.9669877"><ele>298.0</ele><time>2026-04-19T11:03:42.06Z</time></trkpt><trkpt lat="44.8771541" lon="7.9669954"><ele>298.0</ele><time>2026-04-19T11:03:43.065Z</time></trkpt><trkpt lat="44.8770217" lon="7.967"><ele>298.0</ele><time>2026-04-19T11:03:44.058Z</time></trkpt><trkpt lat="44.87689" lon="7.967015"><ele>298.0</ele><time>2026-04-19T11:03:45.066Z</time></trkpt><trkpt lat="44.876765" lon="7.9670483"><ele>298.0</ele><time>2026-04-19T11:03:46.059Z</time></trkpt><trkpt lat="44.8766483" lon="7.967105"><ele>298.75</ele><time>2026-04-19T11:03:47.095Z</time></trkpt><trkpt lat="44.8765317" lon="7.9671883"><ele>299.5</ele><time>2026-04-19T11:03:48.056Z</time></trkpt><trkpt lat="44.8764183" lon="7.967285"><ele>300.25</ele><time>2026-04-19T11:03:49.061Z</time></trkpt><trkpt lat="44.8763033" lon="7.9673833"><ele>301.0</ele><time>2026-04-19T11:03:50.065Z</time></trkpt><trkpt lat="44.8761867" lon="7.9674817"><ele>302.25</ele><time>2026-04-19T11:03:51.059Z</time></trkpt><trkpt lat="44.8760717" lon="7.9675817"><ele>303.5</ele><time>2026-04-19T11:03:52.065Z</time></trkpt><trkpt lat="44.87596" lon="7.96768"><ele>304.75</ele><time>2026-04-19T11:03:53.093Z</time></trkpt><trkpt lat="44.875855" lon="7.9677783"><ele>306.0</ele><time>2026-04-19T11:03:54.057Z</time></trkpt><trkpt lat="44.8757533" lon="7.9678683"><ele>306.0</ele><time>2026-04-19T11:03:55.066Z</time></trkpt><trkpt lat="44.87566" lon="7.9679533"><ele>306.0</ele><time>2026-04-19T11:03:56.057Z</time></trkpt><trkpt lat="44.8755733" lon="7.9680333"><ele>306.0</ele><time>2026-04-19T11:03:57.064Z</time></trkpt><trkpt lat="44.875495" lon="7.96811"><ele>306.0</ele><time>2026-04-19T11:03:58.056Z</time></trkpt><trkpt lat="44.8754233" lon="7.968185"><ele>306.0</ele><time>2026-04-19T11:03:59.117Z</time></trkpt><trkpt lat="44.8753583" lon="7.9682633"><ele>306.0</ele><time>2026-04-19T11:04:00.06Z</time></trkpt><trkpt lat="44.875295" lon="7.9683467"><ele>306.0</ele><time>2026-04-19T11:04:01.059Z</time></trkpt><trkpt lat="44.8752317" lon="7.9684317"><ele>306.0</ele><time>2026-04-19T11:04:02.064Z</time></trkpt><trkpt lat="44.8751667" lon="7.9685183"><ele>306.0</ele><time>2026-04-19T11:04:03.064Z</time></trkpt><trkpt lat="44.8751067" lon="7.968605"><ele>306.0</ele><time>2026-04-19T11:04:04.06Z</time></trkpt><trkpt lat="44.875045" lon="7.9686917"><ele>306.0</ele><time>2026-04-19T11:04:05.116Z</time></trkpt><trkpt lat="44.8749833" lon="7.9687783"><ele>306.0</ele><time>2026-04-19T11:04:06.058Z</time></trkpt><trkpt lat="44.8749233" lon="7.9688633"><ele>306.0</ele><time>2026-04-19T11:04:07.06Z</time></trkpt><trkpt lat="44.8748617" lon="7.968945"><ele>306.0</ele><time>2026-04-19T11:04:08.059Z</time></trkpt><trkpt lat="44.8747983" lon="7.9690217"><ele>306.0</ele><time>2026-04-19T11:04:09.062Z</time></trkpt><trkpt lat="44.8747333" lon="7.969095"><ele>306.0</ele><time>2026-04-19T11:04:10.064Z</time></trkpt><trkpt lat="44.8746617" lon="7.9691633"><ele>306.0</ele><time>2026-04-19T11:04:11.091Z</time></trkpt><trkpt lat="44.8745917" lon="7.9692317"><ele>306.0</ele><time>2026-04-19T11:04:12.059Z</time></trkpt><trkpt lat="44.8745217" lon="7.9692983"><ele>306.0</ele><time>2026-04-19T11:04:13.065Z</time></trkpt><trkpt lat="44.8744567" lon="7.9693733"><ele>306.0</ele><time>2026-04-19T11:04:14.063Z</time></trkpt><trkpt lat="44.8743967" lon="7.9694567"><ele>306.0</ele><time>2026-04-19T11:04:15.066Z</time></trkpt><trkpt lat="44.874335" lon="7.969545"><ele>306.0</ele><time>2026-04-19T11:04:16.058Z</time></trkpt><trkpt lat="44.874275" lon="7.9696367"><ele>306.0</ele><time>2026-04-19T11:04:17.097Z</time></trkpt><trkpt lat="44.8742133" lon="7.9697283"><ele>306.0</ele><time>2026-04-19T11:04:18.062Z</time></trkpt><trkpt lat="44.87415" lon="7.96981"><ele>306.0</ele><time>2026-04-19T11:04:19.065Z</time></trkpt><trkpt lat="44.874085" lon="7.969885"><ele>306.0</ele><time>2026-04-19T11:04:20.058Z</time></trkpt><trkpt lat="44.8740167" lon="7.96996"><ele>306.0</ele><time>2026-04-19T11:04:21.054Z</time></trkpt><trkpt lat="44.8739483" lon="7.970035"><ele>306.0</ele><time>2026-04-19T11:04:22.055Z</time></trkpt><trkpt lat="44.8738867" lon="7.9701083"><ele>306.0</ele><time>2026-04-19T11:04:23.095Z</time></trkpt><trkpt lat="44.87384" lon="7.97018"><ele>305.3333333333333</ele><time>2026-04-19T11:04:24.057Z</time></trkpt><trkpt lat="44.8738017" lon="7.9702617"><ele>304.6666666666667</ele><time>2026-04-19T11:04:25.065Z</time></trkpt><trkpt lat="44.87378" lon="7.9703583"><ele>304.0</ele><time>2026-04-19T11:04:26.064Z</time></trkpt><trkpt lat="44.873755" lon="7.97044"><ele>303.33333333333337</ele><time>2026-04-19T11:04:27.065Z</time></trkpt><trkpt lat="44.873705" lon="7.970555"><ele>302.6666666666667</ele><time>2026-04-19T11:04:29.122Z</time></trkpt><trkpt lat="44.8736133" lon="7.9705983"><ele>302.0</ele><time>2026-04-19T11:04:31.057Z</time></trkpt><trkpt lat="44.8735433" lon="7.970605"><ele>302.0</ele><time>2026-04-19T11:04:32.062Z</time></trkpt><trkpt lat="44.8734617" lon="7.9706033"><ele>302.0</ele><time>2026-04-19T11:04:33.061Z</time></trkpt><trkpt lat="44.87337" lon="7.9706033"><ele>302.0</ele><time>2026-04-19T11:04:34.059Z</time></trkpt><trkpt lat="44.8732683" lon="7.9706067"><ele>302.0</ele><time>2026-04-19T11:04:35.115Z</time></trkpt><trkpt lat="44.8731567" lon="7.9706033"><ele>302.0</ele><time>2026-04-19T11:04:36.066Z</time></trkpt><trkpt lat="44.8730417" lon="7.9706033"><ele>304.25</ele><time>2026-04-19T11:04:37.064Z</time></trkpt><trkpt lat="44.8729233" lon="7.9706"><ele>306.5</ele><time>2026-04-19T11:04:38.067Z</time></trkpt><trkpt lat="44.8727983" lon="7.9705933"><ele>308.75</ele><time>2026-04-19T11:04:39.066Z</time></trkpt><trkpt lat="44.87267" lon="7.9705917"><ele>311.0</ele><time>2026-04-19T11:04:40.066Z</time></trkpt><trkpt lat="44.8725383" lon="7.97059"><ele>311.5</ele><time>2026-04-19T11:04:41.093Z</time></trkpt><trkpt lat="44.8724133" lon="7.9705883"><ele>312.0</ele><time>2026-04-19T11:04:42.06Z</time></trkpt><trkpt lat="44.8722933" lon="7.9705917"><ele>312.5</ele><time>2026-04-19T11:04:43.063Z</time></trkpt><trkpt lat="44.8721717" lon="7.9705917"><ele>313.0</ele><time>2026-04-19T11:04:44.059Z</time></trkpt><trkpt lat="44.8720533" lon="7.970595"><ele>313.0</ele><time>2026-04-19T11:04:45.061Z</time></trkpt><trkpt lat="44.8719333" lon="7.9705967"><ele>313.0</ele><time>2026-04-19T11:04:46.061Z</time></trkpt><trkpt lat="44.871815" lon="7.9706017"><ele>313.0</ele><time>2026-04-19T11:04:47.093Z</time></trkpt><trkpt lat="44.8716933" lon="7.9705983"><ele>313.0</ele><time>2026-04-19T11:04:48.063Z</time></trkpt><trkpt lat="44.8715733" lon="7.9705933"><ele>313.25</ele><time>2026-04-19T11:04:49.065Z</time></trkpt><trkpt lat="44.87145" lon="7.9705717"><ele>313.5</ele><time>2026-04-19T11:04:50.058Z</time></trkpt><trkpt lat="44.8713306" lon="7.9705366"><ele>313.75</ele><time>2026-04-19T11:04:51.06Z</time></trkpt><trkpt lat="44.8712074" lon="7.9704807"><ele>314.0</ele><time>2026-04-19T11:04:52.059Z</time></trkpt><trkpt lat="44.8710803" lon="7.9704173"><ele>314.0</ele><time>2026-04-19T11:04:53.098Z</time></trkpt><trkpt lat="44.8709554" lon="7.9703524"><ele>314.0</ele><time>2026-04-19T11:04:54.059Z</time></trkpt><trkpt lat="44.8708278" lon="7.9702932"><ele>314.0</ele><time>2026-04-19T11:04:55.069Z</time></trkpt><trkpt lat="44.8707034" lon="7.9702499"><ele>314.0</ele><time>2026-04-19T11:04:56.059Z</time></trkpt><trkpt lat="44.8705767" lon="7.9702215"><ele>313.2</ele><time>2026-04-19T11:04:57.058Z</time></trkpt><trkpt lat="44.870451" lon="7.9702006"><ele>312.4</ele><time>2026-04-19T11:04:58.065Z</time></trkpt><trkpt lat="44.8703332" lon="7.9701826"><ele>311.6</ele><time>2026-04-19T11:04:59.112Z</time></trkpt><trkpt lat="44.8702347" lon="7.9701659"><ele>310.8</ele><time>2026-04-19T11:05:00.059Z</time></trkpt><trkpt lat="44.8701378" lon="7.970151"><ele>310.0</ele><time>2026-04-19T11:05:01.076Z</time></trkpt><trkpt lat="44.8700418" lon="7.9701398"><ele>311.6</ele><time>2026-04-19T11:05:02.062Z</time></trkpt><trkpt lat="44.8699407" lon="7.9701287"><ele>313.2</ele><time>2026-04-19T11:05:03.061Z</time></trkpt><trkpt lat="44.8698358" lon="7.9701206"><ele>314.8</ele><time>2026-04-19T11:05:04.058Z</time></trkpt><trkpt lat="44.8697287" lon="7.9701033"><ele>316.4</ele><time>2026-04-19T11:05:05.115Z</time></trkpt><trkpt lat="44.8696242" lon="7.9700886"><ele>318.0</ele><time>2026-04-19T11:05:06.062Z</time></trkpt><trkpt lat="44.8695144" lon="7.9700726"><ele>318.0</ele><time>2026-04-19T11:05:07.067Z</time></trkpt><trkpt lat="44.8694029" lon="7.9700568"><ele>318.0</ele><time>2026-04-19T11:05:08.058Z</time></trkpt><trkpt lat="44.8692916" lon="7.9700385"><ele>318.0</ele><time>2026-04-19T11:05:09.064Z</time></trkpt><trkpt lat="44.8691916" lon="7.970022"><ele>318.0</ele><time>2026-04-19T11:05:10.064Z</time></trkpt><trkpt lat="44.8691089" lon="7.9700031"><ele>318.0</ele><time>2026-04-19T11:05:11.095Z</time></trkpt><trkpt lat="44.8690465" lon="7.9699892"><ele>317.6</ele><time>2026-04-19T11:05:12.062Z</time></trkpt><trkpt lat="44.8689637" lon="7.9699623"><ele>317.20000000000005</ele><time>2026-04-19T11:05:14.053Z</time></trkpt><trkpt lat="44.8689417" lon="7.9698767"><ele>316.8</ele><time>2026-04-19T11:05:16.065Z</time></trkpt><trkpt lat="44.8688983" lon="7.9696867"><ele>316.40000000000003</ele><time>2026-04-19T11:05:18.066Z</time></trkpt><trkpt lat="44.868865" lon="7.9695567"><ele>316.0</ele><time>2026-04-19T11:05:19.059Z</time></trkpt><trkpt lat="44.8688233" lon="7.9694083"><ele>316.0</ele><time>2026-04-19T11:05:20.062Z</time></trkpt><trkpt lat="44.868785" lon="7.9692583"><ele>316.0</ele><time>2026-04-19T11:05:21.062Z</time></trkpt><trkpt lat="44.8687533" lon="7.969105"><ele>316.0</ele><time>2026-04-19T11:05:22.065Z</time></trkpt><trkpt lat="44.8687283" lon="7.968945"><ele>316.0</ele><time>2026-04-19T11:05:23.093Z</time></trkpt><trkpt lat="44.8687067" lon="7.9687767"><ele>316.25</ele><time>2026-04-19T11:05:24.058Z</time></trkpt><trkpt lat="44.86869" lon="7.9686067"><ele>316.5</ele><time>2026-04-19T11:05:25.062Z</time></trkpt><trkpt lat="44.86867" lon="7.968435"><ele>316.75</ele><time>2026-04-19T11:05:26.059Z</time></trkpt><trkpt lat="44.8686467" lon="7.9682517"><ele>317.0</ele><time>2026-04-19T11:05:27.065Z</time></trkpt><trkpt lat="44.8686267" lon="7.96806"><ele>317.25</ele><time>2026-04-19T11:05:28.061Z</time></trkpt><trkpt lat="44.86862" lon="7.9678717"><ele>317.5</ele><time>2026-04-19T11:05:29.117Z</time></trkpt><trkpt lat="44.8686267" lon="7.967685"><ele>317.75</ele><time>2026-04-19T11:05:30.06Z</time></trkpt><trkpt lat="44.8686433" lon="7.9674967"><ele>318.0</ele><time>2026-04-19T11:05:31.064Z</time></trkpt><trkpt lat="44.8686667" lon="7.9673067"><ele>317.25</ele><time>2026-04-19T11:05:32.058Z</time></trkpt><trkpt lat="44.8686983" lon="7.967115"><ele>316.5</ele><time>2026-04-19T11:05:33.065Z</time></trkpt><trkpt lat="44.86873" lon="7.96694"><ele>315.75</ele><time>2026-04-19T11:05:34.06Z</time></trkpt><trkpt lat="44.8687633" lon="7.9667633"><ele>315.0</ele><time>2026-04-19T11:05:35.112Z</time></trkpt><trkpt lat="44.8687933" lon="7.96659"><ele>315.0</ele><time>2026-04-19T11:05:36.059Z</time></trkpt><trkpt lat="44.8688133" lon="7.966425"><ele>315.0</ele><time>2026-04-19T11:05:37.062Z</time></trkpt><trkpt lat="44.8688167" lon="7.9662617"><ele>315.0</ele><time>2026-04-19T11:05:38.061Z</time></trkpt><trkpt lat="44.8688" lon="7.9661033"><ele>315.0</ele><time>2026-04-19T11:05:39.061Z</time></trkpt><trkpt lat="44.8687583" lon="7.9659483"><ele>315.75</ele><time>2026-04-19T11:05:40.056Z</time></trkpt><trkpt lat="44.8687033" lon="7.965795"><ele>316.5</ele><time>2026-04-19T11:05:41.101Z</time></trkpt><trkpt lat="44.8686467" lon="7.9656483"><ele>317.25</ele><time>2026-04-19T11:05:42.058Z</time></trkpt><trkpt lat="44.8685883" lon="7.9655017"><ele>318.0</ele><time>2026-04-19T11:05:43.058Z</time></trkpt><trkpt lat="44.868535" lon="7.96536"><ele>318.0</ele><time>2026-04-19T11:05:44.056Z</time></trkpt><trkpt lat="44.8684917" lon="7.9652117"><ele>318.0</ele><time>2026-04-19T11:05:45.06Z</time></trkpt><trkpt lat="44.8684667" lon="7.96506"><ele>318.0</ele><time>2026-04-19T11:05:46.062Z</time></trkpt><trkpt lat="44.8684533" lon="7.9648967"><ele>318.0</ele><time>2026-04-19T11:05:47.091Z</time></trkpt><trkpt lat="44.8684433" lon="7.96473"><ele>319.0</ele><time>2026-04-19T11:05:48.058Z</time></trkpt><trkpt lat="44.868435" lon="7.9645633"><ele>320.0</ele><time>2026-04-19T11:05:49.064Z</time></trkpt><trkpt lat="44.8684267" lon="7.9643983"><ele>321.0</ele><time>2026-04-19T11:05:50.059Z</time></trkpt><trkpt lat="44.8684217" lon="7.9642517"><ele>322.0</ele><time>2026-04-19T11:05:51.06Z</time></trkpt><trkpt lat="44.8684183" lon="7.9641317"><ele>323.0</ele><time>2026-04-19T11:05:52.063Z</time></trkpt><trkpt lat="44.8684133" lon="7.9640383"><ele>323.0</ele><time>2026-04-19T11:05:53.096Z</time></trkpt><trkpt lat="44.8684" lon="7.9639317"><ele>323.0</ele><time>2026-04-19T11:05:55.064Z</time></trkpt><trkpt lat="44.8683367" lon="7.9638633"><ele>323.0</ele><time>2026-04-19T11:05:58.064Z</time></trkpt><trkpt lat="44.8682167" lon="7.9638033"><ele>323.0</ele><time>2026-04-19T11:06:00.055Z</time></trkpt><trkpt lat="44.86815" lon="7.9637783"><ele>323.0</ele><time>2026-04-19T11:06:01.067Z</time></trkpt><trkpt lat="44.868075" lon="7.9637583"><ele>323.0</ele><time>2026-04-19T11:06:02.06Z</time></trkpt><trkpt lat="44.8679967" lon="7.9637467"><ele>323.0</ele><time>2026-04-19T11:06:03.055Z</time></trkpt><trkpt lat="44.86791" lon="7.96375"><ele>323.0</ele><time>2026-04-19T11:06:04.062Z</time></trkpt><trkpt lat="44.8678117" lon="7.9637717"><ele>323.0</ele><time>2026-04-19T11:06:05.112Z</time></trkpt><trkpt lat="44.8677067" lon="7.9638067"><ele>323.0</ele><time>2026-04-19T11:06:06.056Z</time></trkpt><trkpt lat="44.8675933" lon="7.96385"><ele>323.0</ele><time>2026-04-19T11:06:07.07Z</time></trkpt><trkpt lat="44.867475" lon="7.9638967"><ele>322.5</ele><time>2026-04-19T11:06:08.053Z</time></trkpt><trkpt lat="44.8673483" lon="7.9639517"><ele>322.0</ele><time>2026-04-19T11:06:09.06Z</time></trkpt><trkpt lat="44.867215" lon="7.9640067"><ele>321.5</ele><time>2026-04-19T11:06:10.065Z</time></trkpt><trkpt lat="44.8670817" lon="7.9640667"><ele>321.0</ele><time>2026-04-19T11:06:11.098Z</time></trkpt><trkpt lat="44.866945" lon="7.9641267"><ele>321.0</ele><time>2026-04-19T11:06:12.057Z</time></trkpt><trkpt lat="44.8668033" lon="7.96418"><ele>321.0</ele><time>2026-04-19T11:06:13.062Z</time></trkpt><trkpt lat="44.8666583" lon="7.964235"><ele>321.0</ele><time>2026-04-19T11:06:14.051Z</time></trkpt><trkpt lat="44.8665167" lon="7.9642833"><ele>321.0</ele><time>2026-04-19T11:06:15.062Z</time></trkpt><trkpt lat="44.8663767" lon="7.9643233"><ele>317.5</ele><time>2026-04-19T11:06:16.058Z</time></trkpt><trkpt lat="44.8662433" lon="7.9643583"><ele>314.0</ele><time>2026-04-19T11:06:17.1Z</time></trkpt><trkpt lat="44.8661117" lon="7.9644"><ele>310.5</ele><time>2026-04-19T11:06:18.065Z</time></trkpt><trkpt lat="44.865985" lon="7.9644633"><ele>307.0</ele><time>2026-04-19T11:06:19.059Z</time></trkpt><trkpt lat="44.8658717" lon="7.96453"><ele>307.0</ele><time>2026-04-19T11:06:20.06Z</time></trkpt><trkpt lat="44.8657867" lon="7.9645917"><ele>307.0</ele><time>2026-04-19T11:06:21.058Z</time></trkpt><trkpt lat="44.86572" lon="7.9646433"><ele>307.0</ele><time>2026-04-19T11:06:22.066Z</time></trkpt><trkpt lat="44.8656833" lon="7.9647483"><ele>307.0</ele><time>2026-04-19T11:06:25.063Z</time></trkpt><trkpt lat="44.8657017" lon="7.9649083"><ele>307.0</ele><time>2026-04-19T11:06:27.055Z</time></trkpt><trkpt lat="44.8657067" lon="7.9650117"><ele>307.0</ele><time>2026-04-19T11:06:28.06Z</time></trkpt><trkpt lat="44.8657117" lon="7.9651117"><ele>306.0</ele><time>2026-04-19T11:06:29.114Z</time></trkpt><trkpt lat="44.8657067" lon="7.9652117"><ele>305.0</ele><time>2026-04-19T11:06:30.064Z</time></trkpt><trkpt lat="44.8656917" lon="7.965315"><ele>304.0</ele><time>2026-04-19T11:06:31.054Z</time></trkpt><trkpt lat="44.8656717" lon="7.9654233"><ele>303.0</ele><time>2026-04-19T11:06:32.062Z</time></trkpt><trkpt lat="44.865645" lon="7.9655283"><ele>302.0</ele><time>2026-04-19T11:06:33.058Z</time></trkpt><trkpt lat="44.86561" lon="7.9656283"><ele>301.0</ele><time>2026-04-19T11:06:34.064Z</time></trkpt><trkpt lat="44.8655767" lon="7.9657383"><ele>301.0</ele><time>2026-04-19T11:06:35.114Z</time></trkpt><trkpt lat="44.865545" lon="7.9658583"><ele>301.0</ele><time>2026-04-19T11:06:36.058Z</time></trkpt><trkpt lat="44.865525" lon="7.9659833"><ele>301.0</ele><time>2026-04-19T11:06:37.064Z</time></trkpt><trkpt lat="44.865515" lon="7.9661083"><ele>301.0</ele><time>2026-04-19T11:06:38.063Z</time></trkpt><trkpt lat="44.8655067" lon="7.9662183"><ele>301.0</ele><time>2026-04-19T11:06:39.068Z</time></trkpt><trkpt lat="44.865495" lon="7.9663067"><ele>301.0</ele><time>2026-04-19T11:06:40.053Z</time></trkpt><trkpt lat="44.86547" lon="7.966455"><ele>299.5</ele><time>2026-04-19T11:06:42.059Z</time></trkpt><trkpt lat="44.8654667" lon="7.966555"><ele>298.0</ele><time>2026-04-19T11:06:44.064Z</time></trkpt><trkpt lat="44.865525" lon="7.96666"><ele>296.5</ele><time>2026-04-19T11:06:47.095Z</time></trkpt><trkpt lat="44.8655767" lon="7.96673"><ele>295.0</ele><time>2026-04-19T11:06:49.063Z</time></trkpt><trkpt lat="44.8655933" lon="7.96684"><ele>293.5</ele><time>2026-04-19T11:06:51.065Z</time></trkpt><trkpt lat="44.8655917" lon="7.9669883"><ele>292.0</ele><time>2026-04-19T11:06:53.098Z</time></trkpt><trkpt lat="44.86555" lon="7.9671317"><ele>290.3333333333333</ele><time>2026-04-19T11:06:55.061Z</time></trkpt><trkpt lat="44.86547" lon="7.9672533"><ele>288.66666666666663</ele><time>2026-04-19T11:06:57.064Z</time></trkpt><trkpt lat="44.8654233" lon="7.9673133"><ele>287.0</ele><time>2026-04-19T11:06:58.062Z</time></trkpt><trkpt lat="44.86538" lon="7.9673817"><ele>285.3333333333333</ele><time>2026-04-19T11:06:59.125Z</time></trkpt><trkpt lat="44.86533" lon="7.9674467"><ele>283.6666666666667</ele><time>2026-04-19T11:07:00.056Z</time></trkpt><trkpt lat="44.8652767" lon="7.967505"><ele>282.0</ele><time>2026-04-19T11:07:01.052Z</time></trkpt><trkpt lat="44.8652133" lon="7.96758"><ele>279.3333333333333</ele><time>2026-04-19T11:07:03.079Z</time></trkpt><trkpt lat="44.865175" lon="7.9676783"><ele>276.6666666666667</ele><time>2026-04-19T11:07:05.121Z</time></trkpt><trkpt lat="44.8651733" lon="7.96779"><ele>274.0</ele><time>2026-04-19T11:07:07.059Z</time></trkpt><trkpt lat="44.8652283" lon="7.9678367"><ele>271.33333333333337</ele><time>2026-04-19T11:07:09.059Z</time></trkpt><trkpt lat="44.8652933" lon="7.9678217"><ele>268.6666666666667</ele><time>2026-04-19T11:07:10.054Z</time></trkpt><trkpt lat="44.86536" lon="7.9678017"><ele>266.0</ele><time>2026-04-19T11:07:11.094Z</time></trkpt><trkpt lat="44.86549" lon="7.9677317"><ele>266.0</ele><time>2026-04-19T11:07:13.055Z</time></trkpt><trkpt lat="44.8655567" lon="7.967685"><ele>266.0</ele><time>2026-04-19T11:07:14.061Z</time></trkpt><trkpt lat="44.8656267" lon="7.9676367"><ele>266.0</ele><time>2026-04-19T11:07:15.063Z</time></trkpt><trkpt lat="44.8657" lon="7.967595"><ele>266.0</ele><time>2026-04-19T11:07:16.061Z</time></trkpt><trkpt lat="44.86577" lon="7.9675467"><ele>266.0</ele><time>2026-04-19T11:07:17.098Z</time></trkpt><trkpt lat="44.8658433" lon="7.9675183"><ele>266.0</ele><time>2026-04-19T11:07:18.06Z</time></trkpt><trkpt lat="44.8659133" lon="7.9674867"><ele>267.33333333333337</ele><time>2026-04-19T11:07:19.061Z</time></trkpt><trkpt lat="44.8659783" lon="7.9674483"><ele>268.6666666666667</ele><time>2026-04-19T11:07:20.06Z</time></trkpt><trkpt lat="44.8660383" lon="7.967395"><ele>270.0</ele><time>2026-04-19T11:07:21.057Z</time></trkpt><trkpt lat="44.86612" lon="7.9672883"><ele>271.3333333333333</ele><time>2026-04-19T11:07:23.101Z</time></trkpt><trkpt lat="44.86618" lon="7.9672383"><ele>272.66666666666663</ele><time>2026-04-19T11:07:25.055Z</time></trkpt><trkpt lat="44.8661567" lon="7.9673683"><ele>274.0</ele><time>2026-04-19T11:07:28.066Z</time></trkpt><trkpt lat="44.866085" lon="7.96751"><ele>273.42857142857144</ele><time>2026-04-19T11:07:30.052Z</time></trkpt><trkpt lat="44.866035" lon="7.96758"><ele>272.8571428571429</ele><time>2026-04-19T11:07:31.059Z</time></trkpt><trkpt lat="44.865995" lon="7.9676533"><ele>272.2857142857143</ele><time>2026-04-19T11:07:32.056Z</time></trkpt><trkpt lat="44.8659617" lon="7.9677333"><ele>271.7142857142857</ele><time>2026-04-19T11:07:33.055Z</time></trkpt><trkpt lat="44.86593" lon="7.9678133"><ele>271.1428571428571</ele><time>2026-04-19T11:07:34.061Z</time></trkpt><trkpt lat="44.8658633" lon="7.9679283"><ele>270.57142857142856</ele><time>2026-04-19T11:07:36.054Z</time></trkpt><trkpt lat="44.8658083" lon="7.967985"><ele>270.0</ele><time>2026-04-19T11:07:37.062Z</time></trkpt><trkpt lat="44.86574" lon="7.96804"><ele>269.3333333333333</ele><time>2026-04-19T11:07:38.058Z</time></trkpt><trkpt lat="44.8656667" lon="7.9681083"><ele>268.6666666666667</ele><time>2026-04-19T11:07:39.051Z</time></trkpt><trkpt lat="44.8655967" lon="7.9682017"><ele>268.0</ele><time>2026-04-19T11:07:40.06Z</time></trkpt><trkpt lat="44.865535" lon="7.9683183"><ele>267.33333333333337</ele><time>2026-04-19T11:07:41.109Z</time></trkpt><trkpt lat="44.8654917" lon="7.9684233"><ele>266.6666666666667</ele><time>2026-04-19T11:07:42.055Z</time></trkpt><trkpt lat="44.86546" lon="7.9685117"><ele>266.0</ele><time>2026-04-19T11:07:43.062Z</time></trkpt><trkpt lat="44.8654283" lon="7.968595"><ele>264.85714285714283</ele><time>2026-04-19T11:07:44.056Z</time></trkpt><trkpt lat="44.8653683" lon="7.9686633"><ele>263.7142857142857</ele><time>2026-04-19T11:07:45.055Z</time></trkpt><trkpt lat="44.865305" lon="7.9687167"><ele>262.57142857142856</ele><time>2026-04-19T11:07:46.058Z</time></trkpt><trkpt lat="44.8652367" lon="7.96876"><ele>261.42857142857144</ele><time>2026-04-19T11:07:47.103Z</time></trkpt><trkpt lat="44.86518" lon="7.96881"><ele>260.2857142857143</ele><time>2026-04-19T11:07:48.055Z</time></trkpt><trkpt lat="44.8651283" lon="7.9688733"><ele>259.1428571428571</ele><time>2026-04-19T11:07:49.068Z</time></trkpt><trkpt lat="44.8650817" lon="7.9689433"><ele>258.0</ele><time>2026-04-19T11:07:50.06Z</time></trkpt><trkpt lat="44.864985" lon="7.969035"><ele>257.6666666666667</ele><time>2026-04-19T11:07:52.06Z</time></trkpt><trkpt lat="44.8648717" lon="7.9690683"><ele>257.3333333333333</ele><time>2026-04-19T11:07:54.058Z</time></trkpt><trkpt lat="44.8647633" lon="7.969025"><ele>257.0</ele><time>2026-04-19T11:07:56.059Z</time></trkpt><trkpt lat="44.8647017" lon="7.968985"><ele>256.66666666666663</ele><time>2026-04-19T11:07:57.064Z</time></trkpt><trkpt lat="44.8646333" lon="7.9689567"><ele>256.3333333333333</ele><time>2026-04-19T11:07:58.061Z</time></trkpt><trkpt lat="44.8645583" lon="7.9689567"><ele>256.0</ele><time>2026-04-19T11:07:59.103Z</time></trkpt><trkpt lat="44.8644883" lon="7.9689567"><ele>255.99999999999997</ele><time>2026-04-19T11:08:00.055Z</time></trkpt><trkpt lat="44.86442" lon="7.9689733"><ele>256.0</ele><time>2026-04-19T11:08:01.056Z</time></trkpt><trkpt lat="44.864355" lon="7.969025"><ele>256.0</ele><time>2026-04-19T11:08:02.061Z</time></trkpt><trkpt lat="44.8642933" lon="7.9691017"><ele>256.0</ele><time>2026-04-19T11:08:03.059Z</time></trkpt><trkpt lat="44.864235" lon="7.9692"><ele>255.99999999999997</ele><time>2026-04-19T11:08:04.055Z</time></trkpt><trkpt lat="44.864185" lon="7.9693083"><ele>256.0</ele><time>2026-04-19T11:08:05.117Z</time></trkpt><trkpt lat="44.8641383" lon="7.96941"><ele>254.66666666666666</ele><time>2026-04-19T11:08:06.058Z</time></trkpt><trkpt lat="44.8640917" lon="7.96952"><ele>253.33333333333331</ele><time>2026-04-19T11:08:07.067Z</time></trkpt><trkpt lat="44.8640417" lon="7.969625"><ele>252.0</ele><time>2026-04-19T11:08:08.06Z</time></trkpt><trkpt lat="44.8639917" lon="7.9697183"><ele>250.66666666666669</ele><time>2026-04-19T11:08:09.063Z</time></trkpt><trkpt lat="44.863945" lon="7.9698017"><ele>249.33333333333334</ele><time>2026-04-19T11:08:10.061Z</time></trkpt><trkpt lat="44.8638833" lon="7.9698933"><ele>248.0</ele><time>2026-04-19T11:08:12.054Z</time></trkpt><trkpt lat="44.8637933" lon="7.9698383"><ele>248.0</ele><time>2026-04-19T11:08:44.059Z</time></trkpt><trkpt lat="44.8637483" lon="7.9697483"><ele>248.0</ele><time>2026-04-19T11:08:47.105Z</time></trkpt><trkpt lat="44.8636983" lon="7.9696467"><ele>248.0</ele><time>2026-04-19T11:08:48.056Z</time></trkpt><trkpt lat="44.86363" lon="7.96952"><ele>248.0</ele><time>2026-04-19T11:08:49.053Z</time></trkpt><trkpt lat="44.8635483" lon="7.96938"><ele>248.0</ele><time>2026-04-19T11:08:50.062Z</time></trkpt><trkpt lat="44.8634467" lon="7.9692133"><ele>248.0</ele><time>2026-04-19T11:08:51.061Z</time></trkpt><trkpt lat="44.8633633" lon="7.9690767"><ele>248.0</ele><time>2026-04-19T11:08:52.058Z</time></trkpt><trkpt lat="44.863275" lon="7.9689517"><ele>248.0</ele><time>2026-04-19T11:08:53.105Z</time></trkpt><trkpt lat="44.863175" lon="7.9688467"><ele>248.0</ele><time>2026-04-19T11:08:54.057Z</time></trkpt><trkpt lat="44.8630667" lon="7.9687533"><ele>248.0</ele><time>2026-04-19T11:08:55.052Z</time></trkpt><trkpt lat="44.86295" lon="7.9686617"><ele>248.0</ele><time>2026-04-19T11:08:56.06Z</time></trkpt><trkpt lat="44.8628183" lon="7.968565"><ele>248.0</ele><time>2026-04-19T11:08:57.062Z</time></trkpt><trkpt lat="44.8626767" lon="7.96845"><ele>248.0</ele><time>2026-04-19T11:08:58.063Z</time></trkpt><trkpt lat="44.8625267" lon="7.9683333"><ele>249.0</ele><time>2026-04-19T11:08:59.126Z</time></trkpt><trkpt lat="44.8623567" lon="7.9682067"><ele>250.0</ele><time>2026-04-19T11:09:00.057Z</time></trkpt><trkpt lat="44.8622" lon="7.9680933"><ele>251.0</ele><time>2026-04-19T11:09:01.054Z</time></trkpt><trkpt lat="44.8620467" lon="7.9679917"><ele>251.0</ele><time>2026-04-19T11:09:02.06Z</time></trkpt><trkpt lat="44.8619" lon="7.9678967"><ele>251.0</ele><time>2026-04-19T11:09:03.062Z</time></trkpt><trkpt lat="44.8617733" lon="7.967805"><ele>251.0</ele><time>2026-04-19T11:09:04.062Z</time></trkpt><trkpt lat="44.8616633" lon="7.9677333"><ele>251.0</ele><time>2026-04-19T11:09:05.112Z</time></trkpt><trkpt lat="44.8615617" lon="7.96768"><ele>251.20000000000002</ele><time>2026-04-19T11:09:06.057Z</time></trkpt><trkpt lat="44.861465" lon="7.9676267"><ele>251.40000000000003</ele><time>2026-04-19T11:09:07.06Z</time></trkpt><trkpt lat="44.8613783" lon="7.9675617"><ele>251.6</ele><time>2026-04-19T11:09:08.058Z</time></trkpt><trkpt lat="44.8613033" lon="7.96747"><ele>251.8</ele><time>2026-04-19T11:09:09.061Z</time></trkpt><trkpt lat="44.8612333" lon="7.967365"><ele>252.0</ele><time>2026-04-19T11:09:10.059Z</time></trkpt><trkpt lat="44.861165" lon="7.9672367"><ele>252.0</ele><time>2026-04-19T11:09:11.098Z</time></trkpt><trkpt lat="44.861105" lon="7.9671183"><ele>252.0</ele><time>2026-04-19T11:09:12.057Z</time></trkpt><trkpt lat="44.8610533" lon="7.9670033"><ele>252.0</ele><time>2026-04-19T11:09:13.053Z</time></trkpt><trkpt lat="44.8609933" lon="7.9668817"><ele>252.0</ele><time>2026-04-19T11:09:14.051Z</time></trkpt><trkpt lat="44.8609267" lon="7.9667483"><ele>252.0</ele><time>2026-04-19T11:09:15.058Z</time></trkpt><trkpt lat="44.8608533" lon="7.9666217"><ele>252.39999999999998</ele><time>2026-04-19T11:09:16.056Z</time></trkpt><trkpt lat="44.86078" lon="7.9665"><ele>252.79999999999998</ele><time>2026-04-19T11:09:17.099Z</time></trkpt><trkpt lat="44.8607117" lon="7.966405"><ele>253.2</ele><time>2026-04-19T11:09:18.055Z</time></trkpt><trkpt lat="44.8606417" lon="7.9663017"><ele>253.6</ele><time>2026-04-19T11:09:19.05Z</time></trkpt><trkpt lat="44.8605617" lon="7.9662"><ele>254.0</ele><time>2026-04-19T11:09:20.055Z</time></trkpt><trkpt lat="44.8604733" lon="7.9661117"><ele>254.0</ele><time>2026-04-19T11:09:21.061Z</time></trkpt><trkpt lat="44.8603683" lon="7.96602"><ele>254.0</ele><time>2026-04-19T11:09:22.059Z</time></trkpt><trkpt lat="44.8602467" lon="7.96594"><ele>254.0</ele><time>2026-04-19T11:09:23.104Z</time></trkpt><trkpt lat="44.8601217" lon="7.9658733"><ele>254.0</ele><time>2026-04-19T11:09:24.056Z</time></trkpt><trkpt lat="44.8599833" lon="7.96581"><ele>254.5</ele><time>2026-04-19T11:09:25.052Z</time></trkpt><trkpt lat="44.859835" lon="7.9657667"><ele>255.0</ele><time>2026-04-19T11:09:26.06Z</time></trkpt><trkpt lat="44.859695" lon="7.9657367"><ele>255.5</ele><time>2026-04-19T11:09:27.053Z</time></trkpt><trkpt lat="44.8595583" lon="7.9657367"><ele>256.0</ele><time>2026-04-19T11:09:28.063Z</time></trkpt><trkpt lat="44.8594383" lon="7.965745"><ele>256.0</ele><time>2026-04-19T11:09:29.122Z</time></trkpt><trkpt lat="44.859325" lon="7.96575"><ele>256.0</ele><time>2026-04-19T11:09:30.051Z</time></trkpt><trkpt lat="44.8592133" lon="7.9657567"><ele>256.0</ele><time>2026-04-19T11:09:31.059Z</time></trkpt><trkpt lat="44.8590867" lon="7.9657533"><ele>256.0</ele><time>2026-04-19T11:09:32.056Z</time></trkpt><trkpt lat="44.85897" lon="7.9657433"><ele>256.40000000000003</ele><time>2026-04-19T11:09:33.063Z</time></trkpt><trkpt lat="44.8588683" lon="7.9657217"><ele>256.8</ele><time>2026-04-19T11:09:34.059Z</time></trkpt><trkpt lat="44.858775" lon="7.9656933"><ele>257.20000000000005</ele><time>2026-04-19T11:09:35.118Z</time></trkpt><trkpt lat="44.8586733" lon="7.9656583"><ele>257.6</ele><time>2026-04-19T11:09:36.062Z</time></trkpt><trkpt lat="44.8585683" lon="7.965605"><ele>258.0</ele><time>2026-04-19T11:09:37.059Z</time></trkpt><trkpt lat="44.8584717" lon="7.9655417"><ele>258.75</ele><time>2026-04-19T11:09:38.057Z</time></trkpt><trkpt lat="44.8583833" lon="7.965465"><ele>259.5</ele><time>2026-04-19T11:09:39.058Z</time></trkpt><trkpt lat="44.8582883" lon="7.9653767"><ele>260.25</ele><time>2026-04-19T11:09:40.057Z</time></trkpt><trkpt lat="44.8581867" lon="7.9652867"><ele>261.0</ele><time>2026-04-19T11:09:41.101Z</time></trkpt><trkpt lat="44.8580867" lon="7.9652083"><ele>261.0</ele><time>2026-04-19T11:09:42.057Z</time></trkpt><trkpt lat="44.8579783" lon="7.96513"><ele>261.0</ele><time>2026-04-19T11:09:43.063Z</time></trkpt><trkpt lat="44.857865" lon="7.9650683"><ele>261.0</ele><time>2026-04-19T11:09:44.055Z</time></trkpt><trkpt lat="44.8577567" lon="7.9650117"><ele>261.0</ele><time>2026-04-19T11:09:45.053Z</time></trkpt><trkpt lat="44.8576583" lon="7.9649667"><ele>260.6</ele><time>2026-04-19T11:09:46.062Z</time></trkpt><trkpt lat="44.8575683" lon="7.9649283"><ele>260.20000000000005</ele><time>2026-04-19T11:09:47.097Z</time></trkpt><trkpt lat="44.8575017" lon="7.9648917"><ele>259.79999999999995</ele><time>2026-04-19T11:09:48.052Z</time></trkpt><trkpt lat="44.8574" lon="7.9648283"><ele>259.4</ele><time>2026-04-19T11:09:50.055Z</time></trkpt><trkpt lat="44.8573017" lon="7.9647733"><ele>259.0</ele><time>2026-04-19T11:09:52.053Z</time></trkpt><trkpt lat="44.85718" lon="7.9647"><ele>259.0</ele><time>2026-04-19T11:09:54.062Z</time></trkpt><trkpt lat="44.8571183" lon="7.9646567"><ele>259.0</ele><time>2026-04-19T11:09:55.062Z</time></trkpt><trkpt lat="44.8570483" lon="7.9646067"><ele>259.0</ele><time>2026-04-19T11:09:56.055Z</time></trkpt><trkpt lat="44.8569733" lon="7.9645583"><ele>259.0</ele><time>2026-04-19T11:09:57.06Z</time></trkpt><trkpt lat="44.856885" lon="7.9645017"><ele>259.0</ele><time>2026-04-19T11:09:58.06Z</time></trkpt><trkpt lat="44.8567883" lon="7.96444"><ele>259.0</ele><time>2026-04-19T11:09:59.122Z</time></trkpt><trkpt lat="44.856685" lon="7.9643833"><ele>258.5</ele><time>2026-04-19T11:10:00.052Z</time></trkpt><trkpt lat="44.8566017" lon="7.9643317"><ele>258.0</ele><time>2026-04-19T11:10:01.062Z</time></trkpt><trkpt lat="44.8565333" lon="7.9643083"><ele>257.5</ele><time>2026-04-19T11:10:02.058Z</time></trkpt><trkpt lat="44.85645" lon="7.9642317"><ele>257.0</ele><time>2026-04-19T11:11:12.053Z</time></trkpt><trkpt lat="44.8563817" lon="7.9641383"><ele>256.5</ele><time>2026-04-19T11:11:14.057Z</time></trkpt><trkpt lat="44.85633" lon="7.9640383"><ele>256.0</ele><time>2026-04-19T11:11:16.06Z</time></trkpt><trkpt lat="44.8562717" lon="7.9639383"><ele>255.99999999999997</ele><time>2026-04-19T11:11:18.055Z</time></trkpt><trkpt lat="44.8561933" lon="7.9637933"><ele>256.0</ele><time>2026-04-19T11:11:20.055Z</time></trkpt><trkpt lat="44.8561467" lon="7.96372"><ele>256.0</ele><time>2026-04-19T11:11:21.063Z</time></trkpt><trkpt lat="44.8560933" lon="7.9636417"><ele>256.0</ele><time>2026-04-19T11:11:22.06Z</time></trkpt><trkpt lat="44.8560417" lon="7.96355"><ele>255.99999999999997</ele><time>2026-04-19T11:11:23.104Z</time></trkpt><trkpt lat="44.8559933" lon="7.9634533"><ele>256.0</ele><time>2026-04-19T11:11:24.058Z</time></trkpt><trkpt lat="44.85594" lon="7.9633567"><ele>257.16666666666663</ele><time>2026-04-19T11:11:25.058Z</time></trkpt><trkpt lat="44.85589" lon="7.963255"><ele>258.3333333333333</ele><time>2026-04-19T11:11:26.05Z</time></trkpt><trkpt lat="44.8558433" lon="7.96317"><ele>259.5</ele><time>2026-04-19T11:11:27.052Z</time></trkpt><trkpt lat="44.8557933" lon="7.9631"><ele>260.6666666666667</ele><time>2026-04-19T11:11:28.06Z</time></trkpt><trkpt lat="44.8557417" lon="7.9630417"><ele>261.83333333333337</ele><time>2026-04-19T11:11:29.127Z</time></trkpt><trkpt lat="44.8556817" lon="7.9629767"><ele>263.0</ele><time>2026-04-19T11:11:30.051Z</time></trkpt><trkpt lat="44.85562" lon="7.96292"><ele>263.0</ele><time>2026-04-19T11:11:31.058Z</time></trkpt><trkpt lat="44.8555167" lon="7.9628383"><ele>263.0</ele><time>2026-04-19T11:11:33.055Z</time></trkpt><trkpt lat="44.85545" lon="7.9627817"><ele>263.0</ele><time>2026-04-19T11:11:35.106Z</time></trkpt><trkpt lat="44.8553833" lon="7.962745"><ele>263.0</ele><time>2026-04-19T11:11:37.05Z</time></trkpt><trkpt lat="44.8553067" lon="7.9627017"><ele>263.0</ele><time>2026-04-19T11:11:40.06Z</time></trkpt><trkpt lat="44.8552117" lon="7.9626433"><ele>263.0</ele><time>2026-04-19T11:11:43.06Z</time></trkpt><trkpt lat="44.8551267" lon="7.9625933"><ele>263.0</ele><time>2026-04-19T11:11:45.057Z</time></trkpt><trkpt lat="44.8550483" lon="7.9625517"><ele>263.0</ele><time>2026-04-19T11:11:47.097Z</time></trkpt><trkpt lat="44.854975" lon="7.9625233"><ele>263.0</ele><time>2026-04-19T11:11:49.059Z</time></trkpt><trkpt lat="44.85489" lon="7.9625033"><ele>263.0</ele><time>2026-04-19T11:11:52.055Z</time></trkpt><trkpt lat="44.854835" lon="7.962455"><ele>263.0</ele><time>2026-04-19T11:11:54.059Z</time></trkpt><trkpt lat="44.854775" lon="7.962385"><ele>263.4</ele><time>2026-04-19T11:11:56.062Z</time></trkpt><trkpt lat="44.8546867" lon="7.9622883"><ele>263.8</ele><time>2026-04-19T11:11:58.059Z</time></trkpt><trkpt lat="44.854605" lon="7.9621867"><ele>264.2</ele><time>2026-04-19T11:12:00.054Z</time></trkpt><trkpt lat="44.85454" lon="7.9621067"><ele>264.6</ele><time>2026-04-19T11:12:02.054Z</time></trkpt><trkpt lat="44.85446" lon="7.9620567"><ele>265.0</ele><time>2026-04-19T11:12:05.112Z</time></trkpt><trkpt lat="44.8543917" lon="7.9619917"><ele>265.0</ele><time>2026-04-19T11:12:08.055Z</time></trkpt><trkpt lat="44.8543367" lon="7.9619383"><ele>265.0</ele><time>2026-04-19T11:12:10.055Z</time></trkpt><trkpt lat="44.8542817" lon="7.96189"><ele>265.0</ele><time>2026-04-19T11:12:12.057Z</time></trkpt><trkpt lat="44.8541967" lon="7.9618517"><ele>265.0</ele><time>2026-04-19T11:12:15.057Z</time></trkpt><trkpt lat="44.8541167" lon="7.9618183"><ele>265.0</ele><time>2026-04-19T11:12:18.054Z</time></trkpt><trkpt lat="44.8540317" lon="7.9618033"><ele>265.0</ele><time>2026-04-19T11:12:20.067Z</time></trkpt><trkpt lat="44.8539533" lon="7.9617967"><ele>264.8333333333333</ele><time>2026-04-19T11:12:22.06Z</time></trkpt><trkpt lat="44.8538667" lon="7.9617817"><ele>264.66666666666663</ele><time>2026-04-19T11:12:24.058Z</time></trkpt><trkpt lat="44.8537933" lon="7.96178"><ele>264.5</ele><time>2026-04-19T11:12:26.053Z</time></trkpt><trkpt lat="44.8537133" lon="7.961785"><ele>264.3333333333333</ele><time>2026-04-19T11:12:29.126Z</time></trkpt><trkpt lat="44.8536467" lon="7.9617967"><ele>264.1666666666667</ele><time>2026-04-19T11:12:31.06Z</time></trkpt><trkpt lat="44.8535583" lon="7.961795"><ele>264.0</ele><time>2026-04-19T11:12:33.059Z</time></trkpt><trkpt lat="44.8534667" lon="7.9617983"><ele>263.8</ele><time>2026-04-19T11:12:35.106Z</time></trkpt><trkpt lat="44.853365" lon="7.9617817"><ele>263.59999999999997</ele><time>2026-04-19T11:12:37.056Z</time></trkpt><trkpt lat="44.85329" lon="7.9617383"><ele>263.4</ele><time>2026-04-19T11:12:39.062Z</time></trkpt><trkpt lat="44.8532017" lon="7.9616767"><ele>263.2</ele><time>2026-04-19T11:12:41.105Z</time></trkpt><trkpt lat="44.8531233" lon="7.961615"><ele>263.0</ele><time>2026-04-19T11:12:43.057Z</time></trkpt><trkpt lat="44.853055" lon="7.961555"><ele>263.0</ele><time>2026-04-19T11:12:45.058Z</time></trkpt><trkpt lat="44.8529717" lon="7.9614867"><ele>263.0</ele><time>2026-04-19T11:12:47.1Z</time></trkpt><trkpt lat="44.8528917" lon="7.96144"><ele>263.0</ele><time>2026-04-19T11:12:49.055Z</time></trkpt><trkpt lat="44.8528183" lon="7.9614033"><ele>263.0</ele><time>2026-04-19T11:12:51.059Z</time></trkpt><trkpt lat="44.852755" lon="7.96136"><ele>263.0</ele><time>2026-04-19T11:12:53.114Z</time></trkpt><trkpt lat="44.8526783" lon="7.9613083"><ele>263.0</ele><time>2026-04-19T11:12:55.057Z</time></trkpt><trkpt lat="44.8525683" lon="7.961255"><ele>263.83333333333337</ele><time>2026-04-19T11:12:57.054Z</time></trkpt><trkpt lat="44.8524583" lon="7.96117"><ele>264.6666666666667</ele><time>2026-04-19T11:12:59.124Z</time></trkpt><trkpt lat="44.8524017" lon="7.9611183"><ele>265.5</ele><time>2026-04-19T11:13:00.055Z</time></trkpt><trkpt lat="44.852345" lon="7.96107"><ele>266.3333333333333</ele><time>2026-04-19T11:13:01.055Z</time></trkpt><trkpt lat="44.852285" lon="7.9610267"><ele>267.16666666666663</ele><time>2026-04-19T11:13:02.053Z</time></trkpt><trkpt lat="44.8522233" lon="7.9609883"><ele>268.0</ele><time>2026-04-19T11:13:03.052Z</time></trkpt><trkpt lat="44.8521567" lon="7.9609467"><ele>268.0</ele><time>2026-04-19T11:13:04.06Z</time></trkpt><trkpt lat="44.8520983" lon="7.9609067"><ele>268.0</ele><time>2026-04-19T11:13:05.107Z</time></trkpt><trkpt lat="44.85204" lon="7.9608667"><ele>268.0</ele><time>2026-04-19T11:13:06.049Z</time></trkpt><trkpt lat="44.8519833" lon="7.9608267"><ele>268.0</ele><time>2026-04-19T11:13:07.056Z</time></trkpt><trkpt lat="44.8518817" lon="7.96077"><ele>268.0</ele><time>2026-04-19T11:13:09.056Z</time></trkpt><trkpt lat="44.8518017" lon="7.9607217"><ele>268.0</ele><time>2026-04-19T11:13:11.103Z</time></trkpt><trkpt lat="44.85173" lon="7.9606467"><ele>267.6</ele><time>2026-04-19T11:13:13.054Z</time></trkpt><trkpt lat="44.851655" lon="7.960575"><ele>267.20000000000005</ele><time>2026-04-19T11:13:15.057Z</time></trkpt><trkpt lat="44.8515833" lon="7.9605"><ele>266.8</ele><time>2026-04-19T11:13:17.101Z</time></trkpt><trkpt lat="44.8515117" lon="7.9604217"><ele>266.40000000000003</ele><time>2026-04-19T11:13:19.057Z</time></trkpt><trkpt lat="44.8514233" lon="7.96034"><ele>266.0</ele><time>2026-04-19T11:13:21.054Z</time></trkpt><trkpt lat="44.85133" lon="7.96026"><ele>266.0</ele><time>2026-04-19T11:13:23.095Z</time></trkpt><trkpt lat="44.8512417" lon="7.9601767"><ele>266.0</ele><time>2026-04-19T11:13:25.052Z</time></trkpt><trkpt lat="44.8511733" lon="7.9600883"><ele>266.0</ele><time>2026-04-19T11:13:27.06Z</time></trkpt><trkpt lat="44.851095" lon="7.9600017"><ele>266.0</ele><time>2026-04-19T11:13:29.121Z</time></trkpt><trkpt lat="44.8510233" lon="7.95994"><ele>266.0</ele><time>2026-04-19T11:13:31.053Z</time></trkpt><trkpt lat="44.8509633" lon="7.9598883"><ele>267.0</ele><time>2026-04-19T11:13:33.057Z</time></trkpt><trkpt lat="44.8509" lon="7.9598117"><ele>268.0</ele><time>2026-04-19T11:13:35.113Z</time></trkpt><trkpt lat="44.850805" lon="7.9597517"><ele>269.0</ele><time>2026-04-19T11:13:37.058Z</time></trkpt><trkpt lat="44.8507417" lon="7.9597267"><ele>270.0</ele><time>2026-04-19T11:13:38.052Z</time></trkpt><trkpt lat="44.8506633" lon="7.9596967"><ele>271.0</ele><time>2026-04-19T11:13:39.053Z</time></trkpt><trkpt lat="44.8505733" lon="7.9596683"><ele>272.0</ele><time>2026-04-19T11:13:40.058Z</time></trkpt><trkpt lat="44.85049" lon="7.95965"><ele>272.0</ele><time>2026-04-19T11:13:41.104Z</time></trkpt><trkpt lat="44.8504167" lon="7.9596333"><ele>272.0</ele><time>2026-04-19T11:13:42.057Z</time></trkpt><trkpt lat="44.8503517" lon="7.95962"><ele>272.0</ele><time>2026-04-19T11:13:43.056Z</time></trkpt><trkpt lat="44.85023" lon="7.959595"><ele>272.0</ele><time>2026-04-19T11:13:45.058Z</time></trkpt><trkpt lat="44.85015" lon="7.959585"><ele>272.0</ele><time>2026-04-19T11:13:46.057Z</time></trkpt><trkpt lat="44.85006" lon="7.959575"><ele>272.0</ele><time>2026-04-19T11:13:47.106Z</time></trkpt><trkpt lat="44.8499617" lon="7.9595567"><ele>272.6666666666667</ele><time>2026-04-19T11:13:48.059Z</time></trkpt><trkpt lat="44.8498617" lon="7.9595383"><ele>273.33333333333337</ele><time>2026-04-19T11:13:49.057Z</time></trkpt><trkpt lat="44.8497667" lon="7.9595217"><ele>274.0</ele><time>2026-04-19T11:13:50.053Z</time></trkpt><trkpt lat="44.8496767" lon="7.9595133"><ele>274.6666666666667</ele><time>2026-04-19T11:13:51.054Z</time></trkpt><trkpt lat="44.8495983" lon="7.959505"><ele>275.3333333333333</ele><time>2026-04-19T11:13:52.061Z</time></trkpt><trkpt lat="44.8495183" lon="7.95951"><ele>276.0</ele><time>2026-04-19T11:13:53.102Z</time></trkpt><trkpt lat="44.8494317" lon="7.95952"><ele>276.0</ele><time>2026-04-19T11:13:54.053Z</time></trkpt><trkpt lat="44.8493067" lon="7.959515"><ele>276.0</ele><time>2026-04-19T11:13:56.051Z</time></trkpt><trkpt lat="44.8492383" lon="7.9594983"><ele>276.0</ele><time>2026-04-19T11:13:57.051Z</time></trkpt><trkpt lat="44.8491617" lon="7.9594883"><ele>276.0</ele><time>2026-04-19T11:13:58.049Z</time></trkpt><trkpt lat="44.8490833" lon="7.9594883"><ele>276.0</ele><time>2026-04-19T11:13:59.12Z</time></trkpt><trkpt lat="44.8489967" lon="7.95947"><ele>276.0</ele><time>2026-04-19T11:14:00.051Z</time></trkpt><trkpt lat="44.8489117" lon="7.9594483"><ele>276.8333333333333</ele><time>2026-04-19T11:14:01.058Z</time></trkpt><trkpt lat="44.8488267" lon="7.95943"><ele>277.6666666666667</ele><time>2026-04-19T11:14:02.056Z</time></trkpt><trkpt lat="44.8487433" lon="7.9594067"><ele>278.5</ele><time>2026-04-19T11:14:03.054Z</time></trkpt><trkpt lat="44.8486617" lon="7.9593817"><ele>279.33333333333337</ele><time>2026-04-19T11:14:04.05Z</time></trkpt><trkpt lat="44.8485933" lon="7.9593583"><ele>280.1666666666667</ele><time>2026-04-19T11:14:05.125Z</time></trkpt><trkpt lat="44.848525" lon="7.9593417"><ele>281.0</ele><time>2026-04-19T11:14:06.057Z</time></trkpt><trkpt lat="44.8484233" lon="7.95937"><ele>281.0</ele><time>2026-04-19T11:14:08.053Z</time></trkpt><trkpt lat="44.8483417" lon="7.95937"><ele>281.0</ele><time>2026-04-19T11:14:10.055Z</time></trkpt><trkpt lat="44.848245" lon="7.95936"><ele>281.0</ele><time>2026-04-19T11:14:13.06Z</time></trkpt><trkpt lat="44.8481633" lon="7.9593633"><ele>281.0</ele><time>2026-04-19T11:14:15.058Z</time></trkpt><trkpt lat="44.8480633" lon="7.9593717"><ele>281.0</ele><time>2026-04-19T11:14:17.102Z</time></trkpt><trkpt lat="44.84794" lon="7.9593767"><ele>281.0</ele><time>2026-04-19T11:14:19.055Z</time></trkpt><trkpt lat="44.84787" lon="7.9593733"><ele>281.0</ele><time>2026-04-19T11:14:20.051Z</time></trkpt><trkpt lat="44.84779" lon="7.9593717"><ele>281.0</ele><time>2026-04-19T11:14:21.052Z</time></trkpt><trkpt lat="44.8477083" lon="7.9593633"><ele>281.0</ele><time>2026-04-19T11:14:22.053Z</time></trkpt><trkpt lat="44.8476333" lon="7.959355"><ele>281.0</ele><time>2026-04-19T11:14:23.101Z</time></trkpt><trkpt lat="44.8475617" lon="7.9593317"><ele>281.0</ele><time>2026-04-19T11:14:24.053Z</time></trkpt><trkpt lat="44.847455" lon="7.9592983"><ele>282.33333333333337</ele><time>2026-04-19T11:14:26.053Z</time></trkpt><trkpt lat="44.8473917" lon="7.9592867"><ele>283.6666666666667</ele><time>2026-04-19T11:14:28.057Z</time></trkpt><trkpt lat="44.8473067" lon="7.95927"><ele>285.0</ele><time>2026-04-19T11:14:32.059Z</time></trkpt><trkpt lat="44.8472333" lon="7.959265"><ele>286.3333333333333</ele><time>2026-04-19T11:14:36.053Z</time></trkpt><trkpt lat="44.847125" lon="7.9592583"><ele>287.66666666666663</ele><time>2026-04-19T11:14:39.057Z</time></trkpt><trkpt lat="44.8470367" lon="7.9592417"><ele>289.0</ele><time>2026-04-19T11:14:41.095Z</time></trkpt><trkpt lat="44.8469667" lon="7.9592333"><ele>289.0</ele><time>2026-04-19T11:14:49.054Z</time></trkpt><trkpt lat="44.8468983" lon="7.959275"><ele>289.0</ele><time>2026-04-19T11:14:50.053Z</time></trkpt><trkpt lat="44.8467967" lon="7.9593217"><ele>289.0</ele><time>2026-04-19T11:14:52.063Z</time></trkpt><trkpt lat="44.8467333" lon="7.959355"><ele>289.0</ele><time>2026-04-19T11:14:53.096Z</time></trkpt><trkpt lat="44.8466617" lon="7.9594133"><ele>289.0</ele><time>2026-04-19T11:14:54.054Z</time></trkpt><trkpt lat="44.8465733" lon="7.9595017"><ele>289.0</ele><time>2026-04-19T11:14:55.06Z</time></trkpt><trkpt lat="44.8465033" lon="7.9596067"><ele>289.0</ele><time>2026-04-19T11:14:56.058Z</time></trkpt><trkpt lat="44.8464383" lon="7.9596967"><ele>289.0</ele><time>2026-04-19T11:14:57.056Z</time></trkpt><trkpt lat="44.8463683" lon="7.959765"><ele>289.0</ele><time>2026-04-19T11:14:58.057Z</time></trkpt><trkpt lat="44.8463133" lon="7.9598217"><ele>289.0</ele><time>2026-04-19T11:14:59.106Z</time></trkpt><trkpt lat="44.846255" lon="7.959875"><ele>289.0</ele><time>2026-04-19T11:15:00.052Z</time></trkpt><trkpt lat="44.846195" lon="7.9599383"><ele>289.0</ele><time>2026-04-19T11:15:01.066Z</time></trkpt><trkpt lat="44.84614" lon="7.9600183"><ele>289.66666666666663</ele><time>2026-04-19T11:15:02.057Z</time></trkpt><trkpt lat="44.8460817" lon="7.9600917"><ele>290.3333333333333</ele><time>2026-04-19T11:15:03.057Z</time></trkpt><trkpt lat="44.8460217" lon="7.96014"><ele>291.0</ele><time>2026-04-19T11:15:04.069Z</time></trkpt><trkpt lat="44.8459567" lon="7.96017"><ele>291.6666666666667</ele><time>2026-04-19T11:15:05.108Z</time></trkpt><trkpt lat="44.8458733" lon="7.9601933"><ele>292.33333333333337</ele><time>2026-04-19T11:15:06.053Z</time></trkpt><trkpt lat="44.8457867" lon="7.9602283"><ele>293.0</ele><time>2026-04-19T11:15:07.059Z</time></trkpt><trkpt lat="44.8456917" lon="7.9602683"><ele>293.0</ele><time>2026-04-19T11:15:08.061Z</time></trkpt><trkpt lat="44.8456" lon="7.9603217"><ele>293.0</ele><time>2026-04-19T11:15:09.062Z</time></trkpt><trkpt lat="44.8455083" lon="7.9603967"><ele>293.0</ele><time>2026-04-19T11:15:10.054Z</time></trkpt><trkpt lat="44.8454167" lon="7.960495"><ele>293.0</ele><time>2026-04-19T11:15:11.102Z</time></trkpt><trkpt lat="44.8453417" lon="7.9606067"><ele>293.0</ele><time>2026-04-19T11:15:12.057Z</time></trkpt><trkpt lat="44.8452633" lon="7.9606933"><ele>293.0</ele><time>2026-04-19T11:15:13.057Z</time></trkpt><trkpt lat="44.8451917" lon="7.9607667"><ele>293.0</ele><time>2026-04-19T11:15:14.06Z</time></trkpt><trkpt lat="44.8451167" lon="7.9608267"><ele>293.0</ele><time>2026-04-19T11:15:15.061Z</time></trkpt><trkpt lat="44.84505" lon="7.9608583"><ele>293.0</ele><time>2026-04-19T11:15:16.057Z</time></trkpt><trkpt lat="44.844975" lon="7.96088"><ele>293.0</ele><time>2026-04-19T11:15:17.101Z</time></trkpt><trkpt lat="44.8448933" lon="7.9608733"><ele>293.0</ele><time>2026-04-19T11:15:18.057Z</time></trkpt><trkpt lat="44.844815" lon="7.96085"><ele>292.33333333333337</ele><time>2026-04-19T11:15:19.061Z</time></trkpt><trkpt lat="44.8447417" lon="7.960805"><ele>291.6666666666667</ele><time>2026-04-19T11:15:20.061Z</time></trkpt><trkpt lat="44.844675" lon="7.9607583"><ele>291.0</ele><time>2026-04-19T11:15:21.064Z</time></trkpt><trkpt lat="44.8445717" lon="7.960685"><ele>290.3333333333333</ele><time>2026-04-19T11:15:23.099Z</time></trkpt><trkpt lat="44.844505" lon="7.9606517"><ele>289.66666666666663</ele><time>2026-04-19T11:15:25.057Z</time></trkpt><trkpt lat="44.84442" lon="7.960625"><ele>289.0</ele><time>2026-04-19T11:15:28.058Z</time></trkpt><trkpt lat="44.84436" lon="7.9605483"><ele>290.2</ele><time>2026-04-19T11:15:30.053Z</time></trkpt><trkpt lat="44.844265" lon="7.960395"><ele>291.4</ele><time>2026-04-19T11:15:32.054Z</time></trkpt><trkpt lat="44.8442033" lon="7.96029"><ele>292.6</ele><time>2026-04-19T11:15:33.055Z</time></trkpt><trkpt lat="44.8441367" lon="7.9601833"><ele>293.8</ele><time>2026-04-19T11:15:34.059Z</time></trkpt><trkpt lat="44.8440717" lon="7.9600817"><ele>295.0</ele><time>2026-04-19T11:15:35.116Z</time></trkpt><trkpt lat="44.8440167" lon="7.95999"><ele>295.0</ele><time>2026-04-19T11:15:36.054Z</time></trkpt><trkpt lat="44.8439667" lon="7.9598983"><ele>295.0</ele><time>2026-04-19T11:15:37.059Z</time></trkpt><trkpt lat="44.8439133" lon="7.95981"><ele>295.0</ele><time>2026-04-19T11:15:38.055Z</time></trkpt><trkpt lat="44.8438583" lon="7.9597067"><ele>295.0</ele><time>2026-04-19T11:15:39.056Z</time></trkpt><trkpt lat="44.8438183" lon="7.9595867"><ele>295.0</ele><time>2026-04-19T11:15:40.053Z</time></trkpt><trkpt lat="44.8437633" lon="7.95946"><ele>295.0</ele><time>2026-04-19T11:15:41.096Z</time></trkpt><trkpt lat="44.843705" lon="7.9593267"><ele>295.0</ele><time>2026-04-19T11:15:42.051Z</time></trkpt><trkpt lat="44.8436483" lon="7.9592067"><ele>295.0</ele><time>2026-04-19T11:15:43.051Z</time></trkpt><trkpt lat="44.8435933" lon="7.9590933"><ele>295.0</ele><time>2026-04-19T11:15:44.063Z</time></trkpt><trkpt lat="44.843555" lon="7.9589933"><ele>295.0</ele><time>2026-04-19T11:15:45.06Z</time></trkpt><trkpt lat="44.843525" lon="7.9588583"><ele>296.2</ele><time>2026-04-19T11:15:47.096Z</time></trkpt><trkpt lat="44.8435817" lon="7.9587417"><ele>297.4</ele><time>2026-04-19T11:15:49.059Z</time></trkpt><trkpt lat="44.843635" lon="7.95867"><ele>298.6</ele><time>2026-04-19T11:15:50.059Z</time></trkpt><trkpt lat="44.843715" lon="7.9585483"><ele>299.8</ele><time>2026-04-19T11:15:52.058Z</time></trkpt><trkpt lat="44.8437783" lon="7.9584967"><ele>301.0</ele><time>2026-04-19T11:15:54.055Z</time></trkpt><trkpt lat="44.8438767" lon="7.9585733"><ele>301.0</ele><time>2026-04-19T11:15:56.064Z</time></trkpt><trkpt lat="44.843935" lon="7.9586367"><ele>301.0</ele><time>2026-04-19T11:15:57.059Z</time></trkpt><trkpt lat="44.8440017" lon="7.958715"><ele>301.0</ele><time>2026-04-19T11:15:58.052Z</time></trkpt><trkpt lat="44.8440967" lon="7.95883"><ele>301.0</ele><time>2026-04-19T11:15:59.11Z</time></trkpt><trkpt lat="44.8442133" lon="7.95894"><ele>301.0</ele><time>2026-04-19T11:16:00.052Z</time></trkpt><trkpt lat="44.844315" lon="7.9590317"><ele>300.0</ele><time>2026-04-19T11:16:01.054Z</time></trkpt><trkpt lat="44.8444283" lon="7.9591067"><ele>299.0</ele><time>2026-04-19T11:16:02.058Z</time></trkpt><trkpt lat="44.8445317" lon="7.959155"><ele>298.0</ele><time>2026-04-19T11:16:03.059Z</time></trkpt><trkpt lat="44.8446333" lon="7.959195"><ele>297.0</ele><time>2026-04-19T11:16:04.058Z</time></trkpt><trkpt lat="44.8447417" lon="7.9592217"><ele>297.0</ele><time>2026-04-19T11:16:05.105Z</time></trkpt><trkpt lat="44.8448367" lon="7.959225"><ele>297.0</ele><time>2026-04-19T11:16:06.053Z</time></trkpt><trkpt lat="44.8449183" lon="7.9592067"><ele>297.0</ele><time>2026-04-19T11:16:07.055Z</time></trkpt><trkpt lat="44.8449917" lon="7.9591817"><ele>297.0</ele><time>2026-04-19T11:16:08.057Z</time></trkpt><trkpt lat="44.845055" lon="7.9591533"><ele>297.0</ele><time>2026-04-19T11:16:09.055Z</time></trkpt><trkpt lat="44.845135" lon="7.9590567"><ele>297.0</ele><time>2026-04-19T11:16:11.092Z</time></trkpt><trkpt lat="44.8451533" lon="7.9589117"><ele>297.4</ele><time>2026-04-19T11:16:13.053Z</time></trkpt><trkpt lat="44.8451383" lon="7.9588217"><ele>297.79999999999995</ele><time>2026-04-19T11:16:14.06Z</time></trkpt><trkpt lat="44.8450933" lon="7.9587217"><ele>298.2</ele><time>2026-04-19T11:16:15.055Z</time></trkpt><trkpt lat="44.84502" lon="7.9586"><ele>298.59999999999997</ele><time>2026-04-19T11:16:16.058Z</time></trkpt><trkpt lat="44.8449067" lon="7.958475"><ele>299.0</ele><time>2026-04-19T11:16:17.101Z</time></trkpt><trkpt lat="44.84482" lon="7.9583667"><ele>303.6</ele><time>2026-04-19T11:16:18.055Z</time></trkpt><trkpt lat="44.844735" lon="7.9582683"><ele>308.2</ele><time>2026-04-19T11:16:19.052Z</time></trkpt><trkpt lat="44.844675" lon="7.9581617"><ele>312.8</ele><time>2026-04-19T11:16:20.052Z</time></trkpt><trkpt lat="44.8446383" lon="7.9580417"><ele>317.40000000000003</ele><time>2026-04-19T11:16:21.064Z</time></trkpt><trkpt lat="44.844605" lon="7.9579167"><ele>322.0</ele><time>2026-04-19T11:16:22.062Z</time></trkpt><trkpt lat="44.8445767" lon="7.9577933"><ele>322.0</ele><time>2026-04-19T11:16:23.095Z</time></trkpt><trkpt lat="44.8445633" lon="7.957675"><ele>322.0</ele><time>2026-04-19T11:16:24.052Z</time></trkpt><trkpt lat="44.8445617" lon="7.9575683"><ele>322.0</ele><time>2026-04-19T11:16:25.052Z</time></trkpt><trkpt lat="44.84456" lon="7.9574533"><ele>322.0</ele><time>2026-04-19T11:16:26.054Z</time></trkpt><trkpt lat="44.8445633" lon="7.95734"><ele>322.0</ele><time>2026-04-19T11:16:27.068Z</time></trkpt><trkpt lat="44.8445567" lon="7.957225"><ele>322.0</ele><time>2026-04-19T11:16:28.062Z</time></trkpt><trkpt lat="44.8445433" lon="7.95712"><ele>322.8</ele><time>2026-04-19T11:16:29.116Z</time></trkpt><trkpt lat="44.844525" lon="7.9570317"><ele>323.6</ele><time>2026-04-19T11:16:30.056Z</time></trkpt><trkpt lat="44.8444517" lon="7.9568933"><ele>324.40000000000003</ele><time>2026-04-19T11:16:32.055Z</time></trkpt><trkpt lat="44.844395" lon="7.956815"><ele>325.20000000000005</ele><time>2026-04-19T11:16:33.053Z</time></trkpt><trkpt lat="44.84433" lon="7.95672"><ele>326.0</ele><time>2026-04-19T11:16:34.058Z</time></trkpt><trkpt lat="44.8442483" lon="7.9566017"><ele>330.75</ele><time>2026-04-19T11:16:35.112Z</time></trkpt><trkpt lat="44.8441567" lon="7.9564733"><ele>335.5</ele><time>2026-04-19T11:16:36.053Z</time></trkpt><trkpt lat="44.8440717" lon="7.95634"><ele>340.25</ele><time>2026-04-19T11:16:37.055Z</time></trkpt><trkpt lat="44.8439967" lon="7.9562033"><ele>345.0</ele><time>2026-04-19T11:16:38.054Z</time></trkpt><trkpt lat="44.8439317" lon="7.9560783"><ele>345.0</ele><time>2026-04-19T11:16:39.054Z</time></trkpt><trkpt lat="44.8438917" lon="7.9559617"><ele>345.0</ele><time>2026-04-19T11:16:40.055Z</time></trkpt><trkpt lat="44.8438533" lon="7.9558667"><ele>345.0</ele><time>2026-04-19T11:16:41.104Z</time></trkpt><trkpt lat="44.8438167" lon="7.9557133"><ele>345.0</ele><time>2026-04-19T11:16:43.054Z</time></trkpt><trkpt lat="44.8437633" lon="7.9555983"><ele>345.0</ele><time>2026-04-19T11:16:45.058Z</time></trkpt><trkpt lat="44.8437217" lon="7.9554933"><ele>346.25</ele><time>2026-04-19T11:16:47.094Z</time></trkpt><trkpt lat="44.8436217" lon="7.95541"><ele>347.5</ele><time>2026-04-19T11:16:54.053Z</time></trkpt><trkpt lat="44.84348" lon="7.9554633"><ele>348.75</ele><time>2026-04-19T11:16:56.058Z</time></trkpt><trkpt lat="44.8433833" lon="7.9555117"><ele>350.0</ele><time>2026-04-19T11:16:57.058Z</time></trkpt><trkpt lat="44.8432817" lon="7.955565"><ele>350.0</ele><time>2026-04-19T11:16:58.051Z</time></trkpt><trkpt lat="44.8431717" lon="7.9556233"><ele>350.0</ele><time>2026-04-19T11:16:59.119Z</time></trkpt><trkpt lat="44.8430567" lon="7.9556833"><ele>350.0</ele><time>2026-04-19T11:17:00.05Z</time></trkpt><trkpt lat="44.842935" lon="7.9557517"><ele>350.0</ele><time>2026-04-19T11:17:01.056Z</time></trkpt><trkpt lat="44.8427967" lon="7.9558233"><ele>349.0</ele><time>2026-04-19T11:17:02.049Z</time></trkpt><trkpt lat="44.8426483" lon="7.9558983"><ele>348.0</ele><time>2026-04-19T11:17:03.056Z</time></trkpt><trkpt lat="44.8425" lon="7.95597"><ele>347.0</ele><time>2026-04-19T11:17:04.059Z</time></trkpt><trkpt lat="44.8423517" lon="7.956045"><ele>346.33333333333337</ele><time>2026-04-19T11:17:05.107Z</time></trkpt><trkpt lat="44.842205" lon="7.9561183"><ele>345.6666666666667</ele><time>2026-04-19T11:17:06.055Z</time></trkpt><trkpt lat="44.84206" lon="7.9561917"><ele>345.0</ele><time>2026-04-19T11:17:07.059Z</time></trkpt><trkpt lat="44.8419233" lon="7.95626"><ele>345.0</ele><time>2026-04-19T11:17:08.055Z</time></trkpt><trkpt lat="44.841805" lon="7.9563183"><ele>345.0</ele><time>2026-04-19T11:17:09.063Z</time></trkpt><trkpt lat="44.8417183" lon="7.956365"><ele>345.0</ele><time>2026-04-19T11:17:10.055Z</time></trkpt><trkpt lat="44.8417817" lon="7.95647"><ele>345.0</ele><time>2026-04-19T11:17:14.06Z</time></trkpt><trkpt lat="44.8418183" lon="7.9565967"><ele>345.0</ele><time>2026-04-19T11:17:16.053Z</time></trkpt><trkpt lat="44.8418217" lon="7.9567"><ele>344.5</ele><time>2026-04-19T11:17:17.1Z</time></trkpt><trkpt lat="44.84181" lon="7.9568367"><ele>344.0</ele><time>2026-04-19T11:17:18.062Z</time></trkpt><trkpt lat="44.8417883" lon="7.9570017"><ele>343.5</ele><time>2026-04-19T11:17:19.057Z</time></trkpt><trkpt lat="44.8417633" lon="7.9571633"><ele>343.0</ele><time>2026-04-19T11:17:20.055Z</time></trkpt><trkpt lat="44.8417383" lon="7.9573233"><ele>343.0</ele><time>2026-04-19T11:17:21.058Z</time></trkpt><trkpt lat="44.8417133" lon="7.9574817"><ele>343.0</ele><time>2026-04-19T11:17:22.061Z</time></trkpt><trkpt lat="44.8416917" lon="7.9576433"><ele>343.0</ele><time>2026-04-19T11:17:23.093Z</time></trkpt><trkpt lat="44.8416733" lon="7.9578067"><ele>343.0</ele><time>2026-04-19T11:17:24.055Z</time></trkpt><trkpt lat="44.8416517" lon="7.9579717"><ele>341.5</ele><time>2026-04-19T11:17:25.059Z</time></trkpt><trkpt lat="44.84162" lon="7.9581317"><ele>340.0</ele><time>2026-04-19T11:17:26.062Z</time></trkpt><trkpt lat="44.8415783" lon="7.95829"><ele>338.5</ele><time>2026-04-19T11:17:27.059Z</time></trkpt><trkpt lat="44.841525" lon="7.9584367"><ele>337.0</ele><time>2026-04-19T11:17:28.056Z</time></trkpt><trkpt lat="44.84146" lon="7.9585783"><ele>336.5</ele><time>2026-04-19T11:17:29.109Z</time></trkpt><trkpt lat="44.8413983" lon="7.958725"><ele>336.0</ele><time>2026-04-19T11:17:30.055Z</time></trkpt><trkpt lat="44.8413467" lon="7.958875"><ele>335.5</ele><time>2026-04-19T11:17:31.057Z</time></trkpt><trkpt lat="44.8413067" lon="7.9590317"><ele>335.0</ele><time>2026-04-19T11:17:32.054Z</time></trkpt><trkpt lat="44.8412817" lon="7.959195"><ele>335.2</ele><time>2026-04-19T11:17:33.053Z</time></trkpt><trkpt lat="44.8412817" lon="7.9593533"><ele>335.4</ele><time>2026-04-19T11:17:34.057Z</time></trkpt><trkpt lat="44.8413133" lon="7.9595017"><ele>335.6</ele><time>2026-04-19T11:17:35.108Z</time></trkpt><trkpt lat="44.8413733" lon="7.959635"><ele>335.8</ele><time>2026-04-19T11:17:36.054Z</time></trkpt><trkpt lat="44.8414567" lon="7.959745"><ele>336.0</ele><time>2026-04-19T11:17:37.054Z</time></trkpt><trkpt lat="44.8415517" lon="7.9598467"><ele>336.0</ele><time>2026-04-19T11:17:38.052Z</time></trkpt><trkpt lat="44.84164" lon="7.9599533"><ele>336.0</ele><time>2026-04-19T11:17:39.062Z</time></trkpt><trkpt lat="44.8417217" lon="7.960065"><ele>336.0</ele><time>2026-04-19T11:17:40.061Z</time></trkpt><trkpt lat="44.841795" lon="7.9601917"><ele>336.0</ele><time>2026-04-19T11:17:41.1Z</time></trkpt><trkpt lat="44.841855" lon="7.9603283"><ele>333.25</ele><time>2026-04-19T11:17:42.053Z</time></trkpt><trkpt lat="44.8418967" lon="7.9604767"><ele>330.5</ele><time>2026-04-19T11:17:43.057Z</time></trkpt><trkpt lat="44.8419167" lon="7.9606367"><ele>327.75</ele><time>2026-04-19T11:17:44.053Z</time></trkpt><trkpt lat="44.8419117" lon="7.9607983"><ele>325.0</ele><time>2026-04-19T11:17:45.06Z</time></trkpt><trkpt lat="44.8418883" lon="7.9609617"><ele>323.5</ele><time>2026-04-19T11:17:46.059Z</time></trkpt><trkpt lat="44.8418533" lon="7.9611233"><ele>322.0</ele><time>2026-04-19T11:17:47.098Z</time></trkpt><trkpt lat="44.8418133" lon="7.9612817"><ele>320.5</ele><time>2026-04-19T11:17:48.053Z</time></trkpt><trkpt lat="44.8417717" lon="7.9614383"><ele>319.0</ele><time>2026-04-19T11:17:49.057Z</time></trkpt><trkpt lat="44.8417317" lon="7.9615967"><ele>322.0</ele><time>2026-04-19T11:17:50.066Z</time></trkpt><trkpt lat="44.8416933" lon="7.9617583"><ele>325.0</ele><time>2026-04-19T11:17:51.056Z</time></trkpt><trkpt lat="44.8416683" lon="7.961905"><ele>328.0</ele><time>2026-04-19T11:17:52.061Z</time></trkpt><trkpt lat="44.8416617" lon="7.96204"><ele>331.0</ele><time>2026-04-19T11:17:53.092Z</time></trkpt><trkpt lat="44.841675" lon="7.96217"><ele>334.0</ele><time>2026-04-19T11:17:54.054Z</time></trkpt><trkpt lat="44.8417067" lon="7.9622917"><ele>334.0</ele><time>2026-04-19T11:17:55.063Z</time></trkpt><trkpt lat="44.8417683" lon="7.9623983"><ele>334.0</ele><time>2026-04-19T11:17:56.056Z</time></trkpt><trkpt lat="44.8418467" lon="7.9624917"><ele>334.0</ele><time>2026-04-19T11:17:57.058Z</time></trkpt><trkpt lat="44.8419417" lon="7.9625833"><ele>334.0</ele><time>2026-04-19T11:17:58.065Z</time></trkpt><trkpt lat="44.8420533" lon="7.962675"><ele>334.0</ele><time>2026-04-19T11:17:59.109Z</time></trkpt><trkpt lat="44.842175" lon="7.9627667"><ele>333.5</ele><time>2026-04-19T11:18:00.057Z</time></trkpt><trkpt lat="44.8422967" lon="7.9628533"><ele>333.0</ele><time>2026-04-19T11:18:01.061Z</time></trkpt><trkpt lat="44.8424183" lon="7.9629383"><ele>332.5</ele><time>2026-04-19T11:18:02.059Z</time></trkpt><trkpt lat="44.8425417" lon="7.9630283"><ele>332.0</ele><time>2026-04-19T11:18:03.059Z</time></trkpt><trkpt lat="44.8426633" lon="7.9631167"><ele>331.0</ele><time>2026-04-19T11:18:04.054Z</time></trkpt><trkpt lat="44.84278" lon="7.9631983"><ele>330.0</ele><time>2026-04-19T11:18:05.115Z</time></trkpt><trkpt lat="44.8428983" lon="7.96327"><ele>329.0</ele><time>2026-04-19T11:18:06.054Z</time></trkpt><trkpt lat="44.8430233" lon="7.9633267"><ele>328.0</ele><time>2026-04-19T11:18:07.052Z</time></trkpt><trkpt lat="44.8431533" lon="7.9633583"><ele>328.0</ele><time>2026-04-19T11:18:08.059Z</time></trkpt><trkpt lat="44.8432883" lon="7.9633667"><ele>328.0</ele><time>2026-04-19T11:18:09.057Z</time></trkpt><trkpt lat="44.8434317" lon="7.96335"><ele>328.0</ele><time>2026-04-19T11:18:10.06Z</time></trkpt><trkpt lat="44.8435733" lon="7.9633117"><ele>328.0</ele><time>2026-04-19T11:18:11.099Z</time></trkpt><trkpt lat="44.8437117" lon="7.9632617"><ele>329.5</ele><time>2026-04-19T11:18:12.062Z</time></trkpt><trkpt lat="44.8438483" lon="7.9632083"><ele>331.0</ele><time>2026-04-19T11:18:13.062Z</time></trkpt><trkpt lat="44.8439833" lon="7.9631667"><ele>332.5</ele><time>2026-04-19T11:18:14.06Z</time></trkpt><trkpt lat="44.8441133" lon="7.9631433"><ele>334.0</ele><time>2026-04-19T11:18:15.058Z</time></trkpt><trkpt lat="44.8442367" lon="7.963135"><ele>335.5</ele><time>2026-04-19T11:18:16.056Z</time></trkpt><trkpt lat="44.8443533" lon="7.963135"><ele>337.0</ele><time>2026-04-19T11:18:17.099Z</time></trkpt><trkpt lat="44.84447" lon="7.963135"><ele>338.5</ele><time>2026-04-19T11:18:18.049Z</time></trkpt><trkpt lat="44.8445883" lon="7.9631267"><ele>340.0</ele><time>2026-04-19T11:18:19.056Z</time></trkpt><trkpt lat="44.844705" lon="7.9631117"><ele>340.0</ele><time>2026-04-19T11:18:20.056Z</time></trkpt><trkpt lat="44.8448183" lon="7.963085"><ele>340.0</ele><time>2026-04-19T11:18:21.063Z</time></trkpt><trkpt lat="44.8449333" lon="7.96305"><ele>340.0</ele><time>2026-04-19T11:18:22.062Z</time></trkpt><trkpt lat="44.8450483" lon="7.9630033"><ele>340.0</ele><time>2026-04-19T11:18:23.101Z</time></trkpt><trkpt lat="44.84517" lon="7.9629433"><ele>338.6</ele><time>2026-04-19T11:18:24.054Z</time></trkpt><trkpt lat="44.8452883" lon="7.9628817"><ele>337.2</ele><time>2026-04-19T11:18:25.062Z</time></trkpt><trkpt lat="44.845395" lon="7.96282"><ele>335.79999999999995</ele><time>2026-04-19T11:18:26.056Z</time></trkpt><trkpt lat="44.8454883" lon="7.96277"><ele>334.4</ele><time>2026-04-19T11:18:27.06Z</time></trkpt><trkpt lat="44.8455733" lon="7.96274"><ele>333.0</ele><time>2026-04-19T11:18:28.06Z</time></trkpt><trkpt lat="44.845645" lon="7.9627333"><ele>333.0</ele><time>2026-04-19T11:18:29.111Z</time></trkpt><trkpt lat="44.8457083" lon="7.9627517"><ele>333.0</ele><time>2026-04-19T11:18:30.048Z</time></trkpt><trkpt lat="44.84576" lon="7.9628033"><ele>333.0</ele><time>2026-04-19T11:18:31.05Z</time></trkpt><trkpt lat="44.8457967" lon="7.96288"><ele>333.0</ele><time>2026-04-19T11:18:32.059Z</time></trkpt><trkpt lat="44.8458133" lon="7.9630167"><ele>333.0</ele><time>2026-04-19T11:18:33.056Z</time></trkpt><trkpt lat="44.8458183" lon="7.9632017"><ele>333.0</ele><time>2026-04-19T11:18:34.06Z</time></trkpt><trkpt lat="44.8458267" lon="7.963405"><ele>331.3333333333333</ele><time>2026-04-19T11:18:35.109Z</time></trkpt><trkpt lat="44.8458367" lon="7.9636167"><ele>329.66666666666663</ele><time>2026-04-19T11:18:36.053Z</time></trkpt><trkpt lat="44.84585" lon="7.9638483"><ele>328.0</ele><time>2026-04-19T11:18:37.055Z</time></trkpt><trkpt lat="44.8458617" lon="7.9640683"><ele>326.0</ele><time>2026-04-19T11:18:38.057Z</time></trkpt><trkpt lat="44.845875" lon="7.96428"><ele>324.0</ele><time>2026-04-19T11:18:39.059Z</time></trkpt><trkpt lat="44.8458883" lon="7.964495"><ele>322.0</ele><time>2026-04-19T11:18:40.052Z</time></trkpt><trkpt lat="44.8458983" lon="7.9647033"><ele>322.0</ele><time>2026-04-19T11:18:41.105Z</time></trkpt><trkpt lat="44.84591" lon="7.9649"><ele>322.0</ele><time>2026-04-19T11:18:42.061Z</time></trkpt><trkpt lat="44.8459167" lon="7.96509"><ele>322.0</ele><time>2026-04-19T11:18:43.061Z</time></trkpt><trkpt lat="44.8459083" lon="7.9652817"><ele>322.0</ele><time>2026-04-19T11:18:44.048Z</time></trkpt><trkpt lat="44.8458917" lon="7.9654783"><ele>319.0</ele><time>2026-04-19T11:18:45.055Z</time></trkpt><trkpt lat="44.845865" lon="7.96567"><ele>316.0</ele><time>2026-04-19T11:18:46.058Z</time></trkpt><trkpt lat="44.84584" lon="7.9658567"><ele>313.0</ele><time>2026-04-19T11:18:47.098Z</time></trkpt><trkpt lat="44.845835" lon="7.96603"><ele>310.0</ele><time>2026-04-19T11:18:48.058Z</time></trkpt><trkpt lat="44.8458633" lon="7.9662033"><ele>307.0</ele><time>2026-04-19T11:18:49.063Z</time></trkpt><trkpt lat="44.845915" lon="7.9663817"><ele>304.0</ele><time>2026-04-19T11:18:50.054Z</time></trkpt><trkpt lat="44.8459717" lon="7.9665617"><ele>301.0</ele><time>2026-04-19T11:18:51.051Z</time></trkpt><trkpt lat="44.8460383" lon="7.9667333"><ele>298.0</ele><time>2026-04-19T11:18:52.056Z</time></trkpt><trkpt lat="44.8461" lon="7.96689"><ele>295.0</ele><time>2026-04-19T11:18:53.102Z</time></trkpt><trkpt lat="44.8461567" lon="7.9670333"><ele>292.0</ele><time>2026-04-19T11:18:54.051Z</time></trkpt><trkpt lat="44.8462017" lon="7.9671617"><ele>289.0</ele><time>2026-04-19T11:18:55.055Z</time></trkpt><trkpt lat="44.8462367" lon="7.9672817"><ele>286.0</ele><time>2026-04-19T11:18:56.057Z</time></trkpt><trkpt lat="44.84625" lon="7.96739"><ele>283.0</ele><time>2026-04-19T11:18:57.056Z</time></trkpt><trkpt lat="44.8462467" lon="7.9674833"><ele>284.4</ele><time>2026-04-19T11:18:58.06Z</time></trkpt><trkpt lat="44.84616" lon="7.9676117"><ele>285.8</ele><time>2026-04-19T11:19:00.048Z</time></trkpt><trkpt lat="44.8460783" lon="7.9676233"><ele>287.2</ele><time>2026-04-19T11:19:01.06Z</time></trkpt><trkpt lat="44.8459683" lon="7.9676033"><ele>288.6</ele><time>2026-04-19T11:19:02.06Z</time></trkpt><trkpt lat="44.8458517" lon="7.9675233"><ele>290.0</ele><time>2026-04-19T11:19:03.05Z</time></trkpt><trkpt lat="44.84573" lon="7.9674283"><ele>290.0</ele><time>2026-04-19T11:19:04.05Z</time></trkpt><trkpt lat="44.84561" lon="7.9672867"><ele>290.0</ele><time>2026-04-19T11:19:05.107Z</time></trkpt><trkpt lat="44.8454983" lon="7.967135"><ele>290.0</ele><time>2026-04-19T11:19:06.052Z</time></trkpt><trkpt lat="44.84537" lon="7.9669883"><ele>290.0</ele><time>2026-04-19T11:19:07.062Z</time></trkpt><trkpt lat="44.8452483" lon="7.966875"><ele>290.0</ele><time>2026-04-19T11:19:08.059Z</time></trkpt><trkpt lat="44.8451233" lon="7.9667667"><ele>290.0</ele><time>2026-04-19T11:19:09.056Z</time></trkpt><trkpt lat="44.8450033" lon="7.9666667"><ele>290.0</ele><time>2026-04-19T11:19:10.061Z</time></trkpt><trkpt lat="44.8448967" lon="7.9665833"><ele>288.6</ele><time>2026-04-19T11:19:11.096Z</time></trkpt><trkpt lat="44.844795" lon="7.966515"><ele>287.2</ele><time>2026-04-19T11:19:12.053Z</time></trkpt><trkpt lat="44.8446983" lon="7.9664817"><ele>285.8</ele><time>2026-04-19T11:19:13.056Z</time></trkpt><trkpt lat="44.8446133" lon="7.9664567"><ele>284.4</ele><time>2026-04-19T11:19:14.054Z</time></trkpt><trkpt lat="44.844545" lon="7.9664567"><ele>283.0</ele><time>2026-04-19T11:19:15.06Z</time></trkpt><trkpt lat="44.84449" lon="7.9665583"><ele>283.0</ele><time>2026-04-19T11:19:17.097Z</time></trkpt><trkpt lat="44.8444833" lon="7.9666517"><ele>283.0</ele><time>2026-04-19T11:19:18.061Z</time></trkpt><trkpt lat="44.8445" lon="7.9667567"><ele>283.0</ele><time>2026-04-19T11:19:19.06Z</time></trkpt><trkpt lat="44.84451" lon="7.9668633"><ele>283.0</ele><time>2026-04-19T11:19:20.052Z</time></trkpt><trkpt lat="44.8445167" lon="7.96696"><ele>283.0</ele><time>2026-04-19T11:19:21.056Z</time></trkpt><trkpt lat="44.8445217" lon="7.967065"><ele>283.0</ele><time>2026-04-19T11:19:22.056Z</time></trkpt><trkpt lat="44.8445283" lon="7.9671933"><ele>280.75</ele><time>2026-04-19T11:19:23.098Z</time></trkpt><trkpt lat="44.8445283" lon="7.9673433"><ele>278.5</ele><time>2026-04-19T11:19:24.051Z</time></trkpt><trkpt lat="44.844525" lon="7.9675117"><ele>276.25</ele><time>2026-04-19T11:19:25.061Z</time></trkpt><trkpt lat="44.8445117" lon="7.9676883"><ele>274.0</ele><time>2026-04-19T11:19:26.058Z</time></trkpt><trkpt lat="44.844495" lon="7.9678633"><ele>274.5</ele><time>2026-04-19T11:19:27.058Z</time></trkpt><trkpt lat="44.8444783" lon="7.96804"><ele>275.0</ele><time>2026-04-19T11:19:28.055Z</time></trkpt><trkpt lat="44.8444667" lon="7.9682167"><ele>275.5</ele><time>2026-04-19T11:19:29.125Z</time></trkpt><trkpt lat="44.8444583" lon="7.9683917"><ele>276.0</ele><time>2026-04-19T11:19:30.049Z</time></trkpt><trkpt lat="44.8444517" lon="7.9685633"><ele>276.0</ele><time>2026-04-19T11:19:31.056Z</time></trkpt><trkpt lat="44.8444433" lon="7.968725"><ele>276.0</ele><time>2026-04-19T11:19:32.054Z</time></trkpt><trkpt lat="44.8444367" lon="7.9688683"><ele>276.0</ele><time>2026-04-19T11:19:33.051Z</time></trkpt><trkpt lat="44.8444317" lon="7.9689933"><ele>276.0</ele><time>2026-04-19T11:19:34.059Z</time></trkpt><trkpt lat="44.84442" lon="7.9691"><ele>276.0</ele><time>2026-04-19T11:19:35.108Z</time></trkpt><trkpt lat="44.8443717" lon="7.9692383"><ele>280.0</ele><time>2026-04-19T11:19:37.058Z</time></trkpt><trkpt lat="44.8442433" lon="7.9693"><ele>284.0</ele><time>2026-04-19T11:19:39.053Z</time></trkpt><trkpt lat="44.8441483" lon="7.9693"><ele>288.0</ele><time>2026-04-19T11:19:40.056Z</time></trkpt><trkpt lat="44.8440333" lon="7.9692833"><ele>292.0</ele><time>2026-04-19T11:19:41.092Z</time></trkpt><trkpt lat="44.843905" lon="7.9692583"><ele>292.0</ele><time>2026-04-19T11:19:42.055Z</time></trkpt><trkpt lat="44.8437683" lon="7.9692367"><ele>292.0</ele><time>2026-04-19T11:19:43.057Z</time></trkpt><trkpt lat="44.84363" lon="7.9692083"><ele>292.0</ele><time>2026-04-19T11:19:44.051Z</time></trkpt><trkpt lat="44.8434917" lon="7.96918"><ele>292.0</ele><time>2026-04-19T11:19:45.064Z</time></trkpt><trkpt lat="44.8433517" lon="7.96916"><ele>291.5</ele><time>2026-04-19T11:19:46.054Z</time></trkpt><trkpt lat="44.843225" lon="7.969155"><ele>291.0</ele><time>2026-04-19T11:19:47.094Z</time></trkpt><trkpt lat="44.8431083" lon="7.9691683"><ele>290.5</ele><time>2026-04-19T11:19:48.053Z</time></trkpt><trkpt lat="44.843" lon="7.9692033"><ele>290.0</ele><time>2026-04-19T11:19:49.06Z</time></trkpt><trkpt lat="44.8429083" lon="7.969245"><ele>290.0</ele><time>2026-04-19T11:19:50.051Z</time></trkpt><trkpt lat="44.8428317" lon="7.96929"><ele>290.0</ele><time>2026-04-19T11:19:51.059Z</time></trkpt><trkpt lat="44.8427567" lon="7.969405"><ele>290.0</ele><time>2026-04-19T11:19:53.097Z</time></trkpt><trkpt lat="44.8427817" lon="7.9695583"><ele>290.0</ele><time>2026-04-19T11:19:55.057Z</time></trkpt><trkpt lat="44.842815" lon="7.969645"><ele>290.0</ele><time>2026-04-19T11:19:56.062Z</time></trkpt><trkpt lat="44.8428617" lon="7.9697433"><ele>290.0</ele><time>2026-04-19T11:19:57.056Z</time></trkpt><trkpt lat="44.8429133" lon="7.9698583"><ele>290.0</ele><time>2026-04-19T11:19:58.057Z</time></trkpt><trkpt lat="44.8429683" lon="7.9699917"><ele>290.0</ele><time>2026-04-19T11:19:59.12Z</time></trkpt><trkpt lat="44.843025" lon="7.970135"><ele>290.0</ele><time>2026-04-19T11:20:00.053Z</time></trkpt><trkpt lat="44.8430833" lon="7.97029"><ele>290.0</ele><time>2026-04-19T11:20:01.052Z</time></trkpt><trkpt lat="44.8431433" lon="7.9704467"><ele>291.25</ele><time>2026-04-19T11:20:02.057Z</time></trkpt><trkpt lat="44.8432017" lon="7.9706033"><ele>292.5</ele><time>2026-04-19T11:20:03.062Z</time></trkpt><trkpt lat="44.84326" lon="7.9707617"><ele>293.75</ele><time>2026-04-19T11:20:04.063Z</time></trkpt><trkpt lat="44.843315" lon="7.970915"><ele>295.0</ele><time>2026-04-19T11:20:05.124Z</time></trkpt><trkpt lat="44.843365" lon="7.9710683"><ele>295.8</ele><time>2026-04-19T11:20:06.051Z</time></trkpt><trkpt lat="44.84341" lon="7.9712133"><ele>296.6</ele><time>2026-04-19T11:20:07.058Z</time></trkpt><trkpt lat="44.8434517" lon="7.971345"><ele>297.4</ele><time>2026-04-19T11:20:08.056Z</time></trkpt><trkpt lat="44.8434967" lon="7.9714633"><ele>298.2</ele><time>2026-04-19T11:20:09.049Z</time></trkpt><trkpt lat="44.8435517" lon="7.971555"><ele>299.0</ele><time>2026-04-19T11:20:10.053Z</time></trkpt><trkpt lat="44.8436033" lon="7.9716217"><ele>301.4</ele><time>2026-04-19T11:20:11.093Z</time></trkpt><trkpt lat="44.84368" lon="7.9716"><ele>303.79999999999995</ele><time>2026-04-19T11:20:13.056Z</time></trkpt><trkpt lat="44.8436883" lon="7.9715017"><ele>306.20000000000005</ele><time>2026-04-19T11:20:14.055Z</time></trkpt><trkpt lat="44.8436667" lon="7.97134"><ele>308.6</ele><time>2026-04-19T11:20:15.051Z</time></trkpt><trkpt lat="44.8436133" lon="7.9711017"><ele>311.0</ele><time>2026-04-19T11:20:16.059Z</time></trkpt><trkpt lat="44.84359" lon="7.9709367"><ele>311.0</ele><time>2026-04-19T11:20:17.099Z</time></trkpt><trkpt lat="44.8435817" lon="7.9708"><ele>311.0</ele><time>2026-04-19T11:20:18.058Z</time></trkpt><trkpt lat="44.843595" lon="7.97069"><ele>311.0</ele><time>2026-04-19T11:20:19.061Z</time></trkpt><trkpt lat="44.843655" lon="7.9705867"><ele>311.0</ele><time>2026-04-19T11:20:21.056Z</time></trkpt><trkpt lat="44.8437633" lon="7.9707117"><ele>311.0</ele><time>2026-04-19T11:20:23.098Z</time></trkpt><trkpt lat="44.843825" lon="7.9708617"><ele>311.0</ele><time>2026-04-19T11:20:24.055Z</time></trkpt><trkpt lat="44.84387" lon="7.9710133"><ele>311.0</ele><time>2026-04-19T11:20:25.053Z</time></trkpt><trkpt lat="44.8438867" lon="7.9711417"><ele>311.0</ele><time>2026-04-19T11:20:26.054Z</time></trkpt><trkpt lat="44.84389" lon="7.9712867"><ele>311.0</ele><time>2026-04-19T11:20:27.054Z</time></trkpt><trkpt lat="44.84388" lon="7.971425"><ele>311.0</ele><time>2026-04-19T11:20:28.057Z</time></trkpt><trkpt lat="44.84386" lon="7.9715567"><ele>311.0</ele><time>2026-04-19T11:20:29.096Z</time></trkpt><trkpt lat="44.84384" lon="7.97169"><ele>311.0</ele><time>2026-04-19T11:20:30.054Z</time></trkpt><trkpt lat="44.8438183" lon="7.9718267"><ele>311.0</ele><time>2026-04-19T11:20:31.059Z</time></trkpt><trkpt lat="44.8437967" lon="7.9719567"><ele>311.0</ele><time>2026-04-19T11:20:32.057Z</time></trkpt><trkpt lat="44.84377" lon="7.9720767"><ele>311.0</ele><time>2026-04-19T11:20:33.057Z</time></trkpt><trkpt lat="44.8437417" lon="7.97219"><ele>311.2857142857143</ele><time>2026-04-19T11:20:34.059Z</time></trkpt><trkpt lat="44.8437033" lon="7.9722883"><ele>311.5714285714286</ele><time>2026-04-19T11:20:35.116Z</time></trkpt><trkpt lat="44.84366" lon="7.97237"><ele>311.8571428571429</ele><time>2026-04-19T11:20:36.057Z</time></trkpt><trkpt lat="44.84361" lon="7.97243"><ele>312.1428571428571</ele><time>2026-04-19T11:20:37.056Z</time></trkpt><trkpt lat="44.8435567" lon="7.9724783"><ele>312.42857142857144</ele><time>2026-04-19T11:20:38.056Z</time></trkpt><trkpt lat="44.8435017" lon="7.9725217"><ele>312.7142857142857</ele><time>2026-04-19T11:20:39.057Z</time></trkpt><trkpt lat="44.8434433" lon="7.9725667"><ele>313.0</ele><time>2026-04-19T11:20:40.051Z</time></trkpt><trkpt lat="44.8433917" lon="7.9726183"><ele>314.2</ele><time>2026-04-19T11:20:41.097Z</time></trkpt><trkpt lat="44.84334" lon="7.97267"><ele>315.4</ele><time>2026-04-19T11:20:42.051Z</time></trkpt><trkpt lat="44.84324" lon="7.9727533"><ele>316.59999999999997</ele><time>2026-04-19T11:20:44.056Z</time></trkpt><trkpt lat="44.843125" lon="7.9728167"><ele>317.8</ele><time>2026-04-19T11:20:46.053Z</time></trkpt><trkpt lat="44.8430483" lon="7.97285"><ele>319.0</ele><time>2026-04-19T11:20:47.096Z</time></trkpt><trkpt lat="44.8429433" lon="7.9728483"><ele>319.0</ele><time>2026-04-19T11:20:48.052Z</time></trkpt><trkpt lat="44.8428367" lon="7.9728583"><ele>319.0</ele><time>2026-04-19T11:20:49.056Z</time></trkpt><trkpt lat="44.8427217" lon="7.9728717"><ele>319.0</ele><time>2026-04-19T11:20:50.061Z</time></trkpt><trkpt lat="44.8426" lon="7.97289"><ele>319.0</ele><time>2026-04-19T11:20:51.056Z</time></trkpt><trkpt lat="44.8424783" lon="7.972915"><ele>319.5</ele><time>2026-04-19T11:20:52.052Z</time></trkpt><trkpt lat="44.8423517" lon="7.9729367"><ele>320.0</ele><time>2026-04-19T11:20:53.092Z</time></trkpt><trkpt lat="44.8422217" lon="7.9729567"><ele>320.5</ele><time>2026-04-19T11:20:54.05Z</time></trkpt><trkpt lat="44.8420917" lon="7.9729833"><ele>321.0</ele><time>2026-04-19T11:20:55.054Z</time></trkpt><trkpt lat="44.8419617" lon="7.9730167"><ele>321.0</ele><time>2026-04-19T11:20:56.052Z</time></trkpt><trkpt lat="44.84183" lon="7.97305"><ele>321.0</ele><time>2026-04-19T11:20:57.05Z</time></trkpt><trkpt lat="44.8416967" lon="7.9730967"><ele>321.0</ele><time>2026-04-19T11:20:58.054Z</time></trkpt><trkpt lat="44.84157" lon="7.973155"><ele>321.0</ele><time>2026-04-19T11:20:59.122Z</time></trkpt><trkpt lat="44.841455" lon="7.9732333"><ele>321.75</ele><time>2026-04-19T11:21:00.059Z</time></trkpt><trkpt lat="44.8413467" lon="7.9733383"><ele>322.5</ele><time>2026-04-19T11:21:01.056Z</time></trkpt><trkpt lat="44.8412333" lon="7.97344"><ele>323.25</ele><time>2026-04-19T11:21:02.058Z</time></trkpt><trkpt lat="44.8411117" lon="7.9735317"><ele>324.0</ele><time>2026-04-19T11:21:03.056Z</time></trkpt><trkpt lat="44.8409817" lon="7.9736033"><ele>327.0</ele><time>2026-04-19T11:21:04.058Z</time></trkpt><trkpt lat="44.8408367" lon="7.973645"><ele>330.0</ele><time>2026-04-19T11:21:05.115Z</time></trkpt><trkpt lat="44.8406867" lon="7.97367"><ele>333.0</ele><time>2026-04-19T11:21:06.055Z</time></trkpt><trkpt lat="44.8405283" lon="7.9736867"><ele>333.0</ele><time>2026-04-19T11:21:07.058Z</time></trkpt><trkpt lat="44.8403683" lon="7.9737017"><ele>333.0</ele><time>2026-04-19T11:21:08.051Z</time></trkpt><trkpt lat="44.840205" lon="7.97371"><ele>333.0</ele><time>2026-04-19T11:21:09.059Z</time></trkpt><trkpt lat="44.84004" lon="7.973715"><ele>334.6666666666667</ele><time>2026-04-19T11:21:10.054Z</time></trkpt><trkpt lat="44.8398733" lon="7.973715"><ele>336.33333333333337</ele><time>2026-04-19T11:21:11.098Z</time></trkpt><trkpt lat="44.8397067" lon="7.9737167"><ele>338.0</ele><time>2026-04-19T11:21:12.052Z</time></trkpt><trkpt lat="44.8395417" lon="7.9737183"><ele>338.0</ele><time>2026-04-19T11:21:13.049Z</time></trkpt><trkpt lat="44.8393733" lon="7.9737183"><ele>338.0</ele><time>2026-04-19T11:21:14.057Z</time></trkpt><trkpt lat="44.839205" lon="7.97371"><ele>338.0</ele><time>2026-04-19T11:21:15.056Z</time></trkpt><trkpt lat="44.8390383" lon="7.97369"><ele>337.33333333333337</ele><time>2026-04-19T11:21:16.051Z</time></trkpt><trkpt lat="44.8388683" lon="7.9736633"><ele>336.6666666666667</ele><time>2026-04-19T11:21:17.091Z</time></trkpt><trkpt lat="44.8386983" lon="7.97363"><ele>336.0</ele><time>2026-04-19T11:21:18.051Z</time></trkpt><trkpt lat="44.83853" lon="7.9735967"><ele>337.0</ele><time>2026-04-19T11:21:19.054Z</time></trkpt><trkpt lat="44.8383633" lon="7.9735667"><ele>338.0</ele><time>2026-04-19T11:21:20.057Z</time></trkpt><trkpt lat="44.838195" lon="7.9735517"><ele>339.0</ele><time>2026-04-19T11:21:21.057Z</time></trkpt><trkpt lat="44.8380283" lon="7.97356"><ele>339.0</ele><time>2026-04-19T11:21:22.05Z</time></trkpt><trkpt lat="44.8378667" lon="7.9736033"><ele>339.0</ele><time>2026-04-19T11:21:23.095Z</time></trkpt><trkpt lat="44.8377067" lon="7.9736767"><ele>339.0</ele><time>2026-04-19T11:21:24.053Z</time></trkpt><trkpt lat="44.8375533" lon="7.973765"><ele>340.3333333333333</ele><time>2026-04-19T11:21:25.054Z</time></trkpt><trkpt lat="44.8374" lon="7.9738567"><ele>341.66666666666663</ele><time>2026-04-19T11:21:26.061Z</time></trkpt><trkpt lat="44.8372467" lon="7.9739517"><ele>343.0</ele><time>2026-04-19T11:21:27.054Z</time></trkpt><trkpt lat="44.8370917" lon="7.9740483"><ele>343.0</ele><time>2026-04-19T11:21:28.055Z</time></trkpt><trkpt lat="44.83694" lon="7.974155"><ele>343.0</ele><time>2026-04-19T11:21:29.12Z</time></trkpt><trkpt lat="44.83679" lon="7.9742783"><ele>343.0</ele><time>2026-04-19T11:21:30.051Z</time></trkpt><trkpt lat="44.8366417" lon="7.974415"><ele>345.0</ele><time>2026-04-19T11:21:31.055Z</time></trkpt><trkpt lat="44.836495" lon="7.9745617"><ele>347.0</ele><time>2026-04-19T11:21:32.049Z</time></trkpt><trkpt lat="44.8363517" lon="7.97471"><ele>349.0</ele><time>2026-04-19T11:21:33.057Z</time></trkpt><trkpt lat="44.8362067" lon="7.9748583"><ele>349.0</ele><time>2026-04-19T11:21:34.055Z</time></trkpt><trkpt lat="44.8360617" lon="7.9750033"><ele>349.0</ele><time>2026-04-19T11:21:35.116Z</time></trkpt><trkpt lat="44.8359167" lon="7.975145"><ele>349.0</ele><time>2026-04-19T11:21:36.047Z</time></trkpt><trkpt lat="44.8357683" lon="7.9752917"><ele>350.66666666666663</ele><time>2026-04-19T11:21:37.051Z</time></trkpt><trkpt lat="44.8356233" lon="7.9754333"><ele>352.3333333333333</ele><time>2026-04-19T11:21:38.057Z</time></trkpt><trkpt lat="44.8354833" lon="7.9755767"><ele>354.0</ele><time>2026-04-19T11:21:39.057Z</time></trkpt><trkpt lat="44.8353467" lon="7.9757267"><ele>353.3333333333333</ele><time>2026-04-19T11:21:40.06Z</time></trkpt><trkpt lat="44.8352133" lon="7.9758733"><ele>352.66666666666663</ele><time>2026-04-19T11:21:41.095Z</time></trkpt><trkpt lat="44.835085" lon="7.9760333"><ele>352.0</ele><time>2026-04-19T11:21:42.054Z</time></trkpt><trkpt lat="44.8349633" lon="7.9762017"><ele>353.3333333333333</ele><time>2026-04-19T11:21:43.059Z</time></trkpt><trkpt lat="44.8348467" lon="7.9763717"><ele>354.6666666666667</ele><time>2026-04-19T11:21:44.06Z</time></trkpt><trkpt lat="44.8347283" lon="7.976535"><ele>356.0</ele><time>2026-04-19T11:21:45.058Z</time></trkpt><trkpt lat="44.834605" lon="7.9766867"><ele>355.33333333333337</ele><time>2026-04-19T11:21:46.059Z</time></trkpt><trkpt lat="44.8344767" lon="7.9768183"><ele>354.6666666666667</ele><time>2026-04-19T11:21:47.1Z</time></trkpt><trkpt lat="44.834335" lon="7.9769183"><ele>354.0</ele><time>2026-04-19T11:21:48.051Z</time></trkpt><trkpt lat="44.8341783" lon="7.9769917"><ele>354.0</ele><time>2026-04-19T11:21:49.058Z</time></trkpt><trkpt lat="44.8340167" lon="7.9770467"><ele>354.0</ele><time>2026-04-19T11:21:50.055Z</time></trkpt><trkpt lat="44.8338483" lon="7.9770933"><ele>354.0</ele><time>2026-04-19T11:21:51.06Z</time></trkpt><trkpt lat="44.8336833" lon="7.97712"><ele>354.0</ele><time>2026-04-19T11:21:52.055Z</time></trkpt><trkpt lat="44.833515" lon="7.9771317"><ele>354.0</ele><time>2026-04-19T11:21:53.098Z</time></trkpt><trkpt lat="44.833345" lon="7.977125"><ele>354.0</ele><time>2026-04-19T11:21:54.052Z</time></trkpt><trkpt lat="44.833175" lon="7.97711"><ele>355.3333333333333</ele><time>2026-04-19T11:21:55.058Z</time></trkpt><trkpt lat="44.8330083" lon="7.9770967"><ele>356.66666666666663</ele><time>2026-04-19T11:21:56.058Z</time></trkpt><trkpt lat="44.8328433" lon="7.9770967"><ele>358.0</ele><time>2026-04-19T11:21:57.064Z</time></trkpt><trkpt lat="44.8326867" lon="7.9771083"><ele>357.3333333333333</ele><time>2026-04-19T11:21:58.054Z</time></trkpt><trkpt lat="44.8325283" lon="7.9771167"><ele>356.6666666666667</ele><time>2026-04-19T11:21:59.127Z</time></trkpt><trkpt lat="44.8323667" lon="7.977115"><ele>356.0</ele><time>2026-04-19T11:22:00.056Z</time></trkpt><trkpt lat="44.8322033" lon="7.977075"><ele>356.0</ele><time>2026-04-19T11:22:01.058Z</time></trkpt><trkpt lat="44.8320417" lon="7.9770117"><ele>356.0</ele><time>2026-04-19T11:22:02.06Z</time></trkpt><trkpt lat="44.83189" lon="7.9769467"><ele>356.0</ele><time>2026-04-19T11:22:03.056Z</time></trkpt><trkpt lat="44.8317483" lon="7.9769083"><ele>355.25</ele><time>2026-04-19T11:22:04.052Z</time></trkpt><trkpt lat="44.8316333" lon="7.9769483"><ele>354.5</ele><time>2026-04-19T11:22:05.117Z</time></trkpt><trkpt lat="44.8315317" lon="7.97703"><ele>353.75</ele><time>2026-04-19T11:22:06.054Z</time></trkpt><trkpt lat="44.8314433" lon="7.977145"><ele>353.0</ele><time>2026-04-19T11:22:07.054Z</time></trkpt><trkpt lat="44.8313617" lon="7.9772833"><ele>353.0</ele><time>2026-04-19T11:22:08.059Z</time></trkpt><trkpt lat="44.8312867" lon="7.9774167"><ele>353.0</ele><time>2026-04-19T11:22:09.05Z</time></trkpt><trkpt lat="44.83121" lon="7.9774983"><ele>353.0</ele><time>2026-04-19T11:22:10.052Z</time></trkpt><trkpt lat="44.8311233" lon="7.97754"><ele>353.0</ele><time>2026-04-19T11:22:11.105Z</time></trkpt><trkpt lat="44.8310183" lon="7.9774967"><ele>353.0</ele><time>2026-04-19T11:22:12.05Z</time></trkpt><trkpt lat="44.83091" lon="7.9774217"><ele>352.25</ele><time>2026-04-19T11:22:13.058Z</time></trkpt><trkpt lat="44.830795" lon="7.9773167"><ele>351.5</ele><time>2026-04-19T11:22:14.049Z</time></trkpt><trkpt lat="44.8306783" lon="7.977205"><ele>350.75</ele><time>2026-04-19T11:22:15.05Z</time></trkpt><trkpt lat="44.8305533" lon="7.9770967"><ele>350.0</ele><time>2026-04-19T11:22:16.057Z</time></trkpt><trkpt lat="44.8304167" lon="7.9770033"><ele>350.0</ele><time>2026-04-19T11:22:17.098Z</time></trkpt><trkpt lat="44.830265" lon="7.9769633"><ele>350.0</ele><time>2026-04-19T11:22:18.052Z</time></trkpt><trkpt lat="44.8301133" lon="7.976965"><ele>350.0</ele><time>2026-04-19T11:22:19.056Z</time></trkpt><trkpt lat="44.82996" lon="7.97699"><ele>350.33333333333337</ele><time>2026-04-19T11:22:20.058Z</time></trkpt><trkpt lat="44.8298133" lon="7.9770517"><ele>350.6666666666667</ele><time>2026-04-19T11:22:21.05Z</time></trkpt><trkpt lat="44.8296767" lon="7.9771333"><ele>351.0</ele><time>2026-04-19T11:22:22.059Z</time></trkpt><trkpt lat="44.8295317" lon="7.97721"><ele>351.0</ele><time>2026-04-19T11:22:23.1Z</time></trkpt><trkpt lat="44.8293883" lon="7.9772933"><ele>351.0</ele><time>2026-04-19T11:22:24.054Z</time></trkpt><trkpt lat="44.8292583" lon="7.9774167"><ele>351.0</ele><time>2026-04-19T11:22:25.057Z</time></trkpt><trkpt lat="44.829145" lon="7.9775517"><ele>353.75</ele><time>2026-04-19T11:22:26.053Z</time></trkpt><trkpt lat="44.8290533" lon="7.977685"><ele>356.5</ele><time>2026-04-19T11:22:27.05Z</time></trkpt><trkpt lat="44.8289967" lon="7.9778617"><ele>359.25</ele><time>2026-04-19T11:22:28.051Z</time></trkpt><trkpt lat="44.8289433" lon="7.9780217"><ele>362.0</ele><time>2026-04-19T11:22:29.118Z</time></trkpt><trkpt lat="44.8288717" lon="7.9781867"><ele>359.25</ele><time>2026-04-19T11:22:30.051Z</time></trkpt><trkpt lat="44.8288033" lon="7.978355"><ele>356.5</ele><time>2026-04-19T11:22:31.054Z</time></trkpt><trkpt lat="44.8287217" lon="7.978505"><ele>353.75</ele><time>2026-04-19T11:22:32.057Z</time></trkpt><trkpt lat="44.8286317" lon="7.9786267"><ele>351.0</ele><time>2026-04-19T11:22:33.057Z</time></trkpt><trkpt lat="44.828555" lon="7.97874"><ele>351.0</ele><time>2026-04-19T11:22:34.062Z</time></trkpt><trkpt lat="44.8284967" lon="7.978845"><ele>351.0</ele><time>2026-04-19T11:22:35.112Z</time></trkpt><trkpt lat="44.8284667" lon="7.9789317"><ele>351.0</ele><time>2026-04-19T11:22:36.054Z</time></trkpt><trkpt lat="44.8284383" lon="7.9790533"><ele>351.0</ele><time>2026-04-19T11:22:38.055Z</time></trkpt><trkpt lat="44.8284083" lon="7.9791617"><ele>351.0</ele><time>2026-04-19T11:22:40.051Z</time></trkpt><trkpt lat="44.8284333" lon="7.9792933"><ele>351.0</ele><time>2026-04-19T11:22:42.054Z</time></trkpt><trkpt lat="44.8285033" lon="7.979455"><ele>350.8</ele><time>2026-04-19T11:22:44.06Z</time></trkpt><trkpt lat="44.8285567" lon="7.9795483"><ele>350.6</ele><time>2026-04-19T11:22:45.05Z</time></trkpt><trkpt lat="44.82862" lon="7.97967"><ele>350.4</ele><time>2026-04-19T11:22:46.052Z</time></trkpt><trkpt lat="44.8286917" lon="7.97981"><ele>350.2</ele><time>2026-04-19T11:22:47.1Z</time></trkpt><trkpt lat="44.8287533" lon="7.97997"><ele>350.0</ele><time>2026-04-19T11:22:48.056Z</time></trkpt><trkpt lat="44.8288" lon="7.9801533"><ele>348.75</ele><time>2026-04-19T11:22:49.056Z</time></trkpt><trkpt lat="44.8288467" lon="7.98033"><ele>347.5</ele><time>2026-04-19T11:22:50.056Z</time></trkpt><trkpt lat="44.8288983" lon="7.9805117"><ele>346.25</ele><time>2026-04-19T11:22:51.055Z</time></trkpt><trkpt lat="44.8289733" lon="7.9806783"><ele>345.0</ele><time>2026-04-19T11:22:52.057Z</time></trkpt><trkpt lat="44.8290733" lon="7.9808133"><ele>344.8</ele><time>2026-04-19T11:22:53.115Z</time></trkpt><trkpt lat="44.8291783" lon="7.9809133"><ele>344.6</ele><time>2026-04-19T11:22:54.05Z</time></trkpt><trkpt lat="44.829285" lon="7.9809783"><ele>344.4</ele><time>2026-04-19T11:22:55.051Z</time></trkpt><trkpt lat="44.82938" lon="7.9810133"><ele>344.2</ele><time>2026-04-19T11:22:56.054Z</time></trkpt><trkpt lat="44.8294533" lon="7.98103"><ele>344.0</ele><time>2026-04-19T11:22:57.057Z</time></trkpt><trkpt lat="44.829535" lon="7.981005"><ele>344.0</ele><time>2026-04-19T11:22:59.099Z</time></trkpt><trkpt lat="44.8296467" lon="7.9809483"><ele>344.0</ele><time>2026-04-19T11:23:01.048Z</time></trkpt><trkpt lat="44.8297133" lon="7.980915"><ele>344.0</ele><time>2026-04-19T11:23:02.056Z</time></trkpt><trkpt lat="44.8298267" lon="7.98088"><ele>344.0</ele><time>2026-04-19T11:23:04.056Z</time></trkpt><trkpt lat="44.8299067" lon="7.9809217"><ele>344.0</ele><time>2026-04-19T11:23:06.049Z</time></trkpt><trkpt lat="44.830015" lon="7.98099"><ele>344.0</ele><time>2026-04-19T11:23:08.052Z</time></trkpt><trkpt lat="44.8301033" lon="7.9809867"><ele>344.0</ele><time>2026-04-19T11:23:09.058Z</time></trkpt><trkpt lat="44.8301967" lon="7.9809583"><ele>344.0</ele><time>2026-04-19T11:23:10.05Z</time></trkpt><trkpt lat="44.8302667" lon="7.9808617"><ele>344.0</ele><time>2026-04-19T11:23:11.096Z</time></trkpt><trkpt lat="44.8303133" lon="7.980745"><ele>344.0</ele><time>2026-04-19T11:23:12.049Z</time></trkpt><trkpt lat="44.8303433" lon="7.9806183"><ele>346.0</ele><time>2026-04-19T11:23:13.053Z</time></trkpt><trkpt lat="44.8303667" lon="7.9805033"><ele>348.0</ele><time>2026-04-19T11:23:14.049Z</time></trkpt><trkpt lat="44.8303767" lon="7.9803933"><ele>350.0</ele><time>2026-04-19T11:23:15.054Z</time></trkpt><trkpt lat="44.8303467" lon="7.9802367"><ele>352.0</ele><time>2026-04-19T11:23:17.097Z</time></trkpt><trkpt lat="44.8302717" lon="7.9801717"><ele>354.0</ele><time>2026-04-19T11:23:19.054Z</time></trkpt><trkpt lat="44.83022" lon="7.980275"><ele>354.0</ele><time>2026-04-19T11:23:20.055Z</time></trkpt><trkpt lat="44.8301567" lon="7.9803167"><ele>354.0</ele><time>2026-04-19T11:23:22.051Z</time></trkpt><trkpt lat="44.83012" lon="7.9801583"><ele>354.0</ele><time>2026-04-19T11:23:24.055Z</time></trkpt><trkpt lat="44.8301067" lon="7.9800533"><ele>354.0</ele><time>2026-04-19T11:23:25.058Z</time></trkpt><trkpt lat="44.83009" lon="7.9799617"><ele>354.0</ele><time>2026-04-19T11:23:26.052Z</time></trkpt><trkpt lat="44.8300983" lon="7.9798183"><ele>354.0</ele><time>2026-04-19T11:23:28.051Z</time></trkpt><trkpt lat="44.830165" lon="7.9796767"><ele>350.8333333333333</ele><time>2026-04-19T11:23:30.049Z</time></trkpt><trkpt lat="44.830205" lon="7.9795133"><ele>347.6666666666667</ele><time>2026-04-19T11:23:32.058Z</time></trkpt><trkpt lat="44.8302283" lon="7.97941"><ele>344.5</ele><time>2026-04-19T11:23:33.051Z</time></trkpt><trkpt lat="44.8302583" lon="7.9793117"><ele>341.33333333333337</ele><time>2026-04-19T11:23:34.051Z</time></trkpt><trkpt lat="44.8303017" lon="7.979235"><ele>338.1666666666667</ele><time>2026-04-19T11:23:35.113Z</time></trkpt><trkpt lat="44.8303533" lon="7.97917"><ele>335.0</ele><time>2026-04-19T11:23:36.052Z</time></trkpt><trkpt lat="44.8304333" lon="7.9791067"><ele>332.4</ele><time>2026-04-19T11:23:37.057Z</time></trkpt><trkpt lat="44.830515" lon="7.9790617"><ele>329.8</ele><time>2026-04-19T11:23:38.054Z</time></trkpt><trkpt lat="44.8306" lon="7.9790267"><ele>327.20000000000005</ele><time>2026-04-19T11:23:39.053Z</time></trkpt><trkpt lat="44.8306833" lon="7.9790017"><ele>324.6</ele><time>2026-04-19T11:23:40.05Z</time></trkpt><trkpt lat="44.8307767" lon="7.9789833"><ele>322.0</ele><time>2026-04-19T11:23:41.094Z</time></trkpt><trkpt lat="44.8308833" lon="7.978985"><ele>321.5</ele><time>2026-04-19T11:23:42.059Z</time></trkpt><trkpt lat="44.831" lon="7.9790067"><ele>321.0</ele><time>2026-04-19T11:23:43.05Z</time></trkpt><trkpt lat="44.8311267" lon="7.979045"><ele>320.5</ele><time>2026-04-19T11:23:44.053Z</time></trkpt><trkpt lat="44.8312433" lon="7.979065"><ele>320.0</ele><time>2026-04-19T11:23:45.055Z</time></trkpt><trkpt lat="44.8313517" lon="7.979085"><ele>320.0</ele><time>2026-04-19T11:23:46.056Z</time></trkpt><trkpt lat="44.83146" lon="7.9791217"><ele>320.0</ele><time>2026-04-19T11:23:47.099Z</time></trkpt><trkpt lat="44.8315583" lon="7.9791633"><ele>320.0</ele><time>2026-04-19T11:23:48.056Z</time></trkpt><trkpt lat="44.8316483" lon="7.979195"><ele>320.0</ele><time>2026-04-19T11:23:49.055Z</time></trkpt><trkpt lat="44.831745" lon="7.9792517"><ele>320.0</ele><time>2026-04-19T11:23:50.057Z</time></trkpt><trkpt lat="44.83184" lon="7.9792883"><ele>321.4</ele><time>2026-04-19T11:23:51.05Z</time></trkpt><trkpt lat="44.8319433" lon="7.9793217"><ele>322.8</ele><time>2026-04-19T11:23:52.057Z</time></trkpt><trkpt lat="44.83205" lon="7.9793367"><ele>324.20000000000005</ele><time>2026-04-19T11:23:53.094Z</time></trkpt><trkpt lat="44.832165" lon="7.979345"><ele>325.6</ele><time>2026-04-19T11:23:54.058Z</time></trkpt><trkpt lat="44.83228" lon="7.9793517"><ele>327.0</ele><time>2026-04-19T11:23:55.052Z</time></trkpt><trkpt lat="44.8323967" lon="7.9793283"><ele>327.0</ele><time>2026-04-19T11:23:56.059Z</time></trkpt><trkpt lat="44.832515" lon="7.9793233"><ele>327.0</ele><time>2026-04-19T11:23:57.053Z</time></trkpt><trkpt lat="44.8326383" lon="7.979355"><ele>327.0</ele><time>2026-04-19T11:23:58.054Z</time></trkpt><trkpt lat="44.83275" lon="7.9793917"><ele>327.0</ele><time>2026-04-19T11:23:59.121Z</time></trkpt><trkpt lat="44.83286" lon="7.97943"><ele>325.20000000000005</ele><time>2026-04-19T11:24:00.051Z</time></trkpt><trkpt lat="44.832965" lon="7.9794717"><ele>323.40000000000003</ele><time>2026-04-19T11:24:01.056Z</time></trkpt><trkpt lat="44.833075" lon="7.9795167"><ele>321.6</ele><time>2026-04-19T11:24:02.052Z</time></trkpt><trkpt lat="44.8331833" lon="7.9795567"><ele>319.8</ele><time>2026-04-19T11:24:03.05Z</time></trkpt><trkpt lat="44.833295" lon="7.9795767"><ele>318.0</ele><time>2026-04-19T11:24:04.058Z</time></trkpt><trkpt lat="44.8334017" lon="7.97959"><ele>317.1666666666667</ele><time>2026-04-19T11:24:05.114Z</time></trkpt><trkpt lat="44.8334867" lon="7.9796183"><ele>316.3333333333333</ele><time>2026-04-19T11:24:06.05Z</time></trkpt><trkpt lat="44.8335767" lon="7.9796483"><ele>315.5</ele><time>2026-04-19T11:24:07.05Z</time></trkpt><trkpt lat="44.8336617" lon="7.979655"><ele>314.66666666666663</ele><time>2026-04-19T11:24:08.052Z</time></trkpt><trkpt lat="44.83374" lon="7.9796567"><ele>313.8333333333333</ele><time>2026-04-19T11:24:09.052Z</time></trkpt><trkpt lat="44.833815" lon="7.97969"><ele>313.0</ele><time>2026-04-19T11:24:10.057Z</time></trkpt><trkpt lat="44.8338867" lon="7.9797167"><ele>313.0</ele><time>2026-04-19T11:24:11.094Z</time></trkpt><trkpt lat="44.8339517" lon="7.9797533"><ele>313.0</ele><time>2026-04-19T11:24:12.052Z</time></trkpt><trkpt lat="44.834015" lon="7.979825"><ele>313.0</ele><time>2026-04-19T11:24:13.055Z</time></trkpt><trkpt lat="44.8341017" lon="7.979925"><ele>313.0</ele><time>2026-04-19T11:24:14.05Z</time></trkpt><trkpt lat="44.8341967" lon="7.9799883"><ele>313.0</ele><time>2026-04-19T11:24:15.052Z</time></trkpt><trkpt lat="44.8343133" lon="7.980055"><ele>314.0</ele><time>2026-04-19T11:24:16.049Z</time></trkpt><trkpt lat="44.834455" lon="7.9801283"><ele>315.0</ele><time>2026-04-19T11:24:17.098Z</time></trkpt><trkpt lat="44.8345983" lon="7.9801817"><ele>316.0</ele><time>2026-04-19T11:24:18.056Z</time></trkpt><trkpt lat="44.83474" lon="7.9802333"><ele>317.0</ele><time>2026-04-19T11:24:19.057Z</time></trkpt><trkpt lat="44.8348733" lon="7.9802833"><ele>317.0</ele><time>2026-04-19T11:24:20.056Z</time></trkpt><trkpt lat="44.8349933" lon="7.9803233"><ele>317.0</ele><time>2026-04-19T11:24:21.051Z</time></trkpt><trkpt lat="44.8351017" lon="7.980355"><ele>317.0</ele><time>2026-04-19T11:24:22.052Z</time></trkpt><trkpt lat="44.8352" lon="7.98038"><ele>317.0</ele><time>2026-04-19T11:24:23.103Z</time></trkpt><trkpt lat="44.8353117" lon="7.9803883"><ele>317.0</ele><time>2026-04-19T11:24:24.055Z</time></trkpt><trkpt lat="44.8353983" lon="7.9803717"><ele>317.6</ele><time>2026-04-19T11:24:25.053Z</time></trkpt><trkpt lat="44.8354567" lon="7.9803317"><ele>318.2</ele><time>2026-04-19T11:24:26.05Z</time></trkpt><trkpt lat="44.8355333" lon="7.980265"><ele>318.8</ele><time>2026-04-19T11:24:27.056Z</time></trkpt><trkpt lat="44.8356083" lon="7.9802217"><ele>319.4</ele><time>2026-04-19T11:24:28.058Z</time></trkpt><trkpt lat="44.8357067" lon="7.98017"><ele>320.0</ele><time>2026-04-19T11:24:29.116Z</time></trkpt><trkpt lat="44.83582" lon="7.9801317"><ele>320.0</ele><time>2026-04-19T11:24:30.05Z</time></trkpt><trkpt lat="44.8359333" lon="7.9800867"><ele>320.0</ele><time>2026-04-19T11:24:31.057Z</time></trkpt><trkpt lat="44.8360483" lon="7.9800433"><ele>320.0</ele><time>2026-04-19T11:24:32.051Z</time></trkpt><trkpt lat="44.8361667" lon="7.98002"><ele>320.0</ele><time>2026-04-19T11:24:33.064Z</time></trkpt><trkpt lat="44.8362833" lon="7.9800033"><ele>317.0</ele><time>2026-04-19T11:24:34.053Z</time></trkpt><trkpt lat="44.8364" lon="7.9799983"><ele>314.0</ele><time>2026-04-19T11:24:35.114Z</time></trkpt><trkpt lat="44.8365183" lon="7.9799933"><ele>311.0</ele><time>2026-04-19T11:24:36.049Z</time></trkpt><trkpt lat="44.836625" lon="7.9799933"><ele>308.0</ele><time>2026-04-19T11:24:37.05Z</time></trkpt><trkpt lat="44.8367217" lon="7.97998"><ele>305.0</ele><time>2026-04-19T11:24:38.053Z</time></trkpt><trkpt lat="44.836815" lon="7.97996"><ele>304.2</ele><time>2026-04-19T11:24:39.053Z</time></trkpt><trkpt lat="44.8369183" lon="7.9799733"><ele>303.4</ele><time>2026-04-19T11:24:40.058Z</time></trkpt><trkpt lat="44.8370133" lon="7.979985"><ele>302.6</ele><time>2026-04-19T11:24:41.106Z</time></trkpt><trkpt lat="44.8371183" lon="7.979995"><ele>301.8</ele><time>2026-04-19T11:24:42.05Z</time></trkpt><trkpt lat="44.8372133" lon="7.9800017"><ele>301.0</ele><time>2026-04-19T11:24:43.06Z</time></trkpt><trkpt lat="44.8373017" lon="7.9800033"><ele>301.0</ele><time>2026-04-19T11:24:44.056Z</time></trkpt><trkpt lat="44.8373817" lon="7.9799983"><ele>301.0</ele><time>2026-04-19T11:24:45.057Z</time></trkpt><trkpt lat="44.83746" lon="7.9799933"><ele>301.0</ele><time>2026-04-19T11:24:46.053Z</time></trkpt><trkpt lat="44.8375433" lon="7.9799817"><ele>301.0</ele><time>2026-04-19T11:24:47.097Z</time></trkpt><trkpt lat="44.8376433" lon="7.9799767"><ele>301.0</ele><time>2026-04-19T11:24:48.054Z</time></trkpt><trkpt lat="44.8377383" lon="7.9799717"><ele>301.0</ele><time>2026-04-19T11:24:49.055Z</time></trkpt><trkpt lat="44.8378317" lon="7.9799817"><ele>300.8</ele><time>2026-04-19T11:24:50.062Z</time></trkpt><trkpt lat="44.8379283" lon="7.980005"><ele>300.6</ele><time>2026-04-19T11:24:51.052Z</time></trkpt><trkpt lat="44.83803" lon="7.9800333"><ele>300.4</ele><time>2026-04-19T11:24:52.063Z</time></trkpt><trkpt lat="44.8381217" lon="7.98007"><ele>300.2</ele><time>2026-04-19T11:24:53.098Z</time></trkpt><trkpt lat="44.8382133" lon="7.9801217"><ele>300.0</ele><time>2026-04-19T11:24:54.051Z</time></trkpt><trkpt lat="44.8383" lon="7.9801917"><ele>300.6</ele><time>2026-04-19T11:24:55.055Z</time></trkpt><trkpt lat="44.838355" lon="7.9802867"><ele>301.2</ele><time>2026-04-19T11:24:56.058Z</time></trkpt><trkpt lat="44.8384183" lon="7.9803917"><ele>301.8</ele><time>2026-04-19T11:24:57.056Z</time></trkpt><trkpt lat="44.838495" lon="7.9804883"><ele>302.4</ele><time>2026-04-19T11:24:58.059Z</time></trkpt><trkpt lat="44.8385717" lon="7.980575"><ele>303.0</ele><time>2026-04-19T11:24:59.117Z</time></trkpt><trkpt lat="44.83864" lon="7.9806467"><ele>301.3333333333333</ele><time>2026-04-19T11:25:00.055Z</time></trkpt><trkpt lat="44.8387167" lon="7.980735"><ele>299.6666666666667</ele><time>2026-04-19T11:25:01.058Z</time></trkpt><trkpt lat="44.838785" lon="7.9807867"><ele>298.0</ele><time>2026-04-19T11:25:02.058Z</time></trkpt><trkpt lat="44.83885" lon="7.9808067"><ele>296.33333333333337</ele><time>2026-04-19T11:25:03.052Z</time></trkpt><trkpt lat="44.8389217" lon="7.9807933"><ele>294.6666666666667</ele><time>2026-04-19T11:25:04.055Z</time></trkpt><trkpt lat="44.8390433" lon="7.9807917"><ele>293.0</ele><time>2026-04-19T11:25:05.108Z</time></trkpt><trkpt lat="44.8391483" lon="7.9807883"><ele>293.0</ele><time>2026-04-19T11:25:06.057Z</time></trkpt><trkpt lat="44.8392483" lon="7.9807617"><ele>293.0</ele><time>2026-04-19T11:25:07.056Z</time></trkpt><trkpt lat="44.8393583" lon="7.9807317"><ele>293.0</ele><time>2026-04-19T11:25:08.054Z</time></trkpt><trkpt lat="44.8394883" lon="7.9806867"><ele>293.0</ele><time>2026-04-19T11:25:09.05Z</time></trkpt><trkpt lat="44.8396117" lon="7.980655"><ele>292.5</ele><time>2026-04-19T11:25:10.059Z</time></trkpt><trkpt lat="44.8397283" lon="7.9806233"><ele>292.0</ele><time>2026-04-19T11:25:11.089Z</time></trkpt><trkpt lat="44.8398417" lon="7.9805933"><ele>291.5</ele><time>2026-04-19T11:25:12.054Z</time></trkpt><trkpt lat="44.83995" lon="7.9805617"><ele>291.0</ele><time>2026-04-19T11:25:13.058Z</time></trkpt><trkpt lat="44.840055" lon="7.980545"><ele>290.75</ele><time>2026-04-19T11:25:14.046Z</time></trkpt><trkpt lat="44.8401683" lon="7.9805383"><ele>290.5</ele><time>2026-04-19T11:25:15.051Z</time></trkpt><trkpt lat="44.84028" lon="7.9805217"><ele>290.25</ele><time>2026-04-19T11:25:16.061Z</time></trkpt><trkpt lat="44.8403967" lon="7.9805333"><ele>290.0</ele><time>2026-04-19T11:25:17.092Z</time></trkpt><trkpt lat="44.84051" lon="7.980545"><ele>290.0</ele><time>2026-04-19T11:25:18.056Z</time></trkpt><trkpt lat="44.8406333" lon="7.9805383"><ele>290.0</ele><time>2026-04-19T11:25:19.056Z</time></trkpt><trkpt lat="44.8407583" lon="7.9805233"><ele>290.0</ele><time>2026-04-19T11:25:20.052Z</time></trkpt><trkpt lat="44.840865" lon="7.98049"><ele>290.0</ele><time>2026-04-19T11:25:21.057Z</time></trkpt><trkpt lat="44.8409483" lon="7.9804583"><ele>290.0</ele><time>2026-04-19T11:25:22.055Z</time></trkpt><trkpt lat="44.8410333" lon="7.9804333"><ele>289.1666666666667</ele><time>2026-04-19T11:25:23.093Z</time></trkpt><trkpt lat="44.8411133" lon="7.9804033"><ele>288.33333333333337</ele><time>2026-04-19T11:25:24.051Z</time></trkpt><trkpt lat="44.841185" lon="7.9803817"><ele>287.5</ele><time>2026-04-19T11:25:25.056Z</time></trkpt><trkpt lat="44.841295" lon="7.98032"><ele>286.6666666666667</ele><time>2026-04-19T11:25:27.056Z</time></trkpt><trkpt lat="44.841385" lon="7.9802417"><ele>285.8333333333333</ele><time>2026-04-19T11:25:29.121Z</time></trkpt><trkpt lat="44.841435" lon="7.980185"><ele>285.0</ele><time>2026-04-19T11:25:31.06Z</time></trkpt><trkpt lat="44.8414517" lon="7.9802767"><ele>285.0</ele><time>2026-04-19T11:25:36.053Z</time></trkpt><trkpt lat="44.8414483" lon="7.9803667"><ele>285.0</ele><time>2026-04-19T11:25:37.055Z</time></trkpt><trkpt lat="44.8414417" lon="7.9804867"><ele>285.0</ele><time>2026-04-19T11:25:38.053Z</time></trkpt><trkpt lat="44.8414317" lon="7.9806267"><ele>285.0</ele><time>2026-04-19T11:25:39.058Z</time></trkpt><trkpt lat="44.84142" lon="7.98077"><ele>285.0</ele><time>2026-04-19T11:25:40.054Z</time></trkpt><trkpt lat="44.8414017" lon="7.9809033"><ele>285.0</ele><time>2026-04-19T11:25:41.101Z</time></trkpt><trkpt lat="44.8413783" lon="7.9810183"><ele>287.2</ele><time>2026-04-19T11:25:42.051Z</time></trkpt><trkpt lat="44.841345" lon="7.9811383"><ele>289.4</ele><time>2026-04-19T11:25:43.054Z</time></trkpt><trkpt lat="44.8412967" lon="7.981255"><ele>291.6</ele><time>2026-04-19T11:25:44.051Z</time></trkpt><trkpt lat="44.841245" lon="7.9813667"><ele>293.8</ele><time>2026-04-19T11:25:45.055Z</time></trkpt><trkpt lat="44.8412017" lon="7.9814683"><ele>296.0</ele><time>2026-04-19T11:25:46.056Z</time></trkpt><trkpt lat="44.8411533" lon="7.9815683"><ele>296.0</ele><time>2026-04-19T11:25:47.094Z</time></trkpt><trkpt lat="44.8411117" lon="7.9816767"><ele>296.0</ele><time>2026-04-19T11:25:48.047Z</time></trkpt><trkpt lat="44.8410783" lon="7.9817867"><ele>296.0</ele><time>2026-04-19T11:25:49.053Z</time></trkpt><trkpt lat="44.8410533" lon="7.98191"><ele>296.0</ele><time>2026-04-19T11:25:50.05Z</time></trkpt><trkpt lat="44.8410267" lon="7.9820383"><ele>296.0</ele><time>2026-04-19T11:25:51.055Z</time></trkpt><trkpt lat="44.8410067" lon="7.9821683"><ele>298.5</ele><time>2026-04-19T11:25:52.051Z</time></trkpt><trkpt lat="44.8409867" lon="7.9823"><ele>301.0</ele><time>2026-04-19T11:25:53.093Z</time></trkpt><trkpt lat="44.8409717" lon="7.9824233"><ele>303.5</ele><time>2026-04-19T11:25:54.053Z</time></trkpt><trkpt lat="44.8409583" lon="7.982545"><ele>306.0</ele><time>2026-04-19T11:25:55.045Z</time></trkpt><trkpt lat="44.840945" lon="7.9826583"><ele>308.5</ele><time>2026-04-19T11:25:56.058Z</time></trkpt><trkpt lat="44.8409417" lon="7.9827483"><ele>311.0</ele><time>2026-04-19T11:25:57.055Z</time></trkpt><trkpt lat="44.8409633" lon="7.9828983"><ele>313.0</ele><time>2026-04-19T11:25:59.124Z</time></trkpt><trkpt lat="44.84101" lon="7.9830417"><ele>315.0</ele><time>2026-04-19T11:26:01.058Z</time></trkpt><trkpt lat="44.8410767" lon="7.9831"><ele>317.0</ele><time>2026-04-19T11:26:03.055Z</time></trkpt><trkpt lat="44.84114" lon="7.9831"><ele>319.0</ele><time>2026-04-19T11:26:05.118Z</time></trkpt><trkpt lat="44.841195" lon="7.983035"><ele>321.0</ele><time>2026-04-19T11:26:07.05Z</time></trkpt><trkpt lat="44.8412483" lon="7.9829517"><ele>323.0</ele><time>2026-04-19T11:26:09.049Z</time></trkpt><trkpt lat="44.84131" lon="7.9828867"><ele>323.0</ele><time>2026-04-19T11:26:11.099Z</time></trkpt><trkpt lat="44.8413733" lon="7.9829033"><ele>323.0</ele><time>2026-04-19T11:26:13.057Z</time></trkpt><trkpt lat="44.8413633" lon="7.983045"><ele>323.0</ele><time>2026-04-19T11:26:16.053Z</time></trkpt><trkpt lat="44.8413" lon="7.9831283"><ele>323.0</ele><time>2026-04-19T11:26:18.051Z</time></trkpt><trkpt lat="44.8412333" lon="7.98325"><ele>323.0</ele><time>2026-04-19T11:26:20.059Z</time></trkpt><trkpt lat="44.8412033" lon="7.9834"><ele>323.4</ele><time>2026-04-19T11:26:22.057Z</time></trkpt><trkpt lat="44.84119" lon="7.9834967"><ele>323.79999999999995</ele><time>2026-04-19T11:26:23.092Z</time></trkpt><trkpt lat="44.841165" lon="7.9835883"><ele>324.2</ele><time>2026-04-19T11:26:24.048Z</time></trkpt><trkpt lat="44.8410933" lon="7.98373"><ele>324.6</ele><time>2026-04-19T11:26:26.054Z</time></trkpt><trkpt lat="44.8410267" lon="7.9838417"><ele>325.0</ele><time>2026-04-19T11:26:28.058Z</time></trkpt><trkpt lat="44.84096" lon="7.9839367"><ele>325.8</ele><time>2026-04-19T11:26:30.051Z</time></trkpt><trkpt lat="44.8408867" lon="7.9840467"><ele>326.6</ele><time>2026-04-19T11:26:32.051Z</time></trkpt><trkpt lat="44.84085" lon="7.98412"><ele>327.4</ele><time>2026-04-19T11:26:33.051Z</time></trkpt><trkpt lat="44.8407917" lon="7.98425"><ele>328.2</ele><time>2026-04-19T11:26:35.119Z</time></trkpt><trkpt lat="44.8407033" lon="7.9843583"><ele>329.0</ele><time>2026-04-19T11:26:37.051Z</time></trkpt><trkpt lat="44.840635" lon="7.9844067"><ele>329.1666666666667</ele><time>2026-04-19T11:26:38.044Z</time></trkpt><trkpt lat="44.8405517" lon="7.9844533"><ele>329.33333333333337</ele><time>2026-04-19T11:26:39.046Z</time></trkpt><trkpt lat="44.840465" lon="7.984485"><ele>329.5</ele><time>2026-04-19T11:26:40.054Z</time></trkpt><trkpt lat="44.8403833" lon="7.9844967"><ele>329.6666666666667</ele><time>2026-04-19T11:26:41.098Z</time></trkpt><trkpt lat="44.840295" lon="7.9845033"><ele>329.8333333333333</ele><time>2026-04-19T11:26:42.056Z</time></trkpt><trkpt lat="44.8402117" lon="7.9845017"><ele>330.0</ele><time>2026-04-19T11:26:43.057Z</time></trkpt><trkpt lat="44.8401283" lon="7.984495"><ele>330.0</ele><time>2026-04-19T11:26:44.051Z</time></trkpt><trkpt lat="44.8400383" lon="7.984495"><ele>330.0</ele><time>2026-04-19T11:26:45.053Z</time></trkpt><trkpt lat="44.839955" lon="7.9844983"><ele>330.0</ele><time>2026-04-19T11:26:46.056Z</time></trkpt><trkpt lat="44.8398667" lon="7.9845017"><ele>330.0</ele><time>2026-04-19T11:26:47.094Z</time></trkpt><trkpt lat="44.8397833" lon="7.9845083"><ele>330.0</ele><time>2026-04-19T11:26:48.049Z</time></trkpt><trkpt lat="44.8397" lon="7.9845133"><ele>330.0</ele><time>2026-04-19T11:26:49.046Z</time></trkpt><trkpt lat="44.83962" lon="7.984505"><ele>330.0</ele><time>2026-04-19T11:26:50.049Z</time></trkpt><trkpt lat="44.839535" lon="7.9845033"><ele>330.0</ele><time>2026-04-19T11:26:51.052Z</time></trkpt><trkpt lat="44.839445" lon="7.9845017"><ele>330.0</ele><time>2026-04-19T11:26:52.057Z</time></trkpt><trkpt lat="44.839355" lon="7.9845067"><ele>330.0</ele><time>2026-04-19T11:26:53.094Z</time></trkpt><trkpt lat="44.8392667" lon="7.984515"><ele>330.0</ele><time>2026-04-19T11:26:54.049Z</time></trkpt><trkpt lat="44.8391917" lon="7.9845067"><ele>330.0</ele><time>2026-04-19T11:26:55.049Z</time></trkpt><trkpt lat="44.8391217" lon="7.984515"><ele>332.14285714285717</ele><time>2026-04-19T11:26:56.053Z</time></trkpt><trkpt lat="44.8390533" lon="7.9845283"><ele>334.2857142857143</ele><time>2026-04-19T11:26:57.062Z</time></trkpt><trkpt lat="44.8389817" lon="7.9845583"><ele>336.42857142857144</ele><time>2026-04-19T11:26:58.058Z</time></trkpt><trkpt lat="44.83891" lon="7.9845967"><ele>338.57142857142856</ele><time>2026-04-19T11:26:59.116Z</time></trkpt><trkpt lat="44.838855" lon="7.984665"><ele>340.7142857142857</ele><time>2026-04-19T11:27:00.05Z</time></trkpt><trkpt lat="44.8388367" lon="7.984765"><ele>342.8571428571429</ele><time>2026-04-19T11:27:01.05Z</time></trkpt><trkpt lat="44.8388417" lon="7.9848567"><ele>345.0</ele><time>2026-04-19T11:27:02.056Z</time></trkpt><trkpt lat="44.83886" lon="7.9849583"><ele>342.3333333333333</ele><time>2026-04-19T11:27:03.053Z</time></trkpt><trkpt lat="44.8388683" lon="7.9850483"><ele>339.6666666666667</ele><time>2026-04-19T11:27:04.051Z</time></trkpt><trkpt lat="44.83884" lon="7.9851733"><ele>337.0</ele><time>2026-04-19T11:27:06.05Z</time></trkpt><trkpt lat="44.838755" lon="7.9853"><ele>334.33333333333337</ele><time>2026-04-19T11:27:08.052Z</time></trkpt><trkpt lat="44.8386933" lon="7.9853617"><ele>331.6666666666667</ele><time>2026-04-19T11:27:09.059Z</time></trkpt><trkpt lat="44.838625" lon="7.9854083"><ele>329.0</ele><time>2026-04-19T11:27:10.049Z</time></trkpt><trkpt lat="44.8385567" lon="7.9854367"><ele>329.0</ele><time>2026-04-19T11:27:11.101Z</time></trkpt><trkpt lat="44.8384867" lon="7.9854567"><ele>329.0</ele><time>2026-04-19T11:27:12.054Z</time></trkpt><trkpt lat="44.8384167" lon="7.9854883"><ele>329.0</ele><time>2026-04-19T11:27:13.053Z</time></trkpt><trkpt lat="44.83834" lon="7.98552"><ele>329.0</ele><time>2026-04-19T11:27:14.058Z</time></trkpt><trkpt lat="44.8382767" lon="7.9855717"><ele>329.0</ele><time>2026-04-19T11:27:15.049Z</time></trkpt><trkpt lat="44.8382183" lon="7.985625"><ele>329.0</ele><time>2026-04-19T11:27:16.057Z</time></trkpt><trkpt lat="44.83816" lon="7.985685"><ele>329.0</ele><time>2026-04-19T11:27:17.095Z</time></trkpt><trkpt lat="44.8380917" lon="7.985785"><ele>332.5</ele><time>2026-04-19T11:27:19.058Z</time></trkpt><trkpt lat="44.8380667" lon="7.9859383"><ele>336.0</ele><time>2026-04-19T11:27:21.049Z</time></trkpt><trkpt lat="44.8380533" lon="7.9860383"><ele>339.5</ele><time>2026-04-19T11:27:22.054Z</time></trkpt><trkpt lat="44.8380283" lon="7.98616"><ele>343.0</ele><time>2026-04-19T11:27:23.102Z</time></trkpt><trkpt lat="44.838" lon="7.9862683"><ele>346.5</ele><time>2026-04-19T11:27:24.05Z</time></trkpt><trkpt lat="44.8379667" lon="7.9863667"><ele>350.0</ele><time>2026-04-19T11:27:25.059Z</time></trkpt><trkpt lat="44.83793" lon="7.9864483"><ele>350.0</ele><time>2026-04-19T11:27:26.05Z</time></trkpt><trkpt lat="44.8378833" lon="7.9865267"><ele>350.0</ele><time>2026-04-19T11:27:28.057Z</time></trkpt><trkpt lat="44.8379117" lon="7.9866233"><ele>350.0</ele><time>2026-04-19T11:28:25.056Z</time></trkpt><trkpt lat="44.8379533" lon="7.9867017"><ele>350.0</ele><time>2026-04-19T11:28:27.052Z</time></trkpt><trkpt lat="44.83802" lon="7.98679"><ele>350.0</ele><time>2026-04-19T11:28:29.117Z</time></trkpt><trkpt lat="44.83812" lon="7.98689"><ele>350.0</ele><time>2026-04-19T11:28:31.057Z</time></trkpt><trkpt lat="44.8381867" lon="7.98695"><ele>349.0</ele><time>2026-04-19T11:28:32.057Z</time></trkpt><trkpt lat="44.8382533" lon="7.9870017"><ele>348.0</ele><time>2026-04-19T11:28:33.054Z</time></trkpt><trkpt lat="44.838315" lon="7.9870483"><ele>347.0</ele><time>2026-04-19T11:28:34.058Z</time></trkpt><trkpt lat="44.83841" lon="7.9871533"><ele>346.0</ele><time>2026-04-19T11:28:36.047Z</time></trkpt><trkpt lat="44.83846" lon="7.98722"><ele>345.0</ele><time>2026-04-19T11:28:37.049Z</time></trkpt><trkpt lat="44.8385167" lon="7.9873117"><ele>344.0</ele><time>2026-04-19T11:28:38.054Z</time></trkpt><trkpt lat="44.83857" lon="7.9874233"><ele>343.0</ele><time>2026-04-19T11:28:39.05Z</time></trkpt><trkpt lat="44.8386183" lon="7.9875267"><ele>342.0</ele><time>2026-04-19T11:28:40.052Z</time></trkpt><trkpt lat="44.8386633" lon="7.9876133"><ele>341.0</ele><time>2026-04-19T11:28:41.099Z</time></trkpt><trkpt lat="44.8387567" lon="7.9877433"><ele>340.0</ele><time>2026-04-19T11:28:43.057Z</time></trkpt><trkpt lat="44.8388167" lon="7.9878267"><ele>339.0</ele><time>2026-04-19T11:28:44.055Z</time></trkpt><trkpt lat="44.8388883" lon="7.9879267"><ele>339.0</ele><time>2026-04-19T11:28:45.051Z</time></trkpt><trkpt lat="44.8389567" lon="7.9880133"><ele>339.0</ele><time>2026-04-19T11:28:46.053Z</time></trkpt><trkpt lat="44.83902" lon="7.988085"><ele>339.0</ele><time>2026-04-19T11:28:47.095Z</time></trkpt><trkpt lat="44.8390833" lon="7.988135"><ele>339.0</ele><time>2026-04-19T11:28:48.047Z</time></trkpt><trkpt lat="44.8391483" lon="7.98817"><ele>339.0</ele><time>2026-04-19T11:28:49.052Z</time></trkpt><trkpt lat="44.8392233" lon="7.9881917"><ele>339.0</ele><time>2026-04-19T11:28:50.044Z</time></trkpt><trkpt lat="44.8392933" lon="7.9881983"><ele>338.5</ele><time>2026-04-19T11:28:51.055Z</time></trkpt><trkpt lat="44.83936" lon="7.9881983"><ele>338.0</ele><time>2026-04-19T11:28:52.051Z</time></trkpt><trkpt lat="44.8394267" lon="7.9881783"><ele>337.5</ele><time>2026-04-19T11:28:53.089Z</time></trkpt><trkpt lat="44.83954" lon="7.9881583"><ele>337.0</ele><time>2026-04-19T11:28:55.052Z</time></trkpt><trkpt lat="44.8396067" lon="7.988165"><ele>336.5</ele><time>2026-04-19T11:28:56.049Z</time></trkpt><trkpt lat="44.8396767" lon="7.9881917"><ele>336.0</ele><time>2026-04-19T11:28:57.058Z</time></trkpt><trkpt lat="44.8397567" lon="7.9882267"><ele>336.0</ele><time>2026-04-19T11:28:58.049Z</time></trkpt><trkpt lat="44.8398283" lon="7.988255"><ele>336.0</ele><time>2026-04-19T11:28:59.116Z</time></trkpt><trkpt lat="44.839905" lon="7.9882867"><ele>336.0</ele><time>2026-04-19T11:29:00.048Z</time></trkpt><trkpt lat="44.8399733" lon="7.98832"><ele>336.0</ele><time>2026-04-19T11:29:01.053Z</time></trkpt><trkpt lat="44.8400467" lon="7.9883517"><ele>336.0</ele><time>2026-04-19T11:29:02.055Z</time></trkpt><trkpt lat="44.840115" lon="7.9883833"><ele>336.0</ele><time>2026-04-19T11:29:03.058Z</time></trkpt><trkpt lat="44.840195" lon="7.9884067"><ele>333.8333333333333</ele><time>2026-04-19T11:29:04.057Z</time></trkpt><trkpt lat="44.8402783" lon="7.9884317"><ele>331.6666666666667</ele><time>2026-04-19T11:29:05.113Z</time></trkpt><trkpt lat="44.840365" lon="7.98845"><ele>329.5</ele><time>2026-04-19T11:29:06.048Z</time></trkpt><trkpt lat="44.840445" lon="7.9884567"><ele>327.33333333333337</ele><time>2026-04-19T11:29:07.064Z</time></trkpt><trkpt lat="44.84052" lon="7.9884483"><ele>325.1666666666667</ele><time>2026-04-19T11:29:08.059Z</time></trkpt><trkpt lat="44.8406" lon="7.9884233"><ele>323.0</ele><time>2026-04-19T11:29:09.054Z</time></trkpt><trkpt lat="44.840675" lon="7.9884033"><ele>323.0</ele><time>2026-04-19T11:29:10.053Z</time></trkpt><trkpt lat="44.8407917" lon="7.9883833"><ele>323.0</ele><time>2026-04-19T11:29:12.055Z</time></trkpt><trkpt lat="44.8408517" lon="7.9884117"><ele>323.0</ele><time>2026-04-19T11:29:13.06Z</time></trkpt><trkpt lat="44.8409317" lon="7.9884567"><ele>323.0</ele><time>2026-04-19T11:29:14.057Z</time></trkpt><trkpt lat="44.8410183" lon="7.9884917"><ele>323.0</ele><time>2026-04-19T11:29:15.056Z</time></trkpt><trkpt lat="44.8411133" lon="7.9885083"><ele>322.5</ele><time>2026-04-19T11:29:16.055Z</time></trkpt><trkpt lat="44.8412117" lon="7.98852"><ele>322.0</ele><time>2026-04-19T11:29:17.095Z</time></trkpt><trkpt lat="44.841295" lon="7.9885183"><ele>321.5</ele><time>2026-04-19T11:29:18.051Z</time></trkpt><trkpt lat="44.841365" lon="7.9885083"><ele>321.0</ele><time>2026-04-19T11:29:19.053Z</time></trkpt><trkpt lat="44.8414367" lon="7.988505"><ele>320.5</ele><time>2026-04-19T11:29:20.057Z</time></trkpt><trkpt lat="44.8415133" lon="7.9885117"><ele>320.0</ele><time>2026-04-19T11:29:21.055Z</time></trkpt><trkpt lat="44.8415867" lon="7.9885217"><ele>320.0</ele><time>2026-04-19T11:29:22.061Z</time></trkpt><trkpt lat="44.84165" lon="7.9885383"><ele>320.0</ele><time>2026-04-19T11:29:23.096Z</time></trkpt><trkpt lat="44.841715" lon="7.9885667"><ele>320.0</ele><time>2026-04-19T11:29:24.051Z</time></trkpt><trkpt lat="44.8417833" lon="7.988605"><ele>320.0</ele><time>2026-04-19T11:29:25.057Z</time></trkpt><trkpt lat="44.8418583" lon="7.9886433"><ele>320.0</ele><time>2026-04-19T11:29:26.052Z</time></trkpt><trkpt lat="44.8419383" lon="7.9886767"><ele>320.0</ele><time>2026-04-19T11:29:27.059Z</time></trkpt><trkpt lat="44.842015" lon="7.9887033"><ele>320.0</ele><time>2026-04-19T11:29:28.051Z</time></trkpt><trkpt lat="44.8420933" lon="7.9887317"><ele>321.5</ele><time>2026-04-19T11:29:29.12Z</time></trkpt><trkpt lat="44.8421567" lon="7.9887483"><ele>323.0</ele><time>2026-04-19T11:29:30.049Z</time></trkpt><trkpt lat="44.8422317" lon="7.9887367"><ele>324.5</ele><time>2026-04-19T11:29:32.046Z</time></trkpt><trkpt lat="44.842295" lon="7.98869"><ele>326.0</ele><time>2026-04-19T11:29:34.058Z</time></trkpt><trkpt lat="44.8424133" lon="7.98864"><ele>327.5</ele><time>2026-04-19T11:29:36.048Z</time></trkpt><trkpt lat="44.8424917" lon="7.9886117"><ele>329.0</ele><time>2026-04-19T11:29:37.056Z</time></trkpt><trkpt lat="44.8425633" lon="7.9885783"><ele>329.0</ele><time>2026-04-19T11:29:38.057Z</time></trkpt><trkpt lat="44.84263" lon="7.988545"><ele>329.0</ele><time>2026-04-19T11:29:39.054Z</time></trkpt><trkpt lat="44.842745" lon="7.98847"><ele>329.0</ele><time>2026-04-19T11:29:41.095Z</time></trkpt><trkpt lat="44.8428083" lon="7.9884117"><ele>329.0</ele><time>2026-04-19T11:29:42.047Z</time></trkpt><trkpt lat="44.8428817" lon="7.988355"><ele>329.0</ele><time>2026-04-19T11:29:43.06Z</time></trkpt><trkpt lat="44.8429617" lon="7.9882867"><ele>328.0</ele><time>2026-04-19T11:29:44.052Z</time></trkpt><trkpt lat="44.843045" lon="7.98823"><ele>327.0</ele><time>2026-04-19T11:29:45.052Z</time></trkpt><trkpt lat="44.8431133" lon="7.9881883"><ele>326.0</ele><time>2026-04-19T11:29:46.05Z</time></trkpt><trkpt lat="44.8432317" lon="7.9881717"><ele>325.0</ele><time>2026-04-19T11:29:48.051Z</time></trkpt><trkpt lat="44.8432933" lon="7.9882017"><ele>324.0</ele><time>2026-04-19T11:29:49.06Z</time></trkpt><trkpt lat="44.8433467" lon="7.9882867"><ele>323.0</ele><time>2026-04-19T11:29:50.047Z</time></trkpt><trkpt lat="44.8433917" lon="7.988365"><ele>323.00000000000006</ele><time>2026-04-19T11:29:51.056Z</time></trkpt><trkpt lat="44.8434317" lon="7.9884583"><ele>323.0</ele><time>2026-04-19T11:29:52.054Z</time></trkpt><trkpt lat="44.8434617" lon="7.9885517"><ele>323.0</ele><time>2026-04-19T11:29:53.096Z</time></trkpt><trkpt lat="44.843475" lon="7.98864"><ele>323.0</ele><time>2026-04-19T11:29:54.05Z</time></trkpt><trkpt lat="44.8434817" lon="7.9887383"><ele>323.0</ele><time>2026-04-19T11:29:55.051Z</time></trkpt><trkpt lat="44.843485" lon="7.9888367"><ele>323.00000000000006</ele><time>2026-04-19T11:29:56.054Z</time></trkpt><trkpt lat="44.843495" lon="7.9889283"><ele>323.0</ele><time>2026-04-19T11:29:57.051Z</time></trkpt><trkpt lat="44.8434483" lon="7.9890817"><ele>323.0</ele><time>2026-04-19T11:29:59.109Z</time></trkpt><trkpt lat="44.8434" lon="7.9891583"><ele>323.0</ele><time>2026-04-19T11:30:00.051Z</time></trkpt><trkpt lat="44.84335" lon="7.9892317"><ele>323.0</ele><time>2026-04-19T11:30:01.055Z</time></trkpt><trkpt lat="44.843295" lon="7.9893217"><ele>323.0</ele><time>2026-04-19T11:30:02.058Z</time></trkpt><trkpt lat="44.84326" lon="7.9894433"><ele>323.0</ele><time>2026-04-19T11:30:03.057Z</time></trkpt><trkpt lat="44.8432367" lon="7.9895783"><ele>323.0</ele><time>2026-04-19T11:30:04.055Z</time></trkpt><trkpt lat="44.8432217" lon="7.98971"><ele>320.83333333333337</ele><time>2026-04-19T11:30:05.12Z</time></trkpt><trkpt lat="44.8432017" lon="7.9898433"><ele>318.6666666666667</ele><time>2026-04-19T11:30:06.052Z</time></trkpt><trkpt lat="44.8431733" lon="7.9899683"><ele>316.5</ele><time>2026-04-19T11:30:07.058Z</time></trkpt><trkpt lat="44.8431533" lon="7.990095"><ele>314.3333333333333</ele><time>2026-04-19T11:30:08.049Z</time></trkpt><trkpt lat="44.84314" lon="7.9902017"><ele>312.16666666666663</ele><time>2026-04-19T11:30:09.054Z</time></trkpt><trkpt lat="44.8431333" lon="7.9902933"><ele>310.0</ele><time>2026-04-19T11:30:10.051Z</time></trkpt><trkpt lat="44.843155" lon="7.9903983"><ele>310.0</ele><time>2026-04-19T11:30:12.049Z</time></trkpt><trkpt lat="44.8432333" lon="7.990335"><ele>310.0</ele><time>2026-04-19T11:30:25.056Z</time></trkpt><trkpt lat="44.84332" lon="7.990275"><ele>310.0</ele><time>2026-04-19T11:30:27.056Z</time></trkpt><trkpt lat="44.843395" lon="7.990215"><ele>310.0</ele><time>2026-04-19T11:30:28.054Z</time></trkpt><trkpt lat="44.8434767" lon="7.9901233"><ele>310.0</ele><time>2026-04-19T11:30:29.112Z</time></trkpt><trkpt lat="44.84356" lon="7.9900333"><ele>307.6</ele><time>2026-04-19T11:30:30.055Z</time></trkpt><trkpt lat="44.8436267" lon="7.9899367"><ele>305.2</ele><time>2026-04-19T11:30:31.058Z</time></trkpt><trkpt lat="44.843685" lon="7.9898467"><ele>302.8</ele><time>2026-04-19T11:30:32.049Z</time></trkpt><trkpt lat="44.843745" lon="7.98976"><ele>300.4</ele><time>2026-04-19T11:30:33.052Z</time></trkpt><trkpt lat="44.8438133" lon="7.9896683"><ele>298.0</ele><time>2026-04-19T11:30:34.049Z</time></trkpt><trkpt lat="44.843895" lon="7.9895883"><ele>298.0</ele><time>2026-04-19T11:30:35.11Z</time></trkpt><trkpt lat="44.8439833" lon="7.98951"><ele>298.0</ele><time>2026-04-19T11:30:36.051Z</time></trkpt><trkpt lat="44.844075" lon="7.9894333"><ele>298.0</ele><time>2026-04-19T11:30:37.053Z</time></trkpt><trkpt lat="44.8441667" lon="7.9893617"><ele>298.0</ele><time>2026-04-19T11:30:38.054Z</time></trkpt><trkpt lat="44.8442517" lon="7.9893067"><ele>298.0</ele><time>2026-04-19T11:30:39.055Z</time></trkpt><trkpt lat="44.844355" lon="7.9892983"><ele>296.5</ele><time>2026-04-19T11:30:40.055Z</time></trkpt><trkpt lat="44.844475" lon="7.9893117"><ele>295.0</ele><time>2026-04-19T11:30:41.096Z</time></trkpt><trkpt lat="44.8446133" lon="7.9893217"><ele>293.5</ele><time>2026-04-19T11:30:42.054Z</time></trkpt><trkpt lat="44.8447483" lon="7.98932"><ele>292.0</ele><time>2026-04-19T11:30:43.048Z</time></trkpt><trkpt lat="44.844895" lon="7.9893133"><ele>292.0</ele><time>2026-04-19T11:30:44.051Z</time></trkpt><trkpt lat="44.8450417" lon="7.9893017"><ele>292.0</ele><time>2026-04-19T11:30:45.05Z</time></trkpt><trkpt lat="44.8451833" lon="7.9892783"><ele>292.0</ele><time>2026-04-19T11:30:46.058Z</time></trkpt><trkpt lat="44.8453083" lon="7.9892433"><ele>292.0</ele><time>2026-04-19T11:30:47.092Z</time></trkpt><trkpt lat="44.8454217" lon="7.9892067"><ele>290.0</ele><time>2026-04-19T11:30:48.05Z</time></trkpt><trkpt lat="44.8455233" lon="7.9891583"><ele>288.0</ele><time>2026-04-19T11:30:49.053Z</time></trkpt><trkpt lat="44.845635" lon="7.9890883"><ele>286.0</ele><time>2026-04-19T11:30:50.05Z</time></trkpt><trkpt lat="44.8457417" lon="7.9890167"><ele>284.0</ele><time>2026-04-19T11:30:51.053Z</time></trkpt><trkpt lat="44.8458583" lon="7.9889317"><ele>282.75</ele><time>2026-04-19T11:30:52.047Z</time></trkpt><trkpt lat="44.845975" lon="7.9888433"><ele>281.5</ele><time>2026-04-19T11:30:53.097Z</time></trkpt><trkpt lat="44.84609" lon="7.9887417"><ele>280.25</ele><time>2026-04-19T11:30:54.048Z</time></trkpt><trkpt lat="44.8462083" lon="7.988635"><ele>279.0</ele><time>2026-04-19T11:30:55.056Z</time></trkpt><trkpt lat="44.8463133" lon="7.988535"><ele>279.0</ele><time>2026-04-19T11:30:56.045Z</time></trkpt><trkpt lat="44.8464033" lon="7.9884417"><ele>279.0</ele><time>2026-04-19T11:30:57.053Z</time></trkpt><trkpt lat="44.8464717" lon="7.9883717"><ele>279.0</ele><time>2026-04-19T11:30:58.05Z</time></trkpt><trkpt lat="44.8465267" lon="7.9883183"><ele>279.0</ele><time>2026-04-19T11:30:59.109Z</time></trkpt><trkpt lat="44.8465883" lon="7.9884133"><ele>279.0</ele><time>2026-04-19T11:31:04.054Z</time></trkpt><trkpt lat="44.846635" lon="7.9885967"><ele>279.0</ele><time>2026-04-19T11:31:06.049Z</time></trkpt><trkpt lat="44.846675" lon="7.98871"><ele>279.0</ele><time>2026-04-19T11:31:07.052Z</time></trkpt><trkpt lat="44.8467217" lon="7.9888333"><ele>279.0</ele><time>2026-04-19T11:31:08.053Z</time></trkpt><trkpt lat="44.8467717" lon="7.9889683"><ele>279.0</ele><time>2026-04-19T11:31:09.054Z</time></trkpt><trkpt lat="44.84682" lon="7.989115"><ele>279.0</ele><time>2026-04-19T11:31:10.053Z</time></trkpt><trkpt lat="44.846865" lon="7.98926"><ele>283.4</ele><time>2026-04-19T11:31:11.094Z</time></trkpt><trkpt lat="44.8469117" lon="7.9894017"><ele>287.79999999999995</ele><time>2026-04-19T11:31:12.055Z</time></trkpt><trkpt lat="44.846955" lon="7.989535"><ele>292.20000000000005</ele><time>2026-04-19T11:31:13.053Z</time></trkpt><trkpt lat="44.847" lon="7.9896583"><ele>296.6</ele><time>2026-04-19T11:31:14.045Z</time></trkpt><trkpt lat="44.8470467" lon="7.9897617"><ele>301.0</ele><time>2026-04-19T11:31:15.046Z</time></trkpt><trkpt lat="44.8471017" lon="7.9898583"><ele>301.0</ele><time>2026-04-19T11:31:16.051Z</time></trkpt><trkpt lat="44.8471567" lon="7.989915"><ele>301.0</ele><time>2026-04-19T11:31:17.096Z</time></trkpt><trkpt lat="44.8472317" lon="7.9898283"><ele>301.0</ele><time>2026-04-19T11:31:19.053Z</time></trkpt><trkpt lat="44.847235" lon="7.9896967"><ele>301.0</ele><time>2026-04-19T11:31:20.052Z</time></trkpt><trkpt lat="44.8472133" lon="7.989485"><ele>301.0</ele><time>2026-04-19T11:31:21.056Z</time></trkpt><trkpt lat="44.8472183" lon="7.9893367"><ele>301.0</ele><time>2026-04-19T11:31:22.053Z</time></trkpt><trkpt lat="44.847225" lon="7.9892083"><ele>301.0</ele><time>2026-04-19T11:31:23.092Z</time></trkpt><trkpt lat="44.847245" lon="7.9890967"><ele>301.0</ele><time>2026-04-19T11:31:24.049Z</time></trkpt><trkpt lat="44.8472717" lon="7.9890083"><ele>301.0</ele><time>2026-04-19T11:31:25.057Z</time></trkpt><trkpt lat="44.847355" lon="7.9890267"><ele>301.0</ele><time>2026-04-19T11:31:26.05Z</time></trkpt><trkpt lat="44.847465" lon="7.9890717"><ele>301.0</ele><time>2026-04-19T11:31:28.051Z</time></trkpt><trkpt lat="44.8474717" lon="7.9891867"><ele>301.0</ele><time>2026-04-19T11:31:30.05Z</time></trkpt><trkpt lat="44.84742" lon="7.989375"><ele>301.0</ele><time>2026-04-19T11:31:32.05Z</time></trkpt><trkpt lat="44.8474033" lon="7.9894983"><ele>301.0</ele><time>2026-04-19T11:31:33.052Z</time></trkpt><trkpt lat="44.8474117" lon="7.9896367"><ele>301.0</ele><time>2026-04-19T11:31:34.059Z</time></trkpt><trkpt lat="44.8474317" lon="7.989735"><ele>301.0</ele><time>2026-04-19T11:31:35.109Z</time></trkpt><trkpt lat="44.8475117" lon="7.9898167"><ele>301.0</ele><time>2026-04-19T11:31:37.049Z</time></trkpt><trkpt lat="44.8475933" lon="7.9897733"><ele>301.0</ele><time>2026-04-19T11:31:39.053Z</time></trkpt><trkpt lat="44.8476433" lon="7.9897017"><ele>301.0</ele><time>2026-04-19T11:31:40.047Z</time></trkpt><trkpt lat="44.847705" lon="7.9896183"><ele>301.0</ele><time>2026-04-19T11:31:41.096Z</time></trkpt><trkpt lat="44.8477783" lon="7.9895233"><ele>301.0</ele><time>2026-04-19T11:31:42.045Z</time></trkpt><trkpt lat="44.8478683" lon="7.9894217"><ele>303.5</ele><time>2026-04-19T11:31:43.05Z</time></trkpt><trkpt lat="44.8479517" lon="7.9893167"><ele>306.0</ele><time>2026-04-19T11:31:44.049Z</time></trkpt><trkpt lat="44.848025" lon="7.9892283"><ele>308.5</ele><time>2026-04-19T11:31:45.052Z</time></trkpt><trkpt lat="44.8480983" lon="7.9892033"><ele>311.0</ele><time>2026-04-19T11:31:47.095Z</time></trkpt><trkpt lat="44.8480833" lon="7.9893117"><ele>313.5</ele><time>2026-04-19T11:31:49.052Z</time></trkpt><trkpt lat="44.84805" lon="7.9893967"><ele>316.0</ele><time>2026-04-19T11:31:50.049Z</time></trkpt><trkpt lat="44.848" lon="7.989495"><ele>316.0</ele><time>2026-04-19T11:31:51.055Z</time></trkpt><trkpt lat="44.847965" lon="7.9895917"><ele>316.0</ele><time>2026-04-19T11:31:52.053Z</time></trkpt><trkpt lat="44.8479583" lon="7.9896933"><ele>316.0</ele><time>2026-04-19T11:31:53.092Z</time></trkpt><trkpt lat="44.8479683" lon="7.9898167"><ele>316.0</ele><time>2026-04-19T11:31:54.052Z</time></trkpt><trkpt lat="44.847995" lon="7.9899633"><ele>316.0</ele><time>2026-04-19T11:31:55.054Z</time></trkpt><trkpt lat="44.848025" lon="7.99011"><ele>318.0</ele><time>2026-04-19T11:31:56.054Z</time></trkpt><trkpt lat="44.8480483" lon="7.990245"><ele>320.0</ele><time>2026-04-19T11:31:57.053Z</time></trkpt><trkpt lat="44.8480583" lon="7.9903717"><ele>322.0</ele><time>2026-04-19T11:31:58.053Z</time></trkpt><trkpt lat="44.8480733" lon="7.990495"><ele>324.0</ele><time>2026-04-19T11:31:59.122Z</time></trkpt><trkpt lat="44.8480883" lon="7.99062"><ele>326.0</ele><time>2026-04-19T11:32:00.052Z</time></trkpt><trkpt lat="44.8481083" lon="7.99075"><ele>326.0</ele><time>2026-04-19T11:32:01.048Z</time></trkpt><trkpt lat="44.8481317" lon="7.9908967"><ele>326.0</ele><time>2026-04-19T11:32:02.054Z</time></trkpt><trkpt lat="44.8481567" lon="7.991045"><ele>326.0</ele><time>2026-04-19T11:32:03.054Z</time></trkpt><trkpt lat="44.8481783" lon="7.9911817"><ele>326.0</ele><time>2026-04-19T11:32:04.057Z</time></trkpt><trkpt lat="44.8481967" lon="7.9913233"><ele>326.0</ele><time>2026-04-19T11:32:05.115Z</time></trkpt><trkpt lat="44.8482033" lon="7.9914417"><ele>326.0</ele><time>2026-04-19T11:32:06.055Z</time></trkpt><trkpt lat="44.8481983" lon="7.991555"><ele>326.0</ele><time>2026-04-19T11:32:07.057Z</time></trkpt><trkpt lat="44.8481717" lon="7.9916533"><ele>326.0</ele><time>2026-04-19T11:32:08.047Z</time></trkpt><trkpt lat="44.8481433" lon="7.9917533"><ele>326.0</ele><time>2026-04-19T11:32:09.051Z</time></trkpt><trkpt lat="44.8481117" lon="7.99186"><ele>326.0</ele><time>2026-04-19T11:32:10.053Z</time></trkpt><trkpt lat="44.8480817" lon="7.991955"><ele>326.0</ele><time>2026-04-19T11:32:11.094Z</time></trkpt><trkpt lat="44.8480483" lon="7.9920667"><ele>324.6666666666667</ele><time>2026-04-19T11:32:12.049Z</time></trkpt><trkpt lat="44.8480233" lon="7.99217"><ele>323.33333333333337</ele><time>2026-04-19T11:32:13.057Z</time></trkpt><trkpt lat="44.8480083" lon="7.9922783"><ele>322.0</ele><time>2026-04-19T11:32:14.05Z</time></trkpt><trkpt lat="44.8480183" lon="7.9923667"><ele>320.6666666666667</ele><time>2026-04-19T11:32:15.055Z</time></trkpt><trkpt lat="44.8480467" lon="7.992465"><ele>319.3333333333333</ele><time>2026-04-19T11:32:16.052Z</time></trkpt><trkpt lat="44.84808" lon="7.9925783"><ele>318.0</ele><time>2026-04-19T11:32:17.093Z</time></trkpt><trkpt lat="44.84812" lon="7.9926883"><ele>317.5</ele><time>2026-04-19T11:32:18.047Z</time></trkpt><trkpt lat="44.848155" lon="7.99279"><ele>317.0</ele><time>2026-04-19T11:32:19.055Z</time></trkpt><trkpt lat="44.8481917" lon="7.99288"><ele>316.5</ele><time>2026-04-19T11:32:20.051Z</time></trkpt><trkpt lat="44.8482833" lon="7.9928917"><ele>316.0</ele><time>2026-04-19T11:32:40.053Z</time></trkpt><trkpt lat="44.8483167" lon="7.9928033"><ele>315.5</ele><time>2026-04-19T11:32:42.049Z</time></trkpt><trkpt lat="44.8483183" lon="7.9927"><ele>315.0</ele><time>2026-04-19T11:32:44.055Z</time></trkpt><trkpt lat="44.848305" lon="7.9925817"><ele>315.5</ele><time>2026-04-19T11:32:46.055Z</time></trkpt><trkpt lat="44.848285" lon="7.9924867"><ele>316.0</ele><time>2026-04-19T11:32:48.05Z</time></trkpt><trkpt lat="44.84834" lon="7.9923667"><ele>316.5</ele><time>2026-04-19T11:32:51.051Z</time></trkpt><trkpt lat="44.8483917" lon="7.99231"><ele>317.0</ele><time>2026-04-19T11:32:53.097Z</time></trkpt><trkpt lat="44.8484567" lon="7.9922717"><ele>317.5</ele><time>2026-04-19T11:32:55.056Z</time></trkpt><trkpt lat="44.84854" lon="7.9922233"><ele>318.0</ele><time>2026-04-19T11:32:57.051Z</time></trkpt><trkpt lat="44.8486383" lon="7.9921967"><ele>313.1666666666667</ele><time>2026-04-19T11:32:59.087Z</time></trkpt><trkpt lat="44.8487533" lon="7.992225"><ele>308.3333333333333</ele><time>2026-04-19T11:33:01.055Z</time></trkpt><trkpt lat="44.8488167" lon="7.992245"><ele>303.5</ele><time>2026-04-19T11:33:02.051Z</time></trkpt><trkpt lat="44.8489117" lon="7.9922533"><ele>298.66666666666663</ele><time>2026-04-19T11:33:04.053Z</time></trkpt><trkpt lat="44.8490033" lon="7.9922517"><ele>293.8333333333333</ele><time>2026-04-19T11:33:06.05Z</time></trkpt><trkpt lat="44.8490733" lon="7.99229"><ele>289.0</ele><time>2026-04-19T11:33:09.05Z</time></trkpt><trkpt lat="44.8491133" lon="7.992365"><ele>289.0</ele><time>2026-04-19T11:33:12.049Z</time></trkpt><trkpt lat="44.849175" lon="7.9924233"><ele>289.0</ele><time>2026-04-19T11:33:14.053Z</time></trkpt><trkpt lat="44.8492417" lon="7.9924783"><ele>289.0</ele><time>2026-04-19T11:33:17.09Z</time></trkpt><trkpt lat="44.849335" lon="7.9925283"><ele>289.0</ele><time>2026-04-19T11:33:20.054Z</time></trkpt><trkpt lat="44.8494267" lon="7.992565"><ele>289.0</ele><time>2026-04-19T11:33:22.055Z</time></trkpt><trkpt lat="44.8495233" lon="7.9926067"><ele>289.0</ele><time>2026-04-19T11:33:24.05Z</time></trkpt><trkpt lat="44.8495917" lon="7.992635"><ele>289.16666666666663</ele><time>2026-04-19T11:33:25.054Z</time></trkpt><trkpt lat="44.849695" lon="7.9926583"><ele>289.3333333333333</ele><time>2026-04-19T11:33:27.056Z</time></trkpt><trkpt lat="44.8497683" lon="7.99265"><ele>289.5</ele><time>2026-04-19T11:33:29.117Z</time></trkpt><trkpt lat="44.8498433" lon="7.9926267"><ele>289.6666666666667</ele><time>2026-04-19T11:33:31.052Z</time></trkpt><trkpt lat="44.8499383" lon="7.9926583"><ele>289.83333333333337</ele><time>2026-04-19T11:33:33.05Z</time></trkpt><trkpt lat="44.850015" lon="7.992695"><ele>290.0</ele><time>2026-04-19T11:33:35.111Z</time></trkpt><trkpt lat="44.8500983" lon="7.99267"><ele>290.0</ele><time>2026-04-19T11:33:38.049Z</time></trkpt><trkpt lat="44.8502083" lon="7.992765"><ele>290.0</ele><time>2026-04-19T11:34:18.052Z</time></trkpt><trkpt lat="44.8501117" lon="7.9927483"><ele>290.0</ele><time>2026-04-19T11:38:28.048Z</time></trkpt><trkpt lat="44.850155" lon="7.9926367"><ele>290.0</ele><time>2026-04-19T11:47:36.042Z</time></trkpt><trkpt lat="44.8502267" lon="7.9926617"><ele>290.0</ele><time>2026-04-19T11:48:02.059Z</time></trkpt><trkpt lat="44.8502917" lon="7.9926783"><ele>288.2</ele><time>2026-04-19T11:48:05.103Z</time></trkpt><trkpt lat="44.8503683" lon="7.9927067"><ele>286.4</ele><time>2026-04-19T11:48:07.047Z</time></trkpt><trkpt lat="44.8504483" lon="7.9927517"><ele>284.6</ele><time>2026-04-19T11:48:09.054Z</time></trkpt><trkpt lat="44.85055" lon="7.992805"><ele>282.8</ele><time>2026-04-19T11:48:11.093Z</time></trkpt><trkpt lat="44.8506617" lon="7.9928817"><ele>281.0</ele><time>2026-04-19T11:48:13.054Z</time></trkpt><trkpt lat="44.85073" lon="7.992905"><ele>281.0</ele><time>2026-04-19T11:48:14.052Z</time></trkpt><trkpt lat="44.85082" lon="7.9929333"><ele>281.0</ele><time>2026-04-19T11:48:15.046Z</time></trkpt><trkpt lat="44.8509117" lon="7.99296"><ele>281.0</ele><time>2026-04-19T11:48:16.052Z</time></trkpt><trkpt lat="44.85099" lon="7.9929933"><ele>281.0</ele><time>2026-04-19T11:48:17.101Z</time></trkpt><trkpt lat="44.8511117" lon="7.9930317"><ele>281.0</ele><time>2026-04-19T11:48:18.043Z</time></trkpt><trkpt lat="44.8512" lon="7.9930683"><ele>279.0</ele><time>2026-04-19T11:48:19.062Z</time></trkpt><trkpt lat="44.8512983" lon="7.9930917"><ele>277.0</ele><time>2026-04-19T11:48:20.055Z</time></trkpt><trkpt lat="44.8513817" lon="7.9931283"><ele>275.0</ele><time>2026-04-19T11:48:21.043Z</time></trkpt><trkpt lat="44.851465" lon="7.9931733"><ele>273.0</ele><time>2026-04-19T11:48:22.046Z</time></trkpt><trkpt lat="44.8515567" lon="7.9932133"><ele>271.0</ele><time>2026-04-19T11:48:23.102Z</time></trkpt><trkpt lat="44.8516367" lon="7.993245"><ele>271.0</ele><time>2026-04-19T11:48:24.044Z</time></trkpt><trkpt lat="44.8517017" lon="7.9932733"><ele>271.0</ele><time>2026-04-19T11:48:25.049Z</time></trkpt><trkpt lat="44.8517633" lon="7.9932917"><ele>271.0</ele><time>2026-04-19T11:48:26.049Z</time></trkpt><trkpt lat="44.8518467" lon="7.9933833"><ele>271.0</ele><time>2026-04-19T11:48:28.052Z</time></trkpt><trkpt lat="44.8519117" lon="7.9935333"><ele>271.0</ele><time>2026-04-19T11:48:30.048Z</time></trkpt><trkpt lat="44.8519417" lon="7.99363"><ele>271.0</ele><time>2026-04-19T11:48:31.058Z</time></trkpt><trkpt lat="44.8519667" lon="7.9937183"><ele>271.8</ele><time>2026-04-19T11:48:32.052Z</time></trkpt><trkpt lat="44.852035" lon="7.993865"><ele>272.6</ele><time>2026-04-19T11:48:34.044Z</time></trkpt><trkpt lat="44.85211" lon="7.9939833"><ele>273.4</ele><time>2026-04-19T11:48:36.043Z</time></trkpt><trkpt lat="44.8521967" lon="7.9940733"><ele>274.2</ele><time>2026-04-19T11:48:38.051Z</time></trkpt><trkpt lat="44.8522667" lon="7.9941567"><ele>275.0</ele><time>2026-04-19T11:48:40.054Z</time></trkpt><trkpt lat="44.852335" lon="7.99421"><ele>275.0</ele><time>2026-04-19T11:48:42.051Z</time></trkpt><trkpt lat="44.852415" lon="7.994235"><ele>275.0</ele><time>2026-04-19T11:48:44.054Z</time></trkpt><trkpt lat="44.8525167" lon="7.99428"><ele>275.0</ele><time>2026-04-19T11:48:46.053Z</time></trkpt><trkpt lat="44.8525817" lon="7.9943333"><ele>275.0</ele><time>2026-04-19T11:48:47.098Z</time></trkpt><trkpt lat="44.8526533" lon="7.9943917"><ele>275.0</ele><time>2026-04-19T11:48:48.049Z</time></trkpt><trkpt lat="44.8527133" lon="7.9944317"><ele>275.0</ele><time>2026-04-19T11:48:49.048Z</time></trkpt><trkpt lat="44.8527667" lon="7.9944933"><ele>272.83333333333337</ele><time>2026-04-19T11:48:50.047Z</time></trkpt><trkpt lat="44.8528233" lon="7.994555"><ele>270.6666666666667</ele><time>2026-04-19T11:48:51.055Z</time></trkpt><trkpt lat="44.852875" lon="7.994615"><ele>268.5</ele><time>2026-04-19T11:48:52.05Z</time></trkpt><trkpt lat="44.852935" lon="7.9946767"><ele>266.3333333333333</ele><time>2026-04-19T11:48:53.108Z</time></trkpt><trkpt lat="44.8530083" lon="7.9947333"><ele>264.16666666666663</ele><time>2026-04-19T11:48:54.052Z</time></trkpt><trkpt lat="44.8530817" lon="7.9947967"><ele>262.0</ele><time>2026-04-19T11:48:55.057Z</time></trkpt><trkpt lat="44.8531433" lon="7.9948567"><ele>262.0</ele><time>2026-04-19T11:48:56.056Z</time></trkpt><trkpt lat="44.8532333" lon="7.9949767"><ele>262.0</ele><time>2026-04-19T11:48:58.052Z</time></trkpt><trkpt lat="44.853285" lon="7.9951217"><ele>262.0</ele><time>2026-04-19T11:49:00.049Z</time></trkpt><trkpt lat="44.8533183" lon="7.99521"><ele>262.0</ele><time>2026-04-19T11:49:01.048Z</time></trkpt><trkpt lat="44.8533333" lon="7.9953033"><ele>262.0</ele><time>2026-04-19T11:49:02.048Z</time></trkpt><trkpt lat="44.8533483" lon="7.9953983"><ele>262.0</ele><time>2026-04-19T11:49:03.05Z</time></trkpt><trkpt lat="44.8533717" lon="7.99556"><ele>262.4</ele><time>2026-04-19T11:49:05.107Z</time></trkpt><trkpt lat="44.8534283" lon="7.9957267"><ele>262.79999999999995</ele><time>2026-04-19T11:49:07.05Z</time></trkpt><trkpt lat="44.8534667" lon="7.9958183"><ele>263.2</ele><time>2026-04-19T11:49:08.051Z</time></trkpt><trkpt lat="44.853515" lon="7.9959083"><ele>263.59999999999997</ele><time>2026-04-19T11:49:09.048Z</time></trkpt><trkpt lat="44.8535683" lon="7.9959983"><ele>264.0</ele><time>2026-04-19T11:49:10.058Z</time></trkpt><trkpt lat="44.85362" lon="7.99609"><ele>262.6666666666667</ele><time>2026-04-19T11:49:11.094Z</time></trkpt><trkpt lat="44.8536667" lon="7.9961833"><ele>261.3333333333333</ele><time>2026-04-19T11:49:12.046Z</time></trkpt><trkpt lat="44.8537167" lon="7.9962867"><ele>260.0</ele><time>2026-04-19T11:49:13.046Z</time></trkpt><trkpt lat="44.853765" lon="7.9963883"><ele>258.66666666666663</ele><time>2026-04-19T11:49:14.053Z</time></trkpt><trkpt lat="44.853795" lon="7.9965"><ele>257.3333333333333</ele><time>2026-04-19T11:49:15.05Z</time></trkpt><trkpt lat="44.8538283" lon="7.996625"><ele>256.0</ele><time>2026-04-19T11:49:16.05Z</time></trkpt><trkpt lat="44.8538583" lon="7.996745"><ele>255.66666666666666</ele><time>2026-04-19T11:49:17.093Z</time></trkpt><trkpt lat="44.85389" lon="7.9968433"><ele>255.33333333333331</ele><time>2026-04-19T11:49:18.046Z</time></trkpt><trkpt lat="44.853915" lon="7.9969317"><ele>255.0</ele><time>2026-04-19T11:49:19.052Z</time></trkpt><trkpt lat="44.853945" lon="7.9970717"><ele>254.66666666666669</ele><time>2026-04-19T11:49:21.053Z</time></trkpt><trkpt lat="44.853995" lon="7.9971417"><ele>254.33333333333334</ele><time>2026-04-19T11:49:24.042Z</time></trkpt><trkpt lat="44.8540617" lon="7.9972117"><ele>254.0</ele><time>2026-04-19T11:49:41.097Z</time></trkpt><trkpt lat="44.854135" lon="7.9973083"><ele>254.0</ele><time>2026-04-19T11:49:44.045Z</time></trkpt><trkpt lat="44.854195" lon="7.997345"><ele>253.99999999999997</ele><time>2026-04-19T11:49:45.049Z</time></trkpt><trkpt lat="44.8542617" lon="7.9973983"><ele>253.99999999999997</ele><time>2026-04-19T11:49:46.055Z</time></trkpt><trkpt lat="44.854315" lon="7.9974683"><ele>254.0</ele><time>2026-04-19T11:49:47.092Z</time></trkpt><trkpt lat="44.8544267" lon="7.9975333"><ele>254.0</ele><time>2026-04-19T11:49:48.054Z</time></trkpt><trkpt lat="44.854555" lon="7.997595"><ele>254.79999999999998</ele><time>2026-04-19T11:49:49.048Z</time></trkpt><trkpt lat="44.8546867" lon="7.9976617"><ele>255.59999999999997</ele><time>2026-04-19T11:49:50.049Z</time></trkpt><trkpt lat="44.8547867" lon="7.9977033"><ele>256.4</ele><time>2026-04-19T11:49:51.051Z</time></trkpt><trkpt lat="44.8548883" lon="7.9977417"><ele>257.2</ele><time>2026-04-19T11:49:52.05Z</time></trkpt><trkpt lat="44.8549683" lon="7.997795"><ele>258.0</ele><time>2026-04-19T11:49:53.096Z</time></trkpt><trkpt lat="44.8550567" lon="7.997825"><ele>256.8</ele><time>2026-04-19T11:49:54.05Z</time></trkpt><trkpt lat="44.8551583" lon="7.99786"><ele>255.60000000000002</ele><time>2026-04-19T11:49:55.053Z</time></trkpt><trkpt lat="44.85526" lon="7.9978933"><ele>254.39999999999998</ele><time>2026-04-19T11:49:56.055Z</time></trkpt><trkpt lat="44.85534" lon="7.9979483"><ele>253.2</ele><time>2026-04-19T11:49:57.048Z</time></trkpt><trkpt lat="44.85541" lon="7.9980117"><ele>252.0</ele><time>2026-04-19T11:49:58.051Z</time></trkpt><trkpt lat="44.8554833" lon="7.9981017"><ele>252.0</ele><time>2026-04-19T11:49:59.113Z</time></trkpt><trkpt lat="44.8555483" lon="7.998175"><ele>252.0</ele><time>2026-04-19T11:50:00.049Z</time></trkpt><trkpt lat="44.8556067" lon="7.9982267"><ele>252.0</ele><time>2026-04-19T11:50:01.051Z</time></trkpt><trkpt lat="44.85566" lon="7.9982783"><ele>252.0</ele><time>2026-04-19T11:50:02.046Z</time></trkpt><trkpt lat="44.855705" lon="7.998345"><ele>252.0</ele><time>2026-04-19T11:50:03.056Z</time></trkpt><trkpt lat="44.85573" lon="7.99843"><ele>252.0</ele><time>2026-04-19T11:50:05.112Z</time></trkpt><trkpt lat="44.8557067" lon="7.9985433"><ele>252.0</ele><time>2026-04-19T11:50:08.049Z</time></trkpt><trkpt lat="44.8556517" lon="7.998665"><ele>253.2</ele><time>2026-04-19T11:50:10.055Z</time></trkpt><trkpt lat="44.8555917" lon="7.9988283"><ele>254.39999999999998</ele><time>2026-04-19T11:50:12.044Z</time></trkpt><trkpt lat="44.85556" lon="7.998915"><ele>255.60000000000002</ele><time>2026-04-19T11:50:13.049Z</time></trkpt><trkpt lat="44.8555167" lon="7.9990683"><ele>256.8</ele><time>2026-04-19T11:50:15.052Z</time></trkpt><trkpt lat="44.8554783" lon="7.9991917"><ele>258.0</ele><time>2026-04-19T11:50:17.096Z</time></trkpt><trkpt lat="44.8554333" lon="7.9993433"><ele>261.0</ele><time>2026-04-19T11:50:19.053Z</time></trkpt><trkpt lat="44.8554017" lon="7.999425"><ele>264.0</ele><time>2026-04-19T11:50:20.051Z</time></trkpt><trkpt lat="44.855345" lon="7.9995917"><ele>267.0</ele><time>2026-04-19T11:50:22.044Z</time></trkpt><trkpt lat="44.8553217" lon="7.9997533"><ele>270.0</ele><time>2026-04-19T11:50:24.044Z</time></trkpt><trkpt lat="44.8553167" lon="7.9998717"><ele>273.0</ele><time>2026-04-19T11:50:26.053Z</time></trkpt><trkpt lat="44.8552817" lon="7.9999667"><ele>273.0</ele><time>2026-04-19T11:50:31.052Z</time></trkpt><trkpt lat="44.8552333" lon="7.999785"><ele>273.0</ele><time>2026-04-19T11:51:18.05Z</time></trkpt><trkpt lat="44.8552183" lon="7.9996583"><ele>273.0</ele><time>2026-04-19T11:51:22.046Z</time></trkpt><trkpt lat="44.85517" lon="7.999565"><ele>273.0</ele><time>2026-04-19T11:51:24.05Z</time></trkpt><trkpt lat="44.85513" lon="7.9994517"><ele>273.0</ele><time>2026-04-19T11:51:27.051Z</time></trkpt><trkpt lat="44.8550267" lon="7.9993183"><ele>273.0</ele><time>2026-04-19T11:51:42.044Z</time></trkpt><trkpt lat="44.854955" lon="7.9992917"><ele>273.0</ele><time>2026-04-19T11:51:45.057Z</time></trkpt><trkpt lat="44.8549267" lon="7.99905"><ele>273.0</ele><time>2026-04-19T11:52:44.05Z</time></trkpt><trkpt lat="44.8549133" lon="7.9989"><ele>273.0</ele><time>2026-04-19T11:53:30.048Z</time></trkpt><trkpt lat="44.8549" lon="7.9987783"><ele>273.0</ele><time>2026-04-19T11:54:39.045Z</time></trkpt><trkpt lat="44.8549083" lon="7.99899"><ele>273.0</ele><time>2026-04-19T11:55:15.043Z</time></trkpt><trkpt lat="44.8548867" lon="7.9991033"><ele>273.0</ele><time>2026-04-19T11:57:01.042Z</time></trkpt><trkpt lat="44.854905" lon="7.99919"><ele>273.0</ele><time>2026-04-19T11:57:08.049Z</time></trkpt><trkpt lat="44.855" lon="7.9992117"><ele>273.0</ele><time>2026-04-19T11:58:48.046Z</time></trkpt><trkpt lat="44.8550183" lon="7.9992983"><ele>273.0</ele><time>2026-04-19T11:58:52.054Z</time></trkpt><trkpt lat="44.8550583" lon="7.9994217"><ele>273.0</ele><time>2026-04-19T11:58:57.043Z</time></trkpt><trkpt lat="44.8550883" lon="7.99953"><ele>273.0</ele><time>2026-04-19T11:58:59.109Z</time></trkpt><trkpt lat="44.8551167" lon="7.9996267"><ele>273.0</ele><time>2026-04-19T11:59:01.05Z</time></trkpt><trkpt lat="44.8551517" lon="7.99972"><ele>273.0</ele><time>2026-04-19T11:59:04.047Z</time></trkpt><trkpt lat="44.8551683" lon="7.9998333"><ele>273.0</ele><time>2026-04-19T11:59:19.051Z</time></trkpt><trkpt lat="44.855245" lon="7.9998283"><ele>273.0</ele><time>2026-04-19T12:00:14.044Z</time></trkpt><trkpt lat="44.8552783" lon="7.99973"><ele>273.0</ele><time>2026-04-19T12:00:17.05Z</time></trkpt><trkpt lat="44.8553133" lon="7.99965"><ele>273.0</ele><time>2026-04-19T12:00:19.054Z</time></trkpt><trkpt lat="44.8553483" lon="7.9995667"><ele>273.0</ele><time>2026-04-19T12:00:22.047Z</time></trkpt><trkpt lat="44.85539" lon="7.999455"><ele>273.0</ele><time>2026-04-19T12:00:25.047Z</time></trkpt><trkpt lat="44.8554283" lon="7.9993733"><ele>273.0</ele><time>2026-04-19T12:00:27.046Z</time></trkpt><trkpt lat="44.8554767" lon="7.9992933"><ele>273.0</ele><time>2026-04-19T12:00:29.088Z</time></trkpt><trkpt lat="44.8555417" lon="7.9992033"><ele>273.0</ele><time>2026-04-19T12:00:31.044Z</time></trkpt><trkpt lat="44.8555817" lon="7.9990967"><ele>270.5</ele><time>2026-04-19T12:00:33.048Z</time></trkpt><trkpt lat="44.8556167" lon="7.9989933"><ele>268.0</ele><time>2026-04-19T12:00:35.109Z</time></trkpt><trkpt lat="44.8556517" lon="7.9988633"><ele>265.5</ele><time>2026-04-19T12:00:37.054Z</time></trkpt><trkpt lat="44.85569" lon="7.99874"><ele>263.0</ele><time>2026-04-19T12:00:39.051Z</time></trkpt><trkpt lat="44.855715" lon="7.9986517"><ele>260.5</ele><time>2026-04-19T12:00:41.049Z</time></trkpt><trkpt lat="44.85571" lon="7.99856"><ele>258.0</ele><time>2026-04-19T12:00:44.05Z</time></trkpt><trkpt lat="44.8556667" lon="7.99847"><ele>258.0</ele><time>2026-04-19T12:00:54.045Z</time></trkpt><trkpt lat="44.855605" lon="7.99838"><ele>258.0</ele><time>2026-04-19T12:00:56.045Z</time></trkpt><trkpt lat="44.8555483" lon="7.99828"><ele>258.0</ele><time>2026-04-19T12:00:58.045Z</time></trkpt><trkpt lat="44.85546" lon="7.9982233"><ele>258.0</ele><time>2026-04-19T12:01:00.044Z</time></trkpt><trkpt lat="44.8553483" lon="7.9981867"><ele>258.0</ele><time>2026-04-19T12:01:02.046Z</time></trkpt><trkpt lat="44.85523" lon="7.9981383"><ele>258.0</ele><time>2026-04-19T12:01:04.043Z</time></trkpt><trkpt lat="44.8551683" lon="7.998115"><ele>258.0</ele><time>2026-04-19T12:01:05.106Z</time></trkpt><trkpt lat="44.8550517" lon="7.99808"><ele>258.0</ele><time>2026-04-19T12:01:07.043Z</time></trkpt><trkpt lat="44.8549283" lon="7.9980717"><ele>258.0</ele><time>2026-04-19T12:01:09.051Z</time></trkpt><trkpt lat="44.85482" lon="7.9980417"><ele>258.0</ele><time>2026-04-19T12:01:11.057Z</time></trkpt><trkpt lat="44.8547567" lon="7.99802"><ele>258.0</ele><time>2026-04-19T12:01:12.05Z</time></trkpt><trkpt lat="44.8546433" lon="7.997955"><ele>258.0</ele><time>2026-04-19T12:01:14.048Z</time></trkpt><trkpt lat="44.854585" lon="7.997905"><ele>258.0</ele><time>2026-04-19T12:01:15.046Z</time></trkpt><trkpt lat="44.8545317" lon="7.997845"><ele>258.0</ele><time>2026-04-19T12:01:16.052Z</time></trkpt><trkpt lat="44.8544767" lon="7.9977833"><ele>258.0</ele><time>2026-04-19T12:01:17.049Z</time></trkpt><trkpt lat="44.8543933" lon="7.9976733"><ele>258.0</ele><time>2026-04-19T12:01:19.049Z</time></trkpt><trkpt lat="44.85431" lon="7.9975817"><ele>257.3333333333333</ele><time>2026-04-19T12:01:21.049Z</time></trkpt><trkpt lat="44.85424" lon="7.9975133"><ele>256.6666666666667</ele><time>2026-04-19T12:01:23.046Z</time></trkpt><trkpt lat="44.8541583" lon="7.9974583"><ele>256.0</ele><time>2026-04-19T12:01:45.046Z</time></trkpt><trkpt lat="44.8540583" lon="7.9974533"><ele>255.33333333333334</ele><time>2026-04-19T12:01:54.049Z</time></trkpt><trkpt lat="44.85397" lon="7.997435"><ele>254.66666666666669</ele><time>2026-04-19T12:01:56.049Z</time></trkpt><trkpt lat="44.8539067" lon="7.9974267"><ele>254.0</ele><time>2026-04-19T12:01:57.047Z</time></trkpt><trkpt lat="44.8538417" lon="7.9974333"><ele>254.00000000000003</ele><time>2026-04-19T12:01:58.049Z</time></trkpt><trkpt lat="44.8537733" lon="7.99745"><ele>254.0</ele><time>2026-04-19T12:01:59.112Z</time></trkpt><trkpt lat="44.8537033" lon="7.99749"><ele>254.0</ele><time>2026-04-19T12:02:00.047Z</time></trkpt><trkpt lat="44.853625" lon="7.997545"><ele>254.0</ele><time>2026-04-19T12:02:01.05Z</time></trkpt><trkpt lat="44.8535433" lon="7.9976083"><ele>254.00000000000003</ele><time>2026-04-19T12:02:02.051Z</time></trkpt><trkpt lat="44.8534567" lon="7.9976717"><ele>254.0</ele><time>2026-04-19T12:02:03.048Z</time></trkpt><trkpt lat="44.85338" lon="7.9977283"><ele>258.59999999999997</ele><time>2026-04-19T12:02:04.052Z</time></trkpt><trkpt lat="44.85327" lon="7.997755"><ele>263.2</ele><time>2026-04-19T12:02:05.105Z</time></trkpt><trkpt lat="44.85316" lon="7.9977683"><ele>267.79999999999995</ele><time>2026-04-19T12:02:06.044Z</time></trkpt><trkpt lat="44.85306" lon="7.99778"><ele>272.4</ele><time>2026-04-19T12:02:07.05Z</time></trkpt><trkpt lat="44.8529583" lon="7.997775"><ele>277.0</ele><time>2026-04-19T12:02:08.048Z</time></trkpt><trkpt lat="44.8528583" lon="7.9978083"><ele>277.0</ele><time>2026-04-19T12:02:09.051Z</time></trkpt><trkpt lat="44.85278" lon="7.9978617"><ele>277.0</ele><time>2026-04-19T12:02:10.054Z</time></trkpt><trkpt lat="44.852735" lon="7.997935"><ele>277.0</ele><time>2026-04-19T12:02:11.054Z</time></trkpt><trkpt lat="44.85267" lon="7.998045"><ele>277.0</ele><time>2026-04-19T12:02:13.05Z</time></trkpt><trkpt lat="44.8526017" lon="7.9981733"><ele>277.0</ele><time>2026-04-19T12:02:15.049Z</time></trkpt><trkpt lat="44.852545" lon="7.99831"><ele>278.5</ele><time>2026-04-19T12:02:17.043Z</time></trkpt><trkpt lat="44.852525" lon="7.9983967"><ele>280.0</ele><time>2026-04-19T12:02:18.05Z</time></trkpt><trkpt lat="44.8525217" lon="7.9984883"><ele>281.5</ele><time>2026-04-19T12:02:19.058Z</time></trkpt><trkpt lat="44.8525167" lon="7.998585"><ele>283.0</ele><time>2026-04-19T12:02:20.053Z</time></trkpt><trkpt lat="44.85251" lon="7.9987633"><ele>284.5</ele><time>2026-04-19T12:02:22.052Z</time></trkpt><trkpt lat="44.85251" lon="7.9988583"><ele>286.0</ele><time>2026-04-19T12:02:23.049Z</time></trkpt><trkpt lat="44.8524967" lon="7.998975"><ele>286.0</ele><time>2026-04-19T12:02:24.054Z</time></trkpt><trkpt lat="44.852475" lon="7.9990967"><ele>286.0</ele><time>2026-04-19T12:02:25.047Z</time></trkpt><trkpt lat="44.8524633" lon="7.9992067"><ele>286.0</ele><time>2026-04-19T12:02:26.047Z</time></trkpt><trkpt lat="44.8524517" lon="7.999315"><ele>286.0</ele><time>2026-04-19T12:02:27.049Z</time></trkpt><trkpt lat="44.8524283" lon="7.9994"><ele>286.0</ele><time>2026-04-19T12:02:28.042Z</time></trkpt><trkpt lat="44.85241" lon="7.9995533"><ele>286.0</ele><time>2026-04-19T12:02:30.042Z</time></trkpt><trkpt lat="44.8524383" lon="7.999695"><ele>287.0</ele><time>2026-04-19T12:02:32.046Z</time></trkpt><trkpt lat="44.852475" lon="7.9998017"><ele>288.0</ele><time>2026-04-19T12:02:34.045Z</time></trkpt><trkpt lat="44.8524133" lon="7.9998467"><ele>289.0</ele><time>2026-04-19T12:02:37.042Z</time></trkpt><trkpt lat="44.852315" lon="7.9997767"><ele>290.0</ele><time>2026-04-19T12:02:39.047Z</time></trkpt><trkpt lat="44.852255" lon="7.9997317"><ele>291.0</ele><time>2026-04-19T12:02:41.047Z</time></trkpt><trkpt lat="44.852195" lon="7.99967"><ele>292.0</ele><time>2026-04-19T12:02:46.048Z</time></trkpt><trkpt lat="44.8521067" lon="7.9995517"><ele>292.0</ele><time>2026-04-19T12:02:48.055Z</time></trkpt><trkpt lat="44.8520467" lon="7.9994817"><ele>292.0</ele><time>2026-04-19T12:02:49.044Z</time></trkpt><trkpt lat="44.8519883" lon="7.99941"><ele>292.0</ele><time>2026-04-19T12:02:50.049Z</time></trkpt><trkpt lat="44.8519317" lon="7.9993317"><ele>292.0</ele><time>2026-04-19T12:02:51.047Z</time></trkpt><trkpt lat="44.8518783" lon="7.9992533"><ele>292.0</ele><time>2026-04-19T12:02:52.046Z</time></trkpt><trkpt lat="44.8518283" lon="7.9991767"><ele>292.0</ele><time>2026-04-19T12:02:53.042Z</time></trkpt><trkpt lat="44.85178" lon="7.9991"><ele>291.0</ele><time>2026-04-19T12:02:54.047Z</time></trkpt><trkpt lat="44.8517417" lon="7.999015"><ele>290.0</ele><time>2026-04-19T12:02:55.043Z</time></trkpt><trkpt lat="44.8517067" lon="7.9989283"><ele>289.0</ele><time>2026-04-19T12:02:56.047Z</time></trkpt><trkpt lat="44.851635" lon="7.9988117"><ele>288.0</ele><time>2026-04-19T12:02:58.051Z</time></trkpt><trkpt lat="44.8515067" lon="7.9987667"><ele>287.0</ele><time>2026-04-19T12:03:00.047Z</time></trkpt><trkpt lat="44.8514167" lon="7.99875"><ele>287.0</ele><time>2026-04-19T12:03:01.042Z</time></trkpt><trkpt lat="44.85132" lon="7.9987233"><ele>287.0</ele><time>2026-04-19T12:03:02.047Z</time></trkpt><trkpt lat="44.8512217" lon="7.99869"><ele>287.0</ele><time>2026-04-19T12:03:03.051Z</time></trkpt><trkpt lat="44.8511383" lon="7.9986517"><ele>287.0</ele><time>2026-04-19T12:03:04.049Z</time></trkpt><trkpt lat="44.85106" lon="7.9986117"><ele>287.0</ele><time>2026-04-19T12:03:05.107Z</time></trkpt><trkpt lat="44.8509867" lon="7.9985933"><ele>287.0</ele><time>2026-04-19T12:03:06.044Z</time></trkpt><trkpt lat="44.85085" lon="7.9986133"><ele>287.2</ele><time>2026-04-19T12:03:08.049Z</time></trkpt><trkpt lat="44.85077" lon="7.9986683"><ele>287.4</ele><time>2026-04-19T12:03:09.045Z</time></trkpt><trkpt lat="44.85071" lon="7.9987583"><ele>287.6</ele><time>2026-04-19T12:03:10.052Z</time></trkpt><trkpt lat="44.85065" lon="7.998865"><ele>287.8</ele><time>2026-04-19T12:03:11.041Z</time></trkpt><trkpt lat="44.8505933" lon="7.9989667"><ele>288.0</ele><time>2026-04-19T12:03:12.047Z</time></trkpt><trkpt lat="44.8505267" lon="7.9990817"><ele>285.0</ele><time>2026-04-19T12:03:13.053Z</time></trkpt><trkpt lat="44.85052" lon="7.9992733"><ele>282.0</ele><time>2026-04-19T12:03:14.05Z</time></trkpt><trkpt lat="44.8505017" lon="7.999455"><ele>279.0</ele><time>2026-04-19T12:03:15.054Z</time></trkpt><trkpt lat="44.8504883" lon="7.99962"><ele>276.0</ele><time>2026-04-19T12:03:16.054Z</time></trkpt><trkpt lat="44.8504783" lon="7.9997867"><ele>276.0</ele><time>2026-04-19T12:03:17.049Z</time></trkpt><trkpt lat="44.8504783" lon="7.999955"><ele>276.0</ele><time>2026-04-19T12:03:18.047Z</time></trkpt><trkpt lat="44.8504817" lon="8.0001267"><ele>276.0</ele><time>2026-04-19T12:03:19.044Z</time></trkpt><trkpt lat="44.8504867" lon="8.0002967"><ele>276.0</ele><time>2026-04-19T12:03:20.045Z</time></trkpt><trkpt lat="44.8504933" lon="8.000455"><ele>276.0</ele><time>2026-04-19T12:03:21.046Z</time></trkpt><trkpt lat="44.8505083" lon="8.0005883"><ele>276.0</ele><time>2026-04-19T12:03:22.049Z</time></trkpt><trkpt lat="44.8505167" lon="8.0007"><ele>276.0</ele><time>2026-04-19T12:03:23.047Z</time></trkpt><trkpt lat="44.8505267" lon="8.0008333"><ele>276.0</ele><time>2026-04-19T12:03:25.058Z</time></trkpt><trkpt lat="44.8505383" lon="8.0009783"><ele>276.0</ele><time>2026-04-19T12:03:27.053Z</time></trkpt><trkpt lat="44.8505333" lon="8.0010683"><ele>276.0</ele><time>2026-04-19T12:03:28.045Z</time></trkpt><trkpt lat="44.8505133" lon="8.0011633"><ele>275.2</ele><time>2026-04-19T12:03:29.113Z</time></trkpt><trkpt lat="44.8504533" lon="8.0012983"><ele>274.40000000000003</ele><time>2026-04-19T12:03:31.038Z</time></trkpt><trkpt lat="44.8503683" lon="8.0013367"><ele>273.6</ele><time>2026-04-19T12:03:33.044Z</time></trkpt><trkpt lat="44.8502567" lon="8.001205"><ele>272.8</ele><time>2026-04-19T12:03:35.104Z</time></trkpt><trkpt lat="44.850195" lon="8.0011033"><ele>272.0</ele><time>2026-04-19T12:03:36.041Z</time></trkpt><trkpt lat="44.8501317" lon="8.0010167"><ele>272.8</ele><time>2026-04-19T12:03:37.049Z</time></trkpt><trkpt lat="44.8500583" lon="8.000945"><ele>273.6</ele><time>2026-04-19T12:03:38.052Z</time></trkpt><trkpt lat="44.849985" lon="8.0009067"><ele>274.40000000000003</ele><time>2026-04-19T12:03:39.048Z</time></trkpt><trkpt lat="44.849895" lon="8.0009133"><ele>275.2</ele><time>2026-04-19T12:03:40.053Z</time></trkpt><trkpt lat="44.8497917" lon="8.0009333"><ele>276.0</ele><time>2026-04-19T12:03:41.047Z</time></trkpt><trkpt lat="44.84968" lon="8.0009533"><ele>276.0</ele><time>2026-04-19T12:03:42.046Z</time></trkpt><trkpt lat="44.8495683" lon="8.0009767"><ele>276.0</ele><time>2026-04-19T12:03:43.045Z</time></trkpt><trkpt lat="44.8494633" lon="8.00099"><ele>276.0</ele><time>2026-04-19T12:03:44.047Z</time></trkpt><trkpt lat="44.849355" lon="8.0009883"><ele>276.0</ele><time>2026-04-19T12:03:45.049Z</time></trkpt><trkpt lat="44.849255" lon="8.00097"><ele>276.0</ele><time>2026-04-19T12:03:46.052Z</time></trkpt><trkpt lat="44.8491667" lon="8.0009367"><ele>273.3333333333333</ele><time>2026-04-19T12:03:47.041Z</time></trkpt><trkpt lat="44.849075" lon="8.0009383"><ele>270.6666666666667</ele><time>2026-04-19T12:03:48.054Z</time></trkpt><trkpt lat="44.848995" lon="8.0009567"><ele>268.0</ele><time>2026-04-19T12:03:49.046Z</time></trkpt><trkpt lat="44.8489117" lon="8.0010033"><ele>265.33333333333337</ele><time>2026-04-19T12:03:50.049Z</time></trkpt><trkpt lat="44.8488483" lon="8.0010783"><ele>262.6666666666667</ele><time>2026-04-19T12:03:51.04Z</time></trkpt><trkpt lat="44.8488033" lon="8.0011833"><ele>260.0</ele><time>2026-04-19T12:03:52.041Z</time></trkpt><trkpt lat="44.8487783" lon="8.0013033"><ele>260.0</ele><time>2026-04-19T12:03:53.045Z</time></trkpt><trkpt lat="44.8488083" lon="8.001415"><ele>260.0</ele><time>2026-04-19T12:03:54.047Z</time></trkpt><trkpt lat="44.8488367" lon="8.0015117"><ele>260.0</ele><time>2026-04-19T12:03:55.041Z</time></trkpt><trkpt lat="44.8488783" lon="8.0015867"><ele>260.0</ele><time>2026-04-19T12:03:56.043Z</time></trkpt><trkpt lat="44.8489567" lon="8.0016367"><ele>260.0</ele><time>2026-04-19T12:03:57.056Z</time></trkpt><trkpt lat="44.8490467" lon="8.0016717"><ele>260.0</ele><time>2026-04-19T12:03:58.049Z</time></trkpt><trkpt lat="44.84915" lon="8.0016717"><ele>260.0</ele><time>2026-04-19T12:03:59.109Z</time></trkpt><trkpt lat="44.8492517" lon="8.001655"><ele>260.0</ele><time>2026-04-19T12:04:00.051Z</time></trkpt><trkpt lat="44.84934" lon="8.0016483"><ele>260.0</ele><time>2026-04-19T12:04:01.045Z</time></trkpt><trkpt lat="44.84942" lon="8.0016467"><ele>260.0</ele><time>2026-04-19T12:04:02.046Z</time></trkpt><trkpt lat="44.8494517" lon="8.00177"><ele>260.0</ele><time>2026-04-19T12:04:04.046Z</time></trkpt><trkpt lat="44.8494233" lon="8.001855"><ele>260.0</ele><time>2026-04-19T12:04:05.115Z</time></trkpt><trkpt lat="44.8493783" lon="8.0019317"><ele>259.5</ele><time>2026-04-19T12:04:06.046Z</time></trkpt><trkpt lat="44.8493117" lon="8.0020133"><ele>259.0</ele><time>2026-04-19T12:04:07.052Z</time></trkpt><trkpt lat="44.8492433" lon="8.002095"><ele>258.5</ele><time>2026-04-19T12:04:08.045Z</time></trkpt><trkpt lat="44.8491883" lon="8.0021817"><ele>258.0</ele><time>2026-04-19T12:04:09.046Z</time></trkpt><trkpt lat="44.8491517" lon="8.0022867"><ele>257.5</ele><time>2026-04-19T12:04:10.05Z</time></trkpt><trkpt lat="44.8491283" lon="8.0024217"><ele>257.0</ele><time>2026-04-19T12:04:11.046Z</time></trkpt><trkpt lat="44.8491183" lon="8.0025783"><ele>251.75</ele><time>2026-04-19T12:04:12.048Z</time></trkpt><trkpt lat="44.8491167" lon="8.0027567"><ele>246.5</ele><time>2026-04-19T12:04:13.042Z</time></trkpt><trkpt lat="44.8491067" lon="8.0029367"><ele>241.25</ele><time>2026-04-19T12:04:14.042Z</time></trkpt><trkpt lat="44.84909" lon="8.0031"><ele>236.0</ele><time>2026-04-19T12:04:15.047Z</time></trkpt><trkpt lat="44.849075" lon="8.0032317"><ele>236.33333333333334</ele><time>2026-04-19T12:04:16.051Z</time></trkpt><trkpt lat="44.8490567" lon="8.0033617"><ele>236.66666666666669</ele><time>2026-04-19T12:04:18.05Z</time></trkpt><trkpt lat="44.8490867" lon="8.0034717"><ele>237.0</ele><time>2026-04-19T12:04:25.048Z</time></trkpt><trkpt lat="44.8491533" lon="8.003515"><ele>237.33333333333331</ele><time>2026-04-19T12:04:26.041Z</time></trkpt><trkpt lat="44.8492367" lon="8.0035683"><ele>237.66666666666666</ele><time>2026-04-19T12:04:27.037Z</time></trkpt><trkpt lat="44.849335" lon="8.0036267"><ele>238.0</ele><time>2026-04-19T12:04:28.046Z</time></trkpt><trkpt lat="44.8494283" lon="8.0036867"><ele>237.2</ele><time>2026-04-19T12:04:29.114Z</time></trkpt><trkpt lat="44.8495133" lon="8.0037383"><ele>236.4</ele><time>2026-04-19T12:04:30.043Z</time></trkpt><trkpt lat="44.8495867" lon="8.00378"><ele>235.59999999999997</ele><time>2026-04-19T12:04:31.046Z</time></trkpt><trkpt lat="44.849685" lon="8.0038267"><ele>234.79999999999998</ele><time>2026-04-19T12:04:33.049Z</time></trkpt><trkpt lat="44.84979" lon="8.00388"><ele>234.0</ele><time>2026-04-19T12:04:35.109Z</time></trkpt><trkpt lat="44.849865" lon="8.0039133"><ele>234.0</ele><time>2026-04-19T12:04:36.047Z</time></trkpt><trkpt lat="44.8499467" lon="8.0039533"><ele>234.0</ele><time>2026-04-19T12:04:37.045Z</time></trkpt><trkpt lat="44.8500267" lon="8.00399"><ele>234.0</ele><time>2026-04-19T12:04:38.046Z</time></trkpt><trkpt lat="44.8501017" lon="8.004025"><ele>234.0</ele><time>2026-04-19T12:04:39.044Z</time></trkpt><trkpt lat="44.8501683" lon="8.0040583"><ele>234.0</ele><time>2026-04-19T12:04:40.056Z</time></trkpt><trkpt lat="44.8502467" lon="8.00415"><ele>234.0</ele><time>2026-04-19T12:04:42.042Z</time></trkpt><trkpt lat="44.8502167" lon="8.0042433"><ele>234.79999999999998</ele><time>2026-04-19T12:04:44.044Z</time></trkpt><trkpt lat="44.8501033" lon="8.0043267"><ele>235.59999999999997</ele><time>2026-04-19T12:04:46.049Z</time></trkpt><trkpt lat="44.8500333" lon="8.00437"><ele>236.4</ele><time>2026-04-19T12:04:47.053Z</time></trkpt><trkpt lat="44.8499533" lon="8.00442"><ele>237.2</ele><time>2026-04-19T12:04:48.046Z</time></trkpt><trkpt lat="44.8498683" lon="8.0044817"><ele>238.0</ele><time>2026-04-19T12:04:49.055Z</time></trkpt><trkpt lat="44.84978" lon="8.0045567"><ele>238.0</ele><time>2026-04-19T12:04:50.048Z</time></trkpt><trkpt lat="44.8496817" lon="8.004645"><ele>238.0</ele><time>2026-04-19T12:04:51.046Z</time></trkpt><trkpt lat="44.84958" lon="8.0047483"><ele>238.0</ele><time>2026-04-19T12:04:52.05Z</time></trkpt><trkpt lat="44.849475" lon="8.0048583"><ele>238.0</ele><time>2026-04-19T12:04:53.052Z</time></trkpt><trkpt lat="44.849365" lon="8.0049767"><ele>240.25</ele><time>2026-04-19T12:04:54.044Z</time></trkpt><trkpt lat="44.8492617" lon="8.00509"><ele>242.5</ele><time>2026-04-19T12:04:55.055Z</time></trkpt><trkpt lat="44.8491583" lon="8.0052067"><ele>244.75</ele><time>2026-04-19T12:04:56.051Z</time></trkpt><trkpt lat="44.8490617" lon="8.0053217"><ele>247.0</ele><time>2026-04-19T12:04:57.048Z</time></trkpt><trkpt lat="44.8489617" lon="8.0054333"><ele>247.0</ele><time>2026-04-19T12:04:58.048Z</time></trkpt><trkpt lat="44.8488567" lon="8.0055417"><ele>247.0</ele><time>2026-04-19T12:04:59.115Z</time></trkpt><trkpt lat="44.8487483" lon="8.0056317"><ele>247.0</ele><time>2026-04-19T12:05:00.047Z</time></trkpt><trkpt lat="44.8486333" lon="8.005705"><ele>247.0</ele><time>2026-04-19T12:05:01.047Z</time></trkpt><trkpt lat="44.8485167" lon="8.0057733"><ele>246.25</ele><time>2026-04-19T12:05:02.042Z</time></trkpt><trkpt lat="44.8484" lon="8.005835"><ele>245.5</ele><time>2026-04-19T12:05:03.05Z</time></trkpt><trkpt lat="44.8482833" lon="8.0058967"><ele>244.75</ele><time>2026-04-19T12:05:04.051Z</time></trkpt><trkpt lat="44.8481717" lon="8.0059683"><ele>244.0</ele><time>2026-04-19T12:05:05.11Z</time></trkpt><trkpt lat="44.8480717" lon="8.00606"><ele>244.0</ele><time>2026-04-19T12:05:06.043Z</time></trkpt><trkpt lat="44.8479817" lon="8.006175"><ele>244.0</ele><time>2026-04-19T12:05:07.047Z</time></trkpt><trkpt lat="44.8479033" lon="8.0062983"><ele>244.0</ele><time>2026-04-19T12:05:08.045Z</time></trkpt><trkpt lat="44.84784" lon="8.0064367"><ele>244.0</ele><time>2026-04-19T12:05:09.051Z</time></trkpt><trkpt lat="44.8477933" lon="8.0065867"><ele>246.0</ele><time>2026-04-19T12:05:10.049Z</time></trkpt><trkpt lat="44.84775" lon="8.0067483"><ele>248.0</ele><time>2026-04-19T12:05:11.051Z</time></trkpt><trkpt lat="44.84771" lon="8.0069233"><ele>250.0</ele><time>2026-04-19T12:05:12.04Z</time></trkpt><trkpt lat="44.84767" lon="8.0071083"><ele>252.0</ele><time>2026-04-19T12:05:13.049Z</time></trkpt><trkpt lat="44.847625" lon="8.00728"><ele>252.16666666666666</ele><time>2026-04-19T12:05:14.05Z</time></trkpt><trkpt lat="44.8475867" lon="8.0074267"><ele>252.33333333333331</ele><time>2026-04-19T12:05:15.051Z</time></trkpt><trkpt lat="44.8475517" lon="8.0075433"><ele>252.5</ele><time>2026-04-19T12:05:16.053Z</time></trkpt><trkpt lat="44.8475217" lon="8.0076367"><ele>252.66666666666666</ele><time>2026-04-19T12:05:17.047Z</time></trkpt><trkpt lat="44.8475317" lon="8.007725"><ele>252.83333333333331</ele><time>2026-04-19T12:05:19.039Z</time></trkpt><trkpt lat="44.84759" lon="8.007815"><ele>253.0</ele><time>2026-04-19T12:05:21.055Z</time></trkpt><trkpt lat="44.8476417" lon="8.0078767"><ele>254.33333333333331</ele><time>2026-04-19T12:05:22.047Z</time></trkpt><trkpt lat="44.84771" lon="8.0079517"><ele>255.66666666666666</ele><time>2026-04-19T12:05:23.053Z</time></trkpt><trkpt lat="44.8477633" lon="8.00803"><ele>257.0</ele><time>2026-04-19T12:05:24.055Z</time></trkpt><trkpt lat="44.84781" lon="8.0081217"><ele>258.3333333333333</ele><time>2026-04-19T12:05:25.05Z</time></trkpt><trkpt lat="44.8478567" lon="8.0082333"><ele>259.6666666666667</ele><time>2026-04-19T12:05:26.049Z</time></trkpt><trkpt lat="44.847905" lon="8.0083617"><ele>261.0</ele><time>2026-04-19T12:05:27.049Z</time></trkpt><trkpt lat="44.8479517" lon="8.0084983"><ele>261.8</ele><time>2026-04-19T12:05:28.046Z</time></trkpt><trkpt lat="44.847995" lon="8.00863"><ele>262.6</ele><time>2026-04-19T12:05:29.113Z</time></trkpt><trkpt lat="44.8480433" lon="8.0087533"><ele>263.4</ele><time>2026-04-19T12:05:30.047Z</time></trkpt><trkpt lat="44.8480967" lon="8.0088667"><ele>264.2</ele><time>2026-04-19T12:05:31.05Z</time></trkpt><trkpt lat="44.8481517" lon="8.00897"><ele>265.0</ele><time>2026-04-19T12:05:32.042Z</time></trkpt><trkpt lat="44.8482083" lon="8.00902"><ele>265.0</ele><time>2026-04-19T12:05:33.044Z</time></trkpt><trkpt lat="44.848275" lon="8.0089667"><ele>265.0</ele><time>2026-04-19T12:05:35.11Z</time></trkpt><trkpt lat="44.8483433" lon="8.0088817"><ele>265.0</ele><time>2026-04-19T12:05:37.045Z</time></trkpt><trkpt lat="44.8483817" lon="8.00881"><ele>265.0</ele><time>2026-04-19T12:05:38.046Z</time></trkpt><trkpt lat="44.8484633" lon="8.0087283"><ele>265.0</ele><time>2026-04-19T12:05:40.048Z</time></trkpt><trkpt lat="44.8485383" lon="8.0087217"><ele>265.0</ele><time>2026-04-19T12:05:42.05Z</time></trkpt><trkpt lat="44.8485033" lon="8.0088733"><ele>268.8333333333333</ele><time>2026-04-19T12:05:45.05Z</time></trkpt><trkpt lat="44.8484883" lon="8.0089633"><ele>272.66666666666663</ele><time>2026-04-19T12:05:46.046Z</time></trkpt><trkpt lat="44.8484933" lon="8.0090733"><ele>276.5</ele><time>2026-04-19T12:05:47.051Z</time></trkpt><trkpt lat="44.8485217" lon="8.009185"><ele>280.3333333333333</ele><time>2026-04-19T12:05:48.049Z</time></trkpt><trkpt lat="44.848575" lon="8.0092983"><ele>284.1666666666667</ele><time>2026-04-19T12:05:49.048Z</time></trkpt><trkpt lat="44.848645" lon="8.0094"><ele>288.0</ele><time>2026-04-19T12:05:50.044Z</time></trkpt><trkpt lat="44.848715" lon="8.00949"><ele>288.0</ele><time>2026-04-19T12:05:51.045Z</time></trkpt><trkpt lat="44.8487883" lon="8.0095567"><ele>288.0</ele><time>2026-04-19T12:05:52.05Z</time></trkpt><trkpt lat="44.848845" lon="8.0096083"><ele>288.0</ele><time>2026-04-19T12:05:53.045Z</time></trkpt><trkpt lat="44.8489583" lon="8.0096367"><ele>288.0</ele><time>2026-04-19T12:05:55.05Z</time></trkpt><trkpt lat="44.8490317" lon="8.0095983"><ele>288.0</ele><time>2026-04-19T12:05:56.046Z</time></trkpt><trkpt lat="44.8490983" lon="8.009515"><ele>288.0</ele><time>2026-04-19T12:05:57.045Z</time></trkpt><trkpt lat="44.8492" lon="8.0094583"><ele>288.3333333333333</ele><time>2026-04-19T12:05:59.107Z</time></trkpt><trkpt lat="44.84931" lon="8.00944"><ele>288.6666666666667</ele><time>2026-04-19T12:06:01.047Z</time></trkpt><trkpt lat="44.849385" lon="8.0094567"><ele>289.0</ele><time>2026-04-19T12:06:03.043Z</time></trkpt><trkpt lat="44.8494783" lon="8.009505"><ele>289.33333333333337</ele><time>2026-04-19T12:06:36.043Z</time></trkpt><trkpt lat="44.8495483" lon="8.0094833"><ele>289.6666666666667</ele><time>2026-04-19T12:06:37.042Z</time></trkpt><trkpt lat="44.8496133" lon="8.0094667"><ele>290.0</ele><time>2026-04-19T12:06:38.047Z</time></trkpt><trkpt lat="44.8496917" lon="8.0094317"><ele>290.0</ele><time>2026-04-19T12:06:39.05Z</time></trkpt><trkpt lat="44.8497633" lon="8.0093867"><ele>290.0</ele><time>2026-04-19T12:06:40.045Z</time></trkpt><trkpt lat="44.8498267" lon="8.0093167"><ele>290.0</ele><time>2026-04-19T12:06:41.05Z</time></trkpt><trkpt lat="44.84988" lon="8.0092283"><ele>290.0</ele><time>2026-04-19T12:06:42.046Z</time></trkpt><trkpt lat="44.8499267" lon="8.0091567"><ele>290.0</ele><time>2026-04-19T12:06:43.042Z</time></trkpt><trkpt lat="44.8499783" lon="8.0090417"><ele>290.0</ele><time>2026-04-19T12:06:45.048Z</time></trkpt><trkpt lat="44.8499667" lon="8.0088917"><ele>290.0</ele><time>2026-04-19T12:06:47.051Z</time></trkpt><trkpt lat="44.8499667" lon="8.0087933"><ele>290.0</ele><time>2026-04-19T12:06:48.048Z</time></trkpt><trkpt lat="44.849985" lon="8.0086867"><ele>290.0</ele><time>2026-04-19T12:06:49.049Z</time></trkpt><trkpt lat="44.8500033" lon="8.0085933"><ele>290.0</ele><time>2026-04-19T12:06:50.044Z</time></trkpt><trkpt lat="44.850065" lon="8.0084633"><ele>290.0</ele><time>2026-04-19T12:06:52.049Z</time></trkpt><trkpt lat="44.8502017" lon="8.0084467"><ele>290.0</ele><time>2026-04-19T12:06:54.04Z</time></trkpt><trkpt lat="44.850305" lon="8.0084367"><ele>290.0</ele><time>2026-04-19T12:06:55.046Z</time></trkpt><trkpt lat="44.8504117" lon="8.008415"><ele>290.0</ele><time>2026-04-19T12:06:56.047Z</time></trkpt><trkpt lat="44.8504983" lon="8.0083933"><ele>290.0</ele><time>2026-04-19T12:06:57.049Z</time></trkpt><trkpt lat="44.8505817" lon="8.0083783"><ele>290.0</ele><time>2026-04-19T12:06:58.046Z</time></trkpt><trkpt lat="44.8506667" lon="8.0083617"><ele>287.5</ele><time>2026-04-19T12:06:59.115Z</time></trkpt><trkpt lat="44.8507583" lon="8.0083217"><ele>285.0</ele><time>2026-04-19T12:07:00.039Z</time></trkpt><trkpt lat="44.850865" lon="8.0082667"><ele>282.5</ele><time>2026-04-19T12:07:01.045Z</time></trkpt><trkpt lat="44.8509817" lon="8.0082183"><ele>280.0</ele><time>2026-04-19T12:07:02.044Z</time></trkpt><trkpt lat="44.8511083" lon="8.0081683"><ele>280.0</ele><time>2026-04-19T12:07:03.048Z</time></trkpt><trkpt lat="44.851245" lon="8.008115"><ele>280.0</ele><time>2026-04-19T12:07:04.05Z</time></trkpt><trkpt lat="44.85139" lon="8.00806"><ele>280.0</ele><time>2026-04-19T12:07:05.11Z</time></trkpt><trkpt lat="44.8515317" lon="8.0080067"><ele>280.0</ele><time>2026-04-19T12:07:06.05Z</time></trkpt><trkpt lat="44.851655" lon="8.0079583"><ele>280.0</ele><time>2026-04-19T12:07:07.05Z</time></trkpt><trkpt lat="44.8517567" lon="8.00791"><ele>280.0</ele><time>2026-04-19T12:07:08.049Z</time></trkpt><trkpt lat="44.8518417" lon="8.0078717"><ele>280.0</ele><time>2026-04-19T12:07:09.045Z</time></trkpt><trkpt lat="44.8519083" lon="8.00787"><ele>280.0</ele><time>2026-04-19T12:07:11.049Z</time></trkpt><trkpt lat="44.8519817" lon="8.0078883"><ele>280.0</ele><time>2026-04-19T12:07:16.043Z</time></trkpt><trkpt lat="44.852055" lon="8.007915"><ele>280.0</ele><time>2026-04-19T12:07:20.049Z</time></trkpt><trkpt lat="44.8521467" lon="8.00793"><ele>278.5</ele><time>2026-04-19T12:07:23.056Z</time></trkpt><trkpt lat="44.8522533" lon="8.007955"><ele>277.0</ele><time>2026-04-19T12:07:25.055Z</time></trkpt><trkpt lat="44.8523667" lon="8.0080033"><ele>275.5</ele><time>2026-04-19T12:07:27.049Z</time></trkpt><trkpt lat="44.852465" lon="8.0080683"><ele>274.0</ele><time>2026-04-19T12:07:29.113Z</time></trkpt><trkpt lat="44.8525633" lon="8.0081517"><ele>275.0</ele><time>2026-04-19T12:07:31.049Z</time></trkpt><trkpt lat="44.8526583" lon="8.0082467"><ele>276.0</ele><time>2026-04-19T12:07:33.045Z</time></trkpt><trkpt lat="44.8527067" lon="8.00831"><ele>277.0</ele><time>2026-04-19T12:07:34.048Z</time></trkpt><trkpt lat="44.8527517" lon="8.0083733"><ele>278.0</ele><time>2026-04-19T12:07:35.11Z</time></trkpt><trkpt lat="44.852825" lon="8.00848"><ele>279.0</ele><time>2026-04-19T12:07:37.05Z</time></trkpt><trkpt lat="44.852885" lon="8.00852"><ele>280.0</ele><time>2026-04-19T12:07:39.046Z</time></trkpt><trkpt lat="44.8529583" lon="8.0085117"><ele>280.0</ele><time>2026-04-19T12:07:41.054Z</time></trkpt><trkpt lat="44.8530817" lon="8.0085267"><ele>280.0</ele><time>2026-04-19T12:07:43.048Z</time></trkpt><trkpt lat="44.8531733" lon="8.00855"><ele>280.0</ele><time>2026-04-19T12:07:44.05Z</time></trkpt><trkpt lat="44.853265" lon="8.0085717"><ele>280.0</ele><time>2026-04-19T12:07:45.045Z</time></trkpt><trkpt lat="44.8533383" lon="8.0085833"><ele>280.0</ele><time>2026-04-19T12:07:46.05Z</time></trkpt><trkpt lat="44.853405" lon="8.0085883"><ele>281.3333333333333</ele><time>2026-04-19T12:07:47.057Z</time></trkpt><trkpt lat="44.8534967" lon="8.0085317"><ele>282.66666666666663</ele><time>2026-04-19T12:07:49.056Z</time></trkpt><trkpt lat="44.8535467" lon="8.0084517"><ele>284.0</ele><time>2026-04-19T12:07:51.049Z</time></trkpt><trkpt lat="44.85357" lon="8.008335"><ele>285.3333333333333</ele><time>2026-04-19T12:07:54.044Z</time></trkpt><trkpt lat="44.8536467" lon="8.0082867"><ele>286.6666666666667</ele><time>2026-04-19T12:07:57.049Z</time></trkpt><trkpt lat="44.8537067" lon="8.0082317"><ele>288.0</ele><time>2026-04-19T12:07:59.109Z</time></trkpt><trkpt lat="44.853775" lon="8.008135"><ele>285.0</ele><time>2026-04-19T12:08:01.047Z</time></trkpt><trkpt lat="44.853845" lon="8.008075"><ele>282.0</ele><time>2026-04-19T12:08:03.046Z</time></trkpt><trkpt lat="44.8539083" lon="8.00803"><ele>279.0</ele><time>2026-04-19T12:08:05.113Z</time></trkpt><trkpt lat="44.853975" lon="8.0080567"><ele>276.0</ele><time>2026-04-19T12:08:08.05Z</time></trkpt><trkpt lat="44.8540117" lon="8.0081417"><ele>273.0</ele><time>2026-04-19T12:08:10.047Z</time></trkpt><trkpt lat="44.854065" lon="8.0082367"><ele>270.0</ele><time>2026-04-19T12:08:12.052Z</time></trkpt><trkpt lat="44.8541383" lon="8.0083233"><ele>269.4</ele><time>2026-04-19T12:08:14.049Z</time></trkpt><trkpt lat="44.8542483" lon="8.0084667"><ele>268.8</ele><time>2026-04-19T12:08:25.047Z</time></trkpt><trkpt lat="44.854295" lon="8.00857"><ele>268.2</ele><time>2026-04-19T12:08:28.053Z</time></trkpt><trkpt lat="44.85437" lon="8.0085683"><ele>267.6</ele><time>2026-04-19T12:08:32.048Z</time></trkpt><trkpt lat="44.8544467" lon="8.0085233"><ele>267.0</ele><time>2026-04-19T12:08:35.112Z</time></trkpt><trkpt lat="44.854505" lon="8.00845"><ele>267.00000000000006</ele><time>2026-04-19T12:08:39.051Z</time></trkpt><trkpt lat="44.854575" lon="8.0084"><ele>267.0</ele><time>2026-04-19T12:08:42.045Z</time></trkpt><trkpt lat="44.8546367" lon="8.0083683"><ele>267.0</ele><time>2026-04-19T12:08:44.051Z</time></trkpt><trkpt lat="44.85471" lon="8.0083417"><ele>267.0</ele><time>2026-04-19T12:08:48.046Z</time></trkpt><trkpt lat="44.8547783" lon="8.0083617"><ele>267.0</ele><time>2026-04-19T12:08:51.047Z</time></trkpt><trkpt lat="44.8548517" lon="8.0083317"><ele>267.00000000000006</ele><time>2026-04-19T12:08:54.047Z</time></trkpt><trkpt lat="44.8549167" lon="8.0083067"><ele>267.0</ele><time>2026-04-19T12:08:56.047Z</time></trkpt><trkpt lat="44.85499" lon="8.0082533"><ele>265.1666666666667</ele><time>2026-04-19T12:08:58.045Z</time></trkpt><trkpt lat="44.8550717" lon="8.0081917"><ele>263.3333333333333</ele><time>2026-04-19T12:09:00.044Z</time></trkpt><trkpt lat="44.85514" lon="8.0081517"><ele>261.5</ele><time>2026-04-19T12:09:02.043Z</time></trkpt><trkpt lat="44.855205" lon="8.00812"><ele>259.66666666666663</ele><time>2026-04-19T12:09:05.113Z</time></trkpt><trkpt lat="44.8552867" lon="8.0080767"><ele>257.8333333333333</ele><time>2026-04-19T12:09:09.048Z</time></trkpt><trkpt lat="44.8553417" lon="8.0080317"><ele>256.0</ele><time>2026-04-19T12:09:11.059Z</time></trkpt><trkpt lat="44.8553917" lon="8.0079567"><ele>254.20000000000002</ele><time>2026-04-19T12:09:15.05Z</time></trkpt><trkpt lat="44.8554417" lon="8.0078333"><ele>252.40000000000003</ele><time>2026-04-19T12:09:22.054Z</time></trkpt><trkpt lat="44.8554783" lon="8.007685"><ele>250.6</ele><time>2026-04-19T12:09:30.045Z</time></trkpt><trkpt lat="44.8555167" lon="8.007595"><ele>248.8</ele><time>2026-04-19T12:09:32.045Z</time></trkpt><trkpt lat="44.85557" lon="8.0074817"><ele>247.0</ele><time>2026-04-19T12:09:34.051Z</time></trkpt><trkpt lat="44.8556333" lon="8.0073817"><ele>245.49999999999997</ele><time>2026-04-19T12:09:36.045Z</time></trkpt><trkpt lat="44.85571" lon="8.007305"><ele>244.0</ele><time>2026-04-19T12:09:38.053Z</time></trkpt><trkpt lat="44.8558017" lon="8.0072083"><ele>242.5</ele><time>2026-04-19T12:09:40.05Z</time></trkpt><trkpt lat="44.8558567" lon="8.00715"><ele>241.0</ele><time>2026-04-19T12:09:41.055Z</time></trkpt><trkpt lat="44.8559083" lon="8.0070983"><ele>239.49999999999997</ele><time>2026-04-19T12:09:42.045Z</time></trkpt><trkpt lat="44.85596" lon="8.0070467"><ele>238.0</ele><time>2026-04-19T12:09:43.048Z</time></trkpt><trkpt lat="44.8560567" lon="8.0069833"><ele>237.83333333333331</ele><time>2026-04-19T12:09:45.049Z</time></trkpt><trkpt lat="44.8561217" lon="8.0069167"><ele>237.66666666666666</ele><time>2026-04-19T12:09:47.059Z</time></trkpt><trkpt lat="44.85613" lon="8.00702"><ele>237.5</ele><time>2026-04-19T12:09:56.054Z</time></trkpt><trkpt lat="44.8561217" lon="8.0071267"><ele>237.33333333333331</ele><time>2026-04-19T12:09:58.039Z</time></trkpt><trkpt lat="44.856125" lon="8.00731"><ele>237.16666666666666</ele><time>2026-04-19T12:10:00.045Z</time></trkpt><trkpt lat="44.8561317" lon="8.0074083"><ele>237.0</ele><time>2026-04-19T12:10:01.051Z</time></trkpt><trkpt lat="44.8561333" lon="8.0075"><ele>237.0</ele><time>2026-04-19T12:10:02.049Z</time></trkpt><trkpt lat="44.8561717" lon="8.0076733"><ele>237.0</ele><time>2026-04-19T12:10:04.053Z</time></trkpt><trkpt lat="44.856195" lon="8.0077667"><ele>237.0</ele><time>2026-04-19T12:10:05.115Z</time></trkpt><trkpt lat="44.85622" lon="8.0078667"><ele>237.0</ele><time>2026-04-19T12:10:06.051Z</time></trkpt><trkpt lat="44.8562417" lon="8.0079767"><ele>237.0</ele><time>2026-04-19T12:10:07.047Z</time></trkpt><trkpt lat="44.856255" lon="8.0080833"><ele>237.0</ele><time>2026-04-19T12:10:08.047Z</time></trkpt><trkpt lat="44.8562617" lon="8.0081917"><ele>237.0</ele><time>2026-04-19T12:10:09.054Z</time></trkpt><trkpt lat="44.8562567" lon="8.0083"><ele>237.0</ele><time>2026-04-19T12:10:10.043Z</time></trkpt><trkpt lat="44.8562533" lon="8.0084067"><ele>237.0</ele><time>2026-04-19T12:10:11.058Z</time></trkpt><trkpt lat="44.8562467" lon="8.0085133"><ele>237.0</ele><time>2026-04-19T12:10:12.047Z</time></trkpt><trkpt lat="44.8562367" lon="8.0086233"><ele>237.0</ele><time>2026-04-19T12:10:13.051Z</time></trkpt><trkpt lat="44.8562317" lon="8.008735"><ele>237.0</ele><time>2026-04-19T12:10:14.048Z</time></trkpt><trkpt lat="44.85623" lon="8.008845"><ele>239.33333333333334</ele><time>2026-04-19T12:10:15.049Z</time></trkpt><trkpt lat="44.8562217" lon="8.0089467"><ele>241.66666666666669</ele><time>2026-04-19T12:10:16.049Z</time></trkpt><trkpt lat="44.8562133" lon="8.0090383"><ele>244.0</ele><time>2026-04-19T12:10:17.055Z</time></trkpt><trkpt lat="44.85631" lon="8.0090167"><ele>246.33333333333334</ele><time>2026-04-19T12:10:21.043Z</time></trkpt><trkpt lat="44.8563667" lon="8.0089417"><ele>248.66666666666669</ele><time>2026-04-19T12:10:22.049Z</time></trkpt><trkpt lat="44.8564233" lon="8.0088883"><ele>251.0</ele><time>2026-04-19T12:10:23.05Z</time></trkpt><trkpt lat="44.8564867" lon="8.0087733"><ele>251.00000000000003</ele><time>2026-04-19T12:10:25.049Z</time></trkpt><trkpt lat="44.8565333" lon="8.0086583"><ele>251.0</ele><time>2026-04-19T12:10:27.048Z</time></trkpt><trkpt lat="44.8566067" lon="8.008555"><ele>251.0</ele><time>2026-04-19T12:10:29.097Z</time></trkpt><trkpt lat="44.856655" lon="8.0084933"><ele>251.0</ele><time>2026-04-19T12:10:30.043Z</time></trkpt><trkpt lat="44.8567133" lon="8.0084283"><ele>251.00000000000003</ele><time>2026-04-19T12:10:31.052Z</time></trkpt><trkpt lat="44.8567617" lon="8.0083617"><ele>251.0</ele><time>2026-04-19T12:10:32.049Z</time></trkpt><trkpt lat="44.8568433" lon="8.0082433"><ele>249.83333333333334</ele><time>2026-04-19T12:10:34.048Z</time></trkpt><trkpt lat="44.856895" lon="8.00819"><ele>248.66666666666669</ele><time>2026-04-19T12:10:36.043Z</time></trkpt><trkpt lat="44.8569633" lon="8.0082567"><ele>247.5</ele><time>2026-04-19T12:10:40.053Z</time></trkpt><trkpt lat="44.8569517" lon="8.00838"><ele>246.33333333333331</ele><time>2026-04-19T12:10:42.049Z</time></trkpt><trkpt lat="44.8568983" lon="8.0085383"><ele>245.16666666666666</ele><time>2026-04-19T12:10:44.051Z</time></trkpt><trkpt lat="44.8568683" lon="8.00864"><ele>244.0</ele><time>2026-04-19T12:10:45.051Z</time></trkpt><trkpt lat="44.85684" lon="8.00875"><ele>243.99999999999997</ele><time>2026-04-19T12:10:46.047Z</time></trkpt><trkpt lat="44.85681" lon="8.0088467"><ele>244.0</ele><time>2026-04-19T12:10:47.053Z</time></trkpt><trkpt lat="44.85678" lon="8.0089317"><ele>244.0</ele><time>2026-04-19T12:10:48.046Z</time></trkpt><trkpt lat="44.856755" lon="8.0090183"><ele>244.0</ele><time>2026-04-19T12:10:49.046Z</time></trkpt><trkpt lat="44.8567283" lon="8.0091183"><ele>243.99999999999997</ele><time>2026-04-19T12:10:50.049Z</time></trkpt><trkpt lat="44.856715" lon="8.0092217"><ele>244.0</ele><time>2026-04-19T12:10:51.045Z</time></trkpt><trkpt lat="44.856715" lon="8.0093883"><ele>246.6</ele><time>2026-04-19T12:10:53.054Z</time></trkpt><trkpt lat="44.85676" lon="8.0095733"><ele>249.2</ele><time>2026-04-19T12:10:55.041Z</time></trkpt><trkpt lat="44.8567833" lon="8.0096683"><ele>251.79999999999998</ele><time>2026-04-19T12:10:56.043Z</time></trkpt><trkpt lat="44.8567883" lon="8.0097617"><ele>254.39999999999998</ele><time>2026-04-19T12:10:57.04Z</time></trkpt><trkpt lat="44.856785" lon="8.009855"><ele>257.0</ele><time>2026-04-19T12:10:58.048Z</time></trkpt><trkpt lat="44.856765" lon="8.0100167"><ele>259.8</ele><time>2026-04-19T12:11:00.04Z</time></trkpt><trkpt lat="44.856715" lon="8.010195"><ele>262.6</ele><time>2026-04-19T12:11:02.047Z</time></trkpt><trkpt lat="44.8566767" lon="8.01031"><ele>265.40000000000003</ele><time>2026-04-19T12:11:03.047Z</time></trkpt><trkpt lat="44.8566367" lon="8.010425"><ele>268.2</ele><time>2026-04-19T12:11:04.051Z</time></trkpt><trkpt lat="44.8565967" lon="8.010535"><ele>271.0</ele><time>2026-04-19T12:11:05.105Z</time></trkpt><trkpt lat="44.85656" lon="8.01064"><ele>271.0</ele><time>2026-04-19T12:11:06.039Z</time></trkpt><trkpt lat="44.8565367" lon="8.0107833"><ele>271.0</ele><time>2026-04-19T12:11:08.046Z</time></trkpt><trkpt lat="44.856565" lon="8.0109017"><ele>271.0</ele><time>2026-04-19T12:11:10.046Z</time></trkpt><trkpt lat="44.8566033" lon="8.0109867"><ele>271.0</ele><time>2026-04-19T12:11:11.051Z</time></trkpt><trkpt lat="44.8566583" lon="8.011085"><ele>271.0</ele><time>2026-04-19T12:11:12.046Z</time></trkpt><trkpt lat="44.856715" lon="8.011175"><ele>271.0</ele><time>2026-04-19T12:11:13.044Z</time></trkpt><trkpt lat="44.8567767" lon="8.0112683"><ele>270.40000000000003</ele><time>2026-04-19T12:11:14.041Z</time></trkpt><trkpt lat="44.856835" lon="8.0113567"><ele>269.8</ele><time>2026-04-19T12:11:15.05Z</time></trkpt><trkpt lat="44.8568883" lon="8.011445"><ele>269.20000000000005</ele><time>2026-04-19T12:11:16.049Z</time></trkpt><trkpt lat="44.8569333" lon="8.0115133"><ele>268.6</ele><time>2026-04-19T12:11:17.049Z</time></trkpt><trkpt lat="44.8570267" lon="8.0116033"><ele>268.0</ele><time>2026-04-19T12:11:19.043Z</time></trkpt><trkpt lat="44.85714" lon="8.0116583"><ele>268.0</ele><time>2026-04-19T12:11:21.049Z</time></trkpt><trkpt lat="44.8572117" lon="8.0116667"><ele>268.0</ele><time>2026-04-19T12:11:22.048Z</time></trkpt><trkpt lat="44.8572917" lon="8.0116733"><ele>268.0</ele><time>2026-04-19T12:11:23.05Z</time></trkpt><trkpt lat="44.857375" lon="8.0116783"><ele>268.0</ele><time>2026-04-19T12:11:24.043Z</time></trkpt><trkpt lat="44.8574517" lon="8.01168"><ele>268.0</ele><time>2026-04-19T12:11:25.046Z</time></trkpt><trkpt lat="44.85753" lon="8.0116583"><ele>268.0</ele><time>2026-04-19T12:11:26.044Z</time></trkpt><trkpt lat="44.8575967" lon="8.0116417"><ele>266.2</ele><time>2026-04-19T12:11:27.042Z</time></trkpt><trkpt lat="44.8577183" lon="8.0116283"><ele>264.4</ele><time>2026-04-19T12:11:29.109Z</time></trkpt><trkpt lat="44.857825" lon="8.0116567"><ele>262.59999999999997</ele><time>2026-04-19T12:11:31.036Z</time></trkpt><trkpt lat="44.8579317" lon="8.0116817"><ele>260.8</ele><time>2026-04-19T12:11:33.047Z</time></trkpt><trkpt lat="44.8579983" lon="8.0116667"><ele>259.0</ele><time>2026-04-19T12:11:34.052Z</time></trkpt><trkpt lat="44.8580867" lon="8.0116267"><ele>259.0</ele><time>2026-04-19T12:11:35.113Z</time></trkpt><trkpt lat="44.85816" lon="8.0115883"><ele>259.0</ele><time>2026-04-19T12:11:36.048Z</time></trkpt><trkpt lat="44.85823" lon="8.0115417"><ele>259.0</ele><time>2026-04-19T12:11:37.053Z</time></trkpt><trkpt lat="44.8583" lon="8.0115133"><ele>259.0</ele><time>2026-04-19T12:11:38.047Z</time></trkpt><trkpt lat="44.8583867" lon="8.0114667"><ele>259.0</ele><time>2026-04-19T12:11:40.05Z</time></trkpt><trkpt lat="44.85847" lon="8.0114417"><ele>259.0</ele><time>2026-04-19T12:11:44.049Z</time></trkpt><trkpt lat="44.858585" lon="8.0114217"><ele>256.8333333333333</ele><time>2026-04-19T12:11:46.051Z</time></trkpt><trkpt lat="44.85866" lon="8.0113933"><ele>254.66666666666666</ele><time>2026-04-19T12:11:47.052Z</time></trkpt><trkpt lat="44.8587517" lon="8.0113517"><ele>252.5</ele><time>2026-04-19T12:11:48.043Z</time></trkpt><trkpt lat="44.8588367" lon="8.0113083"><ele>250.33333333333331</ele><time>2026-04-19T12:11:49.046Z</time></trkpt><trkpt lat="44.8589117" lon="8.0112683"><ele>248.16666666666666</ele><time>2026-04-19T12:11:50.042Z</time></trkpt><trkpt lat="44.8589717" lon="8.01122"><ele>246.0</ele><time>2026-04-19T12:11:51.041Z</time></trkpt><trkpt lat="44.8590317" lon="8.011105"><ele>246.00000000000003</ele><time>2026-04-19T12:11:53.057Z</time></trkpt><trkpt lat="44.8590617" lon="8.0110217"><ele>246.0</ele><time>2026-04-19T12:11:54.048Z</time></trkpt><trkpt lat="44.8590967" lon="8.0109333"><ele>246.00000000000003</ele><time>2026-04-19T12:11:55.05Z</time></trkpt><trkpt lat="44.8591383" lon="8.0108517"><ele>246.00000000000003</ele><time>2026-04-19T12:11:56.047Z</time></trkpt><trkpt lat="44.8591867" lon="8.01077"><ele>246.0</ele><time>2026-04-19T12:11:57.053Z</time></trkpt><trkpt lat="44.8592433" lon="8.0106917"><ele>246.00000000000003</ele><time>2026-04-19T12:11:58.052Z</time></trkpt><trkpt lat="44.8593" lon="8.0106233"><ele>246.00000000000003</ele><time>2026-04-19T12:11:59.113Z</time></trkpt><trkpt lat="44.85935" lon="8.010545"><ele>245.20000000000002</ele><time>2026-04-19T12:12:00.047Z</time></trkpt><trkpt lat="44.8593867" lon="8.0104717"><ele>244.40000000000003</ele><time>2026-04-19T12:12:01.044Z</time></trkpt><trkpt lat="44.8594133" lon="8.01039"><ele>243.6</ele><time>2026-04-19T12:12:02.047Z</time></trkpt><trkpt lat="44.85949" lon="8.010275"><ele>242.8</ele><time>2026-04-19T12:12:04.046Z</time></trkpt><trkpt lat="44.85958" lon="8.010335"><ele>242.0</ele><time>2026-04-19T12:12:06.046Z</time></trkpt><trkpt lat="44.8596017" lon="8.0105033"><ele>242.00000000000003</ele><time>2026-04-19T12:12:07.045Z</time></trkpt><trkpt lat="44.85963" lon="8.0106317"><ele>242.0</ele><time>2026-04-19T12:12:08.045Z</time></trkpt><trkpt lat="44.85966" lon="8.01076"><ele>242.0</ele><time>2026-04-19T12:12:09.047Z</time></trkpt><trkpt lat="44.8596883" lon="8.0108833"><ele>242.0</ele><time>2026-04-19T12:12:10.047Z</time></trkpt><trkpt lat="44.859715" lon="8.0109967"><ele>242.00000000000003</ele><time>2026-04-19T12:12:11.056Z</time></trkpt><trkpt lat="44.859725" lon="8.0110933"><ele>242.0</ele><time>2026-04-19T12:12:12.043Z</time></trkpt><trkpt lat="44.8597367" lon="8.0112217"><ele>240.83333333333334</ele><time>2026-04-19T12:12:14.046Z</time></trkpt><trkpt lat="44.8597133" lon="8.01132"><ele>239.66666666666669</ele><time>2026-04-19T12:12:28.04Z</time></trkpt><trkpt lat="44.859675" lon="8.01142"><ele>238.5</ele><time>2026-04-19T12:12:30.044Z</time></trkpt><trkpt lat="44.8596417" lon="8.0114967"><ele>237.33333333333331</ele><time>2026-04-19T12:12:32.051Z</time></trkpt><trkpt lat="44.85965" lon="8.011585"><ele>236.16666666666666</ele><time>2026-04-19T12:12:36.045Z</time></trkpt><trkpt lat="44.8597117" lon="8.0116517"><ele>235.0</ele><time>2026-04-19T12:12:38.044Z</time></trkpt><trkpt lat="44.8597967" lon="8.011705"><ele>234.75</ele><time>2026-04-19T12:12:39.041Z</time></trkpt><trkpt lat="44.8598967" lon="8.0117633"><ele>234.5</ele><time>2026-04-19T12:12:40.051Z</time></trkpt><trkpt lat="44.8600117" lon="8.0118317"><ele>234.25</ele><time>2026-04-19T12:12:41.057Z</time></trkpt><trkpt lat="44.860145" lon="8.01191"><ele>234.0</ele><time>2026-04-19T12:12:42.043Z</time></trkpt><trkpt lat="44.8602767" lon="8.0119967"><ele>233.75</ele><time>2026-04-19T12:12:43.056Z</time></trkpt><trkpt lat="44.8604133" lon="8.0120867"><ele>233.5</ele><time>2026-04-19T12:12:44.047Z</time></trkpt><trkpt lat="44.8605383" lon="8.0121633"><ele>233.25</ele><time>2026-04-19T12:12:45.049Z</time></trkpt><trkpt lat="44.8606567" lon="8.0122217"><ele>233.0</ele><time>2026-04-19T12:12:46.051Z</time></trkpt><trkpt lat="44.8607683" lon="8.01226"><ele>233.0</ele><time>2026-04-19T12:12:47.057Z</time></trkpt><trkpt lat="44.8608767" lon="8.0122883"><ele>233.0</ele><time>2026-04-19T12:12:48.044Z</time></trkpt><trkpt lat="44.8609833" lon="8.0123167"><ele>233.0</ele><time>2026-04-19T12:12:49.056Z</time></trkpt><trkpt lat="44.86108" lon="8.0123433"><ele>233.0</ele><time>2026-04-19T12:12:50.053Z</time></trkpt><trkpt lat="44.8612067" lon="8.0123717"><ele>233.0</ele><time>2026-04-19T12:12:51.048Z</time></trkpt><trkpt lat="44.8612933" lon="8.0123817"><ele>235.0</ele><time>2026-04-19T12:12:52.042Z</time></trkpt><trkpt lat="44.8613683" lon="8.0123767"><ele>237.0</ele><time>2026-04-19T12:12:53.05Z</time></trkpt><trkpt lat="44.861475" lon="8.0122967"><ele>239.0</ele><time>2026-04-19T12:12:55.046Z</time></trkpt><trkpt lat="44.86158" lon="8.0122383"><ele>241.0</ele><time>2026-04-19T12:12:57.046Z</time></trkpt><trkpt lat="44.861705" lon="8.0122567"><ele>243.0</ele><time>2026-04-19T12:12:59.083Z</time></trkpt><trkpt lat="44.86177" lon="8.0122867"><ele>243.5</ele><time>2026-04-19T12:13:00.047Z</time></trkpt><trkpt lat="44.86184" lon="8.0123267"><ele>244.0</ele><time>2026-04-19T12:13:01.046Z</time></trkpt><trkpt lat="44.861915" lon="8.01237"><ele>244.5</ele><time>2026-04-19T12:13:02.056Z</time></trkpt><trkpt lat="44.8619933" lon="8.0124183"><ele>245.0</ele><time>2026-04-19T12:13:03.05Z</time></trkpt><trkpt lat="44.8620683" lon="8.01247"><ele>245.5</ele><time>2026-04-19T12:13:04.05Z</time></trkpt><trkpt lat="44.86214" lon="8.0125317"><ele>246.0</ele><time>2026-04-19T12:13:05.111Z</time></trkpt><trkpt lat="44.8622183" lon="8.0125967"><ele>246.4</ele><time>2026-04-19T12:13:06.045Z</time></trkpt><trkpt lat="44.8623133" lon="8.0126817"><ele>246.8</ele><time>2026-04-19T12:13:07.049Z</time></trkpt><trkpt lat="44.86241" lon="8.0127717"><ele>247.20000000000002</ele><time>2026-04-19T12:13:08.049Z</time></trkpt><trkpt lat="44.862505" lon="8.0128467"><ele>247.60000000000002</ele><time>2026-04-19T12:13:09.052Z</time></trkpt><trkpt lat="44.8626" lon="8.0128983"><ele>248.0</ele><time>2026-04-19T12:13:10.048Z</time></trkpt><trkpt lat="44.862695" lon="8.0129317"><ele>246.4</ele><time>2026-04-19T12:13:11.057Z</time></trkpt><trkpt lat="44.8627883" lon="8.0129467"><ele>244.8</ele><time>2026-04-19T12:13:12.051Z</time></trkpt><trkpt lat="44.8628783" lon="8.0129433"><ele>243.2</ele><time>2026-04-19T12:13:13.049Z</time></trkpt><trkpt lat="44.8629517" lon="8.0129467"><ele>241.6</ele><time>2026-04-19T12:13:14.054Z</time></trkpt><trkpt lat="44.86307" lon="8.01301"><ele>240.0</ele><time>2026-04-19T12:13:16.042Z</time></trkpt><trkpt lat="44.863125" lon="8.013125"><ele>240.0</ele><time>2026-04-19T12:13:17.058Z</time></trkpt><trkpt lat="44.863185" lon="8.0132583"><ele>240.0</ele><time>2026-04-19T12:13:18.046Z</time></trkpt><trkpt lat="44.86324" lon="8.01341"><ele>240.0</ele><time>2026-04-19T12:13:19.047Z</time></trkpt><trkpt lat="44.8632817" lon="8.0135533"><ele>240.0</ele><time>2026-04-19T12:13:20.046Z</time></trkpt><trkpt lat="44.8633183" lon="8.0136717"><ele>240.0</ele><time>2026-04-19T12:13:21.047Z</time></trkpt><trkpt lat="44.8633917" lon="8.01376"><ele>238.0</ele><time>2026-04-19T12:13:23.055Z</time></trkpt><trkpt lat="44.8634517" lon="8.0137317"><ele>236.0</ele><time>2026-04-19T12:13:27.045Z</time></trkpt><trkpt lat="44.8635267" lon="8.0138167"><ele>234.0</ele><time>2026-04-19T12:13:30.044Z</time></trkpt><trkpt lat="44.86356" lon="8.0138983"><ele>232.0</ele><time>2026-04-19T12:13:32.045Z</time></trkpt><trkpt lat="44.8636167" lon="8.01399"><ele>230.0</ele><time>2026-04-19T12:13:35.105Z</time></trkpt><trkpt lat="44.86367" lon="8.0140733"><ele>228.0</ele><time>2026-04-19T12:13:37.044Z</time></trkpt><trkpt lat="44.8637317" lon="8.0141133"><ele>228.0</ele><time>2026-04-19T12:13:40.053Z</time></trkpt><trkpt lat="44.8638167" lon="8.0141017"><ele>228.0</ele><time>2026-04-19T12:13:44.046Z</time></trkpt><trkpt lat="44.8638867" lon="8.0141083"><ele>228.0</ele><time>2026-04-19T12:13:46.046Z</time></trkpt><trkpt lat="44.86397" lon="8.0140267"><ele>228.0</ele><time>2026-04-19T12:13:49.047Z</time></trkpt><trkpt lat="44.8640333" lon="8.01397"><ele>228.0</ele><time>2026-04-19T12:13:51.048Z</time></trkpt><trkpt lat="44.8640967" lon="8.0139533"><ele>228.0</ele><time>2026-04-19T12:13:53.057Z</time></trkpt><trkpt lat="44.864155" lon="8.0139883"><ele>228.0</ele><time>2026-04-19T12:13:55.046Z</time></trkpt><trkpt lat="44.8641933" lon="8.0140833"><ele>228.0</ele><time>2026-04-19T12:13:57.049Z</time></trkpt><trkpt lat="44.86422" lon="8.0142267"><ele>228.0</ele><time>2026-04-19T12:13:59.111Z</time></trkpt><trkpt lat="44.8642867" lon="8.014355"><ele>228.0</ele><time>2026-04-19T12:14:01.044Z</time></trkpt><trkpt lat="44.8643817" lon="8.014445"><ele>228.0</ele><time>2026-04-19T12:14:03.045Z</time></trkpt><trkpt lat="44.8644783" lon="8.0145483"><ele>226.16666666666666</ele><time>2026-04-19T12:14:05.113Z</time></trkpt><trkpt lat="44.864585" lon="8.0146317"><ele>224.33333333333331</ele><time>2026-04-19T12:14:07.044Z</time></trkpt><trkpt lat="44.8646483" lon="8.0146433"><ele>222.5</ele><time>2026-04-19T12:14:08.046Z</time></trkpt><trkpt lat="44.8647267" lon="8.0146467"><ele>220.66666666666666</ele><time>2026-04-19T12:14:09.049Z</time></trkpt><trkpt lat="44.8648117" lon="8.0146467"><ele>218.83333333333331</ele><time>2026-04-19T12:14:10.043Z</time></trkpt><trkpt lat="44.8648867" lon="8.0146533"><ele>217.0</ele><time>2026-04-19T12:14:11.052Z</time></trkpt><trkpt lat="44.8649483" lon="8.0146717"><ele>216.99999999999997</ele><time>2026-04-19T12:14:12.043Z</time></trkpt><trkpt lat="44.8650067" lon="8.0147133"><ele>217.0</ele><time>2026-04-19T12:14:13.045Z</time></trkpt><trkpt lat="44.86507" lon="8.0147617"><ele>217.0</ele><time>2026-04-19T12:14:14.042Z</time></trkpt><trkpt lat="44.86514" lon="8.0148033"><ele>217.0</ele><time>2026-04-19T12:14:15.048Z</time></trkpt><trkpt lat="44.8652217" lon="8.0148283"><ele>216.99999999999997</ele><time>2026-04-19T12:14:16.046Z</time></trkpt><trkpt lat="44.8653033" lon="8.0148383"><ele>217.0</ele><time>2026-04-19T12:14:17.049Z</time></trkpt><trkpt lat="44.8653817" lon="8.0148383"><ele>216.33333333333331</ele><time>2026-04-19T12:14:18.045Z</time></trkpt><trkpt lat="44.865445" lon="8.014835"><ele>215.66666666666666</ele><time>2026-04-19T12:14:19.05Z</time></trkpt><trkpt lat="44.8655483" lon="8.014825"><ele>215.0</ele><time>2026-04-19T12:14:21.043Z</time></trkpt><trkpt lat="44.8655933" lon="8.0147517"><ele>214.33333333333331</ele><time>2026-04-19T12:14:40.039Z</time></trkpt><trkpt lat="44.865645" lon="8.0146967"><ele>213.66666666666666</ele><time>2026-04-19T12:14:44.052Z</time></trkpt><trkpt lat="44.86571" lon="8.0147433"><ele>213.0</ele><time>2026-04-19T12:14:46.042Z</time></trkpt><trkpt lat="44.8657717" lon="8.0148083"><ele>213.0</ele><time>2026-04-19T12:14:48.051Z</time></trkpt><trkpt lat="44.865825" lon="8.01488"><ele>213.0</ele><time>2026-04-19T12:14:50.053Z</time></trkpt><trkpt lat="44.86588" lon="8.01493"><ele>213.0</ele><time>2026-04-19T12:14:52.047Z</time></trkpt><trkpt lat="44.86594" lon="8.0149767"><ele>213.0</ele><time>2026-04-19T12:14:54.046Z</time></trkpt><trkpt lat="44.8659867" lon="8.0150633"><ele>213.0</ele><time>2026-04-19T12:14:57.052Z</time></trkpt><trkpt lat="44.8659967" lon="8.0151833"><ele>213.0</ele><time>2026-04-19T12:14:59.103Z</time></trkpt><trkpt lat="44.866035" lon="8.01533"><ele>212.2</ele><time>2026-04-19T12:15:01.044Z</time></trkpt><trkpt lat="44.8661033" lon="8.0154817"><ele>211.4</ele><time>2026-04-19T12:15:03.042Z</time></trkpt><trkpt lat="44.86614" lon="8.015555"><ele>210.6</ele><time>2026-04-19T12:15:04.048Z</time></trkpt><trkpt lat="44.8662283" lon="8.01567"><ele>209.79999999999998</ele><time>2026-04-19T12:15:06.043Z</time></trkpt><trkpt lat="44.866325" lon="8.0157317"><ele>209.0</ele><time>2026-04-19T12:15:08.046Z</time></trkpt><trkpt lat="44.86644" lon="8.01578"><ele>209.00000000000003</ele><time>2026-04-19T12:15:10.047Z</time></trkpt><trkpt lat="44.8665433" lon="8.015825"><ele>209.0</ele><time>2026-04-19T12:15:12.044Z</time></trkpt><trkpt lat="44.8666117" lon="8.01584"><ele>209.0</ele><time>2026-04-19T12:15:14.047Z</time></trkpt><trkpt lat="44.8666817" lon="8.01586"><ele>209.0</ele><time>2026-04-19T12:15:16.041Z</time></trkpt><trkpt lat="44.8667617" lon="8.0158683"><ele>209.00000000000003</ele><time>2026-04-19T12:15:18.048Z</time></trkpt><trkpt lat="44.8668517" lon="8.0159267"><ele>209.0</ele><time>2026-04-19T12:15:20.047Z</time></trkpt><trkpt lat="44.8669483" lon="8.0159833"><ele>209.00000000000003</ele><time>2026-04-19T12:15:22.051Z</time></trkpt><trkpt lat="44.86702" lon="8.01599"><ele>209.0</ele><time>2026-04-19T12:15:24.048Z</time></trkpt><trkpt lat="44.867085" lon="8.0159517"><ele>209.0</ele><time>2026-04-19T12:15:26.048Z</time></trkpt><trkpt lat="44.8671717" lon="8.0159433"><ele>209.0</ele><time>2026-04-19T12:15:29.113Z</time></trkpt><trkpt lat="44.867255" lon="8.0159233"><ele>209.00000000000003</ele><time>2026-04-19T12:15:31.053Z</time></trkpt><trkpt lat="44.8673567" lon="8.0159117"><ele>209.0</ele><time>2026-04-19T12:15:33.047Z</time></trkpt><trkpt lat="44.867445" lon="8.0159383"><ele>209.00000000000003</ele><time>2026-04-19T12:15:35.102Z</time></trkpt><trkpt lat="44.86751" lon="8.016"><ele>209.0</ele><time>2026-04-19T12:15:38.048Z</time></trkpt><trkpt lat="44.8674967" lon="8.016115"><ele>209.0</ele><time>2026-04-19T12:15:41.051Z</time></trkpt><trkpt lat="44.8674517" lon="8.0162067"><ele>209.0</ele><time>2026-04-19T12:15:43.047Z</time></trkpt><trkpt lat="44.8674383" lon="8.016295"><ele>209.00000000000003</ele><time>2026-04-19T12:15:45.051Z</time></trkpt><trkpt lat="44.8674183" lon="8.0163883"><ele>209.0</ele><time>2026-04-19T12:15:49.042Z</time></trkpt><trkpt lat="44.867335" lon="8.0163783"><ele>209.0</ele><time>2026-04-19T12:15:51.046Z</time></trkpt><trkpt lat="44.8672417" lon="8.01637"><ele>209.0</ele><time>2026-04-19T12:15:53.055Z</time></trkpt><trkpt lat="44.86719" lon="8.0164433"><ele>209.0</ele><time>2026-04-19T12:15:56.042Z</time></trkpt><trkpt lat="44.8671517" lon="8.016575"><ele>209.0</ele><time>2026-04-19T12:15:58.048Z</time></trkpt><trkpt lat="44.8670867" lon="8.0167083"><ele>209.0</ele><time>2026-04-19T12:16:00.039Z</time></trkpt><trkpt lat="44.8670017" lon="8.01673"><ele>209.2</ele><time>2026-04-19T12:16:11.057Z</time></trkpt><trkpt lat="44.86692" lon="8.016685"><ele>209.39999999999998</ele><time>2026-04-19T12:16:14.055Z</time></trkpt><trkpt lat="44.866845" lon="8.0167117"><ele>209.6</ele><time>2026-04-19T12:16:16.046Z</time></trkpt><trkpt lat="44.8667517" lon="8.0166967"><ele>209.8</ele><time>2026-04-19T12:16:18.047Z</time></trkpt><trkpt lat="44.8666583" lon="8.01659"><ele>210.0</ele><time>2026-04-19T12:16:20.046Z</time></trkpt><trkpt lat="44.8666" lon="8.01653"><ele>210.33333333333334</ele><time>2026-04-19T12:16:21.045Z</time></trkpt><trkpt lat="44.8665317" lon="8.0164767"><ele>210.66666666666669</ele><time>2026-04-19T12:16:22.045Z</time></trkpt><trkpt lat="44.8664667" lon="8.0164433"><ele>211.0</ele><time>2026-04-19T12:16:23.052Z</time></trkpt><trkpt lat="44.8663917" lon="8.0164283"><ele>211.33333333333334</ele><time>2026-04-19T12:16:24.056Z</time></trkpt><trkpt lat="44.86629" lon="8.0163917"><ele>211.66666666666669</ele><time>2026-04-19T12:16:26.047Z</time></trkpt><trkpt lat="44.8661983" lon="8.0163017"><ele>212.0</ele><time>2026-04-19T12:16:28.042Z</time></trkpt><trkpt lat="44.866095" lon="8.0162467"><ele>212.00000000000003</ele><time>2026-04-19T12:16:30.039Z</time></trkpt><trkpt lat="44.8660317" lon="8.0162333"><ele>212.0</ele><time>2026-04-19T12:16:31.048Z</time></trkpt><trkpt lat="44.865915" lon="8.0162233"><ele>212.0</ele><time>2026-04-19T12:16:33.046Z</time></trkpt><trkpt lat="44.86585" lon="8.0162317"><ele>212.0</ele><time>2026-04-19T12:16:34.042Z</time></trkpt><trkpt lat="44.8657883" lon="8.016255"><ele>212.00000000000003</ele><time>2026-04-19T12:16:35.105Z</time></trkpt><trkpt lat="44.8657333" lon="8.0163067"><ele>212.0</ele><time>2026-04-19T12:16:36.042Z</time></trkpt><trkpt lat="44.8656817" lon="8.0163833"><ele>212.50000000000003</ele><time>2026-04-19T12:16:37.046Z</time></trkpt><trkpt lat="44.8656333" lon="8.016465"><ele>213.0</ele><time>2026-04-19T12:16:38.042Z</time></trkpt><trkpt lat="44.8655917" lon="8.0165333"><ele>213.5</ele><time>2026-04-19T12:16:39.044Z</time></trkpt><trkpt lat="44.86552" lon="8.016595"><ele>214.0</ele><time>2026-04-19T12:16:41.055Z</time></trkpt><trkpt lat="44.865465" lon="8.0164917"><ele>214.50000000000003</ele><time>2026-04-19T12:16:43.054Z</time></trkpt><trkpt lat="44.8654167" lon="8.016415"><ele>215.0</ele><time>2026-04-19T12:16:45.051Z</time></trkpt><trkpt lat="44.8653217" lon="8.0163483"><ele>215.0</ele><time>2026-04-19T12:16:53.049Z</time></trkpt><trkpt lat="44.8652183" lon="8.0163533"><ele>215.0</ele><time>2026-04-19T12:16:55.04Z</time></trkpt><trkpt lat="44.865095" lon="8.0163967"><ele>215.0</ele><time>2026-04-19T12:16:57.044Z</time></trkpt><trkpt lat="44.8650333" lon="8.016425"><ele>215.0</ele><time>2026-04-19T12:16:58.044Z</time></trkpt><trkpt lat="44.8649333" lon="8.01649"><ele>215.0</ele><time>2026-04-19T12:17:00.037Z</time></trkpt><trkpt lat="44.8648633" lon="8.0165433"><ele>214.83333333333334</ele><time>2026-04-19T12:17:03.046Z</time></trkpt><trkpt lat="44.864775" lon="8.0165817"><ele>214.66666666666669</ele><time>2026-04-19T12:17:06.039Z</time></trkpt><trkpt lat="44.8646983" lon="8.0166517"><ele>214.5</ele><time>2026-04-19T12:17:08.043Z</time></trkpt><trkpt lat="44.8646333" lon="8.0167183"><ele>214.33333333333331</ele><time>2026-04-19T12:17:10.049Z</time></trkpt><trkpt lat="44.8645567" lon="8.0167183"><ele>214.16666666666666</ele><time>2026-04-19T12:17:13.047Z</time></trkpt><trkpt lat="44.8644933" lon="8.016645"><ele>214.0</ele><time>2026-04-19T12:17:16.041Z</time></trkpt><trkpt lat="44.86443" lon="8.0166"><ele>213.99999999999997</ele><time>2026-04-19T12:17:18.041Z</time></trkpt><trkpt lat="44.86435" lon="8.01655"><ele>214.0</ele><time>2026-04-19T12:17:21.048Z</time></trkpt><trkpt lat="44.8642733" lon="8.0165317"><ele>214.0</ele><time>2026-04-19T12:17:23.058Z</time></trkpt><trkpt lat="44.86421" lon="8.0165317"><ele>214.0</ele><time>2026-04-19T12:17:25.053Z</time></trkpt><trkpt lat="44.8640733" lon="8.0165533"><ele>213.99999999999997</ele><time>2026-04-19T12:18:02.037Z</time></trkpt><trkpt lat="44.8640033" lon="8.0165633"><ele>214.0</ele><time>2026-04-19T12:18:04.046Z</time></trkpt><trkpt lat="44.86387" lon="8.016515"><ele>213.85714285714286</ele><time>2026-04-19T12:18:48.042Z</time></trkpt><trkpt lat="44.8637917" lon="8.0165233"><ele>213.71428571428572</ele><time>2026-04-19T12:18:50.044Z</time></trkpt><trkpt lat="44.863725" lon="8.016505"><ele>213.57142857142856</ele><time>2026-04-19T12:18:52.045Z</time></trkpt><trkpt lat="44.8636483" lon="8.0164867"><ele>213.42857142857144</ele><time>2026-04-19T12:18:54.037Z</time></trkpt><trkpt lat="44.863585" lon="8.01649"><ele>213.28571428571428</ele><time>2026-04-19T12:18:56.044Z</time></trkpt><trkpt lat="44.8635033" lon="8.0165017"><ele>213.14285714285714</ele><time>2026-04-19T12:18:58.051Z</time></trkpt><trkpt lat="44.8634267" lon="8.0164983"><ele>213.0</ele><time>2026-04-19T12:19:00.044Z</time></trkpt><trkpt lat="44.8633567" lon="8.0165183"><ele>212.99999999999997</ele><time>2026-04-19T12:19:02.043Z</time></trkpt><trkpt lat="44.8632867" lon="8.0165233"><ele>213.0</ele><time>2026-04-19T12:19:04.047Z</time></trkpt><trkpt lat="44.8632183" lon="8.016535"><ele>213.0</ele><time>2026-04-19T12:19:06.042Z</time></trkpt><trkpt lat="44.8631333" lon="8.0165133"><ele>213.0</ele><time>2026-04-19T12:19:10.053Z</time></trkpt><trkpt lat="44.8630783" lon="8.01647"><ele>213.0</ele><time>2026-04-19T12:19:12.039Z</time></trkpt><trkpt lat="44.8630033" lon="8.0164267"><ele>212.99999999999997</ele><time>2026-04-19T12:19:15.048Z</time></trkpt><trkpt lat="44.8629383" lon="8.01645"><ele>213.0</ele><time>2026-04-19T12:19:17.055Z</time></trkpt><trkpt lat="44.8628333" lon="8.016555"><ele>213.0</ele><time>2026-04-19T12:19:19.043Z</time></trkpt><trkpt lat="44.8627483" lon="8.0166383"><ele>213.0</ele><time>2026-04-19T12:19:20.042Z</time></trkpt><trkpt lat="44.862645" lon="8.0167283"><ele>213.0</ele><time>2026-04-19T12:19:21.05Z</time></trkpt><trkpt lat="44.8625483" lon="8.0168117"><ele>213.0</ele><time>2026-04-19T12:19:22.047Z</time></trkpt><trkpt lat="44.86247" lon="8.0168917"><ele>213.0</ele><time>2026-04-19T12:19:23.064Z</time></trkpt><trkpt lat="44.86243" lon="8.0169817"><ele>214.2</ele><time>2026-04-19T12:19:24.045Z</time></trkpt><trkpt lat="44.862395" lon="8.01709"><ele>215.4</ele><time>2026-04-19T12:19:25.045Z</time></trkpt><trkpt lat="44.86236" lon="8.01722"><ele>216.59999999999997</ele><time>2026-04-19T12:19:26.05Z</time></trkpt><trkpt lat="44.86234" lon="8.0173633"><ele>217.79999999999998</ele><time>2026-04-19T12:19:27.038Z</time></trkpt><trkpt lat="44.8623367" lon="8.0175083"><ele>219.0</ele><time>2026-04-19T12:19:28.05Z</time></trkpt><trkpt lat="44.8623483" lon="8.0176383"><ele>220.2</ele><time>2026-04-19T12:19:29.107Z</time></trkpt><trkpt lat="44.8623717" lon="8.017755"><ele>221.39999999999998</ele><time>2026-04-19T12:19:30.043Z</time></trkpt><trkpt lat="44.8624183" lon="8.0178683"><ele>222.6</ele><time>2026-04-19T12:19:31.05Z</time></trkpt><trkpt lat="44.862485" lon="8.01799"><ele>223.8</ele><time>2026-04-19T12:19:32.046Z</time></trkpt><trkpt lat="44.86256" lon="8.01813"><ele>225.0</ele><time>2026-04-19T12:19:33.048Z</time></trkpt><trkpt lat="44.8626467" lon="8.01829"><ele>228.4</ele><time>2026-04-19T12:19:34.05Z</time></trkpt><trkpt lat="44.8627217" lon="8.018455"><ele>231.8</ele><time>2026-04-19T12:19:35.102Z</time></trkpt><trkpt lat="44.8627883" lon="8.0185883"><ele>235.2</ele><time>2026-04-19T12:19:36.04Z</time></trkpt><trkpt lat="44.8628483" lon="8.0187117"><ele>238.6</ele><time>2026-04-19T12:19:37.053Z</time></trkpt><trkpt lat="44.86287" lon="8.0188133"><ele>242.0</ele><time>2026-04-19T12:19:38.045Z</time></trkpt><trkpt lat="44.86287" lon="8.01892"><ele>242.00000000000003</ele><time>2026-04-19T12:19:39.042Z</time></trkpt><trkpt lat="44.862865" lon="8.019035"><ele>242.0</ele><time>2026-04-19T12:19:40.045Z</time></trkpt><trkpt lat="44.86286" lon="8.0191467"><ele>242.0</ele><time>2026-04-19T12:19:41.052Z</time></trkpt><trkpt lat="44.8628467" lon="8.0192533"><ele>242.0</ele><time>2026-04-19T12:19:42.052Z</time></trkpt><trkpt lat="44.8628233" lon="8.01936"><ele>242.00000000000003</ele><time>2026-04-19T12:19:43.04Z</time></trkpt><trkpt lat="44.862795" lon="8.0194767"><ele>242.0</ele><time>2026-04-19T12:19:44.046Z</time></trkpt><trkpt lat="44.8627683" lon="8.0196067"><ele>242.0</ele><time>2026-04-19T12:19:45.041Z</time></trkpt><trkpt lat="44.86274" lon="8.0197467"><ele>242.0</ele><time>2026-04-19T12:19:46.046Z</time></trkpt><trkpt lat="44.8627083" lon="8.0198817"><ele>242.0</ele><time>2026-04-19T12:19:47.058Z</time></trkpt><trkpt lat="44.8626767" lon="8.0200217"><ele>242.0</ele><time>2026-04-19T12:19:48.047Z</time></trkpt><trkpt lat="44.8626383" lon="8.0201517"><ele>242.0</ele><time>2026-04-19T12:19:49.05Z</time></trkpt><trkpt lat="44.8626" lon="8.0202817"><ele>242.0</ele><time>2026-04-19T12:19:50.045Z</time></trkpt><trkpt lat="44.862555" lon="8.02041"><ele>242.0</ele><time>2026-04-19T12:19:51.04Z</time></trkpt><trkpt lat="44.862515" lon="8.02054"><ele>242.0</ele><time>2026-04-19T12:19:52.041Z</time></trkpt><trkpt lat="44.8624767" lon="8.020675"><ele>242.0</ele><time>2026-04-19T12:19:53.063Z</time></trkpt><trkpt lat="44.8624417" lon="8.0208083"><ele>242.0</ele><time>2026-04-19T12:19:54.048Z</time></trkpt><trkpt lat="44.8624133" lon="8.0209367"><ele>242.66666666666669</ele><time>2026-04-19T12:19:55.053Z</time></trkpt><trkpt lat="44.8623917" lon="8.0210567"><ele>243.33333333333334</ele><time>2026-04-19T12:19:56.043Z</time></trkpt><trkpt lat="44.8623767" lon="8.0211617"><ele>244.0</ele><time>2026-04-19T12:19:57.051Z</time></trkpt><trkpt lat="44.862375" lon="8.0212833"><ele>244.66666666666669</ele><time>2026-04-19T12:19:59.102Z</time></trkpt><trkpt lat="44.8623283" lon="8.02139"><ele>245.33333333333334</ele><time>2026-04-19T12:20:02.042Z</time></trkpt><trkpt lat="44.8622883" lon="8.0215117"><ele>246.0</ele><time>2026-04-19T12:20:04.046Z</time></trkpt><trkpt lat="44.8622767" lon="8.0216033"><ele>247.0</ele><time>2026-04-19T12:20:05.097Z</time></trkpt><trkpt lat="44.8622533" lon="8.0217067"><ele>248.00000000000003</ele><time>2026-04-19T12:20:06.04Z</time></trkpt><trkpt lat="44.8622333" lon="8.0218217"><ele>249.00000000000003</ele><time>2026-04-19T12:20:07.05Z</time></trkpt><trkpt lat="44.8622133" lon="8.0219133"><ele>250.0</ele><time>2026-04-19T12:20:08.047Z</time></trkpt><trkpt lat="44.8621717" lon="8.022065"><ele>251.0</ele><time>2026-04-19T12:20:10.047Z</time></trkpt><trkpt lat="44.8621283" lon="8.0222067"><ele>251.00000000000003</ele><time>2026-04-19T12:20:12.043Z</time></trkpt><trkpt lat="44.862095" lon="8.02236"><ele>251.0</ele><time>2026-04-19T12:20:14.048Z</time></trkpt><trkpt lat="44.862075" lon="8.0224483"><ele>251.0</ele><time>2026-04-19T12:20:15.047Z</time></trkpt><trkpt lat="44.862045" lon="8.0225367"><ele>251.0</ele><time>2026-04-19T12:20:16.051Z</time></trkpt><trkpt lat="44.862015" lon="8.0226233"><ele>251.00000000000003</ele><time>2026-04-19T12:20:17.051Z</time></trkpt><trkpt lat="44.8619483" lon="8.0227483"><ele>251.0</ele><time>2026-04-19T12:20:19.048Z</time></trkpt><trkpt lat="44.8618967" lon="8.02283"><ele>252.28571428571425</ele><time>2026-04-19T12:20:21.047Z</time></trkpt><trkpt lat="44.86184" lon="8.022935"><ele>253.57142857142856</ele><time>2026-04-19T12:20:24.046Z</time></trkpt><trkpt lat="44.861795" lon="8.023015"><ele>254.85714285714286</ele><time>2026-04-19T12:20:26.039Z</time></trkpt><trkpt lat="44.86176" lon="8.0230967"><ele>256.1428571428571</ele><time>2026-04-19T12:20:28.043Z</time></trkpt><trkpt lat="44.8617833" lon="8.0231933"><ele>257.42857142857144</ele><time>2026-04-19T12:20:31.044Z</time></trkpt><trkpt lat="44.861805" lon="8.0232883"><ele>258.7142857142857</ele><time>2026-04-19T12:20:33.043Z</time></trkpt><trkpt lat="44.8617933" lon="8.0233783"><ele>260.0</ele><time>2026-04-19T12:20:35.108Z</time></trkpt><trkpt lat="44.8617583" lon="8.023455"><ele>262.6</ele><time>2026-04-19T12:20:38.042Z</time></trkpt><trkpt lat="44.8616983" lon="8.0235167"><ele>265.2</ele><time>2026-04-19T12:20:41.058Z</time></trkpt><trkpt lat="44.8616333" lon="8.02355"><ele>267.8</ele><time>2026-04-19T12:20:44.048Z</time></trkpt><trkpt lat="44.86156" lon="8.0235683"><ele>270.4</ele><time>2026-04-19T12:21:11.064Z</time></trkpt><trkpt lat="44.861445" lon="8.023525"><ele>273.0</ele><time>2026-04-19T12:21:13.049Z</time></trkpt><trkpt lat="44.8613433" lon="8.0234067"><ele>273.0</ele><time>2026-04-19T12:21:15.044Z</time></trkpt><trkpt lat="44.8612967" lon="8.02334"><ele>273.0</ele><time>2026-04-19T12:21:16.048Z</time></trkpt><trkpt lat="44.8612117" lon="8.0232283"><ele>273.0</ele><time>2026-04-19T12:21:18.047Z</time></trkpt><trkpt lat="44.8611533" lon="8.0231867"><ele>273.0</ele><time>2026-04-19T12:21:19.05Z</time></trkpt><trkpt lat="44.8610833" lon="8.023125"><ele>273.0</ele><time>2026-04-19T12:21:20.046Z</time></trkpt><trkpt lat="44.8609933" lon="8.02311"><ele>273.0</ele><time>2026-04-19T12:21:22.046Z</time></trkpt><trkpt lat="44.860945" lon="8.023185"><ele>274.8333333333333</ele><time>2026-04-19T12:21:24.056Z</time></trkpt><trkpt lat="44.8608917" lon="8.0232517"><ele>276.6666666666667</ele><time>2026-04-19T12:21:26.043Z</time></trkpt><trkpt lat="44.8608383" lon="8.0233083"><ele>278.5</ele><time>2026-04-19T12:21:29.096Z</time></trkpt><trkpt lat="44.8607767" lon="8.0234317"><ele>280.33333333333337</ele><time>2026-04-19T12:21:31.044Z</time></trkpt><trkpt lat="44.86074" lon="8.0235183"><ele>282.1666666666667</ele><time>2026-04-19T12:21:32.046Z</time></trkpt><trkpt lat="44.860705" lon="8.0236167"><ele>284.0</ele><time>2026-04-19T12:21:33.042Z</time></trkpt><trkpt lat="44.8606617" lon="8.023725"><ele>284.1666666666667</ele><time>2026-04-19T12:21:34.044Z</time></trkpt><trkpt lat="44.8606183" lon="8.0238267"><ele>284.33333333333337</ele><time>2026-04-19T12:21:35.103Z</time></trkpt><trkpt lat="44.860575" lon="8.02392"><ele>284.5</ele><time>2026-04-19T12:21:36.044Z</time></trkpt><trkpt lat="44.8605367" lon="8.024015"><ele>284.6666666666667</ele><time>2026-04-19T12:21:37.044Z</time></trkpt><trkpt lat="44.86053" lon="8.02411"><ele>284.8333333333333</ele><time>2026-04-19T12:21:38.038Z</time></trkpt><trkpt lat="44.86055" lon="8.024205"><ele>285.0</ele><time>2026-04-19T12:21:39.046Z</time></trkpt><trkpt lat="44.8605883" lon="8.0242967"><ele>285.0</ele><time>2026-04-19T12:21:40.049Z</time></trkpt><trkpt lat="44.860645" lon="8.0243833"><ele>285.0</ele><time>2026-04-19T12:21:41.065Z</time></trkpt><trkpt lat="44.8607033" lon="8.024455"><ele>285.0</ele><time>2026-04-19T12:21:42.045Z</time></trkpt><trkpt lat="44.8607467" lon="8.0245217"><ele>285.0</ele><time>2026-04-19T12:21:43.048Z</time></trkpt><trkpt lat="44.86078" lon="8.024605"><ele>285.0</ele><time>2026-04-19T12:21:44.044Z</time></trkpt><trkpt lat="44.8607717" lon="8.0247233"><ele>285.0</ele><time>2026-04-19T12:21:45.039Z</time></trkpt><trkpt lat="44.8607567" lon="8.0248233"><ele>285.0</ele><time>2026-04-19T12:21:46.036Z</time></trkpt><trkpt lat="44.8607317" lon="8.0249083"><ele>285.0</ele><time>2026-04-19T12:21:47.072Z</time></trkpt><trkpt lat="44.8606533" lon="8.0249983"><ele>285.0</ele><time>2026-04-19T12:21:48.048Z</time></trkpt><trkpt lat="44.860575" lon="8.0251"><ele>285.0</ele><time>2026-04-19T12:21:49.038Z</time></trkpt><trkpt lat="44.860485" lon="8.0252183"><ele>285.0</ele><time>2026-04-19T12:21:50.045Z</time></trkpt><trkpt lat="44.8603867" lon="8.0253417"><ele>285.0</ele><time>2026-04-19T12:21:51.045Z</time></trkpt><trkpt lat="44.860285" lon="8.0254767"><ele>285.0</ele><time>2026-04-19T12:21:52.042Z</time></trkpt><trkpt lat="44.860175" lon="8.0256233"><ele>285.0</ele><time>2026-04-19T12:21:53.065Z</time></trkpt><trkpt lat="44.8600733" lon="8.02576"><ele>285.0</ele><time>2026-04-19T12:21:54.042Z</time></trkpt><trkpt lat="44.8599767" lon="8.0258783"><ele>287.75</ele><time>2026-04-19T12:21:55.051Z</time></trkpt><trkpt lat="44.8598817" lon="8.0259783"><ele>290.5</ele><time>2026-04-19T12:21:56.043Z</time></trkpt><trkpt lat="44.859775" lon="8.0260617"><ele>293.25</ele><time>2026-04-19T12:21:57.047Z</time></trkpt><trkpt lat="44.8596683" lon="8.026135"><ele>296.0</ele><time>2026-04-19T12:21:58.053Z</time></trkpt><trkpt lat="44.8595617" lon="8.0262067"><ele>296.0</ele><time>2026-04-19T12:21:59.108Z</time></trkpt><trkpt lat="44.8594583" lon="8.0262867"><ele>296.0</ele><time>2026-04-19T12:22:00.042Z</time></trkpt><trkpt lat="44.8593533" lon="8.0263717"><ele>296.0</ele><time>2026-04-19T12:22:01.048Z</time></trkpt><trkpt lat="44.8592433" lon="8.0264617"><ele>296.0</ele><time>2026-04-19T12:22:02.047Z</time></trkpt><trkpt lat="44.8591283" lon="8.02656"><ele>296.75</ele><time>2026-04-19T12:22:03.048Z</time></trkpt><trkpt lat="44.859015" lon="8.0266483"><ele>297.5</ele><time>2026-04-19T12:22:04.042Z</time></trkpt><trkpt lat="44.858915" lon="8.0267283"><ele>298.25</ele><time>2026-04-19T12:22:05.105Z</time></trkpt><trkpt lat="44.858825" lon="8.0268017"><ele>299.0</ele><time>2026-04-19T12:22:06.045Z</time></trkpt><trkpt lat="44.8587367" lon="8.0268767"><ele>299.0</ele><time>2026-04-19T12:22:07.04Z</time></trkpt><trkpt lat="44.8586517" lon="8.0269667"><ele>299.0</ele><time>2026-04-19T12:22:08.047Z</time></trkpt><trkpt lat="44.8585667" lon="8.0270667"><ele>299.0</ele><time>2026-04-19T12:22:09.044Z</time></trkpt><trkpt lat="44.8584883" lon="8.0271733"><ele>299.0</ele><time>2026-04-19T12:22:10.047Z</time></trkpt><trkpt lat="44.8584083" lon="8.0272883"><ele>299.0</ele><time>2026-04-19T12:22:11.07Z</time></trkpt><trkpt lat="44.8583267" lon="8.0274133"><ele>297.25</ele><time>2026-04-19T12:22:12.039Z</time></trkpt><trkpt lat="44.85824" lon="8.0275467"><ele>295.5</ele><time>2026-04-19T12:22:13.038Z</time></trkpt><trkpt lat="44.8581483" lon="8.0276833"><ele>293.75</ele><time>2026-04-19T12:22:14.042Z</time></trkpt><trkpt lat="44.8580567" lon="8.0278"><ele>292.0</ele><time>2026-04-19T12:22:15.045Z</time></trkpt><trkpt lat="44.8579783" lon="8.027875"><ele>292.0</ele><time>2026-04-19T12:22:16.044Z</time></trkpt><trkpt lat="44.857905" lon="8.02792"><ele>292.0</ele><time>2026-04-19T12:22:17.061Z</time></trkpt><trkpt lat="44.857825" lon="8.027945"><ele>292.0</ele><time>2026-04-19T12:22:18.041Z</time></trkpt><trkpt lat="44.85775" lon="8.0279467"><ele>292.0</ele><time>2026-04-19T12:22:19.046Z</time></trkpt><trkpt lat="44.8576833" lon="8.027935"><ele>292.0</ele><time>2026-04-19T12:22:20.044Z</time></trkpt><trkpt lat="44.8575883" lon="8.027905"><ele>292.0</ele><time>2026-04-19T12:22:22.044Z</time></trkpt><trkpt lat="44.8575017" lon="8.0278017"><ele>290.8333333333333</ele><time>2026-04-19T12:22:33.044Z</time></trkpt><trkpt lat="44.8574367" lon="8.0277383"><ele>289.66666666666663</ele><time>2026-04-19T12:22:34.046Z</time></trkpt><trkpt lat="44.8573517" lon="8.0276717"><ele>288.5</ele><time>2026-04-19T12:22:35.105Z</time></trkpt><trkpt lat="44.8572667" lon="8.0276133"><ele>287.3333333333333</ele><time>2026-04-19T12:22:36.044Z</time></trkpt><trkpt lat="44.857185" lon="8.0275617"><ele>286.1666666666667</ele><time>2026-04-19T12:22:37.04Z</time></trkpt><trkpt lat="44.8571083" lon="8.0275233"><ele>285.0</ele><time>2026-04-19T12:22:38.043Z</time></trkpt><trkpt lat="44.85704" lon="8.0274983"><ele>284.0</ele><time>2026-04-19T12:22:39.047Z</time></trkpt><trkpt lat="44.8569767" lon="8.027475"><ele>283.0</ele><time>2026-04-19T12:22:40.043Z</time></trkpt><trkpt lat="44.85688" lon="8.0274283"><ele>282.0</ele><time>2026-04-19T12:22:42.053Z</time></trkpt><trkpt lat="44.85685" lon="8.0273"><ele>281.0</ele><time>2026-04-19T12:22:45.049Z</time></trkpt><trkpt lat="44.8568667" lon="8.0271333"><ele>280.0</ele><time>2026-04-19T12:22:47.059Z</time></trkpt><trkpt lat="44.8568783" lon="8.027035"><ele>280.0</ele><time>2026-04-19T12:22:48.043Z</time></trkpt><trkpt lat="44.8568917" lon="8.026935"><ele>280.0</ele><time>2026-04-19T12:22:49.047Z</time></trkpt><trkpt lat="44.8569033" lon="8.0268333"><ele>280.0</ele><time>2026-04-19T12:22:50.043Z</time></trkpt><trkpt lat="44.8569133" lon="8.02673"><ele>280.0</ele><time>2026-04-19T12:22:51.051Z</time></trkpt><trkpt lat="44.8569217" lon="8.026625"><ele>280.0</ele><time>2026-04-19T12:22:52.048Z</time></trkpt><trkpt lat="44.856925" lon="8.0265167"><ele>280.0</ele><time>2026-04-19T12:22:53.058Z</time></trkpt><trkpt lat="44.856925" lon="8.02641"><ele>280.0</ele><time>2026-04-19T12:22:54.037Z</time></trkpt><trkpt lat="44.85692" lon="8.0263117"><ele>279.8333333333333</ele><time>2026-04-19T12:22:55.045Z</time></trkpt><trkpt lat="44.856895" lon="8.0261533"><ele>279.66666666666663</ele><time>2026-04-19T12:22:57.042Z</time></trkpt><trkpt lat="44.8568483" lon="8.0260183"><ele>279.5</ele><time>2026-04-19T12:22:59.099Z</time></trkpt><trkpt lat="44.8568133" lon="8.0259433"><ele>279.3333333333333</ele><time>2026-04-19T12:23:00.044Z</time></trkpt><trkpt lat="44.856765" lon="8.0258733"><ele>279.1666666666667</ele><time>2026-04-19T12:23:01.041Z</time></trkpt><trkpt lat="44.8567117" lon="8.02581"><ele>279.0</ele><time>2026-04-19T12:23:02.047Z</time></trkpt><trkpt lat="44.8566567" lon="8.0257517"><ele>282.3333333333333</ele><time>2026-04-19T12:23:03.046Z</time></trkpt><trkpt lat="44.8565967" lon="8.0257017"><ele>285.6666666666667</ele><time>2026-04-19T12:23:04.041Z</time></trkpt><trkpt lat="44.8565317" lon="8.02566"><ele>289.0</ele><time>2026-04-19T12:23:05.103Z</time></trkpt><trkpt lat="44.8564667" lon="8.0256383"><ele>292.33333333333337</ele><time>2026-04-19T12:23:06.041Z</time></trkpt><trkpt lat="44.8563483" lon="8.0256367"><ele>295.6666666666667</ele><time>2026-04-19T12:23:08.051Z</time></trkpt><trkpt lat="44.8562333" lon="8.0256433"><ele>299.0</ele><time>2026-04-19T12:23:10.05Z</time></trkpt><trkpt lat="44.85616" lon="8.0256483"><ele>299.0</ele><time>2026-04-19T12:23:11.056Z</time></trkpt><trkpt lat="44.8560833" lon="8.025655"><ele>299.0</ele><time>2026-04-19T12:23:12.043Z</time></trkpt><trkpt lat="44.856005" lon="8.0256633"><ele>299.0</ele><time>2026-04-19T12:23:13.048Z</time></trkpt><trkpt lat="44.8559233" lon="8.0256733"><ele>299.0</ele><time>2026-04-19T12:23:14.042Z</time></trkpt><trkpt lat="44.855855" lon="8.025675"><ele>299.0</ele><time>2026-04-19T12:23:15.046Z</time></trkpt><trkpt lat="44.85578" lon="8.0256617"><ele>299.0</ele><time>2026-04-19T12:23:16.048Z</time></trkpt><trkpt lat="44.8557033" lon="8.0256333"><ele>298.2</ele><time>2026-04-19T12:23:17.059Z</time></trkpt><trkpt lat="44.8556267" lon="8.0255833"><ele>297.4</ele><time>2026-04-19T12:23:18.047Z</time></trkpt><trkpt lat="44.85555" lon="8.02552"><ele>296.6</ele><time>2026-04-19T12:23:19.049Z</time></trkpt><trkpt lat="44.8554667" lon="8.0254517"><ele>295.8</ele><time>2026-04-19T12:23:20.048Z</time></trkpt><trkpt lat="44.8553717" lon="8.02539"><ele>295.0</ele><time>2026-04-19T12:23:21.049Z</time></trkpt><trkpt lat="44.855265" lon="8.02534"><ele>295.0</ele><time>2026-04-19T12:23:22.047Z</time></trkpt><trkpt lat="44.8551583" lon="8.025295"><ele>295.0</ele><time>2026-04-19T12:23:23.064Z</time></trkpt><trkpt lat="44.8550483" lon="8.0252517"><ele>295.0</ele><time>2026-04-19T12:23:24.049Z</time></trkpt><trkpt lat="44.8549417" lon="8.0252117"><ele>295.0</ele><time>2026-04-19T12:23:25.047Z</time></trkpt><trkpt lat="44.854835" lon="8.0251717"><ele>295.0</ele><time>2026-04-19T12:23:26.046Z</time></trkpt><trkpt lat="44.8547333" lon="8.025135"><ele>293.3333333333333</ele><time>2026-04-19T12:23:27.042Z</time></trkpt><trkpt lat="44.8546467" lon="8.0250933"><ele>291.66666666666663</ele><time>2026-04-19T12:23:28.049Z</time></trkpt><trkpt lat="44.85458" lon="8.0250433"><ele>290.0</ele><time>2026-04-19T12:23:29.115Z</time></trkpt><trkpt lat="44.85453" lon="8.0249717"><ele>288.3333333333333</ele><time>2026-04-19T12:23:30.041Z</time></trkpt><trkpt lat="44.8544883" lon="8.024865"><ele>286.6666666666667</ele><time>2026-04-19T12:23:31.048Z</time></trkpt><trkpt lat="44.85445" lon="8.02473"><ele>285.0</ele><time>2026-04-19T12:23:32.041Z</time></trkpt><trkpt lat="44.8544" lon="8.0246033"><ele>284.25</ele><time>2026-04-19T12:23:33.047Z</time></trkpt><trkpt lat="44.854335" lon="8.0244883"><ele>283.5</ele><time>2026-04-19T12:23:34.054Z</time></trkpt><trkpt lat="44.8541667" lon="8.0243067"><ele>282.75</ele><time>2026-04-19T12:23:36.037Z</time></trkpt><trkpt lat="44.8540733" lon="8.0242317"><ele>282.0</ele><time>2026-04-19T12:23:37.045Z</time></trkpt><trkpt lat="44.8539733" lon="8.0241617"><ele>279.25</ele><time>2026-04-19T12:23:38.045Z</time></trkpt><trkpt lat="44.8538767" lon="8.0240883"><ele>276.5</ele><time>2026-04-19T12:23:39.043Z</time></trkpt><trkpt lat="44.853775" lon="8.024015"><ele>273.75</ele><time>2026-04-19T12:23:40.048Z</time></trkpt><trkpt lat="44.8536717" lon="8.0239417"><ele>271.0</ele><time>2026-04-19T12:23:41.066Z</time></trkpt><trkpt lat="44.8535683" lon="8.0238683"><ele>271.0</ele><time>2026-04-19T12:23:42.048Z</time></trkpt><trkpt lat="44.8534683" lon="8.02379"><ele>271.0</ele><time>2026-04-19T12:23:43.047Z</time></trkpt><trkpt lat="44.85337" lon="8.023695"><ele>271.0</ele><time>2026-04-19T12:23:44.043Z</time></trkpt><trkpt lat="44.8532833" lon="8.0235917"><ele>271.0</ele><time>2026-04-19T12:23:45.044Z</time></trkpt><trkpt lat="44.8531967" lon="8.0234917"><ele>271.0</ele><time>2026-04-19T12:23:46.039Z</time></trkpt><trkpt lat="44.853105" lon="8.0233867"><ele>271.0</ele><time>2026-04-19T12:23:47.063Z</time></trkpt><trkpt lat="44.8530133" lon="8.0232783"><ele>271.0</ele><time>2026-04-19T12:23:48.046Z</time></trkpt><trkpt lat="44.8529217" lon="8.023175"><ele>271.0</ele><time>2026-04-19T12:23:49.041Z</time></trkpt><trkpt lat="44.85283" lon="8.0230783"><ele>271.0</ele><time>2026-04-19T12:23:50.041Z</time></trkpt><trkpt lat="44.8527417" lon="8.022985"><ele>271.0</ele><time>2026-04-19T12:23:51.047Z</time></trkpt><trkpt lat="44.8526583" lon="8.022905"><ele>271.0</ele><time>2026-04-19T12:23:52.046Z</time></trkpt><trkpt lat="44.852585" lon="8.0228383"><ele>271.0</ele><time>2026-04-19T12:23:53.066Z</time></trkpt><trkpt lat="44.8525283" lon="8.022775"><ele>271.0</ele><time>2026-04-19T12:23:54.047Z</time></trkpt><trkpt lat="44.8524617" lon="8.0226417"><ele>271.0</ele><time>2026-04-19T12:23:56.047Z</time></trkpt><trkpt lat="44.852465" lon="8.0225167"><ele>271.0</ele><time>2026-04-19T12:23:58.052Z</time></trkpt><trkpt lat="44.8525183" lon="8.022455"><ele>271.0</ele><time>2026-04-19T12:24:00.039Z</time></trkpt><trkpt lat="44.8525633" lon="8.0223783"><ele>271.0</ele><time>2026-04-19T12:24:02.042Z</time></trkpt><trkpt lat="44.8526583" lon="8.022375"><ele>271.0</ele><time>2026-04-19T12:24:05.098Z</time></trkpt><trkpt lat="44.8527633" lon="8.02247"><ele>271.0</ele><time>2026-04-19T12:24:07.044Z</time></trkpt><trkpt lat="44.8528133" lon="8.0225317"><ele>271.0</ele><time>2026-04-19T12:24:08.04Z</time></trkpt><trkpt lat="44.8529417" lon="8.0226133"><ele>271.0</ele><time>2026-04-19T12:24:10.041Z</time></trkpt><trkpt lat="44.85303" lon="8.0226367"><ele>271.0</ele><time>2026-04-19T12:24:11.069Z</time></trkpt><trkpt lat="44.8531067" lon="8.0226567"><ele>271.0</ele><time>2026-04-19T12:24:12.041Z</time></trkpt><trkpt lat="44.8532083" lon="8.0226933"><ele>271.0</ele><time>2026-04-19T12:24:13.054Z</time></trkpt><trkpt lat="44.8532933" lon="8.02272"><ele>271.0</ele><time>2026-04-19T12:24:14.046Z</time></trkpt><trkpt lat="44.85337" lon="8.0227267"><ele>271.0</ele><time>2026-04-19T12:24:15.047Z</time></trkpt><trkpt lat="44.8534667" lon="8.0227067"><ele>271.0</ele><time>2026-04-19T12:24:16.046Z</time></trkpt><trkpt lat="44.8535483" lon="8.0226683"><ele>271.0</ele><time>2026-04-19T12:24:17.062Z</time></trkpt><trkpt lat="44.8536167" lon="8.02263"><ele>271.0</ele><time>2026-04-19T12:24:18.043Z</time></trkpt><trkpt lat="44.8537283" lon="8.022605"><ele>271.0</ele><time>2026-04-19T12:24:20.044Z</time></trkpt><trkpt lat="44.8538517" lon="8.0225983"><ele>269.40000000000003</ele><time>2026-04-19T12:24:22.046Z</time></trkpt><trkpt lat="44.8539283" lon="8.0225967"><ele>267.8</ele><time>2026-04-19T12:24:23.063Z</time></trkpt><trkpt lat="44.8540017" lon="8.0225883"><ele>266.20000000000005</ele><time>2026-04-19T12:24:24.037Z</time></trkpt><trkpt lat="44.8541117" lon="8.0225633"><ele>264.6</ele><time>2026-04-19T12:24:25.041Z</time></trkpt><trkpt lat="44.8542133" lon="8.0225617"><ele>263.0</ele><time>2026-04-19T12:24:26.046Z</time></trkpt><trkpt lat="44.8543067" lon="8.022565"><ele>262.2</ele><time>2026-04-19T12:24:27.042Z</time></trkpt><trkpt lat="44.8543983" lon="8.0225617"><ele>261.4</ele><time>2026-04-19T12:24:28.052Z</time></trkpt><trkpt lat="44.85449" lon="8.02257"><ele>260.59999999999997</ele><time>2026-04-19T12:24:29.107Z</time></trkpt><trkpt lat="44.8545733" lon="8.0225867"><ele>259.8</ele><time>2026-04-19T12:24:30.038Z</time></trkpt><trkpt lat="44.8546733" lon="8.02259"><ele>259.0</ele><time>2026-04-19T12:24:31.044Z</time></trkpt><trkpt lat="44.8547583" lon="8.02256"><ele>259.0</ele><time>2026-04-19T12:24:32.046Z</time></trkpt><trkpt lat="44.8548683" lon="8.0225467"><ele>259.0</ele><time>2026-04-19T12:24:33.039Z</time></trkpt><trkpt lat="44.8549567" lon="8.0225017"><ele>259.0</ele><time>2026-04-19T12:24:34.045Z</time></trkpt><trkpt lat="44.855035" lon="8.022435"><ele>259.0</ele><time>2026-04-19T12:24:35.105Z</time></trkpt><trkpt lat="44.8551017" lon="8.0223533"><ele>259.0</ele><time>2026-04-19T12:24:36.04Z</time></trkpt><trkpt lat="44.8551717" lon="8.0222617"><ele>258.0</ele><time>2026-04-19T12:24:37.05Z</time></trkpt><trkpt lat="44.8552583" lon="8.02216"><ele>257.0</ele><time>2026-04-19T12:24:38.045Z</time></trkpt><trkpt lat="44.85535" lon="8.0220483"><ele>256.0</ele><time>2026-04-19T12:24:39.046Z</time></trkpt><trkpt lat="44.855435" lon="8.0219133"><ele>255.0</ele><time>2026-04-19T12:24:40.042Z</time></trkpt><trkpt lat="44.8555267" lon="8.021765"><ele>255.2</ele><time>2026-04-19T12:24:41.059Z</time></trkpt><trkpt lat="44.85559" lon="8.0216417"><ele>255.4</ele><time>2026-04-19T12:24:42.038Z</time></trkpt><trkpt lat="44.85565" lon="8.0215117"><ele>255.60000000000002</ele><time>2026-04-19T12:24:43.053Z</time></trkpt><trkpt lat="44.8557067" lon="8.0214"><ele>255.8</ele><time>2026-04-19T12:24:44.043Z</time></trkpt><trkpt lat="44.8557583" lon="8.021295"><ele>256.0</ele><time>2026-04-19T12:24:45.042Z</time></trkpt><trkpt lat="44.8558267" lon="8.021205"><ele>256.0</ele><time>2026-04-19T12:24:46.044Z</time></trkpt><trkpt lat="44.85591" lon="8.0211267"><ele>256.0</ele><time>2026-04-19T12:24:47.068Z</time></trkpt><trkpt lat="44.8560283" lon="8.0210567"><ele>256.0</ele><time>2026-04-19T12:24:48.045Z</time></trkpt><trkpt lat="44.8561433" lon="8.020975"><ele>256.0</ele><time>2026-04-19T12:24:49.052Z</time></trkpt><trkpt lat="44.8562567" lon="8.0208783"><ele>255.25</ele><time>2026-04-19T12:24:50.041Z</time></trkpt><trkpt lat="44.8563483" lon="8.020775"><ele>254.5</ele><time>2026-04-19T12:24:51.045Z</time></trkpt><trkpt lat="44.85645" lon="8.020685"><ele>253.75</ele><time>2026-04-19T12:24:52.044Z</time></trkpt><trkpt lat="44.856555" lon="8.0206"><ele>253.0</ele><time>2026-04-19T12:24:53.067Z</time></trkpt><trkpt lat="44.8566583" lon="8.02053"><ele>253.0</ele><time>2026-04-19T12:24:54.043Z</time></trkpt><trkpt lat="44.856765" lon="8.0204533"><ele>253.0</ele><time>2026-04-19T12:24:55.057Z</time></trkpt><trkpt lat="44.8568533" lon="8.0203867"><ele>253.0</ele><time>2026-04-19T12:24:56.036Z</time></trkpt><trkpt lat="44.856965" lon="8.0203317"><ele>253.0</ele><time>2026-04-19T12:24:57.044Z</time></trkpt><trkpt lat="44.85708" lon="8.0202733"><ele>251.25</ele><time>2026-04-19T12:24:58.046Z</time></trkpt><trkpt lat="44.85721" lon="8.0202233"><ele>249.5</ele><time>2026-04-19T12:24:59.106Z</time></trkpt><trkpt lat="44.8573567" lon="8.0202"><ele>247.75</ele><time>2026-04-19T12:25:00.035Z</time></trkpt><trkpt lat="44.8574833" lon="8.0201583"><ele>246.0</ele><time>2026-04-19T12:25:01.047Z</time></trkpt><trkpt lat="44.8576" lon="8.0201433"><ele>245.75</ele><time>2026-04-19T12:25:02.039Z</time></trkpt><trkpt lat="44.8577167" lon="8.02012"><ele>245.5</ele><time>2026-04-19T12:25:03.047Z</time></trkpt><trkpt lat="44.8578433" lon="8.0201067"><ele>245.25</ele><time>2026-04-19T12:25:04.047Z</time></trkpt><trkpt lat="44.8579817" lon="8.0201233"><ele>245.0</ele><time>2026-04-19T12:25:05.104Z</time></trkpt><trkpt lat="44.8581133" lon="8.0201317"><ele>245.0</ele><time>2026-04-19T12:25:06.04Z</time></trkpt><trkpt lat="44.8582417" lon="8.0201417"><ele>245.0</ele><time>2026-04-19T12:25:07.048Z</time></trkpt><trkpt lat="44.858365" lon="8.0201667"><ele>245.0</ele><time>2026-04-19T12:25:08.048Z</time></trkpt><trkpt lat="44.8584767" lon="8.0201783"><ele>245.0</ele><time>2026-04-19T12:25:09.049Z</time></trkpt><trkpt lat="44.85857" lon="8.0202267"><ele>243.33333333333334</ele><time>2026-04-19T12:25:10.047Z</time></trkpt><trkpt lat="44.858645" lon="8.0202867"><ele>241.66666666666669</ele><time>2026-04-19T12:25:11.066Z</time></trkpt><trkpt lat="44.8587033" lon="8.0203317"><ele>240.0</ele><time>2026-04-19T12:25:12.046Z</time></trkpt><trkpt lat="44.8587917" lon="8.020355"><ele>238.33333333333331</ele><time>2026-04-19T12:25:15.041Z</time></trkpt><trkpt lat="44.8588483" lon="8.0203133"><ele>236.66666666666666</ele><time>2026-04-19T12:25:16.05Z</time></trkpt><trkpt lat="44.858905" lon="8.02025"><ele>235.0</ele><time>2026-04-19T12:25:17.065Z</time></trkpt><trkpt lat="44.8589767" lon="8.0201583"><ele>234.99999999999997</ele><time>2026-04-19T12:25:19.041Z</time></trkpt><trkpt lat="44.859025" lon="8.0200833"><ele>235.0</ele><time>2026-04-19T12:25:21.039Z</time></trkpt><trkpt lat="44.859075" lon="8.0199867"><ele>235.0</ele><time>2026-04-19T12:25:23.067Z</time></trkpt><trkpt lat="44.8591517" lon="8.019895"><ele>235.0</ele><time>2026-04-19T12:25:25.049Z</time></trkpt><trkpt lat="44.8592167" lon="8.019825"><ele>234.99999999999997</ele><time>2026-04-19T12:25:26.043Z</time></trkpt><trkpt lat="44.8592783" lon="8.0197283"><ele>235.0</ele><time>2026-04-19T12:25:27.047Z</time></trkpt><trkpt lat="44.85935" lon="8.0196133"><ele>234.0</ele><time>2026-04-19T12:25:28.047Z</time></trkpt><trkpt lat="44.8594233" lon="8.0194917"><ele>233.0</ele><time>2026-04-19T12:25:29.09Z</time></trkpt><trkpt lat="44.85949" lon="8.019375"><ele>232.0</ele><time>2026-04-19T12:25:30.05Z</time></trkpt><trkpt lat="44.8595383" lon="8.01926"><ele>231.0</ele><time>2026-04-19T12:25:31.042Z</time></trkpt><trkpt lat="44.859575" lon="8.0191617"><ele>230.0</ele><time>2026-04-19T12:25:32.045Z</time></trkpt><trkpt lat="44.85958" lon="8.0190617"><ele>230.0</ele><time>2026-04-19T12:25:33.042Z</time></trkpt><trkpt lat="44.85957" lon="8.0189633"><ele>230.0</ele><time>2026-04-19T12:25:34.052Z</time></trkpt><trkpt lat="44.8595683" lon="8.0188417"><ele>230.0</ele><time>2026-04-19T12:25:35.104Z</time></trkpt><trkpt lat="44.8595883" lon="8.0186967"><ele>230.0</ele><time>2026-04-19T12:25:36.04Z</time></trkpt><trkpt lat="44.859625" lon="8.018565"><ele>230.0</ele><time>2026-04-19T12:25:37.05Z</time></trkpt><trkpt lat="44.859665" lon="8.0184533"><ele>230.0</ele><time>2026-04-19T12:25:38.042Z</time></trkpt><trkpt lat="44.8597217" lon="8.0183533"><ele>230.0</ele><time>2026-04-19T12:25:39.044Z</time></trkpt><trkpt lat="44.859775" lon="8.0182533"><ele>230.0</ele><time>2026-04-19T12:25:40.049Z</time></trkpt><trkpt lat="44.8598467" lon="8.0181533"><ele>230.0</ele><time>2026-04-19T12:25:41.069Z</time></trkpt><trkpt lat="44.859915" lon="8.0180617"><ele>230.0</ele><time>2026-04-19T12:25:42.036Z</time></trkpt><trkpt lat="44.8599733" lon="8.01799"><ele>231.2</ele><time>2026-04-19T12:25:43.052Z</time></trkpt><trkpt lat="44.86002" lon="8.017885"><ele>232.4</ele><time>2026-04-19T12:25:45.042Z</time></trkpt><trkpt lat="44.86001" lon="8.0177967"><ele>233.60000000000002</ele><time>2026-04-19T12:25:54.036Z</time></trkpt><trkpt lat="44.8599467" lon="8.0176133"><ele>234.8</ele><time>2026-04-19T12:25:56.037Z</time></trkpt><trkpt lat="44.8599117" lon="8.0175"><ele>236.0</ele><time>2026-04-19T12:25:57.051Z</time></trkpt><trkpt lat="44.8598617" lon="8.0173917"><ele>236.33333333333334</ele><time>2026-04-19T12:25:58.049Z</time></trkpt><trkpt lat="44.8598167" lon="8.0173083"><ele>236.66666666666669</ele><time>2026-04-19T12:25:59.106Z</time></trkpt><trkpt lat="44.8597567" lon="8.017235"><ele>237.0</ele><time>2026-04-19T12:26:00.038Z</time></trkpt><trkpt lat="44.8596967" lon="8.0171767"><ele>237.33333333333331</ele><time>2026-04-19T12:26:01.041Z</time></trkpt><trkpt lat="44.8595917" lon="8.017215"><ele>237.66666666666666</ele><time>2026-04-19T12:26:02.042Z</time></trkpt><trkpt lat="44.859495" lon="8.0172083"><ele>238.0</ele><time>2026-04-19T12:26:03.046Z</time></trkpt><trkpt lat="44.859385" lon="8.01723"><ele>238.75</ele><time>2026-04-19T12:26:04.049Z</time></trkpt><trkpt lat="44.8592767" lon="8.0172683"><ele>239.5</ele><time>2026-04-19T12:26:05.106Z</time></trkpt><trkpt lat="44.8591533" lon="8.0173267"><ele>240.25</ele><time>2026-04-19T12:26:06.046Z</time></trkpt><trkpt lat="44.8590083" lon="8.01741"><ele>241.0</ele><time>2026-04-19T12:26:07.049Z</time></trkpt><trkpt lat="44.85886" lon="8.0175067"><ele>242.5</ele><time>2026-04-19T12:26:08.046Z</time></trkpt><trkpt lat="44.8587483" lon="8.017605"><ele>244.0</ele><time>2026-04-19T12:26:09.041Z</time></trkpt><trkpt lat="44.858635" lon="8.017725"><ele>245.5</ele><time>2026-04-19T12:26:10.044Z</time></trkpt><trkpt lat="44.8585467" lon="8.0178483"><ele>247.0</ele><time>2026-04-19T12:26:11.066Z</time></trkpt><trkpt lat="44.858465" lon="8.0179567"><ele>248.39999999999998</ele><time>2026-04-19T12:26:12.039Z</time></trkpt><trkpt lat="44.8583867" lon="8.01805"><ele>249.79999999999998</ele><time>2026-04-19T12:26:13.054Z</time></trkpt><trkpt lat="44.8583333" lon="8.0181117"><ele>251.2</ele><time>2026-04-19T12:26:14.042Z</time></trkpt><trkpt lat="44.85829" lon="8.0179417"><ele>252.6</ele><time>2026-04-19T12:26:25.045Z</time></trkpt><trkpt lat="44.858155" lon="8.0179133"><ele>254.0</ele><time>2026-04-19T12:26:28.052Z</time></trkpt><trkpt lat="44.8581033" lon="8.0178583"><ele>254.00000000000003</ele><time>2026-04-19T12:26:30.042Z</time></trkpt><trkpt lat="44.85812" lon="8.0177683"><ele>254.0</ele><time>2026-04-19T12:26:32.047Z</time></trkpt><trkpt lat="44.8581783" lon="8.0176817"><ele>254.0</ele><time>2026-04-19T12:26:34.049Z</time></trkpt><trkpt lat="44.858175" lon="8.017575"><ele>254.0</ele><time>2026-04-19T12:26:36.038Z</time></trkpt><trkpt lat="44.8581917" lon="8.0174083"><ele>254.00000000000003</ele><time>2026-04-19T12:26:38.043Z</time></trkpt><trkpt lat="44.8582217" lon="8.0172867"><ele>254.0</ele><time>2026-04-19T12:26:40.044Z</time></trkpt><trkpt lat="44.8582483" lon="8.0171833"><ele>253.66666666666669</ele><time>2026-04-19T12:26:42.04Z</time></trkpt><trkpt lat="44.8582783" lon="8.017105"><ele>253.33333333333334</ele><time>2026-04-19T12:26:44.043Z</time></trkpt><trkpt lat="44.8583517" lon="8.0170433"><ele>253.0</ele><time>2026-04-19T12:26:47.075Z</time></trkpt><trkpt lat="44.8584583" lon="8.017015"><ele>252.66666666666669</ele><time>2026-04-19T12:26:49.044Z</time></trkpt><trkpt lat="44.858555" lon="8.0169517"><ele>252.33333333333334</ele><time>2026-04-19T12:26:51.042Z</time></trkpt><trkpt lat="44.85863" lon="8.0169"><ele>252.0</ele><time>2026-04-19T12:26:53.068Z</time></trkpt><trkpt lat="44.8586667" lon="8.0168017"><ele>251.0</ele><time>2026-04-19T12:26:55.048Z</time></trkpt><trkpt lat="44.8586833" lon="8.0166867"><ele>250.0</ele><time>2026-04-19T12:26:57.039Z</time></trkpt><trkpt lat="44.85868" lon="8.0165933"><ele>249.0</ele><time>2026-04-19T12:26:59.115Z</time></trkpt><trkpt lat="44.8587167" lon="8.0164983"><ele>248.0</ele><time>2026-04-19T12:27:01.051Z</time></trkpt><trkpt lat="44.8587233" lon="8.0164"><ele>247.0</ele><time>2026-04-19T12:27:04.054Z</time></trkpt><trkpt lat="44.8587" lon="8.0163117"><ele>246.0</ele><time>2026-04-19T12:27:07.046Z</time></trkpt><trkpt lat="44.8586267" lon="8.0163017"><ele>245.0</ele><time>2026-04-19T12:27:11.068Z</time></trkpt><trkpt lat="44.8585767" lon="8.0162267"><ele>245.00000000000003</ele><time>2026-04-19T12:27:14.05Z</time></trkpt><trkpt lat="44.858505" lon="8.0162533"><ele>245.0</ele><time>2026-04-19T12:27:17.064Z</time></trkpt><trkpt lat="44.85843" lon="8.0162483"><ele>245.0</ele><time>2026-04-19T12:27:19.043Z</time></trkpt><trkpt lat="44.8583517" lon="8.0162083"><ele>245.0</ele><time>2026-04-19T12:27:21.037Z</time></trkpt><trkpt lat="44.8582733" lon="8.0161383"><ele>245.00000000000003</ele><time>2026-04-19T12:27:23.063Z</time></trkpt><trkpt lat="44.8582133" lon="8.0161033"><ele>245.0</ele><time>2026-04-19T12:27:24.045Z</time></trkpt><trkpt lat="44.8580917" lon="8.0160483"><ele>246.50000000000003</ele><time>2026-04-19T12:27:26.041Z</time></trkpt><trkpt lat="44.858" lon="8.01609"><ele>248.0</ele><time>2026-04-19T12:27:28.04Z</time></trkpt><trkpt lat="44.857925" lon="8.0160767"><ele>249.5</ele><time>2026-04-19T12:27:30.04Z</time></trkpt><trkpt lat="44.857885" lon="8.0159933"><ele>251.0</ele><time>2026-04-19T12:27:32.045Z</time></trkpt><trkpt lat="44.857835" lon="8.015935"><ele>252.50000000000003</ele><time>2026-04-19T12:27:34.047Z</time></trkpt><trkpt lat="44.85776" lon="8.0158767"><ele>254.0</ele><time>2026-04-19T12:27:37.045Z</time></trkpt><trkpt lat="44.8576867" lon="8.015825"><ele>253.71428571428572</ele><time>2026-04-19T12:27:40.051Z</time></trkpt><trkpt lat="44.85762" lon="8.01579"><ele>253.42857142857142</ele><time>2026-04-19T12:27:42.042Z</time></trkpt><trkpt lat="44.857555" lon="8.0157483"><ele>253.14285714285714</ele><time>2026-04-19T12:27:44.05Z</time></trkpt><trkpt lat="44.8575117" lon="8.0156833"><ele>252.85714285714286</ele><time>2026-04-19T12:27:46.044Z</time></trkpt><trkpt lat="44.857475" lon="8.0156"><ele>252.57142857142856</ele><time>2026-04-19T12:27:48.048Z</time></trkpt><trkpt lat="44.85747" lon="8.0154717"><ele>252.28571428571428</ele><time>2026-04-19T12:27:50.044Z</time></trkpt><trkpt lat="44.8574717" lon="8.0153667"><ele>252.0</ele><time>2026-04-19T12:27:52.038Z</time></trkpt><trkpt lat="44.8574267" lon="8.0152633"><ele>251.5</ele><time>2026-04-19T12:27:55.045Z</time></trkpt><trkpt lat="44.857405" lon="8.0151733"><ele>251.0</ele><time>2026-04-19T12:27:57.045Z</time></trkpt><trkpt lat="44.857355" lon="8.015105"><ele>250.5</ele><time>2026-04-19T12:28:00.037Z</time></trkpt><trkpt lat="44.857295" lon="8.0150567"><ele>250.0</ele><time>2026-04-19T12:28:03.042Z</time></trkpt><trkpt lat="44.8572317" lon="8.0149867"><ele>249.5</ele><time>2026-04-19T12:28:05.099Z</time></trkpt><trkpt lat="44.85717" lon="8.0149033"><ele>249.0</ele><time>2026-04-19T12:28:07.044Z</time></trkpt><trkpt lat="44.8571183" lon="8.0148133"><ele>246.66666666666666</ele><time>2026-04-19T12:28:09.043Z</time></trkpt><trkpt lat="44.8570817" lon="8.014735"><ele>244.33333333333331</ele><time>2026-04-19T12:28:11.068Z</time></trkpt><trkpt lat="44.8570133" lon="8.0147083"><ele>242.0</ele><time>2026-04-19T12:28:13.048Z</time></trkpt><trkpt lat="44.8569433" lon="8.0146917"><ele>239.66666666666666</ele><time>2026-04-19T12:28:15.036Z</time></trkpt><trkpt lat="44.8568833" lon="8.01465"><ele>237.33333333333331</ele><time>2026-04-19T12:28:17.065Z</time></trkpt><trkpt lat="44.8569017" lon="8.014555"><ele>235.0</ele><time>2026-04-19T12:28:20.041Z</time></trkpt><trkpt lat="44.8569533" lon="8.0144167"><ele>235.0</ele><time>2026-04-19T12:28:22.044Z</time></trkpt><trkpt lat="44.8569967" lon="8.014265"><ele>235.0</ele><time>2026-04-19T12:28:24.043Z</time></trkpt><trkpt lat="44.8570317" lon="8.01411"><ele>235.0</ele><time>2026-04-19T12:28:26.042Z</time></trkpt><trkpt lat="44.8570433" lon="8.013985"><ele>235.0</ele><time>2026-04-19T12:28:28.037Z</time></trkpt><trkpt lat="44.8569683" lon="8.0140067"><ele>235.0</ele><time>2026-04-19T12:28:32.043Z</time></trkpt><trkpt lat="44.8568817" lon="8.014095"><ele>234.99999999999997</ele><time>2026-04-19T12:28:34.042Z</time></trkpt><trkpt lat="44.8568" lon="8.0141467"><ele>235.0</ele><time>2026-04-19T12:28:35.099Z</time></trkpt><trkpt lat="44.85673" lon="8.014185"><ele>235.0</ele><time>2026-04-19T12:28:36.04Z</time></trkpt><trkpt lat="44.8566483" lon="8.0142183"><ele>235.0</ele><time>2026-04-19T12:28:37.041Z</time></trkpt><trkpt lat="44.8565717" lon="8.0142467"><ele>234.99999999999997</ele><time>2026-04-19T12:28:38.042Z</time></trkpt><trkpt lat="44.8564833" lon="8.0142817"><ele>235.0</ele><time>2026-04-19T12:28:39.042Z</time></trkpt><trkpt lat="44.8563983" lon="8.0143183"><ele>235.8</ele><time>2026-04-19T12:28:40.041Z</time></trkpt><trkpt lat="44.8563033" lon="8.01436"><ele>236.6</ele><time>2026-04-19T12:28:41.067Z</time></trkpt><trkpt lat="44.8562267" lon="8.0144"><ele>237.39999999999998</ele><time>2026-04-19T12:28:42.049Z</time></trkpt><trkpt lat="44.8561283" lon="8.01444"><ele>238.2</ele><time>2026-04-19T12:28:43.041Z</time></trkpt><trkpt lat="44.8560217" lon="8.0144833"><ele>239.0</ele><time>2026-04-19T12:28:44.046Z</time></trkpt><trkpt lat="44.8559133" lon="8.0145283"><ele>241.0</ele><time>2026-04-19T12:28:45.046Z</time></trkpt><trkpt lat="44.8558133" lon="8.014565"><ele>242.99999999999997</ele><time>2026-04-19T12:28:46.046Z</time></trkpt><trkpt lat="44.8557117" lon="8.0146067"><ele>244.99999999999997</ele><time>2026-04-19T12:28:47.069Z</time></trkpt><trkpt lat="44.855615" lon="8.01464"><ele>247.0</ele><time>2026-04-19T12:28:48.04Z</time></trkpt><trkpt lat="44.8555233" lon="8.014665"><ele>249.0</ele><time>2026-04-19T12:28:49.043Z</time></trkpt><trkpt lat="44.8554417" lon="8.0146883"><ele>249.0</ele><time>2026-04-19T12:28:50.036Z</time></trkpt><trkpt lat="44.8553683" lon="8.0147117"><ele>249.0</ele><time>2026-04-19T12:28:51.041Z</time></trkpt><trkpt lat="44.8552867" lon="8.0147333"><ele>249.0</ele><time>2026-04-19T12:28:52.042Z</time></trkpt><trkpt lat="44.8551933" lon="8.0147567"><ele>249.0</ele><time>2026-04-19T12:28:53.065Z</time></trkpt><trkpt lat="44.8551117" lon="8.0147883"><ele>249.0</ele><time>2026-04-19T12:28:54.037Z</time></trkpt><trkpt lat="44.8550317" lon="8.0148283"><ele>249.0</ele><time>2026-04-19T12:28:55.05Z</time></trkpt><trkpt lat="44.8549433" lon="8.0148767"><ele>248.2</ele><time>2026-04-19T12:28:56.043Z</time></trkpt><trkpt lat="44.8548633" lon="8.0149283"><ele>247.39999999999998</ele><time>2026-04-19T12:28:57.044Z</time></trkpt><trkpt lat="44.8547817" lon="8.014975"><ele>246.6</ele><time>2026-04-19T12:28:58.044Z</time></trkpt><trkpt lat="44.8546983" lon="8.0150183"><ele>245.8</ele><time>2026-04-19T12:28:59.108Z</time></trkpt><trkpt lat="44.854605" lon="8.0150583"><ele>245.0</ele><time>2026-04-19T12:29:00.039Z</time></trkpt><trkpt lat="44.8544983" lon="8.01511"><ele>247.25</ele><time>2026-04-19T12:29:01.039Z</time></trkpt><trkpt lat="44.85439" lon="8.01517"><ele>249.5</ele><time>2026-04-19T12:29:02.04Z</time></trkpt><trkpt lat="44.8542567" lon="8.0152583"><ele>251.75</ele><time>2026-04-19T12:29:03.042Z</time></trkpt><trkpt lat="44.8541517" lon="8.015345"><ele>254.0</ele><time>2026-04-19T12:29:04.05Z</time></trkpt><trkpt lat="44.8540533" lon="8.0154417"><ele>254.0</ele><time>2026-04-19T12:29:05.109Z</time></trkpt><trkpt lat="44.853955" lon="8.0155417"><ele>253.99999999999997</ele><time>2026-04-19T12:29:06.042Z</time></trkpt><trkpt lat="44.8538633" lon="8.0156333"><ele>253.99999999999997</ele><time>2026-04-19T12:29:07.049Z</time></trkpt><trkpt lat="44.8537833" lon="8.015715"><ele>254.0</ele><time>2026-04-19T12:29:08.043Z</time></trkpt><trkpt lat="44.8537033" lon="8.0157883"><ele>254.0</ele><time>2026-04-19T12:29:09.044Z</time></trkpt><trkpt lat="44.85364" lon="8.0158417"><ele>254.0</ele><time>2026-04-19T12:29:10.037Z</time></trkpt><trkpt lat="44.8535833" lon="8.015885"><ele>253.99999999999997</ele><time>2026-04-19T12:29:11.063Z</time></trkpt><trkpt lat="44.8534867" lon="8.0159433"><ele>253.99999999999997</ele><time>2026-04-19T12:29:12.04Z</time></trkpt><trkpt lat="44.85342" lon="8.0159583"><ele>254.0</ele><time>2026-04-19T12:29:14.044Z</time></trkpt><trkpt lat="44.853515" lon="8.0158517"><ele>254.0</ele><time>2026-04-19T12:29:23.058Z</time></trkpt><trkpt lat="44.8535883" lon="8.0157467"><ele>254.0</ele><time>2026-04-19T12:29:25.042Z</time></trkpt><trkpt lat="44.8536767" lon="8.0156283"><ele>253.99999999999997</ele><time>2026-04-19T12:29:27.045Z</time></trkpt><trkpt lat="44.853745" lon="8.0155633"><ele>253.99999999999997</ele><time>2026-04-19T12:29:28.042Z</time></trkpt><trkpt lat="44.8538133" lon="8.015485"><ele>254.0</ele><time>2026-04-19T12:29:29.114Z</time></trkpt><trkpt lat="44.8538867" lon="8.0154117"><ele>254.0</ele><time>2026-04-19T12:29:30.041Z</time></trkpt><trkpt lat="44.8539483" lon="8.0153417"><ele>254.00000000000003</ele><time>2026-04-19T12:29:31.043Z</time></trkpt><trkpt lat="44.8539933" lon="8.015275"><ele>254.0</ele><time>2026-04-19T12:29:32.045Z</time></trkpt><trkpt lat="44.8540933" lon="8.015155"><ele>254.0</ele><time>2026-04-19T12:29:34.051Z</time></trkpt><trkpt lat="44.8541517" lon="8.0151033"><ele>254.0</ele><time>2026-04-19T12:29:35.094Z</time></trkpt><trkpt lat="44.8542083" lon="8.015045"><ele>254.00000000000003</ele><time>2026-04-19T12:29:36.042Z</time></trkpt><trkpt lat="44.854265" lon="8.0149717"><ele>254.0</ele><time>2026-04-19T12:29:37.047Z</time></trkpt><trkpt lat="44.8543167" lon="8.0148917"><ele>252.50000000000003</ele><time>2026-04-19T12:29:38.038Z</time></trkpt><trkpt lat="44.8543717" lon="8.0147917"><ele>251.0</ele><time>2026-04-19T12:29:39.039Z</time></trkpt><trkpt lat="44.8544283" lon="8.0147117"><ele>249.5</ele><time>2026-04-19T12:29:40.044Z</time></trkpt><trkpt lat="44.8544833" lon="8.0146417"><ele>248.0</ele><time>2026-04-19T12:29:41.069Z</time></trkpt><trkpt lat="44.8545333" lon="8.014565"><ele>246.50000000000003</ele><time>2026-04-19T12:29:42.048Z</time></trkpt><trkpt lat="44.8545867" lon="8.0144933"><ele>245.0</ele><time>2026-04-19T12:29:43.047Z</time></trkpt><trkpt lat="44.85464" lon="8.0144317"><ele>245.00000000000003</ele><time>2026-04-19T12:29:44.047Z</time></trkpt><trkpt lat="44.8547" lon="8.0143883"><ele>245.0</ele><time>2026-04-19T12:29:45.047Z</time></trkpt><trkpt lat="44.8547583" lon="8.014345"><ele>245.0</ele><time>2026-04-19T12:29:46.041Z</time></trkpt><trkpt lat="44.854815" lon="8.01429"><ele>245.0</ele><time>2026-04-19T12:29:47.064Z</time></trkpt><trkpt lat="44.8548683" lon="8.0142367"><ele>245.00000000000003</ele><time>2026-04-19T12:29:48.041Z</time></trkpt><trkpt lat="44.8549667" lon="8.0141583"><ele>245.0</ele><time>2026-04-19T12:29:50.045Z</time></trkpt><trkpt lat="44.855065" lon="8.0140633"><ele>244.83333333333334</ele><time>2026-04-19T12:29:52.041Z</time></trkpt><trkpt lat="44.8551133" lon="8.0139983"><ele>244.66666666666669</ele><time>2026-04-19T12:29:53.075Z</time></trkpt><trkpt lat="44.85516" lon="8.01393"><ele>244.5</ele><time>2026-04-19T12:29:54.041Z</time></trkpt><trkpt lat="44.8551867" lon="8.0138483"><ele>244.33333333333331</ele><time>2026-04-19T12:29:55.042Z</time></trkpt><trkpt lat="44.855155" lon="8.0137467"><ele>244.16666666666666</ele><time>2026-04-19T12:29:56.049Z</time></trkpt><trkpt lat="44.8551267" lon="8.0135967"><ele>244.0</ele><time>2026-04-19T12:29:58.049Z</time></trkpt><trkpt lat="44.8551667" lon="8.013435"><ele>243.0</ele><time>2026-04-19T12:30:00.038Z</time></trkpt><trkpt lat="44.85523" lon="8.0133433"><ele>241.99999999999997</ele><time>2026-04-19T12:30:01.043Z</time></trkpt><trkpt lat="44.8553217" lon="8.0132367"><ele>240.99999999999997</ele><time>2026-04-19T12:30:02.041Z</time></trkpt><trkpt lat="44.8554133" lon="8.0131317"><ele>240.0</ele><time>2026-04-19T12:30:03.045Z</time></trkpt><trkpt lat="44.8554983" lon="8.0130283"><ele>239.0</ele><time>2026-04-19T12:30:04.048Z</time></trkpt><trkpt lat="44.855575" lon="8.01294"><ele>239.0</ele><time>2026-04-19T12:30:05.106Z</time></trkpt><trkpt lat="44.85564" lon="8.01286"><ele>238.99999999999997</ele><time>2026-04-19T12:30:06.038Z</time></trkpt><trkpt lat="44.8557283" lon="8.0127533"><ele>238.99999999999997</ele><time>2026-04-19T12:30:08.047Z</time></trkpt><trkpt lat="44.85578" lon="8.0126183"><ele>239.0</ele><time>2026-04-19T12:30:10.042Z</time></trkpt><trkpt lat="44.855785" lon="8.01249"><ele>239.0</ele><time>2026-04-19T12:30:12.049Z</time></trkpt><trkpt lat="44.85575" lon="8.0123183"><ele>241.2</ele><time>2026-04-19T12:30:20.042Z</time></trkpt><trkpt lat="44.8557033" lon="8.012215"><ele>243.39999999999998</ele><time>2026-04-19T12:30:21.043Z</time></trkpt><trkpt lat="44.8556483" lon="8.0121017"><ele>245.6</ele><time>2026-04-19T12:30:22.045Z</time></trkpt><trkpt lat="44.8555717" lon="8.0119767"><ele>247.8</ele><time>2026-04-19T12:30:23.065Z</time></trkpt><trkpt lat="44.8554667" lon="8.0118433"><ele>250.0</ele><time>2026-04-19T12:30:24.046Z</time></trkpt><trkpt lat="44.855375" lon="8.0117217"><ele>250.5</ele><time>2026-04-19T12:30:25.047Z</time></trkpt><trkpt lat="44.855275" lon="8.0115983"><ele>251.0</ele><time>2026-04-19T12:30:26.043Z</time></trkpt><trkpt lat="44.8551817" lon="8.011465"><ele>251.5</ele><time>2026-04-19T12:30:27.043Z</time></trkpt><trkpt lat="44.85509" lon="8.0113367"><ele>252.0</ele><time>2026-04-19T12:30:28.041Z</time></trkpt><trkpt lat="44.8549983" lon="8.0112283"><ele>252.0</ele><time>2026-04-19T12:30:29.1Z</time></trkpt><trkpt lat="44.85491" lon="8.0111467"><ele>252.0</ele><time>2026-04-19T12:30:30.045Z</time></trkpt><trkpt lat="44.85482" lon="8.0110867"><ele>252.0</ele><time>2026-04-19T12:30:31.049Z</time></trkpt><trkpt lat="44.8547217" lon="8.011045"><ele>252.0</ele><time>2026-04-19T12:30:32.049Z</time></trkpt><trkpt lat="44.85461" lon="8.011015"><ele>252.0</ele><time>2026-04-19T12:30:33.045Z</time></trkpt><trkpt lat="44.8544933" lon="8.010965"><ele>252.0</ele><time>2026-04-19T12:30:34.044Z</time></trkpt><trkpt lat="44.854375" lon="8.0108933"><ele>252.0</ele><time>2026-04-19T12:30:35.11Z</time></trkpt><trkpt lat="44.85426" lon="8.0108183"><ele>252.0</ele><time>2026-04-19T12:30:36.04Z</time></trkpt><trkpt lat="44.8541433" lon="8.010765"><ele>252.0</ele><time>2026-04-19T12:30:37.05Z</time></trkpt><trkpt lat="44.8540333" lon="8.0107183"><ele>253.8</ele><time>2026-04-19T12:30:38.041Z</time></trkpt><trkpt lat="44.8539383" lon="8.0106683"><ele>255.6</ele><time>2026-04-19T12:30:39.047Z</time></trkpt><trkpt lat="44.853845" lon="8.0106217"><ele>257.40000000000003</ele><time>2026-04-19T12:30:40.043Z</time></trkpt><trkpt lat="44.8537683" lon="8.010565"><ele>259.2</ele><time>2026-04-19T12:30:41.067Z</time></trkpt><trkpt lat="44.8537" lon="8.0104783"><ele>261.0</ele><time>2026-04-19T12:30:42.034Z</time></trkpt><trkpt lat="44.8536567" lon="8.010385"><ele>261.0</ele><time>2026-04-19T12:30:43.041Z</time></trkpt><trkpt lat="44.853575" lon="8.010315"><ele>261.0</ele><time>2026-04-19T12:30:44.044Z</time></trkpt><trkpt lat="44.8534933" lon="8.0102583"><ele>261.0</ele><time>2026-04-19T12:30:45.045Z</time></trkpt><trkpt lat="44.8534033" lon="8.0102267"><ele>261.0</ele><time>2026-04-19T12:30:46.052Z</time></trkpt><trkpt lat="44.8533183" lon="8.0102117"><ele>261.0</ele><time>2026-04-19T12:30:47.064Z</time></trkpt><trkpt lat="44.853255" lon="8.01027"><ele>261.0</ele><time>2026-04-19T12:30:48.038Z</time></trkpt><trkpt lat="44.85318" lon="8.0103067"><ele>260.5</ele><time>2026-04-19T12:30:49.049Z</time></trkpt><trkpt lat="44.8531033" lon="8.0103267"><ele>260.0</ele><time>2026-04-19T12:30:50.051Z</time></trkpt><trkpt lat="44.852975" lon="8.010305"><ele>259.5</ele><time>2026-04-19T12:30:52.049Z</time></trkpt><trkpt lat="44.8528883" lon="8.0102717"><ele>259.0</ele><time>2026-04-19T12:30:53.068Z</time></trkpt><trkpt lat="44.8528167" lon="8.0102433"><ele>258.5</ele><time>2026-04-19T12:30:54.04Z</time></trkpt><trkpt lat="44.852745" lon="8.01022"><ele>258.0</ele><time>2026-04-19T12:30:55.051Z</time></trkpt><trkpt lat="44.8526717" lon="8.0101417"><ele>257.2</ele><time>2026-04-19T12:30:56.044Z</time></trkpt><trkpt lat="44.8525933" lon="8.0100983"><ele>256.4</ele><time>2026-04-19T12:30:57.046Z</time></trkpt><trkpt lat="44.8524667" lon="8.0100633"><ele>255.59999999999997</ele><time>2026-04-19T12:30:59.101Z</time></trkpt><trkpt lat="44.85238" lon="8.01007"><ele>254.79999999999998</ele><time>2026-04-19T12:31:00.04Z</time></trkpt><trkpt lat="44.8522767" lon="8.0101033"><ele>254.0</ele><time>2026-04-19T12:31:01.044Z</time></trkpt><trkpt lat="44.8521917" lon="8.0101317"><ele>254.00000000000003</ele><time>2026-04-19T12:31:02.045Z</time></trkpt><trkpt lat="44.8521083" lon="8.01014"><ele>254.0</ele><time>2026-04-19T12:31:03.044Z</time></trkpt><trkpt lat="44.8520233" lon="8.0101417"><ele>254.0</ele><time>2026-04-19T12:31:04.042Z</time></trkpt><trkpt lat="44.85194" lon="8.0101467"><ele>254.0</ele><time>2026-04-19T12:31:05.101Z</time></trkpt><trkpt lat="44.851845" lon="8.010165"><ele>254.00000000000003</ele><time>2026-04-19T12:31:06.044Z</time></trkpt><trkpt lat="44.85175" lon="8.0102117"><ele>254.0</ele><time>2026-04-19T12:31:07.038Z</time></trkpt><trkpt lat="44.8516883" lon="8.0102633"><ele>253.79999999999998</ele><time>2026-04-19T12:31:08.043Z</time></trkpt><trkpt lat="44.85158" lon="8.0103267"><ele>253.59999999999997</ele><time>2026-04-19T12:31:10.041Z</time></trkpt><trkpt lat="44.8514533" lon="8.0103783"><ele>253.4</ele><time>2026-04-19T12:31:12.048Z</time></trkpt><trkpt lat="44.8513783" lon="8.0103967"><ele>253.2</ele><time>2026-04-19T12:31:13.045Z</time></trkpt><trkpt lat="44.851285" lon="8.01042"><ele>253.0</ele><time>2026-04-19T12:31:14.041Z</time></trkpt><trkpt lat="44.8511867" lon="8.0104383"><ele>253.0</ele><time>2026-04-19T12:31:15.045Z</time></trkpt><trkpt lat="44.8511033" lon="8.0104383"><ele>253.0</ele><time>2026-04-19T12:31:16.048Z</time></trkpt><trkpt lat="44.8510217" lon="8.0104483"><ele>253.0</ele><time>2026-04-19T12:31:17.064Z</time></trkpt><trkpt lat="44.850935" lon="8.010465"><ele>253.0</ele><time>2026-04-19T12:31:18.043Z</time></trkpt><trkpt lat="44.850855" lon="8.01049"><ele>253.0</ele><time>2026-04-19T12:31:19.044Z</time></trkpt><trkpt lat="44.85073" lon="8.0105483"><ele>253.49999999999997</ele><time>2026-04-19T12:31:21.046Z</time></trkpt><trkpt lat="44.8506183" lon="8.0106233"><ele>254.0</ele><time>2026-04-19T12:31:23.062Z</time></trkpt><trkpt lat="44.8505533" lon="8.010665"><ele>254.5</ele><time>2026-04-19T12:31:24.039Z</time></trkpt><trkpt lat="44.8504883" lon="8.010705"><ele>255.0</ele><time>2026-04-19T12:31:25.042Z</time></trkpt><trkpt lat="44.850425" lon="8.0107617"><ele>255.49999999999997</ele><time>2026-04-19T12:31:27.043Z</time></trkpt><trkpt lat="44.85036" lon="8.0108367"><ele>256.0</ele><time>2026-04-19T12:31:29.099Z</time></trkpt><trkpt lat="44.8502683" lon="8.0109233"><ele>256.0</ele><time>2026-04-19T12:31:31.044Z</time></trkpt><trkpt lat="44.8501983" lon="8.0109733"><ele>256.0</ele><time>2026-04-19T12:31:32.044Z</time></trkpt><trkpt lat="44.850125" lon="8.0110283"><ele>256.0</ele><time>2026-04-19T12:31:33.048Z</time></trkpt><trkpt lat="44.8500483" lon="8.0110967"><ele>256.0</ele><time>2026-04-19T12:31:34.045Z</time></trkpt><trkpt lat="44.8499667" lon="8.0111833"><ele>256.0</ele><time>2026-04-19T12:31:35.105Z</time></trkpt><trkpt lat="44.8499017" lon="8.011285"><ele>256.8</ele><time>2026-04-19T12:31:36.041Z</time></trkpt><trkpt lat="44.849825" lon="8.011385"><ele>257.6</ele><time>2026-04-19T12:31:37.045Z</time></trkpt><trkpt lat="44.84974" lon="8.0115"><ele>258.4</ele><time>2026-04-19T12:31:38.042Z</time></trkpt><trkpt lat="44.8496933" lon="8.0116217"><ele>259.2</ele><time>2026-04-19T12:31:39.047Z</time></trkpt><trkpt lat="44.8496467" lon="8.01173"><ele>260.0</ele><time>2026-04-19T12:31:40.037Z</time></trkpt><trkpt lat="44.849615" lon="8.0118167"><ele>260.0</ele><time>2026-04-19T12:31:41.072Z</time></trkpt><trkpt lat="44.8495917" lon="8.0119867"><ele>260.0</ele><time>2026-04-19T12:31:43.046Z</time></trkpt><trkpt lat="44.84959" lon="8.01214"><ele>260.0</ele><time>2026-04-19T12:31:45.038Z</time></trkpt><trkpt lat="44.849565" lon="8.01223"><ele>260.0</ele><time>2026-04-19T12:31:47.067Z</time></trkpt><trkpt lat="44.8494917" lon="8.0122917"><ele>260.0</ele><time>2026-04-19T12:31:49.049Z</time></trkpt><trkpt lat="44.84943" lon="8.0123267"><ele>260.0</ele><time>2026-04-19T12:31:50.044Z</time></trkpt><trkpt lat="44.8493617" lon="8.012375"><ele>260.0</ele><time>2026-04-19T12:31:51.043Z</time></trkpt><trkpt lat="44.849295" lon="8.0124517"><ele>260.0</ele><time>2026-04-19T12:31:52.055Z</time></trkpt><trkpt lat="44.8492" lon="8.0125583"><ele>260.0</ele><time>2026-04-19T12:31:53.074Z</time></trkpt><trkpt lat="44.84914" lon="8.0126633"><ele>260.0</ele><time>2026-04-19T12:31:54.048Z</time></trkpt><trkpt lat="44.8490767" lon="8.0127567"><ele>261.33333333333337</ele><time>2026-04-19T12:31:55.046Z</time></trkpt><trkpt lat="44.8490183" lon="8.0128517"><ele>262.6666666666667</ele><time>2026-04-19T12:31:56.044Z</time></trkpt><trkpt lat="44.848965" lon="8.0129433"><ele>264.0</ele><time>2026-04-19T12:31:57.038Z</time></trkpt><trkpt lat="44.8489017" lon="8.0130267"><ele>265.3333333333333</ele><time>2026-04-19T12:31:58.051Z</time></trkpt><trkpt lat="44.8488367" lon="8.0130867"><ele>266.66666666666663</ele><time>2026-04-19T12:31:59.109Z</time></trkpt><trkpt lat="44.8487533" lon="8.0131517"><ele>268.0</ele><time>2026-04-19T12:32:00.043Z</time></trkpt><trkpt lat="44.84867" lon="8.0132267"><ele>268.0</ele><time>2026-04-19T12:32:01.049Z</time></trkpt><trkpt lat="44.8485833" lon="8.0132867"><ele>268.0</ele><time>2026-04-19T12:32:02.045Z</time></trkpt><trkpt lat="44.8485033" lon="8.0133317"><ele>268.0</ele><time>2026-04-19T12:32:03.047Z</time></trkpt><trkpt lat="44.8484233" lon="8.0133617"><ele>268.0</ele><time>2026-04-19T12:32:04.043Z</time></trkpt><trkpt lat="44.8483583" lon="8.0133917"><ele>268.0</ele><time>2026-04-19T12:32:05.108Z</time></trkpt><trkpt lat="44.8482583" lon="8.01345"><ele>268.0</ele><time>2026-04-19T12:32:07.036Z</time></trkpt><trkpt lat="44.8481733" lon="8.0135283"><ele>268.8</ele><time>2026-04-19T12:32:09.043Z</time></trkpt><trkpt lat="44.848105" lon="8.0135917"><ele>269.6</ele><time>2026-04-19T12:32:10.048Z</time></trkpt><trkpt lat="44.8480183" lon="8.013665"><ele>270.4</ele><time>2026-04-19T12:32:11.065Z</time></trkpt><trkpt lat="44.8479367" lon="8.0137533"><ele>271.2</ele><time>2026-04-19T12:32:12.033Z</time></trkpt><trkpt lat="44.8478667" lon="8.0138233"><ele>272.0</ele><time>2026-04-19T12:32:13.046Z</time></trkpt><trkpt lat="44.8477583" lon="8.0138833"><ele>272.0</ele><time>2026-04-19T12:32:14.043Z</time></trkpt><trkpt lat="44.8476683" lon="8.013955"><ele>272.0</ele><time>2026-04-19T12:32:16.045Z</time></trkpt><trkpt lat="44.8475483" lon="8.0139817"><ele>272.0</ele><time>2026-04-19T12:32:18.041Z</time></trkpt><trkpt lat="44.847425" lon="8.0140567"><ele>272.0</ele><time>2026-04-19T12:32:20.041Z</time></trkpt><trkpt lat="44.8473433" lon="8.0141133"><ele>272.6666666666667</ele><time>2026-04-19T12:32:21.044Z</time></trkpt><trkpt lat="44.8472467" lon="8.0141717"><ele>273.33333333333337</ele><time>2026-04-19T12:32:22.046Z</time></trkpt><trkpt lat="44.84716" lon="8.0142233"><ele>274.0</ele><time>2026-04-19T12:32:23.067Z</time></trkpt><trkpt lat="44.84707" lon="8.01427"><ele>274.6666666666667</ele><time>2026-04-19T12:32:24.042Z</time></trkpt><trkpt lat="44.8470017" lon="8.0143133"><ele>275.3333333333333</ele><time>2026-04-19T12:32:25.048Z</time></trkpt><trkpt lat="44.846945" lon="8.01436"><ele>276.0</ele><time>2026-04-19T12:32:26.044Z</time></trkpt><trkpt lat="44.8468933" lon="8.014415"><ele>276.0</ele><time>2026-04-19T12:32:27.05Z</time></trkpt><trkpt lat="44.8468217" lon="8.014475"><ele>276.0</ele><time>2026-04-19T12:32:28.038Z</time></trkpt><trkpt lat="44.8467667" lon="8.0145533"><ele>276.0</ele><time>2026-04-19T12:32:29.099Z</time></trkpt><trkpt lat="44.8466967" lon="8.014645"><ele>276.0</ele><time>2026-04-19T12:32:30.038Z</time></trkpt><trkpt lat="44.8466117" lon="8.01475"><ele>276.0</ele><time>2026-04-19T12:32:31.041Z</time></trkpt><trkpt lat="44.8465217" lon="8.0148517"><ele>277.0</ele><time>2026-04-19T12:32:32.049Z</time></trkpt><trkpt lat="44.8464483" lon="8.0149483"><ele>278.0</ele><time>2026-04-19T12:32:33.039Z</time></trkpt><trkpt lat="44.8463967" lon="8.0150567"><ele>279.0</ele><time>2026-04-19T12:32:34.046Z</time></trkpt><trkpt lat="44.8463267" lon="8.0151533"><ele>280.0</ele><time>2026-04-19T12:32:35.096Z</time></trkpt><trkpt lat="44.8462683" lon="8.0152483"><ele>281.0</ele><time>2026-04-19T12:32:36.038Z</time></trkpt><trkpt lat="44.8461817" lon="8.01533"><ele>281.0</ele><time>2026-04-19T12:32:37.049Z</time></trkpt><trkpt lat="44.8460983" lon="8.0154083"><ele>281.0</ele><time>2026-04-19T12:32:38.045Z</time></trkpt><trkpt lat="44.84603" lon="8.01549"><ele>281.0</ele><time>2026-04-19T12:32:39.046Z</time></trkpt><trkpt lat="44.845935" lon="8.01556"><ele>281.0</ele><time>2026-04-19T12:32:40.041Z</time></trkpt><trkpt lat="44.8458533" lon="8.0156233"><ele>281.0</ele><time>2026-04-19T12:32:41.061Z</time></trkpt><trkpt lat="44.8457733" lon="8.0156767"><ele>281.6</ele><time>2026-04-19T12:32:42.044Z</time></trkpt><trkpt lat="44.8457017" lon="8.0157333"><ele>282.20000000000005</ele><time>2026-04-19T12:32:43.041Z</time></trkpt><trkpt lat="44.8456017" lon="8.0157883"><ele>282.79999999999995</ele><time>2026-04-19T12:32:44.046Z</time></trkpt><trkpt lat="44.8454867" lon="8.0158267"><ele>283.4</ele><time>2026-04-19T12:32:45.048Z</time></trkpt><trkpt lat="44.8454167" lon="8.015855"><ele>284.0</ele><time>2026-04-19T12:32:46.046Z</time></trkpt><trkpt lat="44.8453483" lon="8.0158817"><ele>284.0</ele><time>2026-04-19T12:32:47.07Z</time></trkpt><trkpt lat="44.84528" lon="8.015895"><ele>284.0</ele><time>2026-04-19T12:32:48.04Z</time></trkpt><trkpt lat="44.8452067" lon="8.0159067"><ele>284.0</ele><time>2026-04-19T12:32:49.046Z</time></trkpt><trkpt lat="44.8451433" lon="8.0159333"><ele>284.0</ele><time>2026-04-19T12:32:50.049Z</time></trkpt><trkpt lat="44.8450483" lon="8.015965"><ele>284.0</ele><time>2026-04-19T12:32:51.046Z</time></trkpt><trkpt lat="44.8449667" lon="8.01599"><ele>284.0</ele><time>2026-04-19T12:32:52.046Z</time></trkpt><trkpt lat="44.8448883" lon="8.0160083"><ele>285.0</ele><time>2026-04-19T12:32:53.067Z</time></trkpt><trkpt lat="44.8448017" lon="8.0160067"><ele>286.0</ele><time>2026-04-19T12:32:54.04Z</time></trkpt><trkpt lat="44.8447167" lon="8.0159767"><ele>287.0</ele><time>2026-04-19T12:32:55.049Z</time></trkpt><trkpt lat="44.8446067" lon="8.0159367"><ele>288.0</ele><time>2026-04-19T12:32:56.05Z</time></trkpt><trkpt lat="44.84455" lon="8.0158617"><ele>289.0</ele><time>2026-04-19T12:32:57.04Z</time></trkpt><trkpt lat="44.8444567" lon="8.015795"><ele>290.59999999999997</ele><time>2026-04-19T12:32:58.046Z</time></trkpt><trkpt lat="44.8443633" lon="8.0157183"><ele>292.2</ele><time>2026-04-19T12:32:59.109Z</time></trkpt><trkpt lat="44.8442667" lon="8.01557"><ele>293.79999999999995</ele><time>2026-04-19T12:33:01.047Z</time></trkpt><trkpt lat="44.84419" lon="8.01551"><ele>295.4</ele><time>2026-04-19T12:33:02.044Z</time></trkpt><trkpt lat="44.8441133" lon="8.0154267"><ele>297.0</ele><time>2026-04-19T12:33:03.045Z</time></trkpt><trkpt lat="44.8440467" lon="8.0153533"><ele>297.0</ele><time>2026-04-19T12:33:04.043Z</time></trkpt><trkpt lat="44.8439667" lon="8.0152967"><ele>297.0</ele><time>2026-04-19T12:33:05.105Z</time></trkpt><trkpt lat="44.8439017" lon="8.015215"><ele>297.0</ele><time>2026-04-19T12:33:06.046Z</time></trkpt><trkpt lat="44.843845" lon="8.015165"><ele>297.0</ele><time>2026-04-19T12:33:07.05Z</time></trkpt><trkpt lat="44.843775" lon="8.015125"><ele>297.0</ele><time>2026-04-19T12:33:09.042Z</time></trkpt><trkpt lat="44.8436183" lon="8.0151267"><ele>297.0</ele><time>2026-04-19T12:33:36.041Z</time></trkpt><trkpt lat="44.8435483" lon="8.0151417"><ele>297.0</ele><time>2026-04-19T12:33:37.04Z</time></trkpt><trkpt lat="44.8434083" lon="8.0151417"><ele>297.0</ele><time>2026-04-19T12:33:39.051Z</time></trkpt><trkpt lat="44.8433017" lon="8.015105"><ele>297.0</ele><time>2026-04-19T12:33:40.044Z</time></trkpt><trkpt lat="44.8432017" lon="8.0150467"><ele>297.0</ele><time>2026-04-19T12:33:41.063Z</time></trkpt><trkpt lat="44.843095" lon="8.01497"><ele>298.2</ele><time>2026-04-19T12:33:42.044Z</time></trkpt><trkpt lat="44.84299" lon="8.0149017"><ele>299.4</ele><time>2026-04-19T12:33:43.042Z</time></trkpt><trkpt lat="44.8428817" lon="8.014855"><ele>300.6</ele><time>2026-04-19T12:33:44.046Z</time></trkpt><trkpt lat="44.8427783" lon="8.0148167"><ele>301.8</ele><time>2026-04-19T12:33:45.042Z</time></trkpt><trkpt lat="44.8426917" lon="8.0147967"><ele>303.0</ele><time>2026-04-19T12:33:46.042Z</time></trkpt><trkpt lat="44.842605" lon="8.0148233"><ele>303.0</ele><time>2026-04-19T12:33:47.069Z</time></trkpt><trkpt lat="44.8425667" lon="8.0149167"><ele>303.0</ele><time>2026-04-19T12:33:48.042Z</time></trkpt><trkpt lat="44.8425367" lon="8.0150217"><ele>303.0</ele><time>2026-04-19T12:33:49.051Z</time></trkpt><trkpt lat="44.8425533" lon="8.01512"><ele>303.0</ele><time>2026-04-19T12:33:50.044Z</time></trkpt><trkpt lat="44.8425467" lon="8.0152383"><ele>303.0</ele><time>2026-04-19T12:33:52.051Z</time></trkpt><trkpt lat="44.8425683" lon="8.0153617"><ele>303.0</ele><time>2026-04-19T12:33:55.046Z</time></trkpt><trkpt lat="44.842575" lon="8.0154667"><ele>301.2</ele><time>2026-04-19T12:33:57.048Z</time></trkpt><trkpt lat="44.8425867" lon="8.0156433"><ele>299.4</ele><time>2026-04-19T12:33:59.107Z</time></trkpt><trkpt lat="44.8426" lon="8.0157567"><ele>297.59999999999997</ele><time>2026-04-19T12:34:00.046Z</time></trkpt><trkpt lat="44.8426133" lon="8.0158817"><ele>295.8</ele><time>2026-04-19T12:34:01.046Z</time></trkpt><trkpt lat="44.8426233" lon="8.0160133"><ele>294.0</ele><time>2026-04-19T12:34:02.045Z</time></trkpt><trkpt lat="44.8426267" lon="8.0161483"><ele>293.8</ele><time>2026-04-19T12:34:03.045Z</time></trkpt><trkpt lat="44.842615" lon="8.0162917"><ele>293.59999999999997</ele><time>2026-04-19T12:34:04.041Z</time></trkpt><trkpt lat="44.842585" lon="8.0164517"><ele>293.4</ele><time>2026-04-19T12:34:05.107Z</time></trkpt><trkpt lat="44.842555" lon="8.016605"><ele>293.2</ele><time>2026-04-19T12:34:06.038Z</time></trkpt><trkpt lat="44.84255" lon="8.016755"><ele>293.0</ele><time>2026-04-19T12:34:07.044Z</time></trkpt><trkpt lat="44.8425683" lon="8.0168967"><ele>292.4</ele><time>2026-04-19T12:34:08.041Z</time></trkpt><trkpt lat="44.84261" lon="8.017045"><ele>291.8</ele><time>2026-04-19T12:34:09.047Z</time></trkpt><trkpt lat="44.8426683" lon="8.017195"><ele>291.2</ele><time>2026-04-19T12:34:10.038Z</time></trkpt><trkpt lat="44.8427217" lon="8.0173383"><ele>290.6</ele><time>2026-04-19T12:34:11.061Z</time></trkpt><trkpt lat="44.8427667" lon="8.0174567"><ele>290.0</ele><time>2026-04-19T12:34:12.041Z</time></trkpt><trkpt lat="44.8428017" lon="8.017545"><ele>294.0</ele><time>2026-04-19T12:34:13.046Z</time></trkpt><trkpt lat="44.8428233" lon="8.01765"><ele>298.0</ele><time>2026-04-19T12:34:25.037Z</time></trkpt><trkpt lat="44.8428783" lon="8.0177333"><ele>302.0</ele><time>2026-04-19T12:34:28.039Z</time></trkpt><trkpt lat="44.84295" lon="8.0177783"><ele>306.0</ele><time>2026-04-19T12:34:31.038Z</time></trkpt><trkpt lat="44.8429633" lon="8.0179167"><ele>310.0</ele><time>2026-04-19T12:48:09.038Z</time></trkpt><trkpt lat="44.8428933" lon="8.0178617"><ele>314.0</ele><time>2026-04-19T12:48:12.033Z</time></trkpt><trkpt lat="44.842875" lon="8.017775"><ele>314.0</ele><time>2026-04-19T12:48:14.04Z</time></trkpt><trkpt lat="44.8428533" lon="8.0176867"><ele>314.0</ele><time>2026-04-19T12:48:16.047Z</time></trkpt><trkpt lat="44.8428117" lon="8.01762"><ele>314.0</ele><time>2026-04-19T12:48:18.035Z</time></trkpt><trkpt lat="44.8427283" lon="8.0175483"><ele>314.0</ele><time>2026-04-19T12:48:21.038Z</time></trkpt><trkpt lat="44.8426683" lon="8.0174833"><ele>314.0</ele><time>2026-04-19T12:48:23.08Z</time></trkpt><trkpt lat="44.842605" lon="8.0174133"><ele>314.0</ele><time>2026-04-19T12:48:25.045Z</time></trkpt><trkpt lat="44.842535" lon="8.0173383"><ele>310.0</ele><time>2026-04-19T12:48:27.043Z</time></trkpt><trkpt lat="44.84246" lon="8.0172767"><ele>306.0</ele><time>2026-04-19T12:48:29.08Z</time></trkpt><trkpt lat="44.842375" lon="8.0172483"><ele>302.0</ele><time>2026-04-19T12:48:31.037Z</time></trkpt><trkpt lat="44.8423" lon="8.017185"><ele>298.0</ele><time>2026-04-19T12:48:33.039Z</time></trkpt><trkpt lat="44.8422233" lon="8.0170783"><ele>294.0</ele><time>2026-04-19T12:48:35.084Z</time></trkpt><trkpt lat="44.8421733" lon="8.0170233"><ele>290.0</ele><time>2026-04-19T12:48:36.039Z</time></trkpt><trkpt lat="44.8420833" lon="8.0169"><ele>290.0</ele><time>2026-04-19T12:48:38.041Z</time></trkpt><trkpt lat="44.842035" lon="8.016835"><ele>290.0</ele><time>2026-04-19T12:48:39.035Z</time></trkpt><trkpt lat="44.841965" lon="8.01671"><ele>290.0</ele><time>2026-04-19T12:48:41.082Z</time></trkpt><trkpt lat="44.8419233" lon="8.016555"><ele>290.0</ele><time>2026-04-19T12:48:43.042Z</time></trkpt><trkpt lat="44.8419" lon="8.0164683"><ele>290.0</ele><time>2026-04-19T12:48:44.033Z</time></trkpt><trkpt lat="44.8418667" lon="8.0163867"><ele>290.0</ele><time>2026-04-19T12:48:45.038Z</time></trkpt><trkpt lat="44.8418283" lon="8.01631"><ele>284.5</ele><time>2026-04-19T12:48:46.049Z</time></trkpt><trkpt lat="44.8417767" lon="8.0162383"><ele>279.0</ele><time>2026-04-19T12:48:47.071Z</time></trkpt><trkpt lat="44.8417283" lon="8.01618"><ele>273.5</ele><time>2026-04-19T12:48:48.035Z</time></trkpt><trkpt lat="44.84163" lon="8.0161217"><ele>268.0</ele><time>2026-04-19T12:48:50.038Z</time></trkpt><trkpt lat="44.8415667" lon="8.01612"><ele>262.5</ele><time>2026-04-19T12:48:51.034Z</time></trkpt><trkpt lat="44.8414933" lon="8.0161267"><ele>257.0</ele><time>2026-04-19T12:48:52.041Z</time></trkpt><trkpt lat="44.8414183" lon="8.01614"><ele>257.0</ele><time>2026-04-19T12:48:53.078Z</time></trkpt><trkpt lat="44.84135" lon="8.01616"><ele>257.0</ele><time>2026-04-19T12:48:54.035Z</time></trkpt><trkpt lat="44.841235" lon="8.0162"><ele>257.0</ele><time>2026-04-19T12:48:56.039Z</time></trkpt><trkpt lat="44.841165" lon="8.0162183"><ele>257.0</ele><time>2026-04-19T12:48:58.036Z</time></trkpt><trkpt lat="44.8410983" lon="8.0161867"><ele>257.0</ele><time>2026-04-19T12:49:01.045Z</time></trkpt><trkpt lat="44.841025" lon="8.0161633"><ele>257.0</ele><time>2026-04-19T12:49:03.039Z</time></trkpt><trkpt lat="44.8409867" lon="8.0160867"><ele>257.0</ele><time>2026-04-19T12:49:07.041Z</time></trkpt><trkpt lat="44.8410567" lon="8.0160133"><ele>257.0</ele><time>2026-04-19T12:49:09.049Z</time></trkpt><trkpt lat="44.8411283" lon="8.0159267"><ele>257.0</ele><time>2026-04-19T12:49:11.082Z</time></trkpt><trkpt lat="44.8411433" lon="8.0158133"><ele>257.0</ele><time>2026-04-19T12:49:13.043Z</time></trkpt><trkpt lat="44.8411083" lon="8.015695"><ele>257.0</ele><time>2026-04-19T12:49:15.039Z</time></trkpt><trkpt lat="44.8410633" lon="8.0156117"><ele>257.0</ele><time>2026-04-19T12:49:17.08Z</time></trkpt><trkpt lat="44.84097" lon="8.015605"><ele>255.6</ele><time>2026-04-19T12:49:19.043Z</time></trkpt><trkpt lat="44.8409067" lon="8.0156833"><ele>254.2</ele><time>2026-04-19T12:49:21.04Z</time></trkpt><trkpt lat="44.8408167" lon="8.0158267"><ele>252.8</ele><time>2026-04-19T12:49:23.078Z</time></trkpt><trkpt lat="44.8407583" lon="8.01594"><ele>251.4</ele><time>2026-04-19T12:49:24.039Z</time></trkpt><trkpt lat="44.8406817" lon="8.01607"><ele>250.0</ele><time>2026-04-19T12:49:25.042Z</time></trkpt><trkpt lat="44.8406267" lon="8.0161717"><ele>246.99999999999997</ele><time>2026-04-19T12:49:26.043Z</time></trkpt><trkpt lat="44.8405767" lon="8.0162567"><ele>244.0</ele><time>2026-04-19T12:49:27.04Z</time></trkpt><trkpt lat="44.8405417" lon="8.0163433"><ele>241.0</ele><time>2026-04-19T12:49:28.043Z</time></trkpt><trkpt lat="44.840475" lon="8.01648"><ele>238.0</ele><time>2026-04-19T12:49:30.044Z</time></trkpt><trkpt lat="44.84043" lon="8.0165517"><ele>234.99999999999997</ele><time>2026-04-19T12:49:31.038Z</time></trkpt><trkpt lat="44.8403717" lon="8.0166183"><ele>232.0</ele><time>2026-04-19T12:49:32.04Z</time></trkpt><trkpt lat="44.8402867" lon="8.01671"><ele>231.16666666666666</ele><time>2026-04-19T12:49:34.039Z</time></trkpt><trkpt lat="44.8401683" lon="8.01676"><ele>230.33333333333331</ele><time>2026-04-19T12:49:36.047Z</time></trkpt><trkpt lat="44.8401017" lon="8.0167567"><ele>229.5</ele><time>2026-04-19T12:49:37.039Z</time></trkpt><trkpt lat="44.840025" lon="8.01675"><ele>228.66666666666669</ele><time>2026-04-19T12:49:38.04Z</time></trkpt><trkpt lat="44.83994" lon="8.016735"><ele>227.83333333333334</ele><time>2026-04-19T12:49:39.048Z</time></trkpt><trkpt lat="44.839845" lon="8.0167283"><ele>227.0</ele><time>2026-04-19T12:49:40.037Z</time></trkpt><trkpt lat="44.8397467" lon="8.016725"><ele>224.8</ele><time>2026-04-19T12:49:41.084Z</time></trkpt><trkpt lat="44.8396367" lon="8.0167233"><ele>222.6</ele><time>2026-04-19T12:49:42.037Z</time></trkpt><trkpt lat="44.8395283" lon="8.0167267"><ele>220.40000000000003</ele><time>2026-04-19T12:49:43.048Z</time></trkpt><trkpt lat="44.83943" lon="8.0167333"><ele>218.20000000000002</ele><time>2026-04-19T12:49:44.042Z</time></trkpt><trkpt lat="44.8393467" lon="8.0167383"><ele>216.0</ele><time>2026-04-19T12:49:45.042Z</time></trkpt><trkpt lat="44.8392767" lon="8.0167567"><ele>215.0</ele><time>2026-04-19T12:49:46.043Z</time></trkpt><trkpt lat="44.83921" lon="8.016785"><ele>214.0</ele><time>2026-04-19T12:49:47.081Z</time></trkpt><trkpt lat="44.8391383" lon="8.0168233"><ele>213.0</ele><time>2026-04-19T12:49:48.044Z</time></trkpt><trkpt lat="44.8390567" lon="8.0168617"><ele>212.0</ele><time>2026-04-19T12:49:49.045Z</time></trkpt><trkpt lat="44.8389667" lon="8.0169033"><ele>211.0</ele><time>2026-04-19T12:49:50.042Z</time></trkpt><trkpt lat="44.8388767" lon="8.0169417"><ele>210.0</ele><time>2026-04-19T12:49:51.037Z</time></trkpt><trkpt lat="44.8387867" lon="8.01698"><ele>210.0</ele><time>2026-04-19T12:49:52.049Z</time></trkpt><trkpt lat="44.8387" lon="8.0170233"><ele>210.0</ele><time>2026-04-19T12:49:53.08Z</time></trkpt><trkpt lat="44.83861" lon="8.0170633"><ele>210.0</ele><time>2026-04-19T12:49:54.037Z</time></trkpt><trkpt lat="44.83853" lon="8.017095"><ele>210.0</ele><time>2026-04-19T12:49:55.043Z</time></trkpt><trkpt lat="44.8384467" lon="8.017125"><ele>210.0</ele><time>2026-04-19T12:49:56.04Z</time></trkpt><trkpt lat="44.83836" lon="8.0171467"><ele>210.0</ele><time>2026-04-19T12:49:57.041Z</time></trkpt><trkpt lat="44.838275" lon="8.0171633"><ele>209.83333333333334</ele><time>2026-04-19T12:49:58.041Z</time></trkpt><trkpt lat="44.8381933" lon="8.0171783"><ele>209.66666666666669</ele><time>2026-04-19T12:49:59.095Z</time></trkpt><trkpt lat="44.838105" lon="8.0171883"><ele>209.5</ele><time>2026-04-19T12:50:00.042Z</time></trkpt><trkpt lat="44.83801" lon="8.0172017"><ele>209.33333333333334</ele><time>2026-04-19T12:50:01.05Z</time></trkpt><trkpt lat="44.8379183" lon="8.0172183"><ele>209.16666666666669</ele><time>2026-04-19T12:50:02.039Z</time></trkpt><trkpt lat="44.8378433" lon="8.017235"><ele>209.0</ele><time>2026-04-19T12:50:03.045Z</time></trkpt><trkpt lat="44.8377417" lon="8.01725"><ele>209.0</ele><time>2026-04-19T12:50:05.082Z</time></trkpt><trkpt lat="44.837655" lon="8.0172767"><ele>209.0</ele><time>2026-04-19T12:50:08.042Z</time></trkpt><trkpt lat="44.8375783" lon="8.01738"><ele>209.0</ele><time>2026-04-19T12:50:10.041Z</time></trkpt><trkpt lat="44.8375183" lon="8.01745"><ele>209.0</ele><time>2026-04-19T12:50:11.083Z</time></trkpt><trkpt lat="44.8374367" lon="8.0175333"><ele>209.0</ele><time>2026-04-19T12:50:12.045Z</time></trkpt><trkpt lat="44.8373283" lon="8.01764"><ele>206.33333333333334</ele><time>2026-04-19T12:50:13.042Z</time></trkpt><trkpt lat="44.8372" lon="8.0177767"><ele>203.66666666666669</ele><time>2026-04-19T12:50:14.043Z</time></trkpt><trkpt lat="44.8370717" lon="8.01792"><ele>201.0</ele><time>2026-04-19T12:50:15.037Z</time></trkpt><trkpt lat="44.8369533" lon="8.0180583"><ele>201.0</ele><time>2026-04-19T12:50:16.043Z</time></trkpt><trkpt lat="44.8368317" lon="8.0181733"><ele>201.0</ele><time>2026-04-19T12:50:17.084Z</time></trkpt><trkpt lat="44.836705" lon="8.0182733"><ele>201.0</ele><time>2026-04-19T12:50:18.038Z</time></trkpt><trkpt lat="44.8365833" lon="8.0183633"><ele>201.0</ele><time>2026-04-19T12:50:19.043Z</time></trkpt><trkpt lat="44.8364617" lon="8.0184383"><ele>200.25</ele><time>2026-04-19T12:50:20.04Z</time></trkpt><trkpt lat="44.8363383" lon="8.0184983"><ele>199.5</ele><time>2026-04-19T12:50:21.038Z</time></trkpt><trkpt lat="44.8362117" lon="8.0185417"><ele>198.75</ele><time>2026-04-19T12:50:22.041Z</time></trkpt><trkpt lat="44.8360933" lon="8.0185767"><ele>198.0</ele><time>2026-04-19T12:50:23.081Z</time></trkpt><trkpt lat="44.8359817" lon="8.0186017"><ele>197.60000000000002</ele><time>2026-04-19T12:50:24.039Z</time></trkpt><trkpt lat="44.83587" lon="8.0186183"><ele>197.20000000000002</ele><time>2026-04-19T12:50:25.042Z</time></trkpt><trkpt lat="44.8357617" lon="8.01864"><ele>196.8</ele><time>2026-04-19T12:50:26.04Z</time></trkpt><trkpt lat="44.8356533" lon="8.018685"><ele>196.4</ele><time>2026-04-19T12:50:27.037Z</time></trkpt><trkpt lat="44.8355517" lon="8.018755"><ele>196.0</ele><time>2026-04-19T12:50:28.045Z</time></trkpt><trkpt lat="44.8354617" lon="8.0188583"><ele>196.0</ele><time>2026-04-19T12:50:29.083Z</time></trkpt><trkpt lat="44.8353783" lon="8.018985"><ele>196.0</ele><time>2026-04-19T12:50:30.04Z</time></trkpt><trkpt lat="44.8352983" lon="8.0191283"><ele>196.0</ele><time>2026-04-19T12:50:31.042Z</time></trkpt><trkpt lat="44.835215" lon="8.0192733"><ele>196.0</ele><time>2026-04-19T12:50:32.038Z</time></trkpt><trkpt lat="44.8351383" lon="8.019425"><ele>194.75</ele><time>2026-04-19T12:50:33.038Z</time></trkpt><trkpt lat="44.8350683" lon="8.0195783"><ele>193.5</ele><time>2026-04-19T12:50:34.038Z</time></trkpt><trkpt lat="44.835" lon="8.0197317"><ele>192.25</ele><time>2026-04-19T12:50:35.087Z</time></trkpt><trkpt lat="44.834935" lon="8.0198867"><ele>191.0</ele><time>2026-04-19T12:50:36.039Z</time></trkpt><trkpt lat="44.8348683" lon="8.0200417"><ele>190.5</ele><time>2026-04-19T12:50:37.044Z</time></trkpt><trkpt lat="44.8348" lon="8.0202"><ele>190.0</ele><time>2026-04-19T12:50:38.045Z</time></trkpt><trkpt lat="44.834735" lon="8.020355"><ele>189.5</ele><time>2026-04-19T12:50:39.043Z</time></trkpt><trkpt lat="44.83468" lon="8.020495"><ele>189.0</ele><time>2026-04-19T12:50:40.041Z</time></trkpt><trkpt lat="44.834635" lon="8.0206083"><ele>189.0</ele><time>2026-04-19T12:50:41.08Z</time></trkpt><trkpt lat="44.834605" lon="8.0207"><ele>189.0</ele><time>2026-04-19T12:50:42.042Z</time></trkpt><trkpt lat="44.8345917" lon="8.0208183"><ele>189.0</ele><time>2026-04-19T12:50:44.035Z</time></trkpt><trkpt lat="44.8346367" lon="8.0208967"><ele>189.0</ele><time>2026-04-19T12:50:53.089Z</time></trkpt><trkpt lat="44.8347483" lon="8.0209433"><ele>189.0</ele><time>2026-04-19T12:50:55.055Z</time></trkpt><trkpt lat="44.8348117" lon="8.0209633"><ele>189.0</ele><time>2026-04-19T12:50:56.04Z</time></trkpt><trkpt lat="44.8348783" lon="8.0209883"><ele>189.2</ele><time>2026-04-19T12:50:57.037Z</time></trkpt><trkpt lat="44.8349467" lon="8.0210267"><ele>189.39999999999998</ele><time>2026-04-19T12:50:58.034Z</time></trkpt><trkpt lat="44.8350183" lon="8.0210817"><ele>189.6</ele><time>2026-04-19T12:50:59.085Z</time></trkpt><trkpt lat="44.83509" lon="8.021155"><ele>189.8</ele><time>2026-04-19T12:51:00.041Z</time></trkpt><trkpt lat="44.8351633" lon="8.0212483"><ele>190.0</ele><time>2026-04-19T12:51:01.035Z</time></trkpt><trkpt lat="44.8352367" lon="8.02136"><ele>191.4</ele><time>2026-04-19T12:51:02.042Z</time></trkpt><trkpt lat="44.8353033" lon="8.0214683"><ele>192.8</ele><time>2026-04-19T12:51:03.038Z</time></trkpt><trkpt lat="44.83536" lon="8.021565"><ele>194.2</ele><time>2026-04-19T12:51:04.047Z</time></trkpt><trkpt lat="44.835405" lon="8.0216467"><ele>195.6</ele><time>2026-04-19T12:51:05.091Z</time></trkpt><trkpt lat="44.83544" lon="8.0217833"><ele>197.0</ele><time>2026-04-19T12:51:07.041Z</time></trkpt><trkpt lat="44.8353767" lon="8.0218933"><ele>197.00000000000003</ele><time>2026-04-19T12:51:09.043Z</time></trkpt><trkpt lat="44.8353183" lon="8.0219717"><ele>197.0</ele><time>2026-04-19T12:51:10.046Z</time></trkpt><trkpt lat="44.8352667" lon="8.022055"><ele>197.0</ele><time>2026-04-19T12:51:11.081Z</time></trkpt><trkpt lat="44.835235" lon="8.022145"><ele>197.0</ele><time>2026-04-19T12:51:12.046Z</time></trkpt><trkpt lat="44.8352383" lon="8.0223033"><ele>197.00000000000003</ele><time>2026-04-19T12:51:14.039Z</time></trkpt><trkpt lat="44.83528" lon="8.02239"><ele>197.0</ele><time>2026-04-19T12:51:15.04Z</time></trkpt><trkpt lat="44.8353317" lon="8.022485"><ele>195.8</ele><time>2026-04-19T12:51:16.04Z</time></trkpt><trkpt lat="44.83539" lon="8.0225933"><ele>194.6</ele><time>2026-04-19T12:51:17.08Z</time></trkpt><trkpt lat="44.835455" lon="8.0227083"><ele>193.4</ele><time>2026-04-19T12:51:18.042Z</time></trkpt><trkpt lat="44.8355183" lon="8.022825"><ele>192.20000000000002</ele><time>2026-04-19T12:51:19.043Z</time></trkpt><trkpt lat="44.8355783" lon="8.022935"><ele>191.0</ele><time>2026-04-19T12:51:20.038Z</time></trkpt><trkpt lat="44.8356317" lon="8.0230467"><ele>191.0</ele><time>2026-04-19T12:51:21.043Z</time></trkpt><trkpt lat="44.835675" lon="8.0231567"><ele>191.0</ele><time>2026-04-19T12:51:22.039Z</time></trkpt><trkpt lat="44.8357083" lon="8.0232667"><ele>191.0</ele><time>2026-04-19T12:51:23.085Z</time></trkpt><trkpt lat="44.8357283" lon="8.02339"><ele>191.0</ele><time>2026-04-19T12:51:24.043Z</time></trkpt><trkpt lat="44.83574" lon="8.023525"><ele>191.0</ele><time>2026-04-19T12:51:25.047Z</time></trkpt><trkpt lat="44.8357417" lon="8.0236633"><ele>190.16666666666666</ele><time>2026-04-19T12:51:26.039Z</time></trkpt><trkpt lat="44.8357317" lon="8.023795"><ele>189.33333333333331</ele><time>2026-04-19T12:51:27.044Z</time></trkpt><trkpt lat="44.8357067" lon="8.023925"><ele>188.5</ele><time>2026-04-19T12:51:28.043Z</time></trkpt><trkpt lat="44.8356783" lon="8.0240467"><ele>187.66666666666666</ele><time>2026-04-19T12:51:29.089Z</time></trkpt><trkpt lat="44.8356433" lon="8.0241567"><ele>186.83333333333334</ele><time>2026-04-19T12:51:30.041Z</time></trkpt><trkpt lat="44.8356133" lon="8.024245"><ele>186.0</ele><time>2026-04-19T12:51:31.038Z</time></trkpt><trkpt lat="44.83552" lon="8.0243667"><ele>185.8</ele><time>2026-04-19T12:51:33.042Z</time></trkpt><trkpt lat="44.8354583" lon="8.02442"><ele>185.60000000000002</ele><time>2026-04-19T12:51:34.039Z</time></trkpt><trkpt lat="44.83539" lon="8.0244933"><ele>185.4</ele><time>2026-04-19T12:51:35.092Z</time></trkpt><trkpt lat="44.8353133" lon="8.024585"><ele>185.2</ele><time>2026-04-19T12:51:36.044Z</time></trkpt><trkpt lat="44.835235" lon="8.024685"><ele>185.0</ele><time>2026-04-19T12:51:37.045Z</time></trkpt><trkpt lat="44.835155" lon="8.0247933"><ele>185.25</ele><time>2026-04-19T12:51:38.04Z</time></trkpt><trkpt lat="44.835075" lon="8.0249083"><ele>185.5</ele><time>2026-04-19T12:51:39.038Z</time></trkpt><trkpt lat="44.8349967" lon="8.0250283"><ele>185.75</ele><time>2026-04-19T12:51:40.043Z</time></trkpt><trkpt lat="44.8349133" lon="8.025145"><ele>186.0</ele><time>2026-04-19T12:51:41.083Z</time></trkpt><trkpt lat="44.8348233" lon="8.0252517"><ele>186.5</ele><time>2026-04-19T12:51:42.039Z</time></trkpt><trkpt lat="44.8347317" lon="8.0253567"><ele>187.0</ele><time>2026-04-19T12:51:43.04Z</time></trkpt><trkpt lat="44.8346467" lon="8.0254667"><ele>187.5</ele><time>2026-04-19T12:51:44.039Z</time></trkpt><trkpt lat="44.8345683" lon="8.0255783"><ele>188.0</ele><time>2026-04-19T12:51:45.038Z</time></trkpt><trkpt lat="44.83449" lon="8.0256833"><ele>188.0</ele><time>2026-04-19T12:51:46.039Z</time></trkpt><trkpt lat="44.83441" lon="8.0257817"><ele>188.0</ele><time>2026-04-19T12:51:47.084Z</time></trkpt><trkpt lat="44.834325" lon="8.0258783"><ele>188.0</ele><time>2026-04-19T12:51:48.04Z</time></trkpt><trkpt lat="44.8342367" lon="8.02597"><ele>188.0</ele><time>2026-04-19T12:51:49.038Z</time></trkpt><trkpt lat="44.83415" lon="8.0260433"><ele>188.0</ele><time>2026-04-19T12:51:50.042Z</time></trkpt><trkpt lat="44.8340533" lon="8.0261"><ele>189.8</ele><time>2026-04-19T12:51:51.042Z</time></trkpt><trkpt lat="44.8339517" lon="8.0261517"><ele>191.60000000000002</ele><time>2026-04-19T12:51:52.048Z</time></trkpt><trkpt lat="44.8338583" lon="8.02621"><ele>193.39999999999998</ele><time>2026-04-19T12:51:53.082Z</time></trkpt><trkpt lat="44.8337617" lon="8.026265"><ele>195.2</ele><time>2026-04-19T12:51:54.038Z</time></trkpt><trkpt lat="44.8336567" lon="8.02631"><ele>197.0</ele><time>2026-04-19T12:51:55.049Z</time></trkpt><trkpt lat="44.83355" lon="8.026355"><ele>197.75</ele><time>2026-04-19T12:51:56.037Z</time></trkpt><trkpt lat="44.8334417" lon="8.0264083"><ele>198.5</ele><time>2026-04-19T12:51:57.046Z</time></trkpt><trkpt lat="44.8333283" lon="8.02646"><ele>199.25</ele><time>2026-04-19T12:51:58.041Z</time></trkpt><trkpt lat="44.8332133" lon="8.0265033"><ele>200.0</ele><time>2026-04-19T12:51:59.088Z</time></trkpt><trkpt lat="44.8331067" lon="8.0265517"><ele>200.00000000000003</ele><time>2026-04-19T12:52:00.041Z</time></trkpt><trkpt lat="44.8330133" lon="8.0266017"><ele>200.0</ele><time>2026-04-19T12:52:01.036Z</time></trkpt><trkpt lat="44.8329317" lon="8.0266517"><ele>200.0</ele><time>2026-04-19T12:52:02.037Z</time></trkpt><trkpt lat="44.8328617" lon="8.0267017"><ele>200.0</ele><time>2026-04-19T12:52:03.039Z</time></trkpt><trkpt lat="44.8327983" lon="8.02677"><ele>200.00000000000003</ele><time>2026-04-19T12:52:04.042Z</time></trkpt><trkpt lat="44.8327367" lon="8.02686"><ele>200.0</ele><time>2026-04-19T12:52:05.092Z</time></trkpt><trkpt lat="44.8326883" lon="8.02696"><ele>200.4</ele><time>2026-04-19T12:52:06.036Z</time></trkpt><trkpt lat="44.832645" lon="8.027085"><ele>200.8</ele><time>2026-04-19T12:52:07.041Z</time></trkpt><trkpt lat="44.832625" lon="8.0272267"><ele>201.2</ele><time>2026-04-19T12:52:08.038Z</time></trkpt><trkpt lat="44.8326183" lon="8.02737"><ele>201.6</ele><time>2026-04-19T12:52:09.039Z</time></trkpt><trkpt lat="44.8326133" lon="8.027505"><ele>202.0</ele><time>2026-04-19T12:52:10.039Z</time></trkpt><trkpt lat="44.8326033" lon="8.0276133"><ele>203.49999999999997</ele><time>2026-04-19T12:52:11.085Z</time></trkpt><trkpt lat="44.8325833" lon="8.0277333"><ele>205.0</ele><time>2026-04-19T12:52:13.049Z</time></trkpt><trkpt lat="44.8325083" lon="8.0277183"><ele>206.5</ele><time>2026-04-19T12:52:17.076Z</time></trkpt><trkpt lat="44.832415" lon="8.0276317"><ele>208.0</ele><time>2026-04-19T12:52:20.046Z</time></trkpt><trkpt lat="44.8323617" lon="8.0275767"><ele>209.49999999999997</ele><time>2026-04-19T12:52:21.039Z</time></trkpt><trkpt lat="44.8322917" lon="8.0275133"><ele>211.0</ele><time>2026-04-19T12:52:22.046Z</time></trkpt><trkpt lat="44.832215" lon="8.0274433"><ele>210.99999999999997</ele><time>2026-04-19T12:52:23.078Z</time></trkpt><trkpt lat="44.83214" lon="8.027375"><ele>211.0</ele><time>2026-04-19T12:52:24.042Z</time></trkpt><trkpt lat="44.832065" lon="8.0273217"><ele>211.0</ele><time>2026-04-19T12:52:25.041Z</time></trkpt><trkpt lat="44.8319817" lon="8.027285"><ele>211.0</ele><time>2026-04-19T12:52:26.047Z</time></trkpt><trkpt lat="44.8318983" lon="8.0272583"><ele>210.99999999999997</ele><time>2026-04-19T12:52:27.046Z</time></trkpt><trkpt lat="44.8318183" lon="8.02723"><ele>211.0</ele><time>2026-04-19T12:52:28.048Z</time></trkpt><trkpt lat="44.8317467" lon="8.0271883"><ele>214.0</ele><time>2026-04-19T12:52:29.091Z</time></trkpt><trkpt lat="44.8316833" lon="8.0271267"><ele>217.0</ele><time>2026-04-19T12:52:30.044Z</time></trkpt><trkpt lat="44.8316283" lon="8.0270417"><ele>220.00000000000003</ele><time>2026-04-19T12:52:31.043Z</time></trkpt><trkpt lat="44.8315667" lon="8.026935"><ele>223.0</ele><time>2026-04-19T12:52:32.04Z</time></trkpt><trkpt lat="44.8314933" lon="8.026825"><ele>226.0</ele><time>2026-04-19T12:52:33.042Z</time></trkpt><trkpt lat="44.831405" lon="8.0267133"><ele>225.75</ele><time>2026-04-19T12:52:34.04Z</time></trkpt><trkpt lat="44.831295" lon="8.0265933"><ele>225.5</ele><time>2026-04-19T12:52:35.091Z</time></trkpt><trkpt lat="44.8311717" lon="8.026465"><ele>225.25</ele><time>2026-04-19T12:52:36.04Z</time></trkpt><trkpt lat="44.8310467" lon="8.0263417"><ele>225.0</ele><time>2026-04-19T12:52:37.044Z</time></trkpt><trkpt lat="44.83094" lon="8.0262283"><ele>228.0</ele><time>2026-04-19T12:52:38.046Z</time></trkpt><trkpt lat="44.8308483" lon="8.02613"><ele>231.0</ele><time>2026-04-19T12:52:39.039Z</time></trkpt><trkpt lat="44.830755" lon="8.0260383"><ele>234.0</ele><time>2026-04-19T12:52:40.049Z</time></trkpt><trkpt lat="44.8306533" lon="8.025955"><ele>237.0</ele><time>2026-04-19T12:52:41.078Z</time></trkpt><trkpt lat="44.8305417" lon="8.0258933"><ele>237.0</ele><time>2026-04-19T12:52:42.045Z</time></trkpt><trkpt lat="44.83042" lon="8.0258417"><ele>237.0</ele><time>2026-04-19T12:52:43.043Z</time></trkpt><trkpt lat="44.83029" lon="8.0258"><ele>237.0</ele><time>2026-04-19T12:52:44.042Z</time></trkpt><trkpt lat="44.8301533" lon="8.025765"><ele>237.0</ele><time>2026-04-19T12:52:45.044Z</time></trkpt><trkpt lat="44.830015" lon="8.0257317"><ele>235.75</ele><time>2026-04-19T12:52:46.044Z</time></trkpt><trkpt lat="44.8298767" lon="8.0256917"><ele>234.5</ele><time>2026-04-19T12:52:47.078Z</time></trkpt><trkpt lat="44.8297417" lon="8.02564"><ele>233.25</ele><time>2026-04-19T12:52:48.039Z</time></trkpt><trkpt lat="44.8296067" lon="8.0255767"><ele>232.0</ele><time>2026-04-19T12:52:49.046Z</time></trkpt><trkpt lat="44.8294667" lon="8.0255133"><ele>232.0</ele><time>2026-04-19T12:52:50.043Z</time></trkpt><trkpt lat="44.82932" lon="8.025455"><ele>232.0</ele><time>2026-04-19T12:52:51.04Z</time></trkpt><trkpt lat="44.8291717" lon="8.0254067"><ele>232.0</ele><time>2026-04-19T12:52:52.041Z</time></trkpt><trkpt lat="44.8290183" lon="8.0253717"><ele>231.66666666666666</ele><time>2026-04-19T12:52:53.082Z</time></trkpt><trkpt lat="44.8288667" lon="8.02535"><ele>231.33333333333331</ele><time>2026-04-19T12:52:54.041Z</time></trkpt><trkpt lat="44.8287117" lon="8.025335"><ele>231.0</ele><time>2026-04-19T12:52:55.038Z</time></trkpt><trkpt lat="44.8285583" lon="8.0253283"><ele>232.25</ele><time>2026-04-19T12:52:56.042Z</time></trkpt><trkpt lat="44.8284083" lon="8.02533"><ele>233.5</ele><time>2026-04-19T12:52:57.041Z</time></trkpt><trkpt lat="44.8282683" lon="8.0253417"><ele>234.75</ele><time>2026-04-19T12:52:58.052Z</time></trkpt><trkpt lat="44.828145" lon="8.02537"><ele>236.0</ele><time>2026-04-19T12:52:59.085Z</time></trkpt><trkpt lat="44.8280333" lon="8.0254233"><ele>236.0</ele><time>2026-04-19T12:53:00.04Z</time></trkpt><trkpt lat="44.82793" lon="8.025505"><ele>236.0</ele><time>2026-04-19T12:53:01.041Z</time></trkpt><trkpt lat="44.8278333" lon="8.02561"><ele>236.0</ele><time>2026-04-19T12:53:02.042Z</time></trkpt><trkpt lat="44.8277383" lon="8.0257333"><ele>236.0</ele><time>2026-04-19T12:53:03.039Z</time></trkpt><trkpt lat="44.82764" lon="8.02587"><ele>238.20000000000002</ele><time>2026-04-19T12:53:04.037Z</time></trkpt><trkpt lat="44.82754" lon="8.0260067"><ele>240.40000000000003</ele><time>2026-04-19T12:53:05.087Z</time></trkpt><trkpt lat="44.8274533" lon="8.0261383"><ele>242.6</ele><time>2026-04-19T12:53:06.043Z</time></trkpt><trkpt lat="44.82739" lon="8.0262517"><ele>244.8</ele><time>2026-04-19T12:53:07.043Z</time></trkpt><trkpt lat="44.8273417" lon="8.0263367"><ele>247.0</ele><time>2026-04-19T12:53:08.037Z</time></trkpt><trkpt lat="44.8272217" lon="8.02638"><ele>246.99999999999997</ele><time>2026-04-19T12:53:10.05Z</time></trkpt><trkpt lat="44.8271367" lon="8.0263483"><ele>247.0</ele><time>2026-04-19T12:53:11.089Z</time></trkpt><trkpt lat="44.8270517" lon="8.0263133"><ele>247.0</ele><time>2026-04-19T12:53:12.038Z</time></trkpt><trkpt lat="44.8269767" lon="8.0262783"><ele>247.0</ele><time>2026-04-19T12:53:13.042Z</time></trkpt><trkpt lat="44.82691" lon="8.0262433"><ele>246.99999999999997</ele><time>2026-04-19T12:53:14.04Z</time></trkpt><trkpt lat="44.8268417" lon="8.0262067"><ele>247.0</ele><time>2026-04-19T12:53:15.039Z</time></trkpt><trkpt lat="44.82677" lon="8.0261717"><ele>246.66666666666666</ele><time>2026-04-19T12:53:16.041Z</time></trkpt><trkpt lat="44.8266983" lon="8.0261333"><ele>246.33333333333331</ele><time>2026-04-19T12:53:17.085Z</time></trkpt><trkpt lat="44.8266233" lon="8.026095"><ele>246.0</ele><time>2026-04-19T12:53:18.037Z</time></trkpt><trkpt lat="44.826545" lon="8.0260533"><ele>245.66666666666669</ele><time>2026-04-19T12:53:19.044Z</time></trkpt><trkpt lat="44.8264583" lon="8.0260117"><ele>245.33333333333334</ele><time>2026-04-19T12:53:20.047Z</time></trkpt><trkpt lat="44.8263667" lon="8.025965"><ele>245.0</ele><time>2026-04-19T12:53:21.04Z</time></trkpt><trkpt lat="44.826265" lon="8.025915"><ele>245.0</ele><time>2026-04-19T12:53:22.043Z</time></trkpt><trkpt lat="44.82616" lon="8.0258633"><ele>245.0</ele><time>2026-04-19T12:53:23.078Z</time></trkpt><trkpt lat="44.8260567" lon="8.0258133"><ele>245.0</ele><time>2026-04-19T12:53:24.049Z</time></trkpt><trkpt lat="44.8259533" lon="8.0257567"><ele>245.0</ele><time>2026-04-19T12:53:25.042Z</time></trkpt><trkpt lat="44.8258533" lon="8.025685"><ele>245.0</ele><time>2026-04-19T12:53:26.044Z</time></trkpt><trkpt lat="44.8257567" lon="8.0256067"><ele>244.2</ele><time>2026-04-19T12:53:27.04Z</time></trkpt><trkpt lat="44.8256617" lon="8.025525"><ele>243.4</ele><time>2026-04-19T12:53:28.044Z</time></trkpt><trkpt lat="44.8255683" lon="8.025445"><ele>242.60000000000002</ele><time>2026-04-19T12:53:29.083Z</time></trkpt><trkpt lat="44.825475" lon="8.025365"><ele>241.8</ele><time>2026-04-19T12:53:30.039Z</time></trkpt><trkpt lat="44.8253833" lon="8.0252883"><ele>241.0</ele><time>2026-04-19T12:53:31.045Z</time></trkpt><trkpt lat="44.8252933" lon="8.0252117"><ele>241.0</ele><time>2026-04-19T12:53:32.038Z</time></trkpt><trkpt lat="44.8252067" lon="8.0251333"><ele>241.00000000000003</ele><time>2026-04-19T12:53:33.041Z</time></trkpt><trkpt lat="44.825125" lon="8.025045"><ele>241.00000000000003</ele><time>2026-04-19T12:53:34.039Z</time></trkpt><trkpt lat="44.8250433" lon="8.0249433"><ele>241.0</ele><time>2026-04-19T12:53:35.091Z</time></trkpt><trkpt lat="44.824955" lon="8.0248317"><ele>241.0</ele><time>2026-04-19T12:53:36.035Z</time></trkpt><trkpt lat="44.824855" lon="8.0247167"><ele>245.66666666666666</ele><time>2026-04-19T12:53:37.043Z</time></trkpt><trkpt lat="44.824745" lon="8.02459"><ele>250.33333333333331</ele><time>2026-04-19T12:53:38.037Z</time></trkpt><trkpt lat="44.824625" lon="8.0244517"><ele>255.0</ele><time>2026-04-19T12:53:39.037Z</time></trkpt><trkpt lat="44.8244983" lon="8.02431"><ele>255.0</ele><time>2026-04-19T12:53:40.04Z</time></trkpt><trkpt lat="44.8243683" lon="8.0241667"><ele>255.0</ele><time>2026-04-19T12:53:41.089Z</time></trkpt><trkpt lat="44.8242333" lon="8.02402"><ele>255.0</ele><time>2026-04-19T12:53:42.043Z</time></trkpt><trkpt lat="44.8241067" lon="8.0238783"><ele>258.0</ele><time>2026-04-19T12:53:43.041Z</time></trkpt><trkpt lat="44.8239917" lon="8.0237533"><ele>261.0</ele><time>2026-04-19T12:53:44.04Z</time></trkpt><trkpt lat="44.8238833" lon="8.0236433"><ele>264.0</ele><time>2026-04-19T12:53:45.042Z</time></trkpt><trkpt lat="44.8237833" lon="8.0235467"><ele>267.0</ele><time>2026-04-19T12:53:46.039Z</time></trkpt><trkpt lat="44.8236817" lon="8.0234517"><ele>267.0</ele><time>2026-04-19T12:53:47.083Z</time></trkpt><trkpt lat="44.8235867" lon="8.0233517"><ele>267.0</ele><time>2026-04-19T12:53:48.036Z</time></trkpt><trkpt lat="44.8234983" lon="8.0232433"><ele>267.0</ele><time>2026-04-19T12:53:49.04Z</time></trkpt><trkpt lat="44.8234133" lon="8.0231167"><ele>267.0</ele><time>2026-04-19T12:53:50.044Z</time></trkpt><trkpt lat="44.8233233" lon="8.0229783"><ele>266.5</ele><time>2026-04-19T12:53:51.041Z</time></trkpt><trkpt lat="44.8232283" lon="8.0228433"><ele>266.0</ele><time>2026-04-19T12:53:52.043Z</time></trkpt><trkpt lat="44.8231317" lon="8.022715"><ele>265.5</ele><time>2026-04-19T12:53:53.079Z</time></trkpt><trkpt lat="44.8230283" lon="8.02258"><ele>265.0</ele><time>2026-04-19T12:53:54.041Z</time></trkpt><trkpt lat="44.8229267" lon="8.0224367"><ele>265.0</ele><time>2026-04-19T12:53:55.041Z</time></trkpt><trkpt lat="44.8228267" lon="8.0222867"><ele>265.0</ele><time>2026-04-19T12:53:56.036Z</time></trkpt><trkpt lat="44.822725" lon="8.0221467"><ele>265.0</ele><time>2026-04-19T12:53:57.049Z</time></trkpt><trkpt lat="44.8226217" lon="8.0220133"><ele>265.0</ele><time>2026-04-19T12:53:58.043Z</time></trkpt><trkpt lat="44.822525" lon="8.0218833"><ele>268.25</ele><time>2026-04-19T12:53:59.083Z</time></trkpt><trkpt lat="44.8224433" lon="8.0217567"><ele>271.5</ele><time>2026-04-19T12:54:00.043Z</time></trkpt><trkpt lat="44.8223817" lon="8.0216317"><ele>274.75</ele><time>2026-04-19T12:54:01.041Z</time></trkpt><trkpt lat="44.8223217" lon="8.0214967"><ele>278.0</ele><time>2026-04-19T12:54:02.044Z</time></trkpt><trkpt lat="44.82226" lon="8.0213567"><ele>281.0</ele><time>2026-04-19T12:54:03.041Z</time></trkpt><trkpt lat="44.8221883" lon="8.0212167"><ele>284.0</ele><time>2026-04-19T12:54:04.043Z</time></trkpt><trkpt lat="44.822105" lon="8.0210883"><ele>287.0</ele><time>2026-04-19T12:54:05.088Z</time></trkpt><trkpt lat="44.8220017" lon="8.0209767"><ele>290.0</ele><time>2026-04-19T12:54:06.046Z</time></trkpt><trkpt lat="44.821885" lon="8.0208717"><ele>288.33333333333337</ele><time>2026-04-19T12:54:07.046Z</time></trkpt><trkpt lat="44.8217633" lon="8.020765"><ele>286.6666666666667</ele><time>2026-04-19T12:54:08.034Z</time></trkpt><trkpt lat="44.8216317" lon="8.0206583"><ele>285.0</ele><time>2026-04-19T12:54:09.042Z</time></trkpt><trkpt lat="44.8214933" lon="8.0205517"><ele>285.0</ele><time>2026-04-19T12:54:10.04Z</time></trkpt><trkpt lat="44.8213567" lon="8.0204517"><ele>285.0</ele><time>2026-04-19T12:54:11.081Z</time></trkpt><trkpt lat="44.8212233" lon="8.0203617"><ele>285.0</ele><time>2026-04-19T12:54:12.035Z</time></trkpt><trkpt lat="44.8210983" lon="8.020275"><ele>285.0</ele><time>2026-04-19T12:54:13.039Z</time></trkpt><trkpt lat="44.820985" lon="8.020185"><ele>282.8</ele><time>2026-04-19T12:54:14.048Z</time></trkpt><trkpt lat="44.8208933" lon="8.0200917"><ele>280.6</ele><time>2026-04-19T12:54:15.043Z</time></trkpt><trkpt lat="44.82082" lon="8.0200033"><ele>278.4</ele><time>2026-04-19T12:54:16.043Z</time></trkpt><trkpt lat="44.8207683" lon="8.01995"><ele>276.2</ele><time>2026-04-19T12:54:18.037Z</time></trkpt><trkpt lat="44.82069" lon="8.0200067"><ele>274.0</ele><time>2026-04-19T12:54:21.041Z</time></trkpt><trkpt lat="44.8205483" lon="8.020035"><ele>274.0</ele><time>2026-04-19T12:54:23.077Z</time></trkpt><trkpt lat="44.8204367" lon="8.0200417"><ele>274.0</ele><time>2026-04-19T12:54:24.039Z</time></trkpt><trkpt lat="44.8202983" lon="8.0200483"><ele>274.0</ele><time>2026-04-19T12:54:25.047Z</time></trkpt><trkpt lat="44.820155" lon="8.0200583"><ele>274.0</ele><time>2026-04-19T12:54:26.041Z</time></trkpt><trkpt lat="44.8200117" lon="8.0200667"><ele>274.0</ele><time>2026-04-19T12:54:27.046Z</time></trkpt><trkpt lat="44.819865" lon="8.0200683"><ele>274.0</ele><time>2026-04-19T12:54:28.04Z</time></trkpt><trkpt lat="44.819725" lon="8.0200733"><ele>274.0</ele><time>2026-04-19T12:54:29.089Z</time></trkpt><trkpt lat="44.819595" lon="8.0200733"><ele>274.0</ele><time>2026-04-19T12:54:30.042Z</time></trkpt><trkpt lat="44.81947" lon="8.020055"><ele>274.0</ele><time>2026-04-19T12:54:31.041Z</time></trkpt><trkpt lat="44.81935" lon="8.02002"><ele>274.0</ele><time>2026-04-19T12:54:32.034Z</time></trkpt><trkpt lat="44.819235" lon="8.0199767"><ele>274.0</ele><time>2026-04-19T12:54:33.038Z</time></trkpt><trkpt lat="44.8191283" lon="8.019925"><ele>274.0</ele><time>2026-04-19T12:54:34.049Z</time></trkpt><trkpt lat="44.81903" lon="8.01986"><ele>273.75</ele><time>2026-04-19T12:54:35.091Z</time></trkpt><trkpt lat="44.818935" lon="8.01979"><ele>273.5</ele><time>2026-04-19T12:54:36.039Z</time></trkpt><trkpt lat="44.8188317" lon="8.019715"><ele>273.25</ele><time>2026-04-19T12:54:37.041Z</time></trkpt><trkpt lat="44.8187217" lon="8.0196383"><ele>273.0</ele><time>2026-04-19T12:54:38.039Z</time></trkpt><trkpt lat="44.81861" lon="8.0195683"><ele>273.0</ele><time>2026-04-19T12:54:39.042Z</time></trkpt><trkpt lat="44.8185" lon="8.0195"><ele>273.0</ele><time>2026-04-19T12:54:40.039Z</time></trkpt><trkpt lat="44.8183867" lon="8.0194333"><ele>273.0</ele><time>2026-04-19T12:54:41.081Z</time></trkpt><trkpt lat="44.8182867" lon="8.0193817"><ele>273.0</ele><time>2026-04-19T12:54:42.038Z</time></trkpt><trkpt lat="44.818195" lon="8.0193517"><ele>273.0</ele><time>2026-04-19T12:54:43.044Z</time></trkpt><trkpt lat="44.81811" lon="8.0193483"><ele>273.0</ele><time>2026-04-19T12:54:44.037Z</time></trkpt><trkpt lat="44.8180233" lon="8.0193617"><ele>273.0</ele><time>2026-04-19T12:54:45.037Z</time></trkpt><trkpt lat="44.8179433" lon="8.01938"><ele>273.0</ele><time>2026-04-19T12:54:46.04Z</time></trkpt><trkpt lat="44.8178733" lon="8.0194"><ele>273.0</ele><time>2026-04-19T12:54:47.081Z</time></trkpt><trkpt lat="44.8177733" lon="8.0194333"><ele>273.0</ele><time>2026-04-19T12:54:49.042Z</time></trkpt><trkpt lat="44.817705" lon="8.0194683"><ele>273.0</ele><time>2026-04-19T12:55:07.04Z</time></trkpt><trkpt lat="44.8176267" lon="8.0195033"><ele>273.5</ele><time>2026-04-19T12:55:31.05Z</time></trkpt><trkpt lat="44.81753" lon="8.019515"><ele>274.0</ele><time>2026-04-19T12:56:01.048Z</time></trkpt><trkpt lat="44.8174467" lon="8.0196133"><ele>274.5</ele><time>2026-04-19T12:56:03.043Z</time></trkpt><trkpt lat="44.8173933" lon="8.019685"><ele>275.0</ele><time>2026-04-19T12:56:04.047Z</time></trkpt><trkpt lat="44.8173567" lon="8.0197967"><ele>275.5</ele><time>2026-04-19T12:56:05.091Z</time></trkpt><trkpt lat="44.8173333" lon="8.0199067"><ele>276.0</ele><time>2026-04-19T12:56:06.038Z</time></trkpt><trkpt lat="44.81732" lon="8.020035"><ele>277.0</ele><time>2026-04-19T12:56:07.04Z</time></trkpt><trkpt lat="44.817315" lon="8.020155"><ele>278.0</ele><time>2026-04-19T12:56:08.044Z</time></trkpt><trkpt lat="44.8173117" lon="8.02027"><ele>279.0</ele><time>2026-04-19T12:56:09.04Z</time></trkpt><trkpt lat="44.817315" lon="8.02037"><ele>280.0</ele><time>2026-04-19T12:56:10.046Z</time></trkpt><trkpt lat="44.8173233" lon="8.02052"><ele>281.0</ele><time>2026-04-19T12:56:12.045Z</time></trkpt><trkpt lat="44.817345" lon="8.0206917"><ele>281.0</ele><time>2026-04-19T12:56:14.038Z</time></trkpt><trkpt lat="44.8173617" lon="8.0207967"><ele>281.0</ele><time>2026-04-19T12:56:15.045Z</time></trkpt><trkpt lat="44.8173833" lon="8.02091"><ele>281.0</ele><time>2026-04-19T12:56:16.046Z</time></trkpt><trkpt lat="44.8174017" lon="8.021025"><ele>281.0</ele><time>2026-04-19T12:56:17.081Z</time></trkpt><trkpt lat="44.81741" lon="8.02114"><ele>281.0</ele><time>2026-04-19T12:56:18.039Z</time></trkpt><trkpt lat="44.8174033" lon="8.0212483"><ele>281.0</ele><time>2026-04-19T12:56:19.04Z</time></trkpt><trkpt lat="44.8173717" lon="8.02136"><ele>281.1666666666667</ele><time>2026-04-19T12:56:20.043Z</time></trkpt><trkpt lat="44.8173383" lon="8.0214617"><ele>281.33333333333337</ele><time>2026-04-19T12:56:21.046Z</time></trkpt><trkpt lat="44.8173067" lon="8.0215617"><ele>281.5</ele><time>2026-04-19T12:56:22.038Z</time></trkpt><trkpt lat="44.8172833" lon="8.0216617"><ele>281.6666666666667</ele><time>2026-04-19T12:56:23.082Z</time></trkpt><trkpt lat="44.8172733" lon="8.021755"><ele>281.8333333333333</ele><time>2026-04-19T12:56:24.042Z</time></trkpt><trkpt lat="44.8172833" lon="8.02191"><ele>282.0</ele><time>2026-04-19T12:56:26.036Z</time></trkpt><trkpt lat="44.8172933" lon="8.0220467"><ele>282.5</ele><time>2026-04-19T12:56:28.049Z</time></trkpt><trkpt lat="44.81729" lon="8.0221383"><ele>283.0</ele><time>2026-04-19T12:56:29.09Z</time></trkpt><trkpt lat="44.8172817" lon="8.0222417"><ele>283.5</ele><time>2026-04-19T12:56:30.046Z</time></trkpt><trkpt lat="44.817275" lon="8.0223583"><ele>284.0</ele><time>2026-04-19T12:56:31.041Z</time></trkpt><trkpt lat="44.817265" lon="8.0224833"><ele>284.5</ele><time>2026-04-19T12:56:32.04Z</time></trkpt><trkpt lat="44.8172517" lon="8.0226117"><ele>285.0</ele><time>2026-04-19T12:56:33.043Z</time></trkpt><trkpt lat="44.8172267" lon="8.022745"><ele>285.8</ele><time>2026-04-19T12:56:34.044Z</time></trkpt><trkpt lat="44.8172" lon="8.0228833"><ele>286.6</ele><time>2026-04-19T12:56:35.087Z</time></trkpt><trkpt lat="44.8171667" lon="8.02302"><ele>287.4</ele><time>2026-04-19T12:56:36.037Z</time></trkpt><trkpt lat="44.817145" lon="8.023165"><ele>288.2</ele><time>2026-04-19T12:56:37.048Z</time></trkpt><trkpt lat="44.8171267" lon="8.0233067"><ele>289.0</ele><time>2026-04-19T12:56:38.04Z</time></trkpt><trkpt lat="44.8171067" lon="8.0234533"><ele>290.59999999999997</ele><time>2026-04-19T12:56:39.042Z</time></trkpt><trkpt lat="44.8170783" lon="8.0235917"><ele>292.2</ele><time>2026-04-19T12:56:40.035Z</time></trkpt><trkpt lat="44.8170517" lon="8.0237233"><ele>293.79999999999995</ele><time>2026-04-19T12:56:41.083Z</time></trkpt><trkpt lat="44.8170467" lon="8.0238633"><ele>295.4</ele><time>2026-04-19T12:56:42.045Z</time></trkpt><trkpt lat="44.8170167" lon="8.02399"><ele>297.0</ele><time>2026-04-19T12:56:43.038Z</time></trkpt><trkpt lat="44.81696" lon="8.0241067"><ele>297.4</ele><time>2026-04-19T12:56:44.041Z</time></trkpt><trkpt lat="44.8169017" lon="8.0242167"><ele>297.79999999999995</ele><time>2026-04-19T12:56:45.039Z</time></trkpt><trkpt lat="44.8168467" lon="8.0243283"><ele>298.2</ele><time>2026-04-19T12:56:46.035Z</time></trkpt><trkpt lat="44.816795" lon="8.024445"><ele>298.59999999999997</ele><time>2026-04-19T12:56:47.081Z</time></trkpt><trkpt lat="44.8167367" lon="8.0245483"><ele>299.0</ele><time>2026-04-19T12:56:48.038Z</time></trkpt><trkpt lat="44.8166883" lon="8.024655"><ele>296.59999999999997</ele><time>2026-04-19T12:56:49.047Z</time></trkpt><trkpt lat="44.8166633" lon="8.0247817"><ele>294.2</ele><time>2026-04-19T12:56:50.045Z</time></trkpt><trkpt lat="44.8166367" lon="8.0249067"><ele>291.79999999999995</ele><time>2026-04-19T12:56:51.041Z</time></trkpt><trkpt lat="44.8166183" lon="8.0250433"><ele>289.4</ele><time>2026-04-19T12:56:52.039Z</time></trkpt><trkpt lat="44.816605" lon="8.0251833"><ele>287.0</ele><time>2026-04-19T12:56:53.077Z</time></trkpt><trkpt lat="44.8166067" lon="8.0253133"><ele>287.0</ele><time>2026-04-19T12:56:54.044Z</time></trkpt><trkpt lat="44.8165617" lon="8.02544"><ele>287.0</ele><time>2026-04-19T12:56:55.041Z</time></trkpt><trkpt lat="44.8164983" lon="8.02557"><ele>287.0</ele><time>2026-04-19T12:56:56.047Z</time></trkpt><trkpt lat="44.8164333" lon="8.025705"><ele>287.0</ele><time>2026-04-19T12:56:57.043Z</time></trkpt><trkpt lat="44.81637" lon="8.0258467"><ele>287.0</ele><time>2026-04-19T12:56:58.041Z</time></trkpt><trkpt lat="44.8163017" lon="8.0259717"><ele>285.8</ele><time>2026-04-19T12:56:59.094Z</time></trkpt><trkpt lat="44.8162367" lon="8.0260817"><ele>284.6</ele><time>2026-04-19T12:57:00.04Z</time></trkpt><trkpt lat="44.8161617" lon="8.026175"><ele>283.40000000000003</ele><time>2026-04-19T12:57:01.041Z</time></trkpt><trkpt lat="44.8160683" lon="8.02626"><ele>282.2</ele><time>2026-04-19T12:57:02.043Z</time></trkpt><trkpt lat="44.8159567" lon="8.0263233"><ele>281.0</ele><time>2026-04-19T12:57:03.045Z</time></trkpt><trkpt lat="44.81584" lon="8.0263867"><ele>277.5</ele><time>2026-04-19T12:57:04.052Z</time></trkpt><trkpt lat="44.815725" lon="8.026455"><ele>274.0</ele><time>2026-04-19T12:57:05.086Z</time></trkpt><trkpt lat="44.81562" lon="8.0265283"><ele>270.5</ele><time>2026-04-19T12:57:06.037Z</time></trkpt><trkpt lat="44.8155067" lon="8.0266017"><ele>267.0</ele><time>2026-04-19T12:57:07.041Z</time></trkpt><trkpt lat="44.81539" lon="8.026675"><ele>267.0</ele><time>2026-04-19T12:57:08.036Z</time></trkpt><trkpt lat="44.815275" lon="8.0267483"><ele>267.0</ele><time>2026-04-19T12:57:09.043Z</time></trkpt><trkpt lat="44.8151667" lon="8.0268267"><ele>267.0</ele><time>2026-04-19T12:57:10.043Z</time></trkpt><trkpt lat="44.8150667" lon="8.0269067"><ele>267.0</ele><time>2026-04-19T12:57:11.094Z</time></trkpt><trkpt lat="44.8149833" lon="8.0269917"><ele>265.8333333333333</ele><time>2026-04-19T12:57:12.051Z</time></trkpt><trkpt lat="44.814925" lon="8.027075"><ele>264.6666666666667</ele><time>2026-04-19T12:57:13.05Z</time></trkpt><trkpt lat="44.8148883" lon="8.0271667"><ele>263.5</ele><time>2026-04-19T12:57:14.043Z</time></trkpt><trkpt lat="44.81486" lon="8.0272667"><ele>262.33333333333337</ele><time>2026-04-19T12:57:15.042Z</time></trkpt><trkpt lat="44.8148583" lon="8.0273883"><ele>261.1666666666667</ele><time>2026-04-19T12:57:16.038Z</time></trkpt><trkpt lat="44.8148883" lon="8.0275267"><ele>260.0</ele><time>2026-04-19T12:57:17.088Z</time></trkpt><trkpt lat="44.8149367" lon="8.0276683"><ele>259.0</ele><time>2026-04-19T12:57:18.039Z</time></trkpt><trkpt lat="44.8149883" lon="8.0278183"><ele>258.0</ele><time>2026-04-19T12:57:19.035Z</time></trkpt><trkpt lat="44.815025" lon="8.0279783"><ele>257.0</ele><time>2026-04-19T12:57:20.041Z</time></trkpt><trkpt lat="44.81505" lon="8.028145"><ele>256.0</ele><time>2026-04-19T12:57:21.043Z</time></trkpt><trkpt lat="44.81506" lon="8.0283133"><ele>253.75</ele><time>2026-04-19T12:57:22.045Z</time></trkpt><trkpt lat="44.81506" lon="8.0284867"><ele>251.5</ele><time>2026-04-19T12:57:23.079Z</time></trkpt><trkpt lat="44.8150567" lon="8.0286583"><ele>249.25</ele><time>2026-04-19T12:57:24.038Z</time></trkpt><trkpt lat="44.8150533" lon="8.0288317"><ele>247.0</ele><time>2026-04-19T12:57:25.035Z</time></trkpt><trkpt lat="44.8150533" lon="8.029005"><ele>247.0</ele><time>2026-04-19T12:57:26.044Z</time></trkpt><trkpt lat="44.81506" lon="8.0291783"><ele>247.0</ele><time>2026-04-19T12:57:27.039Z</time></trkpt><trkpt lat="44.8150633" lon="8.029355"><ele>247.0</ele><time>2026-04-19T12:57:28.043Z</time></trkpt><trkpt lat="44.8150667" lon="8.0295333"><ele>247.0</ele><time>2026-04-19T12:57:29.088Z</time></trkpt><trkpt lat="44.8150667" lon="8.029715"><ele>247.0</ele><time>2026-04-19T12:57:30.041Z</time></trkpt><trkpt lat="44.8150683" lon="8.0299"><ele>247.0</ele><time>2026-04-19T12:57:31.039Z</time></trkpt><trkpt lat="44.81507" lon="8.030085"><ele>247.0</ele><time>2026-04-19T12:57:32.047Z</time></trkpt><trkpt lat="44.8150733" lon="8.0302683"><ele>247.0</ele><time>2026-04-19T12:57:33.047Z</time></trkpt><trkpt lat="44.8150733" lon="8.0304517"><ele>247.0</ele><time>2026-04-19T12:57:34.041Z</time></trkpt><trkpt lat="44.8150733" lon="8.0306367"><ele>247.0</ele><time>2026-04-19T12:57:35.09Z</time></trkpt><trkpt lat="44.8150717" lon="8.03082"><ele>247.0</ele><time>2026-04-19T12:57:36.043Z</time></trkpt><trkpt lat="44.8150733" lon="8.031"><ele>247.0</ele><time>2026-04-19T12:57:37.043Z</time></trkpt><trkpt lat="44.81508" lon="8.0311783"><ele>247.0</ele><time>2026-04-19T12:57:38.052Z</time></trkpt><trkpt lat="44.8151017" lon="8.031355"><ele>247.0</ele><time>2026-04-19T12:57:39.041Z</time></trkpt><trkpt lat="44.81514" lon="8.03153"><ele>247.0</ele><time>2026-04-19T12:57:40.037Z</time></trkpt><trkpt lat="44.8152" lon="8.0317033"><ele>247.0</ele><time>2026-04-19T12:57:41.081Z</time></trkpt><trkpt lat="44.8152917" lon="8.0318633"><ele>244.25</ele><time>2026-04-19T12:57:42.043Z</time></trkpt><trkpt lat="44.8153967" lon="8.0320117"><ele>241.5</ele><time>2026-04-19T12:57:43.041Z</time></trkpt><trkpt lat="44.8154967" lon="8.0321567"><ele>238.75</ele><time>2026-04-19T12:57:44.047Z</time></trkpt><trkpt lat="44.8155867" lon="8.0323"><ele>236.0</ele><time>2026-04-19T12:57:45.043Z</time></trkpt><trkpt lat="44.8156583" lon="8.032445"><ele>236.0</ele><time>2026-04-19T12:57:46.038Z</time></trkpt><trkpt lat="44.815715" lon="8.0326017"><ele>236.0</ele><time>2026-04-19T12:57:47.084Z</time></trkpt><trkpt lat="44.8157583" lon="8.0327717"><ele>236.0</ele><time>2026-04-19T12:57:48.04Z</time></trkpt><trkpt lat="44.8157967" lon="8.0329483"><ele>236.0</ele><time>2026-04-19T12:57:49.04Z</time></trkpt><trkpt lat="44.8158333" lon="8.0331283"><ele>235.0</ele><time>2026-04-19T12:57:50.042Z</time></trkpt><trkpt lat="44.8158717" lon="8.0333083"><ele>234.0</ele><time>2026-04-19T12:57:51.038Z</time></trkpt><trkpt lat="44.8159117" lon="8.03349"><ele>233.0</ele><time>2026-04-19T12:57:52.041Z</time></trkpt><trkpt lat="44.8159483" lon="8.0336733"><ele>232.0</ele><time>2026-04-19T12:57:53.08Z</time></trkpt><trkpt lat="44.8159883" lon="8.0338633"><ele>229.5</ele><time>2026-04-19T12:57:54.037Z</time></trkpt><trkpt lat="44.8160267" lon="8.0340567"><ele>227.0</ele><time>2026-04-19T12:57:55.045Z</time></trkpt><trkpt lat="44.8160667" lon="8.0342517"><ele>224.5</ele><time>2026-04-19T12:57:56.041Z</time></trkpt><trkpt lat="44.8161017" lon="8.0344433"><ele>222.0</ele><time>2026-04-19T12:57:57.04Z</time></trkpt><trkpt lat="44.816125" lon="8.0346367"><ele>222.0</ele><time>2026-04-19T12:57:58.038Z</time></trkpt><trkpt lat="44.816145" lon="8.03484"><ele>222.0</ele><time>2026-04-19T12:57:59.085Z</time></trkpt><trkpt lat="44.8161617" lon="8.035045"><ele>222.0</ele><time>2026-04-19T12:58:00.047Z</time></trkpt><trkpt lat="44.81618" lon="8.0352433"><ele>222.0</ele><time>2026-04-19T12:58:01.036Z</time></trkpt><trkpt lat="44.8161983" lon="8.0354333"><ele>221.8</ele><time>2026-04-19T12:58:02.043Z</time></trkpt><trkpt lat="44.8162183" lon="8.0356"><ele>221.6</ele><time>2026-04-19T12:58:03.041Z</time></trkpt><trkpt lat="44.8162333" lon="8.0357417"><ele>221.40000000000003</ele><time>2026-04-19T12:58:04.037Z</time></trkpt><trkpt lat="44.8162433" lon="8.0358667"><ele>221.20000000000002</ele><time>2026-04-19T12:58:05.08Z</time></trkpt><trkpt lat="44.81624" lon="8.0359733"><ele>221.0</ele><time>2026-04-19T12:58:06.043Z</time></trkpt><trkpt lat="44.816215" lon="8.03607"><ele>220.16666666666669</ele><time>2026-04-19T12:58:07.046Z</time></trkpt><trkpt lat="44.8161667" lon="8.0361633"><ele>219.33333333333334</ele><time>2026-04-19T12:58:08.044Z</time></trkpt><trkpt lat="44.81609" lon="8.036245"><ele>218.5</ele><time>2026-04-19T12:58:09.045Z</time></trkpt><trkpt lat="44.8159983" lon="8.0363033"><ele>217.66666666666669</ele><time>2026-04-19T12:58:10.041Z</time></trkpt><trkpt lat="44.8159133" lon="8.0363483"><ele>216.83333333333334</ele><time>2026-04-19T12:58:11.085Z</time></trkpt><trkpt lat="44.8158417" lon="8.0363967"><ele>216.0</ele><time>2026-04-19T12:58:12.038Z</time></trkpt><trkpt lat="44.81582" lon="8.0365167"><ele>215.20000000000002</ele><time>2026-04-19T12:58:14.037Z</time></trkpt><trkpt lat="44.8158833" lon="8.0366267"><ele>214.40000000000003</ele><time>2026-04-19T12:58:16.041Z</time></trkpt><trkpt lat="44.8159867" lon="8.03667"><ele>213.6</ele><time>2026-04-19T12:58:17.079Z</time></trkpt><trkpt lat="44.8160733" lon="8.0367183"><ele>212.8</ele><time>2026-04-19T12:58:18.037Z</time></trkpt><trkpt lat="44.81615" lon="8.0367767"><ele>212.0</ele><time>2026-04-19T12:58:19.043Z</time></trkpt><trkpt lat="44.8161983" lon="8.0368667"><ele>212.0</ele><time>2026-04-19T12:58:20.038Z</time></trkpt><trkpt lat="44.816225" lon="8.0369833"><ele>212.0</ele><time>2026-04-19T12:58:21.037Z</time></trkpt><trkpt lat="44.81622" lon="8.0371367"><ele>212.0</ele><time>2026-04-19T12:58:22.044Z</time></trkpt><trkpt lat="44.8162017" lon="8.03731"><ele>212.0</ele><time>2026-04-19T12:58:23.081Z</time></trkpt><trkpt lat="44.8161817" lon="8.037495"><ele>210.75</ele><time>2026-04-19T12:58:24.037Z</time></trkpt><trkpt lat="44.8161617" lon="8.0376883"><ele>209.5</ele><time>2026-04-19T12:58:25.047Z</time></trkpt><trkpt lat="44.81614" lon="8.0378883"><ele>208.25</ele><time>2026-04-19T12:58:26.04Z</time></trkpt><trkpt lat="44.8161217" lon="8.038085"><ele>207.0</ele><time>2026-04-19T12:58:27.048Z</time></trkpt><trkpt lat="44.816105" lon="8.0382767"><ele>205.25</ele><time>2026-04-19T12:58:28.048Z</time></trkpt><trkpt lat="44.816095" lon="8.038465"><ele>203.5</ele><time>2026-04-19T12:58:29.082Z</time></trkpt><trkpt lat="44.8160983" lon="8.0386467"><ele>201.75</ele><time>2026-04-19T12:58:30.037Z</time></trkpt><trkpt lat="44.816115" lon="8.0388233"><ele>200.0</ele><time>2026-04-19T12:58:31.041Z</time></trkpt><trkpt lat="44.8161383" lon="8.038995"><ele>198.75</ele><time>2026-04-19T12:58:32.046Z</time></trkpt><trkpt lat="44.8161617" lon="8.0391633"><ele>197.5</ele><time>2026-04-19T12:58:33.037Z</time></trkpt><trkpt lat="44.8161667" lon="8.0393333"><ele>196.25</ele><time>2026-04-19T12:58:34.038Z</time></trkpt><trkpt lat="44.8161633" lon="8.0395117"><ele>195.0</ele><time>2026-04-19T12:58:35.088Z</time></trkpt><trkpt lat="44.8161383" lon="8.0396917"><ele>195.0</ele><time>2026-04-19T12:58:36.04Z</time></trkpt><trkpt lat="44.8161017" lon="8.039855"><ele>195.0</ele><time>2026-04-19T12:58:37.045Z</time></trkpt><trkpt lat="44.8160683" lon="8.0399867"><ele>195.0</ele><time>2026-04-19T12:58:38.041Z</time></trkpt><trkpt lat="44.8160283" lon="8.040075"><ele>195.0</ele><time>2026-04-19T12:58:39.043Z</time></trkpt><trkpt lat="44.815965" lon="8.0401317"><ele>195.0</ele><time>2026-04-19T12:58:40.042Z</time></trkpt><trkpt lat="44.8158883" lon="8.0401717"><ele>193.0</ele><time>2026-04-19T12:58:41.081Z</time></trkpt><trkpt lat="44.81579" lon="8.0402"><ele>191.0</ele><time>2026-04-19T12:58:42.037Z</time></trkpt><trkpt lat="44.815695" lon="8.040225"><ele>189.0</ele><time>2026-04-19T12:58:43.046Z</time></trkpt><trkpt lat="44.815615" lon="8.04025"><ele>187.0</ele><time>2026-04-19T12:58:44.042Z</time></trkpt><trkpt lat="44.8155517" lon="8.0402717"><ele>185.0</ele><time>2026-04-19T12:58:45.044Z</time></trkpt><trkpt lat="44.81548" lon="8.04031"><ele>183.0</ele><time>2026-04-19T12:58:47.077Z</time></trkpt><trkpt lat="44.81547" lon="8.0404733"><ele>183.0</ele><time>2026-04-19T12:58:50.039Z</time></trkpt><trkpt lat="44.81549" lon="8.0405833"><ele>183.0</ele><time>2026-04-19T12:58:51.042Z</time></trkpt><trkpt lat="44.81551" lon="8.04072"><ele>183.0</ele><time>2026-04-19T12:58:52.043Z</time></trkpt><trkpt lat="44.8155367" lon="8.0408783"><ele>183.0</ele><time>2026-04-19T12:58:53.086Z</time></trkpt><trkpt lat="44.8155667" lon="8.0410517"><ele>183.0</ele><time>2026-04-19T12:58:54.039Z</time></trkpt><trkpt lat="44.8156017" lon="8.0412317"><ele>181.75</ele><time>2026-04-19T12:58:55.042Z</time></trkpt><trkpt lat="44.8156367" lon="8.0414067"><ele>180.5</ele><time>2026-04-19T12:58:56.043Z</time></trkpt><trkpt lat="44.8156783" lon="8.0415767"><ele>179.25</ele><time>2026-04-19T12:58:57.043Z</time></trkpt><trkpt lat="44.8157367" lon="8.04174"><ele>178.0</ele><time>2026-04-19T12:58:58.042Z</time></trkpt><trkpt lat="44.8158" lon="8.041895"><ele>178.0</ele><time>2026-04-19T12:58:59.09Z</time></trkpt><trkpt lat="44.8158733" lon="8.0420317"><ele>178.0</ele><time>2026-04-19T12:59:00.052Z</time></trkpt><trkpt lat="44.815935" lon="8.0421517"><ele>178.0</ele><time>2026-04-19T12:59:01.042Z</time></trkpt><trkpt lat="44.8159717" lon="8.042275"><ele>178.0</ele><time>2026-04-19T12:59:02.041Z</time></trkpt><trkpt lat="44.81599" lon="8.0423983"><ele>178.0</ele><time>2026-04-19T12:59:03.045Z</time></trkpt><trkpt lat="44.8159817" lon="8.04252"><ele>176.25</ele><time>2026-04-19T12:59:04.042Z</time></trkpt><trkpt lat="44.8159033" lon="8.0426317"><ele>174.5</ele><time>2026-04-19T12:59:05.084Z</time></trkpt><trkpt lat="44.815825" lon="8.04273"><ele>172.75</ele><time>2026-04-19T12:59:06.04Z</time></trkpt><trkpt lat="44.8157433" lon="8.0428383"><ele>171.0</ele><time>2026-04-19T12:59:07.039Z</time></trkpt><trkpt lat="44.8156583" lon="8.0429617"><ele>171.0</ele><time>2026-04-19T12:59:08.041Z</time></trkpt><trkpt lat="44.815575" lon="8.0430983"><ele>171.0</ele><time>2026-04-19T12:59:09.041Z</time></trkpt><trkpt lat="44.815495" lon="8.0432483"><ele>171.0</ele><time>2026-04-19T12:59:10.044Z</time></trkpt><trkpt lat="44.8154267" lon="8.0434133"><ele>171.0</ele><time>2026-04-19T12:59:11.082Z</time></trkpt><trkpt lat="44.8153683" lon="8.043585"><ele>171.20000000000002</ele><time>2026-04-19T12:59:12.042Z</time></trkpt><trkpt lat="44.8153183" lon="8.0437467"><ele>171.4</ele><time>2026-04-19T12:59:13.036Z</time></trkpt><trkpt lat="44.8152733" lon="8.043885"><ele>171.6</ele><time>2026-04-19T12:59:14.037Z</time></trkpt><trkpt lat="44.815235" lon="8.044"><ele>171.8</ele><time>2026-04-19T12:59:15.038Z</time></trkpt><trkpt lat="44.8152" lon="8.0440983"><ele>172.0</ele><time>2026-04-19T12:59:16.04Z</time></trkpt><trkpt lat="44.8151683" lon="8.0441833"><ele>172.2</ele><time>2026-04-19T12:59:17.08Z</time></trkpt><trkpt lat="44.8151267" lon="8.044315"><ele>172.39999999999998</ele><time>2026-04-19T12:59:19.045Z</time></trkpt><trkpt lat="44.8151567" lon="8.0444333"><ele>172.60000000000002</ele><time>2026-04-19T12:59:22.038Z</time></trkpt><trkpt lat="44.815265" lon="8.0445467"><ele>172.8</ele><time>2026-04-19T12:59:24.042Z</time></trkpt><trkpt lat="44.8153367" lon="8.04462"><ele>173.0</ele><time>2026-04-19T12:59:25.041Z</time></trkpt><trkpt lat="44.8154167" lon="8.0447083"><ele>173.0</ele><time>2026-04-19T12:59:26.038Z</time></trkpt><trkpt lat="44.815495" lon="8.0448067"><ele>173.0</ele><time>2026-04-19T12:59:27.038Z</time></trkpt><trkpt lat="44.8155733" lon="8.0449083"><ele>173.0</ele><time>2026-04-19T12:59:28.043Z</time></trkpt><trkpt lat="44.8156533" lon="8.045015"><ele>173.0</ele><time>2026-04-19T12:59:29.088Z</time></trkpt><trkpt lat="44.8157317" lon="8.04512"><ele>173.0</ele><time>2026-04-19T12:59:30.048Z</time></trkpt><trkpt lat="44.81581" lon="8.0452233"><ele>173.4</ele><time>2026-04-19T12:59:31.039Z</time></trkpt><trkpt lat="44.8158867" lon="8.0453267"><ele>173.8</ele><time>2026-04-19T12:59:32.053Z</time></trkpt><trkpt lat="44.8159633" lon="8.0454333"><ele>174.2</ele><time>2026-04-19T12:59:33.039Z</time></trkpt><trkpt lat="44.8160367" lon="8.0455367"><ele>174.6</ele><time>2026-04-19T12:59:34.042Z</time></trkpt><trkpt lat="44.8161133" lon="8.04564"><ele>175.0</ele><time>2026-04-19T12:59:35.088Z</time></trkpt><trkpt lat="44.816185" lon="8.045745"><ele>174.6</ele><time>2026-04-19T12:59:36.04Z</time></trkpt><trkpt lat="44.816255" lon="8.0458567"><ele>174.2</ele><time>2026-04-19T12:59:37.039Z</time></trkpt><trkpt lat="44.8163233" lon="8.0459783"><ele>173.8</ele><time>2026-04-19T12:59:38.037Z</time></trkpt><trkpt lat="44.816385" lon="8.0461033"><ele>173.4</ele><time>2026-04-19T12:59:39.041Z</time></trkpt><trkpt lat="44.8164433" lon="8.04623"><ele>173.0</ele><time>2026-04-19T12:59:40.05Z</time></trkpt><trkpt lat="44.8165" lon="8.046355"><ele>173.0</ele><time>2026-04-19T12:59:41.078Z</time></trkpt><trkpt lat="44.81656" lon="8.0464767"><ele>173.0</ele><time>2026-04-19T12:59:42.039Z</time></trkpt><trkpt lat="44.8166217" lon="8.0465967"><ele>173.0</ele><time>2026-04-19T12:59:43.048Z</time></trkpt><trkpt lat="44.8166867" lon="8.0467117"><ele>173.0</ele><time>2026-04-19T12:59:44.04Z</time></trkpt><trkpt lat="44.8167533" lon="8.0468217"><ele>173.0</ele><time>2026-04-19T12:59:45.036Z</time></trkpt><trkpt lat="44.8168233" lon="8.0469267"><ele>172.8</ele><time>2026-04-19T12:59:46.044Z</time></trkpt><trkpt lat="44.8168983" lon="8.04703"><ele>172.60000000000002</ele><time>2026-04-19T12:59:47.08Z</time></trkpt><trkpt lat="44.8169717" lon="8.0471283"><ele>172.39999999999998</ele><time>2026-04-19T12:59:48.038Z</time></trkpt><trkpt lat="44.817045" lon="8.0472267"><ele>172.2</ele><time>2026-04-19T12:59:49.04Z</time></trkpt><trkpt lat="44.8171183" lon="8.0473267"><ele>172.0</ele><time>2026-04-19T12:59:50.04Z</time></trkpt><trkpt lat="44.817195" lon="8.0474283"><ele>171.39999999999998</ele><time>2026-04-19T12:59:51.04Z</time></trkpt><trkpt lat="44.8172717" lon="8.047535"><ele>170.79999999999998</ele><time>2026-04-19T12:59:52.045Z</time></trkpt><trkpt lat="44.8173467" lon="8.047645"><ele>170.2</ele><time>2026-04-19T12:59:53.082Z</time></trkpt><trkpt lat="44.8174233" lon="8.0477533"><ele>169.6</ele><time>2026-04-19T12:59:54.041Z</time></trkpt><trkpt lat="44.8175033" lon="8.0478617"><ele>169.0</ele><time>2026-04-19T12:59:55.045Z</time></trkpt><trkpt lat="44.8175783" lon="8.0479683"><ele>169.79999999999998</ele><time>2026-04-19T12:59:56.042Z</time></trkpt><trkpt lat="44.817655" lon="8.0480767"><ele>170.6</ele><time>2026-04-19T12:59:57.039Z</time></trkpt><trkpt lat="44.8177317" lon="8.0481883"><ele>171.4</ele><time>2026-04-19T12:59:58.037Z</time></trkpt><trkpt lat="44.8178067" lon="8.0483017"><ele>172.2</ele><time>2026-04-19T12:59:59.09Z</time></trkpt><trkpt lat="44.81788" lon="8.048415"><ele>173.0</ele><time>2026-04-19T13:00:00.042Z</time></trkpt><trkpt lat="44.81795" lon="8.04853"><ele>173.0</ele><time>2026-04-19T13:00:01.037Z</time></trkpt><trkpt lat="44.81802" lon="8.048645"><ele>173.0</ele><time>2026-04-19T13:00:02.038Z</time></trkpt><trkpt lat="44.8180917" lon="8.0487633"><ele>173.0</ele><time>2026-04-19T13:00:03.041Z</time></trkpt><trkpt lat="44.81816" lon="8.048885"><ele>173.0</ele><time>2026-04-19T13:00:04.042Z</time></trkpt><trkpt lat="44.8182317" lon="8.0490067"><ele>173.0</ele><time>2026-04-19T13:00:05.094Z</time></trkpt><trkpt lat="44.8183" lon="8.049125"><ele>173.2</ele><time>2026-04-19T13:00:06.036Z</time></trkpt><trkpt lat="44.81837" lon="8.0492433"><ele>173.4</ele><time>2026-04-19T13:00:07.039Z</time></trkpt><trkpt lat="44.8184383" lon="8.0493583"><ele>173.6</ele><time>2026-04-19T13:00:08.042Z</time></trkpt><trkpt lat="44.8185067" lon="8.04947"><ele>173.79999999999998</ele><time>2026-04-19T13:00:09.043Z</time></trkpt><trkpt lat="44.8185783" lon="8.0495783"><ele>174.0</ele><time>2026-04-19T13:00:10.037Z</time></trkpt><trkpt lat="44.818655" lon="8.0496817"><ele>174.0</ele><time>2026-04-19T13:00:11.079Z</time></trkpt><trkpt lat="44.8187317" lon="8.0497767"><ele>174.0</ele><time>2026-04-19T13:00:12.04Z</time></trkpt><trkpt lat="44.818805" lon="8.0498633"><ele>174.0</ele><time>2026-04-19T13:00:13.043Z</time></trkpt><trkpt lat="44.81887" lon="8.0499367"><ele>174.0</ele><time>2026-04-19T13:00:14.046Z</time></trkpt><trkpt lat="44.81893" lon="8.0500017"><ele>174.0</ele><time>2026-04-19T13:00:15.052Z</time></trkpt><trkpt lat="44.8189833" lon="8.0500683"><ele>174.0</ele><time>2026-04-19T13:00:16.043Z</time></trkpt><trkpt lat="44.8190267" lon="8.0501467"><ele>173.71428571428572</ele><time>2026-04-19T13:00:17.081Z</time></trkpt><trkpt lat="44.8190517" lon="8.0502383"><ele>173.42857142857144</ele><time>2026-04-19T13:00:18.041Z</time></trkpt><trkpt lat="44.8190667" lon="8.0503417"><ele>173.14285714285717</ele><time>2026-04-19T13:00:19.035Z</time></trkpt><trkpt lat="44.8190783" lon="8.0504483"><ele>172.85714285714286</ele><time>2026-04-19T13:00:20.041Z</time></trkpt><trkpt lat="44.8190967" lon="8.0505533"><ele>172.57142857142858</ele><time>2026-04-19T13:00:21.039Z</time></trkpt><trkpt lat="44.8191233" lon="8.050655"><ele>172.2857142857143</ele><time>2026-04-19T13:00:22.04Z</time></trkpt><trkpt lat="44.819145" lon="8.05075"><ele>172.0</ele><time>2026-04-19T13:00:23.079Z</time></trkpt><trkpt lat="44.819145" lon="8.050845"><ele>171.5</ele><time>2026-04-19T13:00:24.041Z</time></trkpt><trkpt lat="44.8191283" lon="8.05094"><ele>171.0</ele><time>2026-04-19T13:00:25.045Z</time></trkpt><trkpt lat="44.8190917" lon="8.0510333"><ele>170.5</ele><time>2026-04-19T13:00:26.047Z</time></trkpt><trkpt lat="44.8190433" lon="8.051135"><ele>170.0</ele><time>2026-04-19T13:00:27.04Z</time></trkpt><trkpt lat="44.8189967" lon="8.0512383"><ele>169.5</ele><time>2026-04-19T13:00:28.044Z</time></trkpt><trkpt lat="44.818955" lon="8.0513417"><ele>169.0</ele><time>2026-04-19T13:00:29.086Z</time></trkpt><trkpt lat="44.8189217" lon="8.0514533"><ele>169.0</ele><time>2026-04-19T13:00:30.043Z</time></trkpt><trkpt lat="44.818895" lon="8.0515733"><ele>169.0</ele><time>2026-04-19T13:00:31.04Z</time></trkpt><trkpt lat="44.818875" lon="8.0517017"><ele>169.0</ele><time>2026-04-19T13:00:32.039Z</time></trkpt><trkpt lat="44.8188633" lon="8.0518317"><ele>169.0</ele><time>2026-04-19T13:00:33.042Z</time></trkpt><trkpt lat="44.8188517" lon="8.05196"><ele>169.0</ele><time>2026-04-19T13:00:34.043Z</time></trkpt><trkpt lat="44.8188383" lon="8.0520867"><ele>168.66666666666669</ele><time>2026-04-19T13:00:35.087Z</time></trkpt><trkpt lat="44.8188283" lon="8.052205"><ele>168.33333333333334</ele><time>2026-04-19T13:00:36.039Z</time></trkpt><trkpt lat="44.8188183" lon="8.0523217"><ele>168.0</ele><time>2026-04-19T13:00:37.044Z</time></trkpt><trkpt lat="44.8188083" lon="8.052435"><ele>167.66666666666666</ele><time>2026-04-19T13:00:38.042Z</time></trkpt><trkpt lat="44.8187983" lon="8.0525483"><ele>167.33333333333331</ele><time>2026-04-19T13:00:39.042Z</time></trkpt><trkpt lat="44.8187883" lon="8.0526567"><ele>167.0</ele><time>2026-04-19T13:00:40.045Z</time></trkpt><trkpt lat="44.8187767" lon="8.0527533"><ele>166.6</ele><time>2026-04-19T13:00:41.078Z</time></trkpt><trkpt lat="44.818765" lon="8.0528417"><ele>166.2</ele><time>2026-04-19T13:00:42.043Z</time></trkpt><trkpt lat="44.8187517" lon="8.0529967"><ele>165.8</ele><time>2026-04-19T13:00:44.045Z</time></trkpt><trkpt lat="44.8187483" lon="8.0531433"><ele>165.4</ele><time>2026-04-19T13:00:46.046Z</time></trkpt><trkpt lat="44.8187617" lon="8.053335"><ele>165.0</ele><time>2026-04-19T13:00:48.037Z</time></trkpt><trkpt lat="44.8187783" lon="8.05345"><ele>164.66666666666666</ele><time>2026-04-19T13:00:49.038Z</time></trkpt><trkpt lat="44.8188017" lon="8.0535717"><ele>164.33333333333334</ele><time>2026-04-19T13:00:50.037Z</time></trkpt><trkpt lat="44.8188233" lon="8.0536967"><ele>164.0</ele><time>2026-04-19T13:00:51.043Z</time></trkpt><trkpt lat="44.8188467" lon="8.053815"><ele>163.66666666666669</ele><time>2026-04-19T13:00:52.043Z</time></trkpt><trkpt lat="44.8188733" lon="8.053935"><ele>163.33333333333334</ele><time>2026-04-19T13:00:53.079Z</time></trkpt><trkpt lat="44.8189017" lon="8.0540533"><ele>163.0</ele><time>2026-04-19T13:00:54.039Z</time></trkpt><trkpt lat="44.81893" lon="8.0541733"><ele>162.60000000000002</ele><time>2026-04-19T13:00:55.039Z</time></trkpt><trkpt lat="44.8189617" lon="8.0542917"><ele>162.20000000000002</ele><time>2026-04-19T13:00:56.039Z</time></trkpt><trkpt lat="44.8189983" lon="8.05441"><ele>161.8</ele><time>2026-04-19T13:00:57.039Z</time></trkpt><trkpt lat="44.8190383" lon="8.0545267"><ele>161.4</ele><time>2026-04-19T13:00:58.035Z</time></trkpt><trkpt lat="44.81908" lon="8.0546433"><ele>161.0</ele><time>2026-04-19T13:00:59.089Z</time></trkpt><trkpt lat="44.819125" lon="8.05476"><ele>161.0</ele><time>2026-04-19T13:01:00.042Z</time></trkpt><trkpt lat="44.8191733" lon="8.0548783"><ele>161.0</ele><time>2026-04-19T13:01:01.04Z</time></trkpt><trkpt lat="44.81922" lon="8.054995"><ele>161.0</ele><time>2026-04-19T13:01:02.033Z</time></trkpt><trkpt lat="44.8192683" lon="8.05511"><ele>161.0</ele><time>2026-04-19T13:01:03.04Z</time></trkpt><trkpt lat="44.819315" lon="8.0552267"><ele>161.0</ele><time>2026-04-19T13:01:04.038Z</time></trkpt><trkpt lat="44.8193633" lon="8.0553417"><ele>161.20000000000002</ele><time>2026-04-19T13:01:05.088Z</time></trkpt><trkpt lat="44.81941" lon="8.055455"><ele>161.4</ele><time>2026-04-19T13:01:06.035Z</time></trkpt><trkpt lat="44.8194583" lon="8.0555667"><ele>161.6</ele><time>2026-04-19T13:01:07.044Z</time></trkpt><trkpt lat="44.819505" lon="8.05568"><ele>161.8</ele><time>2026-04-19T13:01:08.045Z</time></trkpt><trkpt lat="44.8195533" lon="8.0557933"><ele>162.0</ele><time>2026-04-19T13:01:09.041Z</time></trkpt><trkpt lat="44.8196" lon="8.0559067"><ele>162.0</ele><time>2026-04-19T13:01:10.036Z</time></trkpt><trkpt lat="44.8196467" lon="8.0560183"><ele>162.0</ele><time>2026-04-19T13:01:11.082Z</time></trkpt><trkpt lat="44.8196933" lon="8.0561283"><ele>162.0</ele><time>2026-04-19T13:01:12.04Z</time></trkpt><trkpt lat="44.8197383" lon="8.0562383"><ele>162.0</ele><time>2026-04-19T13:01:13.039Z</time></trkpt><trkpt lat="44.819785" lon="8.0563483"><ele>162.0</ele><time>2026-04-19T13:01:14.04Z</time></trkpt><trkpt lat="44.81983" lon="8.05646"><ele>162.0</ele><time>2026-04-19T13:01:15.038Z</time></trkpt><trkpt lat="44.8198667" lon="8.0565667"><ele>162.0</ele><time>2026-04-19T13:01:16.044Z</time></trkpt><trkpt lat="44.8198883" lon="8.0566633"><ele>162.0</ele><time>2026-04-19T13:01:17.076Z</time></trkpt><trkpt lat="44.8199017" lon="8.05676"><ele>162.0</ele><time>2026-04-19T13:01:18.04Z</time></trkpt><trkpt lat="44.8199117" lon="8.05686"><ele>162.0</ele><time>2026-04-19T13:01:19.035Z</time></trkpt><trkpt lat="44.8199233" lon="8.0569667"><ele>162.0</ele><time>2026-04-19T13:01:20.043Z</time></trkpt><trkpt lat="44.8199333" lon="8.057065"><ele>162.0</ele><time>2026-04-19T13:01:21.041Z</time></trkpt><trkpt lat="44.8199433" lon="8.0571583"><ele>161.83333333333334</ele><time>2026-04-19T13:01:22.041Z</time></trkpt><trkpt lat="44.819955" lon="8.05725"><ele>161.66666666666666</ele><time>2026-04-19T13:01:23.078Z</time></trkpt><trkpt lat="44.8199667" lon="8.0573417"><ele>161.5</ele><time>2026-04-19T13:01:24.039Z</time></trkpt><trkpt lat="44.819985" lon="8.0575067"><ele>161.33333333333331</ele><time>2026-04-19T13:01:26.037Z</time></trkpt><trkpt lat="44.819995" lon="8.0576383"><ele>161.16666666666666</ele><time>2026-04-19T13:01:28.036Z</time></trkpt><trkpt lat="44.8200067" lon="8.0577367"><ele>161.0</ele><time>2026-04-19T13:01:30.039Z</time></trkpt><trkpt lat="44.8200183" lon="8.057855"><ele>161.0</ele><time>2026-04-19T13:01:33.041Z</time></trkpt></trkseg></trk></gpx>